<?xml version='1.0' encoding='UTF-8'?><gpx version="1.1" creator="JPX - https://github.com/jenetics/jpx" xmlns="http://www.topografix.com/GPX/1/1"><trk><trkseg><trkpt lat="45.020225895639236" lon="9.406840000830933"><ele>112.0</ele><time>2026-04-23T09:21:21Z</time></trkpt><trkpt lat="45.020214538419054" lon="9.406933335137893"><ele>111.99999999999999</ele><time>2026-04-23T09:21:22Z</time></trkpt><trkpt lat="45.02019925573118" lon="9.40706115297343"><ele>111.99999999999999</ele><time>2026-04-23T09:21:23Z</time></trkpt><trkpt lat="45.02016605981766" lon="9.407227745681368"><ele>112.0</ele><time>2026-04-23T09:21:24Z</time></trkpt><trkpt lat="45.02014002575121" lon="9.407396549370343"><ele>112.0</ele><time>2026-04-23T09:21:25Z</time></trkpt><trkpt lat="45.02007609974508" lon="9.407600858426013"><ele>112.0</ele><time>2026-04-23T09:21:26Z</time></trkpt><trkpt lat="45.02002036198218" lon="9.407817550121473"><ele>112.0</ele><time>2026-04-23T09:21:27Z</time></trkpt><trkpt lat="45.01996438697983" lon="9.408046735085778"><ele>112.0</ele><time>2026-04-23T09:21:28Z</time></trkpt><trkpt lat="45.019901997207164" lon="9.4082913424712"><ele>112.0</ele><time>2026-04-23T09:21:29Z</time></trkpt><trkpt lat="45.01983840110739" lon="9.408530486860704"><ele>112.0</ele><time>2026-04-23T09:21:30Z</time></trkpt><trkpt lat="45.01978024207913" lon="9.408778879163116"><ele>112.0</ele><time>2026-04-23T09:21:31Z</time></trkpt><trkpt lat="45.01972067911608" lon="9.409029750869799"><ele>112.0</ele><time>2026-04-23T09:21:32Z</time></trkpt><trkpt lat="45.019658382177745" lon="9.409280466319435"><ele>112.0</ele><time>2026-04-23T09:21:33Z</time></trkpt><trkpt lat="45.01959984103766" lon="9.409525752738903"><ele>112.0</ele><time>2026-04-23T09:21:34Z</time></trkpt><trkpt lat="45.019544082453216" lon="9.409761314218986"><ele>112.33333333333334</ele><time>2026-04-23T09:21:35Z</time></trkpt><trkpt lat="45.01949545602102" lon="9.409984458736018"><ele>112.66666666666666</ele><time>2026-04-23T09:21:36Z</time></trkpt><trkpt lat="45.019446394644675" lon="9.410190969939867"><ele>113.0</ele><time>2026-04-23T09:21:37Z</time></trkpt><trkpt lat="45.01940192972305" lon="9.410383868308243"><ele>113.0</ele><time>2026-04-23T09:21:38Z</time></trkpt><trkpt lat="45.01935497604662" lon="9.410568276450528"><ele>113.0</ele><time>2026-04-23T09:21:39Z</time></trkpt><trkpt lat="45.01930495167622" lon="9.410744445722468"><ele>113.0</ele><time>2026-04-23T09:21:40Z</time></trkpt><trkpt lat="45.01925177708887" lon="9.410927782760384"><ele>113.0</ele><time>2026-04-23T09:21:41Z</time></trkpt><trkpt lat="45.01920264636695" lon="9.411126980394165"><ele>113.5</ele><time>2026-04-23T09:21:42Z</time></trkpt><trkpt lat="45.01915973098059" lon="9.411325411094966"><ele>114.0</ele><time>2026-04-23T09:21:43Z</time></trkpt><trkpt lat="45.019114347393185" lon="9.411502180615587"><ele>114.5</ele><time>2026-04-23T09:21:44Z</time></trkpt><trkpt lat="45.01904286239798" lon="9.411660260294612"><ele>115.0</ele><time>2026-04-23T09:21:45Z</time></trkpt><trkpt lat="45.01894130359367" lon="9.411794607700015"><ele>115.0</ele><time>2026-04-23T09:21:46Z</time></trkpt><trkpt lat="45.01884788380318" lon="9.41189147808473"><ele>115.0</ele><time>2026-04-23T09:21:47Z</time></trkpt><trkpt lat="45.01875772549429" lon="9.41194578925481"><ele>115.0</ele><time>2026-04-23T09:21:48Z</time></trkpt><trkpt lat="45.018688759551345" lon="9.411989564833688"><ele>115.0</ele><time>2026-04-23T09:21:49Z</time></trkpt><trkpt lat="45.01859216578143" lon="9.41182846357188"><ele>115.0</ele><time>2026-04-23T09:21:53Z</time></trkpt><trkpt lat="45.01850846621346" lon="9.411704009620678"><ele>115.0</ele><time>2026-04-23T09:21:54Z</time></trkpt><trkpt lat="45.01840335040147" lon="9.411565215091724"><ele>115.0</ele><time>2026-04-23T09:21:55Z</time></trkpt><trkpt lat="45.018279876571" lon="9.411466642587504"><ele>115.0</ele><time>2026-04-23T09:21:56Z</time></trkpt><trkpt lat="45.018136815999554" lon="9.411342936648946"><ele>115.0</ele><time>2026-04-23T09:21:56.999Z</time></trkpt><trkpt lat="45.01797360919019" lon="9.411225328908058"><ele>115.0</ele><time>2026-04-23T09:21:57.999Z</time></trkpt><trkpt lat="45.01781910055415" lon="9.411107514746098"><ele>115.0</ele><time>2026-04-23T09:21:58.999Z</time></trkpt><trkpt lat="45.017682025199996" lon="9.411016314933239"><ele>115.0</ele><time>2026-04-23T09:21:59.999Z</time></trkpt><trkpt lat="45.01755875356653" lon="9.41092959227419"><ele>115.0</ele><time>2026-04-23T09:22:00.999Z</time></trkpt><trkpt lat="45.01744625073809" lon="9.410850854846425"><ele>115.0</ele><time>2026-04-23T09:22:01.999Z</time></trkpt><trkpt lat="45.017327865367854" lon="9.410770348275184"><ele>115.0</ele><time>2026-04-23T09:22:02.999Z</time></trkpt><trkpt lat="45.017210862949625" lon="9.410685456407466"><ele>115.5</ele><time>2026-04-23T09:22:03.999Z</time></trkpt><trkpt lat="45.017090059934134" lon="9.410594991363144"><ele>116.0</ele><time>2026-04-23T09:22:04.999Z</time></trkpt><trkpt lat="45.01696467194548" lon="9.410498777912515"><ele>116.5</ele><time>2026-04-23T09:22:05.999Z</time></trkpt><trkpt lat="45.016846660282354" lon="9.410411383969523"><ele>117.0</ele><time>2026-04-23T09:22:06.999Z</time></trkpt><trkpt lat="45.01674640739266" lon="9.410338291835155"><ele>117.19999999999999</ele><time>2026-04-23T09:22:07.999Z</time></trkpt><trkpt lat="45.01665213934505" lon="9.410266674395967"><ele>117.39999999999999</ele><time>2026-04-23T09:22:08.999Z</time></trkpt><trkpt lat="45.01656009154926" lon="9.410193785075876"><ele>117.60000000000001</ele><time>2026-04-23T09:22:09.999Z</time></trkpt><trkpt lat="45.016459342620735" lon="9.410114859430271"><ele>117.80000000000001</ele><time>2026-04-23T09:22:10.999Z</time></trkpt><trkpt lat="45.01635207334822" lon="9.410034154604018"><ele>118.0</ele><time>2026-04-23T09:22:11.999Z</time></trkpt><trkpt lat="45.01622555721016" lon="9.409943009721275"><ele>118.0</ele><time>2026-04-23T09:22:12.999Z</time></trkpt><trkpt lat="45.016109156419226" lon="9.409866148326575"><ele>118.0</ele><time>2026-04-23T09:22:13.999Z</time></trkpt><trkpt lat="45.015991600633946" lon="9.409770949072346"><ele>118.0</ele><time>2026-04-23T09:22:14.999Z</time></trkpt><trkpt lat="45.01586857756986" lon="9.409680779236728"><ele>118.0</ele><time>2026-04-23T09:22:15.999Z</time></trkpt><trkpt lat="45.01574291928457" lon="9.409589108216032"><ele>118.0</ele><time>2026-04-23T09:22:16.999Z</time></trkpt><trkpt lat="45.015614347777436" lon="9.409499271136912"><ele>118.0</ele><time>2026-04-23T09:22:17.999Z</time></trkpt><trkpt lat="45.01548490919623" lon="9.40940296229677"><ele>118.0</ele><time>2026-04-23T09:22:18.999Z</time></trkpt><trkpt lat="45.01535967275716" lon="9.409303338692228"><ele>118.0</ele><time>2026-04-23T09:22:19.999Z</time></trkpt><trkpt lat="45.015228439687235" lon="9.409214754165575"><ele>118.0</ele><time>2026-04-23T09:22:20.999Z</time></trkpt><trkpt lat="45.01510652045072" lon="9.409115593081237"><ele>118.0</ele><time>2026-04-23T09:22:21.999Z</time></trkpt><trkpt lat="45.01497802009667" lon="9.40902732193048"><ele>118.0</ele><time>2026-04-23T09:22:22.999Z</time></trkpt><trkpt lat="45.01485565198208" lon="9.408926785711053"><ele>118.0</ele><time>2026-04-23T09:22:23.999Z</time></trkpt><trkpt lat="45.01473683202077" lon="9.408837893751025"><ele>118.0</ele><time>2026-04-23T09:22:24.999Z</time></trkpt><trkpt lat="45.01461972373837" lon="9.408753019689993"><ele>118.0</ele><time>2026-04-23T09:22:25.999Z</time></trkpt><trkpt lat="45.01450570776557" lon="9.408672217731942"><ele>118.0</ele><time>2026-04-23T09:22:26.999Z</time></trkpt><trkpt lat="45.014394548445146" lon="9.408590009005785"><ele>118.0</ele><time>2026-04-23T09:22:27.999Z</time></trkpt><trkpt lat="45.014281008661406" lon="9.408498308484475"><ele>118.0</ele><time>2026-04-23T09:22:28.999Z</time></trkpt><trkpt lat="45.014160488389855" lon="9.408399993647706"><ele>118.0</ele><time>2026-04-23T09:22:29.999Z</time></trkpt><trkpt lat="45.0140377350182" lon="9.408303768603362"><ele>118.0</ele><time>2026-04-23T09:22:30.999Z</time></trkpt><trkpt lat="45.01390880328195" lon="9.40820425164878"><ele>118.0</ele><time>2026-04-23T09:22:31.999Z</time></trkpt><trkpt lat="45.013777976742276" lon="9.408113410456584"><ele>119.0</ele><time>2026-04-23T09:22:32.999Z</time></trkpt><trkpt lat="45.01364554419825" lon="9.40801842194313"><ele>120.0</ele><time>2026-04-23T09:22:33.999Z</time></trkpt><trkpt lat="45.01351290138803" lon="9.407924078929721"><ele>121.0</ele><time>2026-04-23T09:22:34.999Z</time></trkpt><trkpt lat="45.013379651115365" lon="9.407825770286642"><ele>122.0</ele><time>2026-04-23T09:22:35.999Z</time></trkpt><trkpt lat="45.01324591405515" lon="9.407728818276267"><ele>122.5</ele><time>2026-04-23T09:22:36.999Z</time></trkpt><trkpt lat="45.01311213737333" lon="9.407622637041623"><ele>123.0</ele><time>2026-04-23T09:22:37.999Z</time></trkpt><trkpt lat="45.01298063763465" lon="9.407523902678172"><ele>123.5</ele><time>2026-04-23T09:22:38.999Z</time></trkpt><trkpt lat="45.01285152365175" lon="9.407424196354512"><ele>124.0</ele><time>2026-04-23T09:22:39.999Z</time></trkpt><trkpt lat="45.012718267737775" lon="9.407322959482594"><ele>124.0</ele><time>2026-04-23T09:22:40.999Z</time></trkpt><trkpt lat="45.012586719258586" lon="9.407222388630487"><ele>124.0</ele><time>2026-04-23T09:22:41.999Z</time></trkpt><trkpt lat="45.01245692193484" lon="9.407133540895153"><ele>124.0</ele><time>2026-04-23T09:22:42.999Z</time></trkpt><trkpt lat="45.012333024535266" lon="9.407057354837864"><ele>124.0</ele><time>2026-04-23T09:22:43.999Z</time></trkpt><trkpt lat="45.012214695551336" lon="9.406982075413657"><ele>124.0</ele><time>2026-04-23T09:22:44.999Z</time></trkpt><trkpt lat="45.01208846355185" lon="9.406913150421332"><ele>124.0</ele><time>2026-04-23T09:22:45.999Z</time></trkpt><trkpt lat="45.01195236628684" lon="9.406845251617476"><ele>124.0</ele><time>2026-04-23T09:22:46.999Z</time></trkpt><trkpt lat="45.01181303703239" lon="9.406787613527692"><ele>124.0</ele><time>2026-04-23T09:22:47.999Z</time></trkpt><trkpt lat="45.01167669099559" lon="9.406698387541775"><ele>124.25</ele><time>2026-04-23T09:22:48.999Z</time></trkpt><trkpt lat="45.01153755251072" lon="9.406631164634215"><ele>124.5</ele><time>2026-04-23T09:22:49.999Z</time></trkpt><trkpt lat="45.01139290068261" lon="9.406581811377922"><ele>124.75</ele><time>2026-04-23T09:22:50.999Z</time></trkpt><trkpt lat="45.01125384580004" lon="9.406505540475557"><ele>125.0</ele><time>2026-04-23T09:22:51.999Z</time></trkpt><trkpt lat="45.011104067050205" lon="9.406431860110414"><ele>125.0</ele><time>2026-04-23T09:22:52.999Z</time></trkpt><trkpt lat="45.010951922222795" lon="9.406360437143375"><ele>125.0</ele><time>2026-04-23T09:22:53.999Z</time></trkpt><trkpt lat="45.01080863249943" lon="9.406279523615547"><ele>125.0</ele><time>2026-04-23T09:22:54.999Z</time></trkpt><trkpt lat="45.01067268850711" lon="9.406203808785685"><ele>126.0</ele><time>2026-04-23T09:22:55.999Z</time></trkpt><trkpt lat="45.01053576329275" lon="9.406148290509641"><ele>127.0</ele><time>2026-04-23T09:22:56.999Z</time></trkpt><trkpt lat="45.01041063936919" lon="9.406094754917337"><ele>128.0</ele><time>2026-04-23T09:22:57.999Z</time></trkpt><trkpt lat="45.010298064840036" lon="9.406043378435653"><ele>129.0</ele><time>2026-04-23T09:22:58.999Z</time></trkpt><trkpt lat="45.01018775487449" lon="9.405996906786845"><ele>129.0</ele><time>2026-04-23T09:22:59.999Z</time></trkpt><trkpt lat="45.01008995526069" lon="9.405951709266903"><ele>129.0</ele><time>2026-04-23T09:23:00.999Z</time></trkpt><trkpt lat="45.010003105325815" lon="9.4059181005673"><ele>129.0</ele><time>2026-04-23T09:23:01.998Z</time></trkpt><trkpt lat="45.009920388041714" lon="9.405897330664647"><ele>129.0</ele><time>2026-04-23T09:23:02.998Z</time></trkpt><trkpt lat="45.00985650008134" lon="9.405832772971431"><ele>129.0</ele><time>2026-04-23T09:23:04.998Z</time></trkpt><trkpt lat="45.009918870742815" lon="9.405726002902371"><ele>128.6</ele><time>2026-04-23T09:23:06.998Z</time></trkpt><trkpt lat="45.009927682104895" lon="9.405636226446548"><ele>128.2</ele><time>2026-04-23T09:23:07.998Z</time></trkpt><trkpt lat="45.00994058801065" lon="9.405524573419516"><ele>127.79999999999998</ele><time>2026-04-23T09:23:08.998Z</time></trkpt><trkpt lat="45.00996107481566" lon="9.405370361429897"><ele>127.39999999999999</ele><time>2026-04-23T09:23:09.998Z</time></trkpt><trkpt lat="45.009986175585134" lon="9.405206347488079"><ele>127.0</ele><time>2026-04-23T09:23:10.998Z</time></trkpt><trkpt lat="45.0100160773306" lon="9.405046924318258"><ele>127.0</ele><time>2026-04-23T09:23:11.998Z</time></trkpt><trkpt lat="45.01005078336964" lon="9.404879975207466"><ele>126.99999999999999</ele><time>2026-04-23T09:23:12.998Z</time></trkpt><trkpt lat="45.01008628938873" lon="9.4047364806551"><ele>126.99999999999999</ele><time>2026-04-23T09:23:13.998Z</time></trkpt><trkpt lat="45.01011871779388" lon="9.404620969476984"><ele>127.0</ele><time>2026-04-23T09:23:14.998Z</time></trkpt><trkpt lat="45.010149256028846" lon="9.404533456362904"><ele>127.0</ele><time>2026-04-23T09:23:15.998Z</time></trkpt><trkpt lat="45.01016742767552" lon="9.40444796230393"><ele>126.6</ele><time>2026-04-23T09:23:16.998Z</time></trkpt><trkpt lat="45.01022411283081" lon="9.404362723357153"><ele>126.19999999999999</ele><time>2026-04-23T09:23:18.998Z</time></trkpt><trkpt lat="45.010140208414455" lon="9.404237987230358"><ele>125.8</ele><time>2026-04-23T09:23:21Z</time></trkpt><trkpt lat="45.010028652839544" lon="9.404155650120705"><ele>125.4</ele><time>2026-04-23T09:23:23Z</time></trkpt><trkpt lat="45.0099293393093" lon="9.404082773989687"><ele>125.0</ele><time>2026-04-23T09:23:24Z</time></trkpt><trkpt lat="45.009810879982524" lon="9.404012072304685"><ele>126.0</ele><time>2026-04-23T09:23:25Z</time></trkpt><trkpt lat="45.00968641013012" lon="9.403936641318099"><ele>127.0</ele><time>2026-04-23T09:23:26Z</time></trkpt><trkpt lat="45.00954695137104" lon="9.403876086848888"><ele>128.0</ele><time>2026-04-23T09:23:27Z</time></trkpt><trkpt lat="45.00940373910603" lon="9.403780989070995"><ele>129.0</ele><time>2026-04-23T09:23:28Z</time></trkpt><trkpt lat="45.00927495020198" lon="9.40369507784478"><ele>129.75</ele><time>2026-04-23T09:23:29Z</time></trkpt><trkpt lat="45.009143868439665" lon="9.403591951492496"><ele>130.5</ele><time>2026-04-23T09:23:30Z</time></trkpt><trkpt lat="45.00902195345866" lon="9.403503116029169"><ele>131.25</ele><time>2026-04-23T09:23:31Z</time></trkpt><trkpt lat="45.00891367501589" lon="9.403413495868511"><ele>132.0</ele><time>2026-04-23T09:23:32Z</time></trkpt><trkpt lat="45.00878304680389" lon="9.403334128844946"><ele>132.0</ele><time>2026-04-23T09:23:33Z</time></trkpt><trkpt lat="45.00867011437739" lon="9.403235707798574"><ele>132.0</ele><time>2026-04-23T09:23:34Z</time></trkpt><trkpt lat="45.00856961500897" lon="9.40317294984477"><ele>132.0</ele><time>2026-04-23T09:23:35Z</time></trkpt><trkpt lat="45.00847560968819" lon="9.403089844385212"><ele>132.0</ele><time>2026-04-23T09:23:36Z</time></trkpt><trkpt lat="45.008391182271566" lon="9.403014598420343"><ele>132.4</ele><time>2026-04-23T09:23:37Z</time></trkpt><trkpt lat="45.00831991943189" lon="9.402934051957113"><ele>132.79999999999998</ele><time>2026-04-23T09:23:38Z</time></trkpt><trkpt lat="45.008236382515136" lon="9.402879299986436"><ele>133.2</ele><time>2026-04-23T09:23:39Z</time></trkpt><trkpt lat="45.00812765830839" lon="9.40285734138417"><ele>133.6</ele><time>2026-04-23T09:23:40Z</time></trkpt><trkpt lat="45.008003468736334" lon="9.40286379998995"><ele>134.0</ele><time>2026-04-23T09:23:41Z</time></trkpt><trkpt lat="45.00792266151257" lon="9.402847856216878"><ele>134.0</ele><time>2026-04-23T09:23:42Z</time></trkpt><trkpt lat="45.007864578786155" lon="9.402812556454917"><ele>134.0</ele><time>2026-04-23T09:23:43Z</time></trkpt><trkpt lat="45.00780295880954" lon="9.402613313018845"><ele>134.0</ele><time>2026-04-23T09:23:45Z</time></trkpt><trkpt lat="45.0078013182117" lon="9.402448026070438"><ele>134.0</ele><time>2026-04-23T09:23:46Z</time></trkpt><trkpt lat="45.00780086735656" lon="9.40232370495544"><ele>134.0</ele><time>2026-04-23T09:23:47Z</time></trkpt><trkpt lat="45.007784851498265" lon="9.402232948394342"><ele>134.6</ele><time>2026-04-23T09:23:48Z</time></trkpt><trkpt lat="45.007727112637944" lon="9.402122114176745"><ele>135.2</ele><time>2026-04-23T09:23:49Z</time></trkpt><trkpt lat="45.00766632221695" lon="9.401999135676919"><ele>135.79999999999998</ele><time>2026-04-23T09:23:50Z</time></trkpt><trkpt lat="45.007631532596804" lon="9.401873558548186"><ele>136.4</ele><time>2026-04-23T09:23:51Z</time></trkpt><trkpt lat="45.00761631958844" lon="9.401744613822462"><ele>137.0</ele><time>2026-04-23T09:23:52Z</time></trkpt><trkpt lat="45.007636777921505" lon="9.401608954725978"><ele>137.0</ele><time>2026-04-23T09:23:53Z</time></trkpt><trkpt lat="45.00767595937284" lon="9.401480531422207"><ele>137.0</ele><time>2026-04-23T09:23:54Z</time></trkpt><trkpt lat="45.00770245501869" lon="9.401358227572281"><ele>137.0</ele><time>2026-04-23T09:23:55Z</time></trkpt><trkpt lat="45.00769514796602" lon="9.401249469001861"><ele>137.0</ele><time>2026-04-23T09:23:56Z</time></trkpt><trkpt lat="45.00766627282538" lon="9.401099880444077"><ele>137.0</ele><time>2026-04-23T09:23:57Z</time></trkpt><trkpt lat="45.00761716941786" lon="9.400934535728332"><ele>137.6</ele><time>2026-04-23T09:23:58Z</time></trkpt><trkpt lat="45.007565597700214" lon="9.400766895623224"><ele>138.2</ele><time>2026-04-23T09:23:59Z</time></trkpt><trkpt lat="45.00752524573324" lon="9.400608019476255"><ele>138.8</ele><time>2026-04-23T09:24:00Z</time></trkpt><trkpt lat="45.00748665824724" lon="9.400481609340487"><ele>139.4</ele><time>2026-04-23T09:24:01Z</time></trkpt><trkpt lat="45.00745217798285" lon="9.400369679087417"><ele>140.0</ele><time>2026-04-23T09:24:02Z</time></trkpt><trkpt lat="45.007433539993905" lon="9.400246149927296"><ele>140.0</ele><time>2026-04-23T09:24:03Z</time></trkpt><trkpt lat="45.00742473012301" lon="9.400113127265971"><ele>140.0</ele><time>2026-04-23T09:24:03.999Z</time></trkpt><trkpt lat="45.007409334850905" lon="9.399989659921975"><ele>140.0</ele><time>2026-04-23T09:24:04.999Z</time></trkpt><trkpt lat="45.00740703562524" lon="9.399869672063689"><ele>140.0</ele><time>2026-04-23T09:24:05.999Z</time></trkpt><trkpt lat="45.00741528479981" lon="9.39975144237755"><ele>140.0</ele><time>2026-04-23T09:24:06.999Z</time></trkpt><trkpt lat="45.00745179724338" lon="9.399633784337318"><ele>140.0</ele><time>2026-04-23T09:24:07.999Z</time></trkpt><trkpt lat="45.007497554779654" lon="9.399558281460365"><ele>140.0</ele><time>2026-04-23T09:24:08.999Z</time></trkpt><trkpt lat="45.00751788687532" lon="9.399472904878849"><ele>140.0</ele><time>2026-04-23T09:24:09.999Z</time></trkpt><trkpt lat="45.00751653547338" lon="9.399371487239367"><ele>140.0</ele><time>2026-04-23T09:24:10.999Z</time></trkpt><trkpt lat="45.00750183749082" lon="9.399250728923592"><ele>140.0</ele><time>2026-04-23T09:24:11.999Z</time></trkpt><trkpt lat="45.00748668700771" lon="9.399101802942132"><ele>140.0</ele><time>2026-04-23T09:24:12.999Z</time></trkpt><trkpt lat="45.00746362181772" lon="9.398945625456115"><ele>140.0</ele><time>2026-04-23T09:24:13.999Z</time></trkpt><trkpt lat="45.00741925877622" lon="9.39877988586705"><ele>141.2</ele><time>2026-04-23T09:24:14.999Z</time></trkpt><trkpt lat="45.007377992846685" lon="9.398636108125386"><ele>142.4</ele><time>2026-04-23T09:24:15.999Z</time></trkpt><trkpt lat="45.00734673430255" lon="9.398498517704933"><ele>143.6</ele><time>2026-04-23T09:24:16.999Z</time></trkpt><trkpt lat="45.007311596717834" lon="9.398383134987007"><ele>144.8</ele><time>2026-04-23T09:24:17.999Z</time></trkpt><trkpt lat="45.007245524998076" lon="9.39827135492274"><ele>146.0</ele><time>2026-04-23T09:24:18.999Z</time></trkpt><trkpt lat="45.0071578364044" lon="9.398145153393104"><ele>146.0</ele><time>2026-04-23T09:24:19.999Z</time></trkpt><trkpt lat="45.00709223642156" lon="9.398022777039307"><ele>146.0</ele><time>2026-04-23T09:24:20.999Z</time></trkpt><trkpt lat="45.00704750336041" lon="9.397937425652039"><ele>146.0</ele><time>2026-04-23T09:24:21.999Z</time></trkpt><trkpt lat="45.007017547439524" lon="9.397853663957358"><ele>146.0</ele><time>2026-04-23T09:24:22.999Z</time></trkpt><trkpt lat="45.0069660190636" lon="9.397751027972815"><ele>146.0</ele><time>2026-04-23T09:24:23.999Z</time></trkpt><trkpt lat="45.006903544219014" lon="9.397636669629001"><ele>146.0</ele><time>2026-04-23T09:24:24.999Z</time></trkpt><trkpt lat="45.00686001413579" lon="9.397501951065811"><ele>146.0</ele><time>2026-04-23T09:24:25.999Z</time></trkpt><trkpt lat="45.0068234443791" lon="9.397325006091856"><ele>146.0</ele><time>2026-04-23T09:24:26.999Z</time></trkpt><trkpt lat="45.006769543619214" lon="9.397149041189703"><ele>146.0</ele><time>2026-04-23T09:24:27.999Z</time></trkpt><trkpt lat="45.00672368759928" lon="9.396996896322673"><ele>146.0</ele><time>2026-04-23T09:24:28.999Z</time></trkpt><trkpt lat="45.006685219127995" lon="9.396853878895886"><ele>146.5</ele><time>2026-04-23T09:24:29.999Z</time></trkpt><trkpt lat="45.00665490762636" lon="9.396744839900009"><ele>147.0</ele><time>2026-04-23T09:24:30.999Z</time></trkpt><trkpt lat="45.00662462580627" lon="9.396652198037414"><ele>147.5</ele><time>2026-04-23T09:24:31.999Z</time></trkpt><trkpt lat="45.006558329034156" lon="9.396512338954775"><ele>148.0</ele><time>2026-04-23T09:24:33.999Z</time></trkpt><trkpt lat="45.006501559966864" lon="9.39642368933003"><ele>148.5</ele><time>2026-04-23T09:24:35.999Z</time></trkpt><trkpt lat="45.00645055666969" lon="9.39649918356362"><ele>149.0</ele><time>2026-04-23T09:25:18.998Z</time></trkpt><trkpt lat="45.00637441136158" lon="9.396553563454564"><ele>149.0</ele><time>2026-04-23T09:25:20.998Z</time></trkpt><trkpt lat="45.00629599718981" lon="9.396640690080512"><ele>149.0</ele><time>2026-04-23T09:25:22.998Z</time></trkpt><trkpt lat="45.006175987574146" lon="9.396716485966568"><ele>149.0</ele><time>2026-04-23T09:25:24.998Z</time></trkpt><trkpt lat="45.00609825835245" lon="9.396735875302634"><ele>149.0</ele><time>2026-04-23T09:25:25.998Z</time></trkpt><trkpt lat="45.00601655396761" lon="9.396746916380513"><ele>149.0</ele><time>2026-04-23T09:25:27Z</time></trkpt><trkpt lat="45.005936413033254" lon="9.396745691884304"><ele>149.0</ele><time>2026-04-23T09:25:28Z</time></trkpt><trkpt lat="45.005868820842316" lon="9.396728562473097"><ele>149.0</ele><time>2026-04-23T09:25:29Z</time></trkpt><trkpt lat="45.00579005053193" lon="9.39672810197502"><ele>149.0</ele><time>2026-04-23T09:25:30Z</time></trkpt><trkpt lat="45.00571619976146" lon="9.396727190293424"><ele>149.0</ele><time>2026-04-23T09:25:31Z</time></trkpt><trkpt lat="45.00562753255659" lon="9.396712314518702"><ele>149.0</ele><time>2026-04-23T09:25:32Z</time></trkpt><trkpt lat="45.00553580872973" lon="9.396681666218155"><ele>149.0</ele><time>2026-04-23T09:25:33Z</time></trkpt><trkpt lat="45.005465871548544" lon="9.396662394121142"><ele>150.0</ele><time>2026-04-23T09:25:34Z</time></trkpt><trkpt lat="45.005395224011" lon="9.396646146272564"><ele>151.0</ele><time>2026-04-23T09:25:35Z</time></trkpt><trkpt lat="45.005322848882436" lon="9.396631998920967"><ele>152.0</ele><time>2026-04-23T09:25:36Z</time></trkpt><trkpt lat="45.00525036924142" lon="9.396625693776393"><ele>153.0</ele><time>2026-04-23T09:25:37Z</time></trkpt><trkpt lat="45.00516957535493" lon="9.396624652451553"><ele>154.0</ele><time>2026-04-23T09:25:38Z</time></trkpt><trkpt lat="45.00505432315217" lon="9.396608311008096"><ele>155.0</ele><time>2026-04-23T09:25:40Z</time></trkpt><trkpt lat="45.004984109834886" lon="9.396614289137002"><ele>156.83333333333331</ele><time>2026-04-23T09:25:41Z</time></trkpt><trkpt lat="45.0048620311936" lon="9.396603016079423"><ele>158.66666666666666</ele><time>2026-04-23T09:25:43Z</time></trkpt><trkpt lat="45.00479237316262" lon="9.396610183711687"><ele>160.5</ele><time>2026-04-23T09:25:44Z</time></trkpt><trkpt lat="45.004723172778576" lon="9.396600370532724"><ele>162.33333333333334</ele><time>2026-04-23T09:25:45Z</time></trkpt><trkpt lat="45.00465501660326" lon="9.396595808194727"><ele>164.16666666666669</ele><time>2026-04-23T09:25:46Z</time></trkpt><trkpt lat="45.0045866369726" lon="9.396594352893372"><ele>166.0</ele><time>2026-04-23T09:25:47Z</time></trkpt><trkpt lat="45.00452215182619" lon="9.396589813848028"><ele>166.0</ele><time>2026-04-23T09:25:48Z</time></trkpt><trkpt lat="45.00445543188815" lon="9.396584787939622"><ele>166.0</ele><time>2026-04-23T09:25:49Z</time></trkpt><trkpt lat="45.00434500994326" lon="9.396591502698044"><ele>166.0</ele><time>2026-04-23T09:25:51Z</time></trkpt><trkpt lat="45.0042410498732" lon="9.396566744043133"><ele>166.0</ele><time>2026-04-23T09:25:53Z</time></trkpt><trkpt lat="45.00416180765433" lon="9.396430432008247"><ele>166.0</ele><time>2026-04-23T09:25:55Z</time></trkpt><trkpt lat="45.00408033000436" lon="9.39630560797343"><ele>167.20000000000002</ele><time>2026-04-23T09:25:57Z</time></trkpt><trkpt lat="45.00399494675737" lon="9.396264572272369"><ele>168.4</ele><time>2026-04-23T09:25:59Z</time></trkpt><trkpt lat="45.0038643051877" lon="9.396297871378502"><ele>169.6</ele><time>2026-04-23T09:26:01Z</time></trkpt><trkpt lat="45.003778549183416" lon="9.396326381746814"><ele>170.8</ele><time>2026-04-23T09:26:02Z</time></trkpt><trkpt lat="45.00369007747991" lon="9.396346081290094"><ele>172.0</ele><time>2026-04-23T09:26:03Z</time></trkpt><trkpt lat="45.0036146646292" lon="9.396336567332916"><ele>172.0</ele><time>2026-04-23T09:26:04Z</time></trkpt><trkpt lat="45.00353239147986" lon="9.396326898371203"><ele>172.0</ele><time>2026-04-23T09:26:05Z</time></trkpt><trkpt lat="45.00344320293377" lon="9.39632281682712"><ele>172.0</ele><time>2026-04-23T09:26:06Z</time></trkpt><trkpt lat="45.003371287341764" lon="9.396325678332573"><ele>172.0</ele><time>2026-04-23T09:26:07Z</time></trkpt><trkpt lat="45.00328940233414" lon="9.396339753501865"><ele>172.0</ele><time>2026-04-23T09:26:08Z</time></trkpt><trkpt lat="45.00319286741161" lon="9.396387365218148"><ele>172.0</ele><time>2026-04-23T09:26:09Z</time></trkpt><trkpt lat="45.00308325568736" lon="9.396454688803694"><ele>175.0</ele><time>2026-04-23T09:26:10Z</time></trkpt><trkpt lat="45.00297750681987" lon="9.396520480906462"><ele>178.0</ele><time>2026-04-23T09:26:10.999Z</time></trkpt><trkpt lat="45.002879652168176" lon="9.396569355761908"><ele>181.0</ele><time>2026-04-23T09:26:11.999Z</time></trkpt><trkpt lat="45.002791035025375" lon="9.396610682747252"><ele>184.0</ele><time>2026-04-23T09:26:12.999Z</time></trkpt><trkpt lat="45.002686749784196" lon="9.396651029806119"><ele>187.0</ele><time>2026-04-23T09:26:13.999Z</time></trkpt><trkpt lat="45.00260603195937" lon="9.396691024516157"><ele>187.0</ele><time>2026-04-23T09:26:14.999Z</time></trkpt><trkpt lat="45.00251613435109" lon="9.39676792519088"><ele>187.0</ele><time>2026-04-23T09:26:16.999Z</time></trkpt><trkpt lat="45.002463991387565" lon="9.396851736865745"><ele>187.0</ele><time>2026-04-23T09:26:17.999Z</time></trkpt><trkpt lat="45.00240248804303" lon="9.396973689006384"><ele>187.0</ele><time>2026-04-23T09:26:18.999Z</time></trkpt><trkpt lat="45.002336991241606" lon="9.397082340333162"><ele>187.0</ele><time>2026-04-23T09:26:19.999Z</time></trkpt><trkpt lat="45.00226633854463" lon="9.397179310970966"><ele>189.8</ele><time>2026-04-23T09:26:20.999Z</time></trkpt><trkpt lat="45.00219359386156" lon="9.397286033402976"><ele>192.6</ele><time>2026-04-23T09:26:21.999Z</time></trkpt><trkpt lat="45.00212976804558" lon="9.397375650968621"><ele>195.4</ele><time>2026-04-23T09:26:22.999Z</time></trkpt><trkpt lat="45.0020806996699" lon="9.397471112322007"><ele>198.20000000000002</ele><time>2026-04-23T09:26:23.999Z</time></trkpt><trkpt lat="45.002031255297865" lon="9.397582844197142"><ele>201.0</ele><time>2026-04-23T09:26:25.999Z</time></trkpt><trkpt lat="45.002021250816185" lon="9.397720180200913"><ele>201.0</ele><time>2026-04-23T09:26:28.999Z</time></trkpt><trkpt lat="45.00195608779438" lon="9.397749354308901"><ele>201.0</ele><time>2026-04-23T09:26:43.999Z</time></trkpt><trkpt lat="45.001911094983505" lon="9.397679590554185"><ele>201.0</ele><time>2026-04-23T09:26:44.999Z</time></trkpt><trkpt lat="45.00186780362151" lon="9.39758961892956"><ele>201.0</ele><time>2026-04-23T09:26:45.999Z</time></trkpt><trkpt lat="45.001779056403564" lon="9.397493504085249"><ele>201.0</ele><time>2026-04-23T09:26:46.999Z</time></trkpt><trkpt lat="45.001678779324195" lon="9.39738439557362"><ele>203.25</ele><time>2026-04-23T09:26:47.999Z</time></trkpt><trkpt lat="45.001558425342814" lon="9.397308296043224"><ele>205.5</ele><time>2026-04-23T09:26:48.999Z</time></trkpt><trkpt lat="45.001404087395024" lon="9.397239916032788"><ele>207.75</ele><time>2026-04-23T09:26:49.999Z</time></trkpt><trkpt lat="45.00126530877344" lon="9.397207863481372"><ele>210.0</ele><time>2026-04-23T09:26:50.999Z</time></trkpt><trkpt lat="45.001128618199076" lon="9.39715751521042"><ele>210.5</ele><time>2026-04-23T09:26:51.999Z</time></trkpt><trkpt lat="45.0010130862571" lon="9.397134480725034"><ele>211.0</ele><time>2026-04-23T09:26:52.999Z</time></trkpt><trkpt lat="45.00092629274044" lon="9.397129576515034"><ele>211.5</ele><time>2026-04-23T09:26:53.999Z</time></trkpt><trkpt lat="45.000858094427436" lon="9.39708649846356"><ele>212.0</ele><time>2026-04-23T09:26:54.999Z</time></trkpt><trkpt lat="45.000781650266426" lon="9.397056101139164"><ele>212.5</ele><time>2026-04-23T09:26:56.999Z</time></trkpt><trkpt lat="45.00077857351155" lon="9.396927017565076"><ele>213.0</ele><time>2026-04-23T09:27:00.999Z</time></trkpt><trkpt lat="45.0007985878818" lon="9.396820619779335"><ele>213.0</ele><time>2026-04-23T09:27:01.999Z</time></trkpt><trkpt lat="45.000824217700725" lon="9.39669760582149"><ele>213.0</ele><time>2026-04-23T09:27:02.999Z</time></trkpt><trkpt lat="45.00085114452747" lon="9.396563071338637"><ele>213.0</ele><time>2026-04-23T09:27:03.999Z</time></trkpt><trkpt lat="45.000862336426614" lon="9.396436215787086"><ele>213.0</ele><time>2026-04-23T09:27:04.999Z</time></trkpt><trkpt lat="45.00087046996504" lon="9.396322113042872"><ele>213.0</ele><time>2026-04-23T09:27:05.999Z</time></trkpt><trkpt lat="45.00089006585345" lon="9.39621468446515"><ele>213.0</ele><time>2026-04-23T09:27:06.999Z</time></trkpt><trkpt lat="45.00089521823032" lon="9.396115038054868"><ele>212.8</ele><time>2026-04-23T09:27:07.999Z</time></trkpt><trkpt lat="45.00091774539784" lon="9.396006879074312"><ele>212.60000000000002</ele><time>2026-04-23T09:27:08.999Z</time></trkpt><trkpt lat="45.00092626962637" lon="9.395878941057756"><ele>212.39999999999998</ele><time>2026-04-23T09:27:09.999Z</time></trkpt><trkpt lat="45.00091259772162" lon="9.395741525960563"><ele>212.2</ele><time>2026-04-23T09:27:10.999Z</time></trkpt><trkpt lat="45.000916767016314" lon="9.395590697574324"><ele>212.0</ele><time>2026-04-23T09:27:11.999Z</time></trkpt><trkpt lat="45.00087716754081" lon="9.395433785904965"><ele>211.75</ele><time>2026-04-23T09:27:12.999Z</time></trkpt><trkpt lat="45.0008354290992" lon="9.39528182117124"><ele>211.5</ele><time>2026-04-23T09:27:13.999Z</time></trkpt><trkpt lat="45.00078941293125" lon="9.395127657368946"><ele>211.25</ele><time>2026-04-23T09:27:14.999Z</time></trkpt><trkpt lat="45.000740881440265" lon="9.394965066640689"><ele>211.0</ele><time>2026-04-23T09:27:15.999Z</time></trkpt><trkpt lat="45.00069581105205" lon="9.394805109413007"><ele>213.0</ele><time>2026-04-23T09:27:16.998Z</time></trkpt><trkpt lat="45.00063769288718" lon="9.394653116940054"><ele>215.0</ele><time>2026-04-23T09:27:17.998Z</time></trkpt><trkpt lat="45.000601042884234" lon="9.394499723695636"><ele>217.0</ele><time>2026-04-23T09:27:18.998Z</time></trkpt><trkpt lat="45.00056189558088" lon="9.394347311701955"><ele>219.0</ele><time>2026-04-23T09:27:19.998Z</time></trkpt><trkpt lat="45.00051458881041" lon="9.394204626701839"><ele>219.0</ele><time>2026-04-23T09:27:20.998Z</time></trkpt><trkpt lat="45.000472257703706" lon="9.394056179388347"><ele>218.99999999999997</ele><time>2026-04-23T09:27:21.998Z</time></trkpt><trkpt lat="45.000424086856434" lon="9.393912392642864"><ele>218.99999999999997</ele><time>2026-04-23T09:27:22.998Z</time></trkpt><trkpt lat="45.000378742922344" lon="9.39376378699318"><ele>219.0</ele><time>2026-04-23T09:27:23.998Z</time></trkpt><trkpt lat="45.00034727643198" lon="9.393616800433907"><ele>219.0</ele><time>2026-04-23T09:27:24.998Z</time></trkpt><trkpt lat="45.00030046611799" lon="9.393470209413259"><ele>219.39999999999998</ele><time>2026-04-23T09:27:25.998Z</time></trkpt><trkpt lat="45.00028424999859" lon="9.393348360937718"><ele>219.79999999999998</ele><time>2026-04-23T09:27:26.998Z</time></trkpt><trkpt lat="45.00026759581615" lon="9.393202056416417"><ele>220.20000000000002</ele><time>2026-04-23T09:27:27.998Z</time></trkpt><trkpt lat="45.0002549951312" lon="9.393080677645907"><ele>220.60000000000002</ele><time>2026-04-23T09:27:28.998Z</time></trkpt><trkpt lat="45.00025094536502" lon="9.392936621707596"><ele>221.0</ele><time>2026-04-23T09:27:29.998Z</time></trkpt><trkpt lat="45.0002467201082" lon="9.392786736260915"><ele>221.8</ele><time>2026-04-23T09:27:30.998Z</time></trkpt><trkpt lat="45.00023885507809" lon="9.392636087548155"><ele>222.60000000000002</ele><time>2026-04-23T09:27:31.998Z</time></trkpt><trkpt lat="45.000230267700346" lon="9.392485300180256"><ele>223.4</ele><time>2026-04-23T09:27:33Z</time></trkpt><trkpt lat="45.00021717493195" lon="9.39233654666119"><ele>224.2</ele><time>2026-04-23T09:27:34Z</time></trkpt><trkpt lat="45.00018926503513" lon="9.39219168035243"><ele>225.0</ele><time>2026-04-23T09:27:35Z</time></trkpt><trkpt lat="45.00015753900324" lon="9.392058850390837"><ele>225.6</ele><time>2026-04-23T09:27:36Z</time></trkpt><trkpt lat="45.000095532526764" lon="9.391950831048199"><ele>226.2</ele><time>2026-04-23T09:27:37Z</time></trkpt><trkpt lat="45.0000311428109" lon="9.391849709939095"><ele>226.8</ele><time>2026-04-23T09:27:38Z</time></trkpt><trkpt lat="44.9999786810255" lon="9.391745371262456"><ele>227.4</ele><time>2026-04-23T09:27:39Z</time></trkpt><trkpt lat="44.99991067694473" lon="9.391643450658757"><ele>228.0</ele><time>2026-04-23T09:27:40Z</time></trkpt><trkpt lat="44.99985423634674" lon="9.391541452344624"><ele>228.0</ele><time>2026-04-23T09:27:41Z</time></trkpt><trkpt lat="44.999804165874146" lon="9.391417762232036"><ele>228.0</ele><time>2026-04-23T09:27:42Z</time></trkpt><trkpt lat="44.99977358954013" lon="9.391286262756758"><ele>228.0</ele><time>2026-04-23T09:27:43Z</time></trkpt><trkpt lat="44.99977564629364" lon="9.391152801888797"><ele>228.0</ele><time>2026-04-23T09:27:44Z</time></trkpt><trkpt lat="44.999779658776376" lon="9.391027774199184"><ele>228.0</ele><time>2026-04-23T09:27:45Z</time></trkpt><trkpt lat="44.99978524741066" lon="9.390909747801171"><ele>228.0</ele><time>2026-04-23T09:27:46Z</time></trkpt><trkpt lat="44.99978737552072" lon="9.390794741639844"><ele>228.0</ele><time>2026-04-23T09:27:47Z</time></trkpt><trkpt lat="44.99979698300241" lon="9.390672878638192"><ele>228.0</ele><time>2026-04-23T09:27:48Z</time></trkpt><trkpt lat="44.99980204925737" lon="9.39053800273909"><ele>228.0</ele><time>2026-04-23T09:27:49Z</time></trkpt><trkpt lat="44.99980982295249" lon="9.390399740709258"><ele>228.0</ele><time>2026-04-23T09:27:50Z</time></trkpt><trkpt lat="44.9998124133578" lon="9.390258036191632"><ele>228.0</ele><time>2026-04-23T09:27:51Z</time></trkpt><trkpt lat="44.99982447114289" lon="9.390121940883903"><ele>228.0</ele><time>2026-04-23T09:27:52Z</time></trkpt><trkpt lat="44.99982840476078" lon="9.389986683780943"><ele>228.0</ele><time>2026-04-23T09:27:53Z</time></trkpt><trkpt lat="44.999834672060054" lon="9.389853305751735"><ele>228.0</ele><time>2026-04-23T09:27:54Z</time></trkpt><trkpt lat="44.999847619878125" lon="9.389725635922725"><ele>228.0</ele><time>2026-04-23T09:27:55Z</time></trkpt><trkpt lat="44.999865092477904" lon="9.389575207936431"><ele>228.75</ele><time>2026-04-23T09:27:56Z</time></trkpt><trkpt lat="44.999896384868606" lon="9.389414036282439"><ele>229.5</ele><time>2026-04-23T09:27:57Z</time></trkpt><trkpt lat="44.99992061280362" lon="9.38925694435808"><ele>230.25</ele><time>2026-04-23T09:27:58Z</time></trkpt><trkpt lat="44.99994229219821" lon="9.389098649511611"><ele>231.0</ele><time>2026-04-23T09:27:59Z</time></trkpt><trkpt lat="44.99996027214431" lon="9.388936868488775"><ele>232.0</ele><time>2026-04-23T09:28:00Z</time></trkpt><trkpt lat="44.99997626362434" lon="9.38877608103846"><ele>233.0</ele><time>2026-04-23T09:28:01Z</time></trkpt><trkpt lat="44.999997300695576" lon="9.388609611950688"><ele>234.0</ele><time>2026-04-23T09:28:02Z</time></trkpt><trkpt lat="45.00002291304481" lon="9.388439526189963"><ele>235.0</ele><time>2026-04-23T09:28:03Z</time></trkpt><trkpt lat="45.00004176476793" lon="9.38827058149465"><ele>235.0</ele><time>2026-04-23T09:28:04Z</time></trkpt><trkpt lat="45.00005920502806" lon="9.38808562915326"><ele>235.0</ele><time>2026-04-23T09:28:05Z</time></trkpt><trkpt lat="45.00008307769117" lon="9.387867464396733"><ele>235.0</ele><time>2026-04-23T09:28:06Z</time></trkpt><trkpt lat="45.00011122117361" lon="9.387660633089984"><ele>235.0</ele><time>2026-04-23T09:28:07Z</time></trkpt><trkpt lat="45.000126620200845" lon="9.387470036648441"><ele>235.8</ele><time>2026-04-23T09:28:08Z</time></trkpt><trkpt lat="45.0001412154726" lon="9.387292984244711"><ele>236.6</ele><time>2026-04-23T09:28:09Z</time></trkpt><trkpt lat="45.00017586872984" lon="9.387129775455433"><ele>237.39999999999998</ele><time>2026-04-23T09:28:10Z</time></trkpt><trkpt lat="45.000193128887204" lon="9.386980528325081"><ele>238.2</ele><time>2026-04-23T09:28:11Z</time></trkpt><trkpt lat="45.000194603635364" lon="9.386846614975033"><ele>239.0</ele><time>2026-04-23T09:28:12Z</time></trkpt><trkpt lat="45.00022293773331" lon="9.386713545056988"><ele>240.2</ele><time>2026-04-23T09:28:13Z</time></trkpt><trkpt lat="45.00021872867199" lon="9.386597651701925"><ele>241.39999999999998</ele><time>2026-04-23T09:28:14Z</time></trkpt><trkpt lat="45.00023081504177" lon="9.386501195300461"><ele>242.6</ele><time>2026-04-23T09:28:15Z</time></trkpt><trkpt lat="45.000222580096064" lon="9.386329094479157"><ele>243.8</ele><time>2026-04-23T09:28:17Z</time></trkpt><trkpt lat="45.000249918265396" lon="9.386233113710922"><ele>245.0</ele><time>2026-04-23T09:28:19Z</time></trkpt><trkpt lat="45.00038854831721" lon="9.386230770458944"><ele>245.4</ele><time>2026-04-23T09:28:19.999Z</time></trkpt><trkpt lat="45.00046839294216" lon="9.386216648476347"><ele>245.8</ele><time>2026-04-23T09:28:20.999Z</time></trkpt><trkpt lat="45.00055939946737" lon="9.386186988815748"><ele>246.2</ele><time>2026-04-23T09:28:21.999Z</time></trkpt><trkpt lat="45.000652682069436" lon="9.386149590943724"><ele>246.6</ele><time>2026-04-23T09:28:22.999Z</time></trkpt><trkpt lat="45.00075786934188" lon="9.386140878535215"><ele>247.0</ele><time>2026-04-23T09:28:23.999Z</time></trkpt><trkpt lat="45.00085193795716" lon="9.386090483396803"><ele>247.0</ele><time>2026-04-23T09:28:24.999Z</time></trkpt><trkpt lat="45.00094684341292" lon="9.386076291975499"><ele>247.0</ele><time>2026-04-23T09:28:25.999Z</time></trkpt><trkpt lat="45.001041062122766" lon="9.38605216914228"><ele>247.0</ele><time>2026-04-23T09:28:26.999Z</time></trkpt><trkpt lat="45.001140395611486" lon="9.386025480566902"><ele>247.0</ele><time>2026-04-23T09:28:27.999Z</time></trkpt><trkpt lat="45.00125004045985" lon="9.386014128004023"><ele>247.0</ele><time>2026-04-23T09:28:28.999Z</time></trkpt><trkpt lat="45.00135936635001" lon="9.386008808679572"><ele>247.0</ele><time>2026-04-23T09:28:29.999Z</time></trkpt><trkpt lat="45.00146132547258" lon="9.386003226254584"><ele>247.0</ele><time>2026-04-23T09:28:30.999Z</time></trkpt><trkpt lat="45.00155740482732" lon="9.3859981082711"><ele>247.0</ele><time>2026-04-23T09:28:31.999Z</time></trkpt><trkpt lat="45.00165245272516" lon="9.386020801173318"><ele>247.0</ele><time>2026-04-23T09:28:32.999Z</time></trkpt><trkpt lat="45.001744269794244" lon="9.386026397114671"><ele>247.0</ele><time>2026-04-23T09:28:33.999Z</time></trkpt><trkpt lat="45.001838028875504" lon="9.386028479064835"><ele>245.99999999999997</ele><time>2026-04-23T09:28:34.999Z</time></trkpt><trkpt lat="45.001928130652445" lon="9.386044584246637"><ele>245.0</ele><time>2026-04-23T09:28:35.999Z</time></trkpt><trkpt lat="45.00201932100423" lon="9.386058106488571"><ele>244.0</ele><time>2026-04-23T09:28:36.999Z</time></trkpt><trkpt lat="45.00210654944733" lon="9.386051071396722"><ele>243.0</ele><time>2026-04-23T09:28:37.999Z</time></trkpt><trkpt lat="45.00218351155103" lon="9.38604444946718"><ele>241.99999999999997</ele><time>2026-04-23T09:28:38.999Z</time></trkpt><trkpt lat="45.00225453938644" lon="9.38604439950189"><ele>241.0</ele><time>2026-04-23T09:28:39.999Z</time></trkpt><trkpt lat="45.00233008234811" lon="9.386078796272999"><ele>240.99999999999997</ele><time>2026-04-23T09:28:40.999Z</time></trkpt><trkpt lat="45.0024040673814" lon="9.386078295483708"><ele>241.0</ele><time>2026-04-23T09:28:41.999Z</time></trkpt><trkpt lat="45.002467654300986" lon="9.386106298011883"><ele>241.0</ele><time>2026-04-23T09:28:42.999Z</time></trkpt><trkpt lat="45.00253035298498" lon="9.3861234648328"><ele>241.0</ele><time>2026-04-23T09:28:43.999Z</time></trkpt><trkpt lat="45.002645937900034" lon="9.386153908853263"><ele>240.99999999999997</ele><time>2026-04-23T09:28:45.999Z</time></trkpt><trkpt lat="45.00274995372038" lon="9.386186183660547"><ele>241.0</ele><time>2026-04-23T09:28:47.999Z</time></trkpt><trkpt lat="45.00285272682403" lon="9.386199875994848"><ele>239.60000000000002</ele><time>2026-04-23T09:28:49.999Z</time></trkpt><trkpt lat="45.002954772243214" lon="9.386226686447923"><ele>238.20000000000002</ele><time>2026-04-23T09:28:51.999Z</time></trkpt><trkpt lat="45.00305264599467" lon="9.386269914199769"><ele>236.79999999999998</ele><time>2026-04-23T09:28:53.999Z</time></trkpt><trkpt lat="45.00316404852149" lon="9.38631220644003"><ele>235.39999999999998</ele><time>2026-04-23T09:28:55.999Z</time></trkpt><trkpt lat="45.00327105952721" lon="9.386363583999788"><ele>234.0</ele><time>2026-04-23T09:28:57.999Z</time></trkpt><trkpt lat="45.00336547471139" lon="9.38643132772678"><ele>231.66666666666666</ele><time>2026-04-23T09:28:59.999Z</time></trkpt><trkpt lat="45.00346092271542" lon="9.386488984419989"><ele>229.33333333333331</ele><time>2026-04-23T09:29:01.999Z</time></trkpt><trkpt lat="45.003531531611344" lon="9.38652535888332"><ele>227.0</ele><time>2026-04-23T09:29:02.999Z</time></trkpt><trkpt lat="45.00358559338867" lon="9.386572014399515"><ele>224.66666666666666</ele><time>2026-04-23T09:29:03.999Z</time></trkpt><trkpt lat="45.003673761524226" lon="9.386677064197345"><ele>222.33333333333331</ele><time>2026-04-23T09:29:05.999Z</time></trkpt><trkpt lat="45.003724810448205" lon="9.386735290179622"><ele>220.0</ele><time>2026-04-23T09:29:06.999Z</time></trkpt><trkpt lat="45.00383964057673" lon="9.38684808616958"><ele>219.99999999999997</ele><time>2026-04-23T09:29:08.999Z</time></trkpt><trkpt lat="45.00389518403085" lon="9.386895780719925"><ele>220.0</ele><time>2026-04-23T09:29:09.999Z</time></trkpt><trkpt lat="45.00395879382227" lon="9.386936209337021"><ele>220.0</ele><time>2026-04-23T09:29:10.999Z</time></trkpt><trkpt lat="45.00400847899494" lon="9.387003546295466"><ele>220.0</ele><time>2026-04-23T09:29:11.999Z</time></trkpt><trkpt lat="45.00406241211828" lon="9.387051042444792"><ele>219.99999999999997</ele><time>2026-04-23T09:29:12.999Z</time></trkpt><trkpt lat="45.00417283983859" lon="9.387120999218121"><ele>220.0</ele><time>2026-04-23T09:29:14.999Z</time></trkpt><trkpt lat="45.004252641774315" lon="9.387203277094988"><ele>217.99999999999997</ele><time>2026-04-23T09:29:16.999Z</time></trkpt><trkpt lat="45.00433348248726" lon="9.387270454993931"><ele>216.0</ele><time>2026-04-23T09:29:18.999Z</time></trkpt><trkpt lat="45.004390585586385" lon="9.387320616751545"><ele>214.0</ele><time>2026-04-23T09:29:20.999Z</time></trkpt><trkpt lat="45.00444507093285" lon="9.387368212514623"><ele>212.0</ele><time>2026-04-23T09:29:22.999Z</time></trkpt><trkpt lat="45.00452070204697" lon="9.387441806841593"><ele>209.99999999999997</ele><time>2026-04-23T09:29:25.998Z</time></trkpt><trkpt lat="45.00456664460593" lon="9.38751386325458"><ele>208.0</ele><time>2026-04-23T09:29:27.998Z</time></trkpt><trkpt lat="45.00462521670381" lon="9.38757898404677"><ele>207.99999999999997</ele><time>2026-04-23T09:29:29.998Z</time></trkpt><trkpt lat="45.004693581823844" lon="9.38759990286135"><ele>208.0</ele><time>2026-04-23T09:29:32.998Z</time></trkpt><trkpt lat="45.00473019315495" lon="9.387497069885944"><ele>208.0</ele><time>2026-04-23T09:29:44Z</time></trkpt><trkpt lat="45.00469941819216" lon="9.387392470282366"><ele>208.0</ele><time>2026-04-23T09:29:47Z</time></trkpt><trkpt lat="45.004645959078054" lon="9.387314168515951"><ele>207.99999999999997</ele><time>2026-04-23T09:29:50Z</time></trkpt><trkpt lat="45.00460840541193" lon="9.387240055646055"><ele>208.0</ele><time>2026-04-23T09:29:53Z</time></trkpt><trkpt lat="45.0045338175115" lon="9.387187565467364"><ele>208.0</ele><time>2026-04-23T09:29:56Z</time></trkpt><trkpt lat="45.00447141198027" lon="9.387209199777047"><ele>208.0</ele><time>2026-04-23T09:29:58Z</time></trkpt><trkpt lat="45.00443254312639" lon="9.387292983023398"><ele>208.0</ele><time>2026-04-23T09:30:00Z</time></trkpt><trkpt lat="45.00435242246242" lon="9.387306597030591"><ele>208.0</ele><time>2026-04-23T09:30:04Z</time></trkpt><trkpt lat="45.00427414823534" lon="9.38721488151933"><ele>208.0</ele><time>2026-04-23T09:30:06Z</time></trkpt><trkpt lat="45.00415215062316" lon="9.38710284851245"><ele>210.4</ele><time>2026-04-23T09:30:08Z</time></trkpt><trkpt lat="45.00408352727223" lon="9.387031522267876"><ele>212.8</ele><time>2026-04-23T09:30:09Z</time></trkpt><trkpt lat="45.004008157433155" lon="9.386967373622298"><ele>215.2</ele><time>2026-04-23T09:30:10Z</time></trkpt><trkpt lat="45.00392055980446" lon="9.386898944455595"><ele>217.6</ele><time>2026-04-23T09:30:11Z</time></trkpt><trkpt lat="45.003828492807706" lon="9.386826317335483"><ele>220.0</ele><time>2026-04-23T09:30:12Z</time></trkpt><trkpt lat="45.00371240873127" lon="9.386739165165169"><ele>220.0</ele><time>2026-04-23T09:30:13Z</time></trkpt><trkpt lat="45.00361342653768" lon="9.386637321439258"><ele>220.0</ele><time>2026-04-23T09:30:14Z</time></trkpt><trkpt lat="45.00353502749462" lon="9.38653719773852"><ele>220.0</ele><time>2026-04-23T09:30:15Z</time></trkpt><trkpt lat="45.0034547107135" lon="9.386456025225577"><ele>220.0</ele><time>2026-04-23T09:30:16Z</time></trkpt><trkpt lat="45.00335801157507" lon="9.386402849443702"><ele>220.0</ele><time>2026-04-23T09:30:17Z</time></trkpt><trkpt lat="45.00325370159395" lon="9.38634729280502"><ele>222.33333333333331</ele><time>2026-04-23T09:30:18Z</time></trkpt><trkpt lat="45.00315110100627" lon="9.386291747311413"><ele>224.66666666666666</ele><time>2026-04-23T09:30:19Z</time></trkpt><trkpt lat="45.003059041035364" lon="9.386251561159437"><ele>227.0</ele><time>2026-04-23T09:30:20Z</time></trkpt><trkpt lat="45.002973879174775" lon="9.386216205070383"><ele>229.33333333333331</ele><time>2026-04-23T09:30:21Z</time></trkpt><trkpt lat="45.00289706109842" lon="9.386191601397877"><ele>231.66666666666666</ele><time>2026-04-23T09:30:22Z</time></trkpt><trkpt lat="45.00282875315691" lon="9.386176343464417"><ele>234.0</ele><time>2026-04-23T09:30:23Z</time></trkpt><trkpt lat="45.00276410519397" lon="9.386162347593153"><ele>234.0</ele><time>2026-04-23T09:30:24Z</time></trkpt><trkpt lat="45.00269900595579" lon="9.386145108371"><ele>233.99999999999997</ele><time>2026-04-23T09:30:25Z</time></trkpt><trkpt lat="45.002613900708816" lon="9.38611817331237"><ele>233.99999999999997</ele><time>2026-04-23T09:30:26Z</time></trkpt><trkpt lat="45.00252256178071" lon="9.38608311012777"><ele>234.0</ele><time>2026-04-23T09:30:26.999Z</time></trkpt><trkpt lat="45.002409448433376" lon="9.386064857555128"><ele>234.0</ele><time>2026-04-23T09:30:27.999Z</time></trkpt><trkpt lat="45.00229089354069" lon="9.386016648110228"><ele>235.75</ele><time>2026-04-23T09:30:28.999Z</time></trkpt><trkpt lat="45.00218429463081" lon="9.386003929221959"><ele>237.5</ele><time>2026-04-23T09:30:29.999Z</time></trkpt><trkpt lat="45.002064496305984" lon="9.386027973467163"><ele>239.25</ele><time>2026-04-23T09:30:30.999Z</time></trkpt><trkpt lat="45.0019408795184" lon="9.386022264737115"><ele>241.0</ele><time>2026-04-23T09:30:31.999Z</time></trkpt><trkpt lat="45.00182080356274" lon="9.385989058387125"><ele>241.0</ele><time>2026-04-23T09:30:32.999Z</time></trkpt><trkpt lat="45.00169133654812" lon="9.38598262087003"><ele>241.0</ele><time>2026-04-23T09:30:33.999Z</time></trkpt><trkpt lat="45.00153580440778" lon="9.385984661339577"><ele>241.0</ele><time>2026-04-23T09:30:34.999Z</time></trkpt><trkpt lat="45.00136300898208" lon="9.386002564032012"><ele>243.0</ele><time>2026-04-23T09:30:35.999Z</time></trkpt><trkpt lat="45.001197795881495" lon="9.386013016919579"><ele>245.0</ele><time>2026-04-23T09:30:36.999Z</time></trkpt><trkpt lat="45.00103617994508" lon="9.386021687777983"><ele>247.0</ele><time>2026-04-23T09:30:37.999Z</time></trkpt><trkpt lat="45.00089558173099" lon="9.38604592213326"><ele>247.2</ele><time>2026-04-23T09:30:38.999Z</time></trkpt><trkpt lat="45.0007857783311" lon="9.386094405046787"><ele>247.39999999999998</ele><time>2026-04-23T09:30:39.999Z</time></trkpt><trkpt lat="45.00068146032159" lon="9.386123757715117"><ele>247.60000000000002</ele><time>2026-04-23T09:30:40.999Z</time></trkpt><trkpt lat="45.00058652533572" lon="9.386145625154851"><ele>247.8</ele><time>2026-04-23T09:30:41.999Z</time></trkpt><trkpt lat="45.00049573692421" lon="9.386176659913918"><ele>248.0</ele><time>2026-04-23T09:30:42.999Z</time></trkpt><trkpt lat="45.00041591321057" lon="9.386214140710706"><ele>248.00000000000003</ele><time>2026-04-23T09:30:43.999Z</time></trkpt><trkpt lat="45.000342769086885" lon="9.386236837546775"><ele>248.0</ele><time>2026-04-23T09:30:44.999Z</time></trkpt><trkpt lat="45.00023949822739" lon="9.386261959571524"><ele>248.0</ele><time>2026-04-23T09:30:46.999Z</time></trkpt><trkpt lat="45.0001793988549" lon="9.386176720908598"><ele>248.0</ele><time>2026-04-23T09:30:49.999Z</time></trkpt><trkpt lat="45.000215289609784" lon="9.386085028434564"><ele>248.00000000000003</ele><time>2026-04-23T09:30:50.999Z</time></trkpt><trkpt lat="45.00021577727216" lon="9.385970421863426"><ele>248.0</ele><time>2026-04-23T09:30:51.999Z</time></trkpt><trkpt lat="45.00021856345824" lon="9.385839034303878"><ele>248.0</ele><time>2026-04-23T09:30:52.999Z</time></trkpt><trkpt lat="45.00022792101148" lon="9.385686541619062"><ele>248.0</ele><time>2026-04-23T09:30:53.999Z</time></trkpt><trkpt lat="45.000241483036156" lon="9.385549868635461"><ele>248.0</ele><time>2026-04-23T09:30:54.999Z</time></trkpt><trkpt lat="45.00025612344461" lon="9.385405298621377"><ele>248.0</ele><time>2026-04-23T09:30:55.999Z</time></trkpt><trkpt lat="45.000271932337355" lon="9.385249190131194"><ele>248.0</ele><time>2026-04-23T09:30:56.999Z</time></trkpt><trkpt lat="45.00028947077099" lon="9.385092007898098"><ele>248.60000000000002</ele><time>2026-04-23T09:30:57.999Z</time></trkpt><trkpt lat="45.00030807853658" lon="9.384936042066114"><ele>249.20000000000002</ele><time>2026-04-23T09:30:58.999Z</time></trkpt><trkpt lat="45.00030782909637" lon="9.384783013096433"><ele>249.8</ele><time>2026-04-23T09:30:59.999Z</time></trkpt><trkpt lat="45.00032461892874" lon="9.384635881946535"><ele>250.4</ele><time>2026-04-23T09:31:00.999Z</time></trkpt><trkpt lat="45.00034723126123" lon="9.384483016247357"><ele>251.0</ele><time>2026-04-23T09:31:01.999Z</time></trkpt><trkpt lat="45.0003961667544" lon="9.384353870435518"><ele>253.33333333333334</ele><time>2026-04-23T09:31:02.999Z</time></trkpt><trkpt lat="45.00044344648814" lon="9.384176311137418"><ele>255.66666666666669</ele><time>2026-04-23T09:31:03.999Z</time></trkpt><trkpt lat="45.00052763645984" lon="9.383978480701785"><ele>258.0</ele><time>2026-04-23T09:31:04.999Z</time></trkpt><trkpt lat="45.00060000301891" lon="9.38378171354543"><ele>259.25</ele><time>2026-04-23T09:31:05.999Z</time></trkpt><trkpt lat="45.0006544749646" lon="9.383599881668102"><ele>260.5</ele><time>2026-04-23T09:31:06.999Z</time></trkpt><trkpt lat="45.000712170713825" lon="9.383398772202474"><ele>261.75</ele><time>2026-04-23T09:31:07.999Z</time></trkpt><trkpt lat="45.000763072070384" lon="9.383199420286024"><ele>263.0</ele><time>2026-04-23T09:31:08.999Z</time></trkpt><trkpt lat="45.000803992379154" lon="9.383031009366116"><ele>263.0</ele><time>2026-04-23T09:31:09.999Z</time></trkpt><trkpt lat="45.00070078670929" lon="9.38336790147858"><ele>263.0</ele><time>2026-04-23T09:31:10.999Z</time></trkpt><trkpt lat="45.00072827801376" lon="9.383231384773454"><ele>263.0</ele><time>2026-04-23T09:31:11.999Z</time></trkpt><trkpt lat="45.000770324562936" lon="9.383090978405573"><ele>263.4</ele><time>2026-04-23T09:31:12.999Z</time></trkpt><trkpt lat="45.000800442078514" lon="9.382939240842488"><ele>263.8</ele><time>2026-04-23T09:31:13.999Z</time></trkpt><trkpt lat="45.000849564274596" lon="9.382817616791096"><ele>264.2</ele><time>2026-04-23T09:31:14.999Z</time></trkpt><trkpt lat="45.000907783165054" lon="9.382697205599968"><ele>264.6</ele><time>2026-04-23T09:31:15.999Z</time></trkpt><trkpt lat="45.00097291574084" lon="9.382609634643051"><ele>265.0</ele><time>2026-04-23T09:31:16.999Z</time></trkpt><trkpt lat="45.00104718325572" lon="9.38252394280147"><ele>263.8</ele><time>2026-04-23T09:31:17.999Z</time></trkpt><trkpt lat="45.001126745046484" lon="9.38242671675501"><ele>262.6</ele><time>2026-04-23T09:31:18.999Z</time></trkpt><trkpt lat="45.00120748847971" lon="9.382325563542237"><ele>261.4</ele><time>2026-04-23T09:31:19.999Z</time></trkpt><trkpt lat="45.00128617312545" lon="9.382216709488766"><ele>260.2</ele><time>2026-04-23T09:31:20.999Z</time></trkpt><trkpt lat="45.00135649193656" lon="9.382106080009628"><ele>259.0</ele><time>2026-04-23T09:31:21.999Z</time></trkpt><trkpt lat="45.00142687960081" lon="9.381990607440773"><ele>258.0</ele><time>2026-04-23T09:31:22.999Z</time></trkpt><trkpt lat="45.00148911021686" lon="9.381892231340021"><ele>257.0</ele><time>2026-04-23T09:31:23.999Z</time></trkpt><trkpt lat="45.00155223312268" lon="9.38179774499297"><ele>255.99999999999997</ele><time>2026-04-23T09:31:24.999Z</time></trkpt><trkpt lat="45.00160928771934" lon="9.381695295064915"><ele>255.0</ele><time>2026-04-23T09:31:25.999Z</time></trkpt><trkpt lat="45.00168203791303" lon="9.381606142600942"><ele>254.0</ele><time>2026-04-23T09:31:26.999Z</time></trkpt><trkpt lat="45.00174475326349" lon="9.381528424484944"><ele>253.50000000000003</ele><time>2026-04-23T09:31:27.999Z</time></trkpt><trkpt lat="45.00182110290783" lon="9.381471984341355"><ele>253.0</ele><time>2026-04-23T09:31:28.999Z</time></trkpt><trkpt lat="45.00189025751346" lon="9.381424538829032"><ele>252.5</ele><time>2026-04-23T09:31:29.999Z</time></trkpt><trkpt lat="45.00196474670842" lon="9.381386391834939"><ele>252.0</ele><time>2026-04-23T09:31:30.999Z</time></trkpt><trkpt lat="45.002041579572534" lon="9.381356058378527"><ele>251.50000000000003</ele><time>2026-04-23T09:31:31.999Z</time></trkpt><trkpt lat="45.00212988463541" lon="9.381324370576653"><ele>251.0</ele><time>2026-04-23T09:31:32.998Z</time></trkpt><trkpt lat="45.002202964342196" lon="9.38128008350353"><ele>249.20000000000002</ele><time>2026-04-23T09:31:33.998Z</time></trkpt><trkpt lat="45.00229697445219" lon="9.38126307590419"><ele>247.40000000000003</ele><time>2026-04-23T09:31:34.998Z</time></trkpt><trkpt lat="45.00238213463299" lon="9.381226259153513"><ele>245.6</ele><time>2026-04-23T09:31:35.998Z</time></trkpt><trkpt lat="45.002470573728516" lon="9.381194940469644"><ele>243.8</ele><time>2026-04-23T09:31:36.998Z</time></trkpt><trkpt lat="45.00256649458563" lon="9.381156130410979"><ele>242.0</ele><time>2026-04-23T09:31:37.998Z</time></trkpt><trkpt lat="45.00266927824635" lon="9.38111062480979"><ele>240.5</ele><time>2026-04-23T09:31:38.998Z</time></trkpt><trkpt lat="45.00278589703238" lon="9.38105533441037"><ele>239.0</ele><time>2026-04-23T09:31:39.998Z</time></trkpt><trkpt lat="45.00290578547145" lon="9.380997425651001"><ele>237.5</ele><time>2026-04-23T09:31:40.998Z</time></trkpt><trkpt lat="45.003012200251476" lon="9.380929039915628"><ele>236.0</ele><time>2026-04-23T09:31:41.998Z</time></trkpt><trkpt lat="45.00311122078315" lon="9.380871889346048"><ele>236.0</ele><time>2026-04-23T09:31:42.998Z</time></trkpt><trkpt lat="45.00322020182363" lon="9.380817684211193"><ele>236.00000000000003</ele><time>2026-04-23T09:31:43.998Z</time></trkpt><trkpt lat="45.0033259022378" lon="9.380811177103254"><ele>236.00000000000003</ele><time>2026-04-23T09:31:45Z</time></trkpt><trkpt lat="45.00342557991626" lon="9.380796018880226"><ele>236.0</ele><time>2026-04-23T09:31:46Z</time></trkpt><trkpt lat="45.00351937053672" lon="9.380793373372533"><ele>236.0</ele><time>2026-04-23T09:31:47Z</time></trkpt><trkpt lat="45.00360240172717" lon="9.380807671225188"><ele>235.60000000000002</ele><time>2026-04-23T09:31:48Z</time></trkpt><trkpt lat="45.00369413642137" lon="9.380817312176436"><ele>235.20000000000002</ele><time>2026-04-23T09:31:49Z</time></trkpt><trkpt lat="45.00377627669936" lon="9.380848830893804"><ele>234.79999999999998</ele><time>2026-04-23T09:31:50Z</time></trkpt><trkpt lat="45.00385568097862" lon="9.380893135554743"><ele>234.39999999999998</ele><time>2026-04-23T09:31:51Z</time></trkpt><trkpt lat="45.00394527460736" lon="9.380931967810932"><ele>234.0</ele><time>2026-04-23T09:31:52Z</time></trkpt><trkpt lat="45.00404462850849" lon="9.380979959122051"><ele>234.0</ele><time>2026-04-23T09:31:53Z</time></trkpt><trkpt lat="45.00414895290846" lon="9.381029900111507"><ele>233.99999999999997</ele><time>2026-04-23T09:31:54Z</time></trkpt><trkpt lat="45.004254124857155" lon="9.381075824314912"><ele>233.99999999999997</ele><time>2026-04-23T09:31:55Z</time></trkpt><trkpt lat="45.0043602326371" lon="9.381124153340227"><ele>234.0</ele><time>2026-04-23T09:31:56Z</time></trkpt><trkpt lat="45.00446217031272" lon="9.381176780601153"><ele>234.0</ele><time>2026-04-23T09:31:57Z</time></trkpt><trkpt lat="45.004550897845306" lon="9.381227519868398"><ele>233.79999999999998</ele><time>2026-04-23T09:31:58Z</time></trkpt><trkpt lat="45.0046253953982" lon="9.381273780855942"><ele>233.59999999999997</ele><time>2026-04-23T09:31:59Z</time></trkpt><trkpt lat="45.004684454015965" lon="9.381323728269367"><ele>233.4</ele><time>2026-04-23T09:32:00Z</time></trkpt><trkpt lat="45.00480797342294" lon="9.381372098302966"><ele>233.2</ele><time>2026-04-23T09:32:02Z</time></trkpt><trkpt lat="45.00488686018164" lon="9.381364528219528"><ele>233.0</ele><time>2026-04-23T09:32:03Z</time></trkpt><trkpt lat="45.00497883654605" lon="9.381353008838339"><ele>232.16666666666669</ele><time>2026-04-23T09:32:04Z</time></trkpt><trkpt lat="45.005066428339056" lon="9.381349788989358"><ele>231.33333333333334</ele><time>2026-04-23T09:32:05Z</time></trkpt><trkpt lat="45.00514725292194" lon="9.381356491824421"><ele>230.5</ele><time>2026-04-23T09:32:06Z</time></trkpt><trkpt lat="45.005215930756165" lon="9.381399950811689"><ele>229.66666666666669</ele><time>2026-04-23T09:32:07Z</time></trkpt><trkpt lat="45.00528282271354" lon="9.38142490543042"><ele>228.83333333333334</ele><time>2026-04-23T09:32:08Z</time></trkpt><trkpt lat="45.005341447165264" lon="9.38147891115727"><ele>228.0</ele><time>2026-04-23T09:32:09Z</time></trkpt><trkpt lat="45.00539789805221" lon="9.381547019404804"><ele>228.0</ele><time>2026-04-23T09:32:10Z</time></trkpt><trkpt lat="45.00545747783365" lon="9.381618610354845"><ele>228.0</ele><time>2026-04-23T09:32:11Z</time></trkpt><trkpt lat="45.00551860145866" lon="9.381684181784069"><ele>228.0</ele><time>2026-04-23T09:32:12Z</time></trkpt><trkpt lat="45.005580275124416" lon="9.381769442570793"><ele>228.0</ele><time>2026-04-23T09:32:13Z</time></trkpt><trkpt lat="45.005630824219175" lon="9.381848093705146"><ele>228.0</ele><time>2026-04-23T09:32:14Z</time></trkpt><trkpt lat="45.00569016120123" lon="9.38193658637991"><ele>228.0</ele><time>2026-04-23T09:32:15Z</time></trkpt><trkpt lat="45.0057373992731" lon="9.382025896224272"><ele>228.0</ele><time>2026-04-23T09:32:16Z</time></trkpt><trkpt lat="45.00579214812646" lon="9.382113723805722"><ele>228.0</ele><time>2026-04-23T09:32:17Z</time></trkpt><trkpt lat="45.00584341601038" lon="9.382206234548505"><ele>228.0</ele><time>2026-04-23T09:32:18Z</time></trkpt><trkpt lat="45.0058940265866" lon="9.38230326640366"><ele>228.0</ele><time>2026-04-23T09:32:19Z</time></trkpt><trkpt lat="45.00595859992302" lon="9.38240389338254"><ele>228.0</ele><time>2026-04-23T09:32:20Z</time></trkpt><trkpt lat="45.00601804921065" lon="9.3825065843904"><ele>228.0</ele><time>2026-04-23T09:32:21Z</time></trkpt><trkpt lat="45.006074833053475" lon="9.382610342633132"><ele>226.0</ele><time>2026-04-23T09:32:22Z</time></trkpt><trkpt lat="45.00612886663667" lon="9.382711625738338"><ele>224.0</ele><time>2026-04-23T09:32:23Z</time></trkpt><trkpt lat="45.00617558922224" lon="9.382816052109224"><ele>222.0</ele><time>2026-04-23T09:32:24Z</time></trkpt><trkpt lat="45.006227197255534" lon="9.38291356097316"><ele>220.0</ele><time>2026-04-23T09:32:25Z</time></trkpt><trkpt lat="45.00627192342899" lon="9.383012064999269"><ele>218.0</ele><time>2026-04-23T09:32:26Z</time></trkpt><trkpt lat="45.00631626558563" lon="9.383111779089397"><ele>216.0</ele><time>2026-04-23T09:32:27Z</time></trkpt><trkpt lat="45.00635992240165" lon="9.383201678016233"><ele>214.83333333333334</ele><time>2026-04-23T09:32:28Z</time></trkpt><trkpt lat="45.006404055046794" lon="9.383293481817864"><ele>213.66666666666669</ele><time>2026-04-23T09:32:28.999Z</time></trkpt><trkpt lat="45.00644538181254" lon="9.3833882835868"><ele>212.5</ele><time>2026-04-23T09:32:29.999Z</time></trkpt><trkpt lat="45.006486390220026" lon="9.38346961558394"><ele>211.33333333333334</ele><time>2026-04-23T09:32:30.999Z</time></trkpt><trkpt lat="45.006533864196015" lon="9.383548515508371"><ele>210.16666666666669</ele><time>2026-04-23T09:32:31.999Z</time></trkpt><trkpt lat="45.006579709771394" lon="9.383638845798217"><ele>209.0</ele><time>2026-04-23T09:32:32.999Z</time></trkpt><trkpt lat="45.006624293976394" lon="9.383716686154012"><ele>209.0</ele><time>2026-04-23T09:32:33.999Z</time></trkpt><trkpt lat="45.00667323907571" lon="9.383787836033578"><ele>209.0</ele><time>2026-04-23T09:32:34.999Z</time></trkpt><trkpt lat="45.006723551190355" lon="9.38385240312207"><ele>209.0</ele><time>2026-04-23T09:32:35.999Z</time></trkpt><trkpt lat="45.00677460106513" lon="9.383919921260325"><ele>209.0</ele><time>2026-04-23T09:32:36.999Z</time></trkpt><trkpt lat="45.00681179099555" lon="9.383992079955869"><ele>209.0</ele><time>2026-04-23T09:32:37.999Z</time></trkpt><trkpt lat="45.00686309686655" lon="9.384054165611674"><ele>209.0</ele><time>2026-04-23T09:32:38.999Z</time></trkpt><trkpt lat="45.006911644650785" lon="9.3841170975208"><ele>209.0</ele><time>2026-04-23T09:32:39.999Z</time></trkpt><trkpt lat="45.00699169125327" lon="9.384255724415135"><ele>209.0</ele><time>2026-04-23T09:32:41.999Z</time></trkpt><trkpt lat="45.007058280683815" lon="9.384402544844406"><ele>209.0</ele><time>2026-04-23T09:32:43.999Z</time></trkpt><trkpt lat="45.00711431169466" lon="9.384558203358843"><ele>209.0</ele><time>2026-04-23T09:32:45.999Z</time></trkpt><trkpt lat="45.00714735420969" lon="9.384635621318363"><ele>209.0</ele><time>2026-04-23T09:32:46.999Z</time></trkpt><trkpt lat="45.007184125866196" lon="9.38479905176301"><ele>209.0</ele><time>2026-04-23T09:32:48.999Z</time></trkpt><trkpt lat="45.0072208106719" lon="9.384968697161044"><ele>207.39999999999998</ele><time>2026-04-23T09:32:50.999Z</time></trkpt><trkpt lat="45.00723476324246" lon="9.3850598687994"><ele>205.8</ele><time>2026-04-23T09:32:51.999Z</time></trkpt><trkpt lat="45.007255983902894" lon="9.385151450246266"><ele>204.2</ele><time>2026-04-23T09:32:52.999Z</time></trkpt><trkpt lat="45.00728097684195" lon="9.385240948635106"><ele>202.60000000000002</ele><time>2026-04-23T09:32:53.999Z</time></trkpt><trkpt lat="45.0073260322717" lon="9.385413288001429"><ele>201.0</ele><time>2026-04-23T09:32:55.999Z</time></trkpt><trkpt lat="45.00737786252546" lon="9.385572867983809"><ele>200.60000000000002</ele><time>2026-04-23T09:32:57.999Z</time></trkpt><trkpt lat="45.00741709427267" lon="9.385718602001784"><ele>200.2</ele><time>2026-04-23T09:32:59.999Z</time></trkpt><trkpt lat="45.00745990824839" lon="9.385881257436916"><ele>199.8</ele><time>2026-04-23T09:33:01.999Z</time></trkpt><trkpt lat="45.00749088366449" lon="9.386035000371118"><ele>199.39999999999998</ele><time>2026-04-23T09:33:03.999Z</time></trkpt><trkpt lat="45.0075162633659" lon="9.386171794260234"><ele>199.0</ele><time>2026-04-23T09:33:05.999Z</time></trkpt><trkpt lat="45.00754558459133" lon="9.386279853749873"><ele>198.0</ele><time>2026-04-23T09:33:07.999Z</time></trkpt><trkpt lat="45.00756550583692" lon="9.386366433118878"><ele>197.0</ele><time>2026-04-23T09:33:09.999Z</time></trkpt><trkpt lat="45.007605895128314" lon="9.386487805534918"><ele>196.0</ele><time>2026-04-23T09:33:12.999Z</time></trkpt><trkpt lat="45.007674264286145" lon="9.386567032150406"><ele>195.0</ele><time>2026-04-23T09:33:14.999Z</time></trkpt><trkpt lat="45.00771213183808" lon="9.386683385303803"><ele>194.0</ele><time>2026-04-23T09:33:16.999Z</time></trkpt><trkpt lat="45.00777023665116" lon="9.386828763141118"><ele>194.00000000000003</ele><time>2026-04-23T09:33:18.999Z</time></trkpt><trkpt lat="45.00780469156567" lon="9.386911397842006"><ele>194.0</ele><time>2026-04-23T09:33:19.999Z</time></trkpt><trkpt lat="45.0078630300008" lon="9.38696918663132"><ele>194.0</ele><time>2026-04-23T09:33:20.999Z</time></trkpt><trkpt lat="45.007903902292725" lon="9.3871192424363"><ele>194.0</ele><time>2026-04-23T09:33:22.999Z</time></trkpt><trkpt lat="45.007905884190876" lon="9.387281094209772"><ele>194.00000000000003</ele><time>2026-04-23T09:33:24.999Z</time></trkpt><trkpt lat="45.007878400172736" lon="9.387377537049648"><ele>194.0</ele><time>2026-04-23T09:33:26.999Z</time></trkpt><trkpt lat="45.00785798142914" lon="9.387489965087951"><ele>193.00000000000003</ele><time>2026-04-23T09:33:39.998Z</time></trkpt><trkpt lat="45.007827462079334" lon="9.38761104636775"><ele>192.0</ele><time>2026-04-23T09:33:41.998Z</time></trkpt><trkpt lat="45.00780151230826" lon="9.387711098184774"><ele>191.0</ele><time>2026-04-23T09:33:42.998Z</time></trkpt><trkpt lat="45.007779297253975" lon="9.387804050393887"><ele>190.0</ele><time>2026-04-23T09:33:43.998Z</time></trkpt><trkpt lat="45.007758356419764" lon="9.387907740499246"><ele>189.0</ele><time>2026-04-23T09:33:44.998Z</time></trkpt><trkpt lat="45.00772607551081" lon="9.388046067094471"><ele>188.0</ele><time>2026-04-23T09:33:46.998Z</time></trkpt><trkpt lat="45.007645341943444" lon="9.388077032335021"><ele>187.2</ele><time>2026-04-23T09:33:48.998Z</time></trkpt><trkpt lat="45.00754744604901" lon="9.388096056853174"><ele>186.4</ele><time>2026-04-23T09:33:51Z</time></trkpt><trkpt lat="45.00746697599406" lon="9.388128049135997"><ele>185.6</ele><time>2026-04-23T09:33:54Z</time></trkpt><trkpt lat="45.007371264918426" lon="9.388175998499788"><ele>184.79999999999998</ele><time>2026-04-23T09:33:56Z</time></trkpt><trkpt lat="45.00726793560892" lon="9.38822575111152"><ele>184.0</ele><time>2026-04-23T09:33:58Z</time></trkpt><trkpt lat="45.00716972836519" lon="9.388281083627012"><ele>181.16666666666669</ele><time>2026-04-23T09:34:00Z</time></trkpt><trkpt lat="45.00706707127078" lon="9.388319888450415"><ele>178.33333333333334</ele><time>2026-04-23T09:34:02Z</time></trkpt><trkpt lat="45.0069625462379" lon="9.388356118889156"><ele>175.5</ele><time>2026-04-23T09:34:04Z</time></trkpt><trkpt lat="45.00688546697114" lon="9.388380328740556"><ele>172.66666666666666</ele><time>2026-04-23T09:34:06Z</time></trkpt><trkpt lat="45.00687546361792" lon="9.388492315852115"><ele>169.83333333333331</ele><time>2026-04-23T09:34:21Z</time></trkpt><trkpt lat="45.00685896608557" lon="9.388587128545948"><ele>167.0</ele><time>2026-04-23T09:34:23Z</time></trkpt><trkpt lat="45.00688232323837" lon="9.388488113866027"><ele>167.0</ele><time>2026-04-23T09:34:33Z</time></trkpt><trkpt lat="45.00688067736828" lon="9.388394306232971"><ele>167.0</ele><time>2026-04-23T09:34:35Z</time></trkpt><trkpt lat="45.00693521663634" lon="9.388339813190681"><ele>167.0</ele><time>2026-04-23T09:34:43.999Z</time></trkpt><trkpt lat="45.00702424372388" lon="9.388317618683319"><ele>167.0</ele><time>2026-04-23T09:34:45.999Z</time></trkpt><trkpt lat="45.00713208503351" lon="9.38828614366952"><ele>167.0</ele><time>2026-04-23T09:34:47.999Z</time></trkpt><trkpt lat="45.00720743168894" lon="9.38826178475556"><ele>167.0</ele><time>2026-04-23T09:34:48.999Z</time></trkpt><trkpt lat="45.00727372942429" lon="9.388222472176993"><ele>167.0</ele><time>2026-04-23T09:34:49.999Z</time></trkpt><trkpt lat="45.007346664507665" lon="9.38818140674219"><ele>167.0</ele><time>2026-04-23T09:34:50.999Z</time></trkpt><trkpt lat="45.00742451914976" lon="9.388137972396635"><ele>167.0</ele><time>2026-04-23T09:34:51.999Z</time></trkpt><trkpt lat="45.00750765807102" lon="9.388092445674138"><ele>167.0</ele><time>2026-04-23T09:34:52.999Z</time></trkpt><trkpt lat="45.00758826895403" lon="9.388059412279972"><ele>167.0</ele><time>2026-04-23T09:34:53.999Z</time></trkpt><trkpt lat="45.00765529386981" lon="9.388041492816853"><ele>167.0</ele><time>2026-04-23T09:34:54.999Z</time></trkpt><trkpt lat="45.00771782457125" lon="9.388024492072027"><ele>171.2</ele><time>2026-04-23T09:34:55.999Z</time></trkpt><trkpt lat="45.00778075397353" lon="9.387868667547957"><ele>175.39999999999998</ele><time>2026-04-23T09:34:57.999Z</time></trkpt><trkpt lat="45.0078028520495" lon="9.387730789385902"><ele>179.60000000000002</ele><time>2026-04-23T09:34:58.999Z</time></trkpt><trkpt lat="45.00782054384052" lon="9.387600857759468"><ele>183.8</ele><time>2026-04-23T09:34:59.999Z</time></trkpt><trkpt lat="45.00785020641968" lon="9.387470481072251"><ele>188.0</ele><time>2026-04-23T09:35:01.999Z</time></trkpt><trkpt lat="45.00789211706451" lon="9.387594559859908"><ele>188.0</ele><time>2026-04-23T09:35:07.999Z</time></trkpt><trkpt lat="45.0078789444354" lon="9.387725695220436"><ele>188.0</ele><time>2026-04-23T09:35:09.999Z</time></trkpt><trkpt lat="45.00787089066262" lon="9.387830837152439"><ele>188.0</ele><time>2026-04-23T09:35:10.999Z</time></trkpt><trkpt lat="45.007865745201606" lon="9.387967272520843"><ele>188.0</ele><time>2026-04-23T09:35:11.999Z</time></trkpt><trkpt lat="45.00785393120009" lon="9.38811318220539"><ele>188.0</ele><time>2026-04-23T09:35:12.999Z</time></trkpt><trkpt lat="45.00784205474962" lon="9.388242501748726"><ele>187.33333333333331</ele><time>2026-04-23T09:35:13.999Z</time></trkpt><trkpt lat="45.00784268129243" lon="9.388357514437644"><ele>186.66666666666666</ele><time>2026-04-23T09:35:14.999Z</time></trkpt><trkpt lat="45.00786195730532" lon="9.388459658233922"><ele>186.0</ele><time>2026-04-23T09:35:15.999Z</time></trkpt><trkpt lat="45.0078830365251" lon="9.388562299727521"><ele>185.33333333333334</ele><time>2026-04-23T09:35:16.999Z</time></trkpt><trkpt lat="45.00790204925365" lon="9.38867145005976"><ele>184.66666666666669</ele><time>2026-04-23T09:35:17.999Z</time></trkpt><trkpt lat="45.00792301670129" lon="9.388775165763338"><ele>184.0</ele><time>2026-04-23T09:35:18.999Z</time></trkpt><trkpt lat="45.00794916683253" lon="9.388891785009609"><ele>183.83333333333334</ele><time>2026-04-23T09:35:19.999Z</time></trkpt><trkpt lat="45.00796596187692" lon="9.389007113154099"><ele>183.66666666666669</ele><time>2026-04-23T09:35:20.999Z</time></trkpt><trkpt lat="45.00797890832848" lon="9.389130414418743"><ele>183.5</ele><time>2026-04-23T09:35:21.999Z</time></trkpt><trkpt lat="45.007989181467515" lon="9.389251782134599"><ele>183.33333333333334</ele><time>2026-04-23T09:35:22.999Z</time></trkpt><trkpt lat="45.00799716756707" lon="9.389360402758316"><ele>183.16666666666666</ele><time>2026-04-23T09:35:23.999Z</time></trkpt><trkpt lat="45.00800911158619" lon="9.389461597900533"><ele>183.0</ele><time>2026-04-23T09:35:24.999Z</time></trkpt><trkpt lat="45.008038711145325" lon="9.389623855278915"><ele>182.33333333333334</ele><time>2026-04-23T09:35:26.999Z</time></trkpt><trkpt lat="45.00808542659277" lon="9.389782684519174"><ele>181.66666666666666</ele><time>2026-04-23T09:35:28.999Z</time></trkpt><trkpt lat="45.008125628893026" lon="9.389855184714294"><ele>181.0</ele><time>2026-04-23T09:35:29.999Z</time></trkpt><trkpt lat="45.00816928412717" lon="9.389920696328684"><ele>180.33333333333331</ele><time>2026-04-23T09:35:30.999Z</time></trkpt><trkpt lat="45.00821477900432" lon="9.389986203269975"><ele>179.66666666666666</ele><time>2026-04-23T09:35:31.999Z</time></trkpt><trkpt lat="45.00825306576495" lon="9.390064297173472"><ele>179.0</ele><time>2026-04-23T09:35:32.999Z</time></trkpt><trkpt lat="45.008305549054576" lon="9.390228592274976"><ele>181.6</ele><time>2026-04-23T09:35:34.999Z</time></trkpt><trkpt lat="45.0083437616631" lon="9.390334044213876"><ele>184.2</ele><time>2026-04-23T09:35:35.999Z</time></trkpt><trkpt lat="45.008382016337464" lon="9.390426038841381"><ele>186.79999999999998</ele><time>2026-04-23T09:35:36.999Z</time></trkpt><trkpt lat="45.00846239439961" lon="9.390544827914416"><ele>189.39999999999998</ele><time>2026-04-23T09:35:38.999Z</time></trkpt><trkpt lat="45.00851284173073" lon="9.39067040079966"><ele>192.0</ele><time>2026-04-23T09:35:40.999Z</time></trkpt><trkpt lat="45.008535176368035" lon="9.39085275537322"><ele>192.0</ele><time>2026-04-23T09:35:42.999Z</time></trkpt><trkpt lat="45.00855019963734" lon="9.390939848049836"><ele>192.0</ele><time>2026-04-23T09:35:43.998Z</time></trkpt><trkpt lat="45.00863533698883" lon="9.391090199741011"><ele>192.0</ele><time>2026-04-23T09:35:45.998Z</time></trkpt><trkpt lat="45.008708898241544" lon="9.391188494990827"><ele>192.0</ele><time>2026-04-23T09:35:46.998Z</time></trkpt><trkpt lat="45.008763612969695" lon="9.391287021280139"><ele>192.0</ele><time>2026-04-23T09:35:47.998Z</time></trkpt><trkpt lat="45.00880288825469" lon="9.391381189596105"><ele>192.0</ele><time>2026-04-23T09:35:48.998Z</time></trkpt><trkpt lat="45.00884335660812" lon="9.391479861314608"><ele>192.0</ele><time>2026-04-23T09:35:49.998Z</time></trkpt><trkpt lat="45.00888572805147" lon="9.391579383252695"><ele>192.0</ele><time>2026-04-23T09:35:50.998Z</time></trkpt><trkpt lat="45.008912729001544" lon="9.391671416216163"><ele>192.0</ele><time>2026-04-23T09:35:51.998Z</time></trkpt><trkpt lat="45.008946571165126" lon="9.391770711170935"><ele>192.0</ele><time>2026-04-23T09:35:52.998Z</time></trkpt><trkpt lat="45.008984688545745" lon="9.391867143548916"><ele>192.0</ele><time>2026-04-23T09:35:53.998Z</time></trkpt><trkpt lat="45.00902699373693" lon="9.391960715034415"><ele>192.0</ele><time>2026-04-23T09:35:54.998Z</time></trkpt><trkpt lat="45.009085852873994" lon="9.392056759349027"><ele>192.0</ele><time>2026-04-23T09:35:55.998Z</time></trkpt><trkpt lat="45.00914275935943" lon="9.392152603131404"><ele>192.0</ele><time>2026-04-23T09:35:57Z</time></trkpt><trkpt lat="45.00918835578524" lon="9.392259319366023"><ele>192.0</ele><time>2026-04-23T09:35:58Z</time></trkpt><trkpt lat="45.00922008449598" lon="9.39236657136948"><ele>192.0</ele><time>2026-04-23T09:35:59Z</time></trkpt><trkpt lat="45.00927410700702" lon="9.392517416278315"><ele>192.33333333333334</ele><time>2026-04-23T09:36:00Z</time></trkpt><trkpt lat="45.00928353795891" lon="9.392626158893183"><ele>192.66666666666669</ele><time>2026-04-23T09:36:01Z</time></trkpt><trkpt lat="45.009301653781115" lon="9.3927261206622"><ele>193.0</ele><time>2026-04-23T09:36:02Z</time></trkpt><trkpt lat="45.009347096695926" lon="9.392828017933871"><ele>193.33333333333334</ele><time>2026-04-23T09:36:04Z</time></trkpt><trkpt lat="45.009382023832224" lon="9.392923815730583"><ele>193.66666666666669</ele><time>2026-04-23T09:36:18Z</time></trkpt><trkpt lat="45.00947007484511" lon="9.392976246642323"><ele>194.0</ele><time>2026-04-23T09:36:21Z</time></trkpt><trkpt lat="45.00954356088767" lon="9.392941379750026"><ele>194.0</ele><time>2026-04-23T09:36:24Z</time></trkpt><trkpt lat="45.00954574740657" lon="9.3928092923867"><ele>194.0</ele><time>2026-04-23T09:36:27Z</time></trkpt><trkpt lat="45.00944868506381" lon="9.392713000524848"><ele>194.0</ele><time>2026-04-23T09:36:30Z</time></trkpt><trkpt lat="45.009363540433945" lon="9.392784039411762"><ele>194.0</ele><time>2026-04-23T09:36:33Z</time></trkpt><trkpt lat="45.009330257734774" lon="9.39293268562174"><ele>194.0</ele><time>2026-04-23T09:36:35Z</time></trkpt><trkpt lat="45.00933963245941" lon="9.393036727425402"><ele>192.83333333333334</ele><time>2026-04-23T09:36:36Z</time></trkpt><trkpt lat="45.00935625622741" lon="9.393140877869648"><ele>191.66666666666669</ele><time>2026-04-23T09:36:37Z</time></trkpt><trkpt lat="45.0093709911424" lon="9.393244994675316"><ele>190.5</ele><time>2026-04-23T09:36:38Z</time></trkpt><trkpt lat="45.00938518772334" lon="9.393355429462277"><ele>189.33333333333334</ele><time>2026-04-23T09:36:39Z</time></trkpt><trkpt lat="45.009396377020515" lon="9.393476543760235"><ele>188.16666666666669</ele><time>2026-04-23T09:36:40Z</time></trkpt><trkpt lat="45.00942054687509" lon="9.393597064584295"><ele>187.0</ele><time>2026-04-23T09:36:40.999Z</time></trkpt><trkpt lat="45.00943508811706" lon="9.393723829826637"><ele>186.6</ele><time>2026-04-23T09:36:41.999Z</time></trkpt><trkpt lat="45.00944185263392" lon="9.393840614088832"><ele>186.2</ele><time>2026-04-23T09:36:42.999Z</time></trkpt><trkpt lat="45.009452672591394" lon="9.393959270986382"><ele>185.8</ele><time>2026-04-23T09:36:43.999Z</time></trkpt><trkpt lat="45.00944903930156" lon="9.39406950474701"><ele>185.4</ele><time>2026-04-23T09:36:44.999Z</time></trkpt><trkpt lat="45.00942974634205" lon="9.394201882497123"><ele>185.0</ele><time>2026-04-23T09:36:45.999Z</time></trkpt><trkpt lat="45.00939893027146" lon="9.394357434342114"><ele>185.0</ele><time>2026-04-23T09:36:46.999Z</time></trkpt><trkpt lat="45.00934992482381" lon="9.394515776162372"><ele>185.0</ele><time>2026-04-23T09:36:47.999Z</time></trkpt><trkpt lat="45.00928181331716" lon="9.394662500858843"><ele>185.0</ele><time>2026-04-23T09:36:48.999Z</time></trkpt><trkpt lat="45.009236484847605" lon="9.394801879199479"><ele>185.0</ele><time>2026-04-23T09:36:49.999Z</time></trkpt><trkpt lat="45.00919640045786" lon="9.394939182652305"><ele>184.66666666666666</ele><time>2026-04-23T09:36:50.999Z</time></trkpt><trkpt lat="45.009160249705054" lon="9.395060197312075"><ele>184.33333333333331</ele><time>2026-04-23T09:36:51.999Z</time></trkpt><trkpt lat="45.00912719674372" lon="9.395186394821337"><ele>184.0</ele><time>2026-04-23T09:36:52.999Z</time></trkpt><trkpt lat="45.0091128712021" lon="9.39530068396181"><ele>183.66666666666666</ele><time>2026-04-23T09:36:53.999Z</time></trkpt><trkpt lat="45.00910718041909" lon="9.395409597103274"><ele>183.33333333333334</ele><time>2026-04-23T09:36:54.999Z</time></trkpt><trkpt lat="45.009112647736075" lon="9.395509970981314"><ele>183.0</ele><time>2026-04-23T09:36:55.999Z</time></trkpt><trkpt lat="45.00912964858627" lon="9.39559891670181"><ele>184.4</ele><time>2026-04-23T09:36:56.999Z</time></trkpt><trkpt lat="45.00915945172052" lon="9.395720620483155"><ele>185.8</ele><time>2026-04-23T09:36:57.999Z</time></trkpt><trkpt lat="45.00918465365555" lon="9.3958686354683"><ele>187.2</ele><time>2026-04-23T09:36:58.999Z</time></trkpt><trkpt lat="45.00921657433992" lon="9.396027957572318"><ele>188.6</ele><time>2026-04-23T09:36:59.999Z</time></trkpt><trkpt lat="45.00922681659569" lon="9.396163535932338"><ele>190.0</ele><time>2026-04-23T09:37:00.999Z</time></trkpt><trkpt lat="45.00924958817891" lon="9.39625954473242"><ele>189.0</ele><time>2026-04-23T09:37:01.999Z</time></trkpt><trkpt lat="45.00930256101399" lon="9.396367354340441"><ele>188.0</ele><time>2026-04-23T09:37:11.999Z</time></trkpt><trkpt lat="45.00936822146832" lon="9.396502644478138"><ele>187.0</ele><time>2026-04-23T09:37:21.999Z</time></trkpt><trkpt lat="45.009416720942326" lon="9.396567536444318"><ele>186.0</ele><time>2026-04-23T09:37:22.999Z</time></trkpt><trkpt lat="45.00945963546619" lon="9.396632875194165"><ele>185.0</ele><time>2026-04-23T09:37:23.999Z</time></trkpt><trkpt lat="45.00952655361465" lon="9.396759335655837"><ele>185.0</ele><time>2026-04-23T09:37:25.999Z</time></trkpt><trkpt lat="45.00957263904216" lon="9.396915447371978"><ele>185.0</ele><time>2026-04-23T09:37:27.999Z</time></trkpt><trkpt lat="45.00959558064463" lon="9.397045344565642"><ele>185.0</ele><time>2026-04-23T09:37:29.999Z</time></trkpt><trkpt lat="45.00962422851452" lon="9.397180392772075"><ele>185.0</ele><time>2026-04-23T09:37:31.999Z</time></trkpt><trkpt lat="45.00965046965528" lon="9.3973270382009"><ele>185.0</ele><time>2026-04-23T09:37:33.999Z</time></trkpt><trkpt lat="45.00965498098407" lon="9.39742462048314"><ele>183.66666666666666</ele><time>2026-04-23T09:37:35.999Z</time></trkpt><trkpt lat="45.00960236860281" lon="9.397521783837231"><ele>182.33333333333331</ele><time>2026-04-23T09:37:38.999Z</time></trkpt><trkpt lat="45.00951973276741" lon="9.397498245341676"><ele>181.0</ele><time>2026-04-23T09:37:40.999Z</time></trkpt><trkpt lat="45.00945832954702" lon="9.397478275257555"><ele>179.66666666666666</ele><time>2026-04-23T09:37:41.999Z</time></trkpt><trkpt lat="45.00936697632051" lon="9.39745834143515"><ele>178.33333333333334</ele><time>2026-04-23T09:37:43.999Z</time></trkpt><trkpt lat="45.009301797054775" lon="9.397441736641724"><ele>177.0</ele><time>2026-04-23T09:37:45.999Z</time></trkpt><trkpt lat="45.00922444125385" lon="9.39742516574675"><ele>174.6</ele><time>2026-04-23T09:37:47.999Z</time></trkpt><trkpt lat="45.009131448131356" lon="9.397410932294852"><ele>172.2</ele><time>2026-04-23T09:37:49.998Z</time></trkpt><trkpt lat="45.00903267629257" lon="9.397372847814136"><ele>169.8</ele><time>2026-04-23T09:37:51.998Z</time></trkpt><trkpt lat="45.00893966468612" lon="9.397342482220422"><ele>167.4</ele><time>2026-04-23T09:37:53.998Z</time></trkpt><trkpt lat="45.00886395590834" lon="9.397327034840721"><ele>165.0</ele><time>2026-04-23T09:37:56.998Z</time></trkpt><trkpt lat="45.00877933896974" lon="9.397276002083197"><ele>165.0</ele><time>2026-04-23T09:38:06Z</time></trkpt><trkpt lat="45.008673461284246" lon="9.397277461782833"><ele>165.0</ele><time>2026-04-23T09:38:08Z</time></trkpt><trkpt lat="45.008596963470765" lon="9.397270401840698"><ele>165.0</ele><time>2026-04-23T09:38:09Z</time></trkpt><trkpt lat="45.008523627799995" lon="9.39726960747324"><ele>165.0</ele><time>2026-04-23T09:38:10Z</time></trkpt><trkpt lat="45.008435615590585" lon="9.397270053516253"><ele>165.0</ele><time>2026-04-23T09:38:11Z</time></trkpt><trkpt lat="45.008349969254105" lon="9.397272570046319"><ele>165.0</ele><time>2026-04-23T09:38:13Z</time></trkpt><trkpt lat="45.00828020740999" lon="9.397263177491421"><ele>164.0</ele><time>2026-04-23T09:38:15Z</time></trkpt><trkpt lat="45.00820557704745" lon="9.397265377189981"><ele>163.0</ele><time>2026-04-23T09:38:17Z</time></trkpt><trkpt lat="45.00816291962495" lon="9.397179147930478"><ele>162.0</ele><time>2026-04-23T09:38:20Z</time></trkpt><trkpt lat="45.0081938984717" lon="9.397062709535495"><ele>161.0</ele><time>2026-04-23T09:38:22Z</time></trkpt><trkpt lat="45.00821437634918" lon="9.396970490044586"><ele>160.0</ele><time>2026-04-23T09:38:23Z</time></trkpt><trkpt lat="45.00823404340328" lon="9.396864466837723"><ele>159.0</ele><time>2026-04-23T09:38:24Z</time></trkpt><trkpt lat="45.00825972908341" lon="9.39676774438012"><ele>159.0</ele><time>2026-04-23T09:38:25Z</time></trkpt><trkpt lat="45.008281219537025" lon="9.396667646232075"><ele>159.0</ele><time>2026-04-23T09:38:26Z</time></trkpt><trkpt lat="45.00830990275986" lon="9.396584402292696"><ele>159.0</ele><time>2026-04-23T09:38:27Z</time></trkpt><trkpt lat="45.00833627828764" lon="9.396487024188612"><ele>159.0</ele><time>2026-04-23T09:38:29Z</time></trkpt><trkpt lat="45.00844483026499" lon="9.396440984858176"><ele>159.0</ele><time>2026-04-23T09:38:31Z</time></trkpt><trkpt lat="45.00851715881246" lon="9.396371183764165"><ele>159.0</ele><time>2026-04-23T09:38:32Z</time></trkpt><trkpt lat="45.008614476988235" lon="9.396298765636434"><ele>163.8</ele><time>2026-04-23T09:38:33Z</time></trkpt><trkpt lat="45.008684413679205" lon="9.396252892905164"><ele>168.60000000000002</ele><time>2026-04-23T09:38:34Z</time></trkpt><trkpt lat="45.008802130280536" lon="9.396202230405944"><ele>173.4</ele><time>2026-04-23T09:38:36Z</time></trkpt><trkpt lat="45.00887325923222" lon="9.396149482592067"><ele>178.20000000000002</ele><time>2026-04-23T09:38:38Z</time></trkpt><trkpt lat="45.008924815158096" lon="9.396081560563394"><ele>183.0</ele><time>2026-04-23T09:38:40Z</time></trkpt><trkpt lat="45.00896658229423" lon="9.395946604349579"><ele>183.0</ele><time>2026-04-23T09:38:42Z</time></trkpt><trkpt lat="45.00899004052983" lon="9.395797772777719"><ele>183.0</ele><time>2026-04-23T09:38:44Z</time></trkpt><trkpt lat="45.00904620797425" lon="9.395693942025225"><ele>183.0</ele><time>2026-04-23T09:38:46Z</time></trkpt><trkpt lat="45.00910222135975" lon="9.39564565841595"><ele>183.0</ele><time>2026-04-23T09:38:48Z</time></trkpt><trkpt lat="45.00916420851431" lon="9.39571036662147"><ele>183.0</ele><time>2026-04-23T09:38:50.999Z</time></trkpt><trkpt lat="45.009194289542215" lon="9.395895871249474"><ele>183.33333333333334</ele><time>2026-04-23T09:38:52.999Z</time></trkpt><trkpt lat="45.009216184709594" lon="9.396024918498764"><ele>183.66666666666666</ele><time>2026-04-23T09:38:53.999Z</time></trkpt><trkpt lat="45.00923107650786" lon="9.39614207400895"><ele>184.0</ele><time>2026-04-23T09:38:54.999Z</time></trkpt><trkpt lat="45.009247341444166" lon="9.39623009698296"><ele>184.33333333333331</ele><time>2026-04-23T09:38:55.999Z</time></trkpt><trkpt lat="45.009275172496245" lon="9.396312292574175"><ele>184.66666666666666</ele><time>2026-04-23T09:38:56.999Z</time></trkpt><trkpt lat="45.00934494073279" lon="9.396391028097769"><ele>185.0</ele><time>2026-04-23T09:38:57.999Z</time></trkpt><trkpt lat="45.00940781915219" lon="9.396462879585723"><ele>185.0</ele><time>2026-04-23T09:38:58.999Z</time></trkpt><trkpt lat="45.00946287466219" lon="9.396528470919698"><ele>185.0</ele><time>2026-04-23T09:38:59.999Z</time></trkpt><trkpt lat="45.00953910212581" lon="9.396656374421694"><ele>185.0</ele><time>2026-04-23T09:39:01.999Z</time></trkpt><trkpt lat="45.00962086296597" lon="9.396794879745261"><ele>185.0</ele><time>2026-04-23T09:39:03.999Z</time></trkpt><trkpt lat="45.00965145632347" lon="9.396886780592355"><ele>185.0</ele><time>2026-04-23T09:39:04.999Z</time></trkpt><trkpt lat="45.00966332374677" lon="9.396975855053352"><ele>185.0</ele><time>2026-04-23T09:39:05.999Z</time></trkpt><trkpt lat="45.00970587488661" lon="9.397150833823982"><ele>185.0</ele><time>2026-04-23T09:39:07.999Z</time></trkpt><trkpt lat="45.009736874036754" lon="9.397275908296923"><ele>185.0</ele><time>2026-04-23T09:39:08.999Z</time></trkpt><trkpt lat="45.00976609324424" lon="9.397392958976004"><ele>185.0</ele><time>2026-04-23T09:39:09.999Z</time></trkpt><trkpt lat="45.0097952106486" lon="9.397500167139455"><ele>185.0</ele><time>2026-04-23T09:39:10.999Z</time></trkpt><trkpt lat="45.00981358436196" lon="9.39760480081978"><ele>183.4</ele><time>2026-04-23T09:39:11.999Z</time></trkpt><trkpt lat="45.00986272519712" lon="9.397770128361067"><ele>181.8</ele><time>2026-04-23T09:39:13.999Z</time></trkpt><trkpt lat="45.00990295997468" lon="9.397855804828584"><ele>180.2</ele><time>2026-04-23T09:39:14.999Z</time></trkpt><trkpt lat="45.00993408901743" lon="9.398029559281765"><ele>178.6</ele><time>2026-04-23T09:39:16.999Z</time></trkpt><trkpt lat="45.0099438522097" lon="9.398133086510445"><ele>177.0</ele><time>2026-04-23T09:39:17.999Z</time></trkpt><trkpt lat="45.009958726880804" lon="9.398224377888585"><ele>176.0</ele><time>2026-04-23T09:39:18.999Z</time></trkpt><trkpt lat="45.0099942378967" lon="9.39840494305823"><ele>175.0</ele><time>2026-04-23T09:39:20.999Z</time></trkpt><trkpt lat="45.01001149674131" lon="9.398502561858118"><ele>174.0</ele><time>2026-04-23T09:39:21.999Z</time></trkpt><trkpt lat="45.010025658363396" lon="9.398604611988736"><ele>173.0</ele><time>2026-04-23T09:39:22.999Z</time></trkpt><trkpt lat="45.010040172144244" lon="9.39869753803212"><ele>172.0</ele><time>2026-04-23T09:39:23.999Z</time></trkpt><trkpt lat="45.01004987898847" lon="9.398853996898817"><ele>171.0</ele><time>2026-04-23T09:39:25.999Z</time></trkpt><trkpt lat="45.010039077778686" lon="9.398948370349533"><ele>170.0</ele><time>2026-04-23T09:39:26.999Z</time></trkpt><trkpt lat="45.01003425201792" lon="9.39904278447874"><ele>169.0</ele><time>2026-04-23T09:39:27.999Z</time></trkpt><trkpt lat="45.010026818354916" lon="9.399136124431863"><ele>168.0</ele><time>2026-04-23T09:39:28.999Z</time></trkpt><trkpt lat="45.01001620902294" lon="9.399231954473516"><ele>167.0</ele><time>2026-04-23T09:39:29.999Z</time></trkpt><trkpt lat="45.00997588097595" lon="9.399406570025514"><ele>166.0</ele><time>2026-04-23T09:39:31.999Z</time></trkpt><trkpt lat="45.0099277182756" lon="9.399590313253047"><ele>164.57142857142856</ele><time>2026-04-23T09:39:33.999Z</time></trkpt><trkpt lat="45.00990900652641" lon="9.39969275474013"><ele>163.14285714285717</ele><time>2026-04-23T09:39:34.999Z</time></trkpt><trkpt lat="45.00989464147721" lon="9.399782127035843"><ele>161.71428571428572</ele><time>2026-04-23T09:39:35.999Z</time></trkpt><trkpt lat="45.009870424889755" lon="9.399873919016727"><ele>160.28571428571428</ele><time>2026-04-23T09:39:36.999Z</time></trkpt><trkpt lat="45.00984125893688" lon="9.399963077403958"><ele>158.85714285714283</ele><time>2026-04-23T09:39:37.999Z</time></trkpt><trkpt lat="45.009813499987864" lon="9.400049202197788"><ele>157.42857142857144</ele><time>2026-04-23T09:39:38.999Z</time></trkpt><trkpt lat="45.00980523062639" lon="9.400143387068727"><ele>156.0</ele><time>2026-04-23T09:39:39.999Z</time></trkpt><trkpt lat="45.009807143271765" lon="9.400252422352239"><ele>156.0</ele><time>2026-04-23T09:39:40.999Z</time></trkpt><trkpt lat="45.00980995952642" lon="9.4003777365795"><ele>156.0</ele><time>2026-04-23T09:39:41.999Z</time></trkpt><trkpt lat="45.00980094532731" lon="9.400478055393847"><ele>156.0</ele><time>2026-04-23T09:39:42.999Z</time></trkpt><trkpt lat="45.00978090986421" lon="9.400573192592093"><ele>156.0</ele><time>2026-04-23T09:39:43.999Z</time></trkpt><trkpt lat="45.009748441201914" lon="9.40065852790472"><ele>156.0</ele><time>2026-04-23T09:39:44.999Z</time></trkpt><trkpt lat="45.00969085453842" lon="9.400803390130893"><ele>156.0</ele><time>2026-04-23T09:39:46.999Z</time></trkpt><trkpt lat="45.00963099194469" lon="9.400904218417693"><ele>154.8</ele><time>2026-04-23T09:39:48.999Z</time></trkpt><trkpt lat="45.00963268141525" lon="9.401008849141949"><ele>153.6</ele><time>2026-04-23T09:39:49.999Z</time></trkpt><trkpt lat="45.00962464415332" lon="9.40113561654161"><ele>152.4</ele><time>2026-04-23T09:39:50.999Z</time></trkpt><trkpt lat="45.00962192672168" lon="9.401307268443082"><ele>151.2</ele><time>2026-04-23T09:39:52.999Z</time></trkpt><trkpt lat="45.00959733206614" lon="9.401467801457754"><ele>150.0</ele><time>2026-04-23T09:39:54.999Z</time></trkpt><trkpt lat="45.009588101292366" lon="9.40163190280824"><ele>149.14285714285714</ele><time>2026-04-23T09:39:56.999Z</time></trkpt><trkpt lat="45.009596513322556" lon="9.401724121227925"><ele>148.28571428571428</ele><time>2026-04-23T09:39:57.999Z</time></trkpt><trkpt lat="45.00960781483847" lon="9.401815564585606"><ele>147.42857142857144</ele><time>2026-04-23T09:39:58.998Z</time></trkpt><trkpt lat="45.009628320563685" lon="9.401922439371624"><ele>146.57142857142856</ele><time>2026-04-23T09:39:59.998Z</time></trkpt><trkpt lat="45.00964123065324" lon="9.402017696275639"><ele>145.71428571428572</ele><time>2026-04-23T09:40:00.998Z</time></trkpt><trkpt lat="45.00966228403879" lon="9.40211473099633"><ele>144.85714285714286</ele><time>2026-04-23T09:40:01.998Z</time></trkpt><trkpt lat="45.00968332261927" lon="9.402219288831942"><ele>144.0</ele><time>2026-04-23T09:40:02.998Z</time></trkpt><trkpt lat="45.00969745546837" lon="9.402325765810035"><ele>142.83333333333334</ele><time>2026-04-23T09:40:03.998Z</time></trkpt><trkpt lat="45.009708467417816" lon="9.402433021753136"><ele>141.66666666666666</ele><time>2026-04-23T09:40:04.998Z</time></trkpt><trkpt lat="45.0097280952954" lon="9.40253637661594"><ele>140.5</ele><time>2026-04-23T09:40:05.998Z</time></trkpt><trkpt lat="45.009746409743045" lon="9.40263851509326"><ele>139.33333333333331</ele><time>2026-04-23T09:40:06.998Z</time></trkpt><trkpt lat="45.009764025933364" lon="9.402743368697259"><ele>138.16666666666666</ele><time>2026-04-23T09:40:07.998Z</time></trkpt><trkpt lat="45.009787090890775" lon="9.402845874113776"><ele>137.0</ele><time>2026-04-23T09:40:09Z</time></trkpt><trkpt lat="45.00982163248952" lon="9.402936316036028"><ele>135.83333333333331</ele><time>2026-04-23T09:40:10Z</time></trkpt><trkpt lat="45.00985636208229" lon="9.40302778193044"><ele>134.66666666666666</ele><time>2026-04-23T09:40:11Z</time></trkpt><trkpt lat="45.00990218774731" lon="9.403115837636886"><ele>133.5</ele><time>2026-04-23T09:40:12Z</time></trkpt><trkpt lat="45.009964296426894" lon="9.403205562941572"><ele>132.33333333333334</ele><time>2026-04-23T09:40:13Z</time></trkpt><trkpt lat="45.01001454256956" lon="9.40330834982394"><ele>131.16666666666669</ele><time>2026-04-23T09:40:14Z</time></trkpt><trkpt lat="45.01005741227088" lon="9.403410270430859"><ele>130.0</ele><time>2026-04-23T09:40:15Z</time></trkpt><trkpt lat="45.01010027334008" lon="9.403504588948788"><ele>130.0</ele><time>2026-04-23T09:40:16Z</time></trkpt><trkpt lat="45.01014071201176" lon="9.403600696609342"><ele>130.0</ele><time>2026-04-23T09:40:17Z</time></trkpt><trkpt lat="45.01017509733703" lon="9.403695290813886"><ele>130.0</ele><time>2026-04-23T09:40:18Z</time></trkpt><trkpt lat="45.01020480487881" lon="9.403788910201214"><ele>130.0</ele><time>2026-04-23T09:40:19Z</time></trkpt><trkpt lat="45.01022580773373" lon="9.403874928461919"><ele>130.0</ele><time>2026-04-23T09:40:20Z</time></trkpt><trkpt lat="45.01025007392399" lon="9.40404349484833"><ele>130.0</ele><time>2026-04-23T09:40:22Z</time></trkpt><trkpt lat="45.01027808392991" lon="9.40419643420042"><ele>129.16666666666669</ele><time>2026-04-23T09:40:24Z</time></trkpt><trkpt lat="45.01027762850977" lon="9.404294088166573"><ele>128.33333333333334</ele><time>2026-04-23T09:40:26Z</time></trkpt><trkpt lat="45.010210732142745" lon="9.404348645689174"><ele>127.5</ele><time>2026-04-23T09:40:28Z</time></trkpt><trkpt lat="45.010157482801155" lon="9.404419450966728"><ele>126.66666666666666</ele><time>2026-04-23T09:40:32Z</time></trkpt><trkpt lat="45.01021747368074" lon="9.404312131228107"><ele>125.83333333333333</ele><time>2026-04-23T09:40:37Z</time></trkpt><trkpt lat="45.01027126392446" lon="9.40426214912203"><ele>125.0</ele><time>2026-04-23T09:40:38Z</time></trkpt><trkpt lat="45.01026480837795" lon="9.404030456936782"><ele>125.0</ele><time>2026-04-23T09:40:41Z</time></trkpt><trkpt lat="45.01024133085423" lon="9.40390759895941"><ele>125.0</ele><time>2026-04-23T09:40:42Z</time></trkpt><trkpt lat="45.010208250402485" lon="9.403757352678717"><ele>125.0</ele><time>2026-04-23T09:40:43Z</time></trkpt><trkpt lat="45.0101538299036" lon="9.403586222848366"><ele>125.0</ele><time>2026-04-23T09:40:44Z</time></trkpt><trkpt lat="45.01008122361665" lon="9.403415494905223"><ele>126.0</ele><time>2026-04-23T09:40:45Z</time></trkpt><trkpt lat="45.01000154707144" lon="9.403248915741624"><ele>127.0</ele><time>2026-04-23T09:40:46Z</time></trkpt><trkpt lat="45.00991232114871" lon="9.403103030263042"><ele>128.0</ele><time>2026-04-23T09:40:47Z</time></trkpt><trkpt lat="45.009833022279544" lon="9.402968202404663"><ele>129.0</ele><time>2026-04-23T09:40:48Z</time></trkpt><trkpt lat="45.009776084663464" lon="9.402838277582132"><ele>131.0</ele><time>2026-04-23T09:40:49Z</time></trkpt><trkpt lat="45.00973834312084" lon="9.402697337547854"><ele>133.0</ele><time>2026-04-23T09:40:50Z</time></trkpt><trkpt lat="45.00972247986458" lon="9.402516225300143"><ele>135.0</ele><time>2026-04-23T09:40:51Z</time></trkpt><trkpt lat="45.009698647491085" lon="9.402323194561934"><ele>137.0</ele><time>2026-04-23T09:40:52Z</time></trkpt><trkpt lat="45.00966444010146" lon="9.402129694402324"><ele>138.75</ele><time>2026-04-23T09:40:53Z</time></trkpt><trkpt lat="45.009636660044954" lon="9.401942763182454"><ele>140.5</ele><time>2026-04-23T09:40:54Z</time></trkpt><trkpt lat="45.00960904782791" lon="9.401768278400324"><ele>142.25</ele><time>2026-04-23T09:40:55Z</time></trkpt><trkpt lat="45.00959008831735" lon="9.401616670627314"><ele>144.0</ele><time>2026-04-23T09:40:55.999Z</time></trkpt><trkpt lat="45.00959218755092" lon="9.401472091577205"><ele>145.2</ele><time>2026-04-23T09:40:56.999Z</time></trkpt><trkpt lat="45.009608635166195" lon="9.401313304136362"><ele>146.4</ele><time>2026-04-23T09:40:57.999Z</time></trkpt><trkpt lat="45.009625648824375" lon="9.401154243963955"><ele>147.6</ele><time>2026-04-23T09:40:58.999Z</time></trkpt><trkpt lat="45.009647743242404" lon="9.40102215425452"><ele>148.8</ele><time>2026-04-23T09:40:59.999Z</time></trkpt><trkpt lat="45.00966194046911" lon="9.400910756456556"><ele>150.0</ele><time>2026-04-23T09:41:00.999Z</time></trkpt><trkpt lat="45.00967587096709" lon="9.400794825593994"><ele>150.0</ele><time>2026-04-23T09:41:01.999Z</time></trkpt><trkpt lat="45.00970867188939" lon="9.400689918290482"><ele>150.0</ele><time>2026-04-23T09:41:02.999Z</time></trkpt><trkpt lat="45.00976713644991" lon="9.400570371081278"><ele>150.0</ele><time>2026-04-23T09:41:03.999Z</time></trkpt><trkpt lat="45.009805114035494" lon="9.400459406719275"><ele>150.0</ele><time>2026-04-23T09:41:04.999Z</time></trkpt><trkpt lat="45.00982266292577" lon="9.400339919579295"><ele>150.0</ele><time>2026-04-23T09:41:05.999Z</time></trkpt><trkpt lat="45.00981820444072" lon="9.400207432672254"><ele>151.5</ele><time>2026-04-23T09:41:06.999Z</time></trkpt><trkpt lat="45.009818078682095" lon="9.400068706933613"><ele>153.0</ele><time>2026-04-23T09:41:07.999Z</time></trkpt><trkpt lat="45.009836648806676" lon="9.399930256861364"><ele>154.5</ele><time>2026-04-23T09:41:08.999Z</time></trkpt><trkpt lat="45.00986922049338" lon="9.399765791668893"><ele>156.0</ele><time>2026-04-23T09:41:09.999Z</time></trkpt><trkpt lat="45.00992236344798" lon="9.399579796316488"><ele>157.8</ele><time>2026-04-23T09:41:10.999Z</time></trkpt><trkpt lat="45.009959167856266" lon="9.399413247273598"><ele>159.6</ele><time>2026-04-23T09:41:11.999Z</time></trkpt><trkpt lat="45.00998485845108" lon="9.399279564138247"><ele>161.4</ele><time>2026-04-23T09:41:12.999Z</time></trkpt><trkpt lat="45.010014952489286" lon="9.399159783073545"><ele>163.2</ele><time>2026-04-23T09:41:13.999Z</time></trkpt><trkpt lat="45.01003065548531" lon="9.39904214549719"><ele>165.0</ele><time>2026-04-23T09:41:14.999Z</time></trkpt><trkpt lat="45.0100453122092" lon="9.398913331932839"><ele>166.4</ele><time>2026-04-23T09:41:15.999Z</time></trkpt><trkpt lat="45.0100350147654" lon="9.398780647437988"><ele>167.8</ele><time>2026-04-23T09:41:16.999Z</time></trkpt><trkpt lat="45.010023630979894" lon="9.398658823556964"><ele>169.2</ele><time>2026-04-23T09:41:17.999Z</time></trkpt><trkpt lat="45.01000280308305" lon="9.39850473453201"><ele>170.6</ele><time>2026-04-23T09:41:18.999Z</time></trkpt><trkpt lat="45.009978952654464" lon="9.39834596761446"><ele>172.0</ele><time>2026-04-23T09:41:19.999Z</time></trkpt><trkpt lat="45.00995301041714" lon="9.398181076427385"><ele>172.39999999999998</ele><time>2026-04-23T09:41:20.999Z</time></trkpt><trkpt lat="45.00991464347887" lon="9.398028725695973"><ele>172.79999999999998</ele><time>2026-04-23T09:41:21.999Z</time></trkpt><trkpt lat="45.00988391507908" lon="9.397910678662571"><ele>173.2</ele><time>2026-04-23T09:41:22.999Z</time></trkpt><trkpt lat="45.009866771812476" lon="9.397807699937664"><ele>173.6</ele><time>2026-04-23T09:41:23.999Z</time></trkpt><trkpt lat="45.00982397787352" lon="9.397668461149761"><ele>174.0</ele><time>2026-04-23T09:41:24.999Z</time></trkpt><trkpt lat="45.00978273909453" lon="9.39751867535964"><ele>174.5</ele><time>2026-04-23T09:41:25.999Z</time></trkpt><trkpt lat="45.00976284226543" lon="9.397410568013836"><ele>175.0</ele><time>2026-04-23T09:41:26.999Z</time></trkpt><trkpt lat="45.00972138106474" lon="9.397271330273922"><ele>175.5</ele><time>2026-04-23T09:41:27.999Z</time></trkpt><trkpt lat="45.00968829908132" lon="9.397121553253722"><ele>176.0</ele><time>2026-04-23T09:41:28.999Z</time></trkpt><trkpt lat="45.00965781044329" lon="9.397007785189537"><ele>176.5</ele><time>2026-04-23T09:41:29.999Z</time></trkpt><trkpt lat="45.00961316077996" lon="9.396940782176786"><ele>177.0</ele><time>2026-04-23T09:41:30.999Z</time></trkpt><trkpt lat="45.00961183763761" lon="9.396817280467088"><ele>178.6</ele><time>2026-04-23T09:41:31.999Z</time></trkpt><trkpt lat="45.00958149572251" lon="9.396731738866038"><ele>180.2</ele><time>2026-04-23T09:41:32.999Z</time></trkpt><trkpt lat="45.009532698729224" lon="9.39664208243172"><ele>181.8</ele><time>2026-04-23T09:41:33.999Z</time></trkpt><trkpt lat="45.00948263113234" lon="9.39653081913594"><ele>183.4</ele><time>2026-04-23T09:41:34.999Z</time></trkpt><trkpt lat="45.00940404757546" lon="9.396424480412481"><ele>185.0</ele><time>2026-04-23T09:41:35.999Z</time></trkpt><trkpt lat="45.00932221804984" lon="9.396314779347795"><ele>186.25</ele><time>2026-04-23T09:41:36.999Z</time></trkpt><trkpt lat="45.00924823683518" lon="9.396200725732482"><ele>187.5</ele><time>2026-04-23T09:41:37.999Z</time></trkpt><trkpt lat="45.00919858928592" lon="9.396088510533541"><ele>188.75</ele><time>2026-04-23T09:41:38.999Z</time></trkpt><trkpt lat="45.009168794727564" lon="9.395919960531357"><ele>190.0</ele><time>2026-04-23T09:41:39.999Z</time></trkpt><trkpt lat="45.00915986627138" lon="9.395719904822373"><ele>189.83333333333334</ele><time>2026-04-23T09:41:40.999Z</time></trkpt><trkpt lat="45.0091519077625" lon="9.395564489614504"><ele>189.66666666666669</ele><time>2026-04-23T09:41:41.999Z</time></trkpt><trkpt lat="45.00912401479878" lon="9.395434004735202"><ele>189.5</ele><time>2026-04-23T09:41:42.999Z</time></trkpt><trkpt lat="45.00910897542044" lon="9.395344668916117"><ele>189.33333333333334</ele><time>2026-04-23T09:41:43.999Z</time></trkpt><trkpt lat="45.00911599252236" lon="9.395246179119011"><ele>189.16666666666666</ele><time>2026-04-23T09:41:44.999Z</time></trkpt><trkpt lat="45.00915577041007" lon="9.395109109710464"><ele>189.0</ele><time>2026-04-23T09:41:45.999Z</time></trkpt><trkpt lat="45.00918926962347" lon="9.394979160569731"><ele>189.0</ele><time>2026-04-23T09:41:46.999Z</time></trkpt><trkpt lat="45.00921722825396" lon="9.39483660056312"><ele>189.0</ele><time>2026-04-23T09:41:47.999Z</time></trkpt><trkpt lat="45.00925552475965" lon="9.394730677537675"><ele>189.0</ele><time>2026-04-23T09:41:48.999Z</time></trkpt><trkpt lat="45.00929537711163" lon="9.394606808198283"><ele>189.0</ele><time>2026-04-23T09:41:49.999Z</time></trkpt><trkpt lat="45.009341247334255" lon="9.394463800689207"><ele>189.0</ele><time>2026-04-23T09:41:50.999Z</time></trkpt><trkpt lat="45.00939097336859" lon="9.394313095503463"><ele>188.6</ele><time>2026-04-23T09:41:51.999Z</time></trkpt><trkpt lat="45.009431510722116" lon="9.39415912607047"><ele>188.2</ele><time>2026-04-23T09:41:52.999Z</time></trkpt><trkpt lat="45.009446718916394" lon="9.394012159034542"><ele>187.79999999999998</ele><time>2026-04-23T09:41:53.999Z</time></trkpt><trkpt lat="45.00944229770694" lon="9.39385509429239"><ele>187.39999999999998</ele><time>2026-04-23T09:41:54.999Z</time></trkpt><trkpt lat="45.009440603002474" lon="9.393725075441868"><ele>187.0</ele><time>2026-04-23T09:41:55.999Z</time></trkpt><trkpt lat="45.009422908125174" lon="9.393585527841255"><ele>187.0</ele><time>2026-04-23T09:41:56.999Z</time></trkpt><trkpt lat="45.00939165902658" lon="9.393408081890303"><ele>187.0</ele><time>2026-04-23T09:41:57.999Z</time></trkpt><trkpt lat="45.009370400282904" lon="9.393210839409287"><ele>187.0</ele><time>2026-04-23T09:41:58.999Z</time></trkpt><trkpt lat="45.0093477587268" lon="9.393028273159588"><ele>187.0</ele><time>2026-04-23T09:41:59.999Z</time></trkpt><trkpt lat="45.009333605936014" lon="9.392880779863928"><ele>188.39999999999998</ele><time>2026-04-23T09:42:00.999Z</time></trkpt><trkpt lat="45.00933293954539" lon="9.392761766843872"><ele>189.79999999999998</ele><time>2026-04-23T09:42:01.999Z</time></trkpt><trkpt lat="45.00930872851296" lon="9.392648037583433"><ele>191.2</ele><time>2026-04-23T09:42:02.999Z</time></trkpt><trkpt lat="45.009256786472946" lon="9.392519707326"><ele>192.6</ele><time>2026-04-23T09:42:03.999Z</time></trkpt><trkpt lat="45.00920615348458" lon="9.392370890724713"><ele>194.0</ele><time>2026-04-23T09:42:04.999Z</time></trkpt><trkpt lat="45.00916373889237" lon="9.392222316235253"><ele>193.6</ele><time>2026-04-23T09:42:05.999Z</time></trkpt><trkpt lat="45.00911823840407" lon="9.392083284138321"><ele>193.2</ele><time>2026-04-23T09:42:06.999Z</time></trkpt><trkpt lat="45.00907084592002" lon="9.39196883302067"><ele>192.79999999999998</ele><time>2026-04-23T09:42:07.998Z</time></trkpt><trkpt lat="45.00901660285172" lon="9.3918847786773"><ele>192.39999999999998</ele><time>2026-04-23T09:42:08.998Z</time></trkpt><trkpt lat="45.00895764415497" lon="9.391780532869678"><ele>192.0</ele><time>2026-04-23T09:42:09.998Z</time></trkpt><trkpt lat="45.00890138372763" lon="9.391675342484396"><ele>192.0</ele><time>2026-04-23T09:42:10.998Z</time></trkpt><trkpt lat="45.00886445010577" lon="9.391537254856638"><ele>192.0</ele><time>2026-04-23T09:42:11.998Z</time></trkpt><trkpt lat="45.0088246850251" lon="9.3913941235895"><ele>192.0</ele><time>2026-04-23T09:42:12.998Z</time></trkpt><trkpt lat="45.00878491306193" lon="9.391276472108467"><ele>192.0</ele><time>2026-04-23T09:42:13.998Z</time></trkpt><trkpt lat="45.00873058892019" lon="9.391190910560477"><ele>192.0</ele><time>2026-04-23T09:42:15Z</time></trkpt><trkpt lat="45.008671169290444" lon="9.391111545871627"><ele>192.0</ele><time>2026-04-23T09:42:16Z</time></trkpt><trkpt lat="45.00861678659827" lon="9.391028989419116"><ele>192.0</ele><time>2026-04-23T09:42:17Z</time></trkpt><trkpt lat="45.00855552420478" lon="9.39094368462611"><ele>192.0</ele><time>2026-04-23T09:42:18Z</time></trkpt><trkpt lat="45.008506892640575" lon="9.390872993226838"><ele>192.0</ele><time>2026-04-23T09:42:19Z</time></trkpt><trkpt lat="45.008477665381015" lon="9.390762443123116"><ele>192.0</ele><time>2026-04-23T09:42:20Z</time></trkpt><trkpt lat="45.00847347375088" lon="9.390623457396826"><ele>192.0</ele><time>2026-04-23T09:42:21Z</time></trkpt><trkpt lat="45.00845610401342" lon="9.390489339504601"><ele>193.6</ele><time>2026-04-23T09:42:22Z</time></trkpt><trkpt lat="45.00842048671307" lon="9.390414668603034"><ele>195.2</ele><time>2026-04-23T09:42:23Z</time></trkpt><trkpt lat="45.00834004145574" lon="9.390268795142452"><ele>196.8</ele><time>2026-04-23T09:42:25Z</time></trkpt><trkpt lat="45.00827903954964" lon="9.390179267478393"><ele>198.4</ele><time>2026-04-23T09:42:26Z</time></trkpt><trkpt lat="45.00823859092539" lon="9.390057234984573"><ele>200.0</ele><time>2026-04-23T09:42:27Z</time></trkpt><trkpt lat="45.00820919455683" lon="9.389963447431825"><ele>196.6</ele><time>2026-04-23T09:42:28Z</time></trkpt><trkpt lat="45.008166045761506" lon="9.389890109795937"><ele>193.2</ele><time>2026-04-23T09:42:29Z</time></trkpt><trkpt lat="45.008118297388684" lon="9.389811076004728"><ele>189.8</ele><time>2026-04-23T09:42:30Z</time></trkpt><trkpt lat="45.00804501658258" lon="9.389669472991887"><ele>186.4</ele><time>2026-04-23T09:42:32Z</time></trkpt><trkpt lat="45.00801135568837" lon="9.389543802931579"><ele>183.0</ele><time>2026-04-23T09:42:33Z</time></trkpt><trkpt lat="45.007989689473625" lon="9.389411704590879"><ele>183.0</ele><time>2026-04-23T09:42:34Z</time></trkpt><trkpt lat="45.007990482848385" lon="9.389277921370226"><ele>183.0</ele><time>2026-04-23T09:42:35Z</time></trkpt><trkpt lat="45.00799170278728" lon="9.389143931818474"><ele>183.0</ele><time>2026-04-23T09:42:36Z</time></trkpt><trkpt lat="45.00797956766258" lon="9.389023757184953"><ele>183.0</ele><time>2026-04-23T09:42:37Z</time></trkpt><trkpt lat="45.00796186910401" lon="9.388900655646703"><ele>183.0</ele><time>2026-04-23T09:42:38Z</time></trkpt><trkpt lat="45.007939333001104" lon="9.388787661988868"><ele>183.0</ele><time>2026-04-23T09:42:39Z</time></trkpt><trkpt lat="45.007913601013435" lon="9.38867448779704"><ele>183.16666666666666</ele><time>2026-04-23T09:42:40Z</time></trkpt><trkpt lat="45.00788553208937" lon="9.388557234611362"><ele>183.33333333333334</ele><time>2026-04-23T09:42:41Z</time></trkpt><trkpt lat="45.007862492155645" lon="9.388431094572999"><ele>183.5</ele><time>2026-04-23T09:42:42Z</time></trkpt><trkpt lat="45.007845972376934" lon="9.38832251206485"><ele>183.66666666666669</ele><time>2026-04-23T09:42:43Z</time></trkpt><trkpt lat="45.00783994429131" lon="9.388200759399407"><ele>183.83333333333334</ele><time>2026-04-23T09:42:44Z</time></trkpt><trkpt lat="45.007847004568774" lon="9.388067848132431"><ele>184.0</ele><time>2026-04-23T09:42:45Z</time></trkpt><trkpt lat="45.00785896055629" lon="9.387910459808765"><ele>184.66666666666669</ele><time>2026-04-23T09:42:46Z</time></trkpt><trkpt lat="45.00787244385305" lon="9.38777056915632"><ele>185.33333333333334</ele><time>2026-04-23T09:42:47Z</time></trkpt><trkpt lat="45.00788428321999" lon="9.387642277072851"><ele>186.0</ele><time>2026-04-23T09:42:48Z</time></trkpt><trkpt lat="45.00788553960701" lon="9.387524554842953"><ele>186.66666666666666</ele><time>2026-04-23T09:42:49Z</time></trkpt><trkpt lat="45.007883301454605" lon="9.387413153182083"><ele>187.33333333333331</ele><time>2026-04-23T09:42:50Z</time></trkpt><trkpt lat="45.007890428431104" lon="9.387305665285165"><ele>188.0</ele><time>2026-04-23T09:42:51Z</time></trkpt><trkpt lat="45.00789441867134" lon="9.387174906458151"><ele>189.0</ele><time>2026-04-23T09:42:52Z</time></trkpt><trkpt lat="45.00788847915103" lon="9.387037126260909"><ele>190.0</ele><time>2026-04-23T09:42:53Z</time></trkpt><trkpt lat="45.00786474112832" lon="9.386927976609257"><ele>191.0</ele><time>2026-04-23T09:42:54Z</time></trkpt><trkpt lat="45.00783493421007" lon="9.386831068877818"><ele>192.0</ele><time>2026-04-23T09:42:55Z</time></trkpt><trkpt lat="45.00779667053326" lon="9.386758379686745"><ele>193.00000000000003</ele><time>2026-04-23T09:42:56Z</time></trkpt><trkpt lat="45.007731663892784" lon="9.386638295772034"><ele>194.0</ele><time>2026-04-23T09:42:58Z</time></trkpt><trkpt lat="45.007679574822205" lon="9.386560655974455"><ele>194.00000000000003</ele><time>2026-04-23T09:42:59.999Z</time></trkpt><trkpt lat="45.00763039389979" lon="9.38646085593861"><ele>194.0</ele><time>2026-04-23T09:43:01.999Z</time></trkpt><trkpt lat="45.00759940245117" lon="9.386336209111969"><ele>194.0</ele><time>2026-04-23T09:43:03.999Z</time></trkpt><trkpt lat="45.00757013610238" lon="9.386238485231388"><ele>194.0</ele><time>2026-04-23T09:43:05.999Z</time></trkpt><trkpt lat="45.00753651566171" lon="9.386088772253723"><ele>194.00000000000003</ele><time>2026-04-23T09:43:07.999Z</time></trkpt><trkpt lat="45.00749938657783" lon="9.386003348386055"><ele>194.0</ele><time>2026-04-23T09:43:08.999Z</time></trkpt><trkpt lat="45.007478149349545" lon="9.385912737954445"><ele>193.28571428571428</ele><time>2026-04-23T09:43:09.999Z</time></trkpt><trkpt lat="45.007465712009974" lon="9.385814376640994"><ele>192.57142857142858</ele><time>2026-04-23T09:43:10.999Z</time></trkpt><trkpt lat="45.007436065650914" lon="9.38572725146949"><ele>191.85714285714286</ele><time>2026-04-23T09:43:11.999Z</time></trkpt><trkpt lat="45.00741756575087" lon="9.385627861429061"><ele>191.14285714285714</ele><time>2026-04-23T09:43:12.999Z</time></trkpt><trkpt lat="45.007386206825544" lon="9.385536394638928"><ele>190.42857142857144</ele><time>2026-04-23T09:43:13.999Z</time></trkpt><trkpt lat="45.00735843583644" lon="9.385439689690141"><ele>189.71428571428572</ele><time>2026-04-23T09:43:14.999Z</time></trkpt><trkpt lat="45.00733119758261" lon="9.385348598738371"><ele>189.0</ele><time>2026-04-23T09:43:15.999Z</time></trkpt><trkpt lat="45.00732115515404" lon="9.385252702904493"><ele>190.71428571428572</ele><time>2026-04-23T09:43:16.999Z</time></trkpt><trkpt lat="45.00729803011151" lon="9.385159181745887"><ele>192.42857142857144</ele><time>2026-04-23T09:43:17.999Z</time></trkpt><trkpt lat="45.00727589454938" lon="9.385071394786781"><ele>194.14285714285714</ele><time>2026-04-23T09:43:18.999Z</time></trkpt><trkpt lat="45.007254350942105" lon="9.38497083321112"><ele>195.85714285714286</ele><time>2026-04-23T09:43:19.999Z</time></trkpt><trkpt lat="45.0072337307816" lon="9.384864499031012"><ele>197.57142857142858</ele><time>2026-04-23T09:43:20.999Z</time></trkpt><trkpt lat="45.007202166836954" lon="9.384768556781902"><ele>199.28571428571428</ele><time>2026-04-23T09:43:21.999Z</time></trkpt><trkpt lat="45.007182569086005" lon="9.384666669663199"><ele>201.0</ele><time>2026-04-23T09:43:22.999Z</time></trkpt><trkpt lat="45.00714769682506" lon="9.384558616089988"><ele>202.33333333333334</ele><time>2026-04-23T09:43:23.999Z</time></trkpt><trkpt lat="45.00711625839055" lon="9.384474139087224"><ele>203.66666666666669</ele><time>2026-04-23T09:43:24.999Z</time></trkpt><trkpt lat="45.007080192610765" lon="9.384382956335937"><ele>205.0</ele><time>2026-04-23T09:43:25.999Z</time></trkpt><trkpt lat="45.007041415715406" lon="9.384291976115716"><ele>206.33333333333334</ele><time>2026-04-23T09:43:26.999Z</time></trkpt><trkpt lat="45.0069984598473" lon="9.38420599684373"><ele>207.66666666666669</ele><time>2026-04-23T09:43:27.999Z</time></trkpt><trkpt lat="45.00693490749682" lon="9.38412741439704"><ele>209.0</ele><time>2026-04-23T09:43:28.999Z</time></trkpt><trkpt lat="45.00687732983333" lon="9.384041044685398"><ele>209.0</ele><time>2026-04-23T09:43:29.999Z</time></trkpt><trkpt lat="45.00680970142619" lon="9.383949805818608"><ele>209.0</ele><time>2026-04-23T09:43:30.999Z</time></trkpt><trkpt lat="45.00674801709318" lon="9.38384204462862"><ele>209.0</ele><time>2026-04-23T09:43:31.999Z</time></trkpt><trkpt lat="45.006685910900146" lon="9.383745886860613"><ele>209.0</ele><time>2026-04-23T09:43:32.999Z</time></trkpt><trkpt lat="45.0066199001575" lon="9.383636721141809"><ele>209.0</ele><time>2026-04-23T09:43:33.999Z</time></trkpt><trkpt lat="45.00655439501607" lon="9.383518694206105"><ele>209.0</ele><time>2026-04-23T09:43:34.999Z</time></trkpt><trkpt lat="45.00648863793798" lon="9.383410945533377"><ele>209.0</ele><time>2026-04-23T09:43:35.999Z</time></trkpt><trkpt lat="45.006439648934" lon="9.38330677705546"><ele>209.0</ele><time>2026-04-23T09:43:36.999Z</time></trkpt><trkpt lat="45.006393597178594" lon="9.383211310876247"><ele>209.0</ele><time>2026-04-23T09:43:37.999Z</time></trkpt><trkpt lat="45.00634630182954" lon="9.38308988708919"><ele>209.0</ele><time>2026-04-23T09:43:38.999Z</time></trkpt><trkpt lat="45.00628670995336" lon="9.38295641704092"><ele>210.75</ele><time>2026-04-23T09:43:39.999Z</time></trkpt><trkpt lat="45.006235780135064" lon="9.382830435234505"><ele>212.5</ele><time>2026-04-23T09:43:40.999Z</time></trkpt><trkpt lat="45.00617786027348" lon="9.382712855756909"><ele>214.25</ele><time>2026-04-23T09:43:41.999Z</time></trkpt><trkpt lat="45.006102989629206" lon="9.382569929524802"><ele>216.0</ele><time>2026-04-23T09:43:42.999Z</time></trkpt><trkpt lat="45.00598437331918" lon="9.382353141355793"><ele>216.0</ele><time>2026-04-23T09:43:43.999Z</time></trkpt><trkpt lat="45.005934492045434" lon="9.382265445179783"><ele>216.00000000000003</ele><time>2026-04-23T09:43:45.999Z</time></trkpt><trkpt lat="45.005875809718205" lon="9.3821643979385"><ele>216.00000000000003</ele><time>2026-04-23T09:43:46.999Z</time></trkpt><trkpt lat="45.00581515834979" lon="9.382062614255966"><ele>216.0</ele><time>2026-04-23T09:43:47.999Z</time></trkpt><trkpt lat="45.005743027825154" lon="9.381978890372375"><ele>216.0</ele><time>2026-04-23T09:43:48.999Z</time></trkpt><trkpt lat="45.005681887947695" lon="9.381876676582863"><ele>218.4</ele><time>2026-04-23T09:43:49.999Z</time></trkpt><trkpt lat="45.005616141720864" lon="9.381784193379927"><ele>220.8</ele><time>2026-04-23T09:43:50.999Z</time></trkpt><trkpt lat="45.00555921619116" lon="9.38169082231363"><ele>223.20000000000002</ele><time>2026-04-23T09:43:51.999Z</time></trkpt><trkpt lat="45.00549219363787" lon="9.381596449574351"><ele>225.60000000000002</ele><time>2026-04-23T09:43:52.999Z</time></trkpt><trkpt lat="45.00542293589884" lon="9.381510231824917"><ele>228.0</ele><time>2026-04-23T09:43:53.999Z</time></trkpt><trkpt lat="45.00534594841238" lon="9.381441075587787"><ele>228.0</ele><time>2026-04-23T09:43:54.999Z</time></trkpt><trkpt lat="45.00527650395814" lon="9.38138923478156"><ele>228.0</ele><time>2026-04-23T09:43:55.999Z</time></trkpt><trkpt lat="45.00517850676566" lon="9.381343057660697"><ele>228.0</ele><time>2026-04-23T09:43:57.999Z</time></trkpt><trkpt lat="45.00509300860582" lon="9.381324965040623"><ele>228.0</ele><time>2026-04-23T09:43:59.999Z</time></trkpt><trkpt lat="45.005013591177566" lon="9.381306320829756"><ele>228.0</ele><time>2026-04-23T09:44:04.999Z</time></trkpt><trkpt lat="45.0049487057902" lon="9.381295663879015"><ele>228.0</ele><time>2026-04-23T09:44:05.999Z</time></trkpt><trkpt lat="45.0048172007857" lon="9.381297491298753"><ele>228.5</ele><time>2026-04-23T09:44:07.999Z</time></trkpt><trkpt lat="45.00473798278341" lon="9.381294932373237"><ele>229.0</ele><time>2026-04-23T09:44:08.999Z</time></trkpt><trkpt lat="45.0046741828622" lon="9.381272286433822"><ele>229.5</ele><time>2026-04-23T09:44:09.999Z</time></trkpt><trkpt lat="45.004609720406975" lon="9.381240897582185"><ele>230.0</ele><time>2026-04-23T09:44:10.999Z</time></trkpt><trkpt lat="45.00454425183439" lon="9.381177333639169"><ele>230.5</ele><time>2026-04-23T09:44:11.998Z</time></trkpt><trkpt lat="45.004433333449455" lon="9.381108992628375"><ele>231.0</ele><time>2026-04-23T09:44:12.998Z</time></trkpt><trkpt lat="45.00435763423879" lon="9.381071936728118"><ele>231.0</ele><time>2026-04-23T09:44:13.998Z</time></trkpt><trkpt lat="45.00422832608439" lon="9.381026978447439"><ele>231.0</ele><time>2026-04-23T09:44:14.998Z</time></trkpt><trkpt lat="45.00410608604598" lon="9.380969965836162"><ele>231.0</ele><time>2026-04-23T09:44:15.998Z</time></trkpt><trkpt lat="45.003996015854604" lon="9.380917980570075"><ele>231.0</ele><time>2026-04-23T09:44:16.998Z</time></trkpt><trkpt lat="45.003891782603084" lon="9.380868569473453"><ele>231.60000000000002</ele><time>2026-04-23T09:44:17.998Z</time></trkpt><trkpt lat="45.00379224849605" lon="9.38082104038904"><ele>232.20000000000002</ele><time>2026-04-23T09:44:18.998Z</time></trkpt><trkpt lat="45.003693484230475" lon="9.38078893862802"><ele>232.79999999999998</ele><time>2026-04-23T09:44:19.998Z</time></trkpt><trkpt lat="45.00360311742952" lon="9.380746436038724"><ele>233.39999999999998</ele><time>2026-04-23T09:44:21Z</time></trkpt><trkpt lat="45.00351794065446" lon="9.380726606048775"><ele>234.0</ele><time>2026-04-23T09:44:22Z</time></trkpt><trkpt lat="45.00342681749548" lon="9.380737558332967"><ele>234.0</ele><time>2026-04-23T09:44:23Z</time></trkpt><trkpt lat="45.00333193564143" lon="9.380746939623334"><ele>234.0</ele><time>2026-04-23T09:44:24Z</time></trkpt><trkpt lat="45.003222403708286" lon="9.380763490030033"><ele>234.0</ele><time>2026-04-23T09:44:25Z</time></trkpt><trkpt lat="45.00311375988713" lon="9.380823746794855"><ele>234.0</ele><time>2026-04-23T09:44:26Z</time></trkpt><trkpt lat="45.00299324800766" lon="9.380899087933503"><ele>234.5</ele><time>2026-04-23T09:44:27Z</time></trkpt><trkpt lat="45.002887680567085" lon="9.380966779223032"><ele>235.0</ele><time>2026-04-23T09:44:28Z</time></trkpt><trkpt lat="45.002757260259045" lon="9.381028570112173"><ele>235.5</ele><time>2026-04-23T09:44:29Z</time></trkpt><trkpt lat="45.002610055664455" lon="9.381100962404147"><ele>236.0</ele><time>2026-04-23T09:44:30Z</time></trkpt><trkpt lat="45.00246316289106" lon="9.381175595423139"><ele>237.5</ele><time>2026-04-23T09:44:31Z</time></trkpt><trkpt lat="45.00232489762405" lon="9.381217335595576"><ele>239.0</ele><time>2026-04-23T09:44:32Z</time></trkpt><trkpt lat="45.00220319248563" lon="9.381258261715903"><ele>240.5</ele><time>2026-04-23T09:44:33Z</time></trkpt><trkpt lat="45.00208919772261" lon="9.3812918224305"><ele>242.0</ele><time>2026-04-23T09:44:34Z</time></trkpt><trkpt lat="45.00198920850933" lon="9.381323633788575"><ele>242.0</ele><time>2026-04-23T09:44:35Z</time></trkpt><trkpt lat="45.00191397135155" lon="9.38134985636331"><ele>242.0</ele><time>2026-04-23T09:44:36Z</time></trkpt><trkpt lat="45.00184725413542" lon="9.381405305643359"><ele>242.0</ele><time>2026-04-23T09:44:38Z</time></trkpt><trkpt lat="45.00189245514049" lon="9.381254335962927"><ele>242.0</ele><time>2026-04-23T09:44:41Z</time></trkpt><trkpt lat="45.00189470666791" lon="9.381102624324415"><ele>242.0</ele><time>2026-04-23T09:44:43Z</time></trkpt><trkpt lat="45.00194175549403" lon="9.38094635856086"><ele>242.00000000000003</ele><time>2026-04-23T09:44:45Z</time></trkpt><trkpt lat="45.0019695482799" lon="9.380840708353443"><ele>242.0</ele><time>2026-04-23T09:44:46Z</time></trkpt><trkpt lat="45.00199258263659" lon="9.380737817755694"><ele>242.0</ele><time>2026-04-23T09:44:47Z</time></trkpt><trkpt lat="45.002018135140766" lon="9.380639085026882"><ele>242.0</ele><time>2026-04-23T09:44:48Z</time></trkpt><trkpt lat="45.002054355807395" lon="9.380500258931756"><ele>242.00000000000003</ele><time>2026-04-23T09:44:49Z</time></trkpt><trkpt lat="45.0020831412983" lon="9.380373259580539"><ele>242.0</ele><time>2026-04-23T09:44:50Z</time></trkpt><trkpt lat="45.002109343315155" lon="9.380236946351944"><ele>240.50000000000003</ele><time>2026-04-23T09:44:51Z</time></trkpt><trkpt lat="45.00213901211336" lon="9.380108836360577"><ele>239.0</ele><time>2026-04-23T09:44:52Z</time></trkpt><trkpt lat="45.002170106146835" lon="9.379985872797938"><ele>237.5</ele><time>2026-04-23T09:44:53Z</time></trkpt><trkpt lat="45.00219223125117" lon="9.37987742383033"><ele>236.0</ele><time>2026-04-23T09:44:54Z</time></trkpt><trkpt lat="45.002213680411884" lon="9.379768358899184"><ele>234.50000000000003</ele><time>2026-04-23T09:44:55Z</time></trkpt><trkpt lat="45.0022437512603" lon="9.37967579624494"><ele>233.0</ele><time>2026-04-23T09:44:56Z</time></trkpt><trkpt lat="45.00226395547119" lon="9.379588320428915"><ele>232.14285714285717</ele><time>2026-04-23T09:44:57Z</time></trkpt><trkpt lat="45.00228127938712" lon="9.379490271201593"><ele>231.28571428571428</ele><time>2026-04-23T09:44:58Z</time></trkpt><trkpt lat="45.0022920534239" lon="9.379385664195656"><ele>230.42857142857144</ele><time>2026-04-23T09:44:59Z</time></trkpt><trkpt lat="45.00229380273601" lon="9.37927307358841"><ele>229.57142857142858</ele><time>2026-04-23T09:45:00Z</time></trkpt><trkpt lat="45.00230393148426" lon="9.379166400149442"><ele>228.71428571428572</ele><time>2026-04-23T09:45:01Z</time></trkpt><trkpt lat="45.002316639091994" lon="9.379060928598072"><ele>227.85714285714286</ele><time>2026-04-23T09:45:02Z</time></trkpt><trkpt lat="45.00232195769073" lon="9.378965024743161"><ele>227.0</ele><time>2026-04-23T09:45:03Z</time></trkpt><trkpt lat="45.00233105682663" lon="9.378873095826075"><ele>226.0</ele><time>2026-04-23T09:45:04Z</time></trkpt><trkpt lat="45.00235318186904" lon="9.37872056827325"><ele>225.0</ele><time>2026-04-23T09:45:06Z</time></trkpt><trkpt lat="45.002369826904214" lon="9.378575392700977"><ele>224.0</ele><time>2026-04-23T09:45:08Z</time></trkpt><trkpt lat="45.00239281725538" lon="9.378424385003294"><ele>223.0</ele><time>2026-04-23T09:45:10Z</time></trkpt><trkpt lat="45.00240987962909" lon="9.378276888466285"><ele>222.0</ele><time>2026-04-23T09:45:12Z</time></trkpt><trkpt lat="45.00239628179567" lon="9.378166224034164"><ele>222.0</ele><time>2026-04-23T09:45:14Z</time></trkpt><trkpt lat="45.0023031265717" lon="9.378060310304777"><ele>222.0</ele><time>2026-04-23T09:45:16Z</time></trkpt><trkpt lat="45.00224779903215" lon="9.377984749065119"><ele>222.0</ele><time>2026-04-23T09:45:16.999Z</time></trkpt><trkpt lat="45.00219821015482" lon="9.377918280319768"><ele>222.0</ele><time>2026-04-23T09:45:17.999Z</time></trkpt><trkpt lat="45.00212706737953" lon="9.377806347457994"><ele>222.0</ele><time>2026-04-23T09:45:19.999Z</time></trkpt><trkpt lat="45.002022004995304" lon="9.377692272253881"><ele>221.0</ele><time>2026-04-23T09:45:21.999Z</time></trkpt><trkpt lat="45.00192629874913" lon="9.377644128102446"><ele>220.0</ele><time>2026-04-23T09:45:22.999Z</time></trkpt><trkpt lat="45.00182757111361" lon="9.377597482432355"><ele>219.0</ele><time>2026-04-23T09:45:23.999Z</time></trkpt><trkpt lat="45.00169996553602" lon="9.377549067213723"><ele>218.0</ele><time>2026-04-23T09:45:24.999Z</time></trkpt><trkpt lat="45.00156139971799" lon="9.37748900134355"><ele>218.0</ele><time>2026-04-23T09:45:25.999Z</time></trkpt><trkpt lat="45.0014317297308" lon="9.377437153277366"><ele>218.0</ele><time>2026-04-23T09:45:26.999Z</time></trkpt><trkpt lat="45.00131920563107" lon="9.377380846785336"><ele>218.0</ele><time>2026-04-23T09:45:27.999Z</time></trkpt><trkpt lat="45.00121809872597" lon="9.377337800397399"><ele>218.0</ele><time>2026-04-23T09:45:28.999Z</time></trkpt><trkpt lat="45.00110627548225" lon="9.377281036382788"><ele>218.0</ele><time>2026-04-23T09:45:29.999Z</time></trkpt><trkpt lat="45.00098133884572" lon="9.37723152752705"><ele>218.0</ele><time>2026-04-23T09:45:30.999Z</time></trkpt><trkpt lat="45.000877852239604" lon="9.377179841345285"><ele>218.0</ele><time>2026-04-23T09:45:31.999Z</time></trkpt><trkpt lat="45.000788517510486" lon="9.377146434054334"><ele>218.0</ele><time>2026-04-23T09:45:32.999Z</time></trkpt><trkpt lat="45.0007058674989" lon="9.377131105016833"><ele>218.0</ele><time>2026-04-23T09:45:33.999Z</time></trkpt><trkpt lat="45.00061334376734" lon="9.37705951327945"><ele>217.50000000000003</ele><time>2026-04-23T09:45:34.999Z</time></trkpt><trkpt lat="45.00052839163215" lon="9.377018797775582"><ele>217.0</ele><time>2026-04-23T09:45:35.999Z</time></trkpt><trkpt lat="45.00045225019698" lon="9.376978485280004"><ele>216.5</ele><time>2026-04-23T09:45:36.999Z</time></trkpt><trkpt lat="45.000380645779586" lon="9.376920931490947"><ele>216.0</ele><time>2026-04-23T09:45:37.999Z</time></trkpt><trkpt lat="45.00028531308155" lon="9.376894500163193"><ele>215.50000000000003</ele><time>2026-04-23T09:45:38.999Z</time></trkpt><trkpt lat="45.000204004857565" lon="9.37686808546882"><ele>215.0</ele><time>2026-04-23T09:45:39.999Z</time></trkpt><trkpt lat="45.00012098833946" lon="9.376830765389565"><ele>215.00000000000003</ele><time>2026-04-23T09:45:40.999Z</time></trkpt><trkpt lat="45.00004115713934" lon="9.37681149876074"><ele>215.0</ele><time>2026-04-23T09:45:41.999Z</time></trkpt><trkpt lat="44.99995436572262" lon="9.376799493000895"><ele>215.0</ele><time>2026-04-23T09:45:42.999Z</time></trkpt><trkpt lat="44.99987223459006" lon="9.376800576593126"><ele>215.0</ele><time>2026-04-23T09:45:43.999Z</time></trkpt><trkpt lat="44.99978851090782" lon="9.376806169508638"><ele>215.00000000000003</ele><time>2026-04-23T09:45:44.999Z</time></trkpt><trkpt lat="44.999710250834404" lon="9.376820503873162"><ele>215.0</ele><time>2026-04-23T09:45:45.999Z</time></trkpt><trkpt lat="44.999616592809936" lon="9.376844070064083"><ele>215.00000000000003</ele><time>2026-04-23T09:45:47.999Z</time></trkpt><trkpt lat="44.99955187018899" lon="9.376815325616727"><ele>215.0</ele><time>2026-04-23T09:45:55.999Z</time></trkpt><trkpt lat="44.99953345396928" lon="9.37669458097244"><ele>215.0</ele><time>2026-04-23T09:45:57.999Z</time></trkpt><trkpt lat="44.99950984723244" lon="9.376597805275852"><ele>215.0</ele><time>2026-04-23T09:45:59.999Z</time></trkpt><trkpt lat="44.99953444087549" lon="9.3765045924761"><ele>215.00000000000003</ele><time>2026-04-23T09:46:02.999Z</time></trkpt><trkpt lat="44.999543025433205" lon="9.37639973164612"><ele>215.0</ele><time>2026-04-23T09:46:05.999Z</time></trkpt><trkpt lat="44.99949271941045" lon="9.376497033920078"><ele>215.00000000000003</ele><time>2026-04-23T09:46:10.999Z</time></trkpt><trkpt lat="44.9995222716067" lon="9.376655238779344"><ele>215.0</ele><time>2026-04-23T09:46:12.999Z</time></trkpt><trkpt lat="44.99954872679675" lon="9.376768632038857"><ele>215.0</ele><time>2026-04-23T09:46:13.999Z</time></trkpt><trkpt lat="44.99957819483112" lon="9.37688325504093"><ele>215.0</ele><time>2026-04-23T09:46:14.999Z</time></trkpt><trkpt lat="44.99959440710039" lon="9.376983774145112"><ele>215.00000000000003</ele><time>2026-04-23T09:46:15.999Z</time></trkpt><trkpt lat="44.99958874221823" lon="9.377097925983513"><ele>215.0</ele><time>2026-04-23T09:46:16.999Z</time></trkpt><trkpt lat="44.999586377042434" lon="9.377222908920233"><ele>215.8</ele><time>2026-04-23T09:46:17.999Z</time></trkpt><trkpt lat="44.99959192111073" lon="9.377353767450597"><ele>216.6</ele><time>2026-04-23T09:46:18.999Z</time></trkpt><trkpt lat="44.99959291580905" lon="9.377498350780739"><ele>217.39999999999998</ele><time>2026-04-23T09:46:19.999Z</time></trkpt><trkpt lat="44.999580689796545" lon="9.377670276927152"><ele>218.2</ele><time>2026-04-23T09:46:20.999Z</time></trkpt><trkpt lat="44.99956741815795" lon="9.377841085132662"><ele>219.0</ele><time>2026-04-23T09:46:21.999Z</time></trkpt><trkpt lat="44.999560679658565" lon="9.378000899394538"><ele>220.79999999999998</ele><time>2026-04-23T09:46:22.999Z</time></trkpt><trkpt lat="44.99955400338015" lon="9.378160566391788"><ele>222.59999999999997</ele><time>2026-04-23T09:46:23.999Z</time></trkpt><trkpt lat="44.99955009502622" lon="9.378318703035934"><ele>224.4</ele><time>2026-04-23T09:46:24.999Z</time></trkpt><trkpt lat="44.999541001905094" lon="9.378475644890493"><ele>226.2</ele><time>2026-04-23T09:46:25.999Z</time></trkpt><trkpt lat="44.999537305587914" lon="9.378622405967933"><ele>228.0</ele><time>2026-04-23T09:46:27Z</time></trkpt><trkpt lat="44.999539354384" lon="9.378767901855483"><ele>230.0</ele><time>2026-04-23T09:46:28Z</time></trkpt><trkpt lat="44.99952947668049" lon="9.378929918236942"><ele>232.0</ele><time>2026-04-23T09:46:29Z</time></trkpt><trkpt lat="44.99952434862648" lon="9.379093562825194"><ele>234.0</ele><time>2026-04-23T09:46:30Z</time></trkpt><trkpt lat="44.99952369533727" lon="9.379242769797637"><ele>236.0</ele><time>2026-04-23T09:46:31Z</time></trkpt><trkpt lat="44.999529177323595" lon="9.379397598230952"><ele>238.0</ele><time>2026-04-23T09:46:32Z</time></trkpt><trkpt lat="44.99952955675751" lon="9.379554325054832"><ele>239.75</ele><time>2026-04-23T09:46:33Z</time></trkpt><trkpt lat="44.999527373316496" lon="9.379711941985414"><ele>241.5</ele><time>2026-04-23T09:46:34Z</time></trkpt><trkpt lat="44.99952890374596" lon="9.379867534179825"><ele>243.25</ele><time>2026-04-23T09:46:35Z</time></trkpt><trkpt lat="44.999536090908656" lon="9.380022473628973"><ele>245.0</ele><time>2026-04-23T09:46:36Z</time></trkpt><trkpt lat="44.999550685315526" lon="9.380208917697747"><ele>245.0</ele><time>2026-04-23T09:46:37Z</time></trkpt><trkpt lat="44.999575810851624" lon="9.38042349787609"><ele>245.0</ele><time>2026-04-23T09:46:38Z</time></trkpt><trkpt lat="44.999595379353586" lon="9.38061013959189"><ele>245.0</ele><time>2026-04-23T09:46:39Z</time></trkpt><trkpt lat="44.99960829037056" lon="9.380764341298773"><ele>245.0</ele><time>2026-04-23T09:46:40Z</time></trkpt><trkpt lat="44.99961360354036" lon="9.380906429248459"><ele>246.25</ele><time>2026-04-23T09:46:41Z</time></trkpt><trkpt lat="44.99961903209265" lon="9.38107286884874"><ele>247.5</ele><time>2026-04-23T09:46:42Z</time></trkpt><trkpt lat="44.99962332220739" lon="9.381243780968319"><ele>248.75</ele><time>2026-04-23T09:46:43Z</time></trkpt><trkpt lat="44.999623482935526" lon="9.381398963764264"><ele>250.0</ele><time>2026-04-23T09:46:44Z</time></trkpt><trkpt lat="44.999621938484175" lon="9.38154977227598"><ele>251.83333333333331</ele><time>2026-04-23T09:46:45Z</time></trkpt><trkpt lat="44.99962020767008" lon="9.381683644862953"><ele>253.66666666666666</ele><time>2026-04-23T09:46:46Z</time></trkpt><trkpt lat="44.99960962977916" lon="9.381794711443995"><ele>255.5</ele><time>2026-04-23T09:46:47Z</time></trkpt><trkpt lat="44.99959736873929" lon="9.38188883340248"><ele>257.3333333333333</ele><time>2026-04-23T09:46:49Z</time></trkpt><trkpt lat="44.99950407501512" lon="9.381923924834169"><ele>259.1666666666667</ele><time>2026-04-23T09:46:52Z</time></trkpt><trkpt lat="44.99943110668173" lon="9.381899820325975"><ele>261.0</ele><time>2026-04-23T09:46:53Z</time></trkpt><trkpt lat="44.999340395939" lon="9.381873359512088"><ele>261.0</ele><time>2026-04-23T09:46:54Z</time></trkpt><trkpt lat="44.99926558788276" lon="9.381854752626097"><ele>261.0</ele><time>2026-04-23T09:46:55Z</time></trkpt><trkpt lat="44.99917364745382" lon="9.381834341646483"><ele>261.0</ele><time>2026-04-23T09:46:56Z</time></trkpt><trkpt lat="44.999075908052184" lon="9.381819910426644"><ele>261.0</ele><time>2026-04-23T09:46:57Z</time></trkpt><trkpt lat="44.99896949902206" lon="9.38182226524332"><ele>261.0</ele><time>2026-04-23T09:46:58Z</time></trkpt><trkpt lat="44.99887441445272" lon="9.38183641539912"><ele>261.0</ele><time>2026-04-23T09:46:59Z</time></trkpt><trkpt lat="44.99878368867601" lon="9.381843118616752"><ele>261.0</ele><time>2026-04-23T09:47:00Z</time></trkpt><trkpt lat="44.9986982795496" lon="9.381840976872205"><ele>261.0</ele><time>2026-04-23T09:47:01Z</time></trkpt><trkpt lat="44.99861993159589" lon="9.381833332734018"><ele>261.0</ele><time>2026-04-23T09:47:02Z</time></trkpt><trkpt lat="44.99854374316591" lon="9.38182450606526"><ele>261.0</ele><time>2026-04-23T09:47:03Z</time></trkpt><trkpt lat="44.998470057232154" lon="9.381804203481016"><ele>261.0</ele><time>2026-04-23T09:47:04Z</time></trkpt><trkpt lat="44.99835651580288" lon="9.381742069749304"><ele>261.0</ele><time>2026-04-23T09:47:06Z</time></trkpt><trkpt lat="44.99825479605555" lon="9.381666421045372"><ele>261.0</ele><time>2026-04-23T09:47:08Z</time></trkpt><trkpt lat="44.998170930914455" lon="9.3816123683387"><ele>261.0</ele><time>2026-04-23T09:47:10Z</time></trkpt><trkpt lat="44.99811237389214" lon="9.381540250187145"><ele>261.0</ele><time>2026-04-23T09:47:12Z</time></trkpt><trkpt lat="44.998096481101776" lon="9.381639812662657"><ele>261.0</ele><time>2026-04-23T09:47:16Z</time></trkpt><trkpt lat="44.998192015971114" lon="9.381673668149414"><ele>261.0</ele><time>2026-04-23T09:47:18.999Z</time></trkpt><trkpt lat="44.99827587455182" lon="9.381685871306171"><ele>261.0</ele><time>2026-04-23T09:47:20.999Z</time></trkpt><trkpt lat="44.998360621795776" lon="9.381735860478162"><ele>261.0</ele><time>2026-04-23T09:47:22.999Z</time></trkpt><trkpt lat="44.998452422449304" lon="9.38179109244291"><ele>261.0</ele><time>2026-04-23T09:47:24.999Z</time></trkpt><trkpt lat="44.99856067095459" lon="9.381825107284728"><ele>261.0</ele><time>2026-04-23T09:47:26.999Z</time></trkpt><trkpt lat="44.99868420577798" lon="9.381833908284445"><ele>261.0</ele><time>2026-04-23T09:47:28.999Z</time></trkpt><trkpt lat="44.99875300100753" lon="9.381834305336646"><ele>261.0</ele><time>2026-04-23T09:47:29.999Z</time></trkpt><trkpt lat="44.99882519770906" lon="9.381835397552505"><ele>261.0</ele><time>2026-04-23T09:47:30.999Z</time></trkpt><trkpt lat="44.99890434099226" lon="9.381831342500883"><ele>261.0</ele><time>2026-04-23T09:47:31.999Z</time></trkpt><trkpt lat="44.99898306334438" lon="9.381831334428378"><ele>261.0</ele><time>2026-04-23T09:47:32.999Z</time></trkpt><trkpt lat="44.999059362273705" lon="9.38180373824004"><ele>261.0</ele><time>2026-04-23T09:47:33.999Z</time></trkpt><trkpt lat="44.99915063352635" lon="9.381751215742346"><ele>261.0</ele><time>2026-04-23T09:47:34.999Z</time></trkpt><trkpt lat="44.999218446464795" lon="9.381839159158199"><ele>261.0</ele><time>2026-04-23T09:47:35.999Z</time></trkpt><trkpt lat="44.99929545127806" lon="9.381867077578265"><ele>261.0</ele><time>2026-04-23T09:47:36.999Z</time></trkpt><trkpt lat="44.99937175399356" lon="9.381920858321124"><ele>261.0</ele><time>2026-04-23T09:47:37.999Z</time></trkpt><trkpt lat="44.99943284379333" lon="9.381853091090262"><ele>261.0</ele><time>2026-04-23T09:47:38.999Z</time></trkpt><trkpt lat="44.999504298281316" lon="9.381867549511215"><ele>261.0</ele><time>2026-04-23T09:47:39.999Z</time></trkpt><trkpt lat="44.999602953232426" lon="9.381885360404391"><ele>261.0</ele><time>2026-04-23T09:47:41.999Z</time></trkpt><trkpt lat="44.999648876866985" lon="9.381769396544259"><ele>261.0</ele><time>2026-04-23T09:47:45.999Z</time></trkpt><trkpt lat="44.99963577711155" lon="9.381588653567421"><ele>261.0</ele><time>2026-04-23T09:47:47.999Z</time></trkpt><trkpt lat="44.999633496849995" lon="9.381473024496291"><ele>261.0</ele><time>2026-04-23T09:47:49.999Z</time></trkpt><trkpt lat="44.9996273710085" lon="9.381371864200974"><ele>261.0</ele><time>2026-04-23T09:47:51.999Z</time></trkpt><trkpt lat="44.99962936952204" lon="9.38118578473018"><ele>259.1666666666667</ele><time>2026-04-23T09:47:53.999Z</time></trkpt><trkpt lat="44.99962582911568" lon="9.38106117307989"><ele>257.3333333333333</ele><time>2026-04-23T09:47:54.999Z</time></trkpt><trkpt lat="44.999623087495856" lon="9.380935415213585"><ele>255.5</ele><time>2026-04-23T09:47:55.999Z</time></trkpt><trkpt lat="44.99961994864269" lon="9.380813675101805"><ele>253.66666666666666</ele><time>2026-04-23T09:47:56.999Z</time></trkpt><trkpt lat="44.99961443753265" lon="9.380692111119982"><ele>251.83333333333331</ele><time>2026-04-23T09:47:57.999Z</time></trkpt><trkpt lat="44.99960686546004" lon="9.38057002394155"><ele>250.0</ele><time>2026-04-23T09:47:58.999Z</time></trkpt><trkpt lat="44.999594628749605" lon="9.380444507460297"><ele>249.16666666666666</ele><time>2026-04-23T09:47:59.999Z</time></trkpt><trkpt lat="44.99957871521202" lon="9.380325512828458"><ele>248.33333333333331</ele><time>2026-04-23T09:48:00.999Z</time></trkpt><trkpt lat="44.99955970237681" lon="9.380215271490842"><ele>247.5</ele><time>2026-04-23T09:48:01.999Z</time></trkpt><trkpt lat="44.99954490331686" lon="9.380107823762948"><ele>246.66666666666669</ele><time>2026-04-23T09:48:02.999Z</time></trkpt><trkpt lat="44.99953964910992" lon="9.380015021020602"><ele>245.83333333333334</ele><time>2026-04-23T09:48:03.999Z</time></trkpt><trkpt lat="44.99953296262204" lon="9.379925680872875"><ele>245.0</ele><time>2026-04-23T09:48:04.999Z</time></trkpt><trkpt lat="44.99952860888083" lon="9.379763152497853"><ele>243.6</ele><time>2026-04-23T09:48:06.999Z</time></trkpt><trkpt lat="44.9995322475776" lon="9.379591724424246"><ele>242.2</ele><time>2026-04-23T09:48:08.999Z</time></trkpt><trkpt lat="44.99953702231271" lon="9.379438384478982"><ele>240.8</ele><time>2026-04-23T09:48:10.999Z</time></trkpt><trkpt lat="44.99953639399447" lon="9.379274462093523"><ele>239.4</ele><time>2026-04-23T09:48:12.999Z</time></trkpt><trkpt lat="44.99953769570866" lon="9.379182550651196"><ele>238.0</ele><time>2026-04-23T09:48:13.999Z</time></trkpt><trkpt lat="44.9995360214622" lon="9.37908429511622"><ele>238.0</ele><time>2026-04-23T09:48:14.999Z</time></trkpt><trkpt lat="44.99953858661574" lon="9.378960311640105"><ele>238.0</ele><time>2026-04-23T09:48:15.999Z</time></trkpt><trkpt lat="44.99954304049121" lon="9.378822764846014"><ele>238.0</ele><time>2026-04-23T09:48:16.999Z</time></trkpt><trkpt lat="44.99954485877713" lon="9.378688481047215"><ele>238.0</ele><time>2026-04-23T09:48:17.999Z</time></trkpt><trkpt lat="44.99954889703578" lon="9.378568674697663"><ele>238.0</ele><time>2026-04-23T09:48:18.999Z</time></trkpt><trkpt lat="44.99955395555872" lon="9.378449069736368"><ele>236.33333333333331</ele><time>2026-04-23T09:48:19.999Z</time></trkpt><trkpt lat="44.99955708576217" lon="9.37835230614565"><ele>234.66666666666666</ele><time>2026-04-23T09:48:20.999Z</time></trkpt><trkpt lat="44.99956104406884" lon="9.378183783657244"><ele>233.0</ele><time>2026-04-23T09:48:22.999Z</time></trkpt><trkpt lat="44.999569769628366" lon="9.378092414449545"><ele>231.33333333333331</ele><time>2026-04-23T09:48:23.999Z</time></trkpt><trkpt lat="44.999577816846745" lon="9.377987009504901"><ele>229.66666666666666</ele><time>2026-04-23T09:48:24.999Z</time></trkpt><trkpt lat="44.99958262390098" lon="9.377886531598007"><ele>228.0</ele><time>2026-04-23T09:48:25.999Z</time></trkpt><trkpt lat="44.9995844302967" lon="9.377786236465505"><ele>226.5</ele><time>2026-04-23T09:48:26.999Z</time></trkpt><trkpt lat="44.99958397546304" lon="9.377684685096881"><ele>225.0</ele><time>2026-04-23T09:48:27.998Z</time></trkpt><trkpt lat="44.999587426234854" lon="9.377568635568384"><ele>223.5</ele><time>2026-04-23T09:48:28.998Z</time></trkpt><trkpt lat="44.99958370933967" lon="9.37747090557093"><ele>222.0</ele><time>2026-04-23T09:48:29.998Z</time></trkpt><trkpt lat="44.999585897992304" lon="9.377375692888457"><ele>220.5</ele><time>2026-04-23T09:48:30.998Z</time></trkpt><trkpt lat="44.999593944359844" lon="9.377198450618536"><ele>219.0</ele><time>2026-04-23T09:48:33Z</time></trkpt><trkpt lat="44.999592595195764" lon="9.377050759291905"><ele>218.2</ele><time>2026-04-23T09:48:35Z</time></trkpt><trkpt lat="44.99957262668593" lon="9.376940951607436"><ele>217.39999999999998</ele><time>2026-04-23T09:48:37Z</time></trkpt><trkpt lat="44.99960833778873" lon="9.376849712764797"><ele>216.6</ele><time>2026-04-23T09:48:39Z</time></trkpt><trkpt lat="44.99974346490475" lon="9.376803534940095"><ele>215.8</ele><time>2026-04-23T09:48:41Z</time></trkpt><trkpt lat="44.999815748607816" lon="9.376799244682246"><ele>215.0</ele><time>2026-04-23T09:48:42Z</time></trkpt><trkpt lat="44.999903545554474" lon="9.376802675331719"><ele>215.00000000000003</ele><time>2026-04-23T09:48:43Z</time></trkpt><trkpt lat="44.99997261936073" lon="9.376808670259113"><ele>215.0</ele><time>2026-04-23T09:48:44Z</time></trkpt><trkpt lat="45.000038930414206" lon="9.376818432988127"><ele>215.0</ele><time>2026-04-23T09:48:45Z</time></trkpt><trkpt lat="45.00010861453115" lon="9.376830239985496"><ele>215.0</ele><time>2026-04-23T09:48:46Z</time></trkpt><trkpt lat="45.000191671401794" lon="9.376855026107085"><ele>215.00000000000003</ele><time>2026-04-23T09:48:47Z</time></trkpt><trkpt lat="45.0002877229677" lon="9.376901676110121"><ele>215.0</ele><time>2026-04-23T09:48:48Z</time></trkpt><trkpt lat="45.00037839161303" lon="9.376942395313566"><ele>215.0</ele><time>2026-04-23T09:48:49Z</time></trkpt><trkpt lat="45.00046548530619" lon="9.376985954363747"><ele>215.0</ele><time>2026-04-23T09:48:50Z</time></trkpt><trkpt lat="45.00056619267534" lon="9.377037604634959"><ele>215.0</ele><time>2026-04-23T09:48:51Z</time></trkpt><trkpt lat="45.00066182087772" lon="9.377085346240701"><ele>215.0</ele><time>2026-04-23T09:48:52Z</time></trkpt><trkpt lat="45.00073558147716" lon="9.377113458191626"><ele>215.0</ele><time>2026-04-23T09:48:53Z</time></trkpt><trkpt lat="45.0008088597227" lon="9.377145372285305"><ele>215.42857142857142</ele><time>2026-04-23T09:48:54Z</time></trkpt><trkpt lat="45.00088368616309" lon="9.377182723741184"><ele>215.85714285714286</ele><time>2026-04-23T09:48:55Z</time></trkpt><trkpt lat="45.0009556596643" lon="9.377191833298387"><ele>216.28571428571428</ele><time>2026-04-23T09:48:56Z</time></trkpt><trkpt lat="45.001047442214045" lon="9.377203179766589"><ele>216.71428571428572</ele><time>2026-04-23T09:48:57Z</time></trkpt><trkpt lat="45.00109569759699" lon="9.377266865855853"><ele>217.14285714285717</ele><time>2026-04-23T09:48:58Z</time></trkpt><trkpt lat="45.00116215076364" lon="9.377295828876496"><ele>217.57142857142858</ele><time>2026-04-23T09:48:59Z</time></trkpt><trkpt lat="45.00122310203145" lon="9.377329026717462"><ele>218.0</ele><time>2026-04-23T09:49:00Z</time></trkpt><trkpt lat="45.00133853042242" lon="9.377383149847315"><ele>218.00000000000003</ele><time>2026-04-23T09:49:02Z</time></trkpt><trkpt lat="45.0014145654413" lon="9.377417430976827"><ele>218.0</ele><time>2026-04-23T09:49:03Z</time></trkpt><trkpt lat="45.001504118291116" lon="9.377462936309982"><ele>218.0</ele><time>2026-04-23T09:49:04Z</time></trkpt><trkpt lat="45.001588703676155" lon="9.377507237940437"><ele>218.0</ele><time>2026-04-23T09:49:05Z</time></trkpt><trkpt lat="45.00166027723107" lon="9.377541926505106"><ele>218.00000000000003</ele><time>2026-04-23T09:49:06Z</time></trkpt><trkpt lat="45.00173019485085" lon="9.377567031408365"><ele>218.0</ele><time>2026-04-23T09:49:07Z</time></trkpt><trkpt lat="45.00179872207295" lon="9.377601232908418"><ele>217.50000000000003</ele><time>2026-04-23T09:49:08Z</time></trkpt><trkpt lat="45.00186086077367" lon="9.377634438193652"><ele>217.0</ele><time>2026-04-23T09:49:09Z</time></trkpt><trkpt lat="45.00192523730591" lon="9.377661687993063"><ele>216.5</ele><time>2026-04-23T09:49:10Z</time></trkpt><trkpt lat="45.0019908888713" lon="9.377691704083611"><ele>216.0</ele><time>2026-04-23T09:49:11Z</time></trkpt><trkpt lat="45.00205336642359" lon="9.377713774766148"><ele>215.50000000000003</ele><time>2026-04-23T09:49:12Z</time></trkpt><trkpt lat="45.00214742583326" lon="9.377829037064101"><ele>215.0</ele><time>2026-04-23T09:49:14Z</time></trkpt><trkpt lat="45.00220541345144" lon="9.377934070543008"><ele>216.4</ele><time>2026-04-23T09:49:15Z</time></trkpt><trkpt lat="45.00228208286099" lon="9.378045812498373"><ele>217.8</ele><time>2026-04-23T09:49:16Z</time></trkpt><trkpt lat="45.002345896017204" lon="9.378127467955721"><ele>219.2</ele><time>2026-04-23T09:49:17Z</time></trkpt><trkpt lat="45.00240954637269" lon="9.378224662558551"><ele>220.6</ele><time>2026-04-23T09:49:19Z</time></trkpt><trkpt lat="45.00241649091775" lon="9.378402140037979"><ele>222.0</ele><time>2026-04-23T09:49:21Z</time></trkpt><trkpt lat="45.00237481298976" lon="9.378556564894371"><ele>222.0</ele><time>2026-04-23T09:49:22Z</time></trkpt><trkpt lat="45.00235351421643" lon="9.378731534934095"><ele>222.0</ele><time>2026-04-23T09:49:23Z</time></trkpt><trkpt lat="45.00232609761011" lon="9.378899928648503"><ele>222.0</ele><time>2026-04-23T09:49:24Z</time></trkpt><trkpt lat="45.002297060458716" lon="9.37908894881893"><ele>222.0</ele><time>2026-04-23T09:49:24.999Z</time></trkpt><trkpt lat="45.00227595800225" lon="9.379275110142135"><ele>223.0</ele><time>2026-04-23T09:49:25.999Z</time></trkpt><trkpt lat="45.00226446465783" lon="9.379433169165178"><ele>224.0</ele><time>2026-04-23T09:49:26.999Z</time></trkpt><trkpt lat="45.002252994346456" lon="9.37956889058314"><ele>225.0</ele><time>2026-04-23T09:49:27.999Z</time></trkpt><trkpt lat="45.002233709348765" lon="9.379695482348808"><ele>226.0</ele><time>2026-04-23T09:49:28.999Z</time></trkpt><trkpt lat="45.00221364202174" lon="9.379811787638426"><ele>227.0</ele><time>2026-04-23T09:49:29.999Z</time></trkpt><trkpt lat="45.00217500274046" lon="9.379934712367044"><ele>228.2</ele><time>2026-04-23T09:49:30.999Z</time></trkpt><trkpt lat="45.0021401171577" lon="9.38007857909101"><ele>229.39999999999998</ele><time>2026-04-23T09:49:31.999Z</time></trkpt><trkpt lat="45.00211337876039" lon="9.38022738912101"><ele>230.60000000000002</ele><time>2026-04-23T09:49:32.999Z</time></trkpt><trkpt lat="45.002078324741625" lon="9.380378041480391"><ele>231.8</ele><time>2026-04-23T09:49:33.999Z</time></trkpt><trkpt lat="45.0020417622913" lon="9.380536739259242"><ele>233.0</ele><time>2026-04-23T09:49:34.999Z</time></trkpt><trkpt lat="45.00200947565587" lon="9.38071690565727"><ele>234.50000000000003</ele><time>2026-04-23T09:49:35.999Z</time></trkpt><trkpt lat="45.001980961409075" lon="9.380862229152438"><ele>236.0</ele><time>2026-04-23T09:49:36.999Z</time></trkpt><trkpt lat="45.00194674908645" lon="9.380960241122777"><ele>237.5</ele><time>2026-04-23T09:49:37.999Z</time></trkpt><trkpt lat="45.00191520349959" lon="9.38104087635608"><ele>239.0</ele><time>2026-04-23T09:49:38.999Z</time></trkpt><trkpt lat="45.001863044629346" lon="9.381165466504488"><ele>240.50000000000003</ele><time>2026-04-23T09:49:40.999Z</time></trkpt><trkpt lat="45.00185251790636" lon="9.381263446954119"><ele>242.0</ele><time>2026-04-23T09:49:41.999Z</time></trkpt><trkpt lat="45.001827422698014" lon="9.381382696066307"><ele>242.00000000000003</ele><time>2026-04-23T09:49:43.999Z</time></trkpt><trkpt lat="45.001917719206716" lon="9.38137169558847"><ele>242.0</ele><time>2026-04-23T09:49:49.999Z</time></trkpt><trkpt lat="45.001956188628974" lon="9.38130036646355"><ele>242.0</ele><time>2026-04-23T09:49:51.999Z</time></trkpt><trkpt lat="45.00190295732496" lon="9.381196939377176"><ele>242.0</ele><time>2026-04-23T09:49:54.999Z</time></trkpt><trkpt lat="45.00189497375899" lon="9.38106664290326"><ele>242.00000000000003</ele><time>2026-04-23T09:49:57.999Z</time></trkpt><trkpt lat="45.00194997878219" lon="9.380931055757177"><ele>242.0</ele><time>2026-04-23T09:49:59.999Z</time></trkpt><trkpt lat="45.001985022500136" lon="9.380765106853381"><ele>242.0</ele><time>2026-04-23T09:50:01.999Z</time></trkpt><trkpt lat="45.002024256607264" lon="9.380597844455442"><ele>242.0</ele><time>2026-04-23T09:50:03.999Z</time></trkpt><trkpt lat="45.002043664850966" lon="9.380486501710013"><ele>242.0</ele><time>2026-04-23T09:50:04.999Z</time></trkpt><trkpt lat="45.00207004091509" lon="9.38036971070345"><ele>242.0</ele><time>2026-04-23T09:50:05.999Z</time></trkpt><trkpt lat="45.0020982105147" lon="9.380257888984016"><ele>242.0</ele><time>2026-04-23T09:50:06.999Z</time></trkpt><trkpt lat="45.00212518582991" lon="9.380146765827083"><ele>240.50000000000003</ele><time>2026-04-23T09:50:07.999Z</time></trkpt><trkpt lat="45.00214556837011" lon="9.380029257617537"><ele>239.0</ele><time>2026-04-23T09:50:08.999Z</time></trkpt><trkpt lat="45.00216948593834" lon="9.379913067954393"><ele>237.5</ele><time>2026-04-23T09:50:09.999Z</time></trkpt><trkpt lat="45.00220358156065" lon="9.379809612681777"><ele>236.0</ele><time>2026-04-23T09:50:10.999Z</time></trkpt><trkpt lat="45.00223553134438" lon="9.379721489882158"><ele>234.50000000000003</ele><time>2026-04-23T09:50:11.999Z</time></trkpt><trkpt lat="45.00225580463636" lon="9.37962233061219"><ele>233.0</ele><time>2026-04-23T09:50:12.999Z</time></trkpt><trkpt lat="45.002282386485696" lon="9.379446888108452"><ele>232.00000000000003</ele><time>2026-04-23T09:50:14.999Z</time></trkpt><trkpt lat="45.00228814719157" lon="9.379333293927534"><ele>231.0</ele><time>2026-04-23T09:50:15.999Z</time></trkpt><trkpt lat="45.00229248815452" lon="9.379228210895658"><ele>230.0</ele><time>2026-04-23T09:50:16.999Z</time></trkpt><trkpt lat="45.00229811391331" lon="9.379127642694051"><ele>229.0</ele><time>2026-04-23T09:50:17.999Z</time></trkpt><trkpt lat="45.00231048541213" lon="9.379015748569863"><ele>228.00000000000003</ele><time>2026-04-23T09:50:18.999Z</time></trkpt><trkpt lat="45.00232674705694" lon="9.378898787396382"><ele>227.0</ele><time>2026-04-23T09:50:19.999Z</time></trkpt><trkpt lat="45.00233715998817" lon="9.378794611147034"><ele>226.16666666666669</ele><time>2026-04-23T09:50:20.999Z</time></trkpt><trkpt lat="45.00235073582766" lon="9.378705299391568"><ele>225.33333333333334</ele><time>2026-04-23T09:50:21.999Z</time></trkpt><trkpt lat="45.00236430211373" lon="9.378616424478063"><ele>224.5</ele><time>2026-04-23T09:50:22.999Z</time></trkpt><trkpt lat="45.00238479022701" lon="9.37845842928579"><ele>223.66666666666669</ele><time>2026-04-23T09:50:24.999Z</time></trkpt><trkpt lat="45.00240344386093" lon="9.378320016592514"><ele>222.83333333333334</ele><time>2026-04-23T09:50:26.999Z</time></trkpt><trkpt lat="45.00240348403765" lon="9.3782103837887"><ele>222.0</ele><time>2026-04-23T09:50:28.999Z</time></trkpt><trkpt lat="45.00232145241924" lon="9.37810664245991"><ele>220.6</ele><time>2026-04-23T09:50:31.998Z</time></trkpt><trkpt lat="45.00223570972739" lon="9.377974149950262"><ele>219.2</ele><time>2026-04-23T09:50:33.998Z</time></trkpt><trkpt lat="45.0021671094643" lon="9.377879139895072"><ele>217.8</ele><time>2026-04-23T09:50:35.998Z</time></trkpt><trkpt lat="45.00212224533454" lon="9.377801745588547"><ele>216.4</ele><time>2026-04-23T09:50:37.998Z</time></trkpt><trkpt lat="45.00207720051505" lon="9.377727726179836"><ele>215.0</ele><time>2026-04-23T09:50:41Z</time></trkpt><trkpt lat="45.001969102752824" lon="9.377679079208471"><ele>215.0</ele><time>2026-04-23T09:50:43Z</time></trkpt><trkpt lat="45.001870545967535" lon="9.377618763365598"><ele>215.0</ele><time>2026-04-23T09:50:44Z</time></trkpt><trkpt lat="45.001735051981484" lon="9.377566415252492"><ele>215.0</ele><time>2026-04-23T09:50:45Z</time></trkpt><trkpt lat="45.00159888127572" lon="9.37751033244224"><ele>215.0</ele><time>2026-04-23T09:50:46Z</time></trkpt><trkpt lat="45.00147042455663" lon="9.377457041028913"><ele>215.6</ele><time>2026-04-23T09:50:47Z</time></trkpt><trkpt lat="45.001364826194234" lon="9.377413481279781"><ele>216.2</ele><time>2026-04-23T09:50:48Z</time></trkpt><trkpt lat="45.001273620827874" lon="9.377370421163628"><ele>216.8</ele><time>2026-04-23T09:50:49Z</time></trkpt><trkpt lat="45.001195673293076" lon="9.377320965140633"><ele>217.4</ele><time>2026-04-23T09:50:50Z</time></trkpt><trkpt lat="45.001087440695684" lon="9.37726162293705"><ele>218.0</ele><time>2026-04-23T09:50:51Z</time></trkpt><trkpt lat="45.00098188543466" lon="9.377210815208478"><ele>217.50000000000003</ele><time>2026-04-23T09:50:52Z</time></trkpt><trkpt lat="45.00087673457971" lon="9.377168281889706"><ele>217.0</ele><time>2026-04-23T09:50:53Z</time></trkpt><trkpt lat="45.00077508694441" lon="9.37712545698329"><ele>216.5</ele><time>2026-04-23T09:50:54Z</time></trkpt><trkpt lat="45.0006950669918" lon="9.377093128851156"><ele>216.0</ele><time>2026-04-23T09:50:55Z</time></trkpt><trkpt lat="45.000624604377016" lon="9.377062103918279"><ele>215.50000000000003</ele><time>2026-04-23T09:50:56Z</time></trkpt><trkpt lat="45.00055998581032" lon="9.377031393572501"><ele>215.0</ele><time>2026-04-23T09:50:57Z</time></trkpt><trkpt lat="45.000492018303305" lon="9.376998759273375"><ele>215.00000000000003</ele><time>2026-04-23T09:50:58Z</time></trkpt><trkpt lat="45.000430099000816" lon="9.376961353903535"><ele>215.0</ele><time>2026-04-23T09:50:59Z</time></trkpt><trkpt lat="45.00036551391787" lon="9.376926652614282"><ele>215.0</ele><time>2026-04-23T09:51:00Z</time></trkpt><trkpt lat="45.000270950400775" lon="9.376892302753497"><ele>215.0</ele><time>2026-04-23T09:51:01Z</time></trkpt><trkpt lat="45.000195260572895" lon="9.376860718607388"><ele>215.00000000000003</ele><time>2026-04-23T09:51:02Z</time></trkpt><trkpt lat="45.000099753786486" lon="9.376838500535163"><ele>215.0</ele><time>2026-04-23T09:51:03Z</time></trkpt><trkpt lat="45.00001117759807" lon="9.376813911290395"><ele>215.00000000000003</ele><time>2026-04-23T09:51:04Z</time></trkpt><trkpt lat="44.99994546774275" lon="9.376801040666743"><ele>215.0</ele><time>2026-04-23T09:51:05Z</time></trkpt><trkpt lat="44.99985788773265" lon="9.376795804715796"><ele>215.0</ele><time>2026-04-23T09:51:07Z</time></trkpt><trkpt lat="44.99978801804532" lon="9.37680412120797"><ele>215.0</ele><time>2026-04-23T09:51:10Z</time></trkpt><trkpt lat="44.99967054501389" lon="9.376826178335177"><ele>215.00000000000003</ele><time>2026-04-23T09:51:12Z</time></trkpt><trkpt lat="44.99958058027533" lon="9.376828711379131"><ele>215.0</ele><time>2026-04-23T09:51:14Z</time></trkpt><trkpt lat="44.999665228148785" lon="9.376847556164813"><ele>215.0</ele><time>2026-04-23T09:51:20Z</time></trkpt><trkpt lat="44.999754455528326" lon="9.376819924279824"><ele>215.0</ele><time>2026-04-23T09:51:21Z</time></trkpt><trkpt lat="44.999832599718395" lon="9.376810658961594"><ele>215.0</ele><time>2026-04-23T09:51:22Z</time></trkpt><trkpt lat="44.99993529540166" lon="9.376795372698274"><ele>215.0</ele><time>2026-04-23T09:51:24Z</time></trkpt><trkpt lat="45.000012869383404" lon="9.376666251378579"><ele>215.0</ele><time>2026-04-23T09:51:25.999Z</time></trkpt><trkpt lat="45.00006022762659" lon="9.376578622460418"><ele>215.0</ele><time>2026-04-23T09:51:26.999Z</time></trkpt><trkpt lat="45.00012196286929" lon="9.376486584025098"><ele>215.0</ele><time>2026-04-23T09:51:27.999Z</time></trkpt><trkpt lat="45.00017851901457" lon="9.376403301265672"><ele>215.0</ele><time>2026-04-23T09:51:28.999Z</time></trkpt><trkpt lat="45.00022109442159" lon="9.376328805374687"><ele>215.0</ele><time>2026-04-23T09:51:29.999Z</time></trkpt><trkpt lat="45.00028268909161" lon="9.37620723015577"><ele>215.0</ele><time>2026-04-23T09:51:31.999Z</time></trkpt><trkpt lat="45.000310316262855" lon="9.376056301412772"><ele>213.8</ele><time>2026-04-23T09:51:33.999Z</time></trkpt><trkpt lat="45.00031564046242" lon="9.375880719005455"><ele>212.6</ele><time>2026-04-23T09:51:35.999Z</time></trkpt><trkpt lat="45.000315413804955" lon="9.375787919533401"><ele>211.39999999999998</ele><time>2026-04-23T09:51:36.999Z</time></trkpt><trkpt lat="45.000298882657646" lon="9.375601312234314"><ele>210.2</ele><time>2026-04-23T09:51:38.999Z</time></trkpt><trkpt lat="45.00030206843126" lon="9.375490025176603"><ele>209.0</ele><time>2026-04-23T09:51:39.999Z</time></trkpt><trkpt lat="45.000318339475385" lon="9.375380468662899"><ele>207.50000000000003</ele><time>2026-04-23T09:51:40.999Z</time></trkpt><trkpt lat="45.000321960882935" lon="9.375278460419748"><ele>206.0</ele><time>2026-04-23T09:51:41.999Z</time></trkpt><trkpt lat="45.00032867276382" lon="9.375110287376845"><ele>204.5</ele><time>2026-04-23T09:51:43.999Z</time></trkpt><trkpt lat="45.00032983613465" lon="9.375012095705658"><ele>203.0</ele><time>2026-04-23T09:51:44.999Z</time></trkpt><trkpt lat="45.000338435903615" lon="9.374902638734948"><ele>201.50000000000003</ele><time>2026-04-23T09:51:45.999Z</time></trkpt><trkpt lat="45.000338138119915" lon="9.374776240400848"><ele>200.0</ele><time>2026-04-23T09:51:46.999Z</time></trkpt><trkpt lat="45.00033776444613" lon="9.374649787937628"><ele>198.4</ele><time>2026-04-23T09:51:47.999Z</time></trkpt><trkpt lat="45.00035600918713" lon="9.374497131594184"><ele>196.8</ele><time>2026-04-23T09:51:48.999Z</time></trkpt><trkpt lat="45.000367044904635" lon="9.374345898384442"><ele>195.2</ele><time>2026-04-23T09:51:49.999Z</time></trkpt><trkpt lat="45.000383507063034" lon="9.374189771127755"><ele>193.6</ele><time>2026-04-23T09:51:50.999Z</time></trkpt><trkpt lat="45.000389013490114" lon="9.374026986633204"><ele>192.0</ele><time>2026-04-23T09:51:51.999Z</time></trkpt><trkpt lat="45.00037836124949" lon="9.373874441398922"><ele>191.0</ele><time>2026-04-23T09:51:52.999Z</time></trkpt><trkpt lat="45.00035750608373" lon="9.373748124959908"><ele>190.0</ele><time>2026-04-23T09:51:53.999Z</time></trkpt><trkpt lat="45.00037545361819" lon="9.373609514783626"><ele>189.0</ele><time>2026-04-23T09:51:54.999Z</time></trkpt><trkpt lat="45.000402842117786" lon="9.37346416998488"><ele>188.0</ele><time>2026-04-23T09:51:55.999Z</time></trkpt><trkpt lat="45.00041321635205" lon="9.373365951262642"><ele>187.0</ele><time>2026-04-23T09:51:56.999Z</time></trkpt><trkpt lat="45.00042228673569" lon="9.373231328334546"><ele>187.0</ele><time>2026-04-23T09:51:58.999Z</time></trkpt><trkpt lat="45.00043697129157" lon="9.373101911296608"><ele>187.0</ele><time>2026-04-23T09:52:00.999Z</time></trkpt><trkpt lat="45.00045134416397" lon="9.372954958416736"><ele>187.0</ele><time>2026-04-23T09:52:02.999Z</time></trkpt><trkpt lat="45.000459181528115" lon="9.372863912014344"><ele>187.0</ele><time>2026-04-23T09:52:03.999Z</time></trkpt><trkpt lat="45.00046353442472" lon="9.372771489331816"><ele>187.0</ele><time>2026-04-23T09:52:04.999Z</time></trkpt><trkpt lat="45.000438825801695" lon="9.372645376727235"><ele>187.0</ele><time>2026-04-23T09:52:05.999Z</time></trkpt><trkpt lat="45.000398660730006" lon="9.372500689599912"><ele>186.0</ele><time>2026-04-23T09:52:06.999Z</time></trkpt><trkpt lat="45.00036486232007" lon="9.372360389380958"><ele>185.0</ele><time>2026-04-23T09:52:07.999Z</time></trkpt><trkpt lat="45.00032471352341" lon="9.372220336457747"><ele>184.0</ele><time>2026-04-23T09:52:08.999Z</time></trkpt><trkpt lat="45.000294546700815" lon="9.372085410228173"><ele>183.0</ele><time>2026-04-23T09:52:09.999Z</time></trkpt><trkpt lat="45.00026595428925" lon="9.371960533107691"><ele>182.0</ele><time>2026-04-23T09:52:10.999Z</time></trkpt><trkpt lat="45.0002445310404" lon="9.371824697095162"><ele>181.2</ele><time>2026-04-23T09:52:11.999Z</time></trkpt><trkpt lat="45.000245163193085" lon="9.371675212602483"><ele>180.39999999999998</ele><time>2026-04-23T09:52:12.999Z</time></trkpt><trkpt lat="45.00025539358972" lon="9.371509795366178"><ele>179.60000000000002</ele><time>2026-04-23T09:52:13.999Z</time></trkpt><trkpt lat="45.00025808002173" lon="9.371370545668224"><ele>178.8</ele><time>2026-04-23T09:52:14.999Z</time></trkpt><trkpt lat="45.000240974523884" lon="9.371276084618716"><ele>178.0</ele><time>2026-04-23T09:52:15.999Z</time></trkpt><trkpt lat="45.00020322128427" lon="9.371201493746385"><ele>178.0</ele><time>2026-04-23T09:52:16.999Z</time></trkpt><trkpt lat="45.00012924325725" lon="9.371123200189208"><ele>178.0</ele><time>2026-04-23T09:52:17.999Z</time></trkpt><trkpt lat="45.000032504624684" lon="9.371059019834782"><ele>178.0</ele><time>2026-04-23T09:52:18.999Z</time></trkpt><trkpt lat="44.999915241532214" lon="9.370996530729393"><ele>178.0</ele><time>2026-04-23T09:52:19.999Z</time></trkpt><trkpt lat="44.99977670373779" lon="9.370917406015295"><ele>178.0</ele><time>2026-04-23T09:52:20.999Z</time></trkpt><trkpt lat="44.99963705656955" lon="9.370823646186"><ele>178.0</ele><time>2026-04-23T09:52:21.999Z</time></trkpt><trkpt lat="44.999504294046226" lon="9.370731884363416"><ele>178.0</ele><time>2026-04-23T09:52:22.999Z</time></trkpt><trkpt lat="44.99936166019622" lon="9.370643529886138"><ele>178.0</ele><time>2026-04-23T09:52:23.999Z</time></trkpt><trkpt lat="44.99920921204999" lon="9.370540165193985"><ele>178.0</ele><time>2026-04-23T09:52:24.999Z</time></trkpt><trkpt lat="44.99905094306696" lon="9.370415292517078"><ele>178.0</ele><time>2026-04-23T09:52:25.999Z</time></trkpt><trkpt lat="44.99889704121491" lon="9.370279865203047"><ele>180.0</ele><time>2026-04-23T09:52:26.999Z</time></trkpt><trkpt lat="44.99875386508932" lon="9.37016265593793"><ele>182.0</ele><time>2026-04-23T09:52:27.999Z</time></trkpt><trkpt lat="44.99860980665005" lon="9.37005541766159"><ele>184.0</ele><time>2026-04-23T09:52:28.999Z</time></trkpt><trkpt lat="44.998468054341124" lon="9.369928619823613"><ele>186.66666666666669</ele><time>2026-04-23T09:52:29.999Z</time></trkpt><trkpt lat="44.99832147327942" lon="9.369770648956397"><ele>189.33333333333334</ele><time>2026-04-23T09:52:30.999Z</time></trkpt><trkpt lat="44.99817852767424" lon="9.369606720395872"><ele>192.0</ele><time>2026-04-23T09:52:31.999Z</time></trkpt><trkpt lat="44.99803343899732" lon="9.369454050894971"><ele>193.0</ele><time>2026-04-23T09:52:32.998Z</time></trkpt><trkpt lat="44.99787298435142" lon="9.369320727093742"><ele>194.0</ele><time>2026-04-23T09:52:33.998Z</time></trkpt><trkpt lat="44.99774715163362" lon="9.369137463025734"><ele>195.0</ele><time>2026-04-23T09:52:34.998Z</time></trkpt><trkpt lat="44.99761393502555" lon="9.369017124049673"><ele>198.33333333333331</ele><time>2026-04-23T09:52:35.998Z</time></trkpt><trkpt lat="44.99746465611952" lon="9.368881249402326"><ele>201.66666666666666</ele><time>2026-04-23T09:52:36.998Z</time></trkpt><trkpt lat="44.99732380694435" lon="9.368753047601874"><ele>205.0</ele><time>2026-04-23T09:52:37.998Z</time></trkpt><trkpt lat="44.997196831459526" lon="9.36864526146918"><ele>205.25</ele><time>2026-04-23T09:52:38.998Z</time></trkpt><trkpt lat="44.99707493143324" lon="9.368577000847244"><ele>205.5</ele><time>2026-04-23T09:52:39.998Z</time></trkpt><trkpt lat="44.996963058811815" lon="9.36853075635162"><ele>205.75</ele><time>2026-04-23T09:52:40.998Z</time></trkpt><trkpt lat="44.99685393756407" lon="9.368545100158817"><ele>206.0</ele><time>2026-04-23T09:52:41.998Z</time></trkpt><trkpt lat="44.9967275388417" lon="9.36855780745508"><ele>207.8</ele><time>2026-04-23T09:52:42.998Z</time></trkpt><trkpt lat="44.99660418306824" lon="9.368529530140734"><ele>209.60000000000002</ele><time>2026-04-23T09:52:43.998Z</time></trkpt><trkpt lat="44.99650072922996" lon="9.368514379225566"><ele>211.4</ele><time>2026-04-23T09:52:45Z</time></trkpt><trkpt lat="44.996413699026284" lon="9.368499967144972"><ele>213.2</ele><time>2026-04-23T09:52:46Z</time></trkpt><trkpt lat="44.99632987356721" lon="9.368486085548147"><ele>215.0</ele><time>2026-04-23T09:52:47Z</time></trkpt><trkpt lat="44.99625262729538" lon="9.368468480431558"><ele>215.0</ele><time>2026-04-23T09:52:48Z</time></trkpt><trkpt lat="44.99617179467476" lon="9.368451504006917"><ele>215.0</ele><time>2026-04-23T09:52:49Z</time></trkpt><trkpt lat="44.9960935272305" lon="9.368431610688885"><ele>215.0</ele><time>2026-04-23T09:52:50Z</time></trkpt><trkpt lat="44.99600623309887" lon="9.3683969476721"><ele>215.0</ele><time>2026-04-23T09:52:51Z</time></trkpt><trkpt lat="44.99591148360438" lon="9.368352457339746"><ele>215.0</ele><time>2026-04-23T09:52:52Z</time></trkpt><trkpt lat="44.99581158733486" lon="9.368319927627372"><ele>217.16666666666669</ele><time>2026-04-23T09:52:53Z</time></trkpt><trkpt lat="44.995728881782135" lon="9.36824357037399"><ele>219.33333333333334</ele><time>2026-04-23T09:52:54Z</time></trkpt><trkpt lat="44.99566092083189" lon="9.36818366317297"><ele>221.5</ele><time>2026-04-23T09:52:55Z</time></trkpt><trkpt lat="44.995594154375254" lon="9.368128347940837"><ele>223.66666666666669</ele><time>2026-04-23T09:52:56Z</time></trkpt><trkpt lat="44.99550493278971" lon="9.368046185385149"><ele>225.83333333333334</ele><time>2026-04-23T09:52:58Z</time></trkpt><trkpt lat="44.995448250922905" lon="9.36796290083409"><ele>228.0</ele><time>2026-04-23T09:53:00Z</time></trkpt><trkpt lat="44.995284172985265" lon="9.367923886454356"><ele>228.33333333333334</ele><time>2026-04-23T09:53:02Z</time></trkpt><trkpt lat="44.99521280011661" lon="9.367902483443919"><ele>228.66666666666669</ele><time>2026-04-23T09:53:03Z</time></trkpt><trkpt lat="44.99512542838604" lon="9.36789775416841"><ele>229.0</ele><time>2026-04-23T09:53:04Z</time></trkpt><trkpt lat="44.99505919563365" lon="9.367857954744087"><ele>229.33333333333334</ele><time>2026-04-23T09:53:05Z</time></trkpt><trkpt lat="44.99496301544534" lon="9.367831577061844"><ele>229.66666666666669</ele><time>2026-04-23T09:53:06Z</time></trkpt><trkpt lat="44.9948758177992" lon="9.367812838331073"><ele>230.0</ele><time>2026-04-23T09:53:07Z</time></trkpt><trkpt lat="44.99477648845094" lon="9.367778288961622"><ele>231.0</ele><time>2026-04-23T09:53:08Z</time></trkpt><trkpt lat="44.99469027531338" lon="9.367717543832082"><ele>232.0</ele><time>2026-04-23T09:53:09Z</time></trkpt><trkpt lat="44.99460176531727" lon="9.367654607794671"><ele>233.0</ele><time>2026-04-23T09:53:10Z</time></trkpt><trkpt lat="44.99451672999509" lon="9.36758640558015"><ele>234.0</ele><time>2026-04-23T09:53:11Z</time></trkpt><trkpt lat="44.99443320727263" lon="9.367524967804945"><ele>235.0</ele><time>2026-04-23T09:53:12Z</time></trkpt><trkpt lat="44.99434471447741" lon="9.367460672639869"><ele>235.0</ele><time>2026-04-23T09:53:13Z</time></trkpt><trkpt lat="44.994234942353174" lon="9.367409443336035"><ele>235.0</ele><time>2026-04-23T09:53:14Z</time></trkpt><trkpt lat="44.99411760873237" lon="9.367405201062942"><ele>235.0</ele><time>2026-04-23T09:53:15Z</time></trkpt><trkpt lat="44.99400825367197" lon="9.367347580278281"><ele>235.0</ele><time>2026-04-23T09:53:16Z</time></trkpt><trkpt lat="44.993897165526654" lon="9.36728168841291"><ele>236.8</ele><time>2026-04-23T09:53:17Z</time></trkpt><trkpt lat="44.99379073031264" lon="9.367273322553562"><ele>238.6</ele><time>2026-04-23T09:53:18Z</time></trkpt><trkpt lat="44.99372532307242" lon="9.367264540553702"><ele>240.39999999999998</ele><time>2026-04-23T09:53:19Z</time></trkpt><trkpt lat="44.99363255708129" lon="9.367254326952137"><ele>242.2</ele><time>2026-04-23T09:53:20Z</time></trkpt><trkpt lat="44.993523399956764" lon="9.367241535568473"><ele>244.0</ele><time>2026-04-23T09:53:21Z</time></trkpt><trkpt lat="44.993423213758305" lon="9.367218569790037"><ele>244.6</ele><time>2026-04-23T09:53:22Z</time></trkpt><trkpt lat="44.99331994336262" lon="9.367183494525124"><ele>245.2</ele><time>2026-04-23T09:53:23Z</time></trkpt><trkpt lat="44.99320622167645" lon="9.367157133305609"><ele>245.79999999999998</ele><time>2026-04-23T09:53:24Z</time></trkpt><trkpt lat="44.99309939640548" lon="9.36712916384259"><ele>246.39999999999998</ele><time>2026-04-23T09:53:25Z</time></trkpt><trkpt lat="44.992987188553016" lon="9.367106791797841"><ele>247.0</ele><time>2026-04-23T09:53:26Z</time></trkpt><trkpt lat="44.99287227907453" lon="9.367083229650628"><ele>247.0</ele><time>2026-04-23T09:53:27Z</time></trkpt><trkpt lat="44.99275688971396" lon="9.36702983857222"><ele>247.0</ele><time>2026-04-23T09:53:28Z</time></trkpt><trkpt lat="44.99262673476694" lon="9.366967195025097"><ele>247.0</ele><time>2026-04-23T09:53:29Z</time></trkpt><trkpt lat="44.99250430918192" lon="9.366901007897864"><ele>247.0</ele><time>2026-04-23T09:53:30Z</time></trkpt><trkpt lat="44.992363042090716" lon="9.366833594997125"><ele>250.0</ele><time>2026-04-23T09:53:31Z</time></trkpt><trkpt lat="44.992199508326436" lon="9.366739001421552"><ele>253.0</ele><time>2026-04-23T09:53:31.999Z</time></trkpt><trkpt lat="44.99204403858419" lon="9.366647207082869"><ele>256.0</ele><time>2026-04-23T09:53:32.999Z</time></trkpt><trkpt lat="44.99188771180643" lon="9.36656382841316"><ele>256.0</ele><time>2026-04-23T09:53:33.999Z</time></trkpt><trkpt lat="44.991734108619916" lon="9.366489594530622"><ele>256.0</ele><time>2026-04-23T09:53:34.999Z</time></trkpt><trkpt lat="44.991592211989996" lon="9.366452803712548"><ele>256.0</ele><time>2026-04-23T09:53:35.999Z</time></trkpt><trkpt lat="44.991451812136354" lon="9.366424071949668"><ele>256.0</ele><time>2026-04-23T09:53:36.999Z</time></trkpt><trkpt lat="44.99129675769402" lon="9.36641144134855"><ele>258.0</ele><time>2026-04-23T09:53:37.999Z</time></trkpt><trkpt lat="44.99113104087609" lon="9.36641340254567"><ele>260.0</ele><time>2026-04-23T09:53:38.999Z</time></trkpt><trkpt lat="44.99096389491589" lon="9.366444773998595"><ele>262.0</ele><time>2026-04-23T09:53:39.999Z</time></trkpt><trkpt lat="44.990795979245114" lon="9.366497549595419"><ele>263.0</ele><time>2026-04-23T09:53:40.999Z</time></trkpt><trkpt lat="44.99063460108171" lon="9.366550186323341"><ele>264.0</ele><time>2026-04-23T09:53:41.999Z</time></trkpt><trkpt lat="44.99048427135085" lon="9.36658552821895"><ele>265.0</ele><time>2026-04-23T09:53:42.999Z</time></trkpt><trkpt lat="44.99035301784599" lon="9.36658505835589"><ele>266.0</ele><time>2026-04-23T09:53:43.999Z</time></trkpt><trkpt lat="44.99020053154159" lon="9.366578293955092"><ele>266.0</ele><time>2026-04-23T09:53:44.999Z</time></trkpt><trkpt lat="44.9900426781396" lon="9.366544881985543"><ele>266.0</ele><time>2026-04-23T09:53:45.999Z</time></trkpt><trkpt lat="44.98991625101546" lon="9.366522063658598"><ele>266.0</ele><time>2026-04-23T09:53:46.999Z</time></trkpt><trkpt lat="44.98981012325013" lon="9.36649244473916"><ele>266.0</ele><time>2026-04-23T09:53:47.999Z</time></trkpt><trkpt lat="44.9897219484386" lon="9.366464420554344"><ele>267.40000000000003</ele><time>2026-04-23T09:53:48.999Z</time></trkpt><trkpt lat="44.9896429076449" lon="9.366453601308116"><ele>268.8</ele><time>2026-04-23T09:53:49.999Z</time></trkpt><trkpt lat="44.98957463790393" lon="9.36643451698985"><ele>270.20000000000005</ele><time>2026-04-23T09:53:50.999Z</time></trkpt><trkpt lat="44.9895074455721" lon="9.366379147215813"><ele>271.6</ele><time>2026-04-23T09:53:52.999Z</time></trkpt><trkpt lat="44.98962587611927" lon="9.366486993683658"><ele>273.0</ele><time>2026-04-23T09:53:56.999Z</time></trkpt><trkpt lat="44.98973655432853" lon="9.366493844871425"><ele>273.0</ele><time>2026-04-23T09:53:57.999Z</time></trkpt><trkpt lat="44.989836216370804" lon="9.366520274225199"><ele>273.0</ele><time>2026-04-23T09:53:58.999Z</time></trkpt><trkpt lat="44.989917532911235" lon="9.366540228014172"><ele>273.0</ele><time>2026-04-23T09:53:59.999Z</time></trkpt><trkpt lat="44.9899879841593" lon="9.366564837372062"><ele>273.0</ele><time>2026-04-23T09:54:00.999Z</time></trkpt><trkpt lat="44.99009462082526" lon="9.36657184985192"><ele>273.0</ele><time>2026-04-23T09:54:02.999Z</time></trkpt><trkpt lat="44.99015961954964" lon="9.366552647961012"><ele>273.0</ele><time>2026-04-23T09:54:04.999Z</time></trkpt><trkpt lat="44.99018216047884" lon="9.366422717591822"><ele>271.6666666666667</ele><time>2026-04-23T09:54:06.999Z</time></trkpt><trkpt lat="44.99018444301074" lon="9.366234381803256"><ele>270.3333333333333</ele><time>2026-04-23T09:54:08.999Z</time></trkpt><trkpt lat="44.99019044785649" lon="9.366133583804903"><ele>269.0</ele><time>2026-04-23T09:54:09.999Z</time></trkpt><trkpt lat="44.99019219538768" lon="9.366028506025954"><ele>267.66666666666663</ele><time>2026-04-23T09:54:10.999Z</time></trkpt><trkpt lat="44.990188823320786" lon="9.365933078740937"><ele>266.3333333333333</ele><time>2026-04-23T09:54:11.999Z</time></trkpt><trkpt lat="44.9901856284233" lon="9.365833842321681"><ele>265.0</ele><time>2026-04-23T09:54:12.999Z</time></trkpt><trkpt lat="44.99018695660069" lon="9.365736397756274"><ele>265.0</ele><time>2026-04-23T09:54:13.999Z</time></trkpt><trkpt lat="44.99018201587596" lon="9.365562538934617"><ele>265.0</ele><time>2026-04-23T09:54:15.999Z</time></trkpt><trkpt lat="44.990157972286404" lon="9.365415268483629"><ele>265.0</ele><time>2026-04-23T09:54:17.999Z</time></trkpt><trkpt lat="44.99011517346908" lon="9.365343510247898"><ele>265.0</ele><time>2026-04-23T09:54:18.999Z</time></trkpt><trkpt lat="44.990068619879715" lon="9.365274660240528"><ele>265.0</ele><time>2026-04-23T09:54:19.999Z</time></trkpt><trkpt lat="44.99002800744548" lon="9.365194511916124"><ele>265.0</ele><time>2026-04-23T09:54:20.999Z</time></trkpt><trkpt lat="44.98999581803322" lon="9.36510553299575"><ele>265.5</ele><time>2026-04-23T09:54:21.999Z</time></trkpt><trkpt lat="44.98996158256477" lon="9.365022554086556"><ele>266.0</ele><time>2026-04-23T09:54:22.999Z</time></trkpt><trkpt lat="44.98992614206419" lon="9.364941015077193"><ele>266.5</ele><time>2026-04-23T09:54:23.999Z</time></trkpt><trkpt lat="44.989893158338454" lon="9.364858330337322"><ele>267.0</ele><time>2026-04-23T09:54:24.999Z</time></trkpt><trkpt lat="44.98985517366405" lon="9.364771368489532"><ele>267.5</ele><time>2026-04-23T09:54:25.998Z</time></trkpt><trkpt lat="44.9898219248927" lon="9.364655783667205"><ele>268.0</ele><time>2026-04-23T09:54:26.998Z</time></trkpt><trkpt lat="44.98979027106385" lon="9.364525839849469"><ele>266.6</ele><time>2026-04-23T09:54:27.998Z</time></trkpt><trkpt lat="44.989799610524" lon="9.364366727233268"><ele>265.20000000000005</ele><time>2026-04-23T09:54:28.998Z</time></trkpt><trkpt lat="44.989774618508065" lon="9.364243665282341"><ele>263.8</ele><time>2026-04-23T09:54:29.998Z</time></trkpt><trkpt lat="44.98973938436954" lon="9.364096482601854"><ele>262.40000000000003</ele><time>2026-04-23T09:54:30.998Z</time></trkpt><trkpt lat="44.98969834581887" lon="9.363947512861696"><ele>261.0</ele><time>2026-04-23T09:54:31.998Z</time></trkpt><trkpt lat="44.98963784426848" lon="9.363789699466324"><ele>259.75</ele><time>2026-04-23T09:54:32.998Z</time></trkpt><trkpt lat="44.98956081627377" lon="9.36363957049055"><ele>258.5</ele><time>2026-04-23T09:54:33.998Z</time></trkpt><trkpt lat="44.98948066737315" lon="9.36349437197432"><ele>257.25</ele><time>2026-04-23T09:54:34.998Z</time></trkpt><trkpt lat="44.989387477209114" lon="9.363330934322441"><ele>256.0</ele><time>2026-04-23T09:54:35.998Z</time></trkpt><trkpt lat="44.98932880470992" lon="9.363162202604503"><ele>256.25</ele><time>2026-04-23T09:54:36.998Z</time></trkpt><trkpt lat="44.989273792904584" lon="9.36299340982593"><ele>256.5</ele><time>2026-04-23T09:54:37.998Z</time></trkpt><trkpt lat="44.98922617796646" lon="9.362819811896784"><ele>256.75</ele><time>2026-04-23T09:54:38.998Z</time></trkpt><trkpt lat="44.98916044712268" lon="9.362634895787577"><ele>257.0</ele><time>2026-04-23T09:54:39.998Z</time></trkpt><trkpt lat="44.98910798205497" lon="9.362450094641625"><ele>260.0</ele><time>2026-04-23T09:54:40.998Z</time></trkpt><trkpt lat="44.98904090369335" lon="9.362285537055943"><ele>263.0</ele><time>2026-04-23T09:54:41.998Z</time></trkpt><trkpt lat="44.988966154584034" lon="9.362101642952823"><ele>266.0</ele><time>2026-04-23T09:54:42.998Z</time></trkpt><trkpt lat="44.98885422028698" lon="9.361934269507168"><ele>269.0</ele><time>2026-04-23T09:54:43.998Z</time></trkpt><trkpt lat="44.988775061344086" lon="9.361750659800443"><ele>269.6666666666667</ele><time>2026-04-23T09:54:44.998Z</time></trkpt><trkpt lat="44.9887034943767" lon="9.361560945138017"><ele>270.3333333333333</ele><time>2026-04-23T09:54:45.998Z</time></trkpt><trkpt lat="44.98863952964575" lon="9.361362526968799"><ele>271.0</ele><time>2026-04-23T09:54:46.998Z</time></trkpt><trkpt lat="44.98856768101385" lon="9.361147985326799"><ele>272.0</ele><time>2026-04-23T09:54:47.998Z</time></trkpt><trkpt lat="44.98850031549004" lon="9.360922118246412"><ele>273.0</ele><time>2026-04-23T09:54:48.998Z</time></trkpt><trkpt lat="44.988456218372754" lon="9.3607111947475"><ele>274.0</ele><time>2026-04-23T09:54:49.998Z</time></trkpt><trkpt lat="44.988435391025924" lon="9.360518703869367"><ele>274.25</ele><time>2026-04-23T09:54:51Z</time></trkpt><trkpt lat="44.988422973265784" lon="9.360343828196099"><ele>274.5</ele><time>2026-04-23T09:54:52Z</time></trkpt><trkpt lat="44.98838314462328" lon="9.360179221517786"><ele>274.75</ele><time>2026-04-23T09:54:53Z</time></trkpt><trkpt lat="44.988333787096444" lon="9.360014304019234"><ele>275.0</ele><time>2026-04-23T09:54:54Z</time></trkpt><trkpt lat="44.988282783556706" lon="9.35986885436185"><ele>277.0</ele><time>2026-04-23T09:54:55Z</time></trkpt><trkpt lat="44.988224620412" lon="9.35976197754321"><ele>279.0</ele><time>2026-04-23T09:54:56Z</time></trkpt><trkpt lat="44.98816854634845" lon="9.359663492160408"><ele>281.0</ele><time>2026-04-23T09:54:57Z</time></trkpt><trkpt lat="44.988076502125836" lon="9.359591121346336"><ele>283.0</ele><time>2026-04-23T09:54:58Z</time></trkpt><trkpt lat="44.98797591561361" lon="9.359485196473958"><ele>285.0</ele><time>2026-04-23T09:54:59Z</time></trkpt><trkpt lat="44.98789076394526" lon="9.359390188916244"><ele>285.4</ele><time>2026-04-23T09:55:00Z</time></trkpt><trkpt lat="44.987834839926684" lon="9.359298707769854"><ele>285.8</ele><time>2026-04-23T09:55:01Z</time></trkpt><trkpt lat="44.98777612917155" lon="9.359183966374301"><ele>286.2</ele><time>2026-04-23T09:55:02Z</time></trkpt><trkpt lat="44.98773130419517" lon="9.359047071171812"><ele>286.6</ele><time>2026-04-23T09:55:03Z</time></trkpt><trkpt lat="44.987675177125396" lon="9.358915842816774"><ele>287.0</ele><time>2026-04-23T09:55:04Z</time></trkpt><trkpt lat="44.98765432723709" lon="9.35878961562728"><ele>288.1666666666667</ele><time>2026-04-23T09:55:05Z</time></trkpt><trkpt lat="44.98767003841371" lon="9.358667847294132"><ele>289.33333333333337</ele><time>2026-04-23T09:55:06Z</time></trkpt><trkpt lat="44.98768170659544" lon="9.358534533697897"><ele>290.5</ele><time>2026-04-23T09:55:07Z</time></trkpt><trkpt lat="44.9876660986834" lon="9.35839817476627"><ele>291.6666666666667</ele><time>2026-04-23T09:55:08Z</time></trkpt><trkpt lat="44.98764745218531" lon="9.358277524129296"><ele>292.8333333333333</ele><time>2026-04-23T09:55:09Z</time></trkpt><trkpt lat="44.987624296021856" lon="9.358174119014846"><ele>294.0</ele><time>2026-04-23T09:55:10Z</time></trkpt><trkpt lat="44.98760794901035" lon="9.358065179144141"><ele>295.2</ele><time>2026-04-23T09:55:11Z</time></trkpt><trkpt lat="44.98761336697642" lon="9.357935189170941"><ele>296.4</ele><time>2026-04-23T09:55:12Z</time></trkpt><trkpt lat="44.98760501932765" lon="9.357774711683268"><ele>297.6</ele><time>2026-04-23T09:55:13Z</time></trkpt><trkpt lat="44.98759293737466" lon="9.357617006044126"><ele>298.8</ele><time>2026-04-23T09:55:14Z</time></trkpt><trkpt lat="44.98759514581905" lon="9.357483460546385"><ele>300.0</ele><time>2026-04-23T09:55:15Z</time></trkpt><trkpt lat="44.987596134407966" lon="9.357368184486216"><ele>300.0</ele><time>2026-04-23T09:55:16Z</time></trkpt><trkpt lat="44.98759014339959" lon="9.357279356526403"><ele>300.0</ele><time>2026-04-23T09:55:17Z</time></trkpt><trkpt lat="44.98759963866251" lon="9.357183001490979"><ele>300.0</ele><time>2026-04-23T09:55:18Z</time></trkpt><trkpt lat="44.98761841856232" lon="9.357047787434919"><ele>300.0</ele><time>2026-04-23T09:55:19Z</time></trkpt><trkpt lat="44.98763748921809" lon="9.356895843947585"><ele>300.0</ele><time>2026-04-23T09:55:20Z</time></trkpt><trkpt lat="44.987666520479806" lon="9.3567225517405"><ele>301.25</ele><time>2026-04-23T09:55:21Z</time></trkpt><trkpt lat="44.98770601861307" lon="9.35655279836956"><ele>302.5</ele><time>2026-04-23T09:55:22Z</time></trkpt><trkpt lat="44.98774058037932" lon="9.356361520491784"><ele>303.75</ele><time>2026-04-23T09:55:23Z</time></trkpt><trkpt lat="44.98778769390779" lon="9.356193770585023"><ele>305.0</ele><time>2026-04-23T09:55:24Z</time></trkpt><trkpt lat="44.98781372470927" lon="9.356028515026702"><ele>306.6</ele><time>2026-04-23T09:55:25Z</time></trkpt><trkpt lat="44.98783742657302" lon="9.355878044669028"><ele>308.2</ele><time>2026-04-23T09:55:26Z</time></trkpt><trkpt lat="44.9878567143378" lon="9.35574670297888"><ele>309.8</ele><time>2026-04-23T09:55:27Z</time></trkpt><trkpt lat="44.98787238095329" lon="9.355623216412631"><ele>311.4</ele><time>2026-04-23T09:55:28Z</time></trkpt><trkpt lat="44.987869670760354" lon="9.355514400316828"><ele>313.0</ele><time>2026-04-23T09:55:29Z</time></trkpt><trkpt lat="44.98787822134904" lon="9.355337903111204"><ele>314.5</ele><time>2026-04-23T09:55:31Z</time></trkpt><trkpt lat="44.98784156647554" lon="9.35522059655851"><ele>316.0</ele><time>2026-04-23T09:55:32Z</time></trkpt><trkpt lat="44.9878303811369" lon="9.355096374600073"><ele>317.5</ele><time>2026-04-23T09:55:33Z</time></trkpt><trkpt lat="44.98780013207948" lon="9.354908683102735"><ele>319.0</ele><time>2026-04-23T09:55:34Z</time></trkpt><trkpt lat="44.987749296888815" lon="9.35472260890557"><ele>316.66666666666663</ele><time>2026-04-23T09:55:35Z</time></trkpt><trkpt lat="44.987691778394456" lon="9.354525900653147"><ele>314.3333333333333</ele><time>2026-04-23T09:55:36Z</time></trkpt><trkpt lat="44.98762334450531" lon="9.354330829213268"><ele>312.0</ele><time>2026-04-23T09:55:37Z</time></trkpt><trkpt lat="44.98755229186366" lon="9.354132288480589"><ele>311.0</ele><time>2026-04-23T09:55:37.999Z</time></trkpt><trkpt lat="44.987450175345394" lon="9.353940739867355"><ele>310.0</ele><time>2026-04-23T09:55:38.999Z</time></trkpt><trkpt lat="44.98736194991063" lon="9.35374457057039"><ele>309.0</ele><time>2026-04-23T09:55:39.999Z</time></trkpt><trkpt lat="44.987250579226625" lon="9.353563362775263"><ele>309.0</ele><time>2026-04-23T09:55:40.999Z</time></trkpt><trkpt lat="44.98712680474834" lon="9.353386581774734"><ele>309.0</ele><time>2026-04-23T09:55:41.999Z</time></trkpt><trkpt lat="44.98697385135858" lon="9.353204479632652"><ele>309.0</ele><time>2026-04-23T09:55:42.999Z</time></trkpt><trkpt lat="44.98679142157949" lon="9.353049546618212"><ele>310.0</ele><time>2026-04-23T09:55:43.999Z</time></trkpt><trkpt lat="44.986596627131746" lon="9.352895804186932"><ele>311.0</ele><time>2026-04-23T09:55:44.999Z</time></trkpt><trkpt lat="44.98640497084927" lon="9.35273049730627"><ele>312.0</ele><time>2026-04-23T09:55:45.999Z</time></trkpt><trkpt lat="44.98623643711216" lon="9.352570086989028"><ele>312.0</ele><time>2026-04-23T09:55:46.999Z</time></trkpt><trkpt lat="44.98609053610769" lon="9.352426180057197"><ele>312.0</ele><time>2026-04-23T09:55:47.999Z</time></trkpt><trkpt lat="44.9859399802697" lon="9.352336445851254"><ele>312.0</ele><time>2026-04-23T09:55:48.999Z</time></trkpt><trkpt lat="44.985787683592285" lon="9.352263373680884"><ele>314.0</ele><time>2026-04-23T09:55:49.999Z</time></trkpt><trkpt lat="44.98562549437945" lon="9.352228314178356"><ele>316.0</ele><time>2026-04-23T09:55:50.999Z</time></trkpt><trkpt lat="44.98544944668701" lon="9.352228334365709"><ele>318.0</ele><time>2026-04-23T09:55:51.999Z</time></trkpt><trkpt lat="44.985254684737136" lon="9.352261127141263"><ele>318.0</ele><time>2026-04-23T09:55:52.999Z</time></trkpt><trkpt lat="44.98507329660369" lon="9.352255410346487"><ele>318.0</ele><time>2026-04-23T09:55:53.999Z</time></trkpt><trkpt lat="44.98491862968948" lon="9.352255631359327"><ele>318.0</ele><time>2026-04-23T09:55:54.999Z</time></trkpt><trkpt lat="44.98478563672662" lon="9.352215905081483"><ele>316.0</ele><time>2026-04-23T09:55:55.999Z</time></trkpt><trkpt lat="44.984679687539625" lon="9.352131255098351"><ele>314.0</ele><time>2026-04-23T09:55:56.999Z</time></trkpt><trkpt lat="44.984619288905776" lon="9.352006259719658"><ele>312.0</ele><time>2026-04-23T09:55:57.999Z</time></trkpt><trkpt lat="44.98457531805309" lon="9.351872117953944"><ele>310.0</ele><time>2026-04-23T09:55:58.999Z</time></trkpt><trkpt lat="44.98455828564338" lon="9.351752546051296"><ele>308.0</ele><time>2026-04-23T09:55:59.999Z</time></trkpt><trkpt lat="44.98453871078784" lon="9.351646019093284"><ele>308.0</ele><time>2026-04-23T09:56:00.999Z</time></trkpt><trkpt lat="44.98450737067788" lon="9.351480705775522"><ele>308.0</ele><time>2026-04-23T09:56:02.999Z</time></trkpt><trkpt lat="44.984489668909426" lon="9.351380414637301"><ele>308.0</ele><time>2026-04-23T09:56:03.999Z</time></trkpt><trkpt lat="44.9844602303448" lon="9.351268842373464"><ele>308.0</ele><time>2026-04-23T09:56:04.999Z</time></trkpt><trkpt lat="44.98444012313644" lon="9.351143567791977"><ele>308.0</ele><time>2026-04-23T09:56:05.999Z</time></trkpt><trkpt lat="44.98440213341505" lon="9.35101032163882"><ele>307.75</ele><time>2026-04-23T09:56:07.999Z</time></trkpt><trkpt lat="44.98434901106908" lon="9.350859367787566"><ele>307.5</ele><time>2026-04-23T09:56:09.999Z</time></trkpt><trkpt lat="44.98427542693066" lon="9.350723314672054"><ele>307.25</ele><time>2026-04-23T09:56:10.999Z</time></trkpt><trkpt lat="44.98415885600825" lon="9.35057532851913"><ele>307.0</ele><time>2026-04-23T09:56:11.999Z</time></trkpt><trkpt lat="44.98403413972505" lon="9.350449809494657"><ele>307.0</ele><time>2026-04-23T09:56:12.999Z</time></trkpt><trkpt lat="44.9839307389673" lon="9.350358289685568"><ele>307.0</ele><time>2026-04-23T09:56:13.999Z</time></trkpt><trkpt lat="44.983862192756966" lon="9.350309273035354"><ele>307.0</ele><time>2026-04-23T09:56:14.999Z</time></trkpt><trkpt lat="44.983658452134634" lon="9.350457922705566"><ele>307.0</ele><time>2026-04-23T09:56:15.999Z</time></trkpt><trkpt lat="44.98358427565277" lon="9.350334041064244"><ele>307.0</ele><time>2026-04-23T09:56:16.999Z</time></trkpt><trkpt lat="44.98349920522394" lon="9.350228133992493"><ele>307.0</ele><time>2026-04-23T09:56:17.999Z</time></trkpt><trkpt lat="44.983415586545846" lon="9.350120441522373"><ele>307.0</ele><time>2026-04-23T09:56:18.999Z</time></trkpt><trkpt lat="44.98334957092184" lon="9.349996661204123"><ele>307.0</ele><time>2026-04-23T09:56:19.999Z</time></trkpt><trkpt lat="44.98329431634388" lon="9.349876833308851"><ele>307.0</ele><time>2026-04-23T09:56:20.999Z</time></trkpt><trkpt lat="44.98324693622518" lon="9.349772225034046"><ele>307.5</ele><time>2026-04-23T09:56:21.999Z</time></trkpt><trkpt lat="44.98319984354661" lon="9.349696401673311"><ele>308.0</ele><time>2026-04-23T09:56:22.999Z</time></trkpt><trkpt lat="44.983150073627854" lon="9.349631336792154"><ele>308.5</ele><time>2026-04-23T09:56:23.999Z</time></trkpt><trkpt lat="44.98309815919878" lon="9.349578680157855"><ele>309.0</ele><time>2026-04-23T09:56:24.999Z</time></trkpt><trkpt lat="44.98304489849671" lon="9.349518373025802"><ele>309.5</ele><time>2026-04-23T09:56:25.999Z</time></trkpt><trkpt lat="44.98297547127036" lon="9.349439259573726"><ele>310.0</ele><time>2026-04-23T09:56:26.999Z</time></trkpt><trkpt lat="44.98289529547975" lon="9.349361981394951"><ele>310.0</ele><time>2026-04-23T09:56:27.999Z</time></trkpt><trkpt lat="44.982821873445985" lon="9.349296803108592"><ele>310.0</ele><time>2026-04-23T09:56:28.999Z</time></trkpt><trkpt lat="44.98274016848378" lon="9.349230908049604"><ele>310.0</ele><time>2026-04-23T09:56:29.999Z</time></trkpt><trkpt lat="44.9826656693322" lon="9.349165624941168"><ele>310.0</ele><time>2026-04-23T09:56:30.999Z</time></trkpt><trkpt lat="44.98259933376849" lon="9.34911749173572"><ele>310.0</ele><time>2026-04-23T09:56:31.999Z</time></trkpt><trkpt lat="44.98253447047527" lon="9.349079347717725"><ele>310.0</ele><time>2026-04-23T09:56:32.999Z</time></trkpt><trkpt lat="44.982415882549084" lon="9.349040407416439"><ele>311.0</ele><time>2026-04-23T09:56:34.999Z</time></trkpt><trkpt lat="44.9822964157128" lon="9.34903736557602"><ele>312.0</ele><time>2026-04-23T09:56:36.999Z</time></trkpt><trkpt lat="44.9821837145972" lon="9.34904139371669"><ele>313.0</ele><time>2026-04-23T09:56:38.999Z</time></trkpt><trkpt lat="44.98210926723731" lon="9.349039246050443"><ele>314.0</ele><time>2026-04-23T09:56:40.999Z</time></trkpt><trkpt lat="44.98205742897648" lon="9.349103447366396"><ele>315.0</ele><time>2026-04-23T09:56:43.999Z</time></trkpt><trkpt lat="44.98203237403024" lon="9.349263190714646"><ele>315.0</ele><time>2026-04-23T09:57:02Z</time></trkpt><trkpt lat="44.982045364396384" lon="9.349417598160711"><ele>315.0</ele><time>2026-04-23T09:57:04Z</time></trkpt><trkpt lat="44.98206183114071" lon="9.349515338523444"><ele>315.0</ele><time>2026-04-23T09:57:05Z</time></trkpt><trkpt lat="44.98209729375694" lon="9.349660713351032"><ele>315.0</ele><time>2026-04-23T09:57:06Z</time></trkpt><trkpt lat="44.982141013046935" lon="9.349838438877303"><ele>315.0</ele><time>2026-04-23T09:57:07Z</time></trkpt><trkpt lat="44.98215837451563" lon="9.350019136534613"><ele>316.0</ele><time>2026-04-23T09:57:08Z</time></trkpt><trkpt lat="44.98217717186279" lon="9.350169552421585"><ele>317.0</ele><time>2026-04-23T09:57:09Z</time></trkpt><trkpt lat="44.98219197805363" lon="9.350318738783058"><ele>318.0</ele><time>2026-04-23T09:57:10Z</time></trkpt><trkpt lat="44.98221054045277" lon="9.350472123981731"><ele>319.0</ele><time>2026-04-23T09:57:11Z</time></trkpt><trkpt lat="44.98224896390147" lon="9.35063909916893"><ele>320.0</ele><time>2026-04-23T09:57:12Z</time></trkpt><trkpt lat="44.98227255024536" lon="9.350803264279719"><ele>321.0</ele><time>2026-04-23T09:57:13Z</time></trkpt><trkpt lat="44.98229945966404" lon="9.35093893035229"><ele>322.0</ele><time>2026-04-23T09:57:14Z</time></trkpt><trkpt lat="44.98234323222831" lon="9.351077682820431"><ele>323.0</ele><time>2026-04-23T09:57:15Z</time></trkpt><trkpt lat="44.98238678150246" lon="9.351232737562302"><ele>324.0</ele><time>2026-04-23T09:57:16Z</time></trkpt><trkpt lat="44.98243137261952" lon="9.351398270772924"><ele>325.25</ele><time>2026-04-23T09:57:17Z</time></trkpt><trkpt lat="44.982480915752056" lon="9.351564086238028"><ele>326.5</ele><time>2026-04-23T09:57:18Z</time></trkpt><trkpt lat="44.98253050820429" lon="9.351725927305498"><ele>327.75</ele><time>2026-04-23T09:57:19Z</time></trkpt><trkpt lat="44.982571595195914" lon="9.351882810572224"><ele>329.0</ele><time>2026-04-23T09:57:20Z</time></trkpt><trkpt lat="44.982609106196804" lon="9.352032816470768"><ele>329.0</ele><time>2026-04-23T09:57:21Z</time></trkpt><trkpt lat="44.98264129738229" lon="9.352182575645465"><ele>329.0</ele><time>2026-04-23T09:57:22Z</time></trkpt><trkpt lat="44.982668599014396" lon="9.35231789902622"><ele>329.0</ele><time>2026-04-23T09:57:23Z</time></trkpt><trkpt lat="44.9826939652354" lon="9.352458871630764"><ele>329.0</ele><time>2026-04-23T09:57:24Z</time></trkpt><trkpt lat="44.98270704465259" lon="9.352586976083398"><ele>329.0</ele><time>2026-04-23T09:57:25Z</time></trkpt><trkpt lat="44.98270830346025" lon="9.352700380262736"><ele>330.79999999999995</ele><time>2026-04-23T09:57:26Z</time></trkpt><trkpt lat="44.98270453129042" lon="9.35281362536598"><ele>332.59999999999997</ele><time>2026-04-23T09:57:27Z</time></trkpt><trkpt lat="44.98270491149902" lon="9.35292000754159"><ele>334.4</ele><time>2026-04-23T09:57:28Z</time></trkpt><trkpt lat="44.98267647588103" lon="9.353051687209488"><ele>336.2</ele><time>2026-04-23T09:57:29Z</time></trkpt><trkpt lat="44.98263763655618" lon="9.353205173871062"><ele>338.0</ele><time>2026-04-23T09:57:30Z</time></trkpt><trkpt lat="44.982595265158615" lon="9.353381585584163"><ele>339.4</ele><time>2026-04-23T09:57:31Z</time></trkpt><trkpt lat="44.982552150345896" lon="9.353546470077106"><ele>340.79999999999995</ele><time>2026-04-23T09:57:32Z</time></trkpt><trkpt lat="44.98251573803079" lon="9.35367795502938"><ele>342.2</ele><time>2026-04-23T09:57:33Z</time></trkpt><trkpt lat="44.98248635046249" lon="9.35380689585339"><ele>343.6</ele><time>2026-04-23T09:57:34Z</time></trkpt><trkpt lat="44.98245631546306" lon="9.353944071433656"><ele>345.0</ele><time>2026-04-23T09:57:35Z</time></trkpt><trkpt lat="44.98242351474764" lon="9.35408469095679"><ele>347.6</ele><time>2026-04-23T09:57:36Z</time></trkpt><trkpt lat="44.98238869947266" lon="9.354219883240669"><ele>350.2</ele><time>2026-04-23T09:57:37Z</time></trkpt><trkpt lat="44.9823527010557" lon="9.354368002317111"><ele>352.79999999999995</ele><time>2026-04-23T09:57:38Z</time></trkpt><trkpt lat="44.98231401794385" lon="9.354529722581084"><ele>355.4</ele><time>2026-04-23T09:57:39Z</time></trkpt><trkpt lat="44.982281267176525" lon="9.354683078647014"><ele>358.0</ele><time>2026-04-23T09:57:40Z</time></trkpt><trkpt lat="44.98225931718296" lon="9.354824927085504"><ele>358.79999999999995</ele><time>2026-04-23T09:57:41Z</time></trkpt><trkpt lat="44.982241142709405" lon="9.354936633821733"><ele>359.6</ele><time>2026-04-23T09:57:41.999Z</time></trkpt><trkpt lat="44.98222668959068" lon="9.35505500905281"><ele>360.4</ele><time>2026-04-23T09:57:42.999Z</time></trkpt><trkpt lat="44.98220544312233" lon="9.355184382988257"><ele>361.20000000000005</ele><time>2026-04-23T09:57:43.999Z</time></trkpt><trkpt lat="44.98217218049655" lon="9.35531662931332"><ele>362.0</ele><time>2026-04-23T09:57:44.999Z</time></trkpt><trkpt lat="44.98214237729702" lon="9.355441897815258"><ele>362.8</ele><time>2026-04-23T09:57:45.999Z</time></trkpt><trkpt lat="44.9821173487103" lon="9.355557775468638"><ele>363.6</ele><time>2026-04-23T09:57:46.999Z</time></trkpt><trkpt lat="44.98208741714337" lon="9.355679554008757"><ele>364.40000000000003</ele><time>2026-04-23T09:57:47.999Z</time></trkpt><trkpt lat="44.98205256988015" lon="9.355801798457726"><ele>365.20000000000005</ele><time>2026-04-23T09:57:48.999Z</time></trkpt><trkpt lat="44.982018273009906" lon="9.355923581215182"><ele>366.0</ele><time>2026-04-23T09:57:49.999Z</time></trkpt><trkpt lat="44.98198542525905" lon="9.356042309261197"><ele>366.0</ele><time>2026-04-23T09:57:50.999Z</time></trkpt><trkpt lat="44.981953621447126" lon="9.356165298814417"><ele>366.0</ele><time>2026-04-23T09:57:51.999Z</time></trkpt><trkpt lat="44.98191648958828" lon="9.356273632613632"><ele>366.0</ele><time>2026-04-23T09:57:52.999Z</time></trkpt><trkpt lat="44.98187026001622" lon="9.356380239014959"><ele>366.0</ele><time>2026-04-23T09:57:53.999Z</time></trkpt><trkpt lat="44.981834619309296" lon="9.356484957975924"><ele>366.0</ele><time>2026-04-23T09:57:54.999Z</time></trkpt><trkpt lat="44.98180598497895" lon="9.356587540984094"><ele>366.0</ele><time>2026-04-23T09:57:55.999Z</time></trkpt><trkpt lat="44.981776230913994" lon="9.356680139344176"><ele>366.25</ele><time>2026-04-23T09:57:56.999Z</time></trkpt><trkpt lat="44.98171798387728" lon="9.356797567046911"><ele>366.5</ele><time>2026-04-23T09:57:58.999Z</time></trkpt><trkpt lat="44.98171241237597" lon="9.35691334083531"><ele>366.75</ele><time>2026-04-23T09:58:00.999Z</time></trkpt><trkpt lat="44.981530802903364" lon="9.356826431585684"><ele>367.0</ele><time>2026-04-23T09:58:01.999Z</time></trkpt><trkpt lat="44.981431050768784" lon="9.35684568291809"><ele>368.40000000000003</ele><time>2026-04-23T09:58:02.999Z</time></trkpt><trkpt lat="44.98131937858915" lon="9.356883311199024"><ele>369.8</ele><time>2026-04-23T09:58:03.999Z</time></trkpt><trkpt lat="44.98122005103728" lon="9.356942636799007"><ele>371.2</ele><time>2026-04-23T09:58:04.999Z</time></trkpt><trkpt lat="44.98112337100742" lon="9.357013318139943"><ele>372.6</ele><time>2026-04-23T09:58:05.999Z</time></trkpt><trkpt lat="44.98103812767456" lon="9.357104502376629"><ele>374.0</ele><time>2026-04-23T09:58:06.999Z</time></trkpt><trkpt lat="44.98096414927669" lon="9.357210119121701"><ele>375.0</ele><time>2026-04-23T09:58:07.999Z</time></trkpt><trkpt lat="44.98088257726333" lon="9.357318711692042"><ele>376.0</ele><time>2026-04-23T09:58:08.999Z</time></trkpt><trkpt lat="44.980750666436876" lon="9.35739389186413"><ele>377.0</ele><time>2026-04-23T09:58:09.999Z</time></trkpt><trkpt lat="44.98067936030329" lon="9.357528799066047"><ele>378.0</ele><time>2026-04-23T09:58:10.999Z</time></trkpt><trkpt lat="44.980586186951626" lon="9.357700546996679"><ele>379.2</ele><time>2026-04-23T09:58:11.999Z</time></trkpt><trkpt lat="44.98055902365106" lon="9.357861979185026"><ele>380.4</ele><time>2026-04-23T09:58:14.999Z</time></trkpt><trkpt lat="44.98051473411049" lon="9.357934940371385"><ele>381.59999999999997</ele><time>2026-04-23T09:58:15.999Z</time></trkpt><trkpt lat="44.98045774370577" lon="9.357993027060624"><ele>382.79999999999995</ele><time>2026-04-23T09:58:16.999Z</time></trkpt><trkpt lat="44.980346571386505" lon="9.358075000170894"><ele>384.0</ele><time>2026-04-23T09:58:18.999Z</time></trkpt><trkpt lat="44.98026716673836" lon="9.358105181892796"><ele>384.0</ele><time>2026-04-23T09:58:19.999Z</time></trkpt><trkpt lat="44.98012791521677" lon="9.358124356127608"><ele>384.0</ele><time>2026-04-23T09:58:21.999Z</time></trkpt><trkpt lat="44.98004550623804" lon="9.358126701629018"><ele>384.0</ele><time>2026-04-23T09:58:22.999Z</time></trkpt><trkpt lat="44.97996414348638" lon="9.358125193129164"><ele>384.0</ele><time>2026-04-23T09:58:23.999Z</time></trkpt><trkpt lat="44.97983479603674" lon="9.358129076088336"><ele>384.0</ele><time>2026-04-23T09:58:25.999Z</time></trkpt><trkpt lat="44.97976426504733" lon="9.358115938231498"><ele>383.6</ele><time>2026-04-23T09:58:26.999Z</time></trkpt><trkpt lat="44.97967431178821" lon="9.35810561731907"><ele>383.2</ele><time>2026-04-23T09:58:27.999Z</time></trkpt><trkpt lat="44.97958141091554" lon="9.35809690339367"><ele>382.8</ele><time>2026-04-23T09:58:28.999Z</time></trkpt><trkpt lat="44.979499757436635" lon="9.358049958272401"><ele>382.40000000000003</ele><time>2026-04-23T09:58:29.999Z</time></trkpt><trkpt lat="44.979400756906514" lon="9.35802144693138"><ele>382.0</ele><time>2026-04-23T09:58:30.999Z</time></trkpt><trkpt lat="44.979309882577226" lon="9.357991528096797"><ele>382.0</ele><time>2026-04-23T09:58:31.999Z</time></trkpt><trkpt lat="44.97922006233746" lon="9.357967801159788"><ele>382.0</ele><time>2026-04-23T09:58:32.999Z</time></trkpt><trkpt lat="44.979131569659536" lon="9.357930148287158"><ele>382.0</ele><time>2026-04-23T09:58:33.999Z</time></trkpt><trkpt lat="44.979044651109305" lon="9.357895557790206"><ele>382.0</ele><time>2026-04-23T09:58:34.999Z</time></trkpt><trkpt lat="44.978968949068864" lon="9.357875585120755"><ele>382.0</ele><time>2026-04-23T09:58:35.999Z</time></trkpt><trkpt lat="44.978894871597966" lon="9.357856194016621"><ele>382.0</ele><time>2026-04-23T09:58:36.999Z</time></trkpt><trkpt lat="44.97883667871515" lon="9.357819455346583"><ele>381.3333333333333</ele><time>2026-04-23T09:58:37.999Z</time></trkpt><trkpt lat="44.97874299566277" lon="9.357799781005037"><ele>380.66666666666663</ele><time>2026-04-23T09:58:39.999Z</time></trkpt><trkpt lat="44.97869702261937" lon="9.357723094461598"><ele>380.0</ele><time>2026-04-23T09:58:41.999Z</time></trkpt><trkpt lat="44.97868087280249" lon="9.357592239288074"><ele>379.3333333333333</ele><time>2026-04-23T09:58:43.999Z</time></trkpt><trkpt lat="44.97865619919306" lon="9.357430048945245"><ele>378.6666666666667</ele><time>2026-04-23T09:58:45.999Z</time></trkpt><trkpt lat="44.97865506768516" lon="9.357332310606473"><ele>378.0</ele><time>2026-04-23T09:58:46.999Z</time></trkpt><trkpt lat="44.97864348037695" lon="9.357221440886573"><ele>376.79999999999995</ele><time>2026-04-23T09:58:47.998Z</time></trkpt><trkpt lat="44.97864558433395" lon="9.357092421072466"><ele>375.6</ele><time>2026-04-23T09:58:48.998Z</time></trkpt><trkpt lat="44.978624885259634" lon="9.356966715659173"><ele>374.4</ele><time>2026-04-23T09:58:49.998Z</time></trkpt><trkpt lat="44.9785965692909" lon="9.356828757844621"><ele>373.20000000000005</ele><time>2026-04-23T09:58:50.998Z</time></trkpt><trkpt lat="44.97857431982269" lon="9.356700423031242"><ele>372.0</ele><time>2026-04-23T09:58:51.998Z</time></trkpt><trkpt lat="44.97856182207142" lon="9.356583786534433"><ele>372.0</ele><time>2026-04-23T09:58:52.998Z</time></trkpt><trkpt lat="44.97854967662389" lon="9.35646729384337"><ele>372.0</ele><time>2026-04-23T09:58:53.998Z</time></trkpt><trkpt lat="44.97854168550181" lon="9.356350146134252"><ele>372.0</ele><time>2026-04-23T09:58:54.998Z</time></trkpt><trkpt lat="44.97853382469699" lon="9.356227497104713"><ele>372.0</ele><time>2026-04-23T09:58:55.998Z</time></trkpt><trkpt lat="44.97852067004563" lon="9.356117116934506"><ele>372.0</ele><time>2026-04-23T09:58:56.998Z</time></trkpt><trkpt lat="44.97850518313258" lon="9.356015381792501"><ele>372.0</ele><time>2026-04-23T09:58:57.998Z</time></trkpt><trkpt lat="44.97848914621747" lon="9.35585032501773"><ele>371.14285714285717</ele><time>2026-04-23T09:58:59.998Z</time></trkpt><trkpt lat="44.97847361711764" lon="9.355762090738235"><ele>370.2857142857143</ele><time>2026-04-23T09:59:00.998Z</time></trkpt><trkpt lat="44.97845917141211" lon="9.355670966017376"><ele>369.42857142857144</ele><time>2026-04-23T09:59:01.998Z</time></trkpt><trkpt lat="44.978449953553984" lon="9.355570951075373"><ele>368.57142857142856</ele><time>2026-04-23T09:59:03Z</time></trkpt><trkpt lat="44.978447643568096" lon="9.355474418852689"><ele>367.7142857142857</ele><time>2026-04-23T09:59:04Z</time></trkpt><trkpt lat="44.97843764896527" lon="9.3553820563776"><ele>366.8571428571429</ele><time>2026-04-23T09:59:05Z</time></trkpt><trkpt lat="44.97842163483339" lon="9.355289132685668"><ele>366.0</ele><time>2026-04-23T09:59:06Z</time></trkpt><trkpt lat="44.97840493472209" lon="9.355183991711323"><ele>364.4</ele><time>2026-04-23T09:59:07Z</time></trkpt><trkpt lat="44.97839956986998" lon="9.355093982114358"><ele>362.8</ele><time>2026-04-23T09:59:08Z</time></trkpt><trkpt lat="44.97838257315439" lon="9.354927524821386"><ele>361.2</ele><time>2026-04-23T09:59:10Z</time></trkpt><trkpt lat="44.97836569840387" lon="9.35484164823096"><ele>359.59999999999997</ele><time>2026-04-23T09:59:11Z</time></trkpt><trkpt lat="44.978316674477306" lon="9.354686160365006"><ele>358.0</ele><time>2026-04-23T09:59:13Z</time></trkpt><trkpt lat="44.97828033394561" lon="9.354536725241072"><ele>355.59999999999997</ele><time>2026-04-23T09:59:15Z</time></trkpt><trkpt lat="44.9782784985383" lon="9.354370944791643"><ele>353.2</ele><time>2026-04-23T09:59:17Z</time></trkpt><trkpt lat="44.97829949487361" lon="9.35419592992343"><ele>350.8</ele><time>2026-04-23T09:59:19Z</time></trkpt><trkpt lat="44.9783072105235" lon="9.354020197693098"><ele>348.4</ele><time>2026-04-23T09:59:21Z</time></trkpt><trkpt lat="44.978320456260406" lon="9.353925632528904"><ele>346.0</ele><time>2026-04-23T09:59:22Z</time></trkpt><trkpt lat="44.97833393852908" lon="9.353822283619415"><ele>344.66666666666663</ele><time>2026-04-23T09:59:23Z</time></trkpt><trkpt lat="44.97834322458589" lon="9.353723745121252"><ele>343.3333333333333</ele><time>2026-04-23T09:59:24Z</time></trkpt><trkpt lat="44.978352277654245" lon="9.353624663042737"><ele>342.0</ele><time>2026-04-23T09:59:25Z</time></trkpt><trkpt lat="44.9783601017256" lon="9.353519932655702"><ele>340.6666666666667</ele><time>2026-04-23T09:59:26Z</time></trkpt><trkpt lat="44.97837542874635" lon="9.35341118663014"><ele>339.33333333333337</ele><time>2026-04-23T09:59:27Z</time></trkpt><trkpt lat="44.97839238438873" lon="9.353295883752047"><ele>338.0</ele><time>2026-04-23T09:59:28Z</time></trkpt><trkpt lat="44.97842308205864" lon="9.353163525222042"><ele>336.5</ele><time>2026-04-23T09:59:29Z</time></trkpt><trkpt lat="44.97845814366185" lon="9.353037260772933"><ele>335.0</ele><time>2026-04-23T09:59:30Z</time></trkpt><trkpt lat="44.97847084522585" lon="9.35291562633965"><ele>333.5</ele><time>2026-04-23T09:59:31Z</time></trkpt><trkpt lat="44.97847920341457" lon="9.352813821001938"><ele>332.0</ele><time>2026-04-23T09:59:32Z</time></trkpt><trkpt lat="44.97848880121424" lon="9.35272399455412"><ele>330.5</ele><time>2026-04-23T09:59:33Z</time></trkpt><trkpt lat="44.97851278299693" lon="9.352550139400087"><ele>329.0</ele><time>2026-04-23T09:59:35Z</time></trkpt><trkpt lat="44.978517509508244" lon="9.352372067369933"><ele>329.0</ele><time>2026-04-23T09:59:37Z</time></trkpt><trkpt lat="44.97852450778612" lon="9.352283577814484"><ele>329.0</ele><time>2026-04-23T09:59:38Z</time></trkpt><trkpt lat="44.97852868463591" lon="9.352184267599176"><ele>329.0</ele><time>2026-04-23T09:59:39Z</time></trkpt><trkpt lat="44.97853175880454" lon="9.352073110915272"><ele>329.0</ele><time>2026-04-23T09:59:40Z</time></trkpt><trkpt lat="44.978541453669095" lon="9.351965186744408"><ele>329.0</ele><time>2026-04-23T09:59:41Z</time></trkpt><trkpt lat="44.978542169672885" lon="9.351869057165416"><ele>329.0</ele><time>2026-04-23T09:59:42Z</time></trkpt><trkpt lat="44.97855647226755" lon="9.351777573500199"><ele>329.0</ele><time>2026-04-23T09:59:43Z</time></trkpt><trkpt lat="44.97856608632333" lon="9.35168311095091"><ele>326.8</ele><time>2026-04-23T09:59:44Z</time></trkpt><trkpt lat="44.97857870710002" lon="9.351510928830583"><ele>324.59999999999997</ele><time>2026-04-23T09:59:46Z</time></trkpt><trkpt lat="44.97856464941186" lon="9.351351454765664"><ele>322.4</ele><time>2026-04-23T09:59:48Z</time></trkpt><trkpt lat="44.97852033536886" lon="9.351282275250938"><ele>320.2</ele><time>2026-04-23T09:59:49.999Z</time></trkpt><trkpt lat="44.97842555366662" lon="9.351305722534141"><ele>318.0</ele><time>2026-04-23T09:59:51.999Z</time></trkpt><trkpt lat="44.97836275553123" lon="9.351327798671678"><ele>317.1666666666667</ele><time>2026-04-23T09:59:52.999Z</time></trkpt><trkpt lat="44.97829669796854" lon="9.351342174864074"><ele>316.3333333333333</ele><time>2026-04-23T09:59:53.999Z</time></trkpt><trkpt lat="44.978188141001645" lon="9.351375178914559"><ele>315.5</ele><time>2026-04-23T09:59:55.999Z</time></trkpt><trkpt lat="44.978100039485454" lon="9.351396817930153"><ele>314.66666666666663</ele><time>2026-04-23T09:59:57.999Z</time></trkpt><trkpt lat="44.97802758687638" lon="9.351403821138852"><ele>313.8333333333333</ele><time>2026-04-23T09:59:59.999Z</time></trkpt><trkpt lat="44.97795607377251" lon="9.35142389813095"><ele>313.0</ele><time>2026-04-23T10:00:03.999Z</time></trkpt><trkpt lat="44.977923460390905" lon="9.351539330286421"><ele>313.0</ele><time>2026-04-23T10:00:05.999Z</time></trkpt><trkpt lat="44.977849924355006" lon="9.351632036923727"><ele>313.0</ele><time>2026-04-23T10:00:07.999Z</time></trkpt><trkpt lat="44.977770319022255" lon="9.35164287076751"><ele>313.0</ele><time>2026-04-23T10:00:08.999Z</time></trkpt><trkpt lat="44.97767756157014" lon="9.35163677120624"><ele>313.0</ele><time>2026-04-23T10:00:09.999Z</time></trkpt><trkpt lat="44.977608696562974" lon="9.351619698737139"><ele>313.0</ele><time>2026-04-23T10:00:10.999Z</time></trkpt><trkpt lat="44.97751731095592" lon="9.351633809766085"><ele>313.0</ele><time>2026-04-23T10:00:12.999Z</time></trkpt><trkpt lat="44.97748130852462" lon="9.351758686952245"><ele>312.66666666666663</ele><time>2026-04-23T10:00:14.999Z</time></trkpt><trkpt lat="44.97742056918948" lon="9.351891401080504"><ele>312.3333333333333</ele><time>2026-04-23T10:00:16.999Z</time></trkpt><trkpt lat="44.97734678746926" lon="9.351896763707266"><ele>312.0</ele><time>2026-04-23T10:00:17.999Z</time></trkpt><trkpt lat="44.97726080620292" lon="9.35188071850204"><ele>311.6666666666667</ele><time>2026-04-23T10:00:18.999Z</time></trkpt><trkpt lat="44.97717855462111" lon="9.351879208549159"><ele>311.33333333333337</ele><time>2026-04-23T10:00:19.999Z</time></trkpt><trkpt lat="44.97711015137891" lon="9.351889943775923"><ele>311.0</ele><time>2026-04-23T10:00:20.999Z</time></trkpt><trkpt lat="44.97701610861587" lon="9.351912097075738"><ele>311.0</ele><time>2026-04-23T10:00:22.999Z</time></trkpt><trkpt lat="44.97696156435459" lon="9.352014284493555"><ele>311.0</ele><time>2026-04-23T10:00:25.999Z</time></trkpt><trkpt lat="44.97694136126081" lon="9.352156762039636"><ele>311.0</ele><time>2026-04-23T10:00:27.999Z</time></trkpt><trkpt lat="44.976965495546985" lon="9.352264380643376"><ele>311.0</ele><time>2026-04-23T10:00:29.999Z</time></trkpt><trkpt lat="44.977049139351315" lon="9.35229579731593"><ele>311.0</ele><time>2026-04-23T10:00:31.999Z</time></trkpt><trkpt lat="44.97709778171292" lon="9.352412207811904"><ele>312.83333333333337</ele><time>2026-04-23T10:00:34.999Z</time></trkpt><trkpt lat="44.97709609292969" lon="9.352506122405941"><ele>314.6666666666667</ele><time>2026-04-23T10:00:35.999Z</time></trkpt><trkpt lat="44.97708027756645" lon="9.352615339892784"><ele>316.5</ele><time>2026-04-23T10:00:36.999Z</time></trkpt><trkpt lat="44.97706768565846" lon="9.352727773119096"><ele>318.3333333333333</ele><time>2026-04-23T10:00:37.999Z</time></trkpt><trkpt lat="44.97705946710403" lon="9.352816159657243"><ele>320.16666666666663</ele><time>2026-04-23T10:00:38.999Z</time></trkpt><trkpt lat="44.97708481605789" lon="9.352922893630891"><ele>322.0</ele><time>2026-04-23T10:00:40.999Z</time></trkpt><trkpt lat="44.977155698622724" lon="9.353063577749374"><ele>324.0</ele><time>2026-04-23T10:00:42.999Z</time></trkpt><trkpt lat="44.97719474006756" lon="9.35317186558992"><ele>326.0</ele><time>2026-04-23T10:00:43.999Z</time></trkpt><trkpt lat="44.97722632416392" lon="9.353264132092187"><ele>328.0</ele><time>2026-04-23T10:00:44.999Z</time></trkpt><trkpt lat="44.97724609141145" lon="9.353367078247548"><ele>330.0</ele><time>2026-04-23T10:00:45.999Z</time></trkpt><trkpt lat="44.97725040669333" lon="9.353538652571597"><ele>332.0</ele><time>2026-04-23T10:00:47.999Z</time></trkpt><trkpt lat="44.977257504262106" lon="9.353671657943352"><ele>332.0</ele><time>2026-04-23T10:00:49.999Z</time></trkpt><trkpt lat="44.9772604037827" lon="9.353780426173653"><ele>332.0</ele><time>2026-04-23T10:01:00.998Z</time></trkpt><trkpt lat="44.97718972047454" lon="9.35385699683598"><ele>332.0</ele><time>2026-04-23T10:01:12Z</time></trkpt><trkpt lat="44.97711800470554" lon="9.353884391236672"><ele>332.0</ele><time>2026-04-23T10:01:14Z</time></trkpt><trkpt lat="44.97701569088986" lon="9.353917390419497"><ele>332.0</ele><time>2026-04-23T10:01:16Z</time></trkpt><trkpt lat="44.97693048975312" lon="9.353956055970718"><ele>332.0</ele><time>2026-04-23T10:01:18Z</time></trkpt><trkpt lat="44.976872954455004" lon="9.35404546442033"><ele>333.8</ele><time>2026-04-23T10:01:20Z</time></trkpt><trkpt lat="44.9768410896001" lon="9.354233657681924"><ele>335.6</ele><time>2026-04-23T10:01:22Z</time></trkpt><trkpt lat="44.976823501764066" lon="9.35435489092526"><ele>337.40000000000003</ele><time>2026-04-23T10:01:23Z</time></trkpt><trkpt lat="44.97678454135336" lon="9.354477420926752"><ele>339.20000000000005</ele><time>2026-04-23T10:01:25Z</time></trkpt><trkpt lat="44.97676147749833" lon="9.354568628891123"><ele>341.0</ele><time>2026-04-23T10:01:27Z</time></trkpt><trkpt lat="44.97669233035804" lon="9.35464875215226"><ele>342.83333333333337</ele><time>2026-04-23T10:01:30Z</time></trkpt><trkpt lat="44.976597484519544" lon="9.354715926657903"><ele>344.6666666666667</ele><time>2026-04-23T10:01:46Z</time></trkpt><trkpt lat="44.976543270650616" lon="9.354793186208193"><ele>346.5</ele><time>2026-04-23T10:01:48Z</time></trkpt><trkpt lat="44.976507225256505" lon="9.354926026350723"><ele>348.3333333333333</ele><time>2026-04-23T10:01:59.999Z</time></trkpt><trkpt lat="44.97654082516464" lon="9.355029608791252"><ele>350.16666666666663</ele><time>2026-04-23T10:02:01.999Z</time></trkpt><trkpt lat="44.97660007902417" lon="9.354997336470065"><ele>352.0</ele><time>2026-04-23T10:02:03.999Z</time></trkpt><trkpt lat="44.976601597873234" lon="9.354903117521246"><ele>352.0</ele><time>2026-04-23T10:02:05.999Z</time></trkpt><trkpt lat="44.97658818103234" lon="9.354796197438647"><ele>352.0</ele><time>2026-04-23T10:02:07.999Z</time></trkpt><trkpt lat="44.97665159087373" lon="9.354738006582279"><ele>352.0</ele><time>2026-04-23T10:02:10.999Z</time></trkpt><trkpt lat="44.9766707493575" lon="9.354871414979705"><ele>352.0</ele><time>2026-04-23T10:02:13.999Z</time></trkpt><trkpt lat="44.976626565787036" lon="9.3550002483382"><ele>352.0</ele><time>2026-04-23T10:02:15.999Z</time></trkpt><trkpt lat="44.97660582971133" lon="9.355156471464118"><ele>352.0</ele><time>2026-04-23T10:02:17.999Z</time></trkpt><trkpt lat="44.97659467342454" lon="9.355304153586342"><ele>352.0</ele><time>2026-04-23T10:02:19.999Z</time></trkpt><trkpt lat="44.97658437525274" lon="9.355419528979791"><ele>352.0</ele><time>2026-04-23T10:02:20.999Z</time></trkpt><trkpt lat="44.97658636360787" lon="9.3555335619031"><ele>352.0</ele><time>2026-04-23T10:02:21.999Z</time></trkpt><trkpt lat="44.97660993584475" lon="9.355657193931183"><ele>352.0</ele><time>2026-04-23T10:02:22.999Z</time></trkpt><trkpt lat="44.97662457217518" lon="9.355779558341752"><ele>352.0</ele><time>2026-04-23T10:02:23.999Z</time></trkpt><trkpt lat="44.97662219207578" lon="9.355882875689625"><ele>354.20000000000005</ele><time>2026-04-23T10:02:24.999Z</time></trkpt><trkpt lat="44.97660944790628" lon="9.356011137201838"><ele>356.4</ele><time>2026-04-23T10:02:26.999Z</time></trkpt><trkpt lat="44.97659060010194" lon="9.356125428254074"><ele>358.6</ele><time>2026-04-23T10:02:29.999Z</time></trkpt><trkpt lat="44.97656826233283" lon="9.356295061767906"><ele>360.79999999999995</ele><time>2026-04-23T10:02:31.999Z</time></trkpt><trkpt lat="44.976548923775105" lon="9.35640269957506"><ele>363.0</ele><time>2026-04-23T10:02:32.999Z</time></trkpt><trkpt lat="44.976500069778346" lon="9.356532812289986"><ele>364.4</ele><time>2026-04-23T10:02:34.999Z</time></trkpt><trkpt lat="44.97641592387434" lon="9.356619023457968"><ele>365.79999999999995</ele><time>2026-04-23T10:02:36.999Z</time></trkpt><trkpt lat="44.9763207508678" lon="9.356636766137903"><ele>367.2</ele><time>2026-04-23T10:02:38.999Z</time></trkpt><trkpt lat="44.97619546139212" lon="9.35657143101417"><ele>368.6</ele><time>2026-04-23T10:02:40.999Z</time></trkpt><trkpt lat="44.976126414995726" lon="9.35652275234444"><ele>370.0</ele><time>2026-04-23T10:02:41.999Z</time></trkpt><trkpt lat="44.97604418836776" lon="9.356445663463782"><ele>370.0</ele><time>2026-04-23T10:02:43.999Z</time></trkpt><trkpt lat="44.97595977817339" lon="9.356379013027185"><ele>370.0</ele><time>2026-04-23T10:02:45.999Z</time></trkpt><trkpt lat="44.975934898805576" lon="9.356270653758582"><ele>370.0</ele><time>2026-04-23T10:02:47.999Z</time></trkpt><trkpt lat="44.97595686399854" lon="9.35611796954727"><ele>370.0</ele><time>2026-04-23T10:02:49.999Z</time></trkpt><trkpt lat="44.975993615613135" lon="9.356009099173557"><ele>370.0</ele><time>2026-04-23T10:02:50.999Z</time></trkpt><trkpt lat="44.97602818823104" lon="9.35589442011508"><ele>368.99999999999994</ele><time>2026-04-23T10:02:51.999Z</time></trkpt><trkpt lat="44.976063143482456" lon="9.355790184675913"><ele>368.0</ele><time>2026-04-23T10:02:52.999Z</time></trkpt><trkpt lat="44.97609078057858" lon="9.355701291898729"><ele>367.0</ele><time>2026-04-23T10:02:53.999Z</time></trkpt><trkpt lat="44.9761282122811" lon="9.355617163353546"><ele>366.0</ele><time>2026-04-23T10:02:54.999Z</time></trkpt><trkpt lat="44.97615510475848" lon="9.355531313582205"><ele>365.0</ele><time>2026-04-23T10:02:55.999Z</time></trkpt><trkpt lat="44.976174354615715" lon="9.355409039538491"><ele>363.99999999999994</ele><time>2026-04-23T10:02:57.999Z</time></trkpt><trkpt lat="44.97619749446012" lon="9.355315612566585"><ele>363.0</ele><time>2026-04-23T10:03:00.999Z</time></trkpt><trkpt lat="44.976213368936655" lon="9.355220929974218"><ele>361.1666666666667</ele><time>2026-04-23T10:03:01.998Z</time></trkpt><trkpt lat="44.97622528775406" lon="9.355127833515676"><ele>359.3333333333333</ele><time>2026-04-23T10:03:02.998Z</time></trkpt><trkpt lat="44.97624738298175" lon="9.355002938637833"><ele>357.5</ele><time>2026-04-23T10:03:04.998Z</time></trkpt><trkpt lat="44.976293329210684" lon="9.35493063186057"><ele>355.66666666666663</ele><time>2026-04-23T10:03:07.998Z</time></trkpt><trkpt lat="44.976381847856736" lon="9.354952339339485"><ele>353.8333333333333</ele><time>2026-04-23T10:03:16Z</time></trkpt><trkpt lat="44.97641636254086" lon="9.355095396013377"><ele>352.0</ele><time>2026-04-23T10:03:18Z</time></trkpt><trkpt lat="44.97638790455838" lon="9.355182614713419"><ele>352.0</ele><time>2026-04-23T10:03:20Z</time></trkpt><trkpt lat="44.97635034954342" lon="9.35532886071777"><ele>352.0</ele><time>2026-04-23T10:03:22Z</time></trkpt><trkpt lat="44.976330004124144" lon="9.355491205034355"><ele>352.0</ele><time>2026-04-23T10:03:24Z</time></trkpt><trkpt lat="44.976314057880145" lon="9.35557848902378"><ele>352.0</ele><time>2026-04-23T10:03:25Z</time></trkpt><trkpt lat="44.976289300466405" lon="9.355668040275132"><ele>352.0</ele><time>2026-04-23T10:03:26Z</time></trkpt><trkpt lat="44.97625409014717" lon="9.355831950809996"><ele>354.20000000000005</ele><time>2026-04-23T10:03:28Z</time></trkpt><trkpt lat="44.976232811477544" lon="9.355935472917238"><ele>356.4</ele><time>2026-04-23T10:03:29Z</time></trkpt><trkpt lat="44.976205660444656" lon="9.356029007502535"><ele>358.6</ele><time>2026-04-23T10:03:30Z</time></trkpt><trkpt lat="44.97616806435445" lon="9.356132793166127"><ele>360.79999999999995</ele><time>2026-04-23T10:03:32Z</time></trkpt><trkpt lat="44.97616322278852" lon="9.356286352991212"><ele>363.0</ele><time>2026-04-23T10:03:34Z</time></trkpt><trkpt lat="44.97625887744971" lon="9.356386319307413"><ele>363.0</ele><time>2026-04-23T10:03:36Z</time></trkpt><trkpt lat="44.97636340522471" lon="9.35635066461816"><ele>363.0</ele><time>2026-04-23T10:03:38Z</time></trkpt><trkpt lat="44.97640639535186" lon="9.35627827828388"><ele>363.0</ele><time>2026-04-23T10:03:40Z</time></trkpt><trkpt lat="44.976510223973" lon="9.356258289754287"><ele>363.0</ele><time>2026-04-23T10:03:53Z</time></trkpt><trkpt lat="44.976578108969775" lon="9.356232456892206"><ele>363.0</ele><time>2026-04-23T10:03:56Z</time></trkpt><trkpt lat="44.97659813774783" lon="9.35613097995081"><ele>363.0</ele><time>2026-04-23T10:03:59Z</time></trkpt><trkpt lat="44.97660117505164" lon="9.35603146139493"><ele>363.0</ele><time>2026-04-23T10:04:15.999Z</time></trkpt><trkpt lat="44.976609353779146" lon="9.355940333187528"><ele>363.0</ele><time>2026-04-23T10:04:17.999Z</time></trkpt><trkpt lat="44.976608014393534" lon="9.355836927335279"><ele>363.0</ele><time>2026-04-23T10:04:19.999Z</time></trkpt><trkpt lat="44.97661152517681" lon="9.355652789380931"><ele>363.0</ele><time>2026-04-23T10:04:21.999Z</time></trkpt><trkpt lat="44.976604528401225" lon="9.355558758520964"><ele>363.0</ele><time>2026-04-23T10:04:22.999Z</time></trkpt><trkpt lat="44.976592081077776" lon="9.355468056527718"><ele>363.0</ele><time>2026-04-23T10:04:23.999Z</time></trkpt><trkpt lat="44.976574239245984" lon="9.355323083813888"><ele>360.79999999999995</ele><time>2026-04-23T10:04:25.999Z</time></trkpt><trkpt lat="44.97659477547016" lon="9.355188948720064"><ele>358.6</ele><time>2026-04-23T10:04:27.999Z</time></trkpt><trkpt lat="44.97663302753116" lon="9.355029253930915"><ele>356.4</ele><time>2026-04-23T10:04:29.999Z</time></trkpt><trkpt lat="44.97665975558788" lon="9.354897372360547"><ele>354.20000000000005</ele><time>2026-04-23T10:04:31.999Z</time></trkpt><trkpt lat="44.97667723455313" lon="9.35478392284638"><ele>352.0</ele><time>2026-04-23T10:04:33.999Z</time></trkpt><trkpt lat="44.97660515748116" lon="9.354740361933354"><ele>352.0</ele><time>2026-04-23T10:04:36.999Z</time></trkpt><trkpt lat="44.97659162192522" lon="9.354912900545544"><ele>352.0</ele><time>2026-04-23T10:04:38.999Z</time></trkpt><trkpt lat="44.976575786041785" lon="9.355046791721238"><ele>352.0</ele><time>2026-04-23T10:04:40.999Z</time></trkpt><trkpt lat="44.97650985757682" lon="9.354988095253713"><ele>352.0</ele><time>2026-04-23T10:04:42.999Z</time></trkpt><trkpt lat="44.9765135708418" lon="9.354839042645962"><ele>352.0</ele><time>2026-04-23T10:04:44.999Z</time></trkpt><trkpt lat="44.97656131757759" lon="9.354770855882826"><ele>350.0</ele><time>2026-04-23T10:04:45.999Z</time></trkpt><trkpt lat="44.97664323094362" lon="9.354663296449393"><ele>348.0</ele><time>2026-04-23T10:04:47.999Z</time></trkpt><trkpt lat="44.97671776213512" lon="9.354600845570216"><ele>346.0</ele><time>2026-04-23T10:04:49.999Z</time></trkpt><trkpt lat="44.976747898280024" lon="9.354456673717603"><ele>344.0</ele><time>2026-04-23T10:04:51.999Z</time></trkpt><trkpt lat="44.97672961150336" lon="9.35435068155893"><ele>342.0</ele><time>2026-04-23T10:04:53.999Z</time></trkpt><trkpt lat="44.97665854548449" lon="9.354403253768496"><ele>342.0</ele><time>2026-04-23T10:04:56.999Z</time></trkpt><trkpt lat="44.976668367879896" lon="9.354498908744953"><ele>342.0</ele><time>2026-04-23T10:04:57.999Z</time></trkpt><trkpt lat="44.9766945594142" lon="9.354582941497476"><ele>342.0</ele><time>2026-04-23T10:04:58.999Z</time></trkpt><trkpt lat="44.97661557969954" lon="9.354657650083661"><ele>342.0</ele><time>2026-04-23T10:05:00.999Z</time></trkpt><trkpt lat="44.97654057191621" lon="9.35464871619783"><ele>342.0</ele><time>2026-04-23T10:05:01.999Z</time></trkpt><trkpt lat="44.97646400969687" lon="9.354706141380657"><ele>342.0</ele><time>2026-04-23T10:05:03.999Z</time></trkpt><trkpt lat="44.97645886579911" lon="9.354922471999224"><ele>344.0</ele><time>2026-04-23T10:05:05.999Z</time></trkpt><trkpt lat="44.97645433486085" lon="9.355060601536909"><ele>346.0</ele><time>2026-04-23T10:05:06.999Z</time></trkpt><trkpt lat="44.97645296362226" lon="9.35520421906053"><ele>348.0</ele><time>2026-04-23T10:05:07.999Z</time></trkpt><trkpt lat="44.97644426218895" lon="9.355359254236097"><ele>350.0</ele><time>2026-04-23T10:05:08.999Z</time></trkpt><trkpt lat="44.97642426274951" lon="9.35549739196063"><ele>352.0</ele><time>2026-04-23T10:05:09.998Z</time></trkpt><trkpt lat="44.97641083528672" lon="9.355607564477802"><ele>353.8333333333333</ele><time>2026-04-23T10:05:10.998Z</time></trkpt><trkpt lat="44.976399417094086" lon="9.355695458888393"><ele>355.66666666666663</ele><time>2026-04-23T10:05:11.998Z</time></trkpt><trkpt lat="44.976396394174785" lon="9.355872829343024"><ele>357.5</ele><time>2026-04-23T10:05:13.998Z</time></trkpt><trkpt lat="44.97639588826921" lon="9.355988488119403"><ele>359.3333333333333</ele><time>2026-04-23T10:05:14.998Z</time></trkpt><trkpt lat="44.97640255110494" lon="9.356118681395042"><ele>361.1666666666667</ele><time>2026-04-23T10:05:15.998Z</time></trkpt><trkpt lat="44.97640620365713" lon="9.356230099793473"><ele>363.0</ele><time>2026-04-23T10:05:16.998Z</time></trkpt><trkpt lat="44.97637240721636" lon="9.356360578904278"><ele>363.0</ele><time>2026-04-23T10:05:18.998Z</time></trkpt><trkpt lat="44.976271659579425" lon="9.356387604526276"><ele>363.0</ele><time>2026-04-23T10:05:21Z</time></trkpt><trkpt lat="44.97620162586174" lon="9.356349482076226"><ele>363.0</ele><time>2026-04-23T10:05:22Z</time></trkpt><trkpt lat="44.976153787668245" lon="9.356279942389682"><ele>363.0</ele><time>2026-04-23T10:05:23Z</time></trkpt><trkpt lat="44.9761618108321" lon="9.356130311228021"><ele>363.0</ele><time>2026-04-23T10:05:25Z</time></trkpt><trkpt lat="44.97620850216903" lon="9.355990017466626"><ele>363.0</ele><time>2026-04-23T10:05:27Z</time></trkpt><trkpt lat="44.97623170242551" lon="9.35590328375886"><ele>363.0</ele><time>2026-04-23T10:05:28Z</time></trkpt><trkpt lat="44.97625582560526" lon="9.355812483223346"><ele>363.0</ele><time>2026-04-23T10:05:29Z</time></trkpt><trkpt lat="44.97627678600329" lon="9.35571772290812"><ele>363.0</ele><time>2026-04-23T10:05:30Z</time></trkpt><trkpt lat="44.976312364898114" lon="9.355571008763075"><ele>363.0</ele><time>2026-04-23T10:05:32Z</time></trkpt><trkpt lat="44.97633336306626" lon="9.355437213331504"><ele>363.0</ele><time>2026-04-23T10:05:34Z</time></trkpt><trkpt lat="44.97635748773155" lon="9.355298342028384"><ele>361.1666666666667</ele><time>2026-04-23T10:05:36Z</time></trkpt><trkpt lat="44.97637353080281" lon="9.3551848832523"><ele>359.3333333333333</ele><time>2026-04-23T10:05:38Z</time></trkpt><trkpt lat="44.97638478107664" lon="9.355076387884038"><ele>357.5</ele><time>2026-04-23T10:05:43Z</time></trkpt><trkpt lat="44.97638940358048" lon="9.354961652868651"><ele>355.66666666666663</ele><time>2026-04-23T10:05:45Z</time></trkpt><trkpt lat="44.97631385427928" lon="9.354920337267925"><ele>353.8333333333333</ele><time>2026-04-23T10:05:48Z</time></trkpt><trkpt lat="44.976245628031485" lon="9.354984589607932"><ele>352.0</ele><time>2026-04-23T10:05:50Z</time></trkpt><trkpt lat="44.97621607601202" lon="9.355127107359218"><ele>352.0</ele><time>2026-04-23T10:05:52Z</time></trkpt><trkpt lat="44.97621754768148" lon="9.355236311804138"><ele>352.0</ele><time>2026-04-23T10:05:53Z</time></trkpt><trkpt lat="44.976211863045336" lon="9.355334697255408"><ele>352.0</ele><time>2026-04-23T10:05:54Z</time></trkpt><trkpt lat="44.97618430529929" lon="9.355421949132722"><ele>352.0</ele><time>2026-04-23T10:05:55Z</time></trkpt><trkpt lat="44.976163932551124" lon="9.355511198838844"><ele>352.0</ele><time>2026-04-23T10:05:56Z</time></trkpt><trkpt lat="44.976135449595" lon="9.355615750214712"><ele>352.0</ele><time>2026-04-23T10:05:57Z</time></trkpt><trkpt lat="44.976108292108385" lon="9.35572707583812"><ele>352.0</ele><time>2026-04-23T10:05:58Z</time></trkpt><trkpt lat="44.976074506138055" lon="9.355844651750742"><ele>353.8333333333333</ele><time>2026-04-23T10:05:59Z</time></trkpt><trkpt lat="44.976023461957965" lon="9.35596742764131"><ele>355.66666666666663</ele><time>2026-04-23T10:06:00Z</time></trkpt><trkpt lat="44.97597881513068" lon="9.356085569767858"><ele>357.5</ele><time>2026-04-23T10:06:01Z</time></trkpt><trkpt lat="44.97594884205783" lon="9.356184693112283"><ele>359.3333333333333</ele><time>2026-04-23T10:06:01.999Z</time></trkpt><trkpt lat="44.975934639675245" lon="9.35627956637198"><ele>361.1666666666667</ele><time>2026-04-23T10:06:02.999Z</time></trkpt><trkpt lat="44.97594245481962" lon="9.356371319241521"><ele>363.0</ele><time>2026-04-23T10:06:03.999Z</time></trkpt><trkpt lat="44.975987505774555" lon="9.35645698140408"><ele>364.1666666666667</ele><time>2026-04-23T10:06:04.999Z</time></trkpt><trkpt lat="44.976070325542" lon="9.356500258636203"><ele>365.3333333333333</ele><time>2026-04-23T10:06:05.999Z</time></trkpt><trkpt lat="44.97613610880933" lon="9.356525422746447"><ele>366.5</ele><time>2026-04-23T10:06:06.999Z</time></trkpt><trkpt lat="44.976259555200535" lon="9.356592426445419"><ele>367.66666666666663</ele><time>2026-04-23T10:06:08.999Z</time></trkpt><trkpt lat="44.97634216275588" lon="9.356626829923663"><ele>368.8333333333333</ele><time>2026-04-23T10:06:09.999Z</time></trkpt><trkpt lat="44.9764149878377" lon="9.356634605647127"><ele>370.0</ele><time>2026-04-23T10:06:10.999Z</time></trkpt><trkpt lat="44.97650281358641" lon="9.356570412878147"><ele>370.0</ele><time>2026-04-23T10:06:12.999Z</time></trkpt><trkpt lat="44.97656832681332" lon="9.356537279191954"><ele>370.0</ele><time>2026-04-23T10:06:16.999Z</time></trkpt><trkpt lat="44.976525622950774" lon="9.356611753601888"><ele>370.0</ele><time>2026-04-23T10:08:20.999Z</time></trkpt><trkpt lat="44.976500200034444" lon="9.356750423072059"><ele>370.0</ele><time>2026-04-23T10:08:22.999Z</time></trkpt><trkpt lat="44.97644867834033" lon="9.356855067986674"><ele>370.0</ele><time>2026-04-23T10:08:24.999Z</time></trkpt><trkpt lat="44.97639260223067" lon="9.356904171634744"><ele>370.0</ele><time>2026-04-23T10:08:25.999Z</time></trkpt><trkpt lat="44.97632406096918" lon="9.356960417174811"><ele>370.0</ele><time>2026-04-23T10:08:26.999Z</time></trkpt><trkpt lat="44.97627028598073" lon="9.357011772835474"><ele>370.0</ele><time>2026-04-23T10:08:27.999Z</time></trkpt><trkpt lat="44.97622589825316" lon="9.357076644673098"><ele>370.0</ele><time>2026-04-23T10:08:28.999Z</time></trkpt><trkpt lat="44.9761425879027" lon="9.35714082389484"><ele>370.0</ele><time>2026-04-23T10:08:29.999Z</time></trkpt><trkpt lat="44.976403513040445" lon="9.357203130169172"><ele>371.2</ele><time>2026-04-23T10:08:30.999Z</time></trkpt><trkpt lat="44.97638991124482" lon="9.357344964306241"><ele>372.4</ele><time>2026-04-23T10:08:32.999Z</time></trkpt><trkpt lat="44.976355839309775" lon="9.35750696216087"><ele>373.6</ele><time>2026-04-23T10:08:34.999Z</time></trkpt><trkpt lat="44.97633070361876" lon="9.357640561188845"><ele>374.8</ele><time>2026-04-23T10:08:36.999Z</time></trkpt><trkpt lat="44.976312399271976" lon="9.357755148478885"><ele>376.0</ele><time>2026-04-23T10:08:38.999Z</time></trkpt><trkpt lat="44.976264901067495" lon="9.357852569443315"><ele>376.0</ele><time>2026-04-23T10:08:41.999Z</time></trkpt><trkpt lat="44.97615652196543" lon="9.357858790667343"><ele>376.0</ele><time>2026-04-23T10:08:43.999Z</time></trkpt><trkpt lat="44.97605923846373" lon="9.357832481137699"><ele>376.0</ele><time>2026-04-23T10:08:45.999Z</time></trkpt><trkpt lat="44.97594164125399" lon="9.357832802083506"><ele>376.0</ele><time>2026-04-23T10:08:47.999Z</time></trkpt><trkpt lat="44.97586564855868" lon="9.357840308780446"><ele>376.0</ele><time>2026-04-23T10:08:48.999Z</time></trkpt><trkpt lat="44.97574600950782" lon="9.3578808071521"><ele>376.0</ele><time>2026-04-23T10:08:50.999Z</time></trkpt><trkpt lat="44.97564540659937" lon="9.357993482272878"><ele>376.0</ele><time>2026-04-23T10:08:52.999Z</time></trkpt><trkpt lat="44.97557690835141" lon="9.358091122359633"><ele>376.0</ele><time>2026-04-23T10:08:53.999Z</time></trkpt><trkpt lat="44.97552201281119" lon="9.358172948837497"><ele>376.0</ele><time>2026-04-23T10:08:54.999Z</time></trkpt><trkpt lat="44.97547134430243" lon="9.358264887261802"><ele>376.0</ele><time>2026-04-23T10:08:55.999Z</time></trkpt><trkpt lat="44.975415566727044" lon="9.358342939976188"><ele>376.0</ele><time>2026-04-23T10:08:56.999Z</time></trkpt><trkpt lat="44.97534457393084" lon="9.358365461311262"><ele>376.0</ele><time>2026-04-23T10:08:57.999Z</time></trkpt><trkpt lat="44.97527172178584" lon="9.358480146420236"><ele>376.0</ele><time>2026-04-23T10:08:58.999Z</time></trkpt><trkpt lat="44.975255899552295" lon="9.358606322123412"><ele>376.0</ele><time>2026-04-23T10:08:59.999Z</time></trkpt><trkpt lat="44.97518005054172" lon="9.358683281816104"><ele>376.0</ele><time>2026-04-23T10:09:00.999Z</time></trkpt><trkpt lat="44.97509972050879" lon="9.358736365966543"><ele>377.5</ele><time>2026-04-23T10:09:01.999Z</time></trkpt><trkpt lat="44.97501511875755" lon="9.35877716178648"><ele>379.0</ele><time>2026-04-23T10:09:02.999Z</time></trkpt><trkpt lat="44.97493702403598" lon="9.358812075175612"><ele>380.5</ele><time>2026-04-23T10:09:03.999Z</time></trkpt><trkpt lat="44.9748545228928" lon="9.358836460674654"><ele>382.0</ele><time>2026-04-23T10:09:04.999Z</time></trkpt><trkpt lat="44.97476714271408" lon="9.358848118025987"><ele>383.50000000000006</ele><time>2026-04-23T10:09:05.999Z</time></trkpt><trkpt lat="44.974680527057764" lon="9.35885612097448"><ele>385.0</ele><time>2026-04-23T10:09:06.999Z</time></trkpt><trkpt lat="44.974595933766736" lon="9.358857357675669"><ele>385.00000000000006</ele><time>2026-04-23T10:09:07.999Z</time></trkpt><trkpt lat="44.97451320357543" lon="9.3588714425296"><ele>385.0</ele><time>2026-04-23T10:09:08.999Z</time></trkpt><trkpt lat="44.97442888934546" lon="9.358847732684508"><ele>385.0</ele><time>2026-04-23T10:09:09.999Z</time></trkpt><trkpt lat="44.97434256990769" lon="9.358838920185153"><ele>385.0</ele><time>2026-04-23T10:09:10.999Z</time></trkpt><trkpt lat="44.974257217763494" lon="9.35883638543344"><ele>385.00000000000006</ele><time>2026-04-23T10:09:11.999Z</time></trkpt><trkpt lat="44.974177132654546" lon="9.358800958773784"><ele>385.0</ele><time>2026-04-23T10:09:12.999Z</time></trkpt><trkpt lat="44.97409767964459" lon="9.358767032960987"><ele>386.1666666666667</ele><time>2026-04-23T10:09:13.999Z</time></trkpt><trkpt lat="44.97402380158493" lon="9.358726844749757"><ele>387.33333333333337</ele><time>2026-04-23T10:09:14.999Z</time></trkpt><trkpt lat="44.9739527779604" lon="9.358675304679142"><ele>388.5</ele><time>2026-04-23T10:09:15.999Z</time></trkpt><trkpt lat="44.973895273916604" lon="9.35861172857556"><ele>389.66666666666663</ele><time>2026-04-23T10:09:16.999Z</time></trkpt><trkpt lat="44.97383627341451" lon="9.358561639195397"><ele>390.8333333333333</ele><time>2026-04-23T10:09:17.999Z</time></trkpt><trkpt lat="44.973766328074305" lon="9.358514396440786"><ele>392.0</ele><time>2026-04-23T10:09:18.999Z</time></trkpt><trkpt lat="44.97370437533476" lon="9.358444837817258"><ele>391.99999999999994</ele><time>2026-04-23T10:09:19.998Z</time></trkpt><trkpt lat="44.973630874869954" lon="9.358412104196422"><ele>392.0</ele><time>2026-04-23T10:09:20.998Z</time></trkpt><trkpt lat="44.97356880562459" lon="9.358365934124363"><ele>392.0</ele><time>2026-04-23T10:09:21.998Z</time></trkpt><trkpt lat="44.97347655473975" lon="9.358302795499002"><ele>392.0</ele><time>2026-04-23T10:09:23.998Z</time></trkpt><trkpt lat="44.97341704078551" lon="9.358237915556476"><ele>391.99999999999994</ele><time>2026-04-23T10:09:25.998Z</time></trkpt><trkpt lat="44.97341955080214" lon="9.358130793901863"><ele>392.0</ele><time>2026-04-23T10:09:27.998Z</time></trkpt><trkpt lat="44.9734079558394" lon="9.357996817177325"><ele>391.40000000000003</ele><time>2026-04-23T10:09:29.998Z</time></trkpt><trkpt lat="44.97340440903702" lon="9.357851536918332"><ele>390.8</ele><time>2026-04-23T10:09:31.998Z</time></trkpt><trkpt lat="44.97339017145394" lon="9.357732082556703"><ele>390.2</ele><time>2026-04-23T10:09:34Z</time></trkpt><trkpt lat="44.973397360102254" lon="9.357600158017332"><ele>389.6</ele><time>2026-04-23T10:09:36Z</time></trkpt><trkpt lat="44.97338435438666" lon="9.35746984194374"><ele>389.0</ele><time>2026-04-23T10:09:38Z</time></trkpt><trkpt lat="44.97337654555209" lon="9.357336849553183"><ele>389.0</ele><time>2026-04-23T10:09:40Z</time></trkpt><trkpt lat="44.97335390387966" lon="9.35721496796866"><ele>389.0</ele><time>2026-04-23T10:09:42Z</time></trkpt><trkpt lat="44.97333250025618" lon="9.35708176032683"><ele>389.0</ele><time>2026-04-23T10:09:44Z</time></trkpt><trkpt lat="44.97333248788409" lon="9.356953450621555"><ele>389.0</ele><time>2026-04-23T10:09:46Z</time></trkpt><trkpt lat="44.97329574393171" lon="9.356835231363991"><ele>389.0</ele><time>2026-04-23T10:09:48Z</time></trkpt><trkpt lat="44.973277438599816" lon="9.356705361404844"><ele>388.99999999999994</ele><time>2026-04-23T10:09:50Z</time></trkpt><trkpt lat="44.97322792236504" lon="9.356604010486457"><ele>389.0</ele><time>2026-04-23T10:09:52Z</time></trkpt><trkpt lat="44.97319955084665" lon="9.356492265517634"><ele>389.0</ele><time>2026-04-23T10:09:54Z</time></trkpt><trkpt lat="44.9731461521745" lon="9.356408474795451"><ele>389.0</ele><time>2026-04-23T10:09:56Z</time></trkpt><trkpt lat="44.97309866649781" lon="9.356321073660277"><ele>388.99999999999994</ele><time>2026-04-23T10:09:58Z</time></trkpt><trkpt lat="44.97304963124326" lon="9.356261017266077"><ele>389.0</ele><time>2026-04-23T10:10:00Z</time></trkpt><trkpt lat="44.97299920358127" lon="9.356171952296682"><ele>388.2</ele><time>2026-04-23T10:10:03Z</time></trkpt><trkpt lat="44.97295253968216" lon="9.356079980486449"><ele>387.4</ele><time>2026-04-23T10:10:07Z</time></trkpt><trkpt lat="44.97286749754265" lon="9.356006020458011"><ele>386.6</ele><time>2026-04-23T10:10:36.999Z</time></trkpt><trkpt lat="44.97278404688515" lon="9.355888059685453"><ele>385.8</ele><time>2026-04-23T10:10:38.999Z</time></trkpt><trkpt lat="44.972732258302" lon="9.355834970907722"><ele>385.0</ele><time>2026-04-23T10:10:39.999Z</time></trkpt><trkpt lat="44.972528153412455" lon="9.355499755901556"><ele>385.50000000000006</ele><time>2026-04-23T10:10:44.999Z</time></trkpt><trkpt lat="44.97244936392309" lon="9.355373545273727"><ele>386.0</ele><time>2026-04-23T10:10:46.999Z</time></trkpt><trkpt lat="44.97241641166982" lon="9.355271934008691"><ele>386.5</ele><time>2026-04-23T10:10:47.999Z</time></trkpt><trkpt lat="44.97237677420928" lon="9.355189008039396"><ele>387.0</ele><time>2026-04-23T10:10:48.999Z</time></trkpt><trkpt lat="44.9723401025785" lon="9.355105054285055"><ele>387.50000000000006</ele><time>2026-04-23T10:10:49.999Z</time></trkpt><trkpt lat="44.972293273990594" lon="9.355029837721412"><ele>388.0</ele><time>2026-04-23T10:10:50.999Z</time></trkpt><trkpt lat="44.97227676500401" lon="9.354942976553083"><ele>388.0</ele><time>2026-04-23T10:10:51.999Z</time></trkpt><trkpt lat="44.97226803553319" lon="9.354768031759017"><ele>388.0</ele><time>2026-04-23T10:10:53.999Z</time></trkpt><trkpt lat="44.97226854594985" lon="9.354639394057802"><ele>388.0</ele><time>2026-04-23T10:10:54.999Z</time></trkpt><trkpt lat="44.97227040610251" lon="9.354504825588227"><ele>388.0</ele><time>2026-04-23T10:10:55.999Z</time></trkpt><trkpt lat="44.972258523900585" lon="9.354389678885916"><ele>388.0</ele><time>2026-04-23T10:10:56.999Z</time></trkpt><trkpt lat="44.972269069474144" lon="9.354262781660314"><ele>388.1666666666667</ele><time>2026-04-23T10:10:57.999Z</time></trkpt><trkpt lat="44.9722615759995" lon="9.35414987378573"><ele>388.33333333333337</ele><time>2026-04-23T10:10:58.999Z</time></trkpt><trkpt lat="44.97223183759318" lon="9.35401972515233"><ele>388.5</ele><time>2026-04-23T10:10:59.999Z</time></trkpt><trkpt lat="44.97218717343167" lon="9.353912929517458"><ele>388.66666666666663</ele><time>2026-04-23T10:11:00.999Z</time></trkpt><trkpt lat="44.97215264938251" lon="9.35380184755108"><ele>388.8333333333333</ele><time>2026-04-23T10:11:01.999Z</time></trkpt><trkpt lat="44.972108401297604" lon="9.353691176495795"><ele>389.0</ele><time>2026-04-23T10:11:02.999Z</time></trkpt><trkpt lat="44.97206220184975" lon="9.353583658167823"><ele>389.0</ele><time>2026-04-23T10:11:03.999Z</time></trkpt><trkpt lat="44.97201215994329" lon="9.353467197705145"><ele>389.0</ele><time>2026-04-23T10:11:04.999Z</time></trkpt><trkpt lat="44.971969148580605" lon="9.353361549338514"><ele>389.0</ele><time>2026-04-23T10:11:05.999Z</time></trkpt><trkpt lat="44.971917607159384" lon="9.353247236759554"><ele>389.0</ele><time>2026-04-23T10:11:06.999Z</time></trkpt><trkpt lat="44.97186264529248" lon="9.35312666879353"><ele>389.0</ele><time>2026-04-23T10:11:07.999Z</time></trkpt><trkpt lat="44.971814818537204" lon="9.35300262581054"><ele>388.0</ele><time>2026-04-23T10:11:08.999Z</time></trkpt><trkpt lat="44.971774211968054" lon="9.352874905540483"><ele>387.0</ele><time>2026-04-23T10:11:09.999Z</time></trkpt><trkpt lat="44.971720816677234" lon="9.352763789045836"><ele>386.0</ele><time>2026-04-23T10:11:10.999Z</time></trkpt><trkpt lat="44.97167863083187" lon="9.352649090403686"><ele>385.0</ele><time>2026-04-23T10:11:11.999Z</time></trkpt><trkpt lat="44.97163653251235" lon="9.352532546145369"><ele>384.0</ele><time>2026-04-23T10:11:12.999Z</time></trkpt><trkpt lat="44.97159395799406" lon="9.352422081603665"><ele>386.2</ele><time>2026-04-23T10:11:13.999Z</time></trkpt><trkpt lat="44.971546333110034" lon="9.352304909011202"><ele>388.4</ele><time>2026-04-23T10:11:14.999Z</time></trkpt><trkpt lat="44.971500842468004" lon="9.352179239486954"><ele>390.6</ele><time>2026-04-23T10:11:15.999Z</time></trkpt><trkpt lat="44.9714554739474" lon="9.352049446220265"><ele>392.8</ele><time>2026-04-23T10:11:16.999Z</time></trkpt><trkpt lat="44.97141807605564" lon="9.351920077036509"><ele>395.0</ele><time>2026-04-23T10:11:17.999Z</time></trkpt><trkpt lat="44.971372266347004" lon="9.351802189393286"><ele>394.99999999999994</ele><time>2026-04-23T10:11:18.999Z</time></trkpt><trkpt lat="44.971331342318614" lon="9.351688445990305"><ele>395.0</ele><time>2026-04-23T10:11:19.999Z</time></trkpt><trkpt lat="44.971296469712165" lon="9.351574225293382"><ele>395.0</ele><time>2026-04-23T10:11:20.999Z</time></trkpt><trkpt lat="44.97124695101891" lon="9.351469897648384"><ele>395.0</ele><time>2026-04-23T10:11:21.999Z</time></trkpt><trkpt lat="44.97119070178245" lon="9.351373315459368"><ele>394.99999999999994</ele><time>2026-04-23T10:11:22.998Z</time></trkpt><trkpt lat="44.97114358578024" lon="9.351270289891582"><ele>395.0</ele><time>2026-04-23T10:11:23.998Z</time></trkpt><trkpt lat="44.971095747040415" lon="9.35116079739373"><ele>395.0</ele><time>2026-04-23T10:11:24.998Z</time></trkpt><trkpt lat="44.97103920316709" lon="9.351046016232567"><ele>395.0</ele><time>2026-04-23T10:11:25.998Z</time></trkpt><trkpt lat="44.97097593826653" lon="9.350929151546705"><ele>395.0</ele><time>2026-04-23T10:11:26.998Z</time></trkpt><trkpt lat="44.97090881542438" lon="9.35081954031273"><ele>395.0</ele><time>2026-04-23T10:11:27.998Z</time></trkpt><trkpt lat="44.97084600858249" lon="9.350711654345254"><ele>395.0</ele><time>2026-04-23T10:11:28.998Z</time></trkpt><trkpt lat="44.97078434374212" lon="9.35060469829123"><ele>395.0</ele><time>2026-04-23T10:11:29.998Z</time></trkpt><trkpt lat="44.970722224057525" lon="9.350495552766418"><ele>395.0</ele><time>2026-04-23T10:11:30.998Z</time></trkpt><trkpt lat="44.970664145228106" lon="9.350389065665613"><ele>395.0</ele><time>2026-04-23T10:11:31.998Z</time></trkpt><trkpt lat="44.970596617118574" lon="9.350292068533337"><ele>395.0</ele><time>2026-04-23T10:11:32.998Z</time></trkpt><trkpt lat="44.970523321880194" lon="9.350192982894407"><ele>395.0</ele><time>2026-04-23T10:11:33.998Z</time></trkpt><trkpt lat="44.970443638928636" lon="9.350097415156476"><ele>394.99999999999994</ele><time>2026-04-23T10:11:34.998Z</time></trkpt><trkpt lat="44.970372086551315" lon="9.350004156827938"><ele>395.0</ele><time>2026-04-23T10:11:35.998Z</time></trkpt><trkpt lat="44.970296780943286" lon="9.349925163992683"><ele>395.0</ele><time>2026-04-23T10:11:36.998Z</time></trkpt><trkpt lat="44.970230700662725" lon="9.34983746437704"><ele>395.0</ele><time>2026-04-23T10:11:37.998Z</time></trkpt><trkpt lat="44.970164676069146" lon="9.349761354407955"><ele>394.99999999999994</ele><time>2026-04-23T10:11:39Z</time></trkpt><trkpt lat="44.97010308991362" lon="9.349695456720422"><ele>395.0</ele><time>2026-04-23T10:11:40Z</time></trkpt><trkpt lat="44.970038503036996" lon="9.349632577421232"><ele>394.99999999999994</ele><time>2026-04-23T10:11:41Z</time></trkpt><trkpt lat="44.96997907201689" lon="9.34957150212385"><ele>395.0</ele><time>2026-04-23T10:11:42Z</time></trkpt><trkpt lat="44.9699195550057" lon="9.349502988565314"><ele>395.0</ele><time>2026-04-23T10:11:43Z</time></trkpt><trkpt lat="44.96986867221416" lon="9.349425375329021"><ele>395.0</ele><time>2026-04-23T10:11:44Z</time></trkpt><trkpt lat="44.96981619813583" lon="9.349334268611305"><ele>394.99999999999994</ele><time>2026-04-23T10:11:45Z</time></trkpt><trkpt lat="44.9697681338299" lon="9.349233226207241"><ele>395.0</ele><time>2026-04-23T10:11:46Z</time></trkpt><trkpt lat="44.96972817276897" lon="9.349119979102248"><ele>395.0</ele><time>2026-04-23T10:11:47Z</time></trkpt><trkpt lat="44.969685341113475" lon="9.349008099798747"><ele>395.0</ele><time>2026-04-23T10:11:48Z</time></trkpt><trkpt lat="44.969651002775265" lon="9.348875752000145"><ele>395.0</ele><time>2026-04-23T10:11:49Z</time></trkpt><trkpt lat="44.96959659242531" lon="9.348758257544993"><ele>395.0</ele><time>2026-04-23T10:11:50Z</time></trkpt><trkpt lat="44.96955738916094" lon="9.348631859393251"><ele>395.0</ele><time>2026-04-23T10:11:51Z</time></trkpt><trkpt lat="44.969523217171016" lon="9.348505924128517"><ele>394.8</ele><time>2026-04-23T10:11:52Z</time></trkpt><trkpt lat="44.96948112636816" lon="9.348389840232109"><ele>394.6</ele><time>2026-04-23T10:11:53Z</time></trkpt><trkpt lat="44.9694423206759" lon="9.348262161607297"><ele>394.4</ele><time>2026-04-23T10:11:54Z</time></trkpt><trkpt lat="44.969394878376455" lon="9.34813299171189"><ele>394.2</ele><time>2026-04-23T10:11:55Z</time></trkpt><trkpt lat="44.96934654839182" lon="9.348010214023269"><ele>394.0</ele><time>2026-04-23T10:11:56Z</time></trkpt><trkpt lat="44.96930676337644" lon="9.34787417764615"><ele>395.25</ele><time>2026-04-23T10:11:57Z</time></trkpt><trkpt lat="44.9692654191856" lon="9.347725519312053"><ele>396.5</ele><time>2026-04-23T10:11:58Z</time></trkpt><trkpt lat="44.96922085417249" lon="9.347558371955405"><ele>397.75</ele><time>2026-04-23T10:11:59Z</time></trkpt><trkpt lat="44.969177094335656" lon="9.34738422624959"><ele>399.0</ele><time>2026-04-23T10:12:00Z</time></trkpt><trkpt lat="44.96918120508158" lon="9.347216103255544"><ele>402.4</ele><time>2026-04-23T10:12:01Z</time></trkpt><trkpt lat="44.96917659491037" lon="9.347066359599328"><ele>405.79999999999995</ele><time>2026-04-23T10:12:02Z</time></trkpt><trkpt lat="44.969160221677065" lon="9.346923021394717"><ele>409.20000000000005</ele><time>2026-04-23T10:12:03Z</time></trkpt><trkpt lat="44.96916249723277" lon="9.346785228919822"><ele>412.6</ele><time>2026-04-23T10:12:04Z</time></trkpt><trkpt lat="44.96915569040375" lon="9.34664968519379"><ele>416.0</ele><time>2026-04-23T10:12:05Z</time></trkpt><trkpt lat="44.96914195978588" lon="9.34653268027321"><ele>415.99999999999994</ele><time>2026-04-23T10:12:06Z</time></trkpt><trkpt lat="44.96912830799099" lon="9.346414044254724"><ele>416.0</ele><time>2026-04-23T10:12:07Z</time></trkpt><trkpt lat="44.96911194784121" lon="9.346321758610397"><ele>416.0</ele><time>2026-04-23T10:12:08Z</time></trkpt><trkpt lat="44.969095581234264" lon="9.346232801683913"><ele>416.0</ele><time>2026-04-23T10:12:09Z</time></trkpt><trkpt lat="44.96906580775352" lon="9.346120498848812"><ele>415.99999999999994</ele><time>2026-04-23T10:12:11Z</time></trkpt><trkpt lat="44.96905598787521" lon="9.3460129514731"><ele>416.0</ele><time>2026-04-23T10:12:14Z</time></trkpt><trkpt lat="44.96902508084247" lon="9.346114424807615"><ele>416.0</ele><time>2026-04-23T10:12:22Z</time></trkpt><trkpt lat="44.969106270997194" lon="9.346274388790109"><ele>416.0</ele><time>2026-04-23T10:12:24Z</time></trkpt><trkpt lat="44.96911325122461" lon="9.346437388546548"><ele>416.0</ele><time>2026-04-23T10:12:25.999Z</time></trkpt><trkpt lat="44.96913356206927" lon="9.34660321886025"><ele>416.0</ele><time>2026-04-23T10:12:27.999Z</time></trkpt><trkpt lat="44.96914256654659" lon="9.34669265689271"><ele>416.0</ele><time>2026-04-23T10:12:28.999Z</time></trkpt><trkpt lat="44.96914950377493" lon="9.346785426464105"><ele>416.0</ele><time>2026-04-23T10:12:29.999Z</time></trkpt><trkpt lat="44.96914933029878" lon="9.346876322372863"><ele>416.0</ele><time>2026-04-23T10:12:30.999Z</time></trkpt><trkpt lat="44.969143760202606" lon="9.3469713171773"><ele>416.0</ele><time>2026-04-23T10:12:31.999Z</time></trkpt><trkpt lat="44.96914595538358" lon="9.347065768854401"><ele>416.0</ele><time>2026-04-23T10:12:32.999Z</time></trkpt><trkpt lat="44.969155388942895" lon="9.347156368645333"><ele>416.0</ele><time>2026-04-23T10:12:33.999Z</time></trkpt><trkpt lat="44.96916081535492" lon="9.347248083982436"><ele>416.0</ele><time>2026-04-23T10:12:34.999Z</time></trkpt><trkpt lat="44.96916389504499" lon="9.347342412283375"><ele>416.0</ele><time>2026-04-23T10:12:35.999Z</time></trkpt><trkpt lat="44.96916727985807" lon="9.347434706865394"><ele>414.20000000000005</ele><time>2026-04-23T10:12:36.999Z</time></trkpt><trkpt lat="44.96918005561427" lon="9.34752226839111"><ele>412.40000000000003</ele><time>2026-04-23T10:12:37.999Z</time></trkpt><trkpt lat="44.96920476513568" lon="9.347606995411372"><ele>410.6</ele><time>2026-04-23T10:12:38.999Z</time></trkpt><trkpt lat="44.96925240795014" lon="9.347773904528445"><ele>408.8</ele><time>2026-04-23T10:12:40.999Z</time></trkpt><trkpt lat="44.96931781585392" lon="9.347938684726522"><ele>407.0</ele><time>2026-04-23T10:12:42.999Z</time></trkpt><trkpt lat="44.969354986172085" lon="9.348049418758205"><ele>404.40000000000003</ele><time>2026-04-23T10:12:43.999Z</time></trkpt><trkpt lat="44.969391790629714" lon="9.348176333152157"><ele>401.8</ele><time>2026-04-23T10:12:44.999Z</time></trkpt><trkpt lat="44.96942880148273" lon="9.348302607317471"><ele>399.2</ele><time>2026-04-23T10:12:45.999Z</time></trkpt><trkpt lat="44.96946553785611" lon="9.348427470237457"><ele>396.6</ele><time>2026-04-23T10:12:46.999Z</time></trkpt><trkpt lat="44.96951136510067" lon="9.34854595866874"><ele>394.0</ele><time>2026-04-23T10:12:47.999Z</time></trkpt><trkpt lat="44.969548657808" lon="9.348660264802906"><ele>394.00000000000006</ele><time>2026-04-23T10:12:48.999Z</time></trkpt><trkpt lat="44.969589900415784" lon="9.348777455567264"><ele>394.0</ele><time>2026-04-23T10:12:49.999Z</time></trkpt><trkpt lat="44.969620522550194" lon="9.348895346140779"><ele>394.0</ele><time>2026-04-23T10:12:50.999Z</time></trkpt><trkpt lat="44.969655338833576" lon="9.349000951529895"><ele>394.0</ele><time>2026-04-23T10:12:51.999Z</time></trkpt><trkpt lat="44.96969534314612" lon="9.349089153010258"><ele>394.00000000000006</ele><time>2026-04-23T10:12:52.999Z</time></trkpt><trkpt lat="44.96973437025309" lon="9.349176750833243"><ele>394.0</ele><time>2026-04-23T10:12:53.999Z</time></trkpt><trkpt lat="44.96977069034169" lon="9.349259069748184"><ele>394.0</ele><time>2026-04-23T10:12:54.999Z</time></trkpt><trkpt lat="44.969808902506585" lon="9.349334846815747"><ele>394.0</ele><time>2026-04-23T10:12:55.999Z</time></trkpt><trkpt lat="44.9698674516931" lon="9.349450855755933"><ele>394.0</ele><time>2026-04-23T10:12:57.999Z</time></trkpt><trkpt lat="44.96987646871343" lon="9.349539048769042"><ele>394.0</ele><time>2026-04-23T10:13:01.999Z</time></trkpt><trkpt lat="44.96978633444527" lon="9.34962341965079"><ele>394.0</ele><time>2026-04-23T10:13:02.999Z</time></trkpt><trkpt lat="44.96969316284579" lon="9.349724358566464"><ele>394.0</ele><time>2026-04-23T10:13:04.999Z</time></trkpt><trkpt lat="44.969594656920705" lon="9.34983300238671"><ele>394.0</ele><time>2026-04-23T10:13:06.999Z</time></trkpt><trkpt lat="44.96953273721672" lon="9.349892887613462"><ele>394.0</ele><time>2026-04-23T10:13:07.999Z</time></trkpt><trkpt lat="44.96947751634284" lon="9.349942272156722"><ele>394.0</ele><time>2026-04-23T10:13:08.999Z</time></trkpt><trkpt lat="44.969378954942975" lon="9.35003108391636"><ele>394.0</ele><time>2026-04-23T10:13:10.999Z</time></trkpt><trkpt lat="44.969291898617925" lon="9.35013373684737"><ele>394.0</ele><time>2026-04-23T10:13:12.999Z</time></trkpt><trkpt lat="44.96922772009093" lon="9.350288052039458"><ele>394.0</ele><time>2026-04-23T10:13:14.999Z</time></trkpt><trkpt lat="44.96916698910625" lon="9.3504452060193"><ele>394.0</ele><time>2026-04-23T10:13:16.999Z</time></trkpt><trkpt lat="44.969124992678566" lon="9.350513320513262"><ele>394.0</ele><time>2026-04-23T10:13:17.999Z</time></trkpt><trkpt lat="44.969079867060884" lon="9.350582970339621"><ele>394.0</ele><time>2026-04-23T10:13:18.999Z</time></trkpt><trkpt lat="44.969023000408846" lon="9.350691158385636"><ele>391.6666666666667</ele><time>2026-04-23T10:13:20.999Z</time></trkpt><trkpt lat="44.96897365690747" lon="9.35080834263274"><ele>389.33333333333337</ele><time>2026-04-23T10:13:22.999Z</time></trkpt><trkpt lat="44.96892625690913" lon="9.350885157869646"><ele>387.0</ele><time>2026-04-23T10:13:25.999Z</time></trkpt><trkpt lat="44.96888433929932" lon="9.350960853820233"><ele>384.6666666666667</ele><time>2026-04-23T10:13:28.999Z</time></trkpt><trkpt lat="44.96880196177256" lon="9.351036498420203"><ele>382.33333333333337</ele><time>2026-04-23T10:13:31.999Z</time></trkpt><trkpt lat="44.968724267592044" lon="9.351063544523692"><ele>380.0</ele><time>2026-04-23T10:13:33.998Z</time></trkpt><trkpt lat="44.96864105977068" lon="9.351120841767944"><ele>380.0</ele><time>2026-04-23T10:13:35.998Z</time></trkpt><trkpt lat="44.96857729982819" lon="9.351152854929486"><ele>380.0</ele><time>2026-04-23T10:13:36.998Z</time></trkpt><trkpt lat="44.96846497566826" lon="9.351217505291665"><ele>380.0</ele><time>2026-04-23T10:13:38.998Z</time></trkpt><trkpt lat="44.96835893237598" lon="9.351250985886196"><ele>380.0</ele><time>2026-04-23T10:13:40.998Z</time></trkpt><trkpt lat="44.96828510867872" lon="9.351319932183284"><ele>380.0</ele><time>2026-04-23T10:13:42.998Z</time></trkpt><trkpt lat="44.96822071516555" lon="9.351359009662158"><ele>377.4</ele><time>2026-04-23T10:13:45Z</time></trkpt><trkpt lat="44.96816395732119" lon="9.351398459591941"><ele>374.8</ele><time>2026-04-23T10:13:50Z</time></trkpt><trkpt lat="44.96808982979088" lon="9.35142624286511"><ele>372.20000000000005</ele><time>2026-04-23T10:14:15Z</time></trkpt><trkpt lat="44.9680545884187" lon="9.351568578873865"><ele>369.6</ele><time>2026-04-23T10:14:27Z</time></trkpt><trkpt lat="44.96798423215793" lon="9.351694083811918"><ele>367.0</ele><time>2026-04-23T10:14:29Z</time></trkpt><trkpt lat="44.96790823334921" lon="9.351836601593009"><ele>367.0</ele><time>2026-04-23T10:14:31Z</time></trkpt><trkpt lat="44.9678575412983" lon="9.35193408302789"><ele>367.0</ele><time>2026-04-23T10:14:32Z</time></trkpt><trkpt lat="44.96780317156374" lon="9.352016292019158"><ele>367.0</ele><time>2026-04-23T10:14:33Z</time></trkpt><trkpt lat="44.96775642788879" lon="9.352118011396255"><ele>367.0</ele><time>2026-04-23T10:14:33.999Z</time></trkpt><trkpt lat="44.96769987857961" lon="9.352221078289004"><ele>367.0</ele><time>2026-04-23T10:14:34.999Z</time></trkpt><trkpt lat="44.96763649229002" lon="9.352310329033166"><ele>367.0</ele><time>2026-04-23T10:14:35.999Z</time></trkpt><trkpt lat="44.96759368236101" lon="9.352418952557853"><ele>365.5</ele><time>2026-04-23T10:14:36.999Z</time></trkpt><trkpt lat="44.967555978128" lon="9.352527902280219"><ele>364.0</ele><time>2026-04-23T10:14:37.999Z</time></trkpt><trkpt lat="44.96749626225149" lon="9.352626474043523"><ele>362.5</ele><time>2026-04-23T10:14:38.999Z</time></trkpt><trkpt lat="44.96742264764508" lon="9.352701130816902"><ele>361.0</ele><time>2026-04-23T10:14:39.999Z</time></trkpt><trkpt lat="44.967350909555414" lon="9.352769243404815"><ele>359.5</ele><time>2026-04-23T10:14:40.999Z</time></trkpt><trkpt lat="44.96729600471887" lon="9.352821422125995"><ele>358.0</ele><time>2026-04-23T10:14:41.999Z</time></trkpt><trkpt lat="44.96723956499491" lon="9.352887564866366"><ele>356.4</ele><time>2026-04-23T10:14:42.999Z</time></trkpt><trkpt lat="44.96717941313576" lon="9.352949163875738"><ele>354.79999999999995</ele><time>2026-04-23T10:14:43.999Z</time></trkpt><trkpt lat="44.96711221248543" lon="9.352994123553207"><ele>353.2</ele><time>2026-04-23T10:14:44.999Z</time></trkpt><trkpt lat="44.96705097963437" lon="9.353027754390173"><ele>351.6</ele><time>2026-04-23T10:14:45.999Z</time></trkpt><trkpt lat="44.96696245033204" lon="9.353153321193227"><ele>350.0</ele><time>2026-04-23T10:14:47.999Z</time></trkpt><trkpt lat="44.96684991480412" lon="9.353221185064944"><ele>348.4</ele><time>2026-04-23T10:14:49.999Z</time></trkpt><trkpt lat="44.96674765703633" lon="9.353303903626513"><ele>346.8</ele><time>2026-04-23T10:14:51.999Z</time></trkpt><trkpt lat="44.96664698836093" lon="9.353324853789033"><ele>345.20000000000005</ele><time>2026-04-23T10:14:53.999Z</time></trkpt><trkpt lat="44.966578808921135" lon="9.353273387765046"><ele>343.6</ele><time>2026-04-23T10:14:55.999Z</time></trkpt><trkpt lat="44.96651014825116" lon="9.353215198769337"><ele>342.0</ele><time>2026-04-23T10:15:03.999Z</time></trkpt><trkpt lat="44.966516644123836" lon="9.35333887064935"><ele>342.0</ele><time>2026-04-23T10:15:52Z</time></trkpt><trkpt lat="44.966586485760665" lon="9.353477540578355"><ele>342.0</ele><time>2026-04-23T10:15:54Z</time></trkpt><trkpt lat="44.96662648253575" lon="9.35356123215602"><ele>342.0</ele><time>2026-04-23T10:15:55Z</time></trkpt><trkpt lat="44.96666701728653" lon="9.353646060424305"><ele>342.0</ele><time>2026-04-23T10:15:56Z</time></trkpt><trkpt lat="44.96670925939806" lon="9.353740168211953"><ele>342.0</ele><time>2026-04-23T10:15:57Z</time></trkpt><trkpt lat="44.96676118012454" lon="9.353834436909226"><ele>342.0</ele><time>2026-04-23T10:15:58Z</time></trkpt><trkpt lat="44.966806915917566" lon="9.353965829170594"><ele>340.40000000000003</ele><time>2026-04-23T10:15:59Z</time></trkpt><trkpt lat="44.96685058431983" lon="9.354104584682892"><ele>338.8</ele><time>2026-04-23T10:16:00Z</time></trkpt><trkpt lat="44.966884640920696" lon="9.354240951536603"><ele>337.2</ele><time>2026-04-23T10:16:01Z</time></trkpt><trkpt lat="44.966917507729214" lon="9.354380736415752"><ele>335.6</ele><time>2026-04-23T10:16:02Z</time></trkpt><trkpt lat="44.96695002344101" lon="9.35451458839199"><ele>334.0</ele><time>2026-04-23T10:16:03Z</time></trkpt><trkpt lat="44.96697980542012" lon="9.354644502968432"><ele>332.79999999999995</ele><time>2026-04-23T10:16:04Z</time></trkpt><trkpt lat="44.966994879194296" lon="9.354761766846686"><ele>331.59999999999997</ele><time>2026-04-23T10:16:05Z</time></trkpt><trkpt lat="44.96699299421155" lon="9.354898328631181"><ele>330.4</ele><time>2026-04-23T10:16:06Z</time></trkpt><trkpt lat="44.966973454865645" lon="9.35504040107408"><ele>329.2</ele><time>2026-04-23T10:16:07Z</time></trkpt><trkpt lat="44.96695591601465" lon="9.35517035422717"><ele>328.0</ele><time>2026-04-23T10:16:08Z</time></trkpt><trkpt lat="44.96695092655958" lon="9.355289234511844"><ele>328.0</ele><time>2026-04-23T10:16:09Z</time></trkpt><trkpt lat="44.96696246793744" lon="9.355397388630399"><ele>328.0</ele><time>2026-04-23T10:16:10Z</time></trkpt><trkpt lat="44.966999098641246" lon="9.355494614012994"><ele>328.0</ele><time>2026-04-23T10:16:11Z</time></trkpt><trkpt lat="44.967014907559715" lon="9.355599249752991"><ele>328.0</ele><time>2026-04-23T10:16:12Z</time></trkpt><trkpt lat="44.967036007003266" lon="9.35575103973427"><ele>328.0</ele><time>2026-04-23T10:16:14Z</time></trkpt><trkpt lat="44.967068201970484" lon="9.35584433888202"><ele>328.0</ele><time>2026-04-23T10:16:15Z</time></trkpt><trkpt lat="44.96712533802876" lon="9.35592322228665"><ele>328.59999999999997</ele><time>2026-04-23T10:16:16Z</time></trkpt><trkpt lat="44.967222316940905" lon="9.356005442198226"><ele>329.2</ele><time>2026-04-23T10:16:17Z</time></trkpt><trkpt lat="44.96731331898377" lon="9.356074909114719"><ele>329.8</ele><time>2026-04-23T10:16:18Z</time></trkpt><trkpt lat="44.9673807663233" lon="9.356154649714664"><ele>330.4</ele><time>2026-04-23T10:16:19Z</time></trkpt><trkpt lat="44.96743479133103" lon="9.35625083650864"><ele>331.0</ele><time>2026-04-23T10:16:20Z</time></trkpt><trkpt lat="44.96745952841991" lon="9.356333372905516"><ele>331.5</ele><time>2026-04-23T10:16:21Z</time></trkpt><trkpt lat="44.967491536287014" lon="9.356414952071752"><ele>332.0</ele><time>2026-04-23T10:16:22Z</time></trkpt><trkpt lat="44.96751541550408" lon="9.356538244183433"><ele>332.5</ele><time>2026-04-23T10:16:24Z</time></trkpt><trkpt lat="44.96755063341851" lon="9.356663639174716"><ele>333.0</ele><time>2026-04-23T10:17:01.999Z</time></trkpt><trkpt lat="44.96757452139076" lon="9.356768385141642"><ele>333.5</ele><time>2026-04-23T10:17:02.999Z</time></trkpt><trkpt lat="44.96760128254902" lon="9.356859793086622"><ele>334.0</ele><time>2026-04-23T10:17:03.999Z</time></trkpt><trkpt lat="44.9676371804247" lon="9.356974206593383"><ele>336.0</ele><time>2026-04-23T10:17:04.999Z</time></trkpt><trkpt lat="44.96768927846096" lon="9.357164708954024"><ele>338.0</ele><time>2026-04-23T10:17:05.999Z</time></trkpt><trkpt lat="44.967736668711936" lon="9.357336827076676"><ele>340.0</ele><time>2026-04-23T10:17:06.999Z</time></trkpt><trkpt lat="44.96779146593098" lon="9.357510742801717"><ele>342.0</ele><time>2026-04-23T10:17:07.999Z</time></trkpt><trkpt lat="44.96784851326013" lon="9.35765277596434"><ele>342.5</ele><time>2026-04-23T10:17:08.999Z</time></trkpt><trkpt lat="44.96788748423083" lon="9.357769096674021"><ele>343.0</ele><time>2026-04-23T10:17:09.999Z</time></trkpt><trkpt lat="44.96790524872667" lon="9.357870164649103"><ele>343.5</ele><time>2026-04-23T10:17:10.999Z</time></trkpt><trkpt lat="44.967898116868554" lon="9.358043027376516"><ele>344.0</ele><time>2026-04-23T10:17:12.999Z</time></trkpt><trkpt lat="44.967898357997925" lon="9.358133113271245"><ele>344.5</ele><time>2026-04-23T10:17:13.999Z</time></trkpt><trkpt lat="44.96790764480935" lon="9.358224603557174"><ele>345.0</ele><time>2026-04-23T10:17:14.999Z</time></trkpt><trkpt lat="44.967921197753604" lon="9.358348770719234"><ele>345.4</ele><time>2026-04-23T10:17:15.999Z</time></trkpt><trkpt lat="44.96792849964069" lon="9.358481475548727"><ele>345.8</ele><time>2026-04-23T10:17:16.999Z</time></trkpt><trkpt lat="44.96793651012214" lon="9.358610651342365"><ele>346.20000000000005</ele><time>2026-04-23T10:17:17.999Z</time></trkpt><trkpt lat="44.96794618056682" lon="9.35874780624207"><ele>346.6</ele><time>2026-04-23T10:17:18.999Z</time></trkpt><trkpt lat="44.96794599955442" lon="9.358909163226164"><ele>347.0</ele><time>2026-04-23T10:17:19.999Z</time></trkpt><trkpt lat="44.967947347271526" lon="9.35903689059769"><ele>347.5</ele><time>2026-04-23T10:17:20.999Z</time></trkpt><trkpt lat="44.96794199359493" lon="9.359151207550006"><ele>348.0</ele><time>2026-04-23T10:17:21.999Z</time></trkpt><trkpt lat="44.96794205624078" lon="9.359253003473452"><ele>348.5</ele><time>2026-04-23T10:17:22.999Z</time></trkpt><trkpt lat="44.967946661316205" lon="9.359377381562236"><ele>349.0</ele><time>2026-04-23T10:17:24.999Z</time></trkpt><trkpt lat="44.9679243012251" lon="9.359489429721478"><ele>349.5</ele><time>2026-04-23T10:17:26.999Z</time></trkpt><trkpt lat="44.96791646839547" lon="9.359591274451548"><ele>350.0</ele><time>2026-04-23T10:17:27.999Z</time></trkpt><trkpt lat="44.96791898875646" lon="9.359691597633859"><ele>350.5</ele><time>2026-04-23T10:17:28.999Z</time></trkpt><trkpt lat="44.96792732008361" lon="9.359793975845845"><ele>351.0</ele><time>2026-04-23T10:17:29.999Z</time></trkpt><trkpt lat="44.967945509374005" lon="9.359896026860124"><ele>351.5</ele><time>2026-04-23T10:17:30.999Z</time></trkpt><trkpt lat="44.967968249896025" lon="9.360015328029885"><ele>352.0</ele><time>2026-04-23T10:17:31.999Z</time></trkpt><trkpt lat="44.967986185399134" lon="9.360143557879425"><ele>352.5</ele><time>2026-04-23T10:17:32.999Z</time></trkpt><trkpt lat="44.96800329115529" lon="9.360277114554588"><ele>353.0</ele><time>2026-04-23T10:17:33.999Z</time></trkpt><trkpt lat="44.968021895979675" lon="9.360407715794034"><ele>353.0</ele><time>2026-04-23T10:17:34.999Z</time></trkpt><trkpt lat="44.968045064358165" lon="9.360527842109663"><ele>353.0</ele><time>2026-04-23T10:17:35.999Z</time></trkpt><trkpt lat="44.96806478489526" lon="9.360634315168282"><ele>353.0</ele><time>2026-04-23T10:17:36.999Z</time></trkpt><trkpt lat="44.96808193047019" lon="9.360800973566988"><ele>353.0</ele><time>2026-04-23T10:17:38.999Z</time></trkpt><trkpt lat="44.96810645235641" lon="9.360968716207502"><ele>353.0</ele><time>2026-04-23T10:17:40.999Z</time></trkpt><trkpt lat="44.96813381549706" lon="9.361131929950579"><ele>352.79999999999995</ele><time>2026-04-23T10:17:42.999Z</time></trkpt><trkpt lat="44.968151382900594" lon="9.361276934623763"><ele>352.6</ele><time>2026-04-23T10:17:44.999Z</time></trkpt><trkpt lat="44.96816728460277" lon="9.361394120814838"><ele>352.4</ele><time>2026-04-23T10:17:46.998Z</time></trkpt><trkpt lat="44.96815358013592" lon="9.361497297787428"><ele>352.20000000000005</ele><time>2026-04-23T10:17:49.998Z</time></trkpt><trkpt lat="44.96815561773684" lon="9.361368190937393"><ele>352.0</ele><time>2026-04-23T10:18:07Z</time></trkpt><trkpt lat="44.96813735269389" lon="9.361194929874706"><ele>352.0</ele><time>2026-04-23T10:18:09Z</time></trkpt><trkpt lat="44.968111145474666" lon="9.361084805655258"><ele>352.0</ele><time>2026-04-23T10:18:10Z</time></trkpt><trkpt lat="44.96807780880996" lon="9.360976748983738"><ele>352.0</ele><time>2026-04-23T10:18:11Z</time></trkpt><trkpt lat="44.968071163967494" lon="9.360800296336631"><ele>352.0</ele><time>2026-04-23T10:18:13Z</time></trkpt><trkpt lat="44.96804655298279" lon="9.360627716008196"><ele>352.0</ele><time>2026-04-23T10:18:15Z</time></trkpt><trkpt lat="44.96803480094528" lon="9.360529006214621"><ele>352.16666666666663</ele><time>2026-04-23T10:18:16Z</time></trkpt><trkpt lat="44.96801747016746" lon="9.360418493579886"><ele>352.3333333333333</ele><time>2026-04-23T10:18:17Z</time></trkpt><trkpt lat="44.967997551334" lon="9.36030647439697"><ele>352.5</ele><time>2026-04-23T10:18:18Z</time></trkpt><trkpt lat="44.96798283250552" lon="9.360200458876712"><ele>352.6666666666667</ele><time>2026-04-23T10:18:19Z</time></trkpt><trkpt lat="44.9679723027028" lon="9.360096759207554"><ele>352.83333333333337</ele><time>2026-04-23T10:18:20Z</time></trkpt><trkpt lat="44.96795869660159" lon="9.359995446658555"><ele>353.0</ele><time>2026-04-23T10:18:21Z</time></trkpt><trkpt lat="44.967943809754935" lon="9.35990549429112"><ele>353.0</ele><time>2026-04-23T10:18:22Z</time></trkpt><trkpt lat="44.96793082851086" lon="9.359760161252389"><ele>353.0</ele><time>2026-04-23T10:18:24Z</time></trkpt><trkpt lat="44.967920194187435" lon="9.359629599371447"><ele>353.0</ele><time>2026-04-23T10:18:26Z</time></trkpt><trkpt lat="44.96791803586511" lon="9.359506466596917"><ele>353.0</ele><time>2026-04-23T10:18:28Z</time></trkpt><trkpt lat="44.96793564639934" lon="9.359419887000126"><ele>353.0</ele><time>2026-04-23T10:18:30Z</time></trkpt><trkpt lat="44.967929869386985" lon="9.359297715505882"><ele>353.0</ele><time>2026-04-23T10:18:33Z</time></trkpt><trkpt lat="44.9679294110963" lon="9.359182288301216"><ele>352.5</ele><time>2026-04-23T10:18:35Z</time></trkpt><trkpt lat="44.96793002109878" lon="9.35907021760103"><ele>352.0</ele><time>2026-04-23T10:18:37Z</time></trkpt><trkpt lat="44.96792597654299" lon="9.358916555117117"><ele>351.5</ele><time>2026-04-23T10:18:39Z</time></trkpt><trkpt lat="44.96792776038612" lon="9.358812728956284"><ele>351.0</ele><time>2026-04-23T10:18:40Z</time></trkpt><trkpt lat="44.9679282787347" lon="9.358710273454939"><ele>350.5</ele><time>2026-04-23T10:18:41Z</time></trkpt><trkpt lat="44.967925232984" lon="9.358550583179163"><ele>350.0</ele><time>2026-04-23T10:18:43Z</time></trkpt><trkpt lat="44.9679311960922" lon="9.358383967073477"><ele>349.5</ele><time>2026-04-23T10:18:45Z</time></trkpt><trkpt lat="44.96792284778994" lon="9.358281927044478"><ele>349.0</ele><time>2026-04-23T10:18:46Z</time></trkpt><trkpt lat="44.967911639155865" lon="9.358183158606002"><ele>348.5</ele><time>2026-04-23T10:18:47Z</time></trkpt><trkpt lat="44.96789220372696" lon="9.358067300185969"><ele>348.0</ele><time>2026-04-23T10:18:48Z</time></trkpt><trkpt lat="44.96788611247068" lon="9.357948207364041"><ele>347.5</ele><time>2026-04-23T10:18:48.999Z</time></trkpt><trkpt lat="44.96788147945307" lon="9.357827203248888"><ele>347.0</ele><time>2026-04-23T10:18:49.999Z</time></trkpt><trkpt lat="44.967864887256965" lon="9.357736839139518"><ele>346.7142857142857</ele><time>2026-04-23T10:18:50.999Z</time></trkpt><trkpt lat="44.96784527306141" lon="9.357651046951872"><ele>346.4285714285714</ele><time>2026-04-23T10:18:51.999Z</time></trkpt><trkpt lat="44.967827208627995" lon="9.357563822139108"><ele>346.1428571428571</ele><time>2026-04-23T10:18:52.999Z</time></trkpt><trkpt lat="44.96779007642248" lon="9.35747379958131"><ele>345.8571428571429</ele><time>2026-04-23T10:18:53.999Z</time></trkpt><trkpt lat="44.9677522493872" lon="9.357383368425502"><ele>345.57142857142856</ele><time>2026-04-23T10:18:54.999Z</time></trkpt><trkpt lat="44.96771863193518" lon="9.357289583201528"><ele>345.2857142857143</ele><time>2026-04-23T10:18:55.999Z</time></trkpt><trkpt lat="44.96768977994168" lon="9.35719234724082"><ele>345.0</ele><time>2026-04-23T10:18:56.999Z</time></trkpt><trkpt lat="44.967660099478245" lon="9.3570877762619"><ele>344.4</ele><time>2026-04-23T10:18:57.999Z</time></trkpt><trkpt lat="44.96762993886805" lon="9.356985299136994"><ele>343.8</ele><time>2026-04-23T10:18:58.999Z</time></trkpt><trkpt lat="44.96760714025321" lon="9.356891091811647"><ele>343.20000000000005</ele><time>2026-04-23T10:18:59.999Z</time></trkpt><trkpt lat="44.96756040784074" lon="9.356736258334383"><ele>342.6</ele><time>2026-04-23T10:19:01.999Z</time></trkpt><trkpt lat="44.96752267657739" lon="9.356603450796813"><ele>342.0</ele><time>2026-04-23T10:19:03.999Z</time></trkpt><trkpt lat="44.96749455748297" lon="9.356474984390717"><ele>340.6666666666667</ele><time>2026-04-23T10:19:05.999Z</time></trkpt><trkpt lat="44.967475456381905" lon="9.356387285239887"><ele>339.3333333333333</ele><time>2026-04-23T10:19:06.999Z</time></trkpt><trkpt lat="44.96744915452464" lon="9.35628669295835"><ele>338.0</ele><time>2026-04-23T10:19:07.999Z</time></trkpt><trkpt lat="44.96740720889152" lon="9.356192128015929"><ele>336.66666666666663</ele><time>2026-04-23T10:19:08.999Z</time></trkpt><trkpt lat="44.96734439899072" lon="9.356119311620516"><ele>335.3333333333333</ele><time>2026-04-23T10:19:09.999Z</time></trkpt><trkpt lat="44.967276469809406" lon="9.356051360221192"><ele>334.0</ele><time>2026-04-23T10:19:10.999Z</time></trkpt><trkpt lat="44.96721541732734" lon="9.355981261061066"><ele>333.4</ele><time>2026-04-23T10:19:11.999Z</time></trkpt><trkpt lat="44.96714468874" lon="9.355909187918048"><ele>332.79999999999995</ele><time>2026-04-23T10:19:12.999Z</time></trkpt><trkpt lat="44.96704312884318" lon="9.3557629854941"><ele>332.20000000000005</ele><time>2026-04-23T10:19:14.999Z</time></trkpt><trkpt lat="44.96702009683771" lon="9.355673496564089"><ele>331.6</ele><time>2026-04-23T10:19:15.999Z</time></trkpt><trkpt lat="44.966988855490634" lon="9.35557475334117"><ele>331.0</ele><time>2026-04-23T10:19:16.999Z</time></trkpt><trkpt lat="44.966955812829354" lon="9.355421275113533"><ele>330.4</ele><time>2026-04-23T10:19:18.999Z</time></trkpt><trkpt lat="44.96694043326861" lon="9.355302431289259"><ele>329.8</ele><time>2026-04-23T10:19:19.999Z</time></trkpt><trkpt lat="44.96694201064135" lon="9.35519510748601"><ele>329.2</ele><time>2026-04-23T10:19:20.999Z</time></trkpt><trkpt lat="44.96695271026247" lon="9.355060375353474"><ele>328.59999999999997</ele><time>2026-04-23T10:19:21.999Z</time></trkpt><trkpt lat="44.966965691231195" lon="9.354910612600278"><ele>328.0</ele><time>2026-04-23T10:19:22.999Z</time></trkpt><trkpt lat="44.966972875363155" lon="9.354766273070059"><ele>329.2</ele><time>2026-04-23T10:19:23.999Z</time></trkpt><trkpt lat="44.9669765549487" lon="9.3546531925837"><ele>330.4</ele><time>2026-04-23T10:19:24.999Z</time></trkpt><trkpt lat="44.9669665784894" lon="9.354542815201746"><ele>331.59999999999997</ele><time>2026-04-23T10:19:25.999Z</time></trkpt><trkpt lat="44.96694012854848" lon="9.354412772093557"><ele>332.79999999999995</ele><time>2026-04-23T10:19:26.999Z</time></trkpt><trkpt lat="44.96690011493507" lon="9.354271019454725"><ele>334.0</ele><time>2026-04-23T10:19:27.999Z</time></trkpt><trkpt lat="44.966850133090986" lon="9.354136957228263"><ele>334.0</ele><time>2026-04-23T10:19:28.999Z</time></trkpt><trkpt lat="44.96680365918963" lon="9.354001657603996"><ele>334.0</ele><time>2026-04-23T10:19:29.999Z</time></trkpt><trkpt lat="44.96676115225532" lon="9.353858314646411"><ele>334.0</ele><time>2026-04-23T10:19:30.999Z</time></trkpt><trkpt lat="44.96671208105332" lon="9.35372816902079"><ele>334.0</ele><time>2026-04-23T10:19:31.999Z</time></trkpt><trkpt lat="44.96666058425545" lon="9.35360154353208"><ele>334.0</ele><time>2026-04-23T10:19:32.999Z</time></trkpt><trkpt lat="44.96661144295238" lon="9.353502638646509"><ele>334.0</ele><time>2026-04-23T10:19:33.999Z</time></trkpt><trkpt lat="44.96657243529219" lon="9.353427087493374"><ele>334.0</ele><time>2026-04-23T10:19:34.999Z</time></trkpt><trkpt lat="44.96651691099414" lon="9.353305700060814"><ele>334.0</ele><time>2026-04-23T10:19:36.999Z</time></trkpt><trkpt lat="44.966462895211784" lon="9.353204765173908"><ele>334.0</ele><time>2026-04-23T10:19:39.999Z</time></trkpt><trkpt lat="44.96641179907729" lon="9.353048082393656"><ele>334.0</ele><time>2026-04-23T10:19:41.999Z</time></trkpt><trkpt lat="44.966349583755324" lon="9.352938270493626"><ele>335.16666666666663</ele><time>2026-04-23T10:19:42.999Z</time></trkpt><trkpt lat="44.96630011643854" lon="9.352833543221601"><ele>336.3333333333333</ele><time>2026-04-23T10:19:43.999Z</time></trkpt><trkpt lat="44.96626938996591" lon="9.352733834293547"><ele>337.5</ele><time>2026-04-23T10:19:44.999Z</time></trkpt><trkpt lat="44.966242077628216" lon="9.35263947655204"><ele>338.6666666666667</ele><time>2026-04-23T10:19:45.999Z</time></trkpt><trkpt lat="44.96621637150556" lon="9.35254581175447"><ele>339.83333333333337</ele><time>2026-04-23T10:19:46.999Z</time></trkpt><trkpt lat="44.966192325512424" lon="9.352433756867661"><ele>341.0</ele><time>2026-04-23T10:19:47.999Z</time></trkpt><trkpt lat="44.9661706604061" lon="9.352297850835578"><ele>341.8</ele><time>2026-04-23T10:19:48.999Z</time></trkpt><trkpt lat="44.966159924894164" lon="9.35213823016454"><ele>342.6</ele><time>2026-04-23T10:19:49.999Z</time></trkpt><trkpt lat="44.96613779472243" lon="9.35198016715836"><ele>343.4</ele><time>2026-04-23T10:19:50.999Z</time></trkpt><trkpt lat="44.966108406219924" lon="9.351832979224362"><ele>344.2</ele><time>2026-04-23T10:19:51.999Z</time></trkpt><trkpt lat="44.96608580510071" lon="9.351709930097995"><ele>345.0</ele><time>2026-04-23T10:19:52.999Z</time></trkpt><trkpt lat="44.96607336804299" lon="9.351597539965773"><ele>345.0</ele><time>2026-04-23T10:19:53.999Z</time></trkpt><trkpt lat="44.9660634029579" lon="9.351487642369337"><ele>345.0</ele><time>2026-04-23T10:19:54.999Z</time></trkpt><trkpt lat="44.96606236322692" lon="9.351376911521092"><ele>345.0</ele><time>2026-04-23T10:19:55.999Z</time></trkpt><trkpt lat="44.96605621044171" lon="9.35124092871547"><ele>345.0</ele><time>2026-04-23T10:19:56.998Z</time></trkpt><trkpt lat="44.966059209286094" lon="9.351098354021515"><ele>345.0</ele><time>2026-04-23T10:19:57.998Z</time></trkpt><trkpt lat="44.96606029274014" lon="9.350955017757247"><ele>345.8</ele><time>2026-04-23T10:19:58.998Z</time></trkpt><trkpt lat="44.96604189389953" lon="9.35082128849688"><ele>346.6</ele><time>2026-04-23T10:19:59.998Z</time></trkpt><trkpt lat="44.966009927188146" lon="9.350686842073"><ele>347.4</ele><time>2026-04-23T10:20:00.998Z</time></trkpt><trkpt lat="44.96597503662231" lon="9.350569860115"><ele>348.2</ele><time>2026-04-23T10:20:01.998Z</time></trkpt><trkpt lat="44.96593426962581" lon="9.350462055792535"><ele>349.0</ele><time>2026-04-23T10:20:03Z</time></trkpt><trkpt lat="44.96588944352428" lon="9.350343259312568"><ele>347.3333333333333</ele><time>2026-04-23T10:20:04Z</time></trkpt><trkpt lat="44.965839131304364" lon="9.350224426949984"><ele>345.66666666666663</ele><time>2026-04-23T10:20:05Z</time></trkpt><trkpt lat="44.96578055154769" lon="9.350132479423335"><ele>344.0</ele><time>2026-04-23T10:20:06Z</time></trkpt><trkpt lat="44.965700111318434" lon="9.350070483713749"><ele>342.3333333333333</ele><time>2026-04-23T10:20:07Z</time></trkpt><trkpt lat="44.9656313953715" lon="9.350012225005862"><ele>340.6666666666667</ele><time>2026-04-23T10:20:08Z</time></trkpt><trkpt lat="44.96557155412032" lon="9.349938182669746"><ele>339.0</ele><time>2026-04-23T10:20:09Z</time></trkpt><trkpt lat="44.96552279501615" lon="9.349850590318914"><ele>339.0</ele><time>2026-04-23T10:20:10Z</time></trkpt><trkpt lat="44.96547416158301" lon="9.349775908362316"><ele>339.0</ele><time>2026-04-23T10:20:11Z</time></trkpt><trkpt lat="44.96543435387632" lon="9.349694193230123"><ele>339.0</ele><time>2026-04-23T10:20:12Z</time></trkpt><trkpt lat="44.96540812896009" lon="9.349604423446737"><ele>339.0</ele><time>2026-04-23T10:20:13Z</time></trkpt><trkpt lat="44.96536688872761" lon="9.349466218245011"><ele>339.0</ele><time>2026-04-23T10:20:15Z</time></trkpt><trkpt lat="44.965258410739445" lon="9.349414057893956"><ele>339.0</ele><time>2026-04-23T10:20:17Z</time></trkpt><trkpt lat="44.96513884681504" lon="9.349367220484467"><ele>338.6666666666667</ele><time>2026-04-23T10:20:19Z</time></trkpt><trkpt lat="44.96507653681037" lon="9.349334466402295"><ele>338.3333333333333</ele><time>2026-04-23T10:20:20Z</time></trkpt><trkpt lat="44.9649994541026" lon="9.349240741221479"><ele>338.0</ele><time>2026-04-23T10:20:22Z</time></trkpt><trkpt lat="44.964956895567674" lon="9.34917069575603"><ele>337.66666666666663</ele><time>2026-04-23T10:20:24Z</time></trkpt><trkpt lat="44.96487488765389" lon="9.349099137563288"><ele>337.3333333333333</ele><time>2026-04-23T10:20:27Z</time></trkpt><trkpt lat="44.96480949422533" lon="9.349131229471366"><ele>337.0</ele><time>2026-04-23T10:20:29Z</time></trkpt><trkpt lat="44.96475994475256" lon="9.349235269417951"><ele>337.0</ele><time>2026-04-23T10:20:32Z</time></trkpt><trkpt lat="44.964697833454984" lon="9.349315712295152"><ele>337.0</ele><time>2026-04-23T10:20:35Z</time></trkpt><trkpt lat="44.9646506649136" lon="9.34940227222804"><ele>337.0</ele><time>2026-04-23T10:20:39Z</time></trkpt><trkpt lat="44.96465562909043" lon="9.349538054072811"><ele>337.0</ele><time>2026-04-23T10:20:41Z</time></trkpt><trkpt lat="44.964661146770105" lon="9.349627245952256"><ele>337.0</ele><time>2026-04-23T10:20:42Z</time></trkpt><trkpt lat="44.96466407408958" lon="9.349720411203343"><ele>337.0</ele><time>2026-04-23T10:20:43Z</time></trkpt><trkpt lat="44.96466284053888" lon="9.349825961263788"><ele>335.8333333333333</ele><time>2026-04-23T10:20:44Z</time></trkpt><trkpt lat="44.96465659018219" lon="9.349925996481797"><ele>334.66666666666663</ele><time>2026-04-23T10:20:45Z</time></trkpt><trkpt lat="44.96464179850855" lon="9.35002511091488"><ele>333.5</ele><time>2026-04-23T10:20:46Z</time></trkpt><trkpt lat="44.96462928184434" lon="9.350117165578288"><ele>332.3333333333333</ele><time>2026-04-23T10:20:47Z</time></trkpt><trkpt lat="44.96458848532082" lon="9.35028230249945"><ele>331.1666666666667</ele><time>2026-04-23T10:20:48.999Z</time></trkpt><trkpt lat="44.96457764942548" lon="9.350381445601968"><ele>330.0</ele><time>2026-04-23T10:20:49.999Z</time></trkpt><trkpt lat="44.96458389754125" lon="9.350490203682485"><ele>328.2</ele><time>2026-04-23T10:20:50.999Z</time></trkpt><trkpt lat="44.96458599027814" lon="9.350627877156628"><ele>326.4</ele><time>2026-04-23T10:20:51.999Z</time></trkpt><trkpt lat="44.96458760361855" lon="9.350755529221125"><ele>324.6</ele><time>2026-04-23T10:20:52.999Z</time></trkpt><trkpt lat="44.964583373008004" lon="9.350900972496529"><ele>322.8</ele><time>2026-04-23T10:20:53.999Z</time></trkpt><trkpt lat="44.964582304162334" lon="9.351035407895083"><ele>321.0</ele><time>2026-04-23T10:20:54.999Z</time></trkpt><trkpt lat="44.96459814855176" lon="9.351166242384085"><ele>321.0</ele><time>2026-04-23T10:20:55.999Z</time></trkpt><trkpt lat="44.964622888486645" lon="9.35129277858237"><ele>321.0</ele><time>2026-04-23T10:20:56.999Z</time></trkpt><trkpt lat="44.96463863918928" lon="9.351409595090132"><ele>321.0</ele><time>2026-04-23T10:20:57.999Z</time></trkpt><trkpt lat="44.964649195710585" lon="9.351508042096595"><ele>321.0</ele><time>2026-04-23T10:20:58.999Z</time></trkpt><trkpt lat="44.9646830408139" lon="9.351636308212168"><ele>321.0</ele><time>2026-04-23T10:21:00.999Z</time></trkpt><trkpt lat="44.96468102944694" lon="9.35176633969286"><ele>321.0</ele><time>2026-04-23T10:21:02.999Z</time></trkpt><trkpt lat="44.964622063797805" lon="9.351919775293979"><ele>320.3333333333333</ele><time>2026-04-23T10:21:04.999Z</time></trkpt><trkpt lat="44.96458793188829" lon="9.352018320043838"><ele>319.6666666666667</ele><time>2026-04-23T10:21:05.999Z</time></trkpt><trkpt lat="44.96455985851354" lon="9.352115833838544"><ele>319.0</ele><time>2026-04-23T10:21:06.999Z</time></trkpt><trkpt lat="44.96453644837626" lon="9.352208954723498"><ele>318.33333333333337</ele><time>2026-04-23T10:21:07.999Z</time></trkpt><trkpt lat="44.96445246001156" lon="9.352329054820117"><ele>317.6666666666667</ele><time>2026-04-23T10:21:09.999Z</time></trkpt><trkpt lat="44.964391444025885" lon="9.35238299401997"><ele>317.0</ele><time>2026-04-23T10:21:10.999Z</time></trkpt><trkpt lat="44.96433874451535" lon="9.352446368722081"><ele>316.2</ele><time>2026-04-23T10:21:11.999Z</time></trkpt><trkpt lat="44.96423437610645" lon="9.352553760403774"><ele>315.4</ele><time>2026-04-23T10:21:13.999Z</time></trkpt><trkpt lat="44.964181767371" lon="9.35261281605919"><ele>314.6</ele><time>2026-04-23T10:21:14.999Z</time></trkpt><trkpt lat="44.96412425207992" lon="9.352674190871527"><ele>313.8</ele><time>2026-04-23T10:21:15.999Z</time></trkpt><trkpt lat="44.964045793722704" lon="9.352785303629904"><ele>313.0</ele><time>2026-04-23T10:21:17.999Z</time></trkpt><trkpt lat="44.96408091591185" lon="9.352903087302153"><ele>312.66666666666663</ele><time>2026-04-23T10:21:20.999Z</time></trkpt><trkpt lat="44.964111030856195" lon="9.352991097506433"><ele>312.3333333333333</ele><time>2026-04-23T10:21:23.999Z</time></trkpt><trkpt lat="44.964149028349574" lon="9.353092284016691"><ele>312.0</ele><time>2026-04-23T10:21:25.999Z</time></trkpt><trkpt lat="44.96418962685236" lon="9.353183624289391"><ele>311.6666666666667</ele><time>2026-04-23T10:21:27.999Z</time></trkpt><trkpt lat="44.96419619775804" lon="9.353317673684177"><ele>311.33333333333337</ele><time>2026-04-23T10:21:30.999Z</time></trkpt><trkpt lat="44.96420777696562" lon="9.353190765158972"><ele>311.0</ele><time>2026-04-23T10:21:35.999Z</time></trkpt><trkpt lat="44.96414927544121" lon="9.353080386242137"><ele>311.2857142857143</ele><time>2026-04-23T10:21:37.999Z</time></trkpt><trkpt lat="44.96412131456823" lon="9.35298303528247"><ele>311.5714285714286</ele><time>2026-04-23T10:21:39.999Z</time></trkpt><trkpt lat="44.964082451637545" lon="9.352894741480034"><ele>311.8571428571429</ele><time>2026-04-23T10:21:41.999Z</time></trkpt><trkpt lat="44.96405504327919" lon="9.352806114910056"><ele>312.1428571428571</ele><time>2026-04-23T10:21:43.999Z</time></trkpt><trkpt lat="44.96406262940989" lon="9.352714947010128"><ele>312.42857142857144</ele><time>2026-04-23T10:21:47.999Z</time></trkpt><trkpt lat="44.96414337272647" lon="9.352628221396117"><ele>312.7142857142857</ele><time>2026-04-23T10:21:49.999Z</time></trkpt><trkpt lat="44.96419637659754" lon="9.352578286994083"><ele>313.0</ele><time>2026-04-23T10:21:50.999Z</time></trkpt><trkpt lat="44.96424942666879" lon="9.352516903424938"><ele>313.0</ele><time>2026-04-23T10:21:51.999Z</time></trkpt><trkpt lat="44.96433834879088" lon="9.35244076049857"><ele>313.0</ele><time>2026-04-23T10:21:52.999Z</time></trkpt><trkpt lat="44.964411250063044" lon="9.352367994788757"><ele>313.0</ele><time>2026-04-23T10:21:53.999Z</time></trkpt><trkpt lat="44.96447272214259" lon="9.352299428989475"><ele>313.0</ele><time>2026-04-23T10:21:54.999Z</time></trkpt><trkpt lat="44.96452557444451" lon="9.352223471652636"><ele>313.0</ele><time>2026-04-23T10:21:55.999Z</time></trkpt><trkpt lat="44.964560309577635" lon="9.352138177233286"><ele>313.0</ele><time>2026-04-23T10:21:56.998Z</time></trkpt><trkpt lat="44.96458520426458" lon="9.352037035653344"><ele>313.66666666666663</ele><time>2026-04-23T10:21:57.998Z</time></trkpt><trkpt lat="44.96462824066525" lon="9.351889371791506"><ele>314.3333333333333</ele><time>2026-04-23T10:21:59.998Z</time></trkpt><trkpt lat="44.96466091168153" lon="9.351784421936639"><ele>315.0</ele><time>2026-04-23T10:22:01.998Z</time></trkpt><trkpt lat="44.964685034368344" lon="9.351686073032347"><ele>315.6666666666667</ele><time>2026-04-23T10:22:03.998Z</time></trkpt><trkpt lat="44.96466712671007" lon="9.351587379184256"><ele>316.33333333333337</ele><time>2026-04-23T10:22:04.998Z</time></trkpt><trkpt lat="44.964647433037335" lon="9.351462972747123"><ele>317.0</ele><time>2026-04-23T10:22:05.998Z</time></trkpt><trkpt lat="44.9646228224758" lon="9.35133105024624"><ele>317.8</ele><time>2026-04-23T10:22:06.998Z</time></trkpt><trkpt lat="44.96460102137816" lon="9.351206501717884"><ele>318.6</ele><time>2026-04-23T10:22:07.998Z</time></trkpt><trkpt lat="44.96458512433778" lon="9.35106654069265"><ele>319.40000000000003</ele><time>2026-04-23T10:22:09Z</time></trkpt><trkpt lat="44.964581596420956" lon="9.350904406518836"><ele>320.2</ele><time>2026-04-23T10:22:10Z</time></trkpt><trkpt lat="44.96457625126114" lon="9.3507648437416"><ele>321.0</ele><time>2026-04-23T10:22:11Z</time></trkpt><trkpt lat="44.96458219556997" lon="9.350648617510329"><ele>322.5</ele><time>2026-04-23T10:22:12Z</time></trkpt><trkpt lat="44.96457649226715" lon="9.350522898125334"><ele>324.0</ele><time>2026-04-23T10:22:13Z</time></trkpt><trkpt lat="44.9645792938884" lon="9.350419491099723"><ele>325.5</ele><time>2026-04-23T10:22:14Z</time></trkpt><trkpt lat="44.964582151280126" lon="9.350325073725019"><ele>327.0</ele><time>2026-04-23T10:22:15Z</time></trkpt><trkpt lat="44.96458738451215" lon="9.35023083226445"><ele>328.5</ele><time>2026-04-23T10:22:17Z</time></trkpt><trkpt lat="44.96461037809869" lon="9.350143974032678"><ele>330.0</ele><time>2026-04-23T10:22:19Z</time></trkpt><trkpt lat="44.96464473925632" lon="9.349965361482456"><ele>330.0</ele><time>2026-04-23T10:22:21Z</time></trkpt><trkpt lat="44.96465754642724" lon="9.349867352004159"><ele>330.0</ele><time>2026-04-23T10:22:22Z</time></trkpt><trkpt lat="44.96466749024149" lon="9.349680860840675"><ele>330.0</ele><time>2026-04-23T10:22:24Z</time></trkpt><trkpt lat="44.96467106952712" lon="9.349578472451501"><ele>330.0</ele><time>2026-04-23T10:22:25Z</time></trkpt><trkpt lat="44.96467184265924" lon="9.34948414560624"><ele>330.0</ele><time>2026-04-23T10:22:26Z</time></trkpt><trkpt lat="44.964649960118784" lon="9.349345059185433"><ele>330.0</ele><time>2026-04-23T10:22:28Z</time></trkpt><trkpt lat="44.96460783676658" lon="9.349251858838151"><ele>330.2</ele><time>2026-04-23T10:22:31Z</time></trkpt><trkpt lat="44.96453469675667" lon="9.349211978740879"><ele>330.4</ele><time>2026-04-23T10:22:33Z</time></trkpt><trkpt lat="44.96444440437286" lon="9.349203848317565"><ele>330.6</ele><time>2026-04-23T10:22:35Z</time></trkpt><trkpt lat="44.964354450006134" lon="9.349221700251478"><ele>330.8</ele><time>2026-04-23T10:22:37Z</time></trkpt><trkpt lat="44.96425757413702" lon="9.349219562473236"><ele>331.0</ele><time>2026-04-23T10:22:39Z</time></trkpt><trkpt lat="44.96414689362433" lon="9.349186298484469"><ele>331.0</ele><time>2026-04-23T10:22:41Z</time></trkpt><trkpt lat="44.964079196708745" lon="9.349155618239255"><ele>331.0</ele><time>2026-04-23T10:22:42Z</time></trkpt><trkpt lat="44.963983818945785" lon="9.349187830948907"><ele>331.0</ele><time>2026-04-23T10:22:44Z</time></trkpt><trkpt lat="44.963875426831635" lon="9.349253832584036"><ele>331.0</ele><time>2026-04-23T10:22:46Z</time></trkpt><trkpt lat="44.96381104499402" lon="9.34925534681455"><ele>331.0</ele><time>2026-04-23T10:22:47Z</time></trkpt><trkpt lat="44.96374804512103" lon="9.349257100562072"><ele>331.0</ele><time>2026-04-23T10:22:48Z</time></trkpt><trkpt lat="44.963677710848" lon="9.349239442115103"><ele>331.0</ele><time>2026-04-23T10:22:49Z</time></trkpt><trkpt lat="44.963613960614275" lon="9.349192320733742"><ele>331.0</ele><time>2026-04-23T10:22:49.999Z</time></trkpt><trkpt lat="44.963549323411755" lon="9.34915960305426"><ele>331.0</ele><time>2026-04-23T10:22:50.999Z</time></trkpt><trkpt lat="44.96347636165549" lon="9.349138924247294"><ele>331.0</ele><time>2026-04-23T10:22:51.999Z</time></trkpt><trkpt lat="44.963416973439266" lon="9.349092686372826"><ele>331.0</ele><time>2026-04-23T10:22:52.999Z</time></trkpt><trkpt lat="44.963358517690075" lon="9.349051185297975"><ele>331.0</ele><time>2026-04-23T10:22:53.999Z</time></trkpt><trkpt lat="44.96329729530509" lon="9.34900834297025"><ele>331.0</ele><time>2026-04-23T10:22:54.999Z</time></trkpt><trkpt lat="44.963244239864494" lon="9.348939044306466"><ele>330.4</ele><time>2026-04-23T10:22:55.999Z</time></trkpt><trkpt lat="44.96318019630477" lon="9.348905736886213"><ele>329.8</ele><time>2026-04-23T10:22:56.999Z</time></trkpt><trkpt lat="44.96309383005813" lon="9.348810676949505"><ele>329.2</ele><time>2026-04-23T10:22:58.999Z</time></trkpt><trkpt lat="44.963001800462955" lon="9.348801705544135"><ele>328.59999999999997</ele><time>2026-04-23T10:23:01.999Z</time></trkpt><trkpt lat="44.9629134879241" lon="9.34875650011675"><ele>328.0</ele><time>2026-04-23T10:23:03.999Z</time></trkpt><trkpt lat="44.96283607441246" lon="9.348856599047346"><ele>327.0</ele><time>2026-04-23T10:23:04.999Z</time></trkpt><trkpt lat="44.96276694510454" lon="9.348876387211957"><ele>326.0</ele><time>2026-04-23T10:23:05.999Z</time></trkpt><trkpt lat="44.962699186175385" lon="9.348900853106173"><ele>325.0</ele><time>2026-04-23T10:23:06.999Z</time></trkpt><trkpt lat="44.96262289470179" lon="9.34893072873085"><ele>324.0</ele><time>2026-04-23T10:23:07.999Z</time></trkpt><trkpt lat="44.962542517760006" lon="9.348972861981673"><ele>323.0</ele><time>2026-04-23T10:23:08.999Z</time></trkpt><trkpt lat="44.962462035282044" lon="9.34901512239684"><ele>322.0</ele><time>2026-04-23T10:23:09.999Z</time></trkpt><trkpt lat="44.96238689945945" lon="9.34903964715297"><ele>321.0</ele><time>2026-04-23T10:23:10.999Z</time></trkpt><trkpt lat="44.962308988196945" lon="9.34907509712564"><ele>320.0</ele><time>2026-04-23T10:23:11.999Z</time></trkpt><trkpt lat="44.962229209762626" lon="9.349106761119064"><ele>319.0</ele><time>2026-04-23T10:23:12.999Z</time></trkpt><trkpt lat="44.96215299364443" lon="9.34913456999897"><ele>318.0</ele><time>2026-04-23T10:23:13.999Z</time></trkpt><trkpt lat="44.96207329601229" lon="9.349163918414446"><ele>317.0</ele><time>2026-04-23T10:23:14.999Z</time></trkpt><trkpt lat="44.96199329549929" lon="9.349197110737647"><ele>316.0</ele><time>2026-04-23T10:23:15.999Z</time></trkpt><trkpt lat="44.961920023797816" lon="9.349225780861454"><ele>316.0</ele><time>2026-04-23T10:23:16.999Z</time></trkpt><trkpt lat="44.96184700093571" lon="9.349255834664072"><ele>316.0</ele><time>2026-04-23T10:23:17.999Z</time></trkpt><trkpt lat="44.96177965625683" lon="9.349283457341944"><ele>316.0</ele><time>2026-04-23T10:23:18.999Z</time></trkpt><trkpt lat="44.96171441119641" lon="9.349303079341682"><ele>316.0</ele><time>2026-04-23T10:23:19.999Z</time></trkpt><trkpt lat="44.96159996421321" lon="9.34934191390654"><ele>316.0</ele><time>2026-04-23T10:23:21.999Z</time></trkpt><trkpt lat="44.96149637496788" lon="9.349384880724632"><ele>316.0</ele><time>2026-04-23T10:23:23.999Z</time></trkpt><trkpt lat="44.96141813539056" lon="9.349432753542704"><ele>314.40000000000003</ele><time>2026-04-23T10:23:25.999Z</time></trkpt><trkpt lat="44.96134540665988" lon="9.349520391598173"><ele>312.8</ele><time>2026-04-23T10:23:28.999Z</time></trkpt><trkpt lat="44.961256856213325" lon="9.349466593773098"><ele>311.20000000000005</ele><time>2026-04-23T10:23:29.999Z</time></trkpt><trkpt lat="44.961155928049635" lon="9.349508192618403"><ele>309.6</ele><time>2026-04-23T10:23:31.999Z</time></trkpt><trkpt lat="44.96103401743135" lon="9.349559631861402"><ele>308.0</ele><time>2026-04-23T10:23:33.999Z</time></trkpt><trkpt lat="44.960970926540355" lon="9.349606672098364"><ele>308.0</ele><time>2026-04-23T10:23:34.999Z</time></trkpt><trkpt lat="44.96089269849201" lon="9.349623776326656"><ele>308.0</ele><time>2026-04-23T10:23:35.999Z</time></trkpt><trkpt lat="44.96081089262798" lon="9.349648681310127"><ele>308.0</ele><time>2026-04-23T10:23:36.999Z</time></trkpt><trkpt lat="44.960728285061776" lon="9.349675107030711"><ele>308.0</ele><time>2026-04-23T10:23:37.999Z</time></trkpt><trkpt lat="44.96064917318706" lon="9.349723001468474"><ele>308.0</ele><time>2026-04-23T10:23:38.999Z</time></trkpt><trkpt lat="44.96056055852482" lon="9.349777382746227"><ele>308.0</ele><time>2026-04-23T10:23:39.999Z</time></trkpt><trkpt lat="44.96045200433755" lon="9.349823100208381"><ele>310.2</ele><time>2026-04-23T10:23:40.999Z</time></trkpt><trkpt lat="44.96035019144867" lon="9.349878851810288"><ele>312.4</ele><time>2026-04-23T10:23:41.999Z</time></trkpt><trkpt lat="44.96024968996946" lon="9.34993587311703"><ele>314.59999999999997</ele><time>2026-04-23T10:23:42.999Z</time></trkpt><trkpt lat="44.960148807042245" lon="9.349983416177357"><ele>316.8</ele><time>2026-04-23T10:23:43.999Z</time></trkpt><trkpt lat="44.960044296403886" lon="9.350011444371184"><ele>319.0</ele><time>2026-04-23T10:23:44.999Z</time></trkpt><trkpt lat="44.959947100080974" lon="9.349983982302225"><ele>320.66666666666663</ele><time>2026-04-23T10:23:45.999Z</time></trkpt><trkpt lat="44.95986253227017" lon="9.34997154069001"><ele>322.3333333333333</ele><time>2026-04-23T10:23:46.999Z</time></trkpt><trkpt lat="44.95977986026103" lon="9.349962819209498"><ele>324.0</ele><time>2026-04-23T10:23:47.999Z</time></trkpt><trkpt lat="44.95969661657871" lon="9.349986894876821"><ele>325.6666666666667</ele><time>2026-04-23T10:23:48.999Z</time></trkpt><trkpt lat="44.95961143093704" lon="9.349980265744243"><ele>327.33333333333337</ele><time>2026-04-23T10:23:49.999Z</time></trkpt><trkpt lat="44.95952509587165" lon="9.349979716614346"><ele>329.0</ele><time>2026-04-23T10:23:50.999Z</time></trkpt><trkpt lat="44.95944640199995" lon="9.349984876696132"><ele>329.0</ele><time>2026-04-23T10:23:51.999Z</time></trkpt><trkpt lat="44.95937314076981" lon="9.349956257356034"><ele>329.0</ele><time>2026-04-23T10:23:52.999Z</time></trkpt><trkpt lat="44.95928855019844" lon="9.349941329127072"><ele>329.0</ele><time>2026-04-23T10:23:53.999Z</time></trkpt><trkpt lat="44.95922009918384" lon="9.34992732951211"><ele>329.0</ele><time>2026-04-23T10:23:54.999Z</time></trkpt><trkpt lat="44.95913542438083" lon="9.3499303970492"><ele>329.0</ele><time>2026-04-23T10:23:56.999Z</time></trkpt><trkpt lat="44.959058074874186" lon="9.349905994386173"><ele>329.0</ele><time>2026-04-23T10:24:00.998Z</time></trkpt><trkpt lat="44.9589757669965" lon="9.349882072053116"><ele>331.83333333333337</ele><time>2026-04-23T10:24:02.998Z</time></trkpt><trkpt lat="44.958906561203015" lon="9.349868566975271"><ele>334.6666666666667</ele><time>2026-04-23T10:24:04.998Z</time></trkpt><trkpt lat="44.95883553150897" lon="9.349855310767284"><ele>337.5</ele><time>2026-04-23T10:24:09.998Z</time></trkpt><trkpt lat="44.95892027844901" lon="9.349857527064009"><ele>340.3333333333333</ele><time>2026-04-23T10:24:16Z</time></trkpt><trkpt lat="44.959007867374034" lon="9.349877918387355"><ele>343.16666666666663</ele><time>2026-04-23T10:24:19Z</time></trkpt><trkpt lat="44.95909375747094" lon="9.349897914416626"><ele>346.0</ele><time>2026-04-23T10:24:22Z</time></trkpt><trkpt lat="44.959173773948244" lon="9.349916543933283"><ele>343.16666666666663</ele><time>2026-04-23T10:24:24Z</time></trkpt><trkpt lat="44.95924401948197" lon="9.349932423038998"><ele>340.3333333333333</ele><time>2026-04-23T10:24:26Z</time></trkpt><trkpt lat="44.959313681797525" lon="9.34994605676265"><ele>337.5</ele><time>2026-04-23T10:24:28Z</time></trkpt><trkpt lat="44.959394124832365" lon="9.349959857258451"><ele>334.6666666666667</ele><time>2026-04-23T10:24:30Z</time></trkpt><trkpt lat="44.9594928784915" lon="9.34997401421783"><ele>331.83333333333337</ele><time>2026-04-23T10:24:32Z</time></trkpt><trkpt lat="44.95957449905126" lon="9.349988101476365"><ele>329.0</ele><time>2026-04-23T10:24:33Z</time></trkpt><trkpt lat="44.959692370395636" lon="9.3499894299846"><ele>329.0</ele><time>2026-04-23T10:24:35Z</time></trkpt><trkpt lat="44.95980219650356" lon="9.34995237453081"><ele>329.0</ele><time>2026-04-23T10:24:37Z</time></trkpt><trkpt lat="44.95986487747708" lon="9.349967755400524"><ele>329.0</ele><time>2026-04-23T10:24:38Z</time></trkpt><trkpt lat="44.95997151039592" lon="9.349986270602212"><ele>329.0</ele><time>2026-04-23T10:24:40Z</time></trkpt><trkpt lat="44.96007693054068" lon="9.349989626915166"><ele>329.0</ele><time>2026-04-23T10:24:42Z</time></trkpt><trkpt lat="44.96017191932944" lon="9.349964859867278"><ele>327.0</ele><time>2026-04-23T10:24:44Z</time></trkpt><trkpt lat="44.960277155716646" lon="9.34997676304224"><ele>325.0</ele><time>2026-04-23T10:24:46Z</time></trkpt><trkpt lat="44.960322628593815" lon="9.349894503931612"><ele>323.0</ele><time>2026-04-23T10:24:47Z</time></trkpt><trkpt lat="44.96042373661203" lon="9.349853936145335"><ele>321.0</ele><time>2026-04-23T10:24:49Z</time></trkpt><trkpt lat="44.960522725332" lon="9.3497966870863"><ele>319.0</ele><time>2026-04-23T10:24:51Z</time></trkpt><trkpt lat="44.96062888269709" lon="9.349759494632952"><ele>319.0</ele><time>2026-04-23T10:24:53Z</time></trkpt><trkpt lat="44.96073238267288" lon="9.349716606682696"><ele>319.0</ele><time>2026-04-23T10:24:55Z</time></trkpt><trkpt lat="44.9608335203518" lon="9.349673321396413"><ele>319.0</ele><time>2026-04-23T10:24:57Z</time></trkpt><trkpt lat="44.96093319569342" lon="9.349627751520382"><ele>319.0</ele><time>2026-04-23T10:24:59Z</time></trkpt><trkpt lat="44.961015861159574" lon="9.349591755440645"><ele>319.0</ele><time>2026-04-23T10:25:00.999Z</time></trkpt><trkpt lat="44.961100458889725" lon="9.349555723065114"><ele>317.16666666666663</ele><time>2026-04-23T10:25:02.999Z</time></trkpt><trkpt lat="44.96118365344428" lon="9.34951783808592"><ele>315.3333333333333</ele><time>2026-04-23T10:25:04.999Z</time></trkpt><trkpt lat="44.96124716336776" lon="9.349479946502965"><ele>313.5</ele><time>2026-04-23T10:25:06.999Z</time></trkpt><trkpt lat="44.96131254994892" lon="9.349461614649233"><ele>311.6666666666667</ele><time>2026-04-23T10:25:08.999Z</time></trkpt><trkpt lat="44.961361820329415" lon="9.349400179693989"><ele>309.83333333333337</ele><time>2026-04-23T10:25:12.999Z</time></trkpt><trkpt lat="44.96142288177453" lon="9.34936142301016"><ele>308.0</ele><time>2026-04-23T10:25:17.999Z</time></trkpt><trkpt lat="44.96142647447218" lon="9.34921691146844"><ele>308.0</ele><time>2026-04-23T10:25:20.999Z</time></trkpt><trkpt lat="44.961442361240955" lon="9.34912056510143"><ele>308.0</ele><time>2026-04-23T10:25:22.999Z</time></trkpt><trkpt lat="44.96145386933169" lon="9.349025616074885"><ele>308.0</ele><time>2026-04-23T10:25:25.999Z</time></trkpt><trkpt lat="44.96143690247492" lon="9.348938724530727"><ele>308.0</ele><time>2026-04-23T10:25:27.999Z</time></trkpt><trkpt lat="44.96138949153349" lon="9.348865369266257"><ele>308.0</ele><time>2026-04-23T10:25:30.999Z</time></trkpt><trkpt lat="44.961379708155825" lon="9.348967682241309"><ele>308.0</ele><time>2026-04-23T10:25:33.999Z</time></trkpt><trkpt lat="44.96144091036823" lon="9.349058827046756"><ele>308.0</ele><time>2026-04-23T10:25:35.999Z</time></trkpt><trkpt lat="44.961443528181185" lon="9.349195853501115"><ele>308.0</ele><time>2026-04-23T10:25:38.999Z</time></trkpt><trkpt lat="44.96142894433003" lon="9.349309551990727"><ele>308.0</ele><time>2026-04-23T10:25:40.999Z</time></trkpt><trkpt lat="44.96144997148509" lon="9.349412324085941"><ele>308.0</ele><time>2026-04-23T10:25:44.999Z</time></trkpt><trkpt lat="44.96154430755878" lon="9.34940603639091"><ele>308.0</ele><time>2026-04-23T10:25:46.999Z</time></trkpt><trkpt lat="44.961628485967246" lon="9.349369423350828"><ele>308.0</ele><time>2026-04-23T10:25:48.999Z</time></trkpt><trkpt lat="44.96175236204299" lon="9.349327951799768"><ele>309.33333333333337</ele><time>2026-04-23T10:25:50.999Z</time></trkpt><trkpt lat="44.96181633271451" lon="9.34930633394544"><ele>310.6666666666667</ele><time>2026-04-23T10:25:51.999Z</time></trkpt><trkpt lat="44.96188431054838" lon="9.349285578785715"><ele>312.0</ele><time>2026-04-23T10:25:52.999Z</time></trkpt><trkpt lat="44.961949386932965" lon="9.349262359829702"><ele>313.3333333333333</ele><time>2026-04-23T10:25:53.999Z</time></trkpt><trkpt lat="44.962049725484675" lon="9.349222587412038"><ele>314.66666666666663</ele><time>2026-04-23T10:25:55.999Z</time></trkpt><trkpt lat="44.96216066901213" lon="9.349178611117164"><ele>316.0</ele><time>2026-04-23T10:25:57.999Z</time></trkpt><trkpt lat="44.96223447506641" lon="9.349149355681893"><ele>316.0</ele><time>2026-04-23T10:25:58.999Z</time></trkpt><trkpt lat="44.96231466644832" lon="9.349118286192077"><ele>316.0</ele><time>2026-04-23T10:25:59.999Z</time></trkpt><trkpt lat="44.962407684980924" lon="9.349082758206482"><ele>316.0</ele><time>2026-04-23T10:26:00.999Z</time></trkpt><trkpt lat="44.962550700858095" lon="9.349019626149893"><ele>316.0</ele><time>2026-04-23T10:26:01.999Z</time></trkpt><trkpt lat="44.96269778006366" lon="9.348934312014359"><ele>317.0</ele><time>2026-04-23T10:26:02.999Z</time></trkpt><trkpt lat="44.96259708477108" lon="9.348973275581132"><ele>318.0</ele><time>2026-04-23T10:26:03.999Z</time></trkpt><trkpt lat="44.962670965836786" lon="9.348949866134177"><ele>319.0</ele><time>2026-04-23T10:26:04.999Z</time></trkpt><trkpt lat="44.96274221836067" lon="9.348909459176229"><ele>320.0</ele><time>2026-04-23T10:26:05.999Z</time></trkpt><trkpt lat="44.962804004740846" lon="9.348853526373142"><ele>321.0</ele><time>2026-04-23T10:26:06.999Z</time></trkpt><trkpt lat="44.9628684745085" lon="9.348835759899162"><ele>322.0</ele><time>2026-04-23T10:26:07.999Z</time></trkpt><trkpt lat="44.962972885470734" lon="9.348814909861767"><ele>322.0</ele><time>2026-04-23T10:26:09.999Z</time></trkpt><trkpt lat="44.963040987170224" lon="9.348817767335051"><ele>322.0</ele><time>2026-04-23T10:26:11.998Z</time></trkpt><trkpt lat="44.962980103069725" lon="9.348683538669357"><ele>322.0</ele><time>2026-04-23T10:26:22Z</time></trkpt><trkpt lat="44.96297911298127" lon="9.348773445763157"><ele>322.0</ele><time>2026-04-23T10:26:26Z</time></trkpt><trkpt lat="44.96303000293936" lon="9.348837122036471"><ele>322.0</ele><time>2026-04-23T10:26:54Z</time></trkpt><trkpt lat="44.96314193059051" lon="9.348907160088533"><ele>322.0</ele><time>2026-04-23T10:26:56Z</time></trkpt><trkpt lat="44.96320471604627" lon="9.348960917897067"><ele>322.0</ele><time>2026-04-23T10:26:57Z</time></trkpt><trkpt lat="44.96327778518769" lon="9.34902076437855"><ele>322.0</ele><time>2026-04-23T10:26:58Z</time></trkpt><trkpt lat="44.96335253259616" lon="9.349081764352677"><ele>322.0</ele><time>2026-04-23T10:26:59Z</time></trkpt><trkpt lat="44.963425611360876" lon="9.349136353708825"><ele>322.0</ele><time>2026-04-23T10:27:00Z</time></trkpt><trkpt lat="44.96350019169199" lon="9.34918288133189"><ele>322.0</ele><time>2026-04-23T10:27:01Z</time></trkpt><trkpt lat="44.963571107925475" lon="9.349221963717342"><ele>322.0</ele><time>2026-04-23T10:27:02Z</time></trkpt><trkpt lat="44.96364521487747" lon="9.349254818801219"><ele>323.5</ele><time>2026-04-23T10:27:03Z</time></trkpt><trkpt lat="44.96372009309869" lon="9.349277705659658"><ele>325.0</ele><time>2026-04-23T10:27:04Z</time></trkpt><trkpt lat="44.963792142943745" lon="9.349288959660676"><ele>326.5</ele><time>2026-04-23T10:27:05Z</time></trkpt><trkpt lat="44.96386944865988" lon="9.349287318054916"><ele>328.0</ele><time>2026-04-23T10:27:06Z</time></trkpt><trkpt lat="44.96394256919902" lon="9.349267492575821"><ele>329.5</ele><time>2026-04-23T10:27:07Z</time></trkpt><trkpt lat="44.96401045043092" lon="9.349235530706318"><ele>331.0</ele><time>2026-04-23T10:27:08Z</time></trkpt><trkpt lat="44.964149272797506" lon="9.349198293007802"><ele>332.20000000000005</ele><time>2026-04-23T10:27:10Z</time></trkpt><trkpt lat="44.96421500458064" lon="9.349252042151592"><ele>333.40000000000003</ele><time>2026-04-23T10:27:10.999Z</time></trkpt><trkpt lat="44.964349072877475" lon="9.349279575169527"><ele>334.6</ele><time>2026-04-23T10:27:12.999Z</time></trkpt><trkpt lat="44.96440940331414" lon="9.349252364731582"><ele>335.8</ele><time>2026-04-23T10:27:13.999Z</time></trkpt><trkpt lat="44.964519076722745" lon="9.349217775819552"><ele>337.0</ele><time>2026-04-23T10:27:15.999Z</time></trkpt><trkpt lat="44.964584165341186" lon="9.349294822678706"><ele>337.0</ele><time>2026-04-23T10:27:17.999Z</time></trkpt><trkpt lat="44.964658001667296" lon="9.349350631840235"><ele>337.0</ele><time>2026-04-23T10:27:19.999Z</time></trkpt><trkpt lat="44.96474723465155" lon="9.349331440973517"><ele>337.0</ele><time>2026-04-23T10:27:21.999Z</time></trkpt><trkpt lat="44.96482246698334" lon="9.34922208233829"><ele>337.0</ele><time>2026-04-23T10:27:23.999Z</time></trkpt><trkpt lat="44.96488340775876" lon="9.34913827178114"><ele>337.0</ele><time>2026-04-23T10:27:26.999Z</time></trkpt><trkpt lat="44.96497110347186" lon="9.349164810380179"><ele>338.40000000000003</ele><time>2026-04-23T10:27:30.999Z</time></trkpt><trkpt lat="44.96505371890791" lon="9.349303013240794"><ele>339.8</ele><time>2026-04-23T10:27:32.999Z</time></trkpt><trkpt lat="44.96513467442965" lon="9.349363855128718"><ele>341.2</ele><time>2026-04-23T10:27:33.999Z</time></trkpt><trkpt lat="44.96520681087589" lon="9.349399904167647"><ele>342.6</ele><time>2026-04-23T10:27:34.999Z</time></trkpt><trkpt lat="44.96527708013455" lon="9.349406150864377"><ele>344.0</ele><time>2026-04-23T10:27:35.999Z</time></trkpt><trkpt lat="44.965378092620256" lon="9.349464509809426"><ele>344.0</ele><time>2026-04-23T10:27:37.999Z</time></trkpt><trkpt lat="44.96542992109153" lon="9.349588369183774"><ele>344.0</ele><time>2026-04-23T10:27:39.999Z</time></trkpt><trkpt lat="44.96547088530973" lon="9.349744053704526"><ele>344.0</ele><time>2026-04-23T10:27:41.999Z</time></trkpt><trkpt lat="44.96550915179153" lon="9.349818205609505"><ele>344.0</ele><time>2026-04-23T10:27:42.999Z</time></trkpt><trkpt lat="44.965554695304895" lon="9.349888705225714"><ele>344.0</ele><time>2026-04-23T10:27:43.999Z</time></trkpt><trkpt lat="44.965605437030966" lon="9.349956201909032"><ele>344.0</ele><time>2026-04-23T10:27:44.999Z</time></trkpt><trkpt lat="44.965656116756364" lon="9.350017430715079"><ele>343.1666666666667</ele><time>2026-04-23T10:27:45.999Z</time></trkpt><trkpt lat="44.9657078003103" lon="9.350077396661542"><ele>342.33333333333337</ele><time>2026-04-23T10:27:46.999Z</time></trkpt><trkpt lat="44.9657662354044" lon="9.350133485049815"><ele>341.5</ele><time>2026-04-23T10:27:47.999Z</time></trkpt><trkpt lat="44.96582015514555" lon="9.350183043466776"><ele>340.6666666666667</ele><time>2026-04-23T10:27:48.999Z</time></trkpt><trkpt lat="44.965871525607405" lon="9.350234639817858"><ele>339.8333333333333</ele><time>2026-04-23T10:27:49.999Z</time></trkpt><trkpt lat="44.96591711653592" lon="9.350369255777707"><ele>339.0</ele><time>2026-04-23T10:27:51.999Z</time></trkpt><trkpt lat="44.96597695385556" lon="9.350539549622752"><ele>341.0</ele><time>2026-04-23T10:27:53.999Z</time></trkpt><trkpt lat="44.96600966527638" lon="9.350635532811225"><ele>343.0</ele><time>2026-04-23T10:27:54.999Z</time></trkpt><trkpt lat="44.96603774088631" lon="9.350738281760892"><ele>345.0</ele><time>2026-04-23T10:27:55.999Z</time></trkpt><trkpt lat="44.966060306435566" lon="9.350852434344695"><ele>347.0</ele><time>2026-04-23T10:27:56.999Z</time></trkpt><trkpt lat="44.96608005715206" lon="9.351002616526138"><ele>349.0</ele><time>2026-04-23T10:27:57.999Z</time></trkpt><trkpt lat="44.966085944627714" lon="9.351187859211242"><ele>348.2</ele><time>2026-04-23T10:27:58.999Z</time></trkpt><trkpt lat="44.9660843159418" lon="9.35138114203739"><ele>347.4</ele><time>2026-04-23T10:27:59.999Z</time></trkpt><trkpt lat="44.96607459450379" lon="9.351548348602728"><ele>346.6</ele><time>2026-04-23T10:28:00.999Z</time></trkpt><trkpt lat="44.96608613696346" lon="9.35168623881965"><ele>345.8</ele><time>2026-04-23T10:28:01.999Z</time></trkpt><trkpt lat="44.96611447169215" lon="9.351796930152632"><ele>345.0</ele><time>2026-04-23T10:28:02.999Z</time></trkpt><trkpt lat="44.96614471859566" lon="9.351903381874479"><ele>345.0</ele><time>2026-04-23T10:28:03.999Z</time></trkpt><trkpt lat="44.96616895336674" lon="9.352023336629497"><ele>345.0</ele><time>2026-04-23T10:28:04.999Z</time></trkpt><trkpt lat="44.96618958375154" lon="9.352166231769326"><ele>345.0</ele><time>2026-04-23T10:28:05.999Z</time></trkpt><trkpt lat="44.96620775877521" lon="9.352348345131976"><ele>345.0</ele><time>2026-04-23T10:28:06.999Z</time></trkpt><trkpt lat="44.9662248697772" lon="9.35250801794482"><ele>345.0</ele><time>2026-04-23T10:28:07.999Z</time></trkpt><trkpt lat="44.96625191884849" lon="9.352646850074304"><ele>344.3333333333333</ele><time>2026-04-23T10:28:08.999Z</time></trkpt><trkpt lat="44.96628357524926" lon="9.352771253278073"><ele>343.6666666666667</ele><time>2026-04-23T10:28:09.999Z</time></trkpt><trkpt lat="44.966324170613355" lon="9.3528727397424"><ele>343.0</ele><time>2026-04-23T10:28:10.999Z</time></trkpt><trkpt lat="44.966365335047456" lon="9.352962287290673"><ele>342.33333333333337</ele><time>2026-04-23T10:28:11.999Z</time></trkpt><trkpt lat="44.96640441297096" lon="9.353041996225945"><ele>341.6666666666667</ele><time>2026-04-23T10:28:12.999Z</time></trkpt><trkpt lat="44.96644429689481" lon="9.35311585325858"><ele>341.0</ele><time>2026-04-23T10:28:13.999Z</time></trkpt><trkpt lat="44.96649196526083" lon="9.353231147694306"><ele>341.20000000000005</ele><time>2026-04-23T10:28:15.999Z</time></trkpt><trkpt lat="44.96656494980083" lon="9.35323704356054"><ele>341.40000000000003</ele><time>2026-04-23T10:28:21.998Z</time></trkpt><trkpt lat="44.966673438991485" lon="9.353286384950506"><ele>341.6</ele><time>2026-04-23T10:28:33Z</time></trkpt><trkpt lat="44.96677863543202" lon="9.353288335856384"><ele>341.8</ele><time>2026-04-23T10:28:35Z</time></trkpt><trkpt lat="44.96684969980666" lon="9.35323875872735"><ele>342.0</ele><time>2026-04-23T10:28:36Z</time></trkpt><trkpt lat="44.966947472768396" lon="9.353125285880497"><ele>344.0</ele><time>2026-04-23T10:28:37Z</time></trkpt><trkpt lat="44.96705267797803" lon="9.353036635851447"><ele>346.0</ele><time>2026-04-23T10:28:38Z</time></trkpt><trkpt lat="44.967171301345466" lon="9.35293663179151"><ele>348.0</ele><time>2026-04-23T10:28:39Z</time></trkpt><trkpt lat="44.967285941824585" lon="9.352843719300381"><ele>350.0</ele><time>2026-04-23T10:28:40Z</time></trkpt><trkpt lat="44.96738473716551" lon="9.352754667886082"><ele>350.0</ele><time>2026-04-23T10:28:41Z</time></trkpt><trkpt lat="44.967485316383474" lon="9.352639893020804"><ele>350.0</ele><time>2026-04-23T10:28:42Z</time></trkpt><trkpt lat="44.96757510556549" lon="9.352519129365533"><ele>350.0</ele><time>2026-04-23T10:28:43Z</time></trkpt><trkpt lat="44.967646216382356" lon="9.352393425058326"><ele>350.0</ele><time>2026-04-23T10:28:44Z</time></trkpt><trkpt lat="44.96771327437392" lon="9.352228764046554"><ele>354.25</ele><time>2026-04-23T10:28:45Z</time></trkpt><trkpt lat="44.9677886910475" lon="9.352050999377251"><ele>358.5</ele><time>2026-04-23T10:28:46Z</time></trkpt><trkpt lat="44.96787762224137" lon="9.35189918825957"><ele>362.75</ele><time>2026-04-23T10:28:47Z</time></trkpt><trkpt lat="44.96794886108007" lon="9.35177629667762"><ele>367.0</ele><time>2026-04-23T10:28:48Z</time></trkpt><trkpt lat="44.96800782655624" lon="9.351657836626357"><ele>367.0</ele><time>2026-04-23T10:28:49Z</time></trkpt><trkpt lat="44.96805305568449" lon="9.351557749791326"><ele>367.0</ele><time>2026-04-23T10:28:50Z</time></trkpt><trkpt lat="44.968102878075435" lon="9.351459171298606"><ele>367.0</ele><time>2026-04-23T10:28:51Z</time></trkpt><trkpt lat="44.96815273245524" lon="9.35137329539593"><ele>367.0</ele><time>2026-04-23T10:28:52Z</time></trkpt><trkpt lat="44.96823875027884" lon="9.35130149237668"><ele>367.0</ele><time>2026-04-23T10:28:53Z</time></trkpt><trkpt lat="44.96834934946549" lon="9.351248259997265"><ele>370.25</ele><time>2026-04-23T10:28:54Z</time></trkpt><trkpt lat="44.968467430004814" lon="9.351202431442495"><ele>373.5</ele><time>2026-04-23T10:28:55Z</time></trkpt><trkpt lat="44.9685938807988" lon="9.351113620850208"><ele>376.75</ele><time>2026-04-23T10:28:56Z</time></trkpt><trkpt lat="44.96869875226622" lon="9.351049942288206"><ele>380.0</ele><time>2026-04-23T10:28:57Z</time></trkpt><trkpt lat="44.968802726768786" lon="9.350993261833098"><ele>380.0</ele><time>2026-04-23T10:28:58Z</time></trkpt><trkpt lat="44.968899908761536" lon="9.350929688770625"><ele>380.0</ele><time>2026-04-23T10:28:59Z</time></trkpt><trkpt lat="44.968975249328025" lon="9.350831335079079"><ele>380.0</ele><time>2026-04-23T10:29:00Z</time></trkpt><trkpt lat="44.96903866980773" lon="9.350704482015074"><ele>380.0</ele><time>2026-04-23T10:29:01Z</time></trkpt><trkpt lat="44.969112955854946" lon="9.35052984880706"><ele>383.5</ele><time>2026-04-23T10:29:02Z</time></trkpt><trkpt lat="44.96920335274063" lon="9.350342632494012"><ele>387.0</ele><time>2026-04-23T10:29:03Z</time></trkpt><trkpt lat="44.969278938798055" lon="9.350192400636828"><ele>390.5</ele><time>2026-04-23T10:29:04Z</time></trkpt><trkpt lat="44.96934647197444" lon="9.35006394212241"><ele>394.0</ele><time>2026-04-23T10:29:05Z</time></trkpt><trkpt lat="44.96942471218564" lon="9.349957082580435"><ele>394.0</ele><time>2026-04-23T10:29:06Z</time></trkpt><trkpt lat="44.969522520992555" lon="9.349851471218937"><ele>394.0</ele><time>2026-04-23T10:29:07Z</time></trkpt><trkpt lat="44.96963377322262" lon="9.34974860229647"><ele>394.0</ele><time>2026-04-23T10:29:08Z</time></trkpt><trkpt lat="44.969718946464546" lon="9.349677664868958"><ele>394.0</ele><time>2026-04-23T10:29:09Z</time></trkpt><trkpt lat="44.96979304634759" lon="9.34960873123732"><ele>394.0</ele><time>2026-04-23T10:29:10Z</time></trkpt><trkpt lat="44.96985341048178" lon="9.349532345840048"><ele>394.2</ele><time>2026-04-23T10:29:11Z</time></trkpt><trkpt lat="44.96987834563318" lon="9.349438771521731"><ele>394.4</ele><time>2026-04-23T10:29:13Z</time></trkpt><trkpt lat="44.969843776050624" lon="9.349324492395521"><ele>394.6</ele><time>2026-04-23T10:29:14.999Z</time></trkpt><trkpt lat="44.969788404335205" lon="9.349223641995568"><ele>394.8</ele><time>2026-04-23T10:29:15.999Z</time></trkpt><trkpt lat="44.96971608239477" lon="9.349064415879592"><ele>395.0</ele><time>2026-04-23T10:29:16.999Z</time></trkpt><trkpt lat="44.96964506658986" lon="9.348883235699592"><ele>394.66666666666663</ele><time>2026-04-23T10:29:17.999Z</time></trkpt><trkpt lat="44.96956864851548" lon="9.348679258591293"><ele>394.33333333333337</ele><time>2026-04-23T10:29:18.999Z</time></trkpt><trkpt lat="44.96949097007395" lon="9.348452717123259"><ele>394.0</ele><time>2026-04-23T10:29:19.999Z</time></trkpt><trkpt lat="44.969419211540206" lon="9.34822196517298"><ele>395.6666666666667</ele><time>2026-04-23T10:29:20.999Z</time></trkpt><trkpt lat="44.96934117527401" lon="9.347965602193689"><ele>397.33333333333337</ele><time>2026-04-23T10:29:21.999Z</time></trkpt><trkpt lat="44.96925502109612" lon="9.347700866845829"><ele>399.0</ele><time>2026-04-23T10:29:22.999Z</time></trkpt><trkpt lat="44.96918179106908" lon="9.347430073171074"><ele>404.66666666666663</ele><time>2026-04-23T10:29:23.999Z</time></trkpt><trkpt lat="44.969147775969155" lon="9.347165474023354"><ele>410.3333333333333</ele><time>2026-04-23T10:29:24.999Z</time></trkpt><trkpt lat="44.96917642601301" lon="9.346883069949625"><ele>416.0</ele><time>2026-04-23T10:29:25.999Z</time></trkpt><trkpt lat="44.96914941907095" lon="9.34665126447685"><ele>416.0</ele><time>2026-04-23T10:29:26.999Z</time></trkpt><trkpt lat="44.969128308560826" lon="9.346449887940723"><ele>416.0</ele><time>2026-04-23T10:29:27.999Z</time></trkpt><trkpt lat="44.969101561932824" lon="9.346247199031612"><ele>416.0</ele><time>2026-04-23T10:29:28.999Z</time></trkpt><trkpt lat="44.96905173875344" lon="9.346061997600831"><ele>416.0</ele><time>2026-04-23T10:29:29.999Z</time></trkpt><trkpt lat="44.96901638112307" lon="9.34590996663406"><ele>417.25</ele><time>2026-04-23T10:29:30.999Z</time></trkpt><trkpt lat="44.968948132100486" lon="9.345771197297156"><ele>418.5</ele><time>2026-04-23T10:29:31.999Z</time></trkpt><trkpt lat="44.968908940116975" lon="9.345608062801675"><ele>419.75</ele><time>2026-04-23T10:29:32.999Z</time></trkpt><trkpt lat="44.96886393832865" lon="9.345467111686897"><ele>421.0</ele><time>2026-04-23T10:29:33.999Z</time></trkpt><trkpt lat="44.96878219429004" lon="9.345346319758017"><ele>421.4</ele><time>2026-04-23T10:29:34.999Z</time></trkpt><trkpt lat="44.96870545422514" lon="9.34522287233811"><ele>421.8</ele><time>2026-04-23T10:29:35.999Z</time></trkpt><trkpt lat="44.968637681595375" lon="9.345124713647987"><ele>422.2</ele><time>2026-04-23T10:29:36.999Z</time></trkpt><trkpt lat="44.968572059014164" lon="9.345009534590506"><ele>422.59999999999997</ele><time>2026-04-23T10:29:37.999Z</time></trkpt><trkpt lat="44.9685072751002" lon="9.344867669771878"><ele>423.0</ele><time>2026-04-23T10:29:38.999Z</time></trkpt><trkpt lat="44.96844764126451" lon="9.344719127490292"><ele>422.5</ele><time>2026-04-23T10:29:39.999Z</time></trkpt><trkpt lat="44.96839600833731" lon="9.344572351585875"><ele>422.0</ele><time>2026-04-23T10:29:40.999Z</time></trkpt><trkpt lat="44.968370070798535" lon="9.344401947561328"><ele>421.5</ele><time>2026-04-23T10:29:41.999Z</time></trkpt><trkpt lat="44.96837085345489" lon="9.344233249495291"><ele>421.0</ele><time>2026-04-23T10:29:42.999Z</time></trkpt><trkpt lat="44.968393429085886" lon="9.344066694943384"><ele>421.0</ele><time>2026-04-23T10:29:43.999Z</time></trkpt><trkpt lat="44.96841326478478" lon="9.343898805458625"><ele>421.0</ele><time>2026-04-23T10:29:44.999Z</time></trkpt><trkpt lat="44.96843866144152" lon="9.343731146904933"><ele>421.0</ele><time>2026-04-23T10:29:45.999Z</time></trkpt><trkpt lat="44.96841587180054" lon="9.343556056538848"><ele>421.0</ele><time>2026-04-23T10:29:46.999Z</time></trkpt><trkpt lat="44.96839590864816" lon="9.343387193864526"><ele>420.25</ele><time>2026-04-23T10:29:47.999Z</time></trkpt><trkpt lat="44.96837967108599" lon="9.343234999030605"><ele>419.5</ele><time>2026-04-23T10:29:48.999Z</time></trkpt><trkpt lat="44.96834269817673" lon="9.343075030792207"><ele>418.75</ele><time>2026-04-23T10:29:49.999Z</time></trkpt><trkpt lat="44.968303584010506" lon="9.34292393149086"><ele>418.0</ele><time>2026-04-23T10:29:50.999Z</time></trkpt><trkpt lat="44.968259922632015" lon="9.342767763422907"><ele>420.5</ele><time>2026-04-23T10:29:51.999Z</time></trkpt><trkpt lat="44.96820533029543" lon="9.34260717038777"><ele>423.0</ele><time>2026-04-23T10:29:52.999Z</time></trkpt><trkpt lat="44.96814712097471" lon="9.342427496461962"><ele>425.5</ele><time>2026-04-23T10:29:53.999Z</time></trkpt><trkpt lat="44.96808197392955" lon="9.342234143132428"><ele>428.0</ele><time>2026-04-23T10:29:54.999Z</time></trkpt><trkpt lat="44.96797916488082" lon="9.34205355699834"><ele>428.0</ele><time>2026-04-23T10:29:55.999Z</time></trkpt><trkpt lat="44.967846914671924" lon="9.341894588889925"><ele>428.0</ele><time>2026-04-23T10:29:56.999Z</time></trkpt><trkpt lat="44.967713720290945" lon="9.341743155399651"><ele>428.0</ele><time>2026-04-23T10:29:57.999Z</time></trkpt><trkpt lat="44.967585103694326" lon="9.341584861372116"><ele>430.66666666666663</ele><time>2026-04-23T10:29:58.999Z</time></trkpt><trkpt lat="44.967476596571366" lon="9.341395624321224"><ele>433.33333333333337</ele><time>2026-04-23T10:29:59.999Z</time></trkpt><trkpt lat="44.96737557250104" lon="9.34119210026769"><ele>436.0</ele><time>2026-04-23T10:30:00.999Z</time></trkpt><trkpt lat="44.96725624511606" lon="9.340969369827988"><ele>436.33333333333337</ele><time>2026-04-23T10:30:01.999Z</time></trkpt><trkpt lat="44.96711107347667" lon="9.340787530478593"><ele>436.66666666666663</ele><time>2026-04-23T10:30:02.999Z</time></trkpt><trkpt lat="44.966990892703215" lon="9.340628474966735"><ele>437.0</ele><time>2026-04-23T10:30:03.999Z</time></trkpt><trkpt lat="44.96688478670574" lon="9.340480254898486"><ele>438.5</ele><time>2026-04-23T10:30:04.999Z</time></trkpt><trkpt lat="44.96677306639208" lon="9.340341135045865"><ele>440.0</ele><time>2026-04-23T10:30:05.999Z</time></trkpt><trkpt lat="44.96666084949972" lon="9.340228964680655"><ele>441.5</ele><time>2026-04-23T10:30:06.999Z</time></trkpt><trkpt lat="44.96655141618978" lon="9.340121654436494"><ele>443.0</ele><time>2026-04-23T10:30:07.999Z</time></trkpt><trkpt lat="44.96645024798234" lon="9.340029673691006"><ele>443.0</ele><time>2026-04-23T10:30:08.999Z</time></trkpt><trkpt lat="44.96635620260369" lon="9.33995647877616"><ele>442.99999999999994</ele><time>2026-04-23T10:30:09.999Z</time></trkpt><trkpt lat="44.96626293519814" lon="9.33987901363265"><ele>442.99999999999994</ele><time>2026-04-23T10:30:10.999Z</time></trkpt><trkpt lat="44.966191118128734" lon="9.339807717604716"><ele>443.0</ele><time>2026-04-23T10:30:11.999Z</time></trkpt><trkpt lat="44.966151072831" lon="9.339723651515138"><ele>443.0</ele><time>2026-04-23T10:30:12.999Z</time></trkpt><trkpt lat="44.96606454555758" lon="9.339606908744551"><ele>442.79999999999995</ele><time>2026-04-23T10:30:14.999Z</time></trkpt><trkpt lat="44.96603636844139" lon="9.339509418708909"><ele>442.59999999999997</ele><time>2026-04-23T10:30:15.999Z</time></trkpt><trkpt lat="44.96598133308521" lon="9.3394124313655"><ele>442.40000000000003</ele><time>2026-04-23T10:30:16.999Z</time></trkpt><trkpt lat="44.965930402053885" lon="9.33931496008376"><ele>442.20000000000005</ele><time>2026-04-23T10:30:17.999Z</time></trkpt><trkpt lat="44.96587729750442" lon="9.339175219533674"><ele>442.0</ele><time>2026-04-23T10:30:18.999Z</time></trkpt><trkpt lat="44.96581880019153" lon="9.339063439050346"><ele>443.8</ele><time>2026-04-23T10:30:19.999Z</time></trkpt><trkpt lat="44.965768706872986" lon="9.33895641086788"><ele>445.6</ele><time>2026-04-23T10:30:20.999Z</time></trkpt><trkpt lat="44.96570975521768" lon="9.338850576133858"><ele>447.40000000000003</ele><time>2026-04-23T10:30:21.999Z</time></trkpt><trkpt lat="44.96564273765603" lon="9.338756237650989"><ele>449.20000000000005</ele><time>2026-04-23T10:30:22.999Z</time></trkpt><trkpt lat="44.96557419907408" lon="9.338662745516974"><ele>451.0</ele><time>2026-04-23T10:30:23.999Z</time></trkpt><trkpt lat="44.965507728218725" lon="9.33859789128744"><ele>451.1666666666667</ele><time>2026-04-23T10:30:24.998Z</time></trkpt><trkpt lat="44.96543118387866" lon="9.338533103566308"><ele>451.33333333333337</ele><time>2026-04-23T10:30:25.998Z</time></trkpt><trkpt lat="44.96535084086549" lon="9.338473352346963"><ele>451.5</ele><time>2026-04-23T10:30:26.998Z</time></trkpt><trkpt lat="44.96527399527635" lon="9.338404591860291"><ele>451.66666666666663</ele><time>2026-04-23T10:30:27.998Z</time></trkpt><trkpt lat="44.96519964835889" lon="9.338338493676368"><ele>451.8333333333333</ele><time>2026-04-23T10:30:28.998Z</time></trkpt><trkpt lat="44.96512088869972" lon="9.338279999665195"><ele>452.0</ele><time>2026-04-23T10:30:29.998Z</time></trkpt><trkpt lat="44.9650683086979" lon="9.338191058199527"><ele>451.8333333333333</ele><time>2026-04-23T10:30:30.998Z</time></trkpt><trkpt lat="44.965009407205486" lon="9.33813284861743"><ele>451.66666666666663</ele><time>2026-04-23T10:30:31.998Z</time></trkpt><trkpt lat="44.96497464275168" lon="9.33805568154751"><ele>451.5</ele><time>2026-04-23T10:30:33Z</time></trkpt><trkpt lat="44.9649121907384" lon="9.337966987910058"><ele>451.33333333333337</ele><time>2026-04-23T10:30:35Z</time></trkpt><trkpt lat="44.96486628530389" lon="9.337893484822795"><ele>451.1666666666667</ele><time>2026-04-23T10:30:38Z</time></trkpt><trkpt lat="44.96482229673163" lon="9.337811564743046"><ele>451.0</ele><time>2026-04-23T10:30:43Z</time></trkpt><trkpt lat="44.964812474405065" lon="9.337690573831807"><ele>451.50000000000006</ele><time>2026-04-23T10:30:45Z</time></trkpt><trkpt lat="44.96481554580896" lon="9.33760131647986"><ele>452.0</ele><time>2026-04-23T10:30:46Z</time></trkpt><trkpt lat="44.9648383273659" lon="9.337503633694741"><ele>452.5</ele><time>2026-04-23T10:30:47Z</time></trkpt><trkpt lat="44.964853999959495" lon="9.33741324269027"><ele>453.0</ele><time>2026-04-23T10:30:48Z</time></trkpt><trkpt lat="44.96486911806879" lon="9.33732079797383"><ele>453.50000000000006</ele><time>2026-04-23T10:30:49Z</time></trkpt><trkpt lat="44.96485929343183" lon="9.337137678321456"><ele>454.0</ele><time>2026-04-23T10:30:51Z</time></trkpt><trkpt lat="44.964811446731716" lon="9.337055079389863"><ele>454.0</ele><time>2026-04-23T10:30:52Z</time></trkpt><trkpt lat="44.96478194858585" lon="9.336965482885313"><ele>454.00000000000006</ele><time>2026-04-23T10:30:53Z</time></trkpt><trkpt lat="44.964728113580065" lon="9.336893781950302"><ele>454.0</ele><time>2026-04-23T10:30:54Z</time></trkpt><trkpt lat="44.96469155119964" lon="9.336812009247609"><ele>454.0</ele><time>2026-04-23T10:30:55Z</time></trkpt><trkpt lat="44.96464035502587" lon="9.336746579353301"><ele>454.00000000000006</ele><time>2026-04-23T10:30:56Z</time></trkpt><trkpt lat="44.964584923327386" lon="9.336668541884995"><ele>454.0</ele><time>2026-04-23T10:30:57Z</time></trkpt><trkpt lat="44.96452315866947" lon="9.336590333826253"><ele>454.0</ele><time>2026-04-23T10:30:58Z</time></trkpt><trkpt lat="44.96444140663994" lon="9.336532642886038"><ele>454.0</ele><time>2026-04-23T10:30:59Z</time></trkpt><trkpt lat="44.96436549444545" lon="9.336487586764054"><ele>454.0</ele><time>2026-04-23T10:31:00Z</time></trkpt><trkpt lat="44.96429130923505" lon="9.336453692548872"><ele>454.0</ele><time>2026-04-23T10:31:01Z</time></trkpt><trkpt lat="44.96422498006693" lon="9.336436947952272"><ele>454.0</ele><time>2026-04-23T10:31:02Z</time></trkpt><trkpt lat="44.96408671839639" lon="9.336417708590552"><ele>454.0</ele><time>2026-04-23T10:31:04Z</time></trkpt><trkpt lat="44.964005139345375" lon="9.336387888401298"><ele>454.6666666666667</ele><time>2026-04-23T10:31:05Z</time></trkpt><trkpt lat="44.963929949074924" lon="9.336378775523075"><ele>455.33333333333337</ele><time>2026-04-23T10:31:06Z</time></trkpt><trkpt lat="44.963847154636824" lon="9.336374355199464"><ele>456.0</ele><time>2026-04-23T10:31:07Z</time></trkpt><trkpt lat="44.9637761155153" lon="9.336335950342336"><ele>456.66666666666663</ele><time>2026-04-23T10:31:08Z</time></trkpt><trkpt lat="44.96370466366871" lon="9.336276507049606"><ele>457.3333333333333</ele><time>2026-04-23T10:31:09Z</time></trkpt><trkpt lat="44.96359689629787" lon="9.336183646014774"><ele>458.0</ele><time>2026-04-23T10:31:11Z</time></trkpt><trkpt lat="44.96353888042977" lon="9.336125550045987"><ele>457.99999999999994</ele><time>2026-04-23T10:31:12Z</time></trkpt><trkpt lat="44.963501004466686" lon="9.336052417010638"><ele>458.0</ele><time>2026-04-23T10:31:13Z</time></trkpt><trkpt lat="44.963447006172565" lon="9.335983154132558"><ele>458.0</ele><time>2026-04-23T10:31:14Z</time></trkpt><trkpt lat="44.96339682027143" lon="9.3358984005142"><ele>458.0</ele><time>2026-04-23T10:31:15Z</time></trkpt><trkpt lat="44.96336249016581" lon="9.335810146377785"><ele>457.99999999999994</ele><time>2026-04-23T10:31:16Z</time></trkpt><trkpt lat="44.963328470231446" lon="9.335733822900771"><ele>458.0</ele><time>2026-04-23T10:31:16.999Z</time></trkpt><trkpt lat="44.96327675953128" lon="9.335608912229654"><ele>456.2</ele><time>2026-04-23T10:31:18.999Z</time></trkpt><trkpt lat="44.96320825139747" lon="9.3354925750068"><ele>454.4</ele><time>2026-04-23T10:31:20.999Z</time></trkpt><trkpt lat="44.96314978598344" lon="9.335382883785682"><ele>452.59999999999997</ele><time>2026-04-23T10:31:22.999Z</time></trkpt><trkpt lat="44.96307188032925" lon="9.335273546695646"><ele>450.79999999999995</ele><time>2026-04-23T10:31:24.999Z</time></trkpt><trkpt lat="44.96301124903141" lon="9.335116626069736"><ele>449.0</ele><time>2026-04-23T10:31:26.999Z</time></trkpt><trkpt lat="44.96297002826649" lon="9.335040504062261"><ele>448.99999999999994</ele><time>2026-04-23T10:31:27.999Z</time></trkpt><trkpt lat="44.96294240001604" lon="9.33494780489654"><ele>449.0</ele><time>2026-04-23T10:31:28.999Z</time></trkpt><trkpt lat="44.962920748510214" lon="9.334843161268358"><ele>449.0</ele><time>2026-04-23T10:31:29.999Z</time></trkpt><trkpt lat="44.96290240165388" lon="9.334747520334217"><ele>449.0</ele><time>2026-04-23T10:31:30.999Z</time></trkpt><trkpt lat="44.962886713817994" lon="9.334654294909416"><ele>448.99999999999994</ele><time>2026-04-23T10:31:31.999Z</time></trkpt><trkpt lat="44.96287986518456" lon="9.334562167606354"><ele>449.0</ele><time>2026-04-23T10:31:32.999Z</time></trkpt><trkpt lat="44.96285739024812" lon="9.334393004158146"><ele>448.57142857142856</ele><time>2026-04-23T10:31:34.999Z</time></trkpt><trkpt lat="44.96283516003563" lon="9.334303275744734"><ele>448.1428571428571</ele><time>2026-04-23T10:31:35.999Z</time></trkpt><trkpt lat="44.962829732027664" lon="9.334210223010182"><ele>447.71428571428567</ele><time>2026-04-23T10:31:36.999Z</time></trkpt><trkpt lat="44.96281749473959" lon="9.334108108097325"><ele>447.2857142857143</ele><time>2026-04-23T10:31:37.999Z</time></trkpt><trkpt lat="44.96280559107174" lon="9.334003331907315"><ele>446.85714285714283</ele><time>2026-04-23T10:31:38.999Z</time></trkpt><trkpt lat="44.962794762330745" lon="9.33389642278637"><ele>446.42857142857144</ele><time>2026-04-23T10:31:39.999Z</time></trkpt><trkpt lat="44.96279351267139" lon="9.33379425618615"><ele>446.0</ele><time>2026-04-23T10:31:40.999Z</time></trkpt><trkpt lat="44.962781059664074" lon="9.333698286960763"><ele>445.8333333333333</ele><time>2026-04-23T10:31:41.999Z</time></trkpt><trkpt lat="44.962771407203746" lon="9.333605932748702"><ele>445.66666666666663</ele><time>2026-04-23T10:31:42.999Z</time></trkpt><trkpt lat="44.962759742563975" lon="9.333517691804504"><ele>445.5</ele><time>2026-04-23T10:31:43.999Z</time></trkpt><trkpt lat="44.96273659106012" lon="9.333340251918761"><ele>445.33333333333337</ele><time>2026-04-23T10:31:45.999Z</time></trkpt><trkpt lat="44.96272066903226" lon="9.333249886893482"><ele>445.1666666666667</ele><time>2026-04-23T10:31:46.999Z</time></trkpt><trkpt lat="44.96269822670149" lon="9.333157598262249"><ele>445.0</ele><time>2026-04-23T10:31:47.999Z</time></trkpt><trkpt lat="44.962678618531946" lon="9.333063487323711"><ele>445.1666666666667</ele><time>2026-04-23T10:31:48.999Z</time></trkpt><trkpt lat="44.96266363697455" lon="9.332968924031345"><ele>445.33333333333337</ele><time>2026-04-23T10:31:49.999Z</time></trkpt><trkpt lat="44.96263271079232" lon="9.332870154577595"><ele>445.5</ele><time>2026-04-23T10:31:50.999Z</time></trkpt><trkpt lat="44.96261606694705" lon="9.332769972337685"><ele>445.66666666666663</ele><time>2026-04-23T10:31:51.999Z</time></trkpt><trkpt lat="44.96260104861743" lon="9.332658715125358"><ele>445.8333333333333</ele><time>2026-04-23T10:31:52.999Z</time></trkpt><trkpt lat="44.962569350577496" lon="9.332528904706665"><ele>446.0</ele><time>2026-04-23T10:31:53.999Z</time></trkpt><trkpt lat="44.962543272123455" lon="9.332397218969376"><ele>448.5</ele><time>2026-04-23T10:31:54.999Z</time></trkpt><trkpt lat="44.962518740079915" lon="9.33227337328979"><ele>451.0</ele><time>2026-04-23T10:31:55.999Z</time></trkpt><trkpt lat="44.962478921779635" lon="9.332129836717437"><ele>453.5</ele><time>2026-04-23T10:31:56.999Z</time></trkpt><trkpt lat="44.96243876353255" lon="9.331958965764015"><ele>456.0</ele><time>2026-04-23T10:31:57.999Z</time></trkpt><trkpt lat="44.962400471272886" lon="9.331794441589823"><ele>456.8</ele><time>2026-04-23T10:31:58.999Z</time></trkpt><trkpt lat="44.962357293560295" lon="9.331637821426929"><ele>457.6</ele><time>2026-04-23T10:31:59.999Z</time></trkpt><trkpt lat="44.96232181598413" lon="9.33148837667893"><ele>458.4</ele><time>2026-04-23T10:32:00.999Z</time></trkpt><trkpt lat="44.96228245013295" lon="9.331344629670854"><ele>459.2</ele><time>2026-04-23T10:32:01.999Z</time></trkpt><trkpt lat="44.962246515901896" lon="9.331225282882507"><ele>460.0</ele><time>2026-04-23T10:32:02.999Z</time></trkpt><trkpt lat="44.96221630070537" lon="9.331113137866216"><ele>460.00000000000006</ele><time>2026-04-23T10:32:03.999Z</time></trkpt><trkpt lat="44.9621801694871" lon="9.33101676812788"><ele>460.0</ele><time>2026-04-23T10:32:04.999Z</time></trkpt><trkpt lat="44.96213267217725" lon="9.330916453993174"><ele>460.0</ele><time>2026-04-23T10:32:05.999Z</time></trkpt><trkpt lat="44.96207014755616" lon="9.330828079219053"><ele>460.0</ele><time>2026-04-23T10:32:06.999Z</time></trkpt><trkpt lat="44.96201648661104" lon="9.330738008063566"><ele>460.00000000000006</ele><time>2026-04-23T10:32:07.999Z</time></trkpt><trkpt lat="44.96197649895139" lon="9.330623827308806"><ele>460.0</ele><time>2026-04-23T10:32:08.999Z</time></trkpt><trkpt lat="44.9619360922823" lon="9.330519335300773"><ele>459.50000000000006</ele><time>2026-04-23T10:32:09.999Z</time></trkpt><trkpt lat="44.961908424048744" lon="9.330411559764622"><ele>459.0</ele><time>2026-04-23T10:32:10.999Z</time></trkpt><trkpt lat="44.96188308385509" lon="9.330295433334799"><ele>458.5</ele><time>2026-04-23T10:32:11.999Z</time></trkpt><trkpt lat="44.96187752380001" lon="9.330174627135394"><ele>458.0</ele><time>2026-04-23T10:32:12.999Z</time></trkpt><trkpt lat="44.96185714589906" lon="9.330055745504929"><ele>457.50000000000006</ele><time>2026-04-23T10:32:13.999Z</time></trkpt><trkpt lat="44.96183228647814" lon="9.329938817447896"><ele>457.0</ele><time>2026-04-23T10:32:14.999Z</time></trkpt><trkpt lat="44.96181684315555" lon="9.329828784510143"><ele>458.83333333333337</ele><time>2026-04-23T10:32:15.999Z</time></trkpt><trkpt lat="44.96181400796341" lon="9.32971608796621"><ele>460.6666666666667</ele><time>2026-04-23T10:32:16.999Z</time></trkpt><trkpt lat="44.961806293824246" lon="9.329598161484435"><ele>462.5</ele><time>2026-04-23T10:32:17.999Z</time></trkpt><trkpt lat="44.961785179331024" lon="9.329482435212853"><ele>464.33333333333337</ele><time>2026-04-23T10:32:18.999Z</time></trkpt><trkpt lat="44.961751936312055" lon="9.329366597236405"><ele>466.1666666666667</ele><time>2026-04-23T10:32:19.999Z</time></trkpt><trkpt lat="44.96170414094548" lon="9.329245935289263"><ele>468.0</ele><time>2026-04-23T10:32:20.999Z</time></trkpt><trkpt lat="44.96165472073794" lon="9.329130753494587"><ele>470.3333333333333</ele><time>2026-04-23T10:32:21.999Z</time></trkpt><trkpt lat="44.9616129970076" lon="9.329005867997163"><ele>472.66666666666663</ele><time>2026-04-23T10:32:22.999Z</time></trkpt><trkpt lat="44.96156517128081" lon="9.328902131409698"><ele>475.0</ele><time>2026-04-23T10:32:23.999Z</time></trkpt><trkpt lat="44.96152741828044" lon="9.328777160256207"><ele>477.3333333333333</ele><time>2026-04-23T10:32:24.999Z</time></trkpt><trkpt lat="44.96149741306176" lon="9.328671046094048"><ele>479.66666666666663</ele><time>2026-04-23T10:32:25.999Z</time></trkpt><trkpt lat="44.96148320359462" lon="9.328582329670699"><ele>482.0</ele><time>2026-04-23T10:32:26.999Z</time></trkpt><trkpt lat="44.961455228459236" lon="9.328493795255884"><ele>482.99999999999994</ele><time>2026-04-23T10:32:27.999Z</time></trkpt><trkpt lat="44.96142485487613" lon="9.328412894665023"><ele>484.0</ele><time>2026-04-23T10:32:28.998Z</time></trkpt><trkpt lat="44.96138029034189" lon="9.328274437108647"><ele>485.0</ele><time>2026-04-23T10:32:30.998Z</time></trkpt><trkpt lat="44.961358775325685" lon="9.32818292646795"><ele>486.0</ele><time>2026-04-23T10:32:32.998Z</time></trkpt><trkpt lat="44.96130074951413" lon="9.328101385369312"><ele>486.99999999999994</ele><time>2026-04-23T10:32:34.998Z</time></trkpt><trkpt lat="44.961254252683844" lon="9.328033423714809"><ele>488.0</ele><time>2026-04-23T10:32:36.998Z</time></trkpt><trkpt lat="44.96119657612142" lon="9.327956657820746"><ele>490.0</ele><time>2026-04-23T10:32:41Z</time></trkpt><trkpt lat="44.96114414924009" lon="9.327885032642588"><ele>490.0</ele><time>2026-04-23T10:32:44Z</time></trkpt><trkpt lat="44.96109207623336" lon="9.327834031308212"><ele>490.0</ele><time>2026-04-23T10:32:48Z</time></trkpt><trkpt lat="44.961011726697876" lon="9.327865070037697"><ele>490.0</ele><time>2026-04-23T10:32:49Z</time></trkpt></trkseg><trkseg><trkpt lat="44.95365816129273" lon="9.323890968744543"><ele>541.6</ele><time>2026-04-23T11:11:42.999Z</time></trkpt><trkpt lat="44.95357313204864" lon="9.323940952424294"><ele>541.2</ele><time>2026-04-23T11:11:45.999Z</time></trkpt><trkpt lat="44.95348770785355" lon="9.323950843641908"><ele>540.8</ele><time>2026-04-23T11:11:47.999Z</time></trkpt><trkpt lat="44.95337282397277" lon="9.32394968312808"><ele>540.4</ele><time>2026-04-23T11:11:49.999Z</time></trkpt><trkpt lat="44.953251848639866" lon="9.323948683498767"><ele>540.0</ele><time>2026-04-23T11:11:51.999Z</time></trkpt><trkpt lat="44.953149174047056" lon="9.32394474431954"><ele>541.1666666666666</ele><time>2026-04-23T11:11:53.999Z</time></trkpt><trkpt lat="44.95304654518239" lon="9.323943642003952"><ele>542.3333333333334</ele><time>2026-04-23T11:11:55.999Z</time></trkpt><trkpt lat="44.952934500101975" lon="9.32390553470496"><ele>543.5</ele><time>2026-04-23T11:11:57.999Z</time></trkpt><trkpt lat="44.952874550067584" lon="9.323877493033686"><ele>544.6666666666667</ele><time>2026-04-23T11:11:58.999Z</time></trkpt><trkpt lat="44.95281422486824" lon="9.323837701411229"><ele>545.8333333333334</ele><time>2026-04-23T11:11:59.999Z</time></trkpt><trkpt lat="44.95275051188831" lon="9.323797049671338"><ele>547.0</ele><time>2026-04-23T11:12:00.999Z</time></trkpt><trkpt lat="44.95268655654865" lon="9.323756243297478"><ele>548.5</ele><time>2026-04-23T11:12:01.999Z</time></trkpt><trkpt lat="44.952626084295716" lon="9.323717659286137"><ele>550.0</ele><time>2026-04-23T11:12:02.999Z</time></trkpt><trkpt lat="44.95256838408085" lon="9.323680843960616"><ele>551.5</ele><time>2026-04-23T11:12:03.999Z</time></trkpt><trkpt lat="44.9524982511712" lon="9.323638363271932"><ele>553.0</ele><time>2026-04-23T11:12:04.999Z</time></trkpt><trkpt lat="44.952376500649805" lon="9.323614111236251"><ele>554.5</ele><time>2026-04-23T11:12:06.999Z</time></trkpt><trkpt lat="44.952306881026594" lon="9.32360658846701"><ele>556.0</ele><time>2026-04-23T11:12:07.999Z</time></trkpt><trkpt lat="44.952169411185615" lon="9.323612257839995"><ele>557.0</ele><time>2026-04-23T11:12:09.999Z</time></trkpt><trkpt lat="44.95209963197394" lon="9.323609089525881"><ele>558.0</ele><time>2026-04-23T11:12:10.999Z</time></trkpt><trkpt lat="44.95202977640616" lon="9.3236023198117"><ele>559.0</ele><time>2026-04-23T11:12:11.999Z</time></trkpt><trkpt lat="44.951967053273755" lon="9.323588075159044"><ele>560.0</ele><time>2026-04-23T11:12:12.999Z</time></trkpt><trkpt lat="44.95190473924667" lon="9.323566118480711"><ele>561.0</ele><time>2026-04-23T11:12:13.999Z</time></trkpt><trkpt lat="44.951839332554336" lon="9.323541089142214"><ele>562.0</ele><time>2026-04-23T11:12:14.999Z</time></trkpt><trkpt lat="44.95176305141652" lon="9.323545907084265"><ele>563.0</ele><time>2026-04-23T11:12:15.999Z</time></trkpt><trkpt lat="44.95165974242561" lon="9.323539371701424"><ele>563.0</ele><time>2026-04-23T11:12:17.999Z</time></trkpt><trkpt lat="44.95158904717082" lon="9.323497968623789"><ele>563.0</ele><time>2026-04-23T11:12:18.999Z</time></trkpt><trkpt lat="44.95151237723294" lon="9.323450468209414"><ele>563.0</ele><time>2026-04-23T11:12:19.999Z</time></trkpt><trkpt lat="44.95142108102401" lon="9.323397442355997"><ele>563.0</ele><time>2026-04-23T11:12:20.999Z</time></trkpt><trkpt lat="44.95134133593039" lon="9.323367602413288"><ele>563.0</ele><time>2026-04-23T11:12:21.999Z</time></trkpt><trkpt lat="44.951255808235395" lon="9.323279674781864"><ele>563.0</ele><time>2026-04-23T11:12:23.999Z</time></trkpt><trkpt lat="44.951186494421655" lon="9.323197826345936"><ele>563.0</ele><time>2026-04-23T11:12:25.999Z</time></trkpt><trkpt lat="44.951087047630594" lon="9.323086303410946"><ele>563.0</ele><time>2026-04-23T11:12:27.998Z</time></trkpt><trkpt lat="44.95103740413029" lon="9.3230306417531"><ele>563.0</ele><time>2026-04-23T11:12:28.998Z</time></trkpt><trkpt lat="44.95097625315766" lon="9.323001937598786"><ele>563.0</ele><time>2026-04-23T11:12:29.998Z</time></trkpt><trkpt lat="44.95085512504014" lon="9.322992889805144"><ele>563.0</ele><time>2026-04-23T11:12:31.998Z</time></trkpt><trkpt lat="44.950739936362055" lon="9.322959100040434"><ele>564.8333333333333</ele><time>2026-04-23T11:12:33.998Z</time></trkpt><trkpt lat="44.95063027966918" lon="9.322936220038413"><ele>566.6666666666666</ele><time>2026-04-23T11:12:35.998Z</time></trkpt><trkpt lat="44.950566403458254" lon="9.322916126939665"><ele>568.5</ele><time>2026-04-23T11:12:37Z</time></trkpt><trkpt lat="44.9504393536506" lon="9.322874406867859"><ele>570.3333333333334</ele><time>2026-04-23T11:12:39Z</time></trkpt><trkpt lat="44.950368843449475" lon="9.322850132700733"><ele>572.1666666666667</ele><time>2026-04-23T11:12:40Z</time></trkpt><trkpt lat="44.950304326942124" lon="9.322834099303986"><ele>574.0</ele><time>2026-04-23T11:12:41Z</time></trkpt><trkpt lat="44.950233112577074" lon="9.322816096060173"><ele>574.0</ele><time>2026-04-23T11:12:42Z</time></trkpt><trkpt lat="44.95015266419713" lon="9.322802636376053"><ele>574.0</ele><time>2026-04-23T11:12:43Z</time></trkpt><trkpt lat="44.950081444714264" lon="9.32279197616958"><ele>574.0</ele><time>2026-04-23T11:12:44Z</time></trkpt><trkpt lat="44.950013495326175" lon="9.322771514366703"><ele>574.0</ele><time>2026-04-23T11:12:45Z</time></trkpt><trkpt lat="44.94994290118498" lon="9.322772520275251"><ele>574.0</ele><time>2026-04-23T11:12:46Z</time></trkpt><trkpt lat="44.94987625793498" lon="9.322766577767043"><ele>574.0</ele><time>2026-04-23T11:12:47Z</time></trkpt><trkpt lat="44.94980841553972" lon="9.32275432053105"><ele>574.0</ele><time>2026-04-23T11:12:48Z</time></trkpt><trkpt lat="44.94974243476103" lon="9.32272949847918"><ele>573.8</ele><time>2026-04-23T11:12:49Z</time></trkpt><trkpt lat="44.94967619014001" lon="9.32270323555463"><ele>573.5999999999999</ele><time>2026-04-23T11:12:50Z</time></trkpt><trkpt lat="44.94956511568614" lon="9.32267530617911"><ele>573.4</ele><time>2026-04-23T11:12:52Z</time></trkpt><trkpt lat="44.94947568949515" lon="9.32271354497737"><ele>573.1999999999999</ele><time>2026-04-23T11:12:54Z</time></trkpt><trkpt lat="44.94936500236802" lon="9.322750918703687"><ele>573.0</ele><time>2026-04-23T11:12:56Z</time></trkpt><trkpt lat="44.94923051865916" lon="9.322741280993569"><ele>574.6666666666666</ele><time>2026-04-23T11:12:58Z</time></trkpt><trkpt lat="44.949163337097325" lon="9.322725440067813"><ele>576.3333333333334</ele><time>2026-04-23T11:12:59Z</time></trkpt><trkpt lat="44.949045349172685" lon="9.322765037958272"><ele>578.0</ele><time>2026-04-23T11:13:01Z</time></trkpt><trkpt lat="44.94898734502263" lon="9.322813230475091"><ele>579.6666666666667</ele><time>2026-04-23T11:13:02Z</time></trkpt><trkpt lat="44.94888702212708" lon="9.322828608642725"><ele>581.3333333333334</ele><time>2026-04-23T11:13:04Z</time></trkpt><trkpt lat="44.94881905094282" lon="9.322895756660074"><ele>583.0</ele><time>2026-04-23T11:13:05Z</time></trkpt><trkpt lat="44.94876615644341" lon="9.32294422529416"><ele>583.0</ele><time>2026-04-23T11:13:06Z</time></trkpt><trkpt lat="44.94868578717617" lon="9.322953447350654"><ele>583.0</ele><time>2026-04-23T11:13:08Z</time></trkpt><trkpt lat="44.94858610332871" lon="9.322940851801835"><ele>583.0</ele><time>2026-04-23T11:13:10Z</time></trkpt><trkpt lat="44.9484929365868" lon="9.32288759979929"><ele>583.0</ele><time>2026-04-23T11:13:12Z</time></trkpt><trkpt lat="44.94840756538933" lon="9.322779204249494"><ele>583.0</ele><time>2026-04-23T11:13:14Z</time></trkpt><trkpt lat="44.948340309732835" lon="9.322705926300074"><ele>587.5</ele><time>2026-04-23T11:13:16Z</time></trkpt><trkpt lat="44.94835831642647" lon="9.322533562800853"><ele>592.0</ele><time>2026-04-23T11:13:18Z</time></trkpt><trkpt lat="44.94828881554653" lon="9.322407029204784"><ele>596.5</ele><time>2026-04-23T11:13:20Z</time></trkpt><trkpt lat="44.948147185007294" lon="9.322396403046168"><ele>601.0</ele><time>2026-04-23T11:13:22Z</time></trkpt><trkpt lat="44.948054430761346" lon="9.322339714919481"><ele>601.0</ele><time>2026-04-23T11:13:23Z</time></trkpt><trkpt lat="44.947956090680485" lon="9.322304067482323"><ele>601.0</ele><time>2026-04-23T11:13:24Z</time></trkpt><trkpt lat="44.947889006912604" lon="9.322299122059198"><ele>601.0</ele><time>2026-04-23T11:13:25Z</time></trkpt><trkpt lat="44.94781530325595" lon="9.32234050862902"><ele>601.0</ele><time>2026-04-23T11:13:27Z</time></trkpt><trkpt lat="44.94776625848673" lon="9.322409642689363"><ele>601.0</ele><time>2026-04-23T11:13:28Z</time></trkpt><trkpt lat="44.94772046541485" lon="9.322483347606823"><ele>601.0</ele><time>2026-04-23T11:13:29Z</time></trkpt><trkpt lat="44.9475982991023" lon="9.32256116393988"><ele>603.3333333333334</ele><time>2026-04-23T11:13:30.999Z</time></trkpt><trkpt lat="44.94751454671976" lon="9.322552730454666"><ele>605.6666666666667</ele><time>2026-04-23T11:13:31.999Z</time></trkpt><trkpt lat="44.94744081588445" lon="9.32253585953475"><ele>608.0</ele><time>2026-04-23T11:13:32.999Z</time></trkpt><trkpt lat="44.947365005580586" lon="9.322494875930873"><ele>610.3333333333334</ele><time>2026-04-23T11:13:33.999Z</time></trkpt><trkpt lat="44.94728454777918" lon="9.322435336999787"><ele>612.6666666666666</ele><time>2026-04-23T11:13:34.999Z</time></trkpt><trkpt lat="44.94721103795003" lon="9.322378941860153"><ele>615.0</ele><time>2026-04-23T11:13:35.999Z</time></trkpt><trkpt lat="44.947137608295684" lon="9.322321867039177"><ele>615.0</ele><time>2026-04-23T11:13:36.999Z</time></trkpt><trkpt lat="44.947076521808775" lon="9.322271168010056"><ele>615.0</ele><time>2026-04-23T11:13:37.999Z</time></trkpt><trkpt lat="44.94701189790215" lon="9.322220068542137"><ele>615.0</ele><time>2026-04-23T11:13:38.999Z</time></trkpt><trkpt lat="44.94693113029493" lon="9.322195237300631"><ele>615.0</ele><time>2026-04-23T11:13:39.999Z</time></trkpt><trkpt lat="44.94680703407411" lon="9.32215373127915"><ele>615.0</ele><time>2026-04-23T11:13:41.999Z</time></trkpt><trkpt lat="44.94673038027825" lon="9.322101846975846"><ele>615.0</ele><time>2026-04-23T11:13:42.999Z</time></trkpt><trkpt lat="44.946650826471476" lon="9.322056923351948"><ele>617.75</ele><time>2026-04-23T11:13:43.999Z</time></trkpt><trkpt lat="44.94657138982169" lon="9.322017863521623"><ele>620.5</ele><time>2026-04-23T11:13:44.999Z</time></trkpt><trkpt lat="44.94645668584049" lon="9.322026778537301"><ele>623.25</ele><time>2026-04-23T11:13:45.999Z</time></trkpt><trkpt lat="44.946329092029316" lon="9.322034690742226"><ele>626.0</ele><time>2026-04-23T11:13:46.999Z</time></trkpt><trkpt lat="44.94618486683018" lon="9.322041646823493"><ele>626.0</ele><time>2026-04-23T11:13:47.999Z</time></trkpt><trkpt lat="44.946066455181374" lon="9.322064000085692"><ele>626.0</ele><time>2026-04-23T11:13:48.999Z</time></trkpt><trkpt lat="44.945965986985286" lon="9.322112640687577"><ele>626.0</ele><time>2026-04-23T11:13:49.999Z</time></trkpt><trkpt lat="44.945873840754686" lon="9.322149941458377"><ele>626.0</ele><time>2026-04-23T11:13:50.999Z</time></trkpt><trkpt lat="44.945815417245186" lon="9.322194158975925"><ele>626.0</ele><time>2026-04-23T11:13:51.999Z</time></trkpt><trkpt lat="44.94574251589826" lon="9.322240406240853"><ele>628.8333333333333</ele><time>2026-04-23T11:13:53.999Z</time></trkpt><trkpt lat="44.94566794362664" lon="9.322275324122364"><ele>631.6666666666666</ele><time>2026-04-23T11:14:02.999Z</time></trkpt><trkpt lat="44.94557843862059" lon="9.322296038750357"><ele>634.5</ele><time>2026-04-23T11:14:04.999Z</time></trkpt><trkpt lat="44.945485228332075" lon="9.322294561158339"><ele>637.3333333333334</ele><time>2026-04-23T11:14:06.999Z</time></trkpt><trkpt lat="44.94541822099499" lon="9.322287540360582"><ele>640.1666666666667</ele><time>2026-04-23T11:14:07.999Z</time></trkpt><trkpt lat="44.94530169445153" lon="9.322284935893423"><ele>643.0</ele><time>2026-04-23T11:14:09.999Z</time></trkpt><trkpt lat="44.94521720419426" lon="9.322267889173434"><ele>643.0</ele><time>2026-04-23T11:14:10.999Z</time></trkpt><trkpt lat="44.94513753489415" lon="9.32226905949421"><ele>643.0</ele><time>2026-04-23T11:14:11.999Z</time></trkpt><trkpt lat="44.94505866288049" lon="9.322277965627476"><ele>643.0</ele><time>2026-04-23T11:14:12.999Z</time></trkpt><trkpt lat="44.944940433411944" lon="9.322243236482583"><ele>643.0</ele><time>2026-04-23T11:14:14.999Z</time></trkpt><trkpt lat="44.944878876383186" lon="9.32217895987344"><ele>643.0</ele><time>2026-04-23T11:14:16.999Z</time></trkpt><trkpt lat="44.94476867741275" lon="9.322204100320892"><ele>644.1428571428571</ele><time>2026-04-23T11:14:18.999Z</time></trkpt><trkpt lat="44.944702688556724" lon="9.322176932218747"><ele>645.2857142857143</ele><time>2026-04-23T11:14:19.999Z</time></trkpt><trkpt lat="44.944634847089795" lon="9.322131162454758"><ele>646.4285714285714</ele><time>2026-04-23T11:14:20.999Z</time></trkpt><trkpt lat="44.94458499094264" lon="9.322074768335556"><ele>647.5714285714286</ele><time>2026-04-23T11:14:21.999Z</time></trkpt><trkpt lat="44.9445303753273" lon="9.3220121407718"><ele>648.7142857142858</ele><time>2026-04-23T11:14:22.999Z</time></trkpt><trkpt lat="44.944441472038946" lon="9.321972494170131"><ele>649.8571428571429</ele><time>2026-04-23T11:14:24.999Z</time></trkpt><trkpt lat="44.944380734735454" lon="9.321919337487401"><ele>651.0</ele><time>2026-04-23T11:14:25.999Z</time></trkpt><trkpt lat="44.94430030552928" lon="9.321863519999923"><ele>651.0</ele><time>2026-04-23T11:14:26.999Z</time></trkpt><trkpt lat="44.944235869859284" lon="9.321804187193246"><ele>651.0</ele><time>2026-04-23T11:14:27.999Z</time></trkpt><trkpt lat="44.944186476279334" lon="9.321729435311733"><ele>651.0</ele><time>2026-04-23T11:14:28.999Z</time></trkpt><trkpt lat="44.94415094839355" lon="9.321614017421334"><ele>651.0</ele><time>2026-04-23T11:14:29.999Z</time></trkpt><trkpt lat="44.94411738674048" lon="9.321459297069904"><ele>651.0</ele><time>2026-04-23T11:14:30.999Z</time></trkpt><trkpt lat="44.944096154244285" lon="9.32135507999648"><ele>651.0</ele><time>2026-04-23T11:14:31.999Z</time></trkpt><trkpt lat="44.94400512243422" lon="9.321209426387284"><ele>653.0</ele><time>2026-04-23T11:14:33.999Z</time></trkpt><trkpt lat="44.94391273340902" lon="9.321117441579187"><ele>655.0</ele><time>2026-04-23T11:14:34.999Z</time></trkpt><trkpt lat="44.943830938402364" lon="9.32102876814582"><ele>657.0</ele><time>2026-04-23T11:14:35.998Z</time></trkpt><trkpt lat="44.94377896060218" lon="9.320962229732089"><ele>659.0</ele><time>2026-04-23T11:14:36.998Z</time></trkpt><trkpt lat="44.94367654548311" lon="9.320854360608926"><ele>661.0</ele><time>2026-04-23T11:14:38.998Z</time></trkpt><trkpt lat="44.943624442017025" lon="9.32077974297017"><ele>661.0</ele><time>2026-04-23T11:14:39.998Z</time></trkpt><trkpt lat="44.943534547744015" lon="9.320716527019078"><ele>661.0</ele><time>2026-04-23T11:14:40.998Z</time></trkpt><trkpt lat="44.943424162117985" lon="9.32063055841953"><ele>661.0</ele><time>2026-04-23T11:14:41.998Z</time></trkpt><trkpt lat="44.94329782087336" lon="9.320559004398884"><ele>661.0</ele><time>2026-04-23T11:14:43Z</time></trkpt><trkpt lat="44.943154220377174" lon="9.320484055562002"><ele>660.0</ele><time>2026-04-23T11:14:44Z</time></trkpt><trkpt lat="44.94303139356595" lon="9.320406275942899"><ele>659.0</ele><time>2026-04-23T11:14:45Z</time></trkpt><trkpt lat="44.94292642742137" lon="9.32034239534434"><ele>658.0</ele><time>2026-04-23T11:14:46Z</time></trkpt><trkpt lat="44.942830263186906" lon="9.320275665138468"><ele>657.0</ele><time>2026-04-23T11:14:47Z</time></trkpt><trkpt lat="44.942757104530806" lon="9.32021773722762"><ele>656.0</ele><time>2026-04-23T11:14:48Z</time></trkpt><trkpt lat="44.942664442440424" lon="9.320129985045035"><ele>656.0</ele><time>2026-04-23T11:14:50Z</time></trkpt><trkpt lat="44.94258386543972" lon="9.319997940875842"><ele>656.0</ele><time>2026-04-23T11:14:52Z</time></trkpt><trkpt lat="44.942494043881496" lon="9.31989037289334"><ele>656.0</ele><time>2026-04-23T11:14:54Z</time></trkpt><trkpt lat="44.94242393186666" lon="9.319808681782124"><ele>656.0</ele><time>2026-04-23T11:14:56Z</time></trkpt><trkpt lat="44.94236134307151" lon="9.319726668006385"><ele>656.0</ele><time>2026-04-23T11:14:58Z</time></trkpt><trkpt lat="44.94236528528551" lon="9.319577685132938"><ele>656.0</ele><time>2026-04-23T11:14:59Z</time></trkpt><trkpt lat="44.94228883089284" lon="9.319518423085702"><ele>656.0</ele><time>2026-04-23T11:15:01Z</time></trkpt><trkpt lat="44.94222457586245" lon="9.31949429660524"><ele>656.0</ele><time>2026-04-23T11:15:03Z</time></trkpt><trkpt lat="44.94217510626287" lon="9.319430280127703"><ele>656.0</ele><time>2026-04-23T11:15:05Z</time></trkpt><trkpt lat="44.94210870642144" lon="9.319378816495517"><ele>656.0</ele><time>2026-04-23T11:15:07Z</time></trkpt><trkpt lat="44.942015130367395" lon="9.319327142614204"><ele>656.0</ele><time>2026-04-23T11:15:09Z</time></trkpt><trkpt lat="44.94193752546245" lon="9.319250436649774"><ele>656.0</ele><time>2026-04-23T11:15:11Z</time></trkpt><trkpt lat="44.94184240363794" lon="9.319180441472383"><ele>656.0</ele><time>2026-04-23T11:15:13Z</time></trkpt><trkpt lat="44.94174533280235" lon="9.319131371894903"><ele>656.0</ele><time>2026-04-23T11:15:15Z</time></trkpt><trkpt lat="44.9416609345388" lon="9.319045063140097"><ele>656.0</ele><time>2026-04-23T11:15:17Z</time></trkpt><trkpt lat="44.94156042049973" lon="9.31897767961584"><ele>656.0</ele><time>2026-04-23T11:15:19Z</time></trkpt><trkpt lat="44.94144814999535" lon="9.318906684472056"><ele>653.3333333333333</ele><time>2026-04-23T11:15:21Z</time></trkpt><trkpt lat="44.94138996163389" lon="9.318849624955286"><ele>650.6666666666666</ele><time>2026-04-23T11:15:22Z</time></trkpt><trkpt lat="44.94132813190173" lon="9.318801951184128"><ele>648.0</ele><time>2026-04-23T11:15:23Z</time></trkpt><trkpt lat="44.94126493774729" lon="9.31876302998803"><ele>645.3333333333334</ele><time>2026-04-23T11:15:23.999Z</time></trkpt><trkpt lat="44.94121347066139" lon="9.318707424012336"><ele>642.6666666666667</ele><time>2026-04-23T11:15:24.999Z</time></trkpt><trkpt lat="44.94115738655762" lon="9.318661934696467"><ele>640.0</ele><time>2026-04-23T11:15:25.999Z</time></trkpt><trkpt lat="44.94105478891833" lon="9.31857999420698"><ele>640.0</ele><time>2026-04-23T11:15:27.999Z</time></trkpt><trkpt lat="44.94094744958211" lon="9.31852049001353"><ele>640.0</ele><time>2026-04-23T11:15:29.999Z</time></trkpt><trkpt lat="44.94083608219472" lon="9.318418115943897"><ele>640.0</ele><time>2026-04-23T11:15:31.999Z</time></trkpt><trkpt lat="44.94076754203397" lon="9.318373215504081"><ele>640.0</ele><time>2026-04-23T11:15:32.999Z</time></trkpt><trkpt lat="44.94070108867716" lon="9.318329259037768"><ele>640.0</ele><time>2026-04-23T11:15:33.999Z</time></trkpt><trkpt lat="44.940639370928814" lon="9.31827637416192"><ele>639.8333333333334</ele><time>2026-04-23T11:15:34.999Z</time></trkpt><trkpt lat="44.94058438117548" lon="9.31822028606254"><ele>639.6666666666667</ele><time>2026-04-23T11:15:35.999Z</time></trkpt><trkpt lat="44.94052756355038" lon="9.318175288148662"><ele>639.5</ele><time>2026-04-23T11:15:36.999Z</time></trkpt><trkpt lat="44.94046856249052" lon="9.318135639602227"><ele>639.3333333333334</ele><time>2026-04-23T11:15:37.999Z</time></trkpt><trkpt lat="44.94041037067967" lon="9.318097011718413"><ele>639.1666666666666</ele><time>2026-04-23T11:15:38.999Z</time></trkpt><trkpt lat="44.940351714771516" lon="9.318055875201232"><ele>639.0</ele><time>2026-04-23T11:15:39.999Z</time></trkpt><trkpt lat="44.94024309961862" lon="9.317976132590807"><ele>637.2</ele><time>2026-04-23T11:15:41.999Z</time></trkpt><trkpt lat="44.94014626398563" lon="9.317895379597694"><ele>635.4</ele><time>2026-04-23T11:15:43.999Z</time></trkpt><trkpt lat="44.9400468859606" lon="9.317824479631096"><ele>633.6</ele><time>2026-04-23T11:15:45.999Z</time></trkpt><trkpt lat="44.93995734277596" lon="9.317749561987386"><ele>631.8</ele><time>2026-04-23T11:15:47.999Z</time></trkpt><trkpt lat="44.93986949573101" lon="9.317692162069228"><ele>630.0</ele><time>2026-04-23T11:15:49.999Z</time></trkpt><trkpt lat="44.939805462109575" lon="9.317612263372803"><ele>630.0</ele><time>2026-04-23T11:15:51.999Z</time></trkpt><trkpt lat="44.93975062636855" lon="9.317558226227021"><ele>630.0</ele><time>2026-04-23T11:15:55.999Z</time></trkpt><trkpt lat="44.93969751566557" lon="9.317499501393543"><ele>630.0</ele><time>2026-04-23T11:16:05.999Z</time></trkpt><trkpt lat="44.93964754958267" lon="9.317437970373225"><ele>630.0</ele><time>2026-04-23T11:16:09.999Z</time></trkpt><trkpt lat="44.93957451203389" lon="9.317349890320994"><ele>630.0</ele><time>2026-04-23T11:16:12.999Z</time></trkpt><trkpt lat="44.939525798605025" lon="9.317249626776672"><ele>630.0</ele><time>2026-04-23T11:16:14.999Z</time></trkpt><trkpt lat="44.93946577662748" lon="9.317164231878621"><ele>629.0</ele><time>2026-04-23T11:16:16.999Z</time></trkpt><trkpt lat="44.93940628711865" lon="9.31707977274145"><ele>628.0</ele><time>2026-04-23T11:16:18.999Z</time></trkpt><trkpt lat="44.939359268012716" lon="9.317017556364348"><ele>627.0</ele><time>2026-04-23T11:16:20.999Z</time></trkpt><trkpt lat="44.93928991495638" lon="9.316934053335462"><ele>626.0</ele><time>2026-04-23T11:16:30.999Z</time></trkpt><trkpt lat="44.939218982855785" lon="9.316848649671638"><ele>625.0</ele><time>2026-04-23T11:16:32.998Z</time></trkpt><trkpt lat="44.9391168434321" lon="9.316809221632969"><ele>624.0</ele><time>2026-04-23T11:16:34.998Z</time></trkpt><trkpt lat="44.93906189585023" lon="9.316759991106244"><ele>625.8571428571429</ele><time>2026-04-23T11:16:35.998Z</time></trkpt><trkpt lat="44.93900624440633" lon="9.316709482554154"><ele>627.7142857142857</ele><time>2026-04-23T11:16:36.998Z</time></trkpt><trkpt lat="44.93894793354254" lon="9.316658233348418"><ele>629.5714285714286</ele><time>2026-04-23T11:16:37.998Z</time></trkpt><trkpt lat="44.93891394059613" lon="9.316581198369247"><ele>631.4285714285714</ele><time>2026-04-23T11:16:38.998Z</time></trkpt><trkpt lat="44.938873400888355" lon="9.316511553113008"><ele>633.2857142857142</ele><time>2026-04-23T11:16:39.998Z</time></trkpt><trkpt lat="44.93884073388484" lon="9.316435343017591"><ele>635.1428571428571</ele><time>2026-04-23T11:16:40.998Z</time></trkpt><trkpt lat="44.93876376032169" lon="9.316308924848691"><ele>637.0</ele><time>2026-04-23T11:16:42.998Z</time></trkpt><trkpt lat="44.93866920579196" lon="9.316180207307488"><ele>637.0</ele><time>2026-04-23T11:16:44.998Z</time></trkpt><trkpt lat="44.93861395846176" lon="9.316120717847125"><ele>637.0</ele><time>2026-04-23T11:16:45.998Z</time></trkpt><trkpt lat="44.93852431272682" lon="9.316011168481651"><ele>637.0</ele><time>2026-04-23T11:16:47.998Z</time></trkpt><trkpt lat="44.93843105987088" lon="9.315903947984884"><ele>637.0</ele><time>2026-04-23T11:16:50Z</time></trkpt><trkpt lat="44.93838730909879" lon="9.315832886628053"><ele>637.0</ele><time>2026-04-23T11:16:51Z</time></trkpt><trkpt lat="44.938339869703015" lon="9.315768601484013"><ele>637.0</ele><time>2026-04-23T11:16:52Z</time></trkpt><trkpt lat="44.938260059207494" lon="9.315677388628767"><ele>639.0</ele><time>2026-04-23T11:16:54Z</time></trkpt><trkpt lat="44.93818767649421" lon="9.31561684375516"><ele>641.0</ele><time>2026-04-23T11:16:57Z</time></trkpt><trkpt lat="44.93810754173219" lon="9.315551866647246"><ele>643.0</ele><time>2026-04-23T11:16:59Z</time></trkpt><trkpt lat="44.938002605012024" lon="9.31548905742974"><ele>645.0</ele><time>2026-04-23T11:17:01Z</time></trkpt><trkpt lat="44.93792524575394" lon="9.315375430470338"><ele>647.0</ele><time>2026-04-23T11:17:03Z</time></trkpt><trkpt lat="44.937836728067374" lon="9.315250096648953"><ele>647.0</ele><time>2026-04-23T11:17:05Z</time></trkpt><trkpt lat="44.937788369845485" lon="9.315176420697776"><ele>647.0</ele><time>2026-04-23T11:17:06Z</time></trkpt><trkpt lat="44.93774554743293" lon="9.315106382948043"><ele>647.0</ele><time>2026-04-23T11:17:07Z</time></trkpt><trkpt lat="44.937678288057825" lon="9.315016150087025"><ele>647.0</ele><time>2026-04-23T11:17:09Z</time></trkpt><trkpt lat="44.937619026182716" lon="9.31492564946122"><ele>647.0</ele><time>2026-04-23T11:17:13Z</time></trkpt><trkpt lat="44.937525765549644" lon="9.31485306978981"><ele>647.0</ele><time>2026-04-23T11:17:15Z</time></trkpt><trkpt lat="44.93745507613931" lon="9.314807390032595"><ele>647.0</ele><time>2026-04-23T11:17:16Z</time></trkpt><trkpt lat="44.93737376863192" lon="9.314760122196265"><ele>647.0</ele><time>2026-04-23T11:17:17Z</time></trkpt><trkpt lat="44.93728924592495" lon="9.314715982305568"><ele>647.0</ele><time>2026-04-23T11:17:18Z</time></trkpt><trkpt lat="44.937212086997306" lon="9.314677123223914"><ele>647.0</ele><time>2026-04-23T11:17:19Z</time></trkpt><trkpt lat="44.93713620377162" lon="9.314638906635084"><ele>647.0</ele><time>2026-04-23T11:17:20Z</time></trkpt><trkpt lat="44.93706482338082" lon="9.314600288335159"><ele>647.0</ele><time>2026-04-23T11:17:21Z</time></trkpt><trkpt lat="44.93700674368349" lon="9.31456364662389"><ele>647.5</ele><time>2026-04-23T11:17:22Z</time></trkpt><trkpt lat="44.93694504093454" lon="9.314517332224193"><ele>648.0</ele><time>2026-04-23T11:17:23Z</time></trkpt><trkpt lat="44.93688765621354" lon="9.31446761522791"><ele>648.5</ele><time>2026-04-23T11:17:24Z</time></trkpt><trkpt lat="44.936822390510386" lon="9.314406673886339"><ele>649.0</ele><time>2026-04-23T11:17:25Z</time></trkpt><trkpt lat="44.93674753847169" lon="9.31433614944527"><ele>649.5</ele><time>2026-04-23T11:17:26Z</time></trkpt><trkpt lat="44.93666760881963" lon="9.314259915033748"><ele>650.0</ele><time>2026-04-23T11:17:27Z</time></trkpt><trkpt lat="44.93658503031835" lon="9.314181443666298"><ele>650.0</ele><time>2026-04-23T11:17:28Z</time></trkpt><trkpt lat="44.93651504641932" lon="9.314101962416999"><ele>650.0</ele><time>2026-04-23T11:17:29Z</time></trkpt><trkpt lat="44.936466998462805" lon="9.314035358598243"><ele>650.0</ele><time>2026-04-23T11:17:31Z</time></trkpt><trkpt lat="44.93641984869043" lon="9.313971928135174"><ele>650.0</ele><time>2026-04-23T11:17:32Z</time></trkpt><trkpt lat="44.93635446821456" lon="9.313841727792704"><ele>650.0</ele><time>2026-04-23T11:17:33.999Z</time></trkpt><trkpt lat="44.93630940715702" lon="9.313693657221462"><ele>650.0</ele><time>2026-04-23T11:17:35.999Z</time></trkpt><trkpt lat="44.936284897056225" lon="9.3135959899631"><ele>648.6666666666666</ele><time>2026-04-23T11:17:36.999Z</time></trkpt><trkpt lat="44.93626780958338" lon="9.313494444502382"><ele>647.3333333333333</ele><time>2026-04-23T11:17:37.999Z</time></trkpt><trkpt lat="44.93625459911894" lon="9.313382590034488"><ele>646.0</ele><time>2026-04-23T11:17:38.999Z</time></trkpt><trkpt lat="44.93624409086459" lon="9.313292044574245"><ele>644.6666666666666</ele><time>2026-04-23T11:17:39.999Z</time></trkpt><trkpt lat="44.93623112488639" lon="9.31317419824883"><ele>643.3333333333334</ele><time>2026-04-23T11:17:41.999Z</time></trkpt><trkpt lat="44.93617625292082" lon="9.313052638138975"><ele>642.0</ele><time>2026-04-23T11:17:44.999Z</time></trkpt><trkpt lat="44.936137198927305" lon="9.312929132651595"><ele>640.8000000000001</ele><time>2026-04-23T11:17:46.999Z</time></trkpt><trkpt lat="44.93609729600383" lon="9.312800083359578"><ele>639.6</ele><time>2026-04-23T11:17:48.999Z</time></trkpt><trkpt lat="44.936062157740274" lon="9.31267574649021"><ele>638.4000000000001</ele><time>2026-04-23T11:17:50.999Z</time></trkpt><trkpt lat="44.93603772123472" lon="9.31252892380361"><ele>637.2</ele><time>2026-04-23T11:17:52.999Z</time></trkpt><trkpt lat="44.93599535962565" lon="9.312440863146444"><ele>636.0</ele><time>2026-04-23T11:17:53.999Z</time></trkpt><trkpt lat="44.93596829856709" lon="9.312335648222394"><ele>635.75</ele><time>2026-04-23T11:17:54.999Z</time></trkpt><trkpt lat="44.93592632692706" lon="9.312218640285753"><ele>635.5</ele><time>2026-04-23T11:17:55.999Z</time></trkpt><trkpt lat="44.93586912871574" lon="9.312055701331404"><ele>635.25</ele><time>2026-04-23T11:17:56.999Z</time></trkpt><trkpt lat="44.93582527594066" lon="9.311883391640858"><ele>635.0</ele><time>2026-04-23T11:17:57.999Z</time></trkpt><trkpt lat="44.935763927030216" lon="9.311745528783877"><ele>637.6</ele><time>2026-04-23T11:17:58.999Z</time></trkpt><trkpt lat="44.935714510547655" lon="9.311598614507298"><ele>640.2</ele><time>2026-04-23T11:17:59.999Z</time></trkpt><trkpt lat="44.935673726173746" lon="9.311463749099635"><ele>642.8</ele><time>2026-04-23T11:18:00.999Z</time></trkpt><trkpt lat="44.9356294571413" lon="9.31132246268841"><ele>645.4</ele><time>2026-04-23T11:18:01.999Z</time></trkpt><trkpt lat="44.93558462429574" lon="9.311204645105235"><ele>648.0</ele><time>2026-04-23T11:18:02.999Z</time></trkpt><trkpt lat="44.93555335559374" lon="9.311098969208395"><ele>648.0</ele><time>2026-04-23T11:18:03.999Z</time></trkpt><trkpt lat="44.93553160992358" lon="9.311014962035038"><ele>648.0</ele><time>2026-04-23T11:18:04.999Z</time></trkpt><trkpt lat="44.9354592885518" lon="9.31090233917272"><ele>648.0</ele><time>2026-04-23T11:18:06.999Z</time></trkpt><trkpt lat="44.93536939658468" lon="9.310857882203301"><ele>648.0</ele><time>2026-04-23T11:18:08.999Z</time></trkpt><trkpt lat="44.93523097808315" lon="9.310798565349357"><ele>648.0</ele><time>2026-04-23T11:18:10.999Z</time></trkpt><trkpt lat="44.93514281103568" lon="9.31081074388647"><ele>648.0</ele><time>2026-04-23T11:18:11.999Z</time></trkpt><trkpt lat="44.93507033118539" lon="9.31079925469203"><ele>648.0</ele><time>2026-04-23T11:18:12.999Z</time></trkpt><trkpt lat="44.93499350489127" lon="9.310822017126641"><ele>648.0</ele><time>2026-04-23T11:18:13.999Z</time></trkpt><trkpt lat="44.9348908277234" lon="9.310879819680988"><ele>648.0</ele><time>2026-04-23T11:18:14.999Z</time></trkpt><trkpt lat="44.934773457777496" lon="9.310940823463"><ele>648.0</ele><time>2026-04-23T11:18:15.999Z</time></trkpt><trkpt lat="44.93467584385619" lon="9.311000509008988"><ele>649.6666666666666</ele><time>2026-04-23T11:18:16.999Z</time></trkpt><trkpt lat="44.93458629972811" lon="9.31101524787671"><ele>651.3333333333334</ele><time>2026-04-23T11:18:17.999Z</time></trkpt><trkpt lat="44.93450956709896" lon="9.311030237573025"><ele>653.0</ele><time>2026-04-23T11:18:18.999Z</time></trkpt><trkpt lat="44.93443827316924" lon="9.311017189505549"><ele>654.6666666666667</ele><time>2026-04-23T11:18:19.999Z</time></trkpt><trkpt lat="44.934399205468786" lon="9.310893003893078"><ele>656.3333333333334</ele><time>2026-04-23T11:18:20.999Z</time></trkpt><trkpt lat="44.93431900608045" lon="9.310797250192614"><ele>658.0</ele><time>2026-04-23T11:18:21.999Z</time></trkpt><trkpt lat="44.934226867019966" lon="9.310704055900915"><ele>657.5999999999999</ele><time>2026-04-23T11:18:22.999Z</time></trkpt><trkpt lat="44.93415718355933" lon="9.310612259714947"><ele>657.1999999999999</ele><time>2026-04-23T11:18:23.999Z</time></trkpt><trkpt lat="44.934103052675475" lon="9.310534955743437"><ele>656.8</ele><time>2026-04-23T11:18:24.999Z</time></trkpt><trkpt lat="44.934014157417764" lon="9.310419909699531"><ele>656.4</ele><time>2026-04-23T11:18:26.999Z</time></trkpt><trkpt lat="44.933945541727795" lon="9.310301988165753"><ele>656.0</ele><time>2026-04-23T11:18:28.999Z</time></trkpt><trkpt lat="44.9338706423415" lon="9.310195602005294"><ele>655.3333333333333</ele><time>2026-04-23T11:18:30.999Z</time></trkpt><trkpt lat="44.93359275355681" lon="9.310400253525309"><ele>654.6666666666666</ele><time>2026-04-23T11:18:32.999Z</time></trkpt><trkpt lat="44.933518863842124" lon="9.310419264491031"><ele>654.0</ele><time>2026-04-23T11:18:33.999Z</time></trkpt><trkpt lat="44.93344221403135" lon="9.310433895485602"><ele>653.6</ele><time>2026-04-23T11:18:34.999Z</time></trkpt><trkpt lat="44.93336774019075" lon="9.310442684949168"><ele>653.2</ele><time>2026-04-23T11:18:35.999Z</time></trkpt><trkpt lat="44.93324562514323" lon="9.310436446591192"><ele>652.8000000000001</ele><time>2026-04-23T11:18:37.999Z</time></trkpt><trkpt lat="44.933123189074536" lon="9.310397631929671"><ele>652.4000000000001</ele><time>2026-04-23T11:18:39.999Z</time></trkpt><trkpt lat="44.9330135254824" lon="9.31034402546232"><ele>652.0</ele><time>2026-04-23T11:18:41.999Z</time></trkpt><trkpt lat="44.932912705997126" lon="9.310313500385883"><ele>652.0</ele><time>2026-04-23T11:18:43.999Z</time></trkpt><trkpt lat="44.93285090052974" lon="9.310341949993331"><ele>652.0</ele><time>2026-04-23T11:18:44.998Z</time></trkpt><trkpt lat="44.93279108571411" lon="9.310400717311305"><ele>652.0</ele><time>2026-04-23T11:18:46.998Z</time></trkpt><trkpt lat="44.932709657671175" lon="9.310431482466965"><ele>652.0</ele><time>2026-04-23T11:18:53.998Z</time></trkpt><trkpt lat="44.93260509743753" lon="9.310486078157332"><ele>652.0</ele><time>2026-04-23T11:18:56Z</time></trkpt><trkpt lat="44.93253831874961" lon="9.310532696866078"><ele>652.0</ele><time>2026-04-23T11:18:58Z</time></trkpt><trkpt lat="44.9324628440127" lon="9.310566349521336"><ele>651.1428571428572</ele><time>2026-04-23T11:19:04Z</time></trkpt><trkpt lat="44.932414903896145" lon="9.310625554278653"><ele>650.2857142857142</ele><time>2026-04-23T11:19:06Z</time></trkpt><trkpt lat="44.93240315928737" lon="9.310725993616341"><ele>649.4285714285714</ele><time>2026-04-23T11:19:09Z</time></trkpt><trkpt lat="44.93242041807137" lon="9.310816288944045"><ele>648.5714285714287</ele><time>2026-04-23T11:19:16Z</time></trkpt><trkpt lat="44.93241446127609" lon="9.310914733331161"><ele>647.7142857142858</ele><time>2026-04-23T11:19:25Z</time></trkpt><trkpt lat="44.932394653314695" lon="9.311033878193678"><ele>646.8571428571429</ele><time>2026-04-23T11:19:28Z</time></trkpt><trkpt lat="44.93235561545452" lon="9.311133109946645"><ele>646.0</ele><time>2026-04-23T11:19:30Z</time></trkpt><trkpt lat="44.93231339376374" lon="9.311275108396154"><ele>646.0</ele><time>2026-04-23T11:19:32Z</time></trkpt><trkpt lat="44.9322414659513" lon="9.311385043244298"><ele>646.0</ele><time>2026-04-23T11:19:34Z</time></trkpt><trkpt lat="44.93220282594003" lon="9.311472349616107"><ele>646.0</ele><time>2026-04-23T11:19:35Z</time></trkpt><trkpt lat="44.932150275067706" lon="9.31157798999716"><ele>646.0</ele><time>2026-04-23T11:19:37Z</time></trkpt><trkpt lat="44.93210094374859" lon="9.311690494937755"><ele>646.0</ele><time>2026-04-23T11:19:39Z</time></trkpt><trkpt lat="44.93209720928343" lon="9.311824458499576"><ele>646.0</ele><time>2026-04-23T11:19:42Z</time></trkpt><trkpt lat="44.93213650869436" lon="9.311902290973553"><ele>646.0</ele><time>2026-04-23T11:19:43.999Z</time></trkpt><trkpt lat="44.932189636196846" lon="9.311996035855545"><ele>646.0</ele><time>2026-04-23T11:19:45.999Z</time></trkpt><trkpt lat="44.932234063293215" lon="9.312120538149069"><ele>646.0</ele><time>2026-04-23T11:19:48.999Z</time></trkpt><trkpt lat="44.93225843519341" lon="9.312220791344055"><ele>646.0</ele><time>2026-04-23T11:19:50.999Z</time></trkpt><trkpt lat="44.93219155701923" lon="9.31237557152108"><ele>644.5999999999999</ele><time>2026-04-23T11:19:52.999Z</time></trkpt><trkpt lat="44.93213637244579" lon="9.312507531941264"><ele>643.1999999999999</ele><time>2026-04-23T11:19:54.999Z</time></trkpt><trkpt lat="44.9321428737809" lon="9.31266892118519"><ele>641.8</ele><time>2026-04-23T11:19:56.999Z</time></trkpt><trkpt lat="44.932152014203" lon="9.312784130870668"><ele>640.4</ele><time>2026-04-23T11:19:58.999Z</time></trkpt><trkpt lat="44.93213870305988" lon="9.312887951216547"><ele>639.0</ele><time>2026-04-23T11:20:00.999Z</time></trkpt><trkpt lat="44.93212032637461" lon="9.313017511266134"><ele>637.6666666666666</ele><time>2026-04-23T11:20:02.999Z</time></trkpt><trkpt lat="44.93210205495467" lon="9.313138571995845"><ele>636.3333333333334</ele><time>2026-04-23T11:20:04.999Z</time></trkpt><trkpt lat="44.93205586380027" lon="9.313226678946368"><ele>635.0</ele><time>2026-04-23T11:20:06.999Z</time></trkpt><trkpt lat="44.932002269144704" lon="9.313311730558773"><ele>633.6666666666667</ele><time>2026-04-23T11:20:09.999Z</time></trkpt><trkpt lat="44.93196387185642" lon="9.31339145767741"><ele>632.3333333333334</ele><time>2026-04-23T11:20:11.999Z</time></trkpt><trkpt lat="44.93195173614238" lon="9.313531947580273"><ele>631.0</ele><time>2026-04-23T11:20:13.999Z</time></trkpt><trkpt lat="44.9319195592681" lon="9.313633764512803"><ele>631.0</ele><time>2026-04-23T11:20:15.999Z</time></trkpt><trkpt lat="44.93195548849741" lon="9.313722456260713"><ele>631.0</ele><time>2026-04-23T11:20:18.999Z</time></trkpt><trkpt lat="44.93201508181417" lon="9.313771265690246"><ele>631.0</ele><time>2026-04-23T11:20:19.999Z</time></trkpt><trkpt lat="44.932064425982176" lon="9.313863445051537"><ele>631.0</ele><time>2026-04-23T11:20:21.999Z</time></trkpt><trkpt lat="44.93205841993096" lon="9.313975512546763"><ele>631.0</ele><time>2026-04-23T11:20:24.999Z</time></trkpt><trkpt lat="44.932066534187804" lon="9.314106813551259"><ele>631.0</ele><time>2026-04-23T11:20:27.999Z</time></trkpt><trkpt lat="44.93208897713846" lon="9.314224278635479"><ele>629.6666666666667</ele><time>2026-04-23T11:20:31.999Z</time></trkpt><trkpt lat="44.9320621354042" lon="9.314333224165642"><ele>628.3333333333334</ele><time>2026-04-23T11:20:34.999Z</time></trkpt><trkpt lat="44.93204435849622" lon="9.31445235567606"><ele>627.0</ele><time>2026-04-23T11:20:37.999Z</time></trkpt><trkpt lat="44.931987085966504" lon="9.314503829765798"><ele>625.6666666666666</ele><time>2026-04-23T11:20:40.999Z</time></trkpt><trkpt lat="44.931928478855696" lon="9.314608912606964"><ele>624.3333333333333</ele><time>2026-04-23T11:20:42.999Z</time></trkpt><trkpt lat="44.931894288868946" lon="9.314700512058064"><ele>623.0</ele><time>2026-04-23T11:20:44.999Z</time></trkpt><trkpt lat="44.931846026804536" lon="9.314803875578782"><ele>623.6666666666666</ele><time>2026-04-23T11:20:47.999Z</time></trkpt><trkpt lat="44.93180160213058" lon="9.314880133184083"><ele>624.3333333333333</ele><time>2026-04-23T11:20:49.999Z</time></trkpt><trkpt lat="44.93175079274565" lon="9.314993174456387"><ele>625.0</ele><time>2026-04-23T11:20:51.999Z</time></trkpt><trkpt lat="44.93171018416098" lon="9.315075209990937"><ele>625.6666666666666</ele><time>2026-04-23T11:20:53.998Z</time></trkpt><trkpt lat="44.931642248786304" lon="9.31519134520039"><ele>626.3333333333334</ele><time>2026-04-23T11:20:56.998Z</time></trkpt><trkpt lat="44.931599451085205" lon="9.315266017664872"><ele>627.0</ele><time>2026-04-23T11:20:58.998Z</time></trkpt><trkpt lat="44.93154241873769" lon="9.31531694223179"><ele>627.0</ele><time>2026-04-23T11:21:09Z</time></trkpt><trkpt lat="44.9314956582807" lon="9.315251542298185"><ele>627.0</ele><time>2026-04-23T11:21:12Z</time></trkpt><trkpt lat="44.93153985063203" lon="9.315328229838942"><ele>627.0</ele><time>2026-04-23T11:21:19Z</time></trkpt><trkpt lat="44.931598621309945" lon="9.315400475292138"><ele>627.0</ele><time>2026-04-23T11:21:24Z</time></trkpt><trkpt lat="44.93165731690411" lon="9.315444540007862"><ele>627.0</ele><time>2026-04-23T11:21:26Z</time></trkpt><trkpt lat="44.931718711628726" lon="9.315493422213597"><ele>627.0</ele><time>2026-04-23T11:21:28Z</time></trkpt><trkpt lat="44.9317975752865" lon="9.315552402731159"><ele>627.0</ele><time>2026-04-23T11:21:31Z</time></trkpt><trkpt lat="44.931868925417234" lon="9.315595345196527"><ele>624.8571428571429</ele><time>2026-04-23T11:21:34Z</time></trkpt><trkpt lat="44.93192702246692" lon="9.31563297879723"><ele>622.7142857142857</ele><time>2026-04-23T11:21:37Z</time></trkpt><trkpt lat="44.93198406471754" lon="9.315682879062276"><ele>620.5714285714286</ele><time>2026-04-23T11:21:40Z</time></trkpt><trkpt lat="44.932033883937834" lon="9.315747734997782"><ele>618.4285714285714</ele><time>2026-04-23T11:21:46.999Z</time></trkpt><trkpt lat="44.93209591875851" lon="9.315795389497143"><ele>616.2857142857143</ele><time>2026-04-23T11:22:08.999Z</time></trkpt><trkpt lat="44.93213973111315" lon="9.315859353272069"><ele>614.1428571428571</ele><time>2026-04-23T11:22:14.999Z</time></trkpt><trkpt lat="44.932128630349055" lon="9.315964252557379"><ele>612.0</ele><time>2026-04-23T11:22:23.999Z</time></trkpt><trkpt lat="44.932091511301905" lon="9.316075229151565"><ele>612.0</ele><time>2026-04-23T11:22:34.999Z</time></trkpt><trkpt lat="44.932075927157165" lon="9.316168313765536"><ele>612.0</ele><time>2026-04-23T11:22:37.999Z</time></trkpt><trkpt lat="44.932051813633805" lon="9.316265361436043"><ele>612.0</ele><time>2026-04-23T11:22:45.999Z</time></trkpt><trkpt lat="44.932020339380536" lon="9.316342448201997"><ele>612.0</ele><time>2026-04-23T11:22:48.999Z</time></trkpt><trkpt lat="44.93198968849736" lon="9.316430868888638"><ele>612.0</ele><time>2026-04-23T11:22:51.999Z</time></trkpt><trkpt lat="44.93197748288344" lon="9.31652307087701"><ele>612.0</ele><time>2026-04-23T11:22:55.998Z</time></trkpt><trkpt lat="44.93195472629484" lon="9.316630726519785"><ele>612.0</ele><time>2026-04-23T11:22:59.998Z</time></trkpt><trkpt lat="44.93193539262119" lon="9.316728504448779"><ele>610.4285714285714</ele><time>2026-04-23T11:23:05.998Z</time></trkpt><trkpt lat="44.931925690993125" lon="9.316817884590913"><ele>608.8571428571429</ele><time>2026-04-23T11:23:20Z</time></trkpt><trkpt lat="44.93189733835612" lon="9.316899143408016"><ele>607.2857142857142</ele><time>2026-04-23T11:23:44Z</time></trkpt><trkpt lat="44.931869649816" lon="9.31698946719338"><ele>605.7142857142858</ele><time>2026-04-23T11:23:57.999Z</time></trkpt><trkpt lat="44.93183528553563" lon="9.317069533006642"><ele>604.1428571428572</ele><time>2026-04-23T11:24:16.999Z</time></trkpt><trkpt lat="44.93181783226948" lon="9.317173651665577"><ele>602.5714285714286</ele><time>2026-04-23T11:24:27.999Z</time></trkpt><trkpt lat="44.93178640642916" lon="9.317267264073461"><ele>601.0</ele><time>2026-04-23T11:24:40.999Z</time></trkpt><trkpt lat="44.93175831644141" lon="9.317366662533507"><ele>598.7142857142857</ele><time>2026-04-23T11:24:45.999Z</time></trkpt><trkpt lat="44.931747137040084" lon="9.317460296735911"><ele>596.4285714285714</ele><time>2026-04-23T11:24:48.999Z</time></trkpt><trkpt lat="44.93175338203987" lon="9.317553776733234"><ele>594.1428571428571</ele><time>2026-04-23T11:24:57.999Z</time></trkpt><trkpt lat="44.93174821182939" lon="9.31767525957563"><ele>591.8571428571429</ele><time>2026-04-23T11:25:00.999Z</time></trkpt><trkpt lat="44.93173335468102" lon="9.317765462171003"><ele>589.5714285714286</ele><time>2026-04-23T11:25:04.999Z</time></trkpt><trkpt lat="44.931749888095744" lon="9.317874361894093"><ele>587.2857142857143</ele><time>2026-04-23T11:25:07.999Z</time></trkpt><trkpt lat="44.931761038303776" lon="9.317962494620902"><ele>585.0</ele><time>2026-04-23T11:25:09.999Z</time></trkpt><trkpt lat="44.93176911193261" lon="9.31808052345089"><ele>583.8333333333334</ele><time>2026-04-23T11:25:13Z</time></trkpt><trkpt lat="44.93176910282017" lon="9.318198218942065"><ele>582.6666666666666</ele><time>2026-04-23T11:25:16Z</time></trkpt><trkpt lat="44.93177110429872" lon="9.318298173515688"><ele>581.5</ele><time>2026-04-23T11:25:19Z</time></trkpt><trkpt lat="44.93174270464977" lon="9.318414947950597"><ele>580.3333333333333</ele><time>2026-04-23T11:25:22Z</time></trkpt><trkpt lat="44.931720521245516" lon="9.318526319482967"><ele>579.1666666666666</ele><time>2026-04-23T11:25:25Z</time></trkpt><trkpt lat="44.93170998716402" lon="9.318615274407996"><ele>578.0</ele><time>2026-04-23T11:25:28Z</time></trkpt><trkpt lat="44.93170324301206" lon="9.318716455774291"><ele>578.0</ele><time>2026-04-23T11:25:32Z</time></trkpt><trkpt lat="44.93170380037585" lon="9.318826399795302"><ele>578.0</ele><time>2026-04-23T11:25:35Z</time></trkpt><trkpt lat="44.93166976689658" lon="9.318912157829274"><ele>578.0</ele><time>2026-04-23T11:25:38Z</time></trkpt><trkpt lat="44.931613570298026" lon="9.31898739039727"><ele>578.0</ele><time>2026-04-23T11:25:41Z</time></trkpt><trkpt lat="44.931568639115696" lon="9.319081948232581"><ele>578.0</ele><time>2026-04-23T11:25:44Z</time></trkpt><trkpt lat="44.93153764449796" lon="9.31919895613128"><ele>578.0</ele><time>2026-04-23T11:25:47Z</time></trkpt><trkpt lat="44.93150079995913" lon="9.319278905798482"><ele>576.6666666666666</ele><time>2026-04-23T11:25:49Z</time></trkpt><trkpt lat="44.93144943536102" lon="9.319397320256723"><ele>575.3333333333333</ele><time>2026-04-23T11:25:51Z</time></trkpt><trkpt lat="44.93140459260713" lon="9.319509953346254"><ele>574.0</ele><time>2026-04-23T11:25:53Z</time></trkpt><trkpt lat="44.93134715819755" lon="9.31959488005928"><ele>572.6666666666666</ele><time>2026-04-23T11:25:55Z</time></trkpt><trkpt lat="44.9312994474286" lon="9.319694176112309"><ele>571.3333333333334</ele><time>2026-04-23T11:25:57Z</time></trkpt><trkpt lat="44.93125475963368" lon="9.319796716147842"><ele>570.0</ele><time>2026-04-23T11:25:59Z</time></trkpt><trkpt lat="44.93122512634806" lon="9.319896006109735"><ele>570.0</ele><time>2026-04-23T11:26:02Z</time></trkpt><trkpt lat="44.93121855905339" lon="9.319992067962641"><ele>570.0</ele><time>2026-04-23T11:26:05.999Z</time></trkpt><trkpt lat="44.93120337437213" lon="9.319894493943286"><ele>570.0</ele><time>2026-04-23T11:26:13.999Z</time></trkpt><trkpt lat="44.93122589232505" lon="9.319810549689654"><ele>570.0</ele><time>2026-04-23T11:26:15.999Z</time></trkpt><trkpt lat="44.93126077138646" lon="9.31972729651985"><ele>570.0</ele><time>2026-04-23T11:26:18.999Z</time></trkpt><trkpt lat="44.930961120476525" lon="9.319286647346665"><ele>568.0</ele><time>2026-04-23T11:26:24.999Z</time></trkpt><trkpt lat="44.93075299167471" lon="9.319366844167787"><ele>566.0</ele><time>2026-04-23T11:26:25.999Z</time></trkpt><trkpt lat="44.93065291230981" lon="9.319338432001736"><ele>564.0</ele><time>2026-04-23T11:26:27.999Z</time></trkpt><trkpt lat="44.93056054180888" lon="9.31929824586208"><ele>562.0</ele><time>2026-04-23T11:26:28.999Z</time></trkpt><trkpt lat="44.930452193806445" lon="9.319261877663308"><ele>562.0</ele><time>2026-04-23T11:26:30.999Z</time></trkpt><trkpt lat="44.93033607587946" lon="9.319229995915963"><ele>562.0</ele><time>2026-04-23T11:26:32.999Z</time></trkpt><trkpt lat="44.930221710070306" lon="9.319199603345222"><ele>562.0</ele><time>2026-04-23T11:26:34.999Z</time></trkpt><trkpt lat="44.93010574417746" lon="9.319188221807272"><ele>562.0</ele><time>2026-04-23T11:26:36.999Z</time></trkpt><trkpt lat="44.92998564850952" lon="9.319218512841504"><ele>560.8571428571429</ele><time>2026-04-23T11:26:38.999Z</time></trkpt><trkpt lat="44.92992473678769" lon="9.319259365833737"><ele>559.7142857142858</ele><time>2026-04-23T11:26:39.999Z</time></trkpt><trkpt lat="44.929865730676404" lon="9.319304734685367"><ele>558.5714285714286</ele><time>2026-04-23T11:26:40.999Z</time></trkpt><trkpt lat="44.92980714066834" lon="9.31935385095634"><ele>557.4285714285714</ele><time>2026-04-23T11:26:41.999Z</time></trkpt><trkpt lat="44.92975096867991" lon="9.319410620456717"><ele>556.2857142857142</ele><time>2026-04-23T11:26:42.999Z</time></trkpt><trkpt lat="44.92970558035027" lon="9.319487987476071"><ele>555.1428571428571</ele><time>2026-04-23T11:26:43.999Z</time></trkpt><trkpt lat="44.9296728538027" lon="9.319576725534557"><ele>554.0</ele><time>2026-04-23T11:26:44.999Z</time></trkpt><trkpt lat="44.92963754754768" lon="9.31965761754973"><ele>554.0</ele><time>2026-04-23T11:26:45.999Z</time></trkpt><trkpt lat="44.92960421988279" lon="9.319733114955667"><ele>554.0</ele><time>2026-04-23T11:26:46.999Z</time></trkpt><trkpt lat="44.92954593383914" lon="9.319879376619946"><ele>554.0</ele><time>2026-04-23T11:26:48.999Z</time></trkpt><trkpt lat="44.92949536468184" lon="9.320018704779358"><ele>554.0</ele><time>2026-04-23T11:26:50.999Z</time></trkpt><trkpt lat="44.92943859541487" lon="9.320153723721079"><ele>554.0</ele><time>2026-04-23T11:26:52.999Z</time></trkpt><trkpt lat="44.92937339043859" lon="9.320274732591182"><ele>551.5</ele><time>2026-04-23T11:26:54.999Z</time></trkpt><trkpt lat="44.92926202125234" lon="9.32032366478004"><ele>549.0</ele><time>2026-04-23T11:26:56.999Z</time></trkpt><trkpt lat="44.929154981901924" lon="9.320293592055018"><ele>546.5</ele><time>2026-04-23T11:26:58.999Z</time></trkpt><trkpt lat="44.92904564267511" lon="9.3202270862401"><ele>544.0</ele><time>2026-04-23T11:27:00.999Z</time></trkpt><trkpt lat="44.92894432739644" lon="9.320134826914654"><ele>544.0</ele><time>2026-04-23T11:27:02.999Z</time></trkpt><trkpt lat="44.92884486875941" lon="9.32004171894479"><ele>544.0</ele><time>2026-04-23T11:27:04.999Z</time></trkpt><trkpt lat="44.92879280189052" lon="9.319989516419627"><ele>544.0</ele><time>2026-04-23T11:27:05.999Z</time></trkpt><trkpt lat="44.92873301348544" lon="9.319914569193921"><ele>544.0</ele><time>2026-04-23T11:27:06.999Z</time></trkpt><trkpt lat="44.92867752138035" lon="9.319831976127492"><ele>544.0</ele><time>2026-04-23T11:27:07.999Z</time></trkpt><trkpt lat="44.92862941549589" lon="9.31971545726459"><ele>544.0</ele><time>2026-04-23T11:27:08.999Z</time></trkpt><trkpt lat="44.92855907732279" lon="9.319608168028553"><ele>545.4</ele><time>2026-04-23T11:27:09.999Z</time></trkpt><trkpt lat="44.92849173987392" lon="9.319482886922096"><ele>546.8</ele><time>2026-04-23T11:27:10.999Z</time></trkpt><trkpt lat="44.92842703464133" lon="9.319356427901493"><ele>548.2</ele><time>2026-04-23T11:27:11.999Z</time></trkpt><trkpt lat="44.92836981304949" lon="9.319234036782419"><ele>549.6</ele><time>2026-04-23T11:27:12.999Z</time></trkpt><trkpt lat="44.92830040517873" lon="9.319131297499863"><ele>551.0</ele><time>2026-04-23T11:27:13.999Z</time></trkpt><trkpt lat="44.92822269362639" lon="9.319058400116056"><ele>547.25</ele><time>2026-04-23T11:27:14.999Z</time></trkpt><trkpt lat="44.92810486806652" lon="9.31906127500325"><ele>543.5</ele><time>2026-04-23T11:27:15.999Z</time></trkpt><trkpt lat="44.92799009843413" lon="9.319085423806227"><ele>539.75</ele><time>2026-04-23T11:27:16.999Z</time></trkpt><trkpt lat="44.927876643082556" lon="9.319133602278418"><ele>536.0</ele><time>2026-04-23T11:27:17.999Z</time></trkpt><trkpt lat="44.927753828365184" lon="9.319160588930943"><ele>536.0</ele><time>2026-04-23T11:27:19Z</time></trkpt><trkpt lat="44.927594022306515" lon="9.319124894947233"><ele>536.0</ele><time>2026-04-23T11:27:20Z</time></trkpt><trkpt lat="44.9275181242129" lon="9.318917171807076"><ele>536.0</ele><time>2026-04-23T11:27:21Z</time></trkpt><trkpt lat="44.92756429036989" lon="9.318981123917002"><ele>536.0</ele><time>2026-04-23T11:27:22Z</time></trkpt><trkpt lat="44.927487692461206" lon="9.31885081732705"><ele>534.0</ele><time>2026-04-23T11:27:23Z</time></trkpt><trkpt lat="44.92740730973241" lon="9.318711547090148"><ele>532.0</ele><time>2026-04-23T11:27:24Z</time></trkpt><trkpt lat="44.927328358692336" lon="9.318574757367145"><ele>530.0</ele><time>2026-04-23T11:27:25Z</time></trkpt><trkpt lat="44.92724463093582" lon="9.3184330450868"><ele>528.0</ele><time>2026-04-23T11:27:26Z</time></trkpt><trkpt lat="44.92714636719622" lon="9.318303055121303"><ele>528.0</ele><time>2026-04-23T11:27:27Z</time></trkpt><trkpt lat="44.927065576468635" lon="9.318163927041946"><ele>528.0</ele><time>2026-04-23T11:27:28Z</time></trkpt><trkpt lat="44.9269838619655" lon="9.318033643315001"><ele>528.0</ele><time>2026-04-23T11:27:29Z</time></trkpt><trkpt lat="44.926908008281615" lon="9.317912392846496"><ele>528.0</ele><time>2026-04-23T11:27:30Z</time></trkpt><trkpt lat="44.926830675832335" lon="9.317797943682521"><ele>528.5</ele><time>2026-04-23T11:27:31Z</time></trkpt><trkpt lat="44.92673898424219" lon="9.317699887276863"><ele>529.0</ele><time>2026-04-23T11:27:32Z</time></trkpt><trkpt lat="44.92663303174968" lon="9.317664349106186"><ele>529.5</ele><time>2026-04-23T11:27:33Z</time></trkpt><trkpt lat="44.926522342031205" lon="9.317697377213133"><ele>530.0</ele><time>2026-04-23T11:27:34Z</time></trkpt><trkpt lat="44.9264208459713" lon="9.317785818790524"><ele>530.0</ele><time>2026-04-23T11:27:35Z</time></trkpt><trkpt lat="44.92634156257649" lon="9.317910333839821"><ele>530.0</ele><time>2026-04-23T11:27:36Z</time></trkpt><trkpt lat="44.92626389170587" lon="9.318074146802013"><ele>530.0</ele><time>2026-04-23T11:27:37Z</time></trkpt><trkpt lat="44.926201066011735" lon="9.318221774508823"><ele>530.0</ele><time>2026-04-23T11:27:38Z</time></trkpt><trkpt lat="44.926136631822786" lon="9.318344120308138"><ele>528.2</ele><time>2026-04-23T11:27:39Z</time></trkpt><trkpt lat="44.926076795983796" lon="9.31842495804245"><ele>526.4</ele><time>2026-04-23T11:27:40Z</time></trkpt><trkpt lat="44.92600250819302" lon="9.318441317186045"><ele>524.6</ele><time>2026-04-23T11:27:41Z</time></trkpt><trkpt lat="44.9259272761965" lon="9.318411176254397"><ele>522.8</ele><time>2026-04-23T11:27:42Z</time></trkpt><trkpt lat="44.925877772602966" lon="9.318271519657124"><ele>521.0</ele><time>2026-04-23T11:27:43Z</time></trkpt><trkpt lat="44.92579090190415" lon="9.3181875183909"><ele>521.0</ele><time>2026-04-23T11:27:44Z</time></trkpt><trkpt lat="44.92567672513954" lon="9.31808696829868"><ele>521.0</ele><time>2026-04-23T11:27:45Z</time></trkpt><trkpt lat="44.92554440900064" lon="9.318050738284784"><ele>521.0</ele><time>2026-04-23T11:27:46Z</time></trkpt><trkpt lat="44.925396413965046" lon="9.318050168488265"><ele>521.0</ele><time>2026-04-23T11:27:47Z</time></trkpt><trkpt lat="44.92525798747174" lon="9.318037028810817"><ele>523.25</ele><time>2026-04-23T11:27:48Z</time></trkpt><trkpt lat="44.92513029973496" lon="9.318025756409828"><ele>525.5</ele><time>2026-04-23T11:27:49Z</time></trkpt><trkpt lat="44.92501363540485" lon="9.318018000219775"><ele>527.75</ele><time>2026-04-23T11:27:50Z</time></trkpt><trkpt lat="44.92490830868789" lon="9.317975146302606"><ele>530.0</ele><time>2026-04-23T11:27:51Z</time></trkpt><trkpt lat="44.92480687991653" lon="9.317947258139663"><ele>530.0</ele><time>2026-04-23T11:27:52Z</time></trkpt><trkpt lat="44.9247097099997" lon="9.317992306451917"><ele>530.0</ele><time>2026-04-23T11:27:53Z</time></trkpt><trkpt lat="44.92460590028728" lon="9.318062320213752"><ele>530.0</ele><time>2026-04-23T11:27:54Z</time></trkpt><trkpt lat="44.92450479053319" lon="9.318091013931431"><ele>530.0</ele><time>2026-04-23T11:27:55Z</time></trkpt><trkpt lat="44.92441691326544" lon="9.318077974098848"><ele>530.0</ele><time>2026-04-23T11:27:56Z</time></trkpt><trkpt lat="44.92434326391232" lon="9.317991126935864"><ele>530.0</ele><time>2026-04-23T11:27:57Z</time></trkpt><trkpt lat="44.92431420432658" lon="9.317876561222503"><ele>530.0</ele><time>2026-04-23T11:27:58Z</time></trkpt><trkpt lat="44.92436640369567" lon="9.317734350545654"><ele>530.0</ele><time>2026-04-23T11:27:59Z</time></trkpt><trkpt lat="44.92438730536918" lon="9.317582152345937"><ele>530.0</ele><time>2026-04-23T11:28:00Z</time></trkpt><trkpt lat="44.92439905905847" lon="9.317414880696552"><ele>530.0</ele><time>2026-04-23T11:28:01Z</time></trkpt><trkpt lat="44.92441928986008" lon="9.31727024734284"><ele>530.8</ele><time>2026-04-23T11:28:01.999Z</time></trkpt><trkpt lat="44.92444540884776" lon="9.3171278008742"><ele>531.6</ele><time>2026-04-23T11:28:02.999Z</time></trkpt><trkpt lat="44.924466147279176" lon="9.316996772802664"><ele>532.4</ele><time>2026-04-23T11:28:03.999Z</time></trkpt><trkpt lat="44.924472482530646" lon="9.316873910234774"><ele>533.2</ele><time>2026-04-23T11:28:04.999Z</time></trkpt><trkpt lat="44.924440510787726" lon="9.316757846248644"><ele>534.0</ele><time>2026-04-23T11:28:05.999Z</time></trkpt><trkpt lat="44.92438041808076" lon="9.316654777206221"><ele>534.0</ele><time>2026-04-23T11:28:06.999Z</time></trkpt><trkpt lat="44.924272593270544" lon="9.31662108640852"><ele>534.0</ele><time>2026-04-23T11:28:07.999Z</time></trkpt><trkpt lat="44.9241911090768" lon="9.316567643377159"><ele>534.0</ele><time>2026-04-23T11:28:08.999Z</time></trkpt><trkpt lat="44.924124250219975" lon="9.316484416675866"><ele>534.0</ele><time>2026-04-23T11:28:09.999Z</time></trkpt><trkpt lat="44.92405867615641" lon="9.316371401610816"><ele>534.0</ele><time>2026-04-23T11:28:10.999Z</time></trkpt><trkpt lat="44.92398674760475" lon="9.316266269766968"><ele>532.6</ele><time>2026-04-23T11:28:11.999Z</time></trkpt><trkpt lat="44.92391832492622" lon="9.316156017054961"><ele>531.2</ele><time>2026-04-23T11:28:12.999Z</time></trkpt><trkpt lat="44.92386135398819" lon="9.316031764959781"><ele>529.8000000000001</ele><time>2026-04-23T11:28:13.999Z</time></trkpt><trkpt lat="44.923799535427904" lon="9.315918995983512"><ele>528.4</ele><time>2026-04-23T11:28:14.999Z</time></trkpt><trkpt lat="44.923734065688144" lon="9.315813198294267"><ele>527.0</ele><time>2026-04-23T11:28:15.999Z</time></trkpt><trkpt lat="44.92365251712632" lon="9.315731168004948"><ele>527.0</ele><time>2026-04-23T11:28:16.999Z</time></trkpt><trkpt lat="44.92355975637634" lon="9.31567985737253"><ele>527.0</ele><time>2026-04-23T11:28:17.999Z</time></trkpt><trkpt lat="44.923464281742035" lon="9.315650957855372"><ele>527.0</ele><time>2026-04-23T11:28:18.999Z</time></trkpt><trkpt lat="44.923364679362315" lon="9.315646408210808"><ele>527.0</ele><time>2026-04-23T11:28:19.999Z</time></trkpt><trkpt lat="44.923259259310775" lon="9.315651427595137"><ele>527.0</ele><time>2026-04-23T11:28:20.999Z</time></trkpt><trkpt lat="44.92314361098366" lon="9.315683571696356"><ele>524.3333333333333</ele><time>2026-04-23T11:28:21.999Z</time></trkpt><trkpt lat="44.92299560594739" lon="9.315751208384505"><ele>521.6666666666666</ele><time>2026-04-23T11:28:22.999Z</time></trkpt><trkpt lat="44.922844058894036" lon="9.315808562504442"><ele>519.0</ele><time>2026-04-23T11:28:23.999Z</time></trkpt><trkpt lat="44.922689228812" lon="9.315883760564494"><ele>517.5</ele><time>2026-04-23T11:28:24.999Z</time></trkpt><trkpt lat="44.922544331565476" lon="9.315928545153898"><ele>516.0</ele><time>2026-04-23T11:28:25.999Z</time></trkpt><trkpt lat="44.92243901371639" lon="9.315966467280576"><ele>514.5</ele><time>2026-04-23T11:28:26.999Z</time></trkpt><trkpt lat="44.92234129477842" lon="9.31597529188666"><ele>513.0</ele><time>2026-04-23T11:28:27.999Z</time></trkpt><trkpt lat="44.92223721891782" lon="9.315900983231726"><ele>513.0</ele><time>2026-04-23T11:28:28.999Z</time></trkpt><trkpt lat="44.92213530340539" lon="9.315795917055375"><ele>513.0</ele><time>2026-04-23T11:28:29.999Z</time></trkpt><trkpt lat="44.92201721762083" lon="9.315699245160582"><ele>513.0</ele><time>2026-04-23T11:28:30.999Z</time></trkpt><trkpt lat="44.921918488799804" lon="9.315596329618067"><ele>513.0</ele><time>2026-04-23T11:28:31.999Z</time></trkpt><trkpt lat="44.92182739339195" lon="9.315497259627497"><ele>514.4</ele><time>2026-04-23T11:28:32.999Z</time></trkpt><trkpt lat="44.92174559075709" lon="9.31541901366361"><ele>515.8</ele><time>2026-04-23T11:28:33.999Z</time></trkpt><trkpt lat="44.921656783906066" lon="9.315357134951697"><ele>517.2</ele><time>2026-04-23T11:28:34.999Z</time></trkpt><trkpt lat="44.9215546651602" lon="9.315316957098608"><ele>518.6</ele><time>2026-04-23T11:28:35.999Z</time></trkpt><trkpt lat="44.921457489524684" lon="9.315280148697868"><ele>520.0</ele><time>2026-04-23T11:28:36.999Z</time></trkpt><trkpt lat="44.92135986558056" lon="9.315239911233961"><ele>520.0</ele><time>2026-04-23T11:28:37.999Z</time></trkpt><trkpt lat="44.921258289116025" lon="9.315195167638965"><ele>520.0</ele><time>2026-04-23T11:28:38.999Z</time></trkpt><trkpt lat="44.9211529260535" lon="9.315186101095733"><ele>520.0</ele><time>2026-04-23T11:28:39.999Z</time></trkpt><trkpt lat="44.92104766878706" lon="9.315274576558698"><ele>520.0</ele><time>2026-04-23T11:28:40.999Z</time></trkpt><trkpt lat="44.92094671954221" lon="9.315405016993225"><ele>520.0</ele><time>2026-04-23T11:28:41.999Z</time></trkpt><trkpt lat="44.92085233321405" lon="9.315533067792382"><ele>520.0</ele><time>2026-04-23T11:28:42.999Z</time></trkpt><trkpt lat="44.92075759506367" lon="9.315651121474977"><ele>520.0</ele><time>2026-04-23T11:28:43.999Z</time></trkpt><trkpt lat="44.92064783003647" lon="9.315764909611975"><ele>520.0</ele><time>2026-04-23T11:28:44.999Z</time></trkpt><trkpt lat="44.92055502630016" lon="9.315886130492045"><ele>518.25</ele><time>2026-04-23T11:28:45.999Z</time></trkpt><trkpt lat="44.920460363852996" lon="9.316002626557498"><ele>516.5</ele><time>2026-04-23T11:28:46.999Z</time></trkpt><trkpt lat="44.92036521340738" lon="9.316105613479568"><ele>514.75</ele><time>2026-04-23T11:28:47.999Z</time></trkpt><trkpt lat="44.920276999384036" lon="9.316198753900116"><ele>513.0</ele><time>2026-04-23T11:28:48.999Z</time></trkpt><trkpt lat="44.920189656726194" lon="9.316280527344908"><ele>513.0</ele><time>2026-04-23T11:28:49.999Z</time></trkpt><trkpt lat="44.92010040341245" lon="9.316327223862617"><ele>513.0</ele><time>2026-04-23T11:28:50.999Z</time></trkpt><trkpt lat="44.920005883918925" lon="9.316363333039844"><ele>513.0</ele><time>2026-04-23T11:28:51.999Z</time></trkpt><trkpt lat="44.91991763806025" lon="9.316399518801719"><ele>513.0</ele><time>2026-04-23T11:28:52.999Z</time></trkpt><trkpt lat="44.919835996029114" lon="9.316435381369072"><ele>513.0</ele><time>2026-04-23T11:28:53.999Z</time></trkpt><trkpt lat="44.91976697467235" lon="9.31646557634395"><ele>513.0</ele><time>2026-04-23T11:28:54.999Z</time></trkpt><trkpt lat="44.91969884771538" lon="9.316489897853238"><ele>513.1999999999999</ele><time>2026-04-23T11:28:55.999Z</time></trkpt><trkpt lat="44.91959686418554" lon="9.316526353339826"><ele>513.4</ele><time>2026-04-23T11:28:57.999Z</time></trkpt><trkpt lat="44.9196087822552" lon="9.316366861152884"><ele>513.5999999999999</ele><time>2026-04-23T11:29:00.999Z</time></trkpt><trkpt lat="44.91969636126832" lon="9.316276749389067"><ele>513.8</ele><time>2026-04-23T11:29:02.999Z</time></trkpt><trkpt lat="44.919751319803645" lon="9.316197585345172"><ele>514.0</ele><time>2026-04-23T11:29:03.999Z</time></trkpt><trkpt lat="44.91982531739464" lon="9.316086582654025"><ele>513.8</ele><time>2026-04-23T11:29:04.999Z</time></trkpt><trkpt lat="44.919904508002645" lon="9.315950629113342"><ele>513.5999999999999</ele><time>2026-04-23T11:29:05.999Z</time></trkpt><trkpt lat="44.91998059597057" lon="9.315822777372828"><ele>513.4</ele><time>2026-04-23T11:29:06.999Z</time></trkpt><trkpt lat="44.92003771212333" lon="9.315716005666474"><ele>513.1999999999999</ele><time>2026-04-23T11:29:07.999Z</time></trkpt><trkpt lat="44.92008594662394" lon="9.315607395817732"><ele>513.0</ele><time>2026-04-23T11:29:08.999Z</time></trkpt><trkpt lat="44.920130691254116" lon="9.315474113098071"><ele>514.4</ele><time>2026-04-23T11:29:09.999Z</time></trkpt><trkpt lat="44.92018050564341" lon="9.315311892035632"><ele>515.8</ele><time>2026-04-23T11:29:10.999Z</time></trkpt><trkpt lat="44.92022353508876" lon="9.315188119816503"><ele>517.2</ele><time>2026-04-23T11:29:11.999Z</time></trkpt><trkpt lat="44.9203000593828" lon="9.315068036395614"><ele>518.6</ele><time>2026-04-23T11:29:13.999Z</time></trkpt><trkpt lat="44.92035013053063" lon="9.315011394225484"><ele>520.0</ele><time>2026-04-23T11:29:14.999Z</time></trkpt><trkpt lat="44.92041419382024" lon="9.314903582133077"><ele>520.0</ele><time>2026-04-23T11:29:15.999Z</time></trkpt><trkpt lat="44.92050696605444" lon="9.314789018486472"><ele>520.0</ele><time>2026-04-23T11:29:16.999Z</time></trkpt><trkpt lat="44.92064736118556" lon="9.314682428983227"><ele>520.0</ele><time>2026-04-23T11:29:17.999Z</time></trkpt><trkpt lat="44.920759216882296" lon="9.314597509386045"><ele>520.0</ele><time>2026-04-23T11:29:18.999Z</time></trkpt><trkpt lat="44.92089035583136" lon="9.3145267639177"><ele>522.5</ele><time>2026-04-23T11:29:19.999Z</time></trkpt><trkpt lat="44.92103269168612" lon="9.314450203279435"><ele>525.0</ele><time>2026-04-23T11:29:20.999Z</time></trkpt><trkpt lat="44.9211518187405" lon="9.314385680150659"><ele>527.5</ele><time>2026-04-23T11:29:21.999Z</time></trkpt><trkpt lat="44.92124346858211" lon="9.314325548050768"><ele>530.0</ele><time>2026-04-23T11:29:22.999Z</time></trkpt><trkpt lat="44.92132869763417" lon="9.31428684522771"><ele>530.0</ele><time>2026-04-23T11:29:23.999Z</time></trkpt><trkpt lat="44.92142413955038" lon="9.314281815049895"><ele>530.0</ele><time>2026-04-23T11:29:25Z</time></trkpt><trkpt lat="44.9215213111762" lon="9.314297232794834"><ele>530.0</ele><time>2026-04-23T11:29:26Z</time></trkpt><trkpt lat="44.921625970416976" lon="9.314315157662422"><ele>530.0</ele><time>2026-04-23T11:29:27Z</time></trkpt><trkpt lat="44.92170561202308" lon="9.314326775464757"><ele>530.0</ele><time>2026-04-23T11:29:28Z</time></trkpt><trkpt lat="44.92178129038314" lon="9.314304418212041"><ele>531.25</ele><time>2026-04-23T11:29:29Z</time></trkpt><trkpt lat="44.92188194622208" lon="9.31424963308197"><ele>532.5</ele><time>2026-04-23T11:29:31Z</time></trkpt><trkpt lat="44.921987019081726" lon="9.314217545085553"><ele>533.75</ele><time>2026-04-23T11:29:32Z</time></trkpt><trkpt lat="44.92209665324832" lon="9.314163587275573"><ele>535.0</ele><time>2026-04-23T11:29:33Z</time></trkpt><trkpt lat="44.92222389211614" lon="9.314088644743169"><ele>535.0</ele><time>2026-04-23T11:29:34Z</time></trkpt><trkpt lat="44.9223377110327" lon="9.314000981382293"><ele>535.0</ele><time>2026-04-23T11:29:35Z</time></trkpt><trkpt lat="44.92244889335387" lon="9.313923022848247"><ele>535.0</ele><time>2026-04-23T11:29:36Z</time></trkpt><trkpt lat="44.92256443142321" lon="9.31384986476621"><ele>535.0</ele><time>2026-04-23T11:29:37Z</time></trkpt><trkpt lat="44.92268018343354" lon="9.313806747056343"><ele>537.8</ele><time>2026-04-23T11:29:38Z</time></trkpt><trkpt lat="44.92277699981565" lon="9.313766361391345"><ele>540.6</ele><time>2026-04-23T11:29:39Z</time></trkpt><trkpt lat="44.922858132164215" lon="9.313726877651481"><ele>543.4</ele><time>2026-04-23T11:29:40Z</time></trkpt><trkpt lat="44.922941790124945" lon="9.313674607711835"><ele>546.2</ele><time>2026-04-23T11:29:41Z</time></trkpt><trkpt lat="44.92302592779324" lon="9.313642169179698"><ele>549.0</ele><time>2026-04-23T11:29:42Z</time></trkpt><trkpt lat="44.92311319127505" lon="9.31362787437685"><ele>549.0</ele><time>2026-04-23T11:29:43Z</time></trkpt><trkpt lat="44.923205992182076" lon="9.3136043903412"><ele>549.0</ele><time>2026-04-23T11:29:44Z</time></trkpt><trkpt lat="44.923291608790905" lon="9.313571147621035"><ele>549.0</ele><time>2026-04-23T11:29:45Z</time></trkpt><trkpt lat="44.92335785982452" lon="9.313539730515403"><ele>549.0</ele><time>2026-04-23T11:29:46Z</time></trkpt><trkpt lat="44.92344241802359" lon="9.31349734583888"><ele>549.0</ele><time>2026-04-23T11:29:48Z</time></trkpt><trkpt lat="44.923553671668834" lon="9.313413145746075"><ele>552.2</ele><time>2026-04-23T11:29:50Z</time></trkpt><trkpt lat="44.92362156214026" lon="9.31332559329827"><ele>555.4</ele><time>2026-04-23T11:29:51Z</time></trkpt><trkpt lat="44.923675414168486" lon="9.313228305869258"><ele>558.6</ele><time>2026-04-23T11:29:52Z</time></trkpt><trkpt lat="44.923740120602346" lon="9.313129913311869"><ele>561.8</ele><time>2026-04-23T11:29:53Z</time></trkpt><trkpt lat="44.92381851553277" lon="9.31303239110634"><ele>565.0</ele><time>2026-04-23T11:29:54Z</time></trkpt><trkpt lat="44.92387769537141" lon="9.312952573676927"><ele>564.9999999999999</ele><time>2026-04-23T11:29:55Z</time></trkpt><trkpt lat="44.923886494019115" lon="9.312862544437797"><ele>565.0</ele><time>2026-04-23T11:29:56Z</time></trkpt><trkpt lat="44.923867082529505" lon="9.312759872618573"><ele>565.0</ele><time>2026-04-23T11:29:57Z</time></trkpt><trkpt lat="44.92385884054823" lon="9.312661624762255"><ele>565.0</ele><time>2026-04-23T11:29:58Z</time></trkpt><trkpt lat="44.92387309173035" lon="9.312567306366631"><ele>565.0</ele><time>2026-04-23T11:30:00Z</time></trkpt><trkpt lat="44.92393152875903" lon="9.312632578353172"><ele>564.9999999999999</ele><time>2026-04-23T11:30:03Z</time></trkpt><trkpt lat="44.92396436326369" lon="9.312738955853145"><ele>565.0</ele><time>2026-04-23T11:30:05Z</time></trkpt><trkpt lat="44.92403877080706" lon="9.312799300315914"><ele>565.0</ele><time>2026-04-23T11:30:07Z</time></trkpt><trkpt lat="44.92410275280701" lon="9.312868768883469"><ele>565.0</ele><time>2026-04-23T11:30:08Z</time></trkpt><trkpt lat="44.92415123730434" lon="9.312945137056907"><ele>565.0</ele><time>2026-04-23T11:30:09Z</time></trkpt><trkpt lat="44.9242185526253" lon="9.313078886156134"><ele>565.0</ele><time>2026-04-23T11:30:11Z</time></trkpt><trkpt lat="44.924269005431604" lon="9.313230712279674"><ele>565.0</ele><time>2026-04-23T11:30:12.999Z</time></trkpt><trkpt lat="44.92429147975613" lon="9.313336614068175"><ele>566.5</ele><time>2026-04-23T11:30:13.999Z</time></trkpt><trkpt lat="44.92431100397936" lon="9.313455829653044"><ele>568.0</ele><time>2026-04-23T11:30:14.999Z</time></trkpt><trkpt lat="44.92433469506179" lon="9.31356456491047"><ele>569.5</ele><time>2026-04-23T11:30:15.999Z</time></trkpt><trkpt lat="44.92438970954293" lon="9.313707231926864"><ele>571.0</ele><time>2026-04-23T11:30:17.999Z</time></trkpt><trkpt lat="44.924433750147855" lon="9.313795333556005"><ele>572.5</ele><time>2026-04-23T11:30:18.999Z</time></trkpt><trkpt lat="44.924491491926396" lon="9.31387849624781"><ele>574.0</ele><time>2026-04-23T11:30:19.999Z</time></trkpt><trkpt lat="44.92455686095982" lon="9.313953237254518"><ele>574.0</ele><time>2026-04-23T11:30:20.999Z</time></trkpt><trkpt lat="44.92463158734992" lon="9.313992457820403"><ele>574.0</ele><time>2026-04-23T11:30:21.999Z</time></trkpt><trkpt lat="44.92469683675213" lon="9.314012319310017"><ele>574.0</ele><time>2026-04-23T11:30:22.999Z</time></trkpt><trkpt lat="44.92476095337596" lon="9.314032717823045"><ele>574.0</ele><time>2026-04-23T11:30:23.999Z</time></trkpt><trkpt lat="44.92483896646498" lon="9.314023779171418"><ele>574.0</ele><time>2026-04-23T11:30:24.999Z</time></trkpt><trkpt lat="44.92490961240935" lon="9.314004919524407"><ele>574.0</ele><time>2026-04-23T11:30:25.999Z</time></trkpt><trkpt lat="44.92497687780646" lon="9.313977995314298"><ele>574.0</ele><time>2026-04-23T11:30:26.999Z</time></trkpt><trkpt lat="44.92506638498514" lon="9.313899005814532"><ele>569.0</ele><time>2026-04-23T11:30:28.999Z</time></trkpt><trkpt lat="44.92515148421989" lon="9.313811880495814"><ele>569.0</ele><time>2026-04-23T11:30:30.999Z</time></trkpt><trkpt lat="44.92520442421989" lon="9.313759851213188"><ele>569.0</ele><time>2026-04-23T11:30:31.999Z</time></trkpt><trkpt lat="44.92526594077795" lon="9.313680632951451"><ele>569.0</ele><time>2026-04-23T11:30:32.999Z</time></trkpt><trkpt lat="44.92530828714683" lon="9.31360927804203"><ele>569.0</ele><time>2026-04-23T11:30:33.999Z</time></trkpt><trkpt lat="44.925366801829504" lon="9.313541935835183"><ele>569.0</ele><time>2026-04-23T11:30:35.999Z</time></trkpt></trkseg><trkseg><trkpt lat="44.925441043995214" lon="9.313528391632742"><ele>569.0</ele><time>2026-04-23T11:44:46.999Z</time></trkpt><trkpt lat="44.92552255586547" lon="9.313508543182282"><ele>569.0</ele><time>2026-04-23T11:44:49.999Z</time></trkpt><trkpt lat="44.92558414592188" lon="9.313444827716259"><ele>569.0</ele><time>2026-04-23T11:44:53.999Z</time></trkpt><trkpt lat="44.925617418529626" lon="9.313360778147517"><ele>569.0</ele><time>2026-04-23T11:45:01.999Z</time></trkpt><trkpt lat="44.9256955190366" lon="9.313345217500505"><ele>569.0</ele><time>2026-04-23T11:45:23Z</time></trkpt><trkpt lat="44.92576618518634" lon="9.313263579269211"><ele>569.0</ele><time>2026-04-23T11:45:26Z</time></trkpt><trkpt lat="44.925755740826865" lon="9.313170550794698"><ele>569.0</ele><time>2026-04-23T11:45:40Z</time></trkpt><trkpt lat="44.92579590938843" lon="9.313090621415954"><ele>569.0</ele><time>2026-04-23T11:45:44Z</time></trkpt><trkpt lat="44.92581210684875" lon="9.312989262693671"><ele>569.0</ele><time>2026-04-23T11:45:55Z</time></trkpt><trkpt lat="44.92585003061568" lon="9.312910714902626"><ele>569.0</ele><time>2026-04-23T11:45:58Z</time></trkpt><trkpt lat="44.92591908519801" lon="9.312822852221469"><ele>569.0</ele><time>2026-04-23T11:46:01Z</time></trkpt><trkpt lat="44.926000031656386" lon="9.312784580209557"><ele>569.0</ele><time>2026-04-23T11:46:03Z</time></trkpt><trkpt lat="44.92606313370004" lon="9.312720249548649"><ele>567.8333333333333</ele><time>2026-04-23T11:46:05Z</time></trkpt><trkpt lat="44.92612262529603" lon="9.312657716014556"><ele>566.6666666666666</ele><time>2026-04-23T11:46:08Z</time></trkpt><trkpt lat="44.92619132372235" lon="9.312596033445693"><ele>565.5</ele><time>2026-04-23T11:46:11Z</time></trkpt><trkpt lat="44.92626807416314" lon="9.31256930253273"><ele>564.3333333333334</ele><time>2026-04-23T11:46:14Z</time></trkpt><trkpt lat="44.92635375136846" lon="9.31252912938538"><ele>563.1666666666667</ele><time>2026-04-23T11:46:17Z</time></trkpt><trkpt lat="44.92643506036501" lon="9.312503579147856"><ele>562.0</ele><time>2026-04-23T11:46:20Z</time></trkpt><trkpt lat="44.926521548564665" lon="9.312491909037918"><ele>562.0000000000001</ele><time>2026-04-23T11:46:22.999Z</time></trkpt><trkpt lat="44.92659746250106" lon="9.312538180018572"><ele>562.0</ele><time>2026-04-23T11:46:25.999Z</time></trkpt><trkpt lat="44.926623134026165" lon="9.312624685025991"><ele>562.0</ele><time>2026-04-23T11:46:29.999Z</time></trkpt><trkpt lat="44.92667233037406" lon="9.312689055914541"><ele>562.0</ele><time>2026-04-23T11:46:42.999Z</time></trkpt><trkpt lat="44.926745837095254" lon="9.312696274745685"><ele>562.0</ele><time>2026-04-23T11:46:47.999Z</time></trkpt><trkpt lat="44.926791519656504" lon="9.312621486073516"><ele>562.0000000000001</ele><time>2026-04-23T11:46:52.999Z</time></trkpt><trkpt lat="44.92684880455685" lon="9.312565777333122"><ele>562.0</ele><time>2026-04-23T11:46:54.999Z</time></trkpt><trkpt lat="44.92692810714232" lon="9.312471850095669"><ele>564.4</ele><time>2026-04-23T11:46:57.999Z</time></trkpt><trkpt lat="44.92701550314739" lon="9.312423867880543"><ele>566.8000000000001</ele><time>2026-04-23T11:46:59.999Z</time></trkpt><trkpt lat="44.92710524808631" lon="9.312403501105551"><ele>569.2</ele><time>2026-04-23T11:47:01.999Z</time></trkpt><trkpt lat="44.92721114744725" lon="9.31237059072801"><ele>571.6</ele><time>2026-04-23T11:47:03.999Z</time></trkpt><trkpt lat="44.927296472578114" lon="9.312324224068378"><ele>574.0</ele><time>2026-04-23T11:47:05.999Z</time></trkpt><trkpt lat="44.92737558607487" lon="9.312263052946653"><ele>572.8333333333334</ele><time>2026-04-23T11:47:07.999Z</time></trkpt><trkpt lat="44.92744214863416" lon="9.312190480398305"><ele>571.6666666666667</ele><time>2026-04-23T11:47:09.999Z</time></trkpt><trkpt lat="44.92750429691769" lon="9.312136948873285"><ele>570.5</ele><time>2026-04-23T11:47:11.999Z</time></trkpt><trkpt lat="44.92756666768028" lon="9.31210956701359"><ele>569.3333333333334</ele><time>2026-04-23T11:47:13.999Z</time></trkpt><trkpt lat="44.92761667483907" lon="9.311988188710076"><ele>568.1666666666666</ele><time>2026-04-23T11:47:15.999Z</time></trkpt><trkpt lat="44.92763915885656" lon="9.311876827169193"><ele>567.0</ele><time>2026-04-23T11:47:17.999Z</time></trkpt><trkpt lat="44.927655509056514" lon="9.311767086001653"><ele>571.3333333333334</ele><time>2026-04-23T11:47:19.999Z</time></trkpt><trkpt lat="44.92770153497321" lon="9.311685747159219"><ele>575.6666666666666</ele><time>2026-04-23T11:47:21.999Z</time></trkpt><trkpt lat="44.9277651276857" lon="9.311648541977483"><ele>580.0</ele><time>2026-04-23T11:47:23.999Z</time></trkpt><trkpt lat="44.927831085708135" lon="9.31159166359878"><ele>584.3333333333333</ele><time>2026-04-23T11:47:26.999Z</time></trkpt><trkpt lat="44.92789735101235" lon="9.311522098070826"><ele>588.6666666666666</ele><time>2026-04-23T11:47:28.999Z</time></trkpt><trkpt lat="44.927988366818056" lon="9.311509057750236"><ele>593.0</ele><time>2026-04-23T11:47:30.999Z</time></trkpt><trkpt lat="44.928041925251506" lon="9.311598940658364"><ele>593.0</ele><time>2026-04-23T11:47:32.999Z</time></trkpt><trkpt lat="44.92809886207738" lon="9.311706009008725"><ele>593.0</ele><time>2026-04-23T11:47:34.999Z</time></trkpt><trkpt lat="44.92814640797889" lon="9.311813838090856"><ele>593.0</ele><time>2026-04-23T11:47:36.999Z</time></trkpt><trkpt lat="44.92820684511186" lon="9.311907549990233"><ele>593.0</ele><time>2026-04-23T11:47:38.999Z</time></trkpt><trkpt lat="44.92827876078625" lon="9.3119923898645"><ele>593.0</ele><time>2026-04-23T11:47:40.999Z</time></trkpt><trkpt lat="44.92835042939978" lon="9.312066757290633"><ele>594.3333333333333</ele><time>2026-04-23T11:47:42.999Z</time></trkpt><trkpt lat="44.928413774949945" lon="9.312118727676598"><ele>595.6666666666666</ele><time>2026-04-23T11:47:45.999Z</time></trkpt><trkpt lat="44.92840539006897" lon="9.312225003125981"><ele>597.0</ele><time>2026-04-23T11:48:10.999Z</time></trkpt><trkpt lat="44.92838595442442" lon="9.312310928592472"><ele>598.3333333333334</ele><time>2026-04-23T11:48:11.999Z</time></trkpt><trkpt lat="44.92837109300647" lon="9.312444602720072"><ele>599.6666666666667</ele><time>2026-04-23T11:48:13.999Z</time></trkpt><trkpt lat="44.928430773215474" lon="9.312572751814278"><ele>601.0</ele><time>2026-04-23T11:48:15.999Z</time></trkpt><trkpt lat="44.92847785496564" lon="9.312704605255627"><ele>602.6</ele><time>2026-04-23T11:48:17.999Z</time></trkpt><trkpt lat="44.92850619777497" lon="9.312872798304044"><ele>604.2</ele><time>2026-04-23T11:48:19.999Z</time></trkpt><trkpt lat="44.92852033835384" lon="9.312974955528547"><ele>605.8</ele><time>2026-04-23T11:48:20.999Z</time></trkpt><trkpt lat="44.92854820367097" lon="9.313114511196716"><ele>607.4</ele><time>2026-04-23T11:48:22.999Z</time></trkpt><trkpt lat="44.92857904604033" lon="9.313219291255344"><ele>609.0</ele><time>2026-04-23T11:48:24.999Z</time></trkpt><trkpt lat="44.928600265011944" lon="9.313317160390342"><ele>609.0</ele><time>2026-04-23T11:48:26.999Z</time></trkpt><trkpt lat="44.92863308177298" lon="9.313409997131206"><ele>609.0</ele><time>2026-04-23T11:48:28.999Z</time></trkpt><trkpt lat="44.92864280499769" lon="9.313514700892899"><ele>609.0</ele><time>2026-04-23T11:48:30.999Z</time></trkpt><trkpt lat="44.928666995686044" lon="9.313627116448611"><ele>609.0</ele><time>2026-04-23T11:48:32.999Z</time></trkpt><trkpt lat="44.92868234721077" lon="9.313744902125885"><ele>609.0</ele><time>2026-04-23T11:48:34.999Z</time></trkpt><trkpt lat="44.92869813525376" lon="9.31388375037857"><ele>609.0</ele><time>2026-04-23T11:48:36.999Z</time></trkpt><trkpt lat="44.92871372239647" lon="9.314053652711634"><ele>607.5714285714286</ele><time>2026-04-23T11:48:38.999Z</time></trkpt><trkpt lat="44.92873480691719" lon="9.314174194582916"><ele>606.1428571428571</ele><time>2026-04-23T11:48:40.999Z</time></trkpt><trkpt lat="44.928759513451574" lon="9.314269148136923"><ele>604.7142857142858</ele><time>2026-04-23T11:48:42.999Z</time></trkpt><trkpt lat="44.928790357504674" lon="9.314348217963715"><ele>603.2857142857142</ele><time>2026-04-23T11:48:57.999Z</time></trkpt><trkpt lat="44.928837421679475" lon="9.314425030709376"><ele>601.8571428571429</ele><time>2026-04-23T11:49:08.999Z</time></trkpt><trkpt lat="44.92888022114411" lon="9.314490615463855"><ele>600.4285714285714</ele><time>2026-04-23T11:49:16.999Z</time></trkpt><trkpt lat="44.92892909476662" lon="9.314586127649255"><ele>599.0</ele><time>2026-04-23T11:49:24.999Z</time></trkpt><trkpt lat="44.92897797534317" lon="9.314678386295558"><ele>599.6666666666666</ele><time>2026-04-23T11:49:29.999Z</time></trkpt><trkpt lat="44.92902566930655" lon="9.31476044073216"><ele>600.3333333333333</ele><time>2026-04-23T11:49:34.999Z</time></trkpt><trkpt lat="44.92908487690706" lon="9.314852986357769"><ele>601.0</ele><time>2026-04-23T11:49:37.999Z</time></trkpt><trkpt lat="44.929157274476765" lon="9.314949048236635"><ele>601.6666666666666</ele><time>2026-04-23T11:49:39.999Z</time></trkpt><trkpt lat="44.929206095068984" lon="9.315032231227498"><ele>602.3333333333334</ele><time>2026-04-23T11:49:41.999Z</time></trkpt><trkpt lat="44.92925968439678" lon="9.315091954753838"><ele>603.0</ele><time>2026-04-23T11:49:43.999Z</time></trkpt><trkpt lat="44.929288109096376" lon="9.31518948927363"><ele>603.0</ele><time>2026-04-23T11:49:46.999Z</time></trkpt><trkpt lat="44.92932174929033" lon="9.315280213023124"><ele>603.0</ele><time>2026-04-23T11:49:48.999Z</time></trkpt><trkpt lat="44.9293674759334" lon="9.31541698162221"><ele>603.0</ele><time>2026-04-23T11:49:50.999Z</time></trkpt><trkpt lat="44.929393984037404" lon="9.315534437300757"><ele>603.0</ele><time>2026-04-23T11:49:52.999Z</time></trkpt><trkpt lat="44.92942734144824" lon="9.315624838893966"><ele>603.0</ele><time>2026-04-23T11:49:54.999Z</time></trkpt><trkpt lat="44.9294570511098" lon="9.315743599273617"><ele>603.0</ele><time>2026-04-23T11:49:56.999Z</time></trkpt><trkpt lat="44.929457790420415" lon="9.315880361867572"><ele>602.1666666666666</ele><time>2026-04-23T11:49:59.999Z</time></trkpt><trkpt lat="44.92944454962006" lon="9.3159806560571"><ele>601.3333333333334</ele><time>2026-04-23T11:50:01.999Z</time></trkpt><trkpt lat="44.92944117278281" lon="9.316084434468072"><ele>600.5</ele><time>2026-04-23T11:50:03.999Z</time></trkpt><trkpt lat="44.92948120240051" lon="9.316199023174907"><ele>599.6666666666667</ele><time>2026-04-23T11:50:05.999Z</time></trkpt><trkpt lat="44.929528052899805" lon="9.316313727253158"><ele>598.8333333333334</ele><time>2026-04-23T11:50:07.999Z</time></trkpt><trkpt lat="44.92954157977238" lon="9.316435381192045"><ele>598.0</ele><time>2026-04-23T11:50:09.999Z</time></trkpt><trkpt lat="44.92955365973051" lon="9.31657603446642"><ele>596.6666666666667</ele><time>2026-04-23T11:50:11.999Z</time></trkpt><trkpt lat="44.929572983562586" lon="9.316685471723131"><ele>595.3333333333334</ele><time>2026-04-23T11:50:14Z</time></trkpt><trkpt lat="44.9295844885286" lon="9.316814414372557"><ele>594.0</ele><time>2026-04-23T11:50:16Z</time></trkpt><trkpt lat="44.92962052419711" lon="9.316925006733383"><ele>592.6666666666666</ele><time>2026-04-23T11:50:18Z</time></trkpt><trkpt lat="44.929659733734084" lon="9.31701798458637"><ele>591.3333333333333</ele><time>2026-04-23T11:50:20Z</time></trkpt><trkpt lat="44.929732943548686" lon="9.317109354708064"><ele>590.0</ele><time>2026-04-23T11:50:23Z</time></trkpt><trkpt lat="44.92979240064606" lon="9.317159582102127"><ele>590.0</ele><time>2026-04-23T11:50:25Z</time></trkpt><trkpt lat="44.9298684733095" lon="9.317198731489286"><ele>590.0</ele><time>2026-04-23T11:50:27Z</time></trkpt><trkpt lat="44.9299310216324" lon="9.317260371809022"><ele>590.0</ele><time>2026-04-23T11:50:28.999Z</time></trkpt><trkpt lat="44.93001226769864" lon="9.31733696643695"><ele>590.0</ele><time>2026-04-23T11:50:30.999Z</time></trkpt><trkpt lat="44.93008613237692" lon="9.317423709624903"><ele>590.0</ele><time>2026-04-23T11:50:32.999Z</time></trkpt><trkpt lat="44.93016790760188" lon="9.317498070835603"><ele>590.0</ele><time>2026-04-23T11:50:34.999Z</time></trkpt><trkpt lat="44.93024286548298" lon="9.317585788925008"><ele>588.8</ele><time>2026-04-23T11:50:36.999Z</time></trkpt><trkpt lat="44.930336082172204" lon="9.317673086525483"><ele>587.6</ele><time>2026-04-23T11:50:38.999Z</time></trkpt><trkpt lat="44.93043067322383" lon="9.317773110779722"><ele>586.4</ele><time>2026-04-23T11:50:40.999Z</time></trkpt><trkpt lat="44.930527368961734" lon="9.317860215717834"><ele>585.2</ele><time>2026-04-23T11:50:42.999Z</time></trkpt><trkpt lat="44.93060954869272" lon="9.317922044918111"><ele>584.0</ele><time>2026-04-23T11:50:44.999Z</time></trkpt><trkpt lat="44.930684620689235" lon="9.317975012199097"><ele>584.0</ele><time>2026-04-23T11:50:46.999Z</time></trkpt><trkpt lat="44.93076265461461" lon="9.318023020484052"><ele>584.0</ele><time>2026-04-23T11:50:48.999Z</time></trkpt><trkpt lat="44.9308470743555" lon="9.31806790436469"><ele>584.0</ele><time>2026-04-23T11:50:50.999Z</time></trkpt><trkpt lat="44.93094252729804" lon="9.318098622277061"><ele>584.0</ele><time>2026-04-23T11:50:52.999Z</time></trkpt><trkpt lat="44.93100815734151" lon="9.318119505651412"><ele>584.0</ele><time>2026-04-23T11:50:53.999Z</time></trkpt><trkpt lat="44.93107155323429" lon="9.318142060716816"><ele>584.0</ele><time>2026-04-23T11:50:54.999Z</time></trkpt><trkpt lat="44.93113255437003" lon="9.31817077734917"><ele>582.8</ele><time>2026-04-23T11:50:55.999Z</time></trkpt><trkpt lat="44.931234953945115" lon="9.318242368837327"><ele>581.5999999999999</ele><time>2026-04-23T11:50:57.999Z</time></trkpt><trkpt lat="44.931325619298796" lon="9.31831846369209"><ele>580.4</ele><time>2026-04-23T11:50:59.999Z</time></trkpt><trkpt lat="44.93142725456994" lon="9.318396678302935"><ele>579.1999999999999</ele><time>2026-04-23T11:51:01.999Z</time></trkpt><trkpt lat="44.93149035503203" lon="9.31847091677503"><ele>578.0</ele><time>2026-04-23T11:51:03.999Z</time></trkpt><trkpt lat="44.93156034979499" lon="9.3185102065248"><ele>578.0</ele><time>2026-04-23T11:51:05.999Z</time></trkpt><trkpt lat="44.931639400873635" lon="9.318554768215314"><ele>578.0</ele><time>2026-04-23T11:51:08.999Z</time></trkpt><trkpt lat="44.931700072295016" lon="9.318599185183015"><ele>578.0</ele><time>2026-04-23T11:51:11.999Z</time></trkpt><trkpt lat="44.93172063276886" lon="9.318720827634568"><ele>578.0</ele><time>2026-04-23T11:51:14.999Z</time></trkpt><trkpt lat="44.9316940343015" lon="9.318817781189672"><ele>578.0</ele><time>2026-04-23T11:51:16.999Z</time></trkpt><trkpt lat="44.93164254591907" lon="9.31890600604666"><ele>578.0</ele><time>2026-04-23T11:51:19.999Z</time></trkpt><trkpt lat="44.931706801489824" lon="9.318892609379517"><ele>578.0</ele><time>2026-04-23T11:51:25.999Z</time></trkpt><trkpt lat="44.931714354186376" lon="9.318779536859157"><ele>578.0</ele><time>2026-04-23T11:51:27.999Z</time></trkpt><trkpt lat="44.93170648807364" lon="9.318658371343952"><ele>578.0</ele><time>2026-04-23T11:51:29.999Z</time></trkpt><trkpt lat="44.93167902368788" lon="9.318560686142037"><ele>578.0</ele><time>2026-04-23T11:51:31.999Z</time></trkpt><trkpt lat="44.93158593694794" lon="9.318514031885853"><ele>578.0</ele><time>2026-04-23T11:51:33.999Z</time></trkpt><trkpt lat="44.93148086745049" lon="9.318448277902085"><ele>578.0</ele><time>2026-04-23T11:51:35.999Z</time></trkpt><trkpt lat="44.93142912361054" lon="9.318395206079412"><ele>578.0</ele><time>2026-04-23T11:51:36.999Z</time></trkpt><trkpt lat="44.93137340637391" lon="9.318343681904553"><ele>578.0</ele><time>2026-04-23T11:51:37.999Z</time></trkpt><trkpt lat="44.93127020940489" lon="9.318264236981454"><ele>578.0</ele><time>2026-04-23T11:51:40Z</time></trkpt><trkpt lat="44.931156773081725" lon="9.318196875974436"><ele>578.0</ele><time>2026-04-23T11:51:42Z</time></trkpt><trkpt lat="44.93108340921002" lon="9.318168946608335"><ele>578.0</ele><time>2026-04-23T11:51:43Z</time></trkpt><trkpt lat="44.93100301327822" lon="9.3181270801823"><ele>578.0</ele><time>2026-04-23T11:51:44Z</time></trkpt><trkpt lat="44.93091412626241" lon="9.31808852485382"><ele>578.0</ele><time>2026-04-23T11:51:45Z</time></trkpt><trkpt lat="44.93082812504516" lon="9.318057322288366"><ele>578.0</ele><time>2026-04-23T11:51:46Z</time></trkpt><trkpt lat="44.93075829357671" lon="9.318022177779055"><ele>578.0</ele><time>2026-04-23T11:51:47Z</time></trkpt><trkpt lat="44.93067698755906" lon="9.317971102027958"><ele>578.0</ele><time>2026-04-23T11:51:48Z</time></trkpt><trkpt lat="44.93059419995208" lon="9.317910732146546"><ele>578.0</ele><time>2026-04-23T11:51:49Z</time></trkpt><trkpt lat="44.93052251077574" lon="9.31785233072514"><ele>579.0</ele><time>2026-04-23T11:51:50Z</time></trkpt><trkpt lat="44.93045803158778" lon="9.317795467050122"><ele>580.0</ele><time>2026-04-23T11:51:51Z</time></trkpt><trkpt lat="44.93038653974405" lon="9.317733819348042"><ele>581.0</ele><time>2026-04-23T11:51:52Z</time></trkpt><trkpt lat="44.93032776252253" lon="9.31767668331568"><ele>582.0</ele><time>2026-04-23T11:51:53Z</time></trkpt><trkpt lat="44.930274502302694" lon="9.317614024350165"><ele>583.0</ele><time>2026-04-23T11:51:54Z</time></trkpt><trkpt lat="44.93021242360133" lon="9.317548424906763"><ele>584.0</ele><time>2026-04-23T11:51:55Z</time></trkpt><trkpt lat="44.930152937653475" lon="9.31748639127188"><ele>584.0</ele><time>2026-04-23T11:51:56Z</time></trkpt><trkpt lat="44.93010303937037" lon="9.317427996220294"><ele>584.0</ele><time>2026-04-23T11:51:57Z</time></trkpt><trkpt lat="44.930041863769205" lon="9.317366248875777"><ele>584.0</ele><time>2026-04-23T11:51:58Z</time></trkpt><trkpt lat="44.92998008305978" lon="9.317306861253305"><ele>584.0</ele><time>2026-04-23T11:51:59Z</time></trkpt><trkpt lat="44.92989117817041" lon="9.317235355390382"><ele>584.0</ele><time>2026-04-23T11:52:01Z</time></trkpt><trkpt lat="44.92983284592904" lon="9.317188863188184"><ele>584.0</ele><time>2026-04-23T11:52:03Z</time></trkpt><trkpt lat="44.92975180933881" lon="9.317137763713442"><ele>585.2</ele><time>2026-04-23T11:52:05Z</time></trkpt><trkpt lat="44.92965614878813" lon="9.317031325452245"><ele>586.4</ele><time>2026-04-23T11:52:07Z</time></trkpt><trkpt lat="44.92960001116587" lon="9.316865074526959"><ele>587.6</ele><time>2026-04-23T11:52:09Z</time></trkpt><trkpt lat="44.92957708117401" lon="9.316771067196468"><ele>588.8</ele><time>2026-04-23T11:52:10Z</time></trkpt><trkpt lat="44.92956003068913" lon="9.316678782129573"><ele>590.0</ele><time>2026-04-23T11:52:11Z</time></trkpt><trkpt lat="44.92953693898302" lon="9.316493661944975"><ele>591.6</ele><time>2026-04-23T11:52:13Z</time></trkpt><trkpt lat="44.92952999919061" lon="9.316383783502953"><ele>593.2</ele><time>2026-04-23T11:52:14Z</time></trkpt><trkpt lat="44.929509499956026" lon="9.316242943926019"><ele>594.8</ele><time>2026-04-23T11:52:16Z</time></trkpt><trkpt lat="44.929468079759914" lon="9.31613839868141"><ele>596.4</ele><time>2026-04-23T11:52:18Z</time></trkpt><trkpt lat="44.92943944783624" lon="9.316021546988566"><ele>598.0</ele><time>2026-04-23T11:52:20Z</time></trkpt><trkpt lat="44.92945180268245" lon="9.315873079242971"><ele>598.0</ele><time>2026-04-23T11:52:22Z</time></trkpt><trkpt lat="44.929446700772026" lon="9.315761725715962"><ele>598.0</ele><time>2026-04-23T11:52:23Z</time></trkpt><trkpt lat="44.92941743685374" lon="9.315675301157826"><ele>598.0</ele><time>2026-04-23T11:52:24Z</time></trkpt><trkpt lat="44.929377855829124" lon="9.315531413231103"><ele>598.0</ele><time>2026-04-23T11:52:26Z</time></trkpt><trkpt lat="44.92932711778357" lon="9.315379581395334"><ele>598.0</ele><time>2026-04-23T11:52:28Z</time></trkpt><trkpt lat="44.92930158480855" lon="9.315297776725075"><ele>598.0</ele><time>2026-04-23T11:52:29Z</time></trkpt><trkpt lat="44.92927718354743" lon="9.3151766873202"><ele>598.1666666666667</ele><time>2026-04-23T11:52:31Z</time></trkpt><trkpt lat="44.92924169194323" lon="9.315093114038804"><ele>598.3333333333334</ele><time>2026-04-23T11:52:33Z</time></trkpt><trkpt lat="44.929181422431256" lon="9.314972779093566"><ele>598.5</ele><time>2026-04-23T11:52:35Z</time></trkpt><trkpt lat="44.9291313435242" lon="9.314912227587435"><ele>598.6666666666666</ele><time>2026-04-23T11:52:36Z</time></trkpt><trkpt lat="44.92905293381718" lon="9.314818036904315"><ele>598.8333333333333</ele><time>2026-04-23T11:52:38Z</time></trkpt><trkpt lat="44.92901083496704" lon="9.314729605734987"><ele>599.0</ele><time>2026-04-23T11:52:44Z</time></trkpt><trkpt lat="44.928946805254824" lon="9.314646865008292"><ele>599.0</ele><time>2026-04-23T11:52:46Z</time></trkpt><trkpt lat="44.928895420838565" lon="9.31455947879241"><ele>599.0</ele><time>2026-04-23T11:53:04Z</time></trkpt><trkpt lat="44.92884593454765" lon="9.314469643441933"><ele>599.0</ele><time>2026-04-23T11:53:59Z</time></trkpt><trkpt lat="44.92879569234299" lon="9.31440384708755"><ele>599.0</ele><time>2026-04-23T11:54:03Z</time></trkpt><trkpt lat="44.928761818787905" lon="9.314325995632014"><ele>599.0</ele><time>2026-04-23T11:54:07Z</time></trkpt><trkpt lat="44.928740840293884" lon="9.314231868125123"><ele>599.0</ele><time>2026-04-23T11:54:10Z</time></trkpt><trkpt lat="44.928726300644676" lon="9.314134411285565"><ele>599.0</ele><time>2026-04-23T11:54:12Z</time></trkpt><trkpt lat="44.92870646983361" lon="9.314022670546299"><ele>599.0</ele><time>2026-04-23T11:54:14Z</time></trkpt><trkpt lat="44.928699018808906" lon="9.313909461127496"><ele>599.0</ele><time>2026-04-23T11:54:17Z</time></trkpt><trkpt lat="44.92868878811623" lon="9.313800472379638"><ele>599.0</ele><time>2026-04-23T11:54:20Z</time></trkpt><trkpt lat="44.928663588536715" lon="9.313675684289457"><ele>599.0</ele><time>2026-04-23T11:54:31Z</time></trkpt><trkpt lat="44.928653203049834" lon="9.313556743413445"><ele>599.0</ele><time>2026-04-23T11:54:34Z</time></trkpt><trkpt lat="44.92863150008047" lon="9.313455567873145"><ele>599.0</ele><time>2026-04-23T11:54:37Z</time></trkpt><trkpt lat="44.92862182615718" lon="9.313367518721755"><ele>600.6666666666666</ele><time>2026-04-23T11:54:39Z</time></trkpt><trkpt lat="44.92859366069141" lon="9.313284915662118"><ele>602.3333333333333</ele><time>2026-04-23T11:54:41Z</time></trkpt><trkpt lat="44.92856690579939" lon="9.313183492605702"><ele>604.0</ele><time>2026-04-23T11:54:43Z</time></trkpt><trkpt lat="44.928549060341574" lon="9.313038046794615"><ele>605.6666666666666</ele><time>2026-04-23T11:54:46Z</time></trkpt><trkpt lat="44.92852964815016" lon="9.312952993781074"><ele>607.3333333333334</ele><time>2026-04-23T11:54:48Z</time></trkpt><trkpt lat="44.92851706516293" lon="9.312840945791374"><ele>609.0</ele><time>2026-04-23T11:54:51Z</time></trkpt><trkpt lat="44.92849916277291" lon="9.312747264974947"><ele>609.5714285714286</ele><time>2026-04-23T11:54:54Z</time></trkpt><trkpt lat="44.92847431978535" lon="9.312661180865232"><ele>610.1428571428571</ele><time>2026-04-23T11:54:57Z</time></trkpt><trkpt lat="44.92844195651177" lon="9.312578224392112"><ele>610.7142857142858</ele><time>2026-04-23T11:54:59Z</time></trkpt><trkpt lat="44.92839901616836" lon="9.312508022330011"><ele>611.2857142857142</ele><time>2026-04-23T11:55:01Z</time></trkpt><trkpt lat="44.92836681301952" lon="9.312392157244192"><ele>611.8571428571429</ele><time>2026-04-23T11:55:04Z</time></trkpt><trkpt lat="44.92837802205844" lon="9.3122954261222"><ele>612.4285714285714</ele><time>2026-04-23T11:55:06Z</time></trkpt><trkpt lat="44.928409048986765" lon="9.312203252641826"><ele>613.0</ele><time>2026-04-23T11:55:09Z</time></trkpt><trkpt lat="44.92841323709013" lon="9.312110438255353"><ele>613.0</ele><time>2026-04-23T11:55:12Z</time></trkpt><trkpt lat="44.928425613334625" lon="9.31201986740252"><ele>613.0</ele><time>2026-04-23T11:55:15Z</time></trkpt><trkpt lat="44.92844935666427" lon="9.311910866952573"><ele>613.0</ele><time>2026-04-23T11:55:19Z</time></trkpt><trkpt lat="44.92848943064851" lon="9.311795095600628"><ele>613.0</ele><time>2026-04-23T11:55:22Z</time></trkpt><trkpt lat="44.9285410034918" lon="9.31169016654379"><ele>613.0</ele><time>2026-04-23T11:55:25Z</time></trkpt><trkpt lat="44.92856399404984" lon="9.311589602778959"><ele>613.0</ele><time>2026-04-23T11:55:28Z</time></trkpt><trkpt lat="44.928568413935395" lon="9.31148671874375"><ele>613.0</ele><time>2026-04-23T11:55:31Z</time></trkpt><trkpt lat="44.92856886586287" lon="9.311379890676516"><ele>613.0</ele><time>2026-04-23T11:55:34Z</time></trkpt><trkpt lat="44.928542445802144" lon="9.31129905879165"><ele>613.0</ele><time>2026-04-23T11:55:37Z</time></trkpt><trkpt lat="44.928489976429994" lon="9.311349592676395"><ele>613.0</ele><time>2026-04-23T11:55:46Z</time></trkpt><trkpt lat="44.92856539618157" lon="9.311363470630987"><ele>613.0</ele><time>2026-04-23T11:55:50Z</time></trkpt><trkpt lat="44.92858230291636" lon="9.311475947696218"><ele>613.0</ele><time>2026-04-23T11:55:57Z</time></trkpt><trkpt lat="44.928567135731065" lon="9.311562415030933"><ele>613.0</ele><time>2026-04-23T11:55:59Z</time></trkpt><trkpt lat="44.928544467698174" lon="9.311651802362965"><ele>613.0</ele><time>2026-04-23T11:56:01Z</time></trkpt><trkpt lat="44.92848129260448" lon="9.311778375769567"><ele>613.0</ele><time>2026-04-23T11:56:03Z</time></trkpt><trkpt lat="44.928450638420074" lon="9.311883683372185"><ele>613.0</ele><time>2026-04-23T11:56:05Z</time></trkpt><trkpt lat="44.92841847634165" lon="9.312005345386995"><ele>613.0</ele><time>2026-04-23T11:56:07Z</time></trkpt><trkpt lat="44.928292563124245" lon="9.312031583723098"><ele>613.0</ele><time>2026-04-23T11:56:52Z</time></trkpt><trkpt lat="44.928216926640445" lon="9.311957963510265"><ele>609.6666666666667</ele><time>2026-04-23T11:56:54Z</time></trkpt><trkpt lat="44.92814660563071" lon="9.31184976712913"><ele>606.3333333333334</ele><time>2026-04-23T11:56:56Z</time></trkpt><trkpt lat="44.92809395762641" lon="9.311735150008696"><ele>603.0</ele><time>2026-04-23T11:56:58Z</time></trkpt><trkpt lat="44.92804814399959" lon="9.311639355727939"><ele>599.6666666666666</ele><time>2026-04-23T11:57:00Z</time></trkpt><trkpt lat="44.92800655365222" lon="9.311546023455072"><ele>596.3333333333333</ele><time>2026-04-23T11:57:03Z</time></trkpt><trkpt lat="44.927952662110755" lon="9.311499532884202"><ele>593.0</ele><time>2026-04-23T11:57:05Z</time></trkpt><trkpt lat="44.92789226799877" lon="9.311532729633276"><ele>593.0</ele><time>2026-04-23T11:57:08Z</time></trkpt><trkpt lat="44.92781123114001" lon="9.311597730721765"><ele>593.0</ele><time>2026-04-23T11:57:16Z</time></trkpt><trkpt lat="44.92775394027689" lon="9.311650367323208"><ele>593.0</ele><time>2026-04-23T11:57:18Z</time></trkpt><trkpt lat="44.92768306327727" lon="9.311709377791889"><ele>593.0</ele><time>2026-04-23T11:57:21Z</time></trkpt><trkpt lat="44.927645909923015" lon="9.311825118471065"><ele>593.0</ele><time>2026-04-23T11:57:24Z</time></trkpt><trkpt lat="44.927622423972984" lon="9.311910835912938"><ele>593.0</ele><time>2026-04-23T11:57:26Z</time></trkpt><trkpt lat="44.92759287897212" lon="9.312001398546354"><ele>589.8333333333333</ele><time>2026-04-23T11:57:28Z</time></trkpt><trkpt lat="44.92755010871724" lon="9.31210671919526"><ele>586.6666666666666</ele><time>2026-04-23T11:57:30Z</time></trkpt><trkpt lat="44.9274746753056" lon="9.312144014869888"><ele>583.5</ele><time>2026-04-23T11:57:33Z</time></trkpt><trkpt lat="44.92741247404036" lon="9.312207368099791"><ele>580.3333333333334</ele><time>2026-04-23T11:57:35Z</time></trkpt><trkpt lat="44.92734097245337" lon="9.312281932839007"><ele>577.1666666666667</ele><time>2026-04-23T11:57:37Z</time></trkpt><trkpt lat="44.92726469598617" lon="9.312332545282395"><ele>574.0</ele><time>2026-04-23T11:57:39Z</time></trkpt><trkpt lat="44.92717180239871" lon="9.312371843791341"><ele>574.0</ele><time>2026-04-23T11:57:41Z</time></trkpt><trkpt lat="44.92707521930776" lon="9.312399371638842"><ele>574.0</ele><time>2026-04-23T11:57:43Z</time></trkpt><trkpt lat="44.926969673775005" lon="9.312439263419877"><ele>574.0</ele><time>2026-04-23T11:57:45Z</time></trkpt><trkpt lat="44.92690039845339" lon="9.312492325264072"><ele>574.0</ele><time>2026-04-23T11:57:47Z</time></trkpt><trkpt lat="44.926840301664924" lon="9.312562583860556"><ele>574.0</ele><time>2026-04-23T11:57:50Z</time></trkpt><trkpt lat="44.92675611548994" lon="9.312655626062165"><ele>572.0</ele><time>2026-04-23T11:58:01Z</time></trkpt><trkpt lat="44.926686853973294" lon="9.312716764465238"><ele>570.0</ele><time>2026-04-23T11:58:03Z</time></trkpt><trkpt lat="44.92663142001178" lon="9.312644123602857"><ele>568.0</ele><time>2026-04-23T11:58:09Z</time></trkpt><trkpt lat="44.926584266953334" lon="9.312526510633687"><ele>566.0</ele><time>2026-04-23T11:58:12Z</time></trkpt><trkpt lat="44.92649782247967" lon="9.312466367501512"><ele>564.0</ele><time>2026-04-23T11:58:14Z</time></trkpt><trkpt lat="44.92643329875518" lon="9.3124915345577"><ele>562.0</ele><time>2026-04-23T11:58:15Z</time></trkpt><trkpt lat="44.92633784653679" lon="9.312529596797114"><ele>562.0</ele><time>2026-04-23T11:58:16Z</time></trkpt><trkpt lat="44.92624238450898" lon="9.312559591692558"><ele>562.0</ele><time>2026-04-23T11:58:17Z</time></trkpt><trkpt lat="44.926141512174254" lon="9.312611545422348"><ele>562.0</ele><time>2026-04-23T11:58:19Z</time></trkpt><trkpt lat="44.92609319472543" lon="9.312671790782314"><ele>562.0</ele><time>2026-04-23T11:58:20Z</time></trkpt><trkpt lat="44.92603694912836" lon="9.312748346210435"><ele>562.0</ele><time>2026-04-23T11:58:21Z</time></trkpt><trkpt lat="44.925960457561395" lon="9.312818070827477"><ele>562.0</ele><time>2026-04-23T11:58:22Z</time></trkpt><trkpt lat="44.92590302404919" lon="9.312860264911022"><ele>562.1666666666667</ele><time>2026-04-23T11:58:23Z</time></trkpt><trkpt lat="44.92582043028208" lon="9.312950029921728"><ele>562.3333333333334</ele><time>2026-04-23T11:58:26Z</time></trkpt><trkpt lat="44.92580077420812" lon="9.313056422993869"><ele>562.5</ele><time>2026-04-23T11:58:28Z</time></trkpt><trkpt lat="44.92577923018216" lon="9.313170763858114"><ele>562.6666666666666</ele><time>2026-04-23T11:58:30Z</time></trkpt><trkpt lat="44.925739955132485" lon="9.313251311473074"><ele>562.8333333333333</ele><time>2026-04-23T11:58:39Z</time></trkpt><trkpt lat="44.92571006456023" lon="9.313348230003234"><ele>563.0</ele><time>2026-04-23T11:58:42Z</time></trkpt><trkpt lat="44.9256242743902" lon="9.313364388287157"><ele>563.0</ele><time>2026-04-23T11:58:45Z</time></trkpt><trkpt lat="44.92568614218773" lon="9.313347603630186"><ele>563.0</ele><time>2026-04-23T11:58:53Z</time></trkpt><trkpt lat="44.925744980528094" lon="9.313304239186067"><ele>563.0</ele><time>2026-04-23T12:02:50Z</time></trkpt><trkpt lat="44.92577941342641" lon="9.313227029591971"><ele>563.0</ele><time>2026-04-23T12:05:09Z</time></trkpt><trkpt lat="44.92532141749325" lon="9.313063889573455"><ele>563.0</ele><time>2026-04-23T12:08:49Z</time></trkpt><trkpt lat="44.92524607761102" lon="9.313028346772686"><ele>563.0</ele><time>2026-04-23T12:08:51Z</time></trkpt><trkpt lat="44.92516182852111" lon="9.313009434977424"><ele>563.0</ele><time>2026-04-23T12:08:53Z</time></trkpt><trkpt lat="44.925081939466224" lon="9.312969954066133"><ele>563.0</ele><time>2026-04-23T12:08:56Z</time></trkpt><trkpt lat="44.92501250016876" lon="9.312970057966721"><ele>563.0</ele><time>2026-04-23T12:09:00Z</time></trkpt><trkpt lat="44.92492082719729" lon="9.313026794999157"><ele>563.0</ele><time>2026-04-23T12:09:03Z</time></trkpt><trkpt lat="44.92478127270678" lon="9.313148742497193"><ele>565.5</ele><time>2026-04-23T12:09:08Z</time></trkpt><trkpt lat="44.924759190603964" lon="9.313284940790112"><ele>568.0</ele><time>2026-04-23T12:09:11Z</time></trkpt><trkpt lat="44.92476316018894" lon="9.313376350666546"><ele>570.5</ele><time>2026-04-23T12:09:13Z</time></trkpt><trkpt lat="44.924794516390364" lon="9.313486511126081"><ele>573.0</ele><time>2026-04-23T12:09:15Z</time></trkpt><trkpt lat="44.92480198336424" lon="9.313601021238213"><ele>575.5</ele><time>2026-04-23T12:09:17Z</time></trkpt><trkpt lat="44.924829303065366" lon="9.313713433372055"><ele>578.0</ele><time>2026-04-23T12:09:19Z</time></trkpt><trkpt lat="44.924861303233925" lon="9.31382141093846"><ele>577.1999999999999</ele><time>2026-04-23T12:09:21Z</time></trkpt><trkpt lat="44.9248781584231" lon="9.31390785332136"><ele>576.4</ele><time>2026-04-23T12:09:23Z</time></trkpt><trkpt lat="44.924885022539904" lon="9.314004096082224"><ele>575.5999999999999</ele><time>2026-04-23T12:09:27Z</time></trkpt><trkpt lat="44.92470055954947" lon="9.31401118872028"><ele>574.8</ele><time>2026-04-23T12:09:31.999Z</time></trkpt><trkpt lat="44.924598598390666" lon="9.313988469769956"><ele>574.0</ele><time>2026-04-23T12:09:33.999Z</time></trkpt><trkpt lat="44.924526006865364" lon="9.313910926603063"><ele>574.6666666666667</ele><time>2026-04-23T12:09:35.999Z</time></trkpt><trkpt lat="44.92446366078516" lon="9.31383266158123"><ele>575.3333333333334</ele><time>2026-04-23T12:09:37.999Z</time></trkpt><trkpt lat="44.924409500811045" lon="9.313759497978873"><ele>576.0</ele><time>2026-04-23T12:09:39.999Z</time></trkpt><trkpt lat="44.924369494087635" lon="9.31367067145311"><ele>576.6666666666666</ele><time>2026-04-23T12:09:41.999Z</time></trkpt><trkpt lat="44.92432608517682" lon="9.313557252034919"><ele>577.3333333333333</ele><time>2026-04-23T12:09:43.999Z</time></trkpt><trkpt lat="44.92429858511609" lon="9.313448227300455"><ele>578.0</ele><time>2026-04-23T12:09:45.999Z</time></trkpt><trkpt lat="44.92428854564071" lon="9.313354243570227"><ele>578.0</ele><time>2026-04-23T12:09:47.999Z</time></trkpt><trkpt lat="44.924239892619624" lon="9.313150955889295"><ele>578.0</ele><time>2026-04-23T12:09:51.999Z</time></trkpt><trkpt lat="44.92420332172444" lon="9.313060485694539"><ele>578.0</ele><time>2026-04-23T12:09:53.999Z</time></trkpt><trkpt lat="44.92416053377575" lon="9.312959991256744"><ele>578.0</ele><time>2026-04-23T12:09:55.999Z</time></trkpt><trkpt lat="44.924108026113664" lon="9.312867875139984"><ele>578.0</ele><time>2026-04-23T12:09:57.999Z</time></trkpt><trkpt lat="44.92403230647395" lon="9.312791006354772"><ele>575.8333333333333</ele><time>2026-04-23T12:09:59.999Z</time></trkpt><trkpt lat="44.923974074751335" lon="9.312724434084155"><ele>573.6666666666666</ele><time>2026-04-23T12:10:01.999Z</time></trkpt><trkpt lat="44.923920260494235" lon="9.312638282043162"><ele>571.5</ele><time>2026-04-23T12:10:04.999Z</time></trkpt><trkpt lat="44.92387797533671" lon="9.312560132012312"><ele>569.3333333333334</ele><time>2026-04-23T12:10:07.999Z</time></trkpt><trkpt lat="44.923842925447225" lon="9.312742073087591"><ele>567.1666666666667</ele><time>2026-04-23T12:12:06.999Z</time></trkpt><trkpt lat="44.9238674359579" lon="9.312851276594806"><ele>565.0</ele><time>2026-04-23T12:12:08.999Z</time></trkpt><trkpt lat="44.923862048600775" lon="9.3129797362548"><ele>564.9999999999999</ele><time>2026-04-23T12:12:11.999Z</time></trkpt><trkpt lat="44.92381300292228" lon="9.313050968765635"><ele>565.0</ele><time>2026-04-23T12:12:13.999Z</time></trkpt><trkpt lat="44.92375550321925" lon="9.313130977118243"><ele>565.0</ele><time>2026-04-23T12:12:15.999Z</time></trkpt><trkpt lat="44.92369936491629" lon="9.313201796384215"><ele>565.0</ele><time>2026-04-23T12:12:17.999Z</time></trkpt><trkpt lat="44.92365369681929" lon="9.313267792824853"><ele>565.0</ele><time>2026-04-23T12:12:19.999Z</time></trkpt><trkpt lat="44.923608679282005" lon="9.313340982612937"><ele>564.9999999999999</ele><time>2026-04-23T12:12:21.999Z</time></trkpt><trkpt lat="44.92355570508566" lon="9.313407619306368"><ele>565.0</ele><time>2026-04-23T12:12:23.999Z</time></trkpt><trkpt lat="44.92348151984245" lon="9.313478210012331"><ele>562.3333333333334</ele><time>2026-04-23T12:12:26.999Z</time></trkpt><trkpt lat="44.92339513987161" lon="9.313522987486728"><ele>559.6666666666667</ele><time>2026-04-23T12:12:28.999Z</time></trkpt><trkpt lat="44.923322581591236" lon="9.313566400609794"><ele>557.0</ele><time>2026-04-23T12:12:30.999Z</time></trkpt><trkpt lat="44.92323031543816" lon="9.313591429017372"><ele>554.3333333333334</ele><time>2026-04-23T12:12:32.999Z</time></trkpt><trkpt lat="44.92315823438067" lon="9.313602099434544"><ele>551.6666666666666</ele><time>2026-04-23T12:12:34.999Z</time></trkpt><trkpt lat="44.92308277955219" lon="9.31363533769043"><ele>549.0</ele><time>2026-04-23T12:12:36.999Z</time></trkpt><trkpt lat="44.92298788847765" lon="9.313644783352457"><ele>549.0</ele><time>2026-04-23T12:12:38.999Z</time></trkpt><trkpt lat="44.922923855504195" lon="9.313683405571046"><ele>549.0</ele><time>2026-04-23T12:12:40.999Z</time></trkpt><trkpt lat="44.92286780375948" lon="9.313732779905031"><ele>549.0</ele><time>2026-04-23T12:12:42.999Z</time></trkpt><trkpt lat="44.92280259547465" lon="9.313760067602109"><ele>549.0</ele><time>2026-04-23T12:12:45Z</time></trkpt><trkpt lat="44.92272654898673" lon="9.313789074842502"><ele>549.0</ele><time>2026-04-23T12:12:47Z</time></trkpt><trkpt lat="44.92263183729008" lon="9.313831551705121"><ele>549.0</ele><time>2026-04-23T12:12:49Z</time></trkpt><trkpt lat="44.92253676061455" lon="9.313888208130487"><ele>546.2</ele><time>2026-04-23T12:12:51Z</time></trkpt><trkpt lat="44.92244212474875" lon="9.31393365377812"><ele>543.4</ele><time>2026-04-23T12:12:53Z</time></trkpt><trkpt lat="44.922345007339075" lon="9.313990018850655"><ele>540.6</ele><time>2026-04-23T12:12:55Z</time></trkpt><trkpt lat="44.92226502843588" lon="9.314051879828103"><ele>537.8</ele><time>2026-04-23T12:12:57Z</time></trkpt><trkpt lat="44.92218307907029" lon="9.314117612439096"><ele>535.0</ele><time>2026-04-23T12:12:59Z</time></trkpt><trkpt lat="44.92208674817265" lon="9.314164238256879"><ele>535.0</ele><time>2026-04-23T12:13:01Z</time></trkpt><trkpt lat="44.92199730896541" lon="9.314205936145667"><ele>535.0</ele><time>2026-04-23T12:13:03Z</time></trkpt><trkpt lat="44.92192139857006" lon="9.314249938024748"><ele>535.0</ele><time>2026-04-23T12:13:05Z</time></trkpt><trkpt lat="44.921837783143246" lon="9.314276092307466"><ele>535.0</ele><time>2026-04-23T12:13:07Z</time></trkpt><trkpt lat="44.9217525411579" lon="9.314291335526189"><ele>535.0</ele><time>2026-04-23T12:13:09Z</time></trkpt><trkpt lat="44.921653075646894" lon="9.314318562015256"><ele>535.0</ele><time>2026-04-23T12:13:11Z</time></trkpt><trkpt lat="44.92156780546706" lon="9.314309658251002"><ele>534.0</ele><time>2026-04-23T12:13:13Z</time></trkpt><trkpt lat="44.921460527889536" lon="9.31431576318088"><ele>533.0</ele><time>2026-04-23T12:13:15Z</time></trkpt><trkpt lat="44.921358342524464" lon="9.31431251613652"><ele>532.0</ele><time>2026-04-23T12:13:17Z</time></trkpt><trkpt lat="44.921270633996095" lon="9.314306696547252"><ele>531.0</ele><time>2026-04-23T12:13:19Z</time></trkpt><trkpt lat="44.92115895444656" lon="9.314370997788343"><ele>530.0</ele><time>2026-04-23T12:13:21Z</time></trkpt><trkpt lat="44.921078568813584" lon="9.314445222427919"><ele>530.0</ele><time>2026-04-23T12:13:22Z</time></trkpt><trkpt lat="44.92098871334058" lon="9.314502990561506"><ele>530.0</ele><time>2026-04-23T12:13:23Z</time></trkpt><trkpt lat="44.92088252648468" lon="9.314562065337798"><ele>530.0</ele><time>2026-04-23T12:13:24Z</time></trkpt><trkpt lat="44.92075842466396" lon="9.314629424652878"><ele>530.0</ele><time>2026-04-23T12:13:25Z</time></trkpt><trkpt lat="44.920658448348846" lon="9.314692219377228"><ele>528.5714285714286</ele><time>2026-04-23T12:13:26Z</time></trkpt><trkpt lat="44.92057722989299" lon="9.314743067721126"><ele>527.1428571428571</ele><time>2026-04-23T12:13:27Z</time></trkpt><trkpt lat="44.92050761889273" lon="9.31480420364664"><ele>525.7142857142858</ele><time>2026-04-23T12:13:28Z</time></trkpt><trkpt lat="44.92046343590555" lon="9.31487634911385"><ele>524.2857142857142</ele><time>2026-04-23T12:13:29Z</time></trkpt><trkpt lat="44.92042959119824" lon="9.314958922065287"><ele>522.8571428571429</ele><time>2026-04-23T12:13:30Z</time></trkpt><trkpt lat="44.92036535950476" lon="9.315005464004955"><ele>521.4285714285714</ele><time>2026-04-23T12:13:31Z</time></trkpt><trkpt lat="44.920315380999455" lon="9.315065188700773"><ele>520.0</ele><time>2026-04-23T12:13:32Z</time></trkpt><trkpt lat="44.920252151234" lon="9.315143970364334"><ele>520.0</ele><time>2026-04-23T12:13:34Z</time></trkpt><trkpt lat="44.9201938495627" lon="9.315206691139037"><ele>520.0</ele><time>2026-04-23T12:13:36Z</time></trkpt><trkpt lat="44.92016782249587" lon="9.315332914940177"><ele>520.0</ele><time>2026-04-23T12:13:38Z</time></trkpt><trkpt lat="44.92011557824229" lon="9.31546002284184"><ele>520.0</ele><time>2026-04-23T12:13:40Z</time></trkpt><trkpt lat="44.92007536092575" lon="9.315569484764003"><ele>520.0</ele><time>2026-04-23T12:13:42Z</time></trkpt><trkpt lat="44.92003549271372" lon="9.315691179216925"><ele>520.6</ele><time>2026-04-23T12:13:44Z</time></trkpt><trkpt lat="44.92000151143472" lon="9.315782508900792"><ele>521.2</ele><time>2026-04-23T12:13:46Z</time></trkpt><trkpt lat="44.91993062481885" lon="9.31587333672923"><ele>521.8</ele><time>2026-04-23T12:13:48Z</time></trkpt><trkpt lat="44.91986728200313" lon="9.315973910183624"><ele>522.4</ele><time>2026-04-23T12:13:50Z</time></trkpt><trkpt lat="44.91980745469677" lon="9.31607733331932"><ele>523.0</ele><time>2026-04-23T12:13:52Z</time></trkpt><trkpt lat="44.91973971727089" lon="9.316176958427262"><ele>523.0</ele><time>2026-04-23T12:13:54Z</time></trkpt><trkpt lat="44.919681240875654" lon="9.316257299323595"><ele>523.0</ele><time>2026-04-23T12:13:56Z</time></trkpt><trkpt lat="44.919620162183385" lon="9.316357553026204"><ele>523.0</ele><time>2026-04-23T12:13:58Z</time></trkpt><trkpt lat="44.91957490469171" lon="9.316426542840567"><ele>523.0</ele><time>2026-04-23T12:14:00Z</time></trkpt><trkpt lat="44.91952081606531" lon="9.316538367387952"><ele>523.0</ele><time>2026-04-23T12:14:03Z</time></trkpt><trkpt lat="44.91942630774391" lon="9.31656802342104"><ele>523.0</ele><time>2026-04-23T12:14:05Z</time></trkpt><trkpt lat="44.919343303801554" lon="9.316601594352827"><ele>521.1999999999999</ele><time>2026-04-23T12:14:07Z</time></trkpt><trkpt lat="44.919277744717675" lon="9.316601328032514"><ele>519.4</ele><time>2026-04-23T12:14:09Z</time></trkpt><trkpt lat="44.919327573227534" lon="9.31666388609804"><ele>517.5999999999999</ele><time>2026-04-23T12:14:13Z</time></trkpt><trkpt lat="44.91943167054661" lon="9.316601335157644"><ele>515.8</ele><time>2026-04-23T12:14:15Z</time></trkpt><trkpt lat="44.919541758342206" lon="9.316532652320118"><ele>514.0</ele><time>2026-04-23T12:14:17Z</time></trkpt><trkpt lat="44.919602487712574" lon="9.316444671008016"><ele>516.25</ele><time>2026-04-23T12:14:18Z</time></trkpt><trkpt lat="44.91965867764907" lon="9.316324035284953"><ele>518.5</ele><time>2026-04-23T12:14:19Z</time></trkpt><trkpt lat="44.919746941930306" lon="9.316172115802265"><ele>520.75</ele><time>2026-04-23T12:14:20Z</time></trkpt><trkpt lat="44.91984591424188" lon="9.316027170951937"><ele>523.0</ele><time>2026-04-23T12:14:21Z</time></trkpt><trkpt lat="44.91992582384981" lon="9.315907582049459"><ele>523.0</ele><time>2026-04-23T12:14:22Z</time></trkpt><trkpt lat="44.919984578854795" lon="9.315807184792572"><ele>523.0</ele><time>2026-04-23T12:14:23Z</time></trkpt><trkpt lat="44.92003193413753" lon="9.315721947902393"><ele>523.0</ele><time>2026-04-23T12:14:24Z</time></trkpt><trkpt lat="44.92007344799619" lon="9.315641593636075"><ele>523.0</ele><time>2026-04-23T12:14:25Z</time></trkpt><trkpt lat="44.920124843474625" lon="9.315519223376794"><ele>523.0</ele><time>2026-04-23T12:14:26Z</time></trkpt><trkpt lat="44.920165043937544" lon="9.31538200598937"><ele>523.0</ele><time>2026-04-23T12:14:27Z</time></trkpt><trkpt lat="44.92019766283319" lon="9.315267647210225"><ele>523.1999999999999</ele><time>2026-04-23T12:14:28Z</time></trkpt><trkpt lat="44.9202418661901" lon="9.315138955126773"><ele>523.4</ele><time>2026-04-23T12:14:30Z</time></trkpt><trkpt lat="44.92018099371403" lon="9.315079458652454"><ele>523.5999999999999</ele><time>2026-04-23T12:14:33Z</time></trkpt><trkpt lat="44.9200675416672" lon="9.315052028160654"><ele>523.8</ele><time>2026-04-23T12:14:35Z</time></trkpt><trkpt lat="44.920012058828796" lon="9.314957867624779"><ele>524.0</ele><time>2026-04-23T12:14:45Z</time></trkpt><trkpt lat="44.91994428951616" lon="9.314886814389437"><ele>524.0</ele><time>2026-04-23T12:14:48Z</time></trkpt><trkpt lat="44.9198807490841" lon="9.314809717768519"><ele>524.0</ele><time>2026-04-23T12:14:50Z</time></trkpt><trkpt lat="44.91981310527137" lon="9.314720950861537"><ele>524.0</ele><time>2026-04-23T12:14:53Z</time></trkpt><trkpt lat="44.91974223618911" lon="9.314645515881057"><ele>524.0</ele><time>2026-04-23T12:14:56Z</time></trkpt><trkpt lat="44.919673757820576" lon="9.314599967121186"><ele>524.0</ele><time>2026-04-23T12:14:58Z</time></trkpt><trkpt lat="44.91957189087579" lon="9.314524845848801"><ele>523.0</ele><time>2026-04-23T12:15:00Z</time></trkpt><trkpt lat="44.91949385790636" lon="9.31449215008563"><ele>522.0</ele><time>2026-04-23T12:15:03Z</time></trkpt><trkpt lat="44.919444230119524" lon="9.314424378183206"><ele>521.0</ele><time>2026-04-23T12:15:06Z</time></trkpt><trkpt lat="44.91936811406489" lon="9.314372600531406"><ele>520.0</ele><time>2026-04-23T12:15:20Z</time></trkpt><trkpt lat="44.91932990324766" lon="9.314280299482435"><ele>519.0</ele><time>2026-04-23T12:15:26Z</time></trkpt><trkpt lat="44.91933213703372" lon="9.314189681900768"><ele>518.0</ele><time>2026-04-23T12:15:31Z</time></trkpt><trkpt lat="44.91936167161143" lon="9.314095816813554"><ele>517.0</ele><time>2026-04-23T12:15:37Z</time></trkpt><trkpt lat="44.91931972280384" lon="9.313989716844963"><ele>517.0</ele><time>2026-04-23T12:15:40Z</time></trkpt><trkpt lat="44.919246681663786" lon="9.313944805080316"><ele>517.0</ele><time>2026-04-23T12:15:42Z</time></trkpt><trkpt lat="44.91916858491694" lon="9.313884020692056"><ele>517.0</ele><time>2026-04-23T12:15:45Z</time></trkpt><trkpt lat="44.91910084351394" lon="9.313878523145036"><ele>517.0</ele><time>2026-04-23T12:15:49Z</time></trkpt><trkpt lat="44.91903014100851" lon="9.313855238629866"><ele>517.0</ele><time>2026-04-23T12:15:55Z</time></trkpt><trkpt lat="44.91896059983653" lon="9.313856297644229"><ele>517.0</ele><time>2026-04-23T12:16:01Z</time></trkpt><trkpt lat="44.918871373539474" lon="9.313870087416815"><ele>514.4285714285714</ele><time>2026-04-23T12:16:08Z</time></trkpt><trkpt lat="44.918801632653874" lon="9.313874699292624"><ele>511.8571428571429</ele><time>2026-04-23T12:16:10Z</time></trkpt><trkpt lat="44.91872027358269" lon="9.313896415319421"><ele>509.28571428571433</ele><time>2026-04-23T12:16:12Z</time></trkpt><trkpt lat="44.91863700231132" lon="9.313902383379979"><ele>506.7142857142858</ele><time>2026-04-23T12:16:14Z</time></trkpt><trkpt lat="44.9185690642276" lon="9.313882036465746"><ele>504.14285714285717</ele><time>2026-04-23T12:16:16Z</time></trkpt><trkpt lat="44.91849572525758" lon="9.313877560858344"><ele>501.57142857142867</ele><time>2026-04-23T12:16:18Z</time></trkpt><trkpt lat="44.91843329726162" lon="9.313857273214502"><ele>499.00000000000006</ele><time>2026-04-23T12:16:20Z</time></trkpt><trkpt lat="44.91837283864874" lon="9.313812156074137"><ele>498.0</ele><time>2026-04-23T12:16:22Z</time></trkpt><trkpt lat="44.91828459348904" lon="9.313757160104089"><ele>497.0</ele><time>2026-04-23T12:16:24Z</time></trkpt><trkpt lat="44.91820564182038" lon="9.31370089575164"><ele>496.0</ele><time>2026-04-23T12:16:26Z</time></trkpt><trkpt lat="44.91812109782451" lon="9.313631252869394"><ele>495.0</ele><time>2026-04-23T12:16:28Z</time></trkpt><trkpt lat="44.918025836643075" lon="9.31354988633338"><ele>494.0</ele><time>2026-04-23T12:16:30Z</time></trkpt><trkpt lat="44.91792981162622" lon="9.313486909211557"><ele>494.0</ele><time>2026-04-23T12:16:32Z</time></trkpt><trkpt lat="44.91782231379919" lon="9.313422120521421"><ele>494.0</ele><time>2026-04-23T12:16:34Z</time></trkpt><trkpt lat="44.91771816815634" lon="9.31337559071938"><ele>494.0</ele><time>2026-04-23T12:16:36Z</time></trkpt><trkpt lat="44.91761885241298" lon="9.313303589348441"><ele>494.0</ele><time>2026-04-23T12:16:38Z</time></trkpt><trkpt lat="44.91754178548641" lon="9.313236142811219"><ele>494.0</ele><time>2026-04-23T12:16:40Z</time></trkpt><trkpt lat="44.91747707703908" lon="9.313169696978363"><ele>492.3333333333333</ele><time>2026-04-23T12:16:42Z</time></trkpt><trkpt lat="44.91738983332172" lon="9.31310601425267"><ele>490.66666666666663</ele><time>2026-04-23T12:16:44Z</time></trkpt><trkpt lat="44.917310890574996" lon="9.313087463017906"><ele>489.0</ele><time>2026-04-23T12:16:46Z</time></trkpt><trkpt lat="44.91723222965691" lon="9.313056602794818"><ele>487.33333333333337</ele><time>2026-04-23T12:16:48Z</time></trkpt><trkpt lat="44.917158444703794" lon="9.313028690600074"><ele>485.6666666666667</ele><time>2026-04-23T12:16:51Z</time></trkpt><trkpt lat="44.91705991747674" lon="9.313033389496223"><ele>484.0</ele><time>2026-04-23T12:16:54.001Z</time></trkpt><trkpt lat="44.91697045652353" lon="9.31305728669939"><ele>482.33333333333337</ele><time>2026-04-23T12:16:57.001Z</time></trkpt><trkpt lat="44.91690021872994" lon="9.313069603833691"><ele>480.6666666666667</ele><time>2026-04-23T12:16:59.001Z</time></trkpt><trkpt lat="44.91682188148996" lon="9.313036572628775"><ele>479.0</ele><time>2026-04-23T12:17:01.001Z</time></trkpt><trkpt lat="44.91673837797388" lon="9.312993857622224"><ele>477.33333333333337</ele><time>2026-04-23T12:17:03.001Z</time></trkpt><trkpt lat="44.91665021522431" lon="9.312963364893273"><ele>475.6666666666667</ele><time>2026-04-23T12:17:05.001Z</time></trkpt><trkpt lat="44.91656992999499" lon="9.312918370351332"><ele>474.0</ele><time>2026-04-23T12:17:07.001Z</time></trkpt><trkpt lat="44.91648465768449" lon="9.312888441454337"><ele>473.5</ele><time>2026-04-23T12:17:09.001Z</time></trkpt><trkpt lat="44.9163941158738" lon="9.312867754515082"><ele>473.0</ele><time>2026-04-23T12:17:11.001Z</time></trkpt><trkpt lat="44.91630500951058" lon="9.312850043486014"><ele>472.5</ele><time>2026-04-23T12:17:13.001Z</time></trkpt><trkpt lat="44.91622729598598" lon="9.312787843326996"><ele>472.0</ele><time>2026-04-23T12:17:15.001Z</time></trkpt><trkpt lat="44.91614840411315" lon="9.312736291313058"><ele>471.5</ele><time>2026-04-23T12:17:17Z</time></trkpt><trkpt lat="44.916076965864136" lon="9.312683137417446"><ele>471.0</ele><time>2026-04-23T12:17:19Z</time></trkpt><trkpt lat="44.916029751364675" lon="9.312597492165125"><ele>471.0</ele><time>2026-04-23T12:17:22Z</time></trkpt><trkpt lat="44.916004461418545" lon="9.31247517901682"><ele>471.0</ele><time>2026-04-23T12:17:30Z</time></trkpt><trkpt lat="44.91601364346337" lon="9.312377505292853"><ele>471.0</ele><time>2026-04-23T12:17:32Z</time></trkpt><trkpt lat="44.91602518602816" lon="9.31227643298249"><ele>471.0</ele><time>2026-04-23T12:17:35Z</time></trkpt><trkpt lat="44.9160597048246" lon="9.31218779728296"><ele>471.0</ele><time>2026-04-23T12:17:40Z</time></trkpt><trkpt lat="44.91621949605756" lon="9.312166019147586"><ele>469.1666666666667</ele><time>2026-04-23T12:17:46Z</time></trkpt><trkpt lat="44.916253200619494" lon="9.3120600531725"><ele>467.33333333333337</ele><time>2026-04-23T12:17:48Z</time></trkpt><trkpt lat="44.916282753627925" lon="9.311946705527292"><ele>465.5</ele><time>2026-04-23T12:17:50Z</time></trkpt><trkpt lat="44.91628722299922" lon="9.311852754976549"><ele>463.6666666666667</ele><time>2026-04-23T12:17:52Z</time></trkpt><trkpt lat="44.916289048208924" lon="9.311754420065448"><ele>461.83333333333337</ele><time>2026-04-23T12:17:56Z</time></trkpt><trkpt lat="44.91630906104958" lon="9.311643578389265"><ele>460.0</ele><time>2026-04-23T12:17:59Z</time></trkpt><trkpt lat="44.916348853815904" lon="9.311520199441674"><ele>458.6</ele><time>2026-04-23T12:18:03Z</time></trkpt><trkpt lat="44.916383183039706" lon="9.311390296222582"><ele>457.2</ele><time>2026-04-23T12:18:05Z</time></trkpt><trkpt lat="44.91642833550679" lon="9.311283543193769"><ele>455.79999999999995</ele><time>2026-04-23T12:18:07Z</time></trkpt><trkpt lat="44.91650496381961" lon="9.311200930789203"><ele>454.4</ele><time>2026-04-23T12:18:10Z</time></trkpt><trkpt lat="44.91659591855055" lon="9.311141161171884"><ele>453.0</ele><time>2026-04-23T12:18:12Z</time></trkpt><trkpt lat="44.916670670443274" lon="9.311087633548965"><ele>453.0</ele><time>2026-04-23T12:18:14Z</time></trkpt><trkpt lat="44.91671996621697" lon="9.311017973115442"><ele>452.99999999999994</ele><time>2026-04-23T12:18:15Z</time></trkpt><trkpt lat="44.91678616680597" lon="9.310889128389462"><ele>452.99999999999994</ele><time>2026-04-23T12:18:17Z</time></trkpt><trkpt lat="44.9168315577897" lon="9.310764182017044"><ele>453.0</ele><time>2026-04-23T12:18:19Z</time></trkpt><trkpt lat="44.91686395782208" lon="9.310614666320351"><ele>453.0</ele><time>2026-04-23T12:18:21Z</time></trkpt><trkpt lat="44.91689370884223" lon="9.310476644249455"><ele>453.1666666666667</ele><time>2026-04-23T12:18:23Z</time></trkpt><trkpt lat="44.91694596640545" lon="9.31032567105441"><ele>453.33333333333337</ele><time>2026-04-23T12:18:25Z</time></trkpt><trkpt lat="44.91694889620293" lon="9.310188058595266"><ele>453.5</ele><time>2026-04-23T12:18:27Z</time></trkpt><trkpt lat="44.91693725767028" lon="9.31006893563968"><ele>453.6666666666667</ele><time>2026-04-23T12:18:29Z</time></trkpt><trkpt lat="44.916971720612764" lon="9.309964313907376"><ele>453.83333333333337</ele><time>2026-04-23T12:18:31Z</time></trkpt><trkpt lat="44.91701235995198" lon="9.309890941739516"><ele>454.0</ele><time>2026-04-23T12:18:33Z</time></trkpt><trkpt lat="44.91708218736326" lon="9.309827315835301"><ele>454.0</ele><time>2026-04-23T12:18:35Z</time></trkpt><trkpt lat="44.917144569315916" lon="9.309765710057178"><ele>454.0</ele><time>2026-04-23T12:18:37Z</time></trkpt><trkpt lat="44.917224115331294" lon="9.309683693488498"><ele>454.0</ele><time>2026-04-23T12:18:39Z</time></trkpt><trkpt lat="44.91728902290835" lon="9.309587698125783"><ele>454.0</ele><time>2026-04-23T12:18:41Z</time></trkpt><trkpt lat="44.91735467673254" lon="9.309473489027374"><ele>454.0</ele><time>2026-04-23T12:18:43Z</time></trkpt><trkpt lat="44.91745611334412" lon="9.309351938329755"><ele>454.0</ele><time>2026-04-23T12:18:45Z</time></trkpt><trkpt lat="44.91751396427082" lon="9.309274287092686"><ele>454.0</ele><time>2026-04-23T12:18:46Z</time></trkpt><trkpt lat="44.917564468114804" lon="9.30920469973879"><ele>454.0</ele><time>2026-04-23T12:18:47Z</time></trkpt><trkpt lat="44.91763897864459" lon="9.309100645749535"><ele>454.0</ele><time>2026-04-23T12:18:49Z</time></trkpt><trkpt lat="44.91770887416459" lon="9.309001612408784"><ele>454.0</ele><time>2026-04-23T12:18:51Z</time></trkpt><trkpt lat="44.91778914358158" lon="9.30890191196896"><ele>454.0</ele><time>2026-04-23T12:18:53Z</time></trkpt><trkpt lat="44.91789377959383" lon="9.308843946481545"><ele>454.0</ele><time>2026-04-23T12:18:55Z</time></trkpt><trkpt lat="44.91800033059764" lon="9.308841954278117"><ele>454.0</ele><time>2026-04-23T12:18:57Z</time></trkpt><trkpt lat="44.91808610749676" lon="9.308878219120862"><ele>454.0</ele><time>2026-04-23T12:18:59.001Z</time></trkpt><trkpt lat="44.91816211904073" lon="9.308927049767215"><ele>454.0</ele><time>2026-04-23T12:19:02.001Z</time></trkpt><trkpt lat="44.91824669303756" lon="9.308956022258617"><ele>454.00000000000006</ele><time>2026-04-23T12:19:05.001Z</time></trkpt><trkpt lat="44.91831102291435" lon="9.30897449712085"><ele>454.0</ele><time>2026-04-23T12:19:07.001Z</time></trkpt><trkpt lat="44.918380290094056" lon="9.30898774848197"><ele>454.0</ele><time>2026-04-23T12:19:09.001Z</time></trkpt><trkpt lat="44.918482360959445" lon="9.309024739951939"><ele>454.0</ele><time>2026-04-23T12:19:11.001Z</time></trkpt><trkpt lat="44.91857079976359" lon="9.309072958507286"><ele>454.00000000000006</ele><time>2026-04-23T12:19:13.001Z</time></trkpt><trkpt lat="44.91867548282582" lon="9.30911911120384"><ele>454.0</ele><time>2026-04-23T12:19:15.001Z</time></trkpt><trkpt lat="44.918743543002186" lon="9.309110936746567"><ele>455.83333333333337</ele><time>2026-04-23T12:19:18Z</time></trkpt><trkpt lat="44.91870543573374" lon="9.309026834049725"><ele>457.6666666666667</ele><time>2026-04-23T12:19:21Z</time></trkpt><trkpt lat="44.91864472618566" lon="9.308960416728636"><ele>459.5</ele><time>2026-04-23T12:19:23Z</time></trkpt><trkpt lat="44.91858103754759" lon="9.308817403983966"><ele>461.33333333333337</ele><time>2026-04-23T12:19:25Z</time></trkpt><trkpt lat="44.91857113357168" lon="9.308707965987058"><ele>463.1666666666667</ele><time>2026-04-23T12:19:27Z</time></trkpt><trkpt lat="44.91853186346173" lon="9.30861951166812"><ele>465.0</ele><time>2026-04-23T12:19:29Z</time></trkpt><trkpt lat="44.9184662956965" lon="9.30854167191842"><ele>462.4</ele><time>2026-04-23T12:19:31Z</time></trkpt><trkpt lat="44.9183700349358" lon="9.3084798072802"><ele>459.8</ele><time>2026-04-23T12:19:33Z</time></trkpt><trkpt lat="44.91830408408625" lon="9.308405404557394"><ele>457.20000000000005</ele><time>2026-04-23T12:19:35Z</time></trkpt><trkpt lat="44.91826395241567" lon="9.308324166706823"><ele>454.6</ele><time>2026-04-23T12:19:36Z</time></trkpt><trkpt lat="44.91822641301477" lon="9.30822783061121"><ele>452.0</ele><time>2026-04-23T12:19:37Z</time></trkpt><trkpt lat="44.91816221954219" lon="9.308081297151956"><ele>451.7142857142857</ele><time>2026-04-23T12:19:39Z</time></trkpt><trkpt lat="44.918124423798176" lon="9.308005425058404"><ele>451.42857142857144</ele><time>2026-04-23T12:19:40Z</time></trkpt><trkpt lat="44.91808485771345" lon="9.307921737948654"><ele>451.14285714285717</ele><time>2026-04-23T12:19:41Z</time></trkpt><trkpt lat="44.918055781597786" lon="9.307834136227097"><ele>450.8571428571429</ele><time>2026-04-23T12:19:42Z</time></trkpt><trkpt lat="44.91803842385867" lon="9.3077379248183"><ele>450.57142857142856</ele><time>2026-04-23T12:19:43Z</time></trkpt><trkpt lat="44.91801551978325" lon="9.307646086416874"><ele>450.28571428571433</ele><time>2026-04-23T12:19:44Z</time></trkpt><trkpt lat="44.91800242958644" lon="9.307554307256124"><ele>450.00000000000006</ele><time>2026-04-23T12:19:45Z</time></trkpt><trkpt lat="44.91797103572733" lon="9.307414958949124"><ele>450.0</ele><time>2026-04-23T12:19:47Z</time></trkpt><trkpt lat="44.917930022979384" lon="9.307310652724155"><ele>450.0</ele><time>2026-04-23T12:19:49Z</time></trkpt><trkpt lat="44.917857443751856" lon="9.307185155193535"><ele>450.0</ele><time>2026-04-23T12:19:51Z</time></trkpt><trkpt lat="44.91776542009617" lon="9.30708703318049"><ele>450.0</ele><time>2026-04-23T12:19:53Z</time></trkpt><trkpt lat="44.91766163394957" lon="9.307048555129267"><ele>450.0</ele><time>2026-04-23T12:19:55Z</time></trkpt><trkpt lat="44.9175564029114" lon="9.307023678095526"><ele>447.2</ele><time>2026-04-23T12:19:57Z</time></trkpt><trkpt lat="44.91746289661919" lon="9.30698960429006"><ele>444.4</ele><time>2026-04-23T12:19:59Z</time></trkpt><trkpt lat="44.91739924049223" lon="9.306958208430562"><ele>441.6</ele><time>2026-04-23T12:20:01Z</time></trkpt><trkpt lat="44.91735157152092" lon="9.306845780541273"><ele>438.8</ele><time>2026-04-23T12:20:03Z</time></trkpt><trkpt lat="44.917273182971414" lon="9.306702711215426"><ele>436.0</ele><time>2026-04-23T12:20:05Z</time></trkpt><trkpt lat="44.917215211675824" lon="9.306628667709921"><ele>436.00000000000006</ele><time>2026-04-23T12:20:06Z</time></trkpt><trkpt lat="44.917164297709554" lon="9.306561792197906"><ele>436.0</ele><time>2026-04-23T12:20:07Z</time></trkpt><trkpt lat="44.91710692240109" lon="9.306510441879487"><ele>436.0</ele><time>2026-04-23T12:20:08Z</time></trkpt><trkpt lat="44.91705698016659" lon="9.306449312329349"><ele>436.0</ele><time>2026-04-23T12:20:09Z</time></trkpt><trkpt lat="44.9169793928638" lon="9.30634588554314"><ele>436.00000000000006</ele><time>2026-04-23T12:20:11Z</time></trkpt><trkpt lat="44.916900834103174" lon="9.30623235080337"><ele>436.0</ele><time>2026-04-23T12:20:13Z</time></trkpt><trkpt lat="44.9168169884392" lon="9.306142010441027"><ele>434.4</ele><time>2026-04-23T12:20:15Z</time></trkpt><trkpt lat="44.91673988450935" lon="9.30603507409069"><ele>432.8</ele><time>2026-04-23T12:20:17Z</time></trkpt><trkpt lat="44.9166551625733" lon="9.305930961337383"><ele>431.19999999999993</ele><time>2026-04-23T12:20:19Z</time></trkpt><trkpt lat="44.91658163006346" lon="9.305865798312883"><ele>429.59999999999997</ele><time>2026-04-23T12:20:21Z</time></trkpt><trkpt lat="44.91650305422248" lon="9.30580083410475"><ele>428.0</ele><time>2026-04-23T12:20:23Z</time></trkpt><trkpt lat="44.91643383832482" lon="9.305793768359438"><ele>428.0</ele><time>2026-04-23T12:20:25Z</time></trkpt><trkpt lat="44.9163703126598" lon="9.305876556575734"><ele>427.99999999999994</ele><time>2026-04-23T12:20:28Z</time></trkpt><trkpt lat="44.916313793820215" lon="9.305992568854775"><ele>427.99999999999994</ele><time>2026-04-23T12:20:30Z</time></trkpt><trkpt lat="44.91626553490181" lon="9.306113849182646"><ele>428.0</ele><time>2026-04-23T12:20:32Z</time></trkpt><trkpt lat="44.916190556328175" lon="9.306116068230661"><ele>428.0</ele><time>2026-04-23T12:20:34Z</time></trkpt><trkpt lat="44.91609498313353" lon="9.306040871419649"><ele>428.0</ele><time>2026-04-23T12:20:36Z</time></trkpt><trkpt lat="44.9160377353791" lon="9.305995705179134"><ele>427.99999999999994</ele><time>2026-04-23T12:20:37Z</time></trkpt><trkpt lat="44.91594044073933" lon="9.305909805027536"><ele>427.99999999999994</ele><time>2026-04-23T12:20:39Z</time></trkpt><trkpt lat="44.91585929704536" lon="9.305732599058164"><ele>428.0</ele><time>2026-04-23T12:20:41Z</time></trkpt><trkpt lat="44.915812730448806" lon="9.305643532535841"><ele>428.0</ele><time>2026-04-23T12:20:42Z</time></trkpt><trkpt lat="44.915774836621985" lon="9.305562926635275"><ele>425.0</ele><time>2026-04-23T12:20:43Z</time></trkpt><trkpt lat="44.915700967733095" lon="9.305425142874158"><ele>421.99999999999994</ele><time>2026-04-23T12:20:45Z</time></trkpt><trkpt lat="44.915613312569256" lon="9.305322603993785"><ele>419.0</ele><time>2026-04-23T12:20:46.999Z</time></trkpt><trkpt lat="44.91556186735259" lon="9.305262353113381"><ele>416.0</ele><time>2026-04-23T12:20:47.999Z</time></trkpt><trkpt lat="44.915460287337226" lon="9.305182543983817"><ele>413.0</ele><time>2026-04-23T12:20:49.999Z</time></trkpt><trkpt lat="44.91535217173333" lon="9.305114011910591"><ele>412.99999999999994</ele><time>2026-04-23T12:20:51.999Z</time></trkpt><trkpt lat="44.915280352464954" lon="9.305091322937898"><ele>413.0</ele><time>2026-04-23T12:20:52.999Z</time></trkpt><trkpt lat="44.915215740300916" lon="9.305099788640979"><ele>413.0</ele><time>2026-04-23T12:20:53.999Z</time></trkpt><trkpt lat="44.91512025243802" lon="9.305086879967284"><ele>413.0</ele><time>2026-04-23T12:20:55.999Z</time></trkpt><trkpt lat="44.9150510543146" lon="9.305049222315308"><ele>412.99999999999994</ele><time>2026-04-23T12:20:57.999Z</time></trkpt><trkpt lat="44.91497575565402" lon="9.304904209744757"><ele>413.0</ele><time>2026-04-23T12:20:59.999Z</time></trkpt><trkpt lat="44.91492193180916" lon="9.30481498724463"><ele>410.66666666666663</ele><time>2026-04-23T12:21:01.999Z</time></trkpt><trkpt lat="44.91485758760837" lon="9.30473486164555"><ele>408.3333333333333</ele><time>2026-04-23T12:21:05.001Z</time></trkpt><trkpt lat="44.914802044352065" lon="9.304684541915904"><ele>406.0</ele><time>2026-04-23T12:21:08.001Z</time></trkpt><trkpt lat="44.91474937921669" lon="9.304634420699303"><ele>403.66666666666663</ele><time>2026-04-23T12:21:10.001Z</time></trkpt><trkpt lat="44.91467304293895" lon="9.30458054933107"><ele>401.3333333333333</ele><time>2026-04-23T12:21:12.001Z</time></trkpt><trkpt lat="44.91460872641589" lon="9.304497114689362"><ele>399.0</ele><time>2026-04-23T12:21:15.001Z</time></trkpt><trkpt lat="44.914518361342786" lon="9.304394550712992"><ele>399.0</ele><time>2026-04-23T12:21:17.001Z</time></trkpt><trkpt lat="44.914491711724224" lon="9.304313781322003"><ele>399.0</ele><time>2026-04-23T12:21:19Z</time></trkpt><trkpt lat="44.914432799328154" lon="9.304169722327796"><ele>399.0</ele><time>2026-04-23T12:21:21Z</time></trkpt><trkpt lat="44.91439250815267" lon="9.30408323600033"><ele>399.0</ele><time>2026-04-23T12:21:23Z</time></trkpt><trkpt lat="44.914360278437066" lon="9.303985792051567"><ele>399.0</ele><time>2026-04-23T12:21:25Z</time></trkpt><trkpt lat="44.91432203312098" lon="9.303890760632287"><ele>399.0</ele><time>2026-04-23T12:21:27Z</time></trkpt><trkpt lat="44.914265236465205" lon="9.303797785142276"><ele>396.1666666666667</ele><time>2026-04-23T12:21:29Z</time></trkpt><trkpt lat="44.91424076225285" lon="9.303679732043529"><ele>393.3333333333333</ele><time>2026-04-23T12:21:32Z</time></trkpt><trkpt lat="44.91420790897383" lon="9.303580729948486"><ele>390.5</ele><time>2026-04-23T12:21:35Z</time></trkpt><trkpt lat="44.91417704745939" lon="9.30349306759576"><ele>387.66666666666663</ele><time>2026-04-23T12:21:38Z</time></trkpt><trkpt lat="44.91414679452699" lon="9.303391321945501"><ele>384.8333333333333</ele><time>2026-04-23T12:21:40Z</time></trkpt><trkpt lat="44.91408612678457" lon="9.303303372353412"><ele>382.0</ele><time>2026-04-23T12:21:42Z</time></trkpt><trkpt lat="44.91402401710111" lon="9.3032088293725"><ele>382.0</ele><time>2026-04-23T12:21:44Z</time></trkpt><trkpt lat="44.913951175619836" lon="9.303132022132173"><ele>382.0</ele><time>2026-04-23T12:21:46Z</time></trkpt><trkpt lat="44.91390005773063" lon="9.3030464647072"><ele>382.0</ele><time>2026-04-23T12:21:48Z</time></trkpt><trkpt lat="44.91383369006761" lon="9.302969160361666"><ele>382.0</ele><time>2026-04-23T12:21:50Z</time></trkpt><trkpt lat="44.91377579343399" lon="9.302845268176666"><ele>382.0</ele><time>2026-04-23T12:21:52Z</time></trkpt><trkpt lat="44.91370440808483" lon="9.302738018002358"><ele>379.8333333333333</ele><time>2026-04-23T12:21:54Z</time></trkpt><trkpt lat="44.913651541448985" lon="9.302633821221873"><ele>377.66666666666663</ele><time>2026-04-23T12:21:56Z</time></trkpt><trkpt lat="44.913589314000795" lon="9.302540743074875"><ele>375.5</ele><time>2026-04-23T12:21:58Z</time></trkpt><trkpt lat="44.91352260609061" lon="9.302451568742098"><ele>373.3333333333333</ele><time>2026-04-23T12:22:00Z</time></trkpt><trkpt lat="44.913473411049544" lon="9.302371335057224"><ele>371.1666666666667</ele><time>2026-04-23T12:22:02Z</time></trkpt><trkpt lat="44.913440786687154" lon="9.302274191675131"><ele>369.0</ele><time>2026-04-23T12:22:06Z</time></trkpt><trkpt lat="44.91351719473799" lon="9.302207260297363"><ele>367.0</ele><time>2026-04-23T12:22:08Z</time></trkpt><trkpt lat="44.91361137226397" lon="9.302100517664025"><ele>365.0</ele><time>2026-04-23T12:22:10Z</time></trkpt><trkpt lat="44.91371343367004" lon="9.301993137267564"><ele>363.0</ele><time>2026-04-23T12:22:12Z</time></trkpt><trkpt lat="44.91377878670045" lon="9.301941061732375"><ele>361.0</ele><time>2026-04-23T12:22:13Z</time></trkpt><trkpt lat="44.91383531957419" lon="9.301885239010064"><ele>359.0</ele><time>2026-04-23T12:22:14Z</time></trkpt><trkpt lat="44.9138921719088" lon="9.301822431159222"><ele>359.0</ele><time>2026-04-23T12:22:15Z</time></trkpt><trkpt lat="44.913948057659624" lon="9.301764680808732"><ele>359.0</ele><time>2026-04-23T12:22:16Z</time></trkpt><trkpt lat="44.91400694912568" lon="9.301706755612983"><ele>359.0</ele><time>2026-04-23T12:22:17Z</time></trkpt><trkpt lat="44.91406004757398" lon="9.301636855088429"><ele>359.0</ele><time>2026-04-23T12:22:18Z</time></trkpt><trkpt lat="44.914111510073596" lon="9.301560667735869"><ele>359.0</ele><time>2026-04-23T12:22:19Z</time></trkpt><trkpt lat="44.91415887808997" lon="9.301485504502905"><ele>359.0</ele><time>2026-04-23T12:22:20Z</time></trkpt><trkpt lat="44.9142081066806" lon="9.301410096314067"><ele>359.0</ele><time>2026-04-23T12:22:21Z</time></trkpt><trkpt lat="44.91424892371233" lon="9.30133315438816"><ele>356.7142857142857</ele><time>2026-04-23T12:22:22Z</time></trkpt><trkpt lat="44.914296307194796" lon="9.301263665826276"><ele>354.42857142857144</ele><time>2026-04-23T12:22:23Z</time></trkpt><trkpt lat="44.91434682982844" lon="9.301197935077097"><ele>352.1428571428571</ele><time>2026-04-23T12:22:24Z</time></trkpt><trkpt lat="44.91438789767131" lon="9.301130161747789"><ele>349.8571428571429</ele><time>2026-04-23T12:22:25Z</time></trkpt><trkpt lat="44.914428567274136" lon="9.301060087010043"><ele>347.57142857142856</ele><time>2026-04-23T12:22:26Z</time></trkpt><trkpt lat="44.91447182778306" lon="9.300992359755403"><ele>345.2857142857143</ele><time>2026-04-23T12:22:27Z</time></trkpt><trkpt lat="44.91453054571755" lon="9.300922588121825"><ele>343.0</ele><time>2026-04-23T12:22:28Z</time></trkpt><trkpt lat="44.91458577934267" lon="9.300871235829106"><ele>343.0</ele><time>2026-04-23T12:22:29Z</time></trkpt><trkpt lat="44.91465223987638" lon="9.300824296257394"><ele>343.0</ele><time>2026-04-23T12:22:30Z</time></trkpt><trkpt lat="44.91472652610542" lon="9.300786532252765"><ele>343.0</ele><time>2026-04-23T12:22:31Z</time></trkpt><trkpt lat="44.91479249672027" lon="9.300753611806602"><ele>343.0</ele><time>2026-04-23T12:22:32Z</time></trkpt><trkpt lat="44.9148536266809" lon="9.300720997622665"><ele>343.0</ele><time>2026-04-23T12:22:33Z</time></trkpt><trkpt lat="44.914954081905975" lon="9.3006795846911"><ele>343.0</ele><time>2026-04-23T12:22:35Z</time></trkpt><trkpt lat="44.91503010099755" lon="9.300632072414167"><ele>343.0</ele><time>2026-04-23T12:22:37Z</time></trkpt><trkpt lat="44.91508713793676" lon="9.300593837325826"><ele>343.0</ele><time>2026-04-23T12:22:39Z</time></trkpt><trkpt lat="44.9151626540377" lon="9.300566582297876"><ele>343.0</ele><time>2026-04-23T12:22:42Z</time></trkpt><trkpt lat="44.915235553291005" lon="9.300540760125617"><ele>343.0</ele><time>2026-04-23T12:22:45.999Z</time></trkpt><trkpt lat="44.91517451580837" lon="9.300504844375208"><ele>343.0</ele><time>2026-04-23T12:22:48.999Z</time></trkpt><trkpt lat="44.915115626078396" lon="9.300546080907065"><ele>343.0</ele><time>2026-04-23T12:22:50.999Z</time></trkpt><trkpt lat="44.91503460693351" lon="9.30062843567759"><ele>343.0</ele><time>2026-04-23T12:22:52.999Z</time></trkpt><trkpt lat="44.91490176051023" lon="9.300702121131303"><ele>343.0</ele><time>2026-04-23T12:22:54.999Z</time></trkpt><trkpt lat="44.91478107537536" lon="9.300726075975618"><ele>343.0</ele><time>2026-04-23T12:22:55.999Z</time></trkpt><trkpt lat="44.914692794312785" lon="9.300777045175634"><ele>343.0</ele><time>2026-04-23T12:22:56.999Z</time></trkpt><trkpt lat="44.914589203726976" lon="9.300841495711872"><ele>343.0</ele><time>2026-04-23T12:22:57.999Z</time></trkpt><trkpt lat="44.914478839285984" lon="9.30093455435448"><ele>343.0</ele><time>2026-04-23T12:22:58.999Z</time></trkpt><trkpt lat="44.91439149904442" lon="9.301085788335415"><ele>343.0</ele><time>2026-04-23T12:22:59.999Z</time></trkpt><trkpt lat="44.914301313906655" lon="9.301208177433027"><ele>343.0</ele><time>2026-04-23T12:23:00.999Z</time></trkpt><trkpt lat="44.914222206706796" lon="9.301330811289064"><ele>343.0</ele><time>2026-04-23T12:23:01.999Z</time></trkpt><trkpt lat="44.91414477093369" lon="9.30144535967149"><ele>346.2</ele><time>2026-04-23T12:23:02.999Z</time></trkpt><trkpt lat="44.91407392674374" lon="9.30154714541679"><ele>349.4</ele><time>2026-04-23T12:23:03.999Z</time></trkpt><trkpt lat="44.91400015577911" lon="9.30164762755866"><ele>352.59999999999997</ele><time>2026-04-23T12:23:04.999Z</time></trkpt><trkpt lat="44.91392757894156" lon="9.301736110245812"><ele>355.79999999999995</ele><time>2026-04-23T12:23:05.999Z</time></trkpt><trkpt lat="44.91385104130703" lon="9.301814317467155"><ele>359.0</ele><time>2026-04-23T12:23:06.999Z</time></trkpt><trkpt lat="44.91377392759254" lon="9.301893990159245"><ele>359.0</ele><time>2026-04-23T12:23:07.999Z</time></trkpt><trkpt lat="44.913710585470135" lon="9.301960538208249"><ele>359.0</ele><time>2026-04-23T12:23:08.999Z</time></trkpt><trkpt lat="44.91366237888914" lon="9.30202518061025"><ele>359.0</ele><time>2026-04-23T12:23:10.001Z</time></trkpt><trkpt lat="44.913587412473795" lon="9.302074087083708"><ele>359.0</ele><time>2026-04-23T12:23:11.001Z</time></trkpt><trkpt lat="44.913532299048576" lon="9.302123816975378"><ele>359.0</ele><time>2026-04-23T12:23:12.001Z</time></trkpt><trkpt lat="44.913463045154614" lon="9.302198682716625"><ele>359.0</ele><time>2026-04-23T12:23:14.001Z</time></trkpt><trkpt lat="44.913412433986785" lon="9.302283895236412"><ele>361.5</ele><time>2026-04-23T12:23:16.001Z</time></trkpt><trkpt lat="44.91334902199781" lon="9.30237575313746"><ele>364.0</ele><time>2026-04-23T12:23:18.001Z</time></trkpt><trkpt lat="44.91331713139802" lon="9.302482233864227"><ele>366.5</ele><time>2026-04-23T12:23:19.001Z</time></trkpt><trkpt lat="44.91328320922152" lon="9.302593846173577"><ele>369.0</ele><time>2026-04-23T12:23:20Z</time></trkpt><trkpt lat="44.91324128222879" lon="9.302693240755898"><ele>371.5</ele><time>2026-04-23T12:23:21Z</time></trkpt><trkpt lat="44.91321153345974" lon="9.302799939510344"><ele>374.0</ele><time>2026-04-23T12:23:22Z</time></trkpt><trkpt lat="44.91318448377901" lon="9.30289808927378"><ele>374.0</ele><time>2026-04-23T12:23:23Z</time></trkpt><trkpt lat="44.913155070988765" lon="9.30300052955078"><ele>374.0</ele><time>2026-04-23T12:23:24Z</time></trkpt><trkpt lat="44.91312522774832" lon="9.303097073027585"><ele>374.0</ele><time>2026-04-23T12:23:25Z</time></trkpt><trkpt lat="44.913102280577476" lon="9.30318628245754"><ele>374.0</ele><time>2026-04-23T12:23:26Z</time></trkpt><trkpt lat="44.91303111037133" lon="9.303325970300943"><ele>374.0</ele><time>2026-04-23T12:23:28Z</time></trkpt><trkpt lat="44.9129641943299" lon="9.303456547364572"><ele>374.0</ele><time>2026-04-23T12:23:30Z</time></trkpt><trkpt lat="44.912909729873284" lon="9.30360356409941"><ele>374.0</ele><time>2026-04-23T12:23:32Z</time></trkpt><trkpt lat="44.91288010434169" lon="9.303697286313284"><ele>374.0</ele><time>2026-04-23T12:23:33Z</time></trkpt><trkpt lat="44.91285287137489" lon="9.303807593413865"><ele>374.0</ele><time>2026-04-23T12:23:34Z</time></trkpt><trkpt lat="44.91282474139074" lon="9.303910941291035"><ele>374.0</ele><time>2026-04-23T12:23:35Z</time></trkpt><trkpt lat="44.91279078239424" lon="9.304022412468909"><ele>374.0</ele><time>2026-04-23T12:23:36Z</time></trkpt><trkpt lat="44.912752204060226" lon="9.304128772489909"><ele>374.0</ele><time>2026-04-23T12:23:37Z</time></trkpt><trkpt lat="44.912701316164394" lon="9.304222343248451"><ele>374.0</ele><time>2026-04-23T12:23:38Z</time></trkpt><trkpt lat="44.912635003071166" lon="9.30430722203143"><ele>374.0</ele><time>2026-04-23T12:23:39Z</time></trkpt><trkpt lat="44.91256289503897" lon="9.304378602447395"><ele>374.0</ele><time>2026-04-23T12:23:40Z</time></trkpt><trkpt lat="44.91249618028358" lon="9.304438991719147"><ele>374.0</ele><time>2026-04-23T12:23:41Z</time></trkpt><trkpt lat="44.91242647677267" lon="9.304496336568363"><ele>374.0</ele><time>2026-04-23T12:23:42Z</time></trkpt><trkpt lat="44.912350005177714" lon="9.304545319076587"><ele>371.5</ele><time>2026-04-23T12:23:43Z</time></trkpt><trkpt lat="44.91226881159356" lon="9.304600879008385"><ele>369.0</ele><time>2026-04-23T12:23:44Z</time></trkpt><trkpt lat="44.9121912350967" lon="9.304657551242338"><ele>366.5</ele><time>2026-04-23T12:23:45Z</time></trkpt><trkpt lat="44.912119123211454" lon="9.304724671149952"><ele>364.0</ele><time>2026-04-23T12:23:46Z</time></trkpt><trkpt lat="44.91206035556438" lon="9.304812848504632"><ele>361.5</ele><time>2026-04-23T12:23:47Z</time></trkpt><trkpt lat="44.91201523122126" lon="9.304912120017416"><ele>359.0</ele><time>2026-04-23T12:23:48Z</time></trkpt><trkpt lat="44.91196293191641" lon="9.305001876937972"><ele>358.7142857142857</ele><time>2026-04-23T12:23:49Z</time></trkpt><trkpt lat="44.91192792415255" lon="9.305090064744196"><ele>358.42857142857144</ele><time>2026-04-23T12:23:50Z</time></trkpt><trkpt lat="44.91189316623293" lon="9.30517762331207"><ele>358.1428571428571</ele><time>2026-04-23T12:23:51Z</time></trkpt><trkpt lat="44.91185891168674" lon="9.305267021365331"><ele>357.8571428571429</ele><time>2026-04-23T12:23:52Z</time></trkpt><trkpt lat="44.91182562648468" lon="9.305355276719975"><ele>357.57142857142856</ele><time>2026-04-23T12:23:53Z</time></trkpt><trkpt lat="44.911792710587335" lon="9.30544165359907"><ele>357.2857142857143</ele><time>2026-04-23T12:23:54Z</time></trkpt><trkpt lat="44.911761346282994" lon="9.305522597521428"><ele>357.0</ele><time>2026-04-23T12:23:55Z</time></trkpt><trkpt lat="44.91171804240259" lon="9.30563984165405"><ele>355.3333333333333</ele><time>2026-04-23T12:23:57Z</time></trkpt><trkpt lat="44.911609729378995" lon="9.305658037669199"><ele>353.6666666666667</ele><time>2026-04-23T12:23:59Z</time></trkpt><trkpt lat="44.911530759887405" lon="9.305643489735939"><ele>352.0</ele><time>2026-04-23T12:24:00Z</time></trkpt><trkpt lat="44.91144974503225" lon="9.305648682337685"><ele>350.33333333333337</ele><time>2026-04-23T12:24:01Z</time></trkpt><trkpt lat="44.91137303098013" lon="9.305637760326093"><ele>348.6666666666667</ele><time>2026-04-23T12:24:02Z</time></trkpt><trkpt lat="44.91130898169725" lon="9.305632189851758"><ele>347.0</ele><time>2026-04-23T12:24:03Z</time></trkpt><trkpt lat="44.911214128317134" lon="9.305593382452072"><ele>347.0</ele><time>2026-04-23T12:24:05Z</time></trkpt><trkpt lat="44.91120007244224" lon="9.305450889016152"><ele>347.0</ele><time>2026-04-23T12:24:06Z</time></trkpt><trkpt lat="44.91116172425427" lon="9.30530255674308"><ele>347.0</ele><time>2026-04-23T12:24:07Z</time></trkpt><trkpt lat="44.91112045266075" lon="9.305136581689576"><ele>347.0</ele><time>2026-04-23T12:24:08Z</time></trkpt><trkpt lat="44.911086139247764" lon="9.304968616903002"><ele>347.0</ele><time>2026-04-23T12:24:09Z</time></trkpt><trkpt lat="44.91106898491417" lon="9.304756134002698"><ele>347.0</ele><time>2026-04-23T12:24:10Z</time></trkpt><trkpt lat="44.91107984274023" lon="9.304500455745995"><ele>347.0</ele><time>2026-04-23T12:24:11Z</time></trkpt><trkpt lat="44.91108842208935" lon="9.304235386779556"><ele>346.0</ele><time>2026-04-23T12:24:12Z</time></trkpt><trkpt lat="44.91108821044789" lon="9.303966708373677"><ele>345.0</ele><time>2026-04-23T12:24:13Z</time></trkpt><trkpt lat="44.91108787674561" lon="9.303689039510445"><ele>344.0</ele><time>2026-04-23T12:24:14Z</time></trkpt><trkpt lat="44.91109470393651" lon="9.30344411450769"><ele>342.75</ele><time>2026-04-23T12:24:15Z</time></trkpt><trkpt lat="44.91111382394776" lon="9.303226951047414"><ele>341.5</ele><time>2026-04-23T12:24:16Z</time></trkpt><trkpt lat="44.911149276412274" lon="9.303037407327157"><ele>340.25</ele><time>2026-04-23T12:24:17Z</time></trkpt><trkpt lat="44.91121012785359" lon="9.302847910812966"><ele>339.0</ele><time>2026-04-23T12:24:18Z</time></trkpt><trkpt lat="44.91130433834049" lon="9.302663458726268"><ele>339.0</ele><time>2026-04-23T12:24:19Z</time></trkpt><trkpt lat="44.91140690525741" lon="9.302498457754764"><ele>339.0</ele><time>2026-04-23T12:24:20Z</time></trkpt><trkpt lat="44.91147381837729" lon="9.302300680360904"><ele>339.0</ele><time>2026-04-23T12:24:21Z</time></trkpt><trkpt lat="44.9114809956627" lon="9.30208551242338"><ele>338.3333333333333</ele><time>2026-04-23T12:24:22Z</time></trkpt><trkpt lat="44.911454154268604" lon="9.301864298500401"><ele>337.66666666666663</ele><time>2026-04-23T12:24:23Z</time></trkpt><trkpt lat="44.91139991944342" lon="9.301634212963984"><ele>337.0</ele><time>2026-04-23T12:24:24Z</time></trkpt><trkpt lat="44.91132920904575" lon="9.301400543445952"><ele>337.0</ele><time>2026-04-23T12:24:25Z</time></trkpt><trkpt lat="44.91126232686471" lon="9.301175041103386"><ele>337.0</ele><time>2026-04-23T12:24:26Z</time></trkpt><trkpt lat="44.91120878904398" lon="9.300960756226466"><ele>337.0</ele><time>2026-04-23T12:24:27Z</time></trkpt><trkpt lat="44.91118372638095" lon="9.300749098664841"><ele>334.66666666666663</ele><time>2026-04-23T12:24:28Z</time></trkpt><trkpt lat="44.91119875505931" lon="9.300538050914366"><ele>332.3333333333333</ele><time>2026-04-23T12:24:29Z</time></trkpt><trkpt lat="44.91124841235449" lon="9.3003260196827"><ele>330.0</ele><time>2026-04-23T12:24:30Z</time></trkpt><trkpt lat="44.911339485713846" lon="9.300133279209007"><ele>330.0</ele><time>2026-04-23T12:24:31Z</time></trkpt><trkpt lat="44.91145338713117" lon="9.299954897438464"><ele>330.0</ele><time>2026-04-23T12:24:32Z</time></trkpt><trkpt lat="44.911585266442685" lon="9.299803325659802"><ele>330.0</ele><time>2026-04-23T12:24:33Z</time></trkpt><trkpt lat="44.91170990296079" lon="9.299638247061626"><ele>328.6666666666667</ele><time>2026-04-23T12:24:34Z</time></trkpt><trkpt lat="44.91180360108993" lon="9.299435131987533"><ele>327.33333333333337</ele><time>2026-04-23T12:24:35Z</time></trkpt><trkpt lat="44.911877680049805" lon="9.299217353711947"><ele>326.0</ele><time>2026-04-23T12:24:35.999Z</time></trkpt><trkpt lat="44.91194011993292" lon="9.29899566305042"><ele>326.5</ele><time>2026-04-23T12:24:36.999Z</time></trkpt><trkpt lat="44.91198720899124" lon="9.298782919812272"><ele>327.0</ele><time>2026-04-23T12:24:37.999Z</time></trkpt><trkpt lat="44.912023643576234" lon="9.298588380845572"><ele>327.5</ele><time>2026-04-23T12:24:38.999Z</time></trkpt><trkpt lat="44.912031633885164" lon="9.298400122627505"><ele>328.0</ele><time>2026-04-23T12:24:39.999Z</time></trkpt><trkpt lat="44.912000436033104" lon="9.29823099055879"><ele>328.0</ele><time>2026-04-23T12:24:40.999Z</time></trkpt><trkpt lat="44.911932644189754" lon="9.298091881875843"><ele>328.0</ele><time>2026-04-23T12:24:41.999Z</time></trkpt><trkpt lat="44.91184084483539" lon="9.29797245281272"><ele>328.0</ele><time>2026-04-23T12:24:42.999Z</time></trkpt><trkpt lat="44.91172988716835" lon="9.297856062413421"><ele>328.0</ele><time>2026-04-23T12:24:43.999Z</time></trkpt><trkpt lat="44.91160721277534" lon="9.297739320767034"><ele>327.3333333333333</ele><time>2026-04-23T12:24:44.999Z</time></trkpt><trkpt lat="44.9114787932445" lon="9.297615613712438"><ele>326.6666666666667</ele><time>2026-04-23T12:24:45.999Z</time></trkpt><trkpt lat="44.91134845922753" lon="9.29748555578255"><ele>326.0</ele><time>2026-04-23T12:24:46.999Z</time></trkpt><trkpt lat="44.91121705453674" lon="9.297354003129152"><ele>325.75</ele><time>2026-04-23T12:24:47.999Z</time></trkpt><trkpt lat="44.91108838643037" lon="9.297229243353764"><ele>325.5</ele><time>2026-04-23T12:24:48.999Z</time></trkpt><trkpt lat="44.91096637070813" lon="9.297101124948378"><ele>325.25</ele><time>2026-04-23T12:24:49.999Z</time></trkpt><trkpt lat="44.91085107120721" lon="9.296988989378896"><ele>325.0</ele><time>2026-04-23T12:24:50.999Z</time></trkpt><trkpt lat="44.91076385361878" lon="9.296892525926962"><ele>325.0</ele><time>2026-04-23T12:24:51.999Z</time></trkpt><trkpt lat="44.91070391835842" lon="9.296762218006645"><ele>325.0</ele><time>2026-04-23T12:24:52.999Z</time></trkpt><trkpt lat="44.91068082323548" lon="9.296582064151032"><ele>325.0</ele><time>2026-04-23T12:24:53.999Z</time></trkpt><trkpt lat="44.91070080100316" lon="9.296402385805244"><ele>325.0</ele><time>2026-04-23T12:24:54.999Z</time></trkpt><trkpt lat="44.91076919866471" lon="9.296218661302488"><ele>325.0</ele><time>2026-04-23T12:24:55.999Z</time></trkpt><trkpt lat="44.91084084272934" lon="9.29601740817936"><ele>325.0</ele><time>2026-04-23T12:24:56.999Z</time></trkpt><trkpt lat="44.91089194652941" lon="9.295809904606388"><ele>325.0</ele><time>2026-04-23T12:24:57.999Z</time></trkpt><trkpt lat="44.91093168456984" lon="9.295610615586513"><ele>330.3333333333333</ele><time>2026-04-23T12:24:58.999Z</time></trkpt><trkpt lat="44.91094890918527" lon="9.295406474625539"><ele>335.6666666666667</ele><time>2026-04-23T12:24:59.999Z</time></trkpt><trkpt lat="44.91094793648242" lon="9.295187044461931"><ele>341.0</ele><time>2026-04-23T12:25:00.999Z</time></trkpt><trkpt lat="44.91093082593557" lon="9.294956435342531"><ele>337.33333333333337</ele><time>2026-04-23T12:25:01.999Z</time></trkpt><trkpt lat="44.910902789965256" lon="9.294721503404162"><ele>333.6666666666667</ele><time>2026-04-23T12:25:02.999Z</time></trkpt><trkpt lat="44.91086554260427" lon="9.294485433688822"><ele>330.0</ele><time>2026-04-23T12:25:03.999Z</time></trkpt><trkpt lat="44.91082659051621" lon="9.29425421377197"><ele>330.0</ele><time>2026-04-23T12:25:04.999Z</time></trkpt><trkpt lat="44.91079155438329" lon="9.294029024902345"><ele>330.0</ele><time>2026-04-23T12:25:05.999Z</time></trkpt><trkpt lat="44.91076319224316" lon="9.293807939524731"><ele>330.0</ele><time>2026-04-23T12:25:06.999Z</time></trkpt><trkpt lat="44.9107341952739" lon="9.293590210878737"><ele>329.6666666666667</ele><time>2026-04-23T12:25:07.999Z</time></trkpt><trkpt lat="44.910704007319616" lon="9.293376095455793"><ele>329.33333333333337</ele><time>2026-04-23T12:25:08.999Z</time></trkpt><trkpt lat="44.91067835076517" lon="9.293167342031337"><ele>329.0</ele><time>2026-04-23T12:25:09.999Z</time></trkpt><trkpt lat="44.91064874044332" lon="9.292960447602931"><ele>331.33333333333337</ele><time>2026-04-23T12:25:10.999Z</time></trkpt><trkpt lat="44.91061150328369" lon="9.292760656926053"><ele>333.6666666666667</ele><time>2026-04-23T12:25:11.999Z</time></trkpt><trkpt lat="44.910551622527066" lon="9.292559603608249"><ele>336.0</ele><time>2026-04-23T12:25:12.999Z</time></trkpt><trkpt lat="44.91045281875976" lon="9.292371213577061"><ele>337.5</ele><time>2026-04-23T12:25:13.999Z</time></trkpt><trkpt lat="44.9103315486177" lon="9.292226454211807"><ele>339.0</ele><time>2026-04-23T12:25:14.999Z</time></trkpt><trkpt lat="44.91022626638628" lon="9.292085896859705"><ele>340.5</ele><time>2026-04-23T12:25:16Z</time></trkpt><trkpt lat="44.91015619933447" lon="9.291918051276776"><ele>342.0</ele><time>2026-04-23T12:25:17Z</time></trkpt><trkpt lat="44.91009856516803" lon="9.291737797562556"><ele>338.75</ele><time>2026-04-23T12:25:18Z</time></trkpt><trkpt lat="44.910053903474385" lon="9.29152813034169"><ele>335.5</ele><time>2026-04-23T12:25:19Z</time></trkpt><trkpt lat="44.91001540617287" lon="9.291331267718656"><ele>332.25</ele><time>2026-04-23T12:25:20Z</time></trkpt><trkpt lat="44.90998454376151" lon="9.291163263634099"><ele>329.0</ele><time>2026-04-23T12:25:21Z</time></trkpt><trkpt lat="44.90996456774442" lon="9.291021450089167"><ele>329.0</ele><time>2026-04-23T12:25:22Z</time></trkpt><trkpt lat="44.90995016362549" lon="9.290891736337228"><ele>329.0</ele><time>2026-04-23T12:25:23Z</time></trkpt><trkpt lat="44.90994591188964" lon="9.290779521036937"><ele>329.0</ele><time>2026-04-23T12:25:24Z</time></trkpt><trkpt lat="44.9099577316217" lon="9.290685661738573"><ele>329.0</ele><time>2026-04-23T12:25:25Z</time></trkpt><trkpt lat="44.91000271048766" lon="9.29059988345737"><ele>329.0</ele><time>2026-04-23T12:25:27Z</time></trkpt><trkpt lat="44.910024711588086" lon="9.290516038671347"><ele>329.0</ele><time>2026-04-23T12:25:34Z</time></trkpt><trkpt lat="44.9100434697619" lon="9.290354875013644"><ele>329.0</ele><time>2026-04-23T12:26:33.999Z</time></trkpt><trkpt lat="44.910065210294796" lon="9.290236059566608"><ele>329.0</ele><time>2026-04-23T12:26:34.999Z</time></trkpt><trkpt lat="44.910105716132634" lon="9.290099579762087"><ele>329.0</ele><time>2026-04-23T12:26:35.999Z</time></trkpt><trkpt lat="44.91015810551432" lon="9.289951872845428"><ele>329.0</ele><time>2026-04-23T12:26:36.999Z</time></trkpt><trkpt lat="44.9102188020166" lon="9.289814284780391"><ele>329.0</ele><time>2026-04-23T12:26:37.999Z</time></trkpt><trkpt lat="44.91030248463234" lon="9.28968797062441"><ele>333.25</ele><time>2026-04-23T12:26:38.999Z</time></trkpt><trkpt lat="44.91041978219747" lon="9.289587195920012"><ele>337.5</ele><time>2026-04-23T12:26:39.999Z</time></trkpt><trkpt lat="44.91054038802578" lon="9.289460579627253"><ele>341.75</ele><time>2026-04-23T12:26:40.999Z</time></trkpt><trkpt lat="44.91064846539737" lon="9.28932514050148"><ele>346.0</ele><time>2026-04-23T12:26:41.999Z</time></trkpt><trkpt lat="44.91076107053791" lon="9.289140526561205"><ele>346.0</ele><time>2026-04-23T12:26:42.999Z</time></trkpt><trkpt lat="44.91086766588867" lon="9.288945809941781"><ele>346.0</ele><time>2026-04-23T12:26:43.999Z</time></trkpt><trkpt lat="44.91095974880775" lon="9.288768201058092"><ele>346.0</ele><time>2026-04-23T12:26:44.999Z</time></trkpt><trkpt lat="44.91106384960915" lon="9.288626554424502"><ele>347.75</ele><time>2026-04-23T12:26:45.999Z</time></trkpt><trkpt lat="44.911180440233785" lon="9.28848820357"><ele>349.5</ele><time>2026-04-23T12:26:46.999Z</time></trkpt><trkpt lat="44.91130392880271" lon="9.288390499468147"><ele>351.25</ele><time>2026-04-23T12:26:47.999Z</time></trkpt><trkpt lat="44.911435290300936" lon="9.288314652425473"><ele>353.0</ele><time>2026-04-23T12:26:48.999Z</time></trkpt><trkpt lat="44.91154572254621" lon="9.288242986593419"><ele>353.0</ele><time>2026-04-23T12:26:49.999Z</time></trkpt><trkpt lat="44.91166935385389" lon="9.288146156497337"><ele>353.0</ele><time>2026-04-23T12:26:50.999Z</time></trkpt><trkpt lat="44.91182015870994" lon="9.2880283037599"><ele>353.0</ele><time>2026-04-23T12:26:51.999Z</time></trkpt><trkpt lat="44.91193381273442" lon="9.28787380148681"><ele>354.0</ele><time>2026-04-23T12:26:52.999Z</time></trkpt><trkpt lat="44.91201725637045" lon="9.287727935635598"><ele>355.0</ele><time>2026-04-23T12:26:53.999Z</time></trkpt><trkpt lat="44.91209439878203" lon="9.287590678482358"><ele>356.0</ele><time>2026-04-23T12:26:54.999Z</time></trkpt><trkpt lat="44.912152410307364" lon="9.287466608151348"><ele>357.0</ele><time>2026-04-23T12:26:55.999Z</time></trkpt><trkpt lat="44.91217717455505" lon="9.287348372381741"><ele>358.0</ele><time>2026-04-23T12:26:56.999Z</time></trkpt><trkpt lat="44.912154047793635" lon="9.287236088683647"><ele>358.16666666666663</ele><time>2026-04-23T12:26:57.999Z</time></trkpt><trkpt lat="44.91209323389033" lon="9.287149789307593"><ele>358.3333333333333</ele><time>2026-04-23T12:26:58.999Z</time></trkpt><trkpt lat="44.91203096745946" lon="9.287056468813006"><ele>358.5</ele><time>2026-04-23T12:26:59.999Z</time></trkpt><trkpt lat="44.911971366132924" lon="9.286971323894063"><ele>358.6666666666667</ele><time>2026-04-23T12:27:00.999Z</time></trkpt><trkpt lat="44.91190782104787" lon="9.286907831709323"><ele>358.83333333333337</ele><time>2026-04-23T12:27:01.999Z</time></trkpt><trkpt lat="44.91182420176433" lon="9.286936734637683"><ele>359.0</ele><time>2026-04-23T12:27:02.999Z</time></trkpt><trkpt lat="44.9117243392726" lon="9.287012222425401"><ele>356.25</ele><time>2026-04-23T12:27:03.999Z</time></trkpt><trkpt lat="44.91165594593797" lon="9.287177095629142"><ele>353.5</ele><time>2026-04-23T12:27:04.999Z</time></trkpt><trkpt lat="44.911592979920115" lon="9.287311408439994"><ele>350.75</ele><time>2026-04-23T12:27:05.999Z</time></trkpt><trkpt lat="44.911501122742614" lon="9.287406626904115"><ele>348.0</ele><time>2026-04-23T12:27:06.999Z</time></trkpt><trkpt lat="44.91138592220674" lon="9.28748044656202"><ele>348.0</ele><time>2026-04-23T12:27:07.999Z</time></trkpt><trkpt lat="44.91128025852904" lon="9.287530329383202"><ele>348.0</ele><time>2026-04-23T12:27:08.999Z</time></trkpt><trkpt lat="44.91116778029559" lon="9.287575984606486"><ele>348.0</ele><time>2026-04-23T12:27:09.999Z</time></trkpt><trkpt lat="44.9110246938389" lon="9.287613971568566"><ele>348.0</ele><time>2026-04-23T12:27:10.999Z</time></trkpt><trkpt lat="44.91088436978806" lon="9.287670060060966"><ele>353.75</ele><time>2026-04-23T12:27:11.999Z</time></trkpt><trkpt lat="44.91075161352937" lon="9.287740748073816"><ele>359.5</ele><time>2026-04-23T12:27:12.999Z</time></trkpt><trkpt lat="44.91062031976628" lon="9.287836977293562"><ele>365.25</ele><time>2026-04-23T12:27:13.999Z</time></trkpt><trkpt lat="44.91049067238376" lon="9.287934168224456"><ele>371.0</ele><time>2026-04-23T12:27:14.999Z</time></trkpt><trkpt lat="44.91036090816117" lon="9.28804412577252"><ele>368.25</ele><time>2026-04-23T12:27:15.999Z</time></trkpt><trkpt lat="44.91025273984425" lon="9.288174060812599"><ele>365.5</ele><time>2026-04-23T12:27:16.999Z</time></trkpt><trkpt lat="44.91016735944942" lon="9.288312092257645"><ele>362.75</ele><time>2026-04-23T12:27:17.999Z</time></trkpt><trkpt lat="44.91009042595443" lon="9.288450539275438"><ele>360.0</ele><time>2026-04-23T12:27:18.999Z</time></trkpt><trkpt lat="44.909996266869946" lon="9.288585548367521"><ele>360.0</ele><time>2026-04-23T12:27:19.999Z</time></trkpt><trkpt lat="44.90991051806729" lon="9.288657230518407"><ele>360.0</ele><time>2026-04-23T12:27:20.999Z</time></trkpt><trkpt lat="44.90981848894392" lon="9.288710810652091"><ele>360.0</ele><time>2026-04-23T12:27:22Z</time></trkpt><trkpt lat="44.909740088566856" lon="9.288643107434476"><ele>360.0</ele><time>2026-04-23T12:27:23Z</time></trkpt><trkpt lat="44.90966467687512" lon="9.288570700176018"><ele>360.0</ele><time>2026-04-23T12:27:24Z</time></trkpt><trkpt lat="44.9096008819282" lon="9.288406477886692"><ele>360.0</ele><time>2026-04-23T12:27:25Z</time></trkpt><trkpt lat="44.90954246174446" lon="9.288229868104137"><ele>360.0</ele><time>2026-04-23T12:27:26Z</time></trkpt><trkpt lat="44.90949147303554" lon="9.288112561409955"><ele>360.0</ele><time>2026-04-23T12:27:27Z</time></trkpt><trkpt lat="44.909411258199796" lon="9.288049620542441"><ele>360.0</ele><time>2026-04-23T12:27:28Z</time></trkpt><trkpt lat="44.909322661280065" lon="9.288009707511618"><ele>360.0</ele><time>2026-04-23T12:27:29Z</time></trkpt><trkpt lat="44.9092488034469" lon="9.287958549522251"><ele>360.8</ele><time>2026-04-23T12:27:30Z</time></trkpt><trkpt lat="44.909191028246504" lon="9.287860716161187"><ele>361.6</ele><time>2026-04-23T12:27:31Z</time></trkpt><trkpt lat="44.909188563057214" lon="9.287727120020104"><ele>362.4</ele><time>2026-04-23T12:27:32Z</time></trkpt><trkpt lat="44.90923167769477" lon="9.287584458450553"><ele>363.2</ele><time>2026-04-23T12:27:33Z</time></trkpt><trkpt lat="44.909309028439" lon="9.28744622322733"><ele>364.0</ele><time>2026-04-23T12:27:34Z</time></trkpt><trkpt lat="44.90938597914681" lon="9.287275462781022"><ele>373.75</ele><time>2026-04-23T12:27:35Z</time></trkpt><trkpt lat="44.90944732925436" lon="9.287104078129849"><ele>383.5</ele><time>2026-04-23T12:27:36Z</time></trkpt><trkpt lat="44.909481475102936" lon="9.286933113795621"><ele>393.25</ele><time>2026-04-23T12:27:37Z</time></trkpt><trkpt lat="44.90948834610534" lon="9.286754541803555"><ele>403.0</ele><time>2026-04-23T12:27:38Z</time></trkpt><trkpt lat="44.90945239390872" lon="9.286603712909692"><ele>403.0</ele><time>2026-04-23T12:27:39Z</time></trkpt><trkpt lat="44.909337078525084" lon="9.28652710886317"><ele>403.0</ele><time>2026-04-23T12:27:40Z</time></trkpt><trkpt lat="44.90920981536214" lon="9.28650003304169"><ele>403.0</ele><time>2026-04-23T12:27:41Z</time></trkpt><trkpt lat="44.90910785300001" lon="9.28651369946003"><ele>403.0</ele><time>2026-04-23T12:27:42Z</time></trkpt><trkpt lat="44.90901929565579" lon="9.286474271735772"><ele>399.33333333333337</ele><time>2026-04-23T12:27:43Z</time></trkpt><trkpt lat="44.90890966882778" lon="9.286374672187161"><ele>395.66666666666663</ele><time>2026-04-23T12:27:45Z</time></trkpt><trkpt lat="44.90894669190523" lon="9.286073201388948"><ele>392.0</ele><time>2026-04-23T12:27:46Z</time></trkpt><trkpt lat="44.90897330809102" lon="9.285922614419578"><ele>392.0</ele><time>2026-04-23T12:27:47Z</time></trkpt><trkpt lat="44.90892235696783" lon="9.285797165741487"><ele>392.0</ele><time>2026-04-23T12:27:48Z</time></trkpt><trkpt lat="44.90884816272804" lon="9.285713594751389"><ele>392.0</ele><time>2026-04-23T12:27:49Z</time></trkpt><trkpt lat="44.90874317283452" lon="9.285710781567733"><ele>392.0</ele><time>2026-04-23T12:27:50Z</time></trkpt><trkpt lat="44.9086392801722" lon="9.285766649996665"><ele>392.0</ele><time>2026-04-23T12:27:51Z</time></trkpt><trkpt lat="44.90854157664047" lon="9.28587310960193"><ele>392.0</ele><time>2026-04-23T12:27:52Z</time></trkpt><trkpt lat="44.90844409230827" lon="9.285990641240126"><ele>392.0</ele><time>2026-04-23T12:27:53Z</time></trkpt><trkpt lat="44.90835070259834" lon="9.28609711344033"><ele>392.0</ele><time>2026-04-23T12:27:54Z</time></trkpt><trkpt lat="44.90826726708561" lon="9.286208834490651"><ele>392.0</ele><time>2026-04-23T12:27:55Z</time></trkpt><trkpt lat="44.90820795891997" lon="9.286276169769444"><ele>392.0</ele><time>2026-04-23T12:27:56Z</time></trkpt><trkpt lat="44.908133824975835" lon="9.286358867954696"><ele>390.0</ele><time>2026-04-23T12:27:57Z</time></trkpt><trkpt lat="44.90803241494338" lon="9.28639150874563"><ele>388.0</ele><time>2026-04-23T12:27:58Z</time></trkpt><trkpt lat="44.90792363535842" lon="9.286344283521363"><ele>386.0</ele><time>2026-04-23T12:27:59Z</time></trkpt><trkpt lat="44.907834994538746" lon="9.28625935119726"><ele>384.0</ele><time>2026-04-23T12:28:00Z</time></trkpt><trkpt lat="44.90774039046953" lon="9.286136865390347"><ele>384.0</ele><time>2026-04-23T12:28:01Z</time></trkpt><trkpt lat="44.907619177951666" lon="9.286052141597134"><ele>384.0</ele><time>2026-04-23T12:28:02Z</time></trkpt><trkpt lat="44.90745998613018" lon="9.285973466804451"><ele>384.0</ele><time>2026-04-23T12:28:03Z</time></trkpt><trkpt lat="44.90726324735284" lon="9.285949826966549"><ele>384.0</ele><time>2026-04-23T12:28:04Z</time></trkpt><trkpt lat="44.90710395365294" lon="9.285890328342077"><ele>384.0</ele><time>2026-04-23T12:28:05Z</time></trkpt><trkpt lat="44.90696855547541" lon="9.285832466313165"><ele>384.0</ele><time>2026-04-23T12:28:06Z</time></trkpt><trkpt lat="44.90682994416152" lon="9.285799648900053"><ele>384.0</ele><time>2026-04-23T12:28:07Z</time></trkpt><trkpt lat="44.906700308960254" lon="9.285886056796352"><ele>384.25</ele><time>2026-04-23T12:28:08Z</time></trkpt><trkpt lat="44.90658424790557" lon="9.286022851007624"><ele>384.5</ele><time>2026-04-23T12:28:09Z</time></trkpt><trkpt lat="44.9064791678281" lon="9.286170393562971"><ele>384.75</ele><time>2026-04-23T12:28:10Z</time></trkpt><trkpt lat="44.90641611583401" lon="9.286293541170963"><ele>385.0</ele><time>2026-04-23T12:28:11Z</time></trkpt><trkpt lat="44.906296228176885" lon="9.286351261305404"><ele>385.0</ele><time>2026-04-23T12:28:12Z</time></trkpt><trkpt lat="44.906162326487504" lon="9.286306880638284"><ele>385.0</ele><time>2026-04-23T12:28:13Z</time></trkpt><trkpt lat="44.90604265614114" lon="9.28628957666767"><ele>385.0</ele><time>2026-04-23T12:28:14Z</time></trkpt><trkpt lat="44.90590988720461" lon="9.286183236802142"><ele>385.0</ele><time>2026-04-23T12:28:15Z</time></trkpt><trkpt lat="44.90578152915004" lon="9.286104768290029"><ele>387.0</ele><time>2026-04-23T12:28:16Z</time></trkpt><trkpt lat="44.90562994890797" lon="9.286054132613495"><ele>389.0</ele><time>2026-04-23T12:28:17Z</time></trkpt><trkpt lat="44.905496319797706" lon="9.285996136469993"><ele>391.0</ele><time>2026-04-23T12:28:18Z</time></trkpt><trkpt lat="44.905354847625006" lon="9.28592386370902"><ele>393.0</ele><time>2026-04-23T12:28:19Z</time></trkpt><trkpt lat="44.90522696950763" lon="9.285854741692397"><ele>393.0</ele><time>2026-04-23T12:28:19.999Z</time></trkpt><trkpt lat="44.905106926814774" lon="9.285780100697771"><ele>393.0</ele><time>2026-04-23T12:28:20.999Z</time></trkpt><trkpt lat="44.904979976697554" lon="9.285705194947049"><ele>393.0</ele><time>2026-04-23T12:28:21.999Z</time></trkpt><trkpt lat="44.90485965704412" lon="9.28563687769471"><ele>393.0</ele><time>2026-04-23T12:28:22.999Z</time></trkpt><trkpt lat="44.904748786329314" lon="9.285606374083722"><ele>391.59999999999997</ele><time>2026-04-23T12:28:23.999Z</time></trkpt><trkpt lat="44.904620747171165" lon="9.285627257627896"><ele>390.2</ele><time>2026-04-23T12:28:24.999Z</time></trkpt><trkpt lat="44.90451223760389" lon="9.285671092515022"><ele>388.8</ele><time>2026-04-23T12:28:25.999Z</time></trkpt><trkpt lat="44.904419131241326" lon="9.28572503198046"><ele>387.4</ele><time>2026-04-23T12:28:26.999Z</time></trkpt><trkpt lat="44.90432379613598" lon="9.28578563687378"><ele>386.0</ele><time>2026-04-23T12:28:27.999Z</time></trkpt><trkpt lat="44.904236686228565" lon="9.285808360981582"><ele>385.66666666666663</ele><time>2026-04-23T12:28:28.999Z</time></trkpt><trkpt lat="44.90416805548691" lon="9.285857374667305"><ele>385.3333333333333</ele><time>2026-04-23T12:28:29.999Z</time></trkpt><trkpt lat="44.90410840938617" lon="9.285898593981806"><ele>385.0</ele><time>2026-04-23T12:28:30.999Z</time></trkpt><trkpt lat="44.90402651927592" lon="9.285946755886368"><ele>384.66666666666663</ele><time>2026-04-23T12:28:32.999Z</time></trkpt><trkpt lat="44.90395426332827" lon="9.285956247905062"><ele>384.3333333333333</ele><time>2026-04-23T12:28:36.999Z</time></trkpt><trkpt lat="44.90387801801896" lon="9.285978925680004"><ele>384.0</ele><time>2026-04-23T12:28:39.999Z</time></trkpt><trkpt lat="44.903756320503824" lon="9.286017717177847"><ele>384.0</ele><time>2026-04-23T12:28:41.999Z</time></trkpt><trkpt lat="44.90367956167743" lon="9.286021452350925"><ele>384.0</ele><time>2026-04-23T12:28:42.999Z</time></trkpt><trkpt lat="44.90359441581779" lon="9.286017063503186"><ele>384.0</ele><time>2026-04-23T12:28:43.999Z</time></trkpt><trkpt lat="44.90351012971456" lon="9.286030100997365"><ele>384.0</ele><time>2026-04-23T12:28:44.999Z</time></trkpt><trkpt lat="44.903430349933615" lon="9.286045949696359"><ele>384.0</ele><time>2026-04-23T12:28:45.999Z</time></trkpt><trkpt lat="44.9033422042816" lon="9.286031174955976"><ele>384.0</ele><time>2026-04-23T12:28:46.999Z</time></trkpt><trkpt lat="44.90325695105641" lon="9.28600036010728"><ele>383.0</ele><time>2026-04-23T12:28:47.999Z</time></trkpt><trkpt lat="44.90319388893046" lon="9.285939088687977"><ele>382.0</ele><time>2026-04-23T12:28:48.999Z</time></trkpt><trkpt lat="44.903134886153325" lon="9.285821897349575"><ele>381.0</ele><time>2026-04-23T12:28:49.999Z</time></trkpt><trkpt lat="44.90307707451911" lon="9.285707158416487"><ele>380.0</ele><time>2026-04-23T12:28:50.999Z</time></trkpt><trkpt lat="44.90304528233898" lon="9.285574757582053"><ele>379.0</ele><time>2026-04-23T12:28:51.999Z</time></trkpt><trkpt lat="44.90308343581513" lon="9.285400372556966"><ele>379.0</ele><time>2026-04-23T12:28:52.999Z</time></trkpt><trkpt lat="44.90313547245828" lon="9.285175253339442"><ele>379.0</ele><time>2026-04-23T12:28:53.999Z</time></trkpt><trkpt lat="44.903215054861576" lon="9.284962290781428"><ele>379.0</ele><time>2026-04-23T12:28:54.999Z</time></trkpt><trkpt lat="44.90331810918298" lon="9.284731522119552"><ele>377.3333333333333</ele><time>2026-04-23T12:28:55.999Z</time></trkpt><trkpt lat="44.90339486054124" lon="9.284496310430153"><ele>375.6666666666667</ele><time>2026-04-23T12:28:56.999Z</time></trkpt><trkpt lat="44.90348156507078" lon="9.284262383217719"><ele>374.0</ele><time>2026-04-23T12:28:57.999Z</time></trkpt><trkpt lat="44.90355960758941" lon="9.284062986712287"><ele>378.0</ele><time>2026-04-23T12:28:58.999Z</time></trkpt><trkpt lat="44.9036425495355" lon="9.283895817699712"><ele>382.0</ele><time>2026-04-23T12:28:59.999Z</time></trkpt><trkpt lat="44.90371186154103" lon="9.283747944825565"><ele>386.0</ele><time>2026-04-23T12:29:00.999Z</time></trkpt><trkpt lat="44.90375007260457" lon="9.283602066200855"><ele>390.0</ele><time>2026-04-23T12:29:01.999Z</time></trkpt><trkpt lat="44.90369359969539" lon="9.283440642324356"><ele>390.0</ele><time>2026-04-23T12:29:02.999Z</time></trkpt><trkpt lat="44.90362121522304" lon="9.283291227530086"><ele>390.0</ele><time>2026-04-23T12:29:03.999Z</time></trkpt><trkpt lat="44.903512627911816" lon="9.283150751510163"><ele>390.0</ele><time>2026-04-23T12:29:04.999Z</time></trkpt><trkpt lat="44.9033639384104" lon="9.283044533965569"><ele>390.0</ele><time>2026-04-23T12:29:05.999Z</time></trkpt><trkpt lat="44.903197272299" lon="9.282950214315711"><ele>389.33333333333337</ele><time>2026-04-23T12:29:06.999Z</time></trkpt><trkpt lat="44.90303575266398" lon="9.282836184068442"><ele>388.6666666666667</ele><time>2026-04-23T12:29:07.999Z</time></trkpt><trkpt lat="44.90287755842005" lon="9.282712089073668"><ele>388.0</ele><time>2026-04-23T12:29:08.999Z</time></trkpt><trkpt lat="44.902726140386235" lon="9.282598542815718"><ele>388.0</ele><time>2026-04-23T12:29:09.999Z</time></trkpt><trkpt lat="44.902583355838175" lon="9.282487619693406"><ele>388.0</ele><time>2026-04-23T12:29:10.999Z</time></trkpt><trkpt lat="44.90243796896583" lon="9.282393817004774"><ele>388.0</ele><time>2026-04-23T12:29:11.999Z</time></trkpt><trkpt lat="44.90230148364128" lon="9.28237975364522"><ele>385.25</ele><time>2026-04-23T12:29:12.999Z</time></trkpt><trkpt lat="44.90216844274024" lon="9.282414211870002"><ele>382.5</ele><time>2026-04-23T12:29:13.999Z</time></trkpt><trkpt lat="44.90204755276831" lon="9.282508432536176"><ele>379.75</ele><time>2026-04-23T12:29:14.999Z</time></trkpt><trkpt lat="44.901932364196455" lon="9.282660632560555"><ele>377.0</ele><time>2026-04-23T12:29:15.999Z</time></trkpt><trkpt lat="44.90182951851395" lon="9.28281524561022"><ele>377.5</ele><time>2026-04-23T12:29:16.999Z</time></trkpt><trkpt lat="44.90172775116607" lon="9.28294466010492"><ele>378.0</ele><time>2026-04-23T12:29:17.999Z</time></trkpt><trkpt lat="44.90161516161067" lon="9.283050087723836"><ele>378.5</ele><time>2026-04-23T12:29:18.999Z</time></trkpt><trkpt lat="44.90150219763375" lon="9.283114951578343"><ele>379.0</ele><time>2026-04-23T12:29:19.999Z</time></trkpt><trkpt lat="44.90136319945273" lon="9.283152095519586"><ele>379.0</ele><time>2026-04-23T12:29:20.999Z</time></trkpt><trkpt lat="44.901214060583754" lon="9.283137014175445"><ele>379.0</ele><time>2026-04-23T12:29:21.999Z</time></trkpt><trkpt lat="44.90106849035071" lon="9.28307380309455"><ele>379.0</ele><time>2026-04-23T12:29:22.999Z</time></trkpt><trkpt lat="44.90092533293155" lon="9.282956389116551"><ele>378.66666666666663</ele><time>2026-04-23T12:29:23.999Z</time></trkpt><trkpt lat="44.90078478271021" lon="9.282809095903904"><ele>378.3333333333333</ele><time>2026-04-23T12:29:24.999Z</time></trkpt><trkpt lat="44.90065479875321" lon="9.282662370468032"><ele>378.0</ele><time>2026-04-23T12:29:25.999Z</time></trkpt><trkpt lat="44.90051421362281" lon="9.282474407925411"><ele>378.0</ele><time>2026-04-23T12:29:26.999Z</time></trkpt><trkpt lat="44.90037395892972" lon="9.282275022339181"><ele>378.0</ele><time>2026-04-23T12:29:28Z</time></trkpt><trkpt lat="44.90022653503507" lon="9.282081118869552"><ele>378.0</ele><time>2026-04-23T12:29:29Z</time></trkpt><trkpt lat="44.900079415435314" lon="9.281887158580542"><ele>378.6666666666667</ele><time>2026-04-23T12:29:30Z</time></trkpt><trkpt lat="44.89993645601685" lon="9.28169569017746"><ele>379.33333333333337</ele><time>2026-04-23T12:29:31Z</time></trkpt><trkpt lat="44.89980940097306" lon="9.28151234610112"><ele>380.0</ele><time>2026-04-23T12:29:32Z</time></trkpt><trkpt lat="44.89969532072415" lon="9.281345082355076"><ele>380.0</ele><time>2026-04-23T12:29:33Z</time></trkpt><trkpt lat="44.89961362883669" lon="9.281152975365886"><ele>380.0</ele><time>2026-04-23T12:29:34Z</time></trkpt><trkpt lat="44.89956778199455" lon="9.280935926016747"><ele>380.0</ele><time>2026-04-23T12:29:35Z</time></trkpt><trkpt lat="44.8995543539733" lon="9.280711392509879"><ele>380.33333333333337</ele><time>2026-04-23T12:29:36Z</time></trkpt><trkpt lat="44.89953933856116" lon="9.280473608542106"><ele>380.6666666666667</ele><time>2026-04-23T12:29:37Z</time></trkpt><trkpt lat="44.899547607021695" lon="9.280256338717686"><ele>381.0</ele><time>2026-04-23T12:29:38Z</time></trkpt><trkpt lat="44.899544561051805" lon="9.280063942819313"><ele>381.0</ele><time>2026-04-23T12:29:39Z</time></trkpt><trkpt lat="44.89952691937366" lon="9.279896881401633"><ele>381.0</ele><time>2026-04-23T12:29:40Z</time></trkpt><trkpt lat="44.899463347417274" lon="9.279747307098665"><ele>381.0</ele><time>2026-04-23T12:29:41Z</time></trkpt><trkpt lat="44.89938572812273" lon="9.279628396246853"><ele>381.0</ele><time>2026-04-23T12:29:42Z</time></trkpt><trkpt lat="44.89927711545065" lon="9.279517229318271"><ele>379.3333333333333</ele><time>2026-04-23T12:29:43Z</time></trkpt><trkpt lat="44.89914505597091" lon="9.279419427249865"><ele>377.66666666666663</ele><time>2026-04-23T12:29:44Z</time></trkpt><trkpt lat="44.89899833092458" lon="9.279338606156848"><ele>376.0</ele><time>2026-04-23T12:29:45Z</time></trkpt><trkpt lat="44.89886430169278" lon="9.279257695696497"><ele>376.0</ele><time>2026-04-23T12:29:46Z</time></trkpt><trkpt lat="44.89875314659883" lon="9.27915620795489"><ele>376.0</ele><time>2026-04-23T12:29:47Z</time></trkpt><trkpt lat="44.89865184591495" lon="9.279046215180674"><ele>376.0</ele><time>2026-04-23T12:29:48Z</time></trkpt><trkpt lat="44.89853661388407" lon="9.27896991367865"><ele>376.0</ele><time>2026-04-23T12:29:49Z</time></trkpt><trkpt lat="44.89839825659127" lon="9.278943476357144"><ele>374.5</ele><time>2026-04-23T12:29:50Z</time></trkpt><trkpt lat="44.898248060734595" lon="9.278944442140284"><ele>373.0</ele><time>2026-04-23T12:29:51Z</time></trkpt><trkpt lat="44.89810002841239" lon="9.278937436719584"><ele>371.5</ele><time>2026-04-23T12:29:52Z</time></trkpt><trkpt lat="44.897954485525624" lon="9.278919956223307"><ele>370.0</ele><time>2026-04-23T12:29:53Z</time></trkpt><trkpt lat="44.897811844250285" lon="9.278908089262695"><ele>372.75</ele><time>2026-04-23T12:29:54Z</time></trkpt><trkpt lat="44.897668471069785" lon="9.278900185979383"><ele>375.5</ele><time>2026-04-23T12:29:55Z</time></trkpt><trkpt lat="44.89752758125603" lon="9.278875491651656"><ele>378.25</ele><time>2026-04-23T12:29:56Z</time></trkpt><trkpt lat="44.89739592561343" lon="9.278810128849464"><ele>381.0</ele><time>2026-04-23T12:29:57Z</time></trkpt><trkpt lat="44.89726495713596" lon="9.278718404959623"><ele>381.0</ele><time>2026-04-23T12:29:58Z</time></trkpt><trkpt lat="44.89712937792598" lon="9.278633741481723"><ele>381.0</ele><time>2026-04-23T12:29:59Z</time></trkpt><trkpt lat="44.8969921251646" lon="9.278541920283857"><ele>381.0</ele><time>2026-04-23T12:30:00Z</time></trkpt><trkpt lat="44.896853911077024" lon="9.278433439425482"><ele>377.6666666666667</ele><time>2026-04-23T12:30:01Z</time></trkpt><trkpt lat="44.896713842347545" lon="9.278325353362222"><ele>374.33333333333337</ele><time>2026-04-23T12:30:02Z</time></trkpt><trkpt lat="44.89657233067695" lon="9.278234156941302"><ele>371.0</ele><time>2026-04-23T12:30:03Z</time></trkpt><trkpt lat="44.89641906806819" lon="9.278128348459378"><ele>374.0</ele><time>2026-04-23T12:30:04Z</time></trkpt><trkpt lat="44.89627008204157" lon="9.277996797899663"><ele>377.0</ele><time>2026-04-23T12:30:05Z</time></trkpt><trkpt lat="44.89613019274473" lon="9.277872767157405"><ele>380.0</ele><time>2026-04-23T12:30:06Z</time></trkpt><trkpt lat="44.89599301562471" lon="9.277758690921354"><ele>377.75</ele><time>2026-04-23T12:30:07Z</time></trkpt><trkpt lat="44.89585464143313" lon="9.277659604126324"><ele>375.5</ele><time>2026-04-23T12:30:08Z</time></trkpt><trkpt lat="44.89572232400849" lon="9.277560565324867"><ele>373.25</ele><time>2026-04-23T12:30:09Z</time></trkpt><trkpt lat="44.89560338030837" lon="9.277458307215014"><ele>371.0</ele><time>2026-04-23T12:30:10Z</time></trkpt><trkpt lat="44.89551986826829" lon="9.277344158776874"><ele>372.75</ele><time>2026-04-23T12:30:11Z</time></trkpt><trkpt lat="44.8954749958874" lon="9.277194842657613"><ele>374.5</ele><time>2026-04-23T12:30:12Z</time></trkpt><trkpt lat="44.895475723367305" lon="9.277012962388307"><ele>376.25</ele><time>2026-04-23T12:30:13Z</time></trkpt><trkpt lat="44.895465082359365" lon="9.276803418480226"><ele>378.0</ele><time>2026-04-23T12:30:14Z</time></trkpt><trkpt lat="44.895445349453794" lon="9.276577819106196"><ele>379.25</ele><time>2026-04-23T12:30:15Z</time></trkpt><trkpt lat="44.89542202739676" lon="9.276366664606515"><ele>380.5</ele><time>2026-04-23T12:30:16Z</time></trkpt><trkpt lat="44.89539788952006" lon="9.276156603058086"><ele>381.75</ele><time>2026-04-23T12:30:17Z</time></trkpt><trkpt lat="44.89536226957226" lon="9.275969005754582"><ele>383.0</ele><time>2026-04-23T12:30:18Z</time></trkpt><trkpt lat="44.89529061614171" lon="9.275804581700108"><ele>383.0</ele><time>2026-04-23T12:30:18.999Z</time></trkpt><trkpt lat="44.895180756602485" lon="9.275669924154913"><ele>383.0</ele><time>2026-04-23T12:30:19.999Z</time></trkpt><trkpt lat="44.89505724146317" lon="9.275560659201535"><ele>383.0</ele><time>2026-04-23T12:30:20.999Z</time></trkpt><trkpt lat="44.89492667133114" lon="9.275445762864052"><ele>383.0</ele><time>2026-04-23T12:30:21.999Z</time></trkpt><trkpt lat="44.89479627580422" lon="9.275330177887284"><ele>387.0</ele><time>2026-04-23T12:30:22.999Z</time></trkpt><trkpt lat="44.89465946000531" lon="9.275241058937638"><ele>391.0</ele><time>2026-04-23T12:30:23.999Z</time></trkpt><trkpt lat="44.89450466517631" lon="9.275188710229889"><ele>395.0</ele><time>2026-04-23T12:30:24.999Z</time></trkpt><trkpt lat="44.89435413480747" lon="9.275137861257313"><ele>390.3333333333333</ele><time>2026-04-23T12:30:25.999Z</time></trkpt><trkpt lat="44.89420219187751" lon="9.275092971427478"><ele>385.66666666666663</ele><time>2026-04-23T12:30:26.999Z</time></trkpt><trkpt lat="44.89405273450068" lon="9.275044949135195"><ele>381.0</ele><time>2026-04-23T12:30:27.999Z</time></trkpt><trkpt lat="44.89390913561934" lon="9.274989603510088"><ele>381.0</ele><time>2026-04-23T12:30:28.999Z</time></trkpt><trkpt lat="44.893781485130106" lon="9.27492774658132"><ele>381.0</ele><time>2026-04-23T12:30:29.999Z</time></trkpt><trkpt lat="44.893665389866264" lon="9.274844926733866"><ele>381.0</ele><time>2026-04-23T12:30:30.999Z</time></trkpt><trkpt lat="44.89355652884458" lon="9.274731872800775"><ele>381.0</ele><time>2026-04-23T12:30:31.999Z</time></trkpt><trkpt lat="44.89346169679824" lon="9.27458004233842"><ele>378.0</ele><time>2026-04-23T12:30:32.999Z</time></trkpt><trkpt lat="44.8933845213189" lon="9.274400862797643"><ele>375.0</ele><time>2026-04-23T12:30:33.999Z</time></trkpt><trkpt lat="44.89330171187533" lon="9.274211912982844"><ele>372.0</ele><time>2026-04-23T12:30:34.999Z</time></trkpt><trkpt lat="44.893203686804874" lon="9.274030630814819"><ele>374.6666666666667</ele><time>2026-04-23T12:30:35.999Z</time></trkpt><trkpt lat="44.89311023421855" lon="9.273847765614432"><ele>377.33333333333337</ele><time>2026-04-23T12:30:36.999Z</time></trkpt><trkpt lat="44.89302490381162" lon="9.273667050830616"><ele>380.0</ele><time>2026-04-23T12:30:37.999Z</time></trkpt><trkpt lat="44.89294521088294" lon="9.273491884159794"><ele>380.0</ele><time>2026-04-23T12:30:38.999Z</time></trkpt><trkpt lat="44.892870219967165" lon="9.273317048939566"><ele>380.0</ele><time>2026-04-23T12:30:39.999Z</time></trkpt><trkpt lat="44.892798204929065" lon="9.27314864813048"><ele>380.0</ele><time>2026-04-23T12:30:40.999Z</time></trkpt><trkpt lat="44.89272995450844" lon="9.272992011134292"><ele>380.0</ele><time>2026-04-23T12:30:41.999Z</time></trkpt><trkpt lat="44.892670775954755" lon="9.272853392333865"><ele>382.75</ele><time>2026-04-23T12:30:42.999Z</time></trkpt><trkpt lat="44.89264526478698" lon="9.272704518952454"><ele>385.5</ele><time>2026-04-23T12:30:43.999Z</time></trkpt><trkpt lat="44.892655498002" lon="9.272537297023167"><ele>388.25</ele><time>2026-04-23T12:30:44.999Z</time></trkpt><trkpt lat="44.89269301068622" lon="9.272350855205072"><ele>391.0</ele><time>2026-04-23T12:30:45.999Z</time></trkpt><trkpt lat="44.89273598547154" lon="9.272153421150024"><ele>391.0</ele><time>2026-04-23T12:30:46.999Z</time></trkpt><trkpt lat="44.89273698932451" lon="9.27196348013205"><ele>391.0</ele><time>2026-04-23T12:30:47.999Z</time></trkpt><trkpt lat="44.892690924241386" lon="9.271794726314914"><ele>391.0</ele><time>2026-04-23T12:30:48.999Z</time></trkpt><trkpt lat="44.89261048095688" lon="9.271647600340577"><ele>391.0</ele><time>2026-04-23T12:30:49.999Z</time></trkpt><trkpt lat="44.89249446856747" lon="9.271521871035517"><ele>388.25</ele><time>2026-04-23T12:30:50.999Z</time></trkpt><trkpt lat="44.89237638062908" lon="9.271397045472796"><ele>385.5</ele><time>2026-04-23T12:30:51.999Z</time></trkpt><trkpt lat="44.89227407720105" lon="9.271251062918697"><ele>382.75</ele><time>2026-04-23T12:30:52.999Z</time></trkpt><trkpt lat="44.892204675370394" lon="9.271074776488566"><ele>380.0</ele><time>2026-04-23T12:30:53.999Z</time></trkpt><trkpt lat="44.89216970083844" lon="9.27086925133245"><ele>380.0</ele><time>2026-04-23T12:30:54.999Z</time></trkpt><trkpt lat="44.892137312844504" lon="9.270665205173783"><ele>380.0</ele><time>2026-04-23T12:30:55.999Z</time></trkpt><trkpt lat="44.89209290177818" lon="9.270469983090354"><ele>380.0</ele><time>2026-04-23T12:30:56.999Z</time></trkpt><trkpt lat="44.89203195987833" lon="9.270293730473673"><ele>380.0</ele><time>2026-04-23T12:30:57.999Z</time></trkpt><trkpt lat="44.89193909129479" lon="9.270157883519888"><ele>380.25</ele><time>2026-04-23T12:30:58.999Z</time></trkpt><trkpt lat="44.89181629564228" lon="9.270085762690217"><ele>380.5</ele><time>2026-04-23T12:30:59.999Z</time></trkpt><trkpt lat="44.89170129230852" lon="9.270021543585907"><ele>380.75</ele><time>2026-04-23T12:31:00.999Z</time></trkpt><trkpt lat="44.89160757497488" lon="9.269891351556627"><ele>381.0</ele><time>2026-04-23T12:31:01.999Z</time></trkpt><trkpt lat="44.89153119438647" lon="9.269725863226665"><ele>381.0</ele><time>2026-04-23T12:31:02.999Z</time></trkpt><trkpt lat="44.89145785762785" lon="9.269541632642419"><ele>381.0</ele><time>2026-04-23T12:31:03.999Z</time></trkpt><trkpt lat="44.891372772747346" lon="9.26936750495652"><ele>381.0</ele><time>2026-04-23T12:31:04.999Z</time></trkpt><trkpt lat="44.89125511173929" lon="9.269205732361284"><ele>381.0</ele><time>2026-04-23T12:31:05.999Z</time></trkpt><trkpt lat="44.891141613062864" lon="9.269079088092276"><ele>381.0</ele><time>2026-04-23T12:31:06.999Z</time></trkpt><trkpt lat="44.891026773899256" lon="9.268952671837562"><ele>381.0</ele><time>2026-04-23T12:31:07.999Z</time></trkpt><trkpt lat="44.89090995577061" lon="9.268822267429847"><ele>381.0</ele><time>2026-04-23T12:31:08.999Z</time></trkpt><trkpt lat="44.890817808690365" lon="9.268674344305778"><ele>379.6666666666667</ele><time>2026-04-23T12:31:09.999Z</time></trkpt><trkpt lat="44.89075258296021" lon="9.268486993743812"><ele>378.33333333333337</ele><time>2026-04-23T12:31:10.999Z</time></trkpt><trkpt lat="44.890706843932215" lon="9.268264339048743"><ele>377.0</ele><time>2026-04-23T12:31:11.999Z</time></trkpt><trkpt lat="44.89068545663252" lon="9.268012740395845"><ele>377.0</ele><time>2026-04-23T12:31:12.999Z</time></trkpt><trkpt lat="44.89065437425738" lon="9.26778564993351"><ele>377.0</ele><time>2026-04-23T12:31:13.999Z</time></trkpt><trkpt lat="44.890611790264664" lon="9.267547842977583"><ele>377.0</ele><time>2026-04-23T12:31:14.999Z</time></trkpt><trkpt lat="44.890574010179854" lon="9.267326408500503"><ele>376.6666666666667</ele><time>2026-04-23T12:31:15.999Z</time></trkpt><trkpt lat="44.89054101407052" lon="9.267108130157542"><ele>376.3333333333333</ele><time>2026-04-23T12:31:16.999Z</time></trkpt><trkpt lat="44.890511470245116" lon="9.266898916392053"><ele>376.0</ele><time>2026-04-23T12:31:17.999Z</time></trkpt><trkpt lat="44.890480608204825" lon="9.266691983007322"><ele>376.0</ele><time>2026-04-23T12:31:18.999Z</time></trkpt><trkpt lat="44.890457817066924" lon="9.266495956950639"><ele>376.0</ele><time>2026-04-23T12:31:19.999Z</time></trkpt><trkpt lat="44.89044017300302" lon="9.266301639562432"><ele>376.0</ele><time>2026-04-23T12:31:20.999Z</time></trkpt><trkpt lat="44.89042182796491" lon="9.266118278683606"><ele>376.0</ele><time>2026-04-23T12:31:21.999Z</time></trkpt><trkpt lat="44.89040210857697" lon="9.265945045666125"><ele>375.4</ele><time>2026-04-23T12:31:22.999Z</time></trkpt><trkpt lat="44.89037604673606" lon="9.265792279196344"><ele>374.8</ele><time>2026-04-23T12:31:23.999Z</time></trkpt><trkpt lat="44.89034533439435" lon="9.265664664387732"><ele>374.2</ele><time>2026-04-23T12:31:24.999Z</time></trkpt><trkpt lat="44.89031139890918" lon="9.265584224680193"><ele>373.59999999999997</ele><time>2026-04-23T12:31:25.999Z</time></trkpt><trkpt lat="44.89024908199509" lon="9.26552997798932"><ele>373.0</ele><time>2026-04-23T12:31:26.999Z</time></trkpt><trkpt lat="44.890055746275046" lon="9.26562717518797"><ele>373.0</ele><time>2026-04-23T12:31:28.999Z</time></trkpt><trkpt lat="44.889948962025834" lon="9.265720921859353"><ele>373.0</ele><time>2026-04-23T12:31:29.999Z</time></trkpt><trkpt lat="44.88984501806472" lon="9.265819272656305"><ele>373.0</ele><time>2026-04-23T12:31:30.999Z</time></trkpt><trkpt lat="44.88974528323119" lon="9.265965153789688"><ele>373.0</ele><time>2026-04-23T12:31:31.999Z</time></trkpt><trkpt lat="44.88968560113307" lon="9.266156672074464"><ele>373.0</ele><time>2026-04-23T12:31:32.999Z</time></trkpt><trkpt lat="44.88963158327789" lon="9.266327792098526"><ele>373.0</ele><time>2026-04-23T12:31:34Z</time></trkpt><trkpt lat="44.889554635456385" lon="9.2664663514179"><ele>373.0</ele><time>2026-04-23T12:31:35Z</time></trkpt><trkpt lat="44.88945565313196" lon="9.266559037053165"><ele>373.0</ele><time>2026-04-23T12:31:36Z</time></trkpt><trkpt lat="44.889341532983245" lon="9.266588036142597"><ele>373.0</ele><time>2026-04-23T12:31:37Z</time></trkpt><trkpt lat="44.88922054340769" lon="9.266551875693038"><ele>373.0</ele><time>2026-04-23T12:31:38Z</time></trkpt><trkpt lat="44.88910207418465" lon="9.266494749379357"><ele>373.0</ele><time>2026-04-23T12:31:39Z</time></trkpt><trkpt lat="44.88897986463736" lon="9.26640507532625"><ele>373.0</ele><time>2026-04-23T12:31:40Z</time></trkpt><trkpt lat="44.88886139351148" lon="9.266307146735866"><ele>374.66666666666663</ele><time>2026-04-23T12:31:41Z</time></trkpt><trkpt lat="44.888735112390805" lon="9.266216218383727"><ele>376.3333333333333</ele><time>2026-04-23T12:31:42Z</time></trkpt><trkpt lat="44.88859555461516" lon="9.26611505579226"><ele>378.0</ele><time>2026-04-23T12:31:43Z</time></trkpt><trkpt lat="44.88846143153253" lon="9.266015663176338"><ele>377.25</ele><time>2026-04-23T12:31:44Z</time></trkpt><trkpt lat="44.888324827086514" lon="9.265920471629105"><ele>376.5</ele><time>2026-04-23T12:31:45Z</time></trkpt><trkpt lat="44.888196342901814" lon="9.265830723853673"><ele>375.75</ele><time>2026-04-23T12:31:46Z</time></trkpt><trkpt lat="44.88806765209878" lon="9.265745054350901"><ele>375.0</ele><time>2026-04-23T12:31:47Z</time></trkpt><trkpt lat="44.88794228840531" lon="9.265657156248652"><ele>377.0</ele><time>2026-04-23T12:31:48Z</time></trkpt><trkpt lat="44.88780705241429" lon="9.26557511850013"><ele>379.0</ele><time>2026-04-23T12:31:49Z</time></trkpt><trkpt lat="44.88766887488136" lon="9.265502515937316"><ele>381.0</ele><time>2026-04-23T12:31:50Z</time></trkpt><trkpt lat="44.88753005660424" lon="9.265433157335455"><ele>383.0</ele><time>2026-04-23T12:31:51Z</time></trkpt><trkpt lat="44.887392300345105" lon="9.265362813577875"><ele>383.0</ele><time>2026-04-23T12:31:52Z</time></trkpt><trkpt lat="44.8872507635854" lon="9.265282617303189"><ele>383.0</ele><time>2026-04-23T12:31:53Z</time></trkpt><trkpt lat="44.88710846784318" lon="9.265205556829082"><ele>383.0</ele><time>2026-04-23T12:31:54Z</time></trkpt><trkpt lat="44.886966156450434" lon="9.265135641709731"><ele>383.0</ele><time>2026-04-23T12:31:55Z</time></trkpt><trkpt lat="44.886827477167714" lon="9.265064843804726"><ele>383.0</ele><time>2026-04-23T12:31:56Z</time></trkpt><trkpt lat="44.88668755650599" lon="9.264992783688882"><ele>383.0</ele><time>2026-04-23T12:31:57Z</time></trkpt><trkpt lat="44.886549566160625" lon="9.264923708375445"><ele>383.0</ele><time>2026-04-23T12:31:58Z</time></trkpt><trkpt lat="44.88640463617085" lon="9.26485676074346"><ele>384.0</ele><time>2026-04-23T12:31:59Z</time></trkpt><trkpt lat="44.88626104695509" lon="9.264804167264623"><ele>385.0</ele><time>2026-04-23T12:32:00Z</time></trkpt><trkpt lat="44.88611935068988" lon="9.264775606748467"><ele>386.0</ele><time>2026-04-23T12:32:01Z</time></trkpt><trkpt lat="44.88598015227845" lon="9.264750068966244"><ele>387.0</ele><time>2026-04-23T12:32:02Z</time></trkpt><trkpt lat="44.88584296237894" lon="9.264729594086742"><ele>387.0</ele><time>2026-04-23T12:32:03Z</time></trkpt><trkpt lat="44.885709951822115" lon="9.264713095118688"><ele>387.0</ele><time>2026-04-23T12:32:04Z</time></trkpt><trkpt lat="44.88557514920892" lon="9.264695926340815"><ele>387.0</ele><time>2026-04-23T12:32:05Z</time></trkpt><trkpt lat="44.8854401969701" lon="9.264684199907114"><ele>387.0</ele><time>2026-04-23T12:32:06Z</time></trkpt><trkpt lat="44.885308497390696" lon="9.26466810086758"><ele>387.0</ele><time>2026-04-23T12:32:07Z</time></trkpt><trkpt lat="44.88517488946588" lon="9.264653169326598"><ele>387.0</ele><time>2026-04-23T12:32:08Z</time></trkpt><trkpt lat="44.88504262415" lon="9.26463875785766"><ele>387.0</ele><time>2026-04-23T12:32:09Z</time></trkpt><trkpt lat="44.88490650901691" lon="9.264620672217674"><ele>387.0</ele><time>2026-04-23T12:32:10Z</time></trkpt><trkpt lat="44.884769037077" lon="9.264608657637897"><ele>386.0</ele><time>2026-04-23T12:32:11Z</time></trkpt><trkpt lat="44.88463181312324" lon="9.26459075152623"><ele>385.0</ele><time>2026-04-23T12:32:12Z</time></trkpt><trkpt lat="44.88449365319324" lon="9.264574149047116"><ele>384.0</ele><time>2026-04-23T12:32:13Z</time></trkpt><trkpt lat="44.884350538016164" lon="9.264558545967228"><ele>383.0</ele><time>2026-04-23T12:32:14Z</time></trkpt><trkpt lat="44.88420697934738" lon="9.26453945271568"><ele>382.25</ele><time>2026-04-23T12:32:15Z</time></trkpt><trkpt lat="44.8840654371373" lon="9.264522451466595"><ele>381.5</ele><time>2026-04-23T12:32:16Z</time></trkpt><trkpt lat="44.8839262101054" lon="9.264509701367373"><ele>380.75</ele><time>2026-04-23T12:32:17Z</time></trkpt><trkpt lat="44.883789579833305" lon="9.264496602416129"><ele>380.0</ele><time>2026-04-23T12:32:18Z</time></trkpt><trkpt lat="44.88365611998396" lon="9.26449448798334"><ele>380.0</ele><time>2026-04-23T12:32:19Z</time></trkpt><trkpt lat="44.88352321589358" lon="9.264511582266294"><ele>380.0</ele><time>2026-04-23T12:32:20Z</time></trkpt><trkpt lat="44.88338956426532" lon="9.26453777461025"><ele>380.0</ele><time>2026-04-23T12:32:21Z</time></trkpt><trkpt lat="44.88325215395287" lon="9.264563050362167"><ele>380.0</ele><time>2026-04-23T12:32:22Z</time></trkpt><trkpt lat="44.88311317198104" lon="9.264586116017435"><ele>380.75</ele><time>2026-04-23T12:32:23Z</time></trkpt><trkpt lat="44.88297554757808" lon="9.264614463964872"><ele>381.5</ele><time>2026-04-23T12:32:24Z</time></trkpt><trkpt lat="44.882837208469546" lon="9.26464758204986"><ele>382.25</ele><time>2026-04-23T12:32:25Z</time></trkpt><trkpt lat="44.88269842836986" lon="9.264679439979373"><ele>383.0</ele><time>2026-04-23T12:32:26Z</time></trkpt><trkpt lat="44.88255985083738" lon="9.264710140095273"><ele>383.5</ele><time>2026-04-23T12:32:27Z</time></trkpt><trkpt lat="44.88242215507918" lon="9.264739427547964"><ele>384.0</ele><time>2026-04-23T12:32:28Z</time></trkpt><trkpt lat="44.88228670442452" lon="9.264768805551212"><ele>384.5</ele><time>2026-04-23T12:32:29Z</time></trkpt><trkpt lat="44.882152287352156" lon="9.26480118326052"><ele>385.0</ele><time>2026-04-23T12:32:29.999Z</time></trkpt><trkpt lat="44.88201791670024" lon="9.264831517242007"><ele>384.5</ele><time>2026-04-23T12:32:30.999Z</time></trkpt><trkpt lat="44.88188080363035" lon="9.264855345691386"><ele>384.0</ele><time>2026-04-23T12:32:31.999Z</time></trkpt><trkpt lat="44.881755176339084" lon="9.264876404659205"><ele>383.5</ele><time>2026-04-23T12:32:32.999Z</time></trkpt><trkpt lat="44.881639144123376" lon="9.264894749468194"><ele>383.0</ele><time>2026-04-23T12:32:33.999Z</time></trkpt><trkpt lat="44.88154210554416" lon="9.264902876425426"><ele>383.0</ele><time>2026-04-23T12:32:34.999Z</time></trkpt><trkpt lat="44.88146951015789" lon="9.264895547016932"><ele>383.0</ele><time>2026-04-23T12:32:35.999Z</time></trkpt><trkpt lat="44.881406506532976" lon="9.26489025230903"><ele>383.0</ele><time>2026-04-23T12:32:36.999Z</time></trkpt><trkpt lat="44.88132654570043" lon="9.264903479198885"><ele>383.0</ele><time>2026-04-23T12:32:38.999Z</time></trkpt><trkpt lat="44.881221129197115" lon="9.264895774511357"><ele>383.0</ele><time>2026-04-23T12:35:43.999Z</time></trkpt><trkpt lat="44.8811583476404" lon="9.26491684313441"><ele>383.0</ele><time>2026-04-23T12:35:44.999Z</time></trkpt><trkpt lat="44.88109560681307" lon="9.264931861501225"><ele>383.0</ele><time>2026-04-23T12:35:46Z</time></trkpt><trkpt lat="44.88095884610748" lon="9.264940849408486"><ele>383.0</ele><time>2026-04-23T12:35:48Z</time></trkpt><trkpt lat="44.88086173256432" lon="9.264940490197638"><ele>383.0</ele><time>2026-04-23T12:35:49Z</time></trkpt><trkpt lat="44.88075285409066" lon="9.264947530618539"><ele>383.0</ele><time>2026-04-23T12:35:50Z</time></trkpt><trkpt lat="44.88065651493878" lon="9.264951828287376"><ele>383.0</ele><time>2026-04-23T12:35:51Z</time></trkpt><trkpt lat="44.88056959005894" lon="9.264957918652875"><ele>383.79999999999995</ele><time>2026-04-23T12:35:52Z</time></trkpt><trkpt lat="44.88047949660645" lon="9.264966504264963"><ele>384.6</ele><time>2026-04-23T12:35:53Z</time></trkpt><trkpt lat="44.88039134191075" lon="9.264997013218819"><ele>385.4</ele><time>2026-04-23T12:35:54Z</time></trkpt><trkpt lat="44.880295139169036" lon="9.265050141068748"><ele>386.20000000000005</ele><time>2026-04-23T12:35:55Z</time></trkpt><trkpt lat="44.88024466637195" lon="9.265179212019726"><ele>387.0</ele><time>2026-04-23T12:35:56Z</time></trkpt><trkpt lat="44.880182515743414" lon="9.265322221653841"><ele>387.0</ele><time>2026-04-23T12:35:57Z</time></trkpt><trkpt lat="44.880143750868314" lon="9.265475164497849"><ele>387.0</ele><time>2026-04-23T12:35:58Z</time></trkpt><trkpt lat="44.880105886016814" lon="9.26562418355675"><ele>387.0</ele><time>2026-04-23T12:35:59Z</time></trkpt><trkpt lat="44.88006584009195" lon="9.265764772528314"><ele>387.0</ele><time>2026-04-23T12:36:00Z</time></trkpt><trkpt lat="44.88001199561345" lon="9.265894444972673"><ele>387.0</ele><time>2026-04-23T12:36:01Z</time></trkpt><trkpt lat="44.87998004386497" lon="9.266040705266398"><ele>386.6</ele><time>2026-04-23T12:36:02Z</time></trkpt><trkpt lat="44.879933916195206" lon="9.266182933329157"><ele>386.20000000000005</ele><time>2026-04-23T12:36:03Z</time></trkpt><trkpt lat="44.87988618299041" lon="9.266323111293543"><ele>385.8</ele><time>2026-04-23T12:36:04Z</time></trkpt><trkpt lat="44.87983147433015" lon="9.266453698850876"><ele>385.4</ele><time>2026-04-23T12:36:05Z</time></trkpt><trkpt lat="44.879750627873406" lon="9.266569632958065"><ele>385.0</ele><time>2026-04-23T12:36:06Z</time></trkpt><trkpt lat="44.8796746634618" lon="9.266681566958026"><ele>384.75</ele><time>2026-04-23T12:36:07Z</time></trkpt><trkpt lat="44.879586198892575" lon="9.266803978737093"><ele>384.5</ele><time>2026-04-23T12:36:08Z</time></trkpt><trkpt lat="44.87949877850173" lon="9.266934408768071"><ele>384.25</ele><time>2026-04-23T12:36:09Z</time></trkpt><trkpt lat="44.87940912863775" lon="9.267063171690442"><ele>384.0</ele><time>2026-04-23T12:36:10Z</time></trkpt><trkpt lat="44.879318929504265" lon="9.267187181421018"><ele>385.0</ele><time>2026-04-23T12:36:11Z</time></trkpt><trkpt lat="44.879236133809535" lon="9.267307415707517"><ele>386.0</ele><time>2026-04-23T12:36:12Z</time></trkpt><trkpt lat="44.87914713178173" lon="9.267424169824034"><ele>387.0</ele><time>2026-04-23T12:36:13Z</time></trkpt><trkpt lat="44.87907030279312" lon="9.267546956918427"><ele>388.0</ele><time>2026-04-23T12:36:14Z</time></trkpt><trkpt lat="44.87897638712967" lon="9.267653305390935"><ele>388.0</ele><time>2026-04-23T12:36:15Z</time></trkpt><trkpt lat="44.87889371879792" lon="9.26777199054179"><ele>388.0</ele><time>2026-04-23T12:36:16Z</time></trkpt><trkpt lat="44.878802752304644" lon="9.267904485316448"><ele>388.0</ele><time>2026-04-23T12:36:17Z</time></trkpt><trkpt lat="44.87870733568494" lon="9.268020857673726"><ele>388.0</ele><time>2026-04-23T12:36:18Z</time></trkpt><trkpt lat="44.878607462852926" lon="9.268112209365718"><ele>387.75</ele><time>2026-04-23T12:36:19Z</time></trkpt><trkpt lat="44.878510900499265" lon="9.26812006488052"><ele>387.5</ele><time>2026-04-23T12:36:20Z</time></trkpt><trkpt lat="44.87837492198332" lon="9.268151632505248"><ele>387.25</ele><time>2026-04-23T12:36:21Z</time></trkpt><trkpt lat="44.87822852290051" lon="9.268175285301515"><ele>387.0</ele><time>2026-04-23T12:36:22Z</time></trkpt><trkpt lat="44.87808353659141" lon="9.268221032885055"><ele>388.25</ele><time>2026-04-23T12:36:23Z</time></trkpt><trkpt lat="44.877947147044516" lon="9.268259387204095"><ele>389.5</ele><time>2026-04-23T12:36:24Z</time></trkpt><trkpt lat="44.87780981577981" lon="9.268325658744153"><ele>390.75</ele><time>2026-04-23T12:36:25Z</time></trkpt><trkpt lat="44.87767898162228" lon="9.268430595865947"><ele>392.0</ele><time>2026-04-23T12:36:26Z</time></trkpt><trkpt lat="44.877549501024" lon="9.26854014053373"><ele>392.75</ele><time>2026-04-23T12:36:27Z</time></trkpt><trkpt lat="44.87743219262052" lon="9.268665167196373"><ele>393.5</ele><time>2026-04-23T12:36:28Z</time></trkpt><trkpt lat="44.87731986349245" lon="9.268798158328721"><ele>394.25</ele><time>2026-04-23T12:36:29Z</time></trkpt><trkpt lat="44.87721109625954" lon="9.268932379620752"><ele>395.0</ele><time>2026-04-23T12:36:30Z</time></trkpt><trkpt lat="44.877101852316365" lon="9.269058748294848"><ele>395.0</ele><time>2026-04-23T12:36:31Z</time></trkpt><trkpt lat="44.876997587183254" lon="9.26919111728483"><ele>395.0</ele><time>2026-04-23T12:36:32Z</time></trkpt><trkpt lat="44.876892224410796" lon="9.269322909982588"><ele>395.0</ele><time>2026-04-23T12:36:33Z</time></trkpt><trkpt lat="44.87678948714263" lon="9.269456316253835"><ele>395.0</ele><time>2026-04-23T12:36:34Z</time></trkpt><trkpt lat="44.87668702789914" lon="9.269591189285237"><ele>397.0</ele><time>2026-04-23T12:36:35Z</time></trkpt><trkpt lat="44.87658468694638" lon="9.269719966469935"><ele>399.0</ele><time>2026-04-23T12:36:36Z</time></trkpt><trkpt lat="44.876476861594895" lon="9.269833850162517"><ele>401.0</ele><time>2026-04-23T12:36:37Z</time></trkpt><trkpt lat="44.876354050048434" lon="9.269922812838512"><ele>403.0</ele><time>2026-04-23T12:36:37.999Z</time></trkpt><trkpt lat="44.87621827353326" lon="9.269977994240415"><ele>403.0</ele><time>2026-04-23T12:36:38.999Z</time></trkpt><trkpt lat="44.87607838495376" lon="9.270030605008984"><ele>403.0</ele><time>2026-04-23T12:36:39.999Z</time></trkpt><trkpt lat="44.875939649446416" lon="9.270118252980783"><ele>403.0</ele><time>2026-04-23T12:36:40.999Z</time></trkpt><trkpt lat="44.87580659086064" lon="9.270224147835192"><ele>404.33333333333337</ele><time>2026-04-23T12:36:41.999Z</time></trkpt><trkpt lat="44.87567927371216" lon="9.270332415193762"><ele>405.66666666666663</ele><time>2026-04-23T12:36:42.999Z</time></trkpt><trkpt lat="44.87556460705848" lon="9.270459528526962"><ele>407.0</ele><time>2026-04-23T12:36:43.999Z</time></trkpt><trkpt lat="44.875450673413354" lon="9.270618071299532"><ele>407.0</ele><time>2026-04-23T12:36:44.999Z</time></trkpt><trkpt lat="44.87535343976688" lon="9.27079824022836"><ele>407.0</ele><time>2026-04-23T12:36:45.999Z</time></trkpt><trkpt lat="44.875282383046496" lon="9.270987336420836"><ele>407.0</ele><time>2026-04-23T12:36:46.999Z</time></trkpt><trkpt lat="44.875176001480185" lon="9.271123117623755"><ele>411.0</ele><time>2026-04-23T12:36:47.999Z</time></trkpt><trkpt lat="44.8750329742348" lon="9.271223259679578"><ele>415.0</ele><time>2026-04-23T12:36:48.999Z</time></trkpt><trkpt lat="44.87488899585145" lon="9.271308164850392"><ele>419.0</ele><time>2026-04-23T12:36:49.999Z</time></trkpt><trkpt lat="44.87476328892066" lon="9.27141502301231"><ele>418.75</ele><time>2026-04-23T12:36:50.999Z</time></trkpt><trkpt lat="44.87467994574325" lon="9.27156383652905"><ele>418.5</ele><time>2026-04-23T12:36:51.999Z</time></trkpt><trkpt lat="44.87464163095829" lon="9.271751352705218"><ele>418.25</ele><time>2026-04-23T12:36:52.999Z</time></trkpt><trkpt lat="44.874628091809655" lon="9.271963220046201"><ele>418.0</ele><time>2026-04-23T12:36:53.999Z</time></trkpt><trkpt lat="44.87460017900521" lon="9.27213433811369"><ele>417.25</ele><time>2026-04-23T12:36:54.999Z</time></trkpt><trkpt lat="44.87457461056496" lon="9.27227994119805"><ele>416.5</ele><time>2026-04-23T12:36:55.999Z</time></trkpt><trkpt lat="44.87448674775364" lon="9.27239198716418"><ele>415.75</ele><time>2026-04-23T12:36:56.999Z</time></trkpt><trkpt lat="44.874366824093464" lon="9.272461339914981"><ele>415.0</ele><time>2026-04-23T12:36:57.999Z</time></trkpt><trkpt lat="44.87422218213365" lon="9.272525159924445"><ele>419.25</ele><time>2026-04-23T12:36:58.999Z</time></trkpt><trkpt lat="44.874079602947205" lon="9.272602787742695"><ele>423.5</ele><time>2026-04-23T12:36:59.999Z</time></trkpt><trkpt lat="44.87394228775287" lon="9.272669009080587"><ele>427.75</ele><time>2026-04-23T12:37:00.999Z</time></trkpt><trkpt lat="44.87380264146435" lon="9.2727297368758"><ele>432.0</ele><time>2026-04-23T12:37:01.999Z</time></trkpt><trkpt lat="44.87365999243571" lon="9.27278663553787"><ele>432.0</ele><time>2026-04-23T12:37:02.999Z</time></trkpt><trkpt lat="44.873507705489175" lon="9.272819750597195"><ele>432.0</ele><time>2026-04-23T12:37:03.999Z</time></trkpt><trkpt lat="44.87335120490572" lon="9.272814032078555"><ele>432.0</ele><time>2026-04-23T12:37:04.999Z</time></trkpt><trkpt lat="44.8731851925064" lon="9.27284973006509"><ele>431.0</ele><time>2026-04-23T12:37:05.999Z</time></trkpt><trkpt lat="44.873033743743" lon="9.272966902469536"><ele>430.0</ele><time>2026-04-23T12:37:06.999Z</time></trkpt><trkpt lat="44.872886824302405" lon="9.273129676531829"><ele>429.0</ele><time>2026-04-23T12:37:07.999Z</time></trkpt><trkpt lat="44.87274513589013" lon="9.273286069862577"><ele>429.0</ele><time>2026-04-23T12:37:08.999Z</time></trkpt><trkpt lat="44.87261710225892" lon="9.273416573704102"><ele>429.0</ele><time>2026-04-23T12:37:09.999Z</time></trkpt><trkpt lat="44.872506654884525" lon="9.273538917185839"><ele>429.0</ele><time>2026-04-23T12:37:10.999Z</time></trkpt><trkpt lat="44.87238891629525" lon="9.273641414356721"><ele>429.0</ele><time>2026-04-23T12:37:11.999Z</time></trkpt><trkpt lat="44.87229162947527" lon="9.273739195794327"><ele>431.75</ele><time>2026-04-23T12:37:12.999Z</time></trkpt><trkpt lat="44.87223204195928" lon="9.273896841347542"><ele>434.5</ele><time>2026-04-23T12:37:13.999Z</time></trkpt><trkpt lat="44.87220603349435" lon="9.274062834642848"><ele>437.25</ele><time>2026-04-23T12:37:14.999Z</time></trkpt><trkpt lat="44.87217633118727" lon="9.274233004572089"><ele>440.0</ele><time>2026-04-23T12:37:15.999Z</time></trkpt><trkpt lat="44.872140744276436" lon="9.274401808088891"><ele>440.0</ele><time>2026-04-23T12:37:16.999Z</time></trkpt><trkpt lat="44.8721008835019" lon="9.274555828274721"><ele>440.0</ele><time>2026-04-23T12:37:17.999Z</time></trkpt><trkpt lat="44.87205723189863" lon="9.274710922084484"><ele>440.0</ele><time>2026-04-23T12:37:18.999Z</time></trkpt><trkpt lat="44.87199097871782" lon="9.274841852905437"><ele>440.0</ele><time>2026-04-23T12:37:19.999Z</time></trkpt><trkpt lat="44.871897559575366" lon="9.274969229412534"><ele>439.0</ele><time>2026-04-23T12:37:20.999Z</time></trkpt><trkpt lat="44.87178985644792" lon="9.275087241833553"><ele>438.0</ele><time>2026-04-23T12:37:21.999Z</time></trkpt><trkpt lat="44.87166343267926" lon="9.275216261818176"><ele>437.0</ele><time>2026-04-23T12:37:22.999Z</time></trkpt><trkpt lat="44.87155375741138" lon="9.275342102378612"><ele>436.0</ele><time>2026-04-23T12:37:23.999Z</time></trkpt><trkpt lat="44.87144118588381" lon="9.27546376478441"><ele>438.25</ele><time>2026-04-23T12:37:24.999Z</time></trkpt><trkpt lat="44.87132563666852" lon="9.275587181236249"><ele>440.5</ele><time>2026-04-23T12:37:25.999Z</time></trkpt><trkpt lat="44.8712091066478" lon="9.275713320843337"><ele>442.75</ele><time>2026-04-23T12:37:26.999Z</time></trkpt><trkpt lat="44.87110005076721" lon="9.275836627520317"><ele>445.0</ele><time>2026-04-23T12:37:27.999Z</time></trkpt><trkpt lat="44.8709963691784" lon="9.275970593049964"><ele>448.0</ele><time>2026-04-23T12:37:28.999Z</time></trkpt><trkpt lat="44.87090395069625" lon="9.276124474392159"><ele>451.0</ele><time>2026-04-23T12:37:29.999Z</time></trkpt><trkpt lat="44.87080783916223" lon="9.276279027771603"><ele>454.0</ele><time>2026-04-23T12:37:30.999Z</time></trkpt><trkpt lat="44.87075013739852" lon="9.276474285446586"><ele>457.0</ele><time>2026-04-23T12:37:31.999Z</time></trkpt><trkpt lat="44.870727221648536" lon="9.276688737411588"><ele>457.0</ele><time>2026-04-23T12:37:32.999Z</time></trkpt><trkpt lat="44.87072499280607" lon="9.276916932087165"><ele>457.0</ele><time>2026-04-23T12:37:33.999Z</time></trkpt><trkpt lat="44.87072510206337" lon="9.277130216351802"><ele>457.0</ele><time>2026-04-23T12:37:34.999Z</time></trkpt><trkpt lat="44.87071870183068" lon="9.277324349408001"><ele>457.0</ele><time>2026-04-23T12:37:35.999Z</time></trkpt><trkpt lat="44.87070686163274" lon="9.277515513629634"><ele>457.0</ele><time>2026-04-23T12:37:36.999Z</time></trkpt><trkpt lat="44.870689305376565" lon="9.277690301045116"><ele>457.0</ele><time>2026-04-23T12:37:37.999Z</time></trkpt><trkpt lat="44.87067765591973" lon="9.27784893053763"><ele>457.0</ele><time>2026-04-23T12:37:38.999Z</time></trkpt><trkpt lat="44.87064039490738" lon="9.277974276817101"><ele>457.0</ele><time>2026-04-23T12:37:39.999Z</time></trkpt><trkpt lat="44.87058885227418" lon="9.27807613764777"><ele>457.00000000000006</ele><time>2026-04-23T12:37:40.999Z</time></trkpt><trkpt lat="44.87051828286695" lon="9.27813481457295"><ele>457.00000000000006</ele><time>2026-04-23T12:37:41.999Z</time></trkpt><trkpt lat="44.87043230297489" lon="9.278168872810244"><ele>457.0</ele><time>2026-04-23T12:37:42.999Z</time></trkpt><trkpt lat="44.87035357953949" lon="9.278255951627752"><ele>457.0</ele><time>2026-04-23T12:37:43.999Z</time></trkpt><trkpt lat="44.870286149136135" lon="9.278394257868037"><ele>456.75</ele><time>2026-04-23T12:37:44.999Z</time></trkpt><trkpt lat="44.870219778818324" lon="9.278527740305494"><ele>456.5</ele><time>2026-04-23T12:37:45.999Z</time></trkpt><trkpt lat="44.87015481257042" lon="9.278649024115563"><ele>456.25</ele><time>2026-04-23T12:37:46.999Z</time></trkpt><trkpt lat="44.87009955347469" lon="9.278811895054547"><ele>456.0</ele><time>2026-04-23T12:37:47.999Z</time></trkpt><trkpt lat="44.87011474767613" lon="9.279027891713099"><ele>455.5</ele><time>2026-04-23T12:37:48.998Z</time></trkpt><trkpt lat="44.87013123574306" lon="9.27923837363385"><ele>455.0</ele><time>2026-04-23T12:37:49.998Z</time></trkpt><trkpt lat="44.8701324168903" lon="9.279426068753565"><ele>454.5</ele><time>2026-04-23T12:37:50.998Z</time></trkpt><trkpt lat="44.87013290834656" lon="9.279602297007896"><ele>454.0</ele><time>2026-04-23T12:37:52Z</time></trkpt><trkpt lat="44.87010500367194" lon="9.27976329841294"><ele>456.75</ele><time>2026-04-23T12:37:53Z</time></trkpt><trkpt lat="44.870058260334" lon="9.27990961334961"><ele>459.5</ele><time>2026-04-23T12:37:54Z</time></trkpt><trkpt lat="44.86997877677714" lon="9.280041405340546"><ele>462.25</ele><time>2026-04-23T12:37:55Z</time></trkpt><trkpt lat="44.86986924284611" lon="9.280149022238788"><ele>465.0</ele><time>2026-04-23T12:37:56Z</time></trkpt><trkpt lat="44.86974226381835" lon="9.28024694674993"><ele>465.0</ele><time>2026-04-23T12:37:57Z</time></trkpt><trkpt lat="44.86961984274921" lon="9.280373318191689"><ele>465.0</ele><time>2026-04-23T12:37:58Z</time></trkpt><trkpt lat="44.86949928648001" lon="9.280486069909559"><ele>465.0</ele><time>2026-04-23T12:37:59Z</time></trkpt><trkpt lat="44.86941557737554" lon="9.28066707441352"><ele>465.0</ele><time>2026-04-23T12:38:00Z</time></trkpt><trkpt lat="44.86932908569285" lon="9.280864898614388"><ele>466.66666666666663</ele><time>2026-04-23T12:38:01Z</time></trkpt><trkpt lat="44.86925004139374" lon="9.281075284770134"><ele>468.3333333333333</ele><time>2026-04-23T12:38:02Z</time></trkpt><trkpt lat="44.86917271845905" lon="9.281279636494515"><ele>470.0</ele><time>2026-04-23T12:38:03Z</time></trkpt><trkpt lat="44.86907942932941" lon="9.281464774141039"><ele>470.0</ele><time>2026-04-23T12:38:04Z</time></trkpt><trkpt lat="44.86899105219282" lon="9.281658177109636"><ele>470.0</ele><time>2026-04-23T12:38:05Z</time></trkpt><trkpt lat="44.86892246146493" lon="9.281870035291897"><ele>470.0</ele><time>2026-04-23T12:38:06Z</time></trkpt><trkpt lat="44.86887518134556" lon="9.282100498547571"><ele>468.66666666666663</ele><time>2026-04-23T12:38:07Z</time></trkpt><trkpt lat="44.86884843482972" lon="9.28233615568959"><ele>467.33333333333337</ele><time>2026-04-23T12:38:08Z</time></trkpt><trkpt lat="44.86881747421293" lon="9.28257123614555"><ele>466.0</ele><time>2026-04-23T12:38:09Z</time></trkpt><trkpt lat="44.868780251888765" lon="9.282799044309373"><ele>466.0</ele><time>2026-04-23T12:38:10Z</time></trkpt><trkpt lat="44.8687444337731" lon="9.283021667901732"><ele>466.0</ele><time>2026-04-23T12:38:11Z</time></trkpt><trkpt lat="44.868712181917566" lon="9.283240139866505"><ele>466.0</ele><time>2026-04-23T12:38:12Z</time></trkpt><trkpt lat="44.868674567012405" lon="9.283449002079076"><ele>465.75</ele><time>2026-04-23T12:38:13Z</time></trkpt><trkpt lat="44.86865422290263" lon="9.283644367607115"><ele>465.5</ele><time>2026-04-23T12:38:14Z</time></trkpt><trkpt lat="44.86863235684082" lon="9.283834043860082"><ele>465.25</ele><time>2026-04-23T12:38:15Z</time></trkpt><trkpt lat="44.868672422143504" lon="9.284027046005663"><ele>465.0</ele><time>2026-04-23T12:38:16Z</time></trkpt><trkpt lat="44.86874218139059" lon="9.284211844956559"><ele>466.5</ele><time>2026-04-23T12:38:17Z</time></trkpt><trkpt lat="44.86881748918139" lon="9.284396703687749"><ele>468.0</ele><time>2026-04-23T12:38:18Z</time></trkpt><trkpt lat="44.868885777110386" lon="9.284561819430794"><ele>469.5</ele><time>2026-04-23T12:38:19Z</time></trkpt><trkpt lat="44.86894858217996" lon="9.284720274389542"><ele>471.0</ele><time>2026-04-23T12:38:20Z</time></trkpt><trkpt lat="44.86899750890685" lon="9.284864200920111"><ele>471.75</ele><time>2026-04-23T12:38:21Z</time></trkpt><trkpt lat="44.8690103545363" lon="9.285008497277165"><ele>472.5</ele><time>2026-04-23T12:38:22Z</time></trkpt><trkpt lat="44.86899131700426" lon="9.285163702283397"><ele>473.25</ele><time>2026-04-23T12:38:23Z</time></trkpt><trkpt lat="44.86889805464673" lon="9.28529438198954"><ele>474.0</ele><time>2026-04-23T12:38:24Z</time></trkpt><trkpt lat="44.868775488988675" lon="9.28537945682805"><ele>474.0</ele><time>2026-04-23T12:38:25Z</time></trkpt><trkpt lat="44.868642295716356" lon="9.285483982695819"><ele>474.0</ele><time>2026-04-23T12:38:26Z</time></trkpt><trkpt lat="44.868526067063435" lon="9.285604265678735"><ele>474.0</ele><time>2026-04-23T12:38:27Z</time></trkpt><trkpt lat="44.86843071639584" lon="9.285750049481729"><ele>474.0</ele><time>2026-04-23T12:38:28Z</time></trkpt><trkpt lat="44.86835889666828" lon="9.285935732819388"><ele>477.25</ele><time>2026-04-23T12:38:29Z</time></trkpt><trkpt lat="44.868319768441744" lon="9.286124316168143"><ele>480.5</ele><time>2026-04-23T12:38:30Z</time></trkpt><trkpt lat="44.86827782576401" lon="9.286307243738852"><ele>483.75</ele><time>2026-04-23T12:38:31Z</time></trkpt><trkpt lat="44.868221188427334" lon="9.286473187165505"><ele>487.0</ele><time>2026-04-23T12:38:32Z</time></trkpt><trkpt lat="44.86815301941364" lon="9.286644064974745"><ele>487.0</ele><time>2026-04-23T12:38:33Z</time></trkpt><trkpt lat="44.86809214434782" lon="9.286805332264835"><ele>487.0</ele><time>2026-04-23T12:38:34Z</time></trkpt><trkpt lat="44.86809164542597" lon="9.286987612990139"><ele>487.0</ele><time>2026-04-23T12:38:35Z</time></trkpt><trkpt lat="44.86810486413751" lon="9.287154802126848"><ele>487.0</ele><time>2026-04-23T12:38:36Z</time></trkpt><trkpt lat="44.868215862286036" lon="9.28728552992355"><ele>487.0</ele><time>2026-04-23T12:38:37Z</time></trkpt><trkpt lat="44.86831300924496" lon="9.287381172350457"><ele>487.00000000000006</ele><time>2026-04-23T12:38:38Z</time></trkpt><trkpt lat="44.86836716869288" lon="9.28750105654162"><ele>487.00000000000006</ele><time>2026-04-23T12:38:39Z</time></trkpt><trkpt lat="44.868399714588705" lon="9.287620922241713"><ele>487.0</ele><time>2026-04-23T12:38:39.999Z</time></trkpt><trkpt lat="44.86835508684377" lon="9.287734996495544"><ele>487.0</ele><time>2026-04-23T12:38:40.999Z</time></trkpt><trkpt lat="44.86830818944412" lon="9.287900053395742"><ele>487.0</ele><time>2026-04-23T12:38:41.999Z</time></trkpt><trkpt lat="44.86825058710507" lon="9.288067078807199"><ele>487.0</ele><time>2026-04-23T12:38:42.999Z</time></trkpt><trkpt lat="44.86818399267169" lon="9.288190786292612"><ele>487.0</ele><time>2026-04-23T12:38:43.999Z</time></trkpt><trkpt lat="44.868075612961896" lon="9.288238847336562"><ele>487.0</ele><time>2026-04-23T12:38:44.999Z</time></trkpt><trkpt lat="44.86795266378001" lon="9.288235598862382"><ele>488.75</ele><time>2026-04-23T12:38:45.999Z</time></trkpt><trkpt lat="44.86782554395462" lon="9.288236241428807"><ele>490.5</ele><time>2026-04-23T12:38:46.999Z</time></trkpt><trkpt lat="44.86769750849873" lon="9.288234449715645"><ele>492.25</ele><time>2026-04-23T12:38:47.999Z</time></trkpt><trkpt lat="44.86754400977948" lon="9.288259709439089"><ele>494.0</ele><time>2026-04-23T12:38:48.999Z</time></trkpt><trkpt lat="44.86740208470301" lon="9.288260545919204"><ele>494.0</ele><time>2026-04-23T12:38:49.999Z</time></trkpt><trkpt lat="44.86726819299522" lon="9.288277317107658"><ele>494.0</ele><time>2026-04-23T12:38:50.999Z</time></trkpt><trkpt lat="44.86715673516085" lon="9.288307666726164"><ele>494.0</ele><time>2026-04-23T12:38:51.999Z</time></trkpt><trkpt lat="44.86706213250522" lon="9.288412899126792"><ele>494.0</ele><time>2026-04-23T12:38:52.999Z</time></trkpt><trkpt lat="44.86697506186011" lon="9.288568731737168"><ele>494.0</ele><time>2026-04-23T12:38:53.999Z</time></trkpt><trkpt lat="44.86690040255251" lon="9.28874896932447"><ele>494.0</ele><time>2026-04-23T12:38:54.999Z</time></trkpt><trkpt lat="44.86682246836974" lon="9.28892323104704"><ele>494.0</ele><time>2026-04-23T12:38:55.999Z</time></trkpt><trkpt lat="44.86674556187815" lon="9.289087187971672"><ele>494.0</ele><time>2026-04-23T12:38:56.999Z</time></trkpt><trkpt lat="44.86665539657588" lon="9.289244743656045"><ele>493.25</ele><time>2026-04-23T12:38:57.999Z</time></trkpt><trkpt lat="44.86656286472621" lon="9.28939493033101"><ele>492.5</ele><time>2026-04-23T12:38:58.999Z</time></trkpt><trkpt lat="44.86645520346721" lon="9.289532908049434"><ele>491.75</ele><time>2026-04-23T12:38:59.999Z</time></trkpt><trkpt lat="44.86631969434334" lon="9.289636292878193"><ele>491.0</ele><time>2026-04-23T12:39:00.999Z</time></trkpt><trkpt lat="44.8661782093248" lon="9.28973991395033"><ele>490.5</ele><time>2026-04-23T12:39:01.999Z</time></trkpt><trkpt lat="44.866044776014476" lon="9.289841686661712"><ele>490.0</ele><time>2026-04-23T12:39:02.999Z</time></trkpt><trkpt lat="44.865911595715" lon="9.2899421197037"><ele>489.5</ele><time>2026-04-23T12:39:03.999Z</time></trkpt><trkpt lat="44.86578406827479" lon="9.290031470350963"><ele>489.0</ele><time>2026-04-23T12:39:04.999Z</time></trkpt><trkpt lat="44.86565296455285" lon="9.29011982202572"><ele>489.0</ele><time>2026-04-23T12:39:05.999Z</time></trkpt><trkpt lat="44.86553404259024" lon="9.290207238748748"><ele>489.0</ele><time>2026-04-23T12:39:06.999Z</time></trkpt><trkpt lat="44.865428767397965" lon="9.290275142284209"><ele>489.0</ele><time>2026-04-23T12:39:07.999Z</time></trkpt><trkpt lat="44.86536201084469" lon="9.290353016612265"><ele>489.0</ele><time>2026-04-23T12:39:08.999Z</time></trkpt><trkpt lat="44.865308765680766" lon="9.290459442008967"><ele>489.0</ele><time>2026-04-23T12:39:09.999Z</time></trkpt><trkpt lat="44.865312820559154" lon="9.290590219929628"><ele>487.5</ele><time>2026-04-23T12:39:10.999Z</time></trkpt><trkpt lat="44.865344099295314" lon="9.290734170157227"><ele>486.0</ele><time>2026-04-23T12:39:11.999Z</time></trkpt><trkpt lat="44.86547058350258" lon="9.290840889537426"><ele>484.5</ele><time>2026-04-23T12:39:12.999Z</time></trkpt><trkpt lat="44.86555856627359" lon="9.290967778165777"><ele>483.0</ele><time>2026-04-23T12:39:13.999Z</time></trkpt><trkpt lat="44.865634386218005" lon="9.291092730533308"><ele>483.0</ele><time>2026-04-23T12:39:14.999Z</time></trkpt><trkpt lat="44.865693662835426" lon="9.291259369379436"><ele>483.0</ele><time>2026-04-23T12:39:15.999Z</time></trkpt><trkpt lat="44.86572647225999" lon="9.29144618734321"><ele>483.0</ele><time>2026-04-23T12:39:16.999Z</time></trkpt><trkpt lat="44.865761913222265" lon="9.291642008176407"><ele>483.0</ele><time>2026-04-23T12:39:17.999Z</time></trkpt><trkpt lat="44.86579292417818" lon="9.291821432966389"><ele>482.2</ele><time>2026-04-23T12:39:18.999Z</time></trkpt><trkpt lat="44.865804338478114" lon="9.29196705244022"><ele>481.4</ele><time>2026-04-23T12:39:19.999Z</time></trkpt><trkpt lat="44.8658068623132" lon="9.292086812841157"><ele>480.59999999999997</ele><time>2026-04-23T12:39:20.999Z</time></trkpt><trkpt lat="44.8657508469976" lon="9.29217273212027"><ele>479.79999999999995</ele><time>2026-04-23T12:39:21.999Z</time></trkpt><trkpt lat="44.865655087411845" lon="9.292214981060456"><ele>479.0</ele><time>2026-04-23T12:39:22.999Z</time></trkpt><trkpt lat="44.865542887874675" lon="9.29218485840782"><ele>479.0</ele><time>2026-04-23T12:39:23.999Z</time></trkpt><trkpt lat="44.865423379821436" lon="9.292128793009947"><ele>479.0</ele><time>2026-04-23T12:39:24.999Z</time></trkpt><trkpt lat="44.86530629541129" lon="9.292058933711195"><ele>479.0</ele><time>2026-04-23T12:39:25.999Z</time></trkpt><trkpt lat="44.86519334478268" lon="9.29200003146162"><ele>479.0</ele><time>2026-04-23T12:39:26.999Z</time></trkpt><trkpt lat="44.86508175884182" lon="9.291955425086655"><ele>479.2</ele><time>2026-04-23T12:39:27.999Z</time></trkpt><trkpt lat="44.864975444463575" lon="9.291910771133281"><ele>479.4</ele><time>2026-04-23T12:39:28.999Z</time></trkpt><trkpt lat="44.864871555483035" lon="9.29188095401077"><ele>479.6</ele><time>2026-04-23T12:39:29.999Z</time></trkpt><trkpt lat="44.86476848953025" lon="9.291850375219795"><ele>479.8</ele><time>2026-04-23T12:39:30.999Z</time></trkpt><trkpt lat="44.86467092973186" lon="9.291860616248387"><ele>480.0</ele><time>2026-04-23T12:39:31.999Z</time></trkpt><trkpt lat="44.86457205977633" lon="9.291929701529362"><ele>480.0</ele><time>2026-04-23T12:39:32.999Z</time></trkpt><trkpt lat="44.8645038662307" lon="9.292089542728075"><ele>480.0</ele><time>2026-04-23T12:39:33.999Z</time></trkpt><trkpt lat="44.86447320464516" lon="9.292260292032203"><ele>480.0</ele><time>2026-04-23T12:39:34.999Z</time></trkpt><trkpt lat="44.864472992573916" lon="9.292441581143608"><ele>480.0</ele><time>2026-04-23T12:39:35.999Z</time></trkpt><trkpt lat="44.86450852887434" lon="9.292632773103733"><ele>477.75</ele><time>2026-04-23T12:39:36.999Z</time></trkpt><trkpt lat="44.86454683307838" lon="9.292817032546596"><ele>475.5</ele><time>2026-04-23T12:39:37.999Z</time></trkpt><trkpt lat="44.86458090025757" lon="9.293011091130632"><ele>473.25</ele><time>2026-04-23T12:39:38.999Z</time></trkpt><trkpt lat="44.86460385858963" lon="9.293201462532743"><ele>471.0</ele><time>2026-04-23T12:39:39.999Z</time></trkpt><trkpt lat="44.864626964420744" lon="9.293393982195232"><ele>471.0</ele><time>2026-04-23T12:39:40.999Z</time></trkpt><trkpt lat="44.864654113960626" lon="9.293574584247539"><ele>471.0</ele><time>2026-04-23T12:39:41.999Z</time></trkpt><trkpt lat="44.86467478940023" lon="9.293748757231333"><ele>471.0</ele><time>2026-04-23T12:39:42.999Z</time></trkpt><trkpt lat="44.864664324133166" lon="9.293917360081572"><ele>471.0</ele><time>2026-04-23T12:39:43.999Z</time></trkpt><trkpt lat="44.86460917544295" lon="9.294081159353148"><ele>471.0</ele><time>2026-04-23T12:39:44.999Z</time></trkpt><trkpt lat="44.86453037779979" lon="9.294239952408391"><ele>471.0</ele><time>2026-04-23T12:39:45.999Z</time></trkpt><trkpt lat="44.864472037942576" lon="9.294428647927475"><ele>471.0</ele><time>2026-04-23T12:39:46.999Z</time></trkpt><trkpt lat="44.86446057799164" lon="9.294625516489164"><ele>471.0</ele><time>2026-04-23T12:39:47.999Z</time></trkpt><trkpt lat="44.86447941966551" lon="9.294819680682156"><ele>471.0</ele><time>2026-04-23T12:39:48.998Z</time></trkpt><trkpt lat="44.86449421619501" lon="9.294996663262133"><ele>471.0</ele><time>2026-04-23T12:39:49.998Z</time></trkpt><trkpt lat="44.86448359177919" lon="9.295162429541051"><ele>471.0</ele><time>2026-04-23T12:39:50.998Z</time></trkpt><trkpt lat="44.8644238173374" lon="9.295295321438816"><ele>471.0</ele><time>2026-04-23T12:39:51.998Z</time></trkpt><trkpt lat="44.86433324852248" lon="9.295382054897114"><ele>477.25</ele><time>2026-04-23T12:39:52.998Z</time></trkpt><trkpt lat="44.86423289958181" lon="9.295469655679353"><ele>483.5</ele><time>2026-04-23T12:39:53.998Z</time></trkpt><trkpt lat="44.86415176304859" lon="9.29559025308163"><ele>489.75</ele><time>2026-04-23T12:39:54.998Z</time></trkpt><trkpt lat="44.86406512153939" lon="9.295716030764202"><ele>496.0</ele><time>2026-04-23T12:39:55.998Z</time></trkpt><trkpt lat="44.863997645018" lon="9.295863199765384"><ele>496.0</ele><time>2026-04-23T12:39:56.998Z</time></trkpt><trkpt lat="44.86396366956493" lon="9.296037928443715"><ele>496.0</ele><time>2026-04-23T12:39:58Z</time></trkpt><trkpt lat="44.863956245549524" lon="9.296232088834065"><ele>496.0</ele><time>2026-04-23T12:39:59Z</time></trkpt><trkpt lat="44.86392548963528" lon="9.29641419687091"><ele>496.0</ele><time>2026-04-23T12:40:00Z</time></trkpt><trkpt lat="44.86387292219278" lon="9.296585242899809"><ele>494.25</ele><time>2026-04-23T12:40:01Z</time></trkpt><trkpt lat="44.863829746752344" lon="9.2967712488265"><ele>492.5</ele><time>2026-04-23T12:40:02Z</time></trkpt><trkpt lat="44.86377694257413" lon="9.29695794630125"><ele>490.75</ele><time>2026-04-23T12:40:03Z</time></trkpt><trkpt lat="44.8637221417283" lon="9.297139558501806"><ele>489.0</ele><time>2026-04-23T12:40:04Z</time></trkpt><trkpt lat="44.863676098253926" lon="9.297318413555207"><ele>488.25</ele><time>2026-04-23T12:40:05Z</time></trkpt><trkpt lat="44.86362714081531" lon="9.297482595409177"><ele>487.5</ele><time>2026-04-23T12:40:06Z</time></trkpt><trkpt lat="44.86358472311901" lon="9.297650408952082"><ele>486.75</ele><time>2026-04-23T12:40:07Z</time></trkpt><trkpt lat="44.86355795973692" lon="9.297826171970232"><ele>486.0</ele><time>2026-04-23T12:40:08Z</time></trkpt><trkpt lat="44.86354174632155" lon="9.29802285494201"><ele>485.75</ele><time>2026-04-23T12:40:09Z</time></trkpt><trkpt lat="44.86352609931426" lon="9.298216166703785"><ele>485.5</ele><time>2026-04-23T12:40:10Z</time></trkpt><trkpt lat="44.86354361808561" lon="9.298414733040135"><ele>485.25</ele><time>2026-04-23T12:40:11Z</time></trkpt><trkpt lat="44.86356632055038" lon="9.298608723150629"><ele>485.0</ele><time>2026-04-23T12:40:12Z</time></trkpt><trkpt lat="44.8635974678298" lon="9.298797843536814"><ele>486.75</ele><time>2026-04-23T12:40:13Z</time></trkpt><trkpt lat="44.863635319994174" lon="9.29897634948278"><ele>488.5</ele><time>2026-04-23T12:40:14Z</time></trkpt><trkpt lat="44.86367703034958" lon="9.299143022141788"><ele>490.25</ele><time>2026-04-23T12:40:15Z</time></trkpt><trkpt lat="44.86374341896208" lon="9.299290714921712"><ele>492.0</ele><time>2026-04-23T12:40:16Z</time></trkpt><trkpt lat="44.86377223956537" lon="9.29944575235667"><ele>492.0</ele><time>2026-04-23T12:40:17Z</time></trkpt><trkpt lat="44.86376855123745" lon="9.299601684927133"><ele>492.0</ele><time>2026-04-23T12:40:18Z</time></trkpt><trkpt lat="44.863718152280136" lon="9.299766690839403"><ele>492.0</ele><time>2026-04-23T12:40:19Z</time></trkpt><trkpt lat="44.863654960345315" lon="9.299937987077803"><ele>492.0</ele><time>2026-04-23T12:40:20Z</time></trkpt><trkpt lat="44.86358441111345" lon="9.300108273842168"><ele>492.75</ele><time>2026-04-23T12:40:21Z</time></trkpt><trkpt lat="44.86352704006713" lon="9.300284893784436"><ele>493.5</ele><time>2026-04-23T12:40:22Z</time></trkpt><trkpt lat="44.863487088102474" lon="9.300467825333888"><ele>494.25</ele><time>2026-04-23T12:40:23Z</time></trkpt><trkpt lat="44.86343763241509" lon="9.300643743672552"><ele>495.0</ele><time>2026-04-23T12:40:24Z</time></trkpt><trkpt lat="44.86341725153046" lon="9.30082314594974"><ele>502.0</ele><time>2026-04-23T12:40:25Z</time></trkpt><trkpt lat="44.863354934255646" lon="9.30097912537418"><ele>509.0</ele><time>2026-04-23T12:40:26Z</time></trkpt><trkpt lat="44.86327530381324" lon="9.301109654845076"><ele>516.0</ele><time>2026-04-23T12:40:27Z</time></trkpt><trkpt lat="44.86315599067411" lon="9.301247091902605"><ele>523.0</ele><time>2026-04-23T12:40:28Z</time></trkpt><trkpt lat="44.863078947424654" lon="9.301377289792564"><ele>519.5</ele><time>2026-04-23T12:40:29Z</time></trkpt><trkpt lat="44.862998910687764" lon="9.301521540047172"><ele>516.0</ele><time>2026-04-23T12:40:30Z</time></trkpt><trkpt lat="44.86292287025366" lon="9.301658783836778"><ele>512.5</ele><time>2026-04-23T12:40:31Z</time></trkpt><trkpt lat="44.862856802852626" lon="9.301801031767535"><ele>509.0</ele><time>2026-04-23T12:40:32Z</time></trkpt><trkpt lat="44.862801287149665" lon="9.301959715706449"><ele>509.0</ele><time>2026-04-23T12:40:33Z</time></trkpt><trkpt lat="44.86275050410551" lon="9.30212884478145"><ele>509.0</ele><time>2026-04-23T12:40:34Z</time></trkpt><trkpt lat="44.86272399350653" lon="9.302308368873422"><ele>509.0</ele><time>2026-04-23T12:40:35Z</time></trkpt><trkpt lat="44.86270113940068" lon="9.3025020750543"><ele>509.0</ele><time>2026-04-23T12:40:36Z</time></trkpt><trkpt lat="44.8627090487021" lon="9.30270564179639"><ele>508.25</ele><time>2026-04-23T12:40:37Z</time></trkpt><trkpt lat="44.86276098028935" lon="9.302914931252207"><ele>507.5</ele><time>2026-04-23T12:40:38Z</time></trkpt><trkpt lat="44.862811983982134" lon="9.303112321917965"><ele>506.75</ele><time>2026-04-23T12:40:39Z</time></trkpt><trkpt lat="44.86283773905076" lon="9.303302950918097"><ele>506.0</ele><time>2026-04-23T12:40:40Z</time></trkpt><trkpt lat="44.86283860084742" lon="9.303487481052706"><ele>506.0</ele><time>2026-04-23T12:40:41Z</time></trkpt><trkpt lat="44.86282360931465" lon="9.303669773789684"><ele>506.0</ele><time>2026-04-23T12:40:42Z</time></trkpt><trkpt lat="44.86281828572354" lon="9.303853666893305"><ele>506.0</ele><time>2026-04-23T12:40:43Z</time></trkpt><trkpt lat="44.862818721200895" lon="9.304029738307104"><ele>506.0</ele><time>2026-04-23T12:40:44Z</time></trkpt><trkpt lat="44.862812574546474" lon="9.304203941876994"><ele>506.0</ele><time>2026-04-23T12:40:45Z</time></trkpt><trkpt lat="44.862805100072265" lon="9.304373657889304"><ele>506.0</ele><time>2026-04-23T12:40:46Z</time></trkpt><trkpt lat="44.862783337153104" lon="9.30453927187386"><ele>506.0</ele><time>2026-04-23T12:40:47Z</time></trkpt><trkpt lat="44.86274971346488" lon="9.3047031222712"><ele>506.0</ele><time>2026-04-23T12:40:48Z</time></trkpt><trkpt lat="44.86270624181016" lon="9.304880435704975"><ele>505.75</ele><time>2026-04-23T12:40:49Z</time></trkpt><trkpt lat="44.86266211744702" lon="9.305058754631993"><ele>505.5</ele><time>2026-04-23T12:40:50Z</time></trkpt><trkpt lat="44.86260194763231" lon="9.305226204332216"><ele>505.25</ele><time>2026-04-23T12:40:51Z</time></trkpt><trkpt lat="44.86253976938495" lon="9.305380086538106"><ele>505.0</ele><time>2026-04-23T12:40:51.999Z</time></trkpt><trkpt lat="44.86248458412724" lon="9.305535792649133"><ele>510.0</ele><time>2026-04-23T12:40:52.999Z</time></trkpt><trkpt lat="44.862433603702726" lon="9.30568387609472"><ele>515.0</ele><time>2026-04-23T12:40:53.999Z</time></trkpt><trkpt lat="44.862402633109994" lon="9.305841872799125"><ele>520.0</ele><time>2026-04-23T12:40:54.999Z</time></trkpt><trkpt lat="44.86240690386683" lon="9.306007749676514"><ele>525.0</ele><time>2026-04-23T12:40:55.999Z</time></trkpt><trkpt lat="44.862438910481316" lon="9.306178981043287"><ele>525.0</ele><time>2026-04-23T12:40:56.999Z</time></trkpt><trkpt lat="44.86249254703013" lon="9.306337990051945"><ele>525.0</ele><time>2026-04-23T12:40:57.999Z</time></trkpt><trkpt lat="44.862554647986016" lon="9.306487779061598"><ele>525.0</ele><time>2026-04-23T12:40:58.999Z</time></trkpt><trkpt lat="44.86260671608873" lon="9.306633011797805"><ele>525.0</ele><time>2026-04-23T12:40:59.999Z</time></trkpt><trkpt lat="44.86261797429065" lon="9.306785425119621"><ele>526.0</ele><time>2026-04-23T12:41:00.999Z</time></trkpt><trkpt lat="44.86258427039041" lon="9.306936216544871"><ele>527.0</ele><time>2026-04-23T12:41:01.999Z</time></trkpt><trkpt lat="44.86251931658127" lon="9.307093475876488"><ele>528.0</ele><time>2026-04-23T12:41:02.999Z</time></trkpt><trkpt lat="44.86248585760313" lon="9.30726614967707"><ele>529.0</ele><time>2026-04-23T12:41:03.999Z</time></trkpt><trkpt lat="44.862525601047864" lon="9.307454840088903"><ele>529.0</ele><time>2026-04-23T12:41:04.999Z</time></trkpt><trkpt lat="44.86260906832833" lon="9.307615929653462"><ele>529.0</ele><time>2026-04-23T12:41:05.999Z</time></trkpt><trkpt lat="44.86268465404882" lon="9.307783776322141"><ele>529.0</ele><time>2026-04-23T12:41:06.999Z</time></trkpt><trkpt lat="44.86277163782092" lon="9.307930339526006"><ele>529.0</ele><time>2026-04-23T12:41:07.999Z</time></trkpt><trkpt lat="44.86285375101981" lon="9.308072304021385"><ele>524.8</ele><time>2026-04-23T12:41:08.999Z</time></trkpt><trkpt lat="44.86292196259904" lon="9.308198344961994"><ele>520.5999999999999</ele><time>2026-04-23T12:41:09.999Z</time></trkpt><trkpt lat="44.86298965172763" lon="9.30831278364505"><ele>516.4</ele><time>2026-04-23T12:41:10.999Z</time></trkpt><trkpt lat="44.86301122682643" lon="9.308454203826647"><ele>512.1999999999999</ele><time>2026-04-23T12:41:11.999Z</time></trkpt><trkpt lat="44.86298521077308" lon="9.308599590447555"><ele>508.0</ele><time>2026-04-23T12:41:12.999Z</time></trkpt><trkpt lat="44.862886477034586" lon="9.308702847923055"><ele>508.0</ele><time>2026-04-23T12:41:13.999Z</time></trkpt><trkpt lat="44.86280673954916" lon="9.3087872314588"><ele>508.0</ele><time>2026-04-23T12:41:14.999Z</time></trkpt><trkpt lat="44.862692883684744" lon="9.308892921022322"><ele>508.0</ele><time>2026-04-23T12:41:15.999Z</time></trkpt><trkpt lat="44.862595427663415" lon="9.309013338614491"><ele>508.0</ele><time>2026-04-23T12:41:16.999Z</time></trkpt><trkpt lat="44.86253214112527" lon="9.309172503975038"><ele>511.0</ele><time>2026-04-23T12:41:17.999Z</time></trkpt><trkpt lat="44.8624831355559" lon="9.30935918306345"><ele>514.0</ele><time>2026-04-23T12:41:18.999Z</time></trkpt><trkpt lat="44.86243733229374" lon="9.309545942684487"><ele>517.0</ele><time>2026-04-23T12:41:19.999Z</time></trkpt><trkpt lat="44.86239973552724" lon="9.309735518187217"><ele>520.0</ele><time>2026-04-23T12:41:20.999Z</time></trkpt><trkpt lat="44.86236622772944" lon="9.309918995639398"><ele>520.0</ele><time>2026-04-23T12:41:21.999Z</time></trkpt><trkpt lat="44.86232207434063" lon="9.310105773739073"><ele>520.0</ele><time>2026-04-23T12:41:22.999Z</time></trkpt><trkpt lat="44.862266710335874" lon="9.310278052824632"><ele>520.0</ele><time>2026-04-23T12:41:23.999Z</time></trkpt><trkpt lat="44.86222764065053" lon="9.310461123625396"><ele>520.0</ele><time>2026-04-23T12:41:24.999Z</time></trkpt><trkpt lat="44.86223453161564" lon="9.310651748979158"><ele>519.0</ele><time>2026-04-23T12:41:25.999Z</time></trkpt><trkpt lat="44.86227174666313" lon="9.310828161717186"><ele>518.0</ele><time>2026-04-23T12:41:26.999Z</time></trkpt><trkpt lat="44.86229904130286" lon="9.311002458258507"><ele>517.0</ele><time>2026-04-23T12:41:27.999Z</time></trkpt><trkpt lat="44.86233663204682" lon="9.311168659525531"><ele>516.0</ele><time>2026-04-23T12:41:28.999Z</time></trkpt><trkpt lat="44.862321798887116" lon="9.311347086768887"><ele>516.0</ele><time>2026-04-23T12:41:29.999Z</time></trkpt><trkpt lat="44.86227476667243" lon="9.311527371650094"><ele>516.0</ele><time>2026-04-23T12:41:30.999Z</time></trkpt><trkpt lat="44.86220114226532" lon="9.31169706357944"><ele>516.0</ele><time>2026-04-23T12:41:31.999Z</time></trkpt><trkpt lat="44.862155579571585" lon="9.311881066411908"><ele>516.0</ele><time>2026-04-23T12:41:32.999Z</time></trkpt><trkpt lat="44.862117329199044" lon="9.31206448544476"><ele>516.0</ele><time>2026-04-23T12:41:33.999Z</time></trkpt><trkpt lat="44.8620643801634" lon="9.312236660649448"><ele>516.0</ele><time>2026-04-23T12:41:34.999Z</time></trkpt><trkpt lat="44.862020217080136" lon="9.31240730457593"><ele>516.0</ele><time>2026-04-23T12:41:35.999Z</time></trkpt><trkpt lat="44.861975880558894" lon="9.312576776734822"><ele>516.0</ele><time>2026-04-23T12:41:36.999Z</time></trkpt><trkpt lat="44.86193426730955" lon="9.312749283245457"><ele>514.5</ele><time>2026-04-23T12:41:37.999Z</time></trkpt><trkpt lat="44.86188918364256" lon="9.312924061952694"><ele>513.0</ele><time>2026-04-23T12:41:38.999Z</time></trkpt><trkpt lat="44.8618427883621" lon="9.3130918585896"><ele>511.5</ele><time>2026-04-23T12:41:39.999Z</time></trkpt><trkpt lat="44.86179863639256" lon="9.313263735321716"><ele>510.0</ele><time>2026-04-23T12:41:40.999Z</time></trkpt><trkpt lat="44.86175859590568" lon="9.313432768843374"><ele>513.75</ele><time>2026-04-23T12:41:41.999Z</time></trkpt><trkpt lat="44.86171502804534" lon="9.31359202095742"><ele>517.5</ele><time>2026-04-23T12:41:42.999Z</time></trkpt><trkpt lat="44.86165561533394" lon="9.313716190188268"><ele>521.25</ele><time>2026-04-23T12:41:43.999Z</time></trkpt><trkpt lat="44.86155880899575" lon="9.313819996195795"><ele>525.0</ele><time>2026-04-23T12:41:44.999Z</time></trkpt><trkpt lat="44.86145335183121" lon="9.313887045011867"><ele>523.25</ele><time>2026-04-23T12:41:45.999Z</time></trkpt><trkpt lat="44.861335862506955" lon="9.31393749210064"><ele>521.5</ele><time>2026-04-23T12:41:46.999Z</time></trkpt><trkpt lat="44.86121831170107" lon="9.313986347294252"><ele>519.75</ele><time>2026-04-23T12:41:47.999Z</time></trkpt><trkpt lat="44.86109181131239" lon="9.314062700057617"><ele>518.0</ele><time>2026-04-23T12:41:48.999Z</time></trkpt><trkpt lat="44.8609634126482" lon="9.314158836002038"><ele>520.25</ele><time>2026-04-23T12:41:49.999Z</time></trkpt><trkpt lat="44.86084187458673" lon="9.314280204051498"><ele>522.5</ele><time>2026-04-23T12:41:50.999Z</time></trkpt><trkpt lat="44.8607420182239" lon="9.314430381075958"><ele>524.75</ele><time>2026-04-23T12:41:51.999Z</time></trkpt><trkpt lat="44.860635746693426" lon="9.31454666839374"><ele>527.0</ele><time>2026-04-23T12:41:52.999Z</time></trkpt><trkpt lat="44.860539612314795" lon="9.314664331885865"><ele>525.5</ele><time>2026-04-23T12:41:53.999Z</time></trkpt><trkpt lat="44.86044651034825" lon="9.314772731501447"><ele>524.0</ele><time>2026-04-23T12:41:54.999Z</time></trkpt><trkpt lat="44.860354093220245" lon="9.314866273108853"><ele>522.5</ele><time>2026-04-23T12:41:55.999Z</time></trkpt><trkpt lat="44.860249823448044" lon="9.314938569704688"><ele>521.0</ele><time>2026-04-23T12:41:56.999Z</time></trkpt><trkpt lat="44.86013109187495" lon="9.314997257201348"><ele>522.25</ele><time>2026-04-23T12:41:57.999Z</time></trkpt><trkpt lat="44.86000073045971" lon="9.31504199710958"><ele>523.5</ele><time>2026-04-23T12:41:58.999Z</time></trkpt><trkpt lat="44.85987291644294" lon="9.315071849918967"><ele>524.75</ele><time>2026-04-23T12:41:59.999Z</time></trkpt><trkpt lat="44.859744297613425" lon="9.315084509086535"><ele>526.0</ele><time>2026-04-23T12:42:00.999Z</time></trkpt><trkpt lat="44.85962111363043" lon="9.315108299903313"><ele>526.0</ele><time>2026-04-23T12:42:01.998Z</time></trkpt><trkpt lat="44.85950662116299" lon="9.315168345480924"><ele>526.0</ele><time>2026-04-23T12:42:02.998Z</time></trkpt><trkpt lat="44.85940262559781" lon="9.315258238500249"><ele>526.0</ele><time>2026-04-23T12:42:04Z</time></trkpt><trkpt lat="44.85932065430492" lon="9.315379625491953"><ele>526.0</ele><time>2026-04-23T12:42:05Z</time></trkpt><trkpt lat="44.859271167165836" lon="9.315534515175104"><ele>527.25</ele><time>2026-04-23T12:42:06Z</time></trkpt><trkpt lat="44.85926186211119" lon="9.315707735433842"><ele>528.5</ele><time>2026-04-23T12:42:07Z</time></trkpt><trkpt lat="44.85929623990028" lon="9.315877828275688"><ele>529.75</ele><time>2026-04-23T12:42:08Z</time></trkpt><trkpt lat="44.859364376787916" lon="9.316026302979639"><ele>531.0</ele><time>2026-04-23T12:42:09Z</time></trkpt><trkpt lat="44.859462893286846" lon="9.316168214152206"><ele>528.75</ele><time>2026-04-23T12:42:10Z</time></trkpt><trkpt lat="44.859563294646534" lon="9.31628891395832"><ele>526.5</ele><time>2026-04-23T12:42:11Z</time></trkpt><trkpt lat="44.85966355055096" lon="9.316396506246889"><ele>524.25</ele><time>2026-04-23T12:42:12Z</time></trkpt><trkpt lat="44.859751478545164" lon="9.316474782614321"><ele>522.0</ele><time>2026-04-23T12:42:13Z</time></trkpt><trkpt lat="44.85979513370511" lon="9.3165883634477"><ele>522.0</ele><time>2026-04-23T12:42:14Z</time></trkpt><trkpt lat="44.8598107272055" lon="9.316705068833345"><ele>522.0</ele><time>2026-04-23T12:42:15Z</time></trkpt><trkpt lat="44.85978029129564" lon="9.316819882473839"><ele>522.0</ele><time>2026-04-23T12:42:16Z</time></trkpt><trkpt lat="44.859714664068946" lon="9.316951436484278"><ele>522.0</ele><time>2026-04-23T12:42:17Z</time></trkpt><trkpt lat="44.85963765707957" lon="9.317088362528922"><ele>522.0</ele><time>2026-04-23T12:42:18Z</time></trkpt><trkpt lat="44.85956477585755" lon="9.31722750468535"><ele>521.75</ele><time>2026-04-23T12:42:19Z</time></trkpt><trkpt lat="44.85949452510003" lon="9.317362970839065"><ele>521.5</ele><time>2026-04-23T12:42:20Z</time></trkpt><trkpt lat="44.85941382144279" lon="9.31750054729283"><ele>521.25</ele><time>2026-04-23T12:42:21Z</time></trkpt><trkpt lat="44.85933626906852" lon="9.31764252719511"><ele>521.0</ele><time>2026-04-23T12:42:22Z</time></trkpt><trkpt lat="44.859268482710284" lon="9.317786687785086"><ele>524.25</ele><time>2026-04-23T12:42:23Z</time></trkpt><trkpt lat="44.859203166845134" lon="9.317933564131962"><ele>527.5</ele><time>2026-04-23T12:42:24Z</time></trkpt><trkpt lat="44.85914378737654" lon="9.318082409704498"><ele>530.75</ele><time>2026-04-23T12:42:25Z</time></trkpt><trkpt lat="44.85909120790718" lon="9.318242740892222"><ele>534.0</ele><time>2026-04-23T12:42:26Z</time></trkpt><trkpt lat="44.85904196459525" lon="9.3184112350875"><ele>534.0</ele><time>2026-04-23T12:42:27Z</time></trkpt><trkpt lat="44.85899713982917" lon="9.318585227953"><ele>534.0</ele><time>2026-04-23T12:42:28Z</time></trkpt><trkpt lat="44.85894837169307" lon="9.318753950890484"><ele>534.0</ele><time>2026-04-23T12:42:29Z</time></trkpt><trkpt lat="44.85889275208742" lon="9.31891405519596"><ele>534.0</ele><time>2026-04-23T12:42:30Z</time></trkpt><trkpt lat="44.858823287754234" lon="9.319065688243741"><ele>531.75</ele><time>2026-04-23T12:42:31Z</time></trkpt><trkpt lat="44.85875379194863" lon="9.319208400557162"><ele>529.5</ele><time>2026-04-23T12:42:32Z</time></trkpt><trkpt lat="44.858687207205286" lon="9.319350883595645"><ele>527.25</ele><time>2026-04-23T12:42:33Z</time></trkpt><trkpt lat="44.8586206188309" lon="9.31949212611666"><ele>525.0</ele><time>2026-04-23T12:42:34Z</time></trkpt><trkpt lat="44.85855647076831" lon="9.319636641408009"><ele>523.0</ele><time>2026-04-23T12:42:35Z</time></trkpt><trkpt lat="44.85849560910023" lon="9.319781866557332"><ele>521.0</ele><time>2026-04-23T12:42:36Z</time></trkpt><trkpt lat="44.85844095330009" lon="9.31992385672323"><ele>519.0</ele><time>2026-04-23T12:42:37Z</time></trkpt><trkpt lat="44.858392841522594" lon="9.32007210814669"><ele>517.0</ele><time>2026-04-23T12:42:38Z</time></trkpt><trkpt lat="44.85835282447622" lon="9.320230346912604"><ele>522.5</ele><time>2026-04-23T12:42:39Z</time></trkpt><trkpt lat="44.85831196267434" lon="9.320388527438926"><ele>528.0</ele><time>2026-04-23T12:42:40Z</time></trkpt><trkpt lat="44.858271541416194" lon="9.320542004355262"><ele>533.5</ele><time>2026-04-23T12:42:41Z</time></trkpt><trkpt lat="44.85823506222687" lon="9.320697984512215"><ele>539.0</ele><time>2026-04-23T12:42:42Z</time></trkpt><trkpt lat="44.85819618300437" lon="9.320860296518742"><ele>539.0</ele><time>2026-04-23T12:42:43Z</time></trkpt><trkpt lat="44.858153415424695" lon="9.321027570955284"><ele>539.0</ele><time>2026-04-23T12:42:44Z</time></trkpt><trkpt lat="44.85811416689924" lon="9.321193282421213"><ele>539.0</ele><time>2026-04-23T12:42:45Z</time></trkpt><trkpt lat="44.85807692174079" lon="9.321357593356506"><ele>539.0</ele><time>2026-04-23T12:42:46Z</time></trkpt><trkpt lat="44.858036565825955" lon="9.321524153402226"><ele>537.25</ele><time>2026-04-23T12:42:47Z</time></trkpt><trkpt lat="44.857993901766825" lon="9.321688038198022"><ele>535.5</ele><time>2026-04-23T12:42:48Z</time></trkpt><trkpt lat="44.85794609372927" lon="9.321849495778167"><ele>533.75</ele><time>2026-04-23T12:42:49Z</time></trkpt><trkpt lat="44.85789142505878" lon="9.322012431791448"><ele>532.0</ele><time>2026-04-23T12:42:50Z</time></trkpt><trkpt lat="44.85782034813438" lon="9.322184579307791"><ele>530.75</ele><time>2026-04-23T12:42:51Z</time></trkpt><trkpt lat="44.85774051387" lon="9.32235558632601"><ele>529.5</ele><time>2026-04-23T12:42:52Z</time></trkpt><trkpt lat="44.85765672298606" lon="9.322522920968987"><ele>528.25</ele><time>2026-04-23T12:42:53Z</time></trkpt><trkpt lat="44.85757711024871" lon="9.322692466779056"><ele>527.0</ele><time>2026-04-23T12:42:54Z</time></trkpt><trkpt lat="44.85750453581721" lon="9.322864057947193"><ele>530.5</ele><time>2026-04-23T12:42:55Z</time></trkpt><trkpt lat="44.85743422281393" lon="9.323025217806869"><ele>534.0</ele><time>2026-04-23T12:42:55.999Z</time></trkpt><trkpt lat="44.8573627343155" lon="9.323182398446987"><ele>537.5</ele><time>2026-04-23T12:42:56.999Z</time></trkpt><trkpt lat="44.8572963161085" lon="9.323333454836746"><ele>541.0</ele><time>2026-04-23T12:42:57.999Z</time></trkpt><trkpt lat="44.85722831609469" lon="9.323485096406701"><ele>541.0</ele><time>2026-04-23T12:42:58.999Z</time></trkpt><trkpt lat="44.85716659777244" lon="9.323629033363318"><ele>541.0</ele><time>2026-04-23T12:42:59.999Z</time></trkpt><trkpt lat="44.857102795207574" lon="9.323770557406117"><ele>541.0</ele><time>2026-04-23T12:43:00.999Z</time></trkpt><trkpt lat="44.857037602138135" lon="9.32390624973974"><ele>541.0</ele><time>2026-04-23T12:43:01.999Z</time></trkpt><trkpt lat="44.856969166839974" lon="9.324030381997805"><ele>539.75</ele><time>2026-04-23T12:43:02.999Z</time></trkpt><trkpt lat="44.85688991928455" lon="9.32415227749878"><ele>538.5</ele><time>2026-04-23T12:43:03.999Z</time></trkpt><trkpt lat="44.85680244173564" lon="9.324257697877032"><ele>537.25</ele><time>2026-04-23T12:43:04.999Z</time></trkpt><trkpt lat="44.85669825191292" lon="9.324358372322411"><ele>536.0</ele><time>2026-04-23T12:43:05.999Z</time></trkpt><trkpt lat="44.85661532010175" lon="9.324466220544315"><ele>538.5</ele><time>2026-04-23T12:43:06.999Z</time></trkpt><trkpt lat="44.856564151054954" lon="9.324639117845452"><ele>541.0</ele><time>2026-04-23T12:43:07.999Z</time></trkpt><trkpt lat="44.85651222712418" lon="9.324814286213432"><ele>543.5</ele><time>2026-04-23T12:43:08.999Z</time></trkpt><trkpt lat="44.85645365394369" lon="9.324981729114931"><ele>546.0</ele><time>2026-04-23T12:43:09.999Z</time></trkpt><trkpt lat="44.8563947532906" lon="9.32514191490836"><ele>546.0</ele><time>2026-04-23T12:43:10.999Z</time></trkpt><trkpt lat="44.85633734743292" lon="9.325298670917475"><ele>546.0</ele><time>2026-04-23T12:43:11.999Z</time></trkpt><trkpt lat="44.8562827074363" lon="9.325464204571894"><ele>546.0</ele><time>2026-04-23T12:43:12.999Z</time></trkpt><trkpt lat="44.856224988545016" lon="9.325619602160396"><ele>546.0</ele><time>2026-04-23T12:43:13.999Z</time></trkpt><trkpt lat="44.85614415623682" lon="9.325752608859727"><ele>543.5</ele><time>2026-04-23T12:43:14.999Z</time></trkpt><trkpt lat="44.85604081450101" lon="9.325857575618112"><ele>541.0</ele><time>2026-04-23T12:43:15.999Z</time></trkpt><trkpt lat="44.85593556722737" lon="9.325963709951349"><ele>538.5</ele><time>2026-04-23T12:43:16.999Z</time></trkpt><trkpt lat="44.85583347376161" lon="9.326091782085102"><ele>536.0</ele><time>2026-04-23T12:43:17.999Z</time></trkpt><trkpt lat="44.85573022685195" lon="9.326215864492276"><ele>537.75</ele><time>2026-04-23T12:43:18.999Z</time></trkpt><trkpt lat="44.85561286420839" lon="9.326325719986114"><ele>539.5</ele><time>2026-04-23T12:43:19.999Z</time></trkpt><trkpt lat="44.855497275911645" lon="9.326416706991504"><ele>541.25</ele><time>2026-04-23T12:43:20.999Z</time></trkpt><trkpt lat="44.855379261620016" lon="9.326499719218324"><ele>543.0</ele><time>2026-04-23T12:43:21.999Z</time></trkpt><trkpt lat="44.85525373593609" lon="9.326588537352455"><ele>543.0</ele><time>2026-04-23T12:43:22.999Z</time></trkpt><trkpt lat="44.85514041702276" lon="9.326675639207792"><ele>543.0</ele><time>2026-04-23T12:43:23.999Z</time></trkpt><trkpt lat="44.85502416581152" lon="9.326751086620991"><ele>543.0</ele><time>2026-04-23T12:43:24.999Z</time></trkpt><trkpt lat="44.8549042622484" lon="9.326811603697367"><ele>543.0</ele><time>2026-04-23T12:43:25.999Z</time></trkpt><trkpt lat="44.85478509065353" lon="9.326865736188724"><ele>543.0</ele><time>2026-04-23T12:43:26.999Z</time></trkpt><trkpt lat="44.8546703036513" lon="9.326928906094517"><ele>543.0</ele><time>2026-04-23T12:43:27.999Z</time></trkpt><trkpt lat="44.85455804783749" lon="9.327006250501555"><ele>543.0</ele><time>2026-04-23T12:43:28.999Z</time></trkpt><trkpt lat="44.85445122134785" lon="9.327101625779369"><ele>543.0</ele><time>2026-04-23T12:43:29.999Z</time></trkpt><trkpt lat="44.85435219036016" lon="9.327230904396249"><ele>546.75</ele><time>2026-04-23T12:43:30.999Z</time></trkpt><trkpt lat="44.85426440456722" lon="9.327373222022057"><ele>550.5</ele><time>2026-04-23T12:43:31.999Z</time></trkpt><trkpt lat="44.85417227912813" lon="9.327515942516804"><ele>554.25</ele><time>2026-04-23T12:43:32.999Z</time></trkpt><trkpt lat="44.85408086640477" lon="9.327656262674463"><ele>558.0</ele><time>2026-04-23T12:43:33.999Z</time></trkpt><trkpt lat="44.853991057386835" lon="9.327798340003167"><ele>558.0</ele><time>2026-04-23T12:43:34.999Z</time></trkpt><trkpt lat="44.853902649564304" lon="9.327946662240112"><ele>558.0</ele><time>2026-04-23T12:43:35.999Z</time></trkpt><trkpt lat="44.853813180386226" lon="9.328093456761964"><ele>558.0</ele><time>2026-04-23T12:43:36.999Z</time></trkpt><trkpt lat="44.85372592710796" lon="9.328235245491575"><ele>558.0</ele><time>2026-04-23T12:43:37.999Z</time></trkpt><trkpt lat="44.85363929851684" lon="9.328372640390592"><ele>558.5</ele><time>2026-04-23T12:43:38.999Z</time></trkpt><trkpt lat="44.85355480040752" lon="9.32850013277059"><ele>559.0</ele><time>2026-04-23T12:43:39.999Z</time></trkpt><trkpt lat="44.85345789588617" lon="9.328616406495941"><ele>559.5</ele><time>2026-04-23T12:43:40.999Z</time></trkpt><trkpt lat="44.85336249699676" lon="9.328719600146837"><ele>560.0</ele><time>2026-04-23T12:43:41.999Z</time></trkpt><trkpt lat="44.85326863949847" lon="9.328806313823588"><ele>560.0</ele><time>2026-04-23T12:43:42.999Z</time></trkpt><trkpt lat="44.853177421961455" lon="9.328879661714051"><ele>560.0</ele><time>2026-04-23T12:43:43.999Z</time></trkpt><trkpt lat="44.85306466497354" lon="9.328948349122808"><ele>560.0</ele><time>2026-04-23T12:43:44.999Z</time></trkpt><trkpt lat="44.852957502421994" lon="9.329011852906387"><ele>560.0</ele><time>2026-04-23T12:43:45.999Z</time></trkpt><trkpt lat="44.85284449919798" lon="9.329059972976625"><ele>559.25</ele><time>2026-04-23T12:43:46.999Z</time></trkpt><trkpt lat="44.852721528461466" lon="9.329093175080194"><ele>558.5</ele><time>2026-04-23T12:43:47.999Z</time></trkpt><trkpt lat="44.85258687151456" lon="9.329117708105954"><ele>557.75</ele><time>2026-04-23T12:43:48.999Z</time></trkpt><trkpt lat="44.852451798764754" lon="9.329148086262421"><ele>557.0</ele><time>2026-04-23T12:43:49.999Z</time></trkpt><trkpt lat="44.852320387427866" lon="9.329183829970331"><ele>557.0</ele><time>2026-04-23T12:43:50.999Z</time></trkpt><trkpt lat="44.85219015081273" lon="9.329222604639831"><ele>557.0</ele><time>2026-04-23T12:43:51.999Z</time></trkpt><trkpt lat="44.8520668756318" lon="9.329284443339983"><ele>557.0</ele><time>2026-04-23T12:43:52.999Z</time></trkpt><trkpt lat="44.851959276035956" lon="9.329394586180117"><ele>557.0</ele><time>2026-04-23T12:43:53.999Z</time></trkpt><trkpt lat="44.85188408645705" lon="9.329548031799968"><ele>557.0</ele><time>2026-04-23T12:43:54.999Z</time></trkpt><trkpt lat="44.85183249467331" lon="9.329724176302904"><ele>557.0</ele><time>2026-04-23T12:43:55.999Z</time></trkpt><trkpt lat="44.85181269573317" lon="9.32992128290929"><ele>557.0</ele><time>2026-04-23T12:43:56.999Z</time></trkpt><trkpt lat="44.85178964693328" lon="9.330115208219592"><ele>557.0</ele><time>2026-04-23T12:43:57.999Z</time></trkpt><trkpt lat="44.851735205732496" lon="9.330285034027622"><ele>556.0</ele><time>2026-04-23T12:43:58.999Z</time></trkpt><trkpt lat="44.85166149182689" lon="9.330419646899426"><ele>555.0</ele><time>2026-04-23T12:43:59.999Z</time></trkpt><trkpt lat="44.85157656324996" lon="9.3305109853422"><ele>554.0</ele><time>2026-04-23T12:44:00.999Z</time></trkpt><trkpt lat="44.85146951616345" lon="9.330567255786843"><ele>553.0</ele><time>2026-04-23T12:44:01.999Z</time></trkpt><trkpt lat="44.851343802359864" lon="9.330578103375986"><ele>553.0</ele><time>2026-04-23T12:44:02.999Z</time></trkpt><trkpt lat="44.8512199262206" lon="9.330574787659003"><ele>553.0</ele><time>2026-04-23T12:44:03.998Z</time></trkpt><trkpt lat="44.8510801054462" lon="9.330589445460522"><ele>553.0</ele><time>2026-04-23T12:44:04.998Z</time></trkpt><trkpt lat="44.850947751254196" lon="9.330627910477093"><ele>553.0</ele><time>2026-04-23T12:44:05.998Z</time></trkpt><trkpt lat="44.85081264184581" lon="9.330671386031147"><ele>555.0</ele><time>2026-04-23T12:44:06.998Z</time></trkpt><trkpt lat="44.85068041500125" lon="9.330706434668844"><ele>557.0</ele><time>2026-04-23T12:44:07.998Z</time></trkpt><trkpt lat="44.85055062620643" lon="9.33075874394841"><ele>559.0</ele><time>2026-04-23T12:44:08.998Z</time></trkpt><trkpt lat="44.850423766017215" lon="9.330816679854129"><ele>561.0</ele><time>2026-04-23T12:44:10Z</time></trkpt><trkpt lat="44.85029715988697" lon="9.330860346453603"><ele>561.0</ele><time>2026-04-23T12:44:11Z</time></trkpt><trkpt lat="44.85016778864691" lon="9.330899430032005"><ele>561.0</ele><time>2026-04-23T12:44:12Z</time></trkpt><trkpt lat="44.850041862706924" lon="9.330945174174616"><ele>561.0</ele><time>2026-04-23T12:44:13Z</time></trkpt><trkpt lat="44.849908676041906" lon="9.330986515792171"><ele>561.0</ele><time>2026-04-23T12:44:14Z</time></trkpt><trkpt lat="44.84978374987322" lon="9.331027961505173"><ele>562.0</ele><time>2026-04-23T12:44:15Z</time></trkpt><trkpt lat="44.84966217350393" lon="9.331070885696393"><ele>563.0</ele><time>2026-04-23T12:44:16Z</time></trkpt><trkpt lat="44.84952871933196" lon="9.331127647086491"><ele>564.0</ele><time>2026-04-23T12:44:17Z</time></trkpt><trkpt lat="44.849388935035165" lon="9.331186743018415"><ele>565.0</ele><time>2026-04-23T12:44:18Z</time></trkpt><trkpt lat="44.84924811148995" lon="9.331252370072685"><ele>566.0</ele><time>2026-04-23T12:44:19Z</time></trkpt><trkpt lat="44.84910537868305" lon="9.331328917516629"><ele>567.0</ele><time>2026-04-23T12:44:20Z</time></trkpt><trkpt lat="44.848939887052346" lon="9.331414038220545"><ele>568.0</ele><time>2026-04-23T12:44:21Z</time></trkpt><trkpt lat="44.84879552338158" lon="9.331500046968934"><ele>566.5</ele><time>2026-04-23T12:44:22Z</time></trkpt><trkpt lat="44.84866080235705" lon="9.331590196936668"><ele>565.0</ele><time>2026-04-23T12:44:23Z</time></trkpt><trkpt lat="44.84852278157235" lon="9.331676523025532"><ele>563.5</ele><time>2026-04-23T12:44:24Z</time></trkpt><trkpt lat="44.84838895935913" lon="9.331752829707474"><ele>562.0</ele><time>2026-04-23T12:44:25Z</time></trkpt><trkpt lat="44.84825062168172" lon="9.331795233570956"><ele>562.0</ele><time>2026-04-23T12:44:26Z</time></trkpt><trkpt lat="44.84810839357479" lon="9.331796730203454"><ele>562.0</ele><time>2026-04-23T12:44:27Z</time></trkpt><trkpt lat="44.847962682571335" lon="9.33178171729775"><ele>562.0</ele><time>2026-04-23T12:44:28Z</time></trkpt><trkpt lat="44.84782099932441" lon="9.331753179053297"><ele>562.0</ele><time>2026-04-23T12:44:29Z</time></trkpt><trkpt lat="44.847681228434844" lon="9.331714466289833"><ele>562.5</ele><time>2026-04-23T12:44:30Z</time></trkpt><trkpt lat="44.84753915833704" lon="9.331669933773062"><ele>563.0</ele><time>2026-04-23T12:44:31Z</time></trkpt><trkpt lat="44.84740350609352" lon="9.331622585156069"><ele>563.5</ele><time>2026-04-23T12:44:32Z</time></trkpt><trkpt lat="44.84727538797585" lon="9.331548477340927"><ele>564.0</ele><time>2026-04-23T12:44:33Z</time></trkpt><trkpt lat="44.84715135154404" lon="9.33148474470542"><ele>564.0</ele><time>2026-04-23T12:44:34Z</time></trkpt><trkpt lat="44.84703717793883" lon="9.331406366381904"><ele>564.0</ele><time>2026-04-23T12:44:35Z</time></trkpt><trkpt lat="44.846932895680716" lon="9.331323094114746"><ele>564.0</ele><time>2026-04-23T12:44:36Z</time></trkpt><trkpt lat="44.846831830590055" lon="9.331235937204777"><ele>564.0</ele><time>2026-04-23T12:44:37Z</time></trkpt><trkpt lat="44.84673409032827" lon="9.331161714828022"><ele>565.0</ele><time>2026-04-23T12:44:38Z</time></trkpt><trkpt lat="44.846625003086444" lon="9.331122403452541"><ele>566.0</ele><time>2026-04-23T12:44:39Z</time></trkpt><trkpt lat="44.84650737344484" lon="9.331120090776928"><ele>567.0</ele><time>2026-04-23T12:44:40Z</time></trkpt><trkpt lat="44.846380306698336" lon="9.331120323007283"><ele>568.0</ele><time>2026-04-23T12:44:41Z</time></trkpt><trkpt lat="44.846253556104074" lon="9.331130148225181"><ele>568.0</ele><time>2026-04-23T12:44:42Z</time></trkpt><trkpt lat="44.84612590543213" lon="9.33113647366797"><ele>568.0</ele><time>2026-04-23T12:44:43Z</time></trkpt><trkpt lat="44.845996894354" lon="9.3311419754746"><ele>568.0</ele><time>2026-04-23T12:44:44Z</time></trkpt><trkpt lat="44.84586725486829" lon="9.33113238977861"><ele>568.0</ele><time>2026-04-23T12:44:45Z</time></trkpt><trkpt lat="44.845741317651516" lon="9.33112059061256"><ele>568.75</ele><time>2026-04-23T12:44:46Z</time></trkpt><trkpt lat="44.845618512242766" lon="9.331119187045424"><ele>569.5</ele><time>2026-04-23T12:44:47Z</time></trkpt><trkpt lat="44.845494743824666" lon="9.331149749520902"><ele>570.25</ele><time>2026-04-23T12:44:48Z</time></trkpt><trkpt lat="44.84537606856349" lon="9.331205763217076"><ele>571.0</ele><time>2026-04-23T12:44:49Z</time></trkpt><trkpt lat="44.845261699609324" lon="9.331282105922838"><ele>571.0</ele><time>2026-04-23T12:44:50Z</time></trkpt><trkpt lat="44.84514662112776" lon="9.33136165872313"><ele>571.0</ele><time>2026-04-23T12:44:51Z</time></trkpt><trkpt lat="44.84503053939481" lon="9.331431564223923"><ele>571.0</ele><time>2026-04-23T12:44:52Z</time></trkpt><trkpt lat="44.84491374464496" lon="9.331479497359247"><ele>571.0</ele><time>2026-04-23T12:44:53Z</time></trkpt><trkpt lat="44.844789850325036" lon="9.331508750536797"><ele>570.5</ele><time>2026-04-23T12:44:54Z</time></trkpt><trkpt lat="44.844662057034505" lon="9.331531245793455"><ele>570.0</ele><time>2026-04-23T12:44:55Z</time></trkpt><trkpt lat="44.84452826824495" lon="9.331548233316397"><ele>569.5</ele><time>2026-04-23T12:44:56Z</time></trkpt><trkpt lat="44.84439767306144" lon="9.331572420459011"><ele>569.0</ele><time>2026-04-23T12:44:57Z</time></trkpt><trkpt lat="44.84427519344644" lon="9.331598241893635"><ele>570.25</ele><time>2026-04-23T12:44:58Z</time></trkpt><trkpt lat="44.84415215897358" lon="9.331624467908588"><ele>571.5</ele><time>2026-04-23T12:44:59Z</time></trkpt><trkpt lat="44.84402946955925" lon="9.331638499260576"><ele>572.75</ele><time>2026-04-23T12:45:00Z</time></trkpt><trkpt lat="44.8439044689801" lon="9.331661543209247"><ele>574.0</ele><time>2026-04-23T12:45:01Z</time></trkpt><trkpt lat="44.84378888860123" lon="9.331685142526586"><ele>574.0</ele><time>2026-04-23T12:45:01.999Z</time></trkpt><trkpt lat="44.8436741152601" lon="9.331700659452553"><ele>574.0</ele><time>2026-04-23T12:45:02.999Z</time></trkpt><trkpt lat="44.84355869056627" lon="9.331710238138937"><ele>574.0</ele><time>2026-04-23T12:45:03.999Z</time></trkpt><trkpt lat="44.843447319044834" lon="9.331719437160482"><ele>574.0</ele><time>2026-04-23T12:45:04.999Z</time></trkpt><trkpt lat="44.84333246699695" lon="9.331717429702126"><ele>574.5</ele><time>2026-04-23T12:45:05.999Z</time></trkpt><trkpt lat="44.843216418609" lon="9.33169715886832"><ele>575.0</ele><time>2026-04-23T12:45:06.999Z</time></trkpt><trkpt lat="44.84309666888417" lon="9.331662278543517"><ele>575.5</ele><time>2026-04-23T12:45:07.999Z</time></trkpt><trkpt lat="44.84297838571313" lon="9.331629841004302"><ele>576.0</ele><time>2026-04-23T12:45:08.999Z</time></trkpt><trkpt lat="44.842861150016354" lon="9.331599044083248"><ele>576.0</ele><time>2026-04-23T12:45:09.999Z</time></trkpt><trkpt lat="44.84274739151797" lon="9.331561427955144"><ele>576.0</ele><time>2026-04-23T12:45:10.999Z</time></trkpt><trkpt lat="44.84263636892848" lon="9.331523287315342"><ele>576.0</ele><time>2026-04-23T12:45:11.999Z</time></trkpt><trkpt lat="44.84252668520949" lon="9.331496572947252"><ele>576.0</ele><time>2026-04-23T12:45:12.999Z</time></trkpt><trkpt lat="44.84241757244065" lon="9.331484441482333"><ele>576.25</ele><time>2026-04-23T12:45:13.999Z</time></trkpt><trkpt lat="44.84230646790524" lon="9.331496669395019"><ele>576.5</ele><time>2026-04-23T12:45:14.999Z</time></trkpt><trkpt lat="44.842198328485885" lon="9.331533720424778"><ele>576.75</ele><time>2026-04-23T12:45:15.999Z</time></trkpt><trkpt lat="44.84209001334193" lon="9.331586086844627"><ele>577.0</ele><time>2026-04-23T12:45:16.999Z</time></trkpt><trkpt lat="44.841983466829106" lon="9.331685758872002"><ele>577.0</ele><time>2026-04-23T12:45:17.999Z</time></trkpt><trkpt lat="44.841896454505125" lon="9.331823646317023"><ele>577.0</ele><time>2026-04-23T12:45:18.999Z</time></trkpt><trkpt lat="44.841812607618174" lon="9.331959431699472"><ele>577.0</ele><time>2026-04-23T12:45:19.999Z</time></trkpt><trkpt lat="44.841716902529406" lon="9.332059436179406"><ele>577.0</ele><time>2026-04-23T12:45:20.999Z</time></trkpt><trkpt lat="44.841614105836776" lon="9.332129119589496"><ele>578.25</ele><time>2026-04-23T12:45:21.999Z</time></trkpt><trkpt lat="44.841507974963136" lon="9.332161471788893"><ele>579.5</ele><time>2026-04-23T12:45:22.999Z</time></trkpt><trkpt lat="44.841385443694" lon="9.332136340275131"><ele>580.75</ele><time>2026-04-23T12:45:23.999Z</time></trkpt><trkpt lat="44.8412601172099" lon="9.332086072474095"><ele>582.0</ele><time>2026-04-23T12:45:24.999Z</time></trkpt><trkpt lat="44.841138165769934" lon="9.332025404138115"><ele>582.0</ele><time>2026-04-23T12:45:25.999Z</time></trkpt><trkpt lat="44.84102853587818" lon="9.331938817140554"><ele>582.0</ele><time>2026-04-23T12:45:26.999Z</time></trkpt><trkpt lat="44.840938299656024" lon="9.331826200001613"><ele>582.0</ele><time>2026-04-23T12:45:27.999Z</time></trkpt><trkpt lat="44.84085408205496" lon="9.331719573025964"><ele>582.0</ele><time>2026-04-23T12:45:28.999Z</time></trkpt><trkpt lat="44.84076954185443" lon="9.33159983325097"><ele>583.0</ele><time>2026-04-23T12:45:29.999Z</time></trkpt><trkpt lat="44.840680443546745" lon="9.331479759323145"><ele>584.0</ele><time>2026-04-23T12:45:30.999Z</time></trkpt><trkpt lat="44.840593649174" lon="9.331359558474121"><ele>585.0</ele><time>2026-04-23T12:45:31.999Z</time></trkpt><trkpt lat="44.840508626258575" lon="9.331245913949143"><ele>586.0</ele><time>2026-04-23T12:45:32.999Z</time></trkpt><trkpt lat="44.840423149240635" lon="9.331131826405493"><ele>586.25</ele><time>2026-04-23T12:45:33.999Z</time></trkpt><trkpt lat="44.84033722011417" lon="9.331018452679665"><ele>586.5</ele><time>2026-04-23T12:45:34.999Z</time></trkpt><trkpt lat="44.84025411710008" lon="9.330904938691097"><ele>586.75</ele><time>2026-04-23T12:45:35.999Z</time></trkpt><trkpt lat="44.84017034045745" lon="9.33080118665106"><ele>587.0</ele><time>2026-04-23T12:45:36.999Z</time></trkpt><trkpt lat="44.84009250516681" lon="9.33069334710495"><ele>587.0</ele><time>2026-04-23T12:45:37.999Z</time></trkpt><trkpt lat="44.84001717393477" lon="9.330595536997329"><ele>587.0</ele><time>2026-04-23T12:45:38.999Z</time></trkpt><trkpt lat="44.83993336890836" lon="9.330530998229595"><ele>587.0</ele><time>2026-04-23T12:45:39.999Z</time></trkpt><trkpt lat="44.839841379656086" lon="9.330516003962703"><ele>587.0</ele><time>2026-04-23T12:45:40.999Z</time></trkpt><trkpt lat="44.83974399038311" lon="9.330522242036707"><ele>587.0</ele><time>2026-04-23T12:45:41.999Z</time></trkpt><trkpt lat="44.83963545451706" lon="9.330563762508152"><ele>587.0</ele><time>2026-04-23T12:45:42.999Z</time></trkpt><trkpt lat="44.83952091923948" lon="9.330628058151676"><ele>587.0</ele><time>2026-04-23T12:45:43.999Z</time></trkpt><trkpt lat="44.839403937944596" lon="9.330694854580422"><ele>587.0</ele><time>2026-04-23T12:45:44.999Z</time></trkpt><trkpt lat="44.83927873409557" lon="9.33074978987135"><ele>587.0</ele><time>2026-04-23T12:45:45.999Z</time></trkpt><trkpt lat="44.83915066594857" lon="9.330807674507552"><ele>587.0</ele><time>2026-04-23T12:45:46.999Z</time></trkpt><trkpt lat="44.83902668009645" lon="9.33086744865431"><ele>587.0</ele><time>2026-04-23T12:45:47.999Z</time></trkpt><trkpt lat="44.83891678770272" lon="9.330919841452259"><ele>587.0</ele><time>2026-04-23T12:45:48.999Z</time></trkpt><trkpt lat="44.83881117442293" lon="9.330935731994805"><ele>587.0</ele><time>2026-04-23T12:45:49.999Z</time></trkpt><trkpt lat="44.838706722375015" lon="9.330921864129433"><ele>587.0</ele><time>2026-04-23T12:45:50.999Z</time></trkpt><trkpt lat="44.83860036945546" lon="9.33087465915751"><ele>587.0</ele><time>2026-04-23T12:45:51.999Z</time></trkpt><trkpt lat="44.83849318561845" lon="9.3308096407556"><ele>587.0</ele><time>2026-04-23T12:45:52.999Z</time></trkpt><trkpt lat="44.83839461779781" lon="9.330759255967681"><ele>587.0</ele><time>2026-04-23T12:45:53.999Z</time></trkpt><trkpt lat="44.83830410766988" lon="9.330726450392724"><ele>587.0</ele><time>2026-04-23T12:45:54.999Z</time></trkpt><trkpt lat="44.83821573147308" lon="9.330684516351944"><ele>588.2</ele><time>2026-04-23T12:45:55.999Z</time></trkpt><trkpt lat="44.838124604117425" lon="9.330634386708471"><ele>589.4000000000001</ele><time>2026-04-23T12:45:56.999Z</time></trkpt><trkpt lat="44.838028462488936" lon="9.330580572051126"><ele>590.5999999999999</ele><time>2026-04-23T12:45:57.999Z</time></trkpt><trkpt lat="44.83793128469917" lon="9.330525049538494"><ele>591.8</ele><time>2026-04-23T12:45:58.999Z</time></trkpt><trkpt lat="44.837832188960526" lon="9.330467422545226"><ele>593.0</ele><time>2026-04-23T12:45:59.999Z</time></trkpt><trkpt lat="44.837741270661795" lon="9.330405142361561"><ele>595.75</ele><time>2026-04-23T12:46:00.999Z</time></trkpt><trkpt lat="44.8376557844339" lon="9.330320187745128"><ele>598.5</ele><time>2026-04-23T12:46:01.999Z</time></trkpt><trkpt lat="44.83758247305523" lon="9.330204025108822"><ele>601.25</ele><time>2026-04-23T12:46:02.999Z</time></trkpt><trkpt lat="44.837523799955484" lon="9.33006237087793"><ele>604.0</ele><time>2026-04-23T12:46:03.999Z</time></trkpt><trkpt lat="44.837470773292786" lon="9.329901409019769"><ele>604.0</ele><time>2026-04-23T12:46:04.999Z</time></trkpt><trkpt lat="44.837425557946716" lon="9.329736725970776"><ele>604.0</ele><time>2026-04-23T12:46:05.999Z</time></trkpt><trkpt lat="44.83737400233596" lon="9.329566488745307"><ele>604.0</ele><time>2026-04-23T12:46:06.999Z</time></trkpt><trkpt lat="44.83733236463033" lon="9.32941401769833"><ele>604.0</ele><time>2026-04-23T12:46:07.999Z</time></trkpt><trkpt lat="44.83730471452947" lon="9.329252562843015"><ele>606.6</ele><time>2026-04-23T12:46:08.998Z</time></trkpt><trkpt lat="44.83728169793576" lon="9.329095341564567"><ele>609.2</ele><time>2026-04-23T12:46:09.998Z</time></trkpt><trkpt lat="44.837257079804836" lon="9.328941182825954"><ele>611.8000000000001</ele><time>2026-04-23T12:46:10.998Z</time></trkpt><trkpt lat="44.837228007173245" lon="9.328794282321432"><ele>614.4</ele><time>2026-04-23T12:46:11.998Z</time></trkpt><trkpt lat="44.837192336580465" lon="9.328649024769243"><ele>617.0</ele><time>2026-04-23T12:46:12.998Z</time></trkpt><trkpt lat="44.8371421679181" lon="9.328506544953342"><ele>617.5</ele><time>2026-04-23T12:46:13.998Z</time></trkpt><trkpt lat="44.83708547318637" lon="9.328360741167202"><ele>618.0</ele><time>2026-04-23T12:46:14.998Z</time></trkpt><trkpt lat="44.837034894275405" lon="9.328202375002558"><ele>618.5</ele><time>2026-04-23T12:46:16Z</time></trkpt><trkpt lat="44.836987739108054" lon="9.328038878954002"><ele>619.0</ele><time>2026-04-23T12:46:17Z</time></trkpt><trkpt lat="44.83694262290501" lon="9.327874016403852"><ele>620.0</ele><time>2026-04-23T12:46:18Z</time></trkpt><trkpt lat="44.83689462475201" lon="9.327723109704168"><ele>621.0</ele><time>2026-04-23T12:46:19Z</time></trkpt><trkpt lat="44.836851748803234" lon="9.327566558258747"><ele>622.0</ele><time>2026-04-23T12:46:20Z</time></trkpt><trkpt lat="44.836809298928955" lon="9.327413053549533"><ele>623.0</ele><time>2026-04-23T12:46:21Z</time></trkpt><trkpt lat="44.83676360262336" lon="9.327258745725663"><ele>621.75</ele><time>2026-04-23T12:46:22Z</time></trkpt><trkpt lat="44.83671843709713" lon="9.327107617453686"><ele>620.5</ele><time>2026-04-23T12:46:23Z</time></trkpt><trkpt lat="44.83667756218791" lon="9.326956436052775"><ele>619.25</ele><time>2026-04-23T12:46:24Z</time></trkpt><trkpt lat="44.83663146048462" lon="9.326800888385046"><ele>618.0</ele><time>2026-04-23T12:46:25Z</time></trkpt><trkpt lat="44.83658157306771" lon="9.326650387909641"><ele>618.0</ele><time>2026-04-23T12:46:26Z</time></trkpt><trkpt lat="44.83653206589611" lon="9.326495950293234"><ele>618.0</ele><time>2026-04-23T12:46:27Z</time></trkpt><trkpt lat="44.836483669900616" lon="9.326345606373776"><ele>618.0</ele><time>2026-04-23T12:46:28Z</time></trkpt><trkpt lat="44.836438550589754" lon="9.326191181536963"><ele>618.0</ele><time>2026-04-23T12:46:29Z</time></trkpt><trkpt lat="44.83638734768627" lon="9.326029366627935"><ele>620.5</ele><time>2026-04-23T12:46:30Z</time></trkpt><trkpt lat="44.836327244307796" lon="9.325873134824919"><ele>623.0</ele><time>2026-04-23T12:46:31Z</time></trkpt><trkpt lat="44.836258867460394" lon="9.325720288206087"><ele>625.5</ele><time>2026-04-23T12:46:32Z</time></trkpt><trkpt lat="44.83618316467933" lon="9.325576121984682"><ele>628.0</ele><time>2026-04-23T12:46:33Z</time></trkpt><trkpt lat="44.836103110392436" lon="9.325437510726005"><ele>627.0</ele><time>2026-04-23T12:46:34Z</time></trkpt><trkpt lat="44.836021106624806" lon="9.325299953258249"><ele>626.0</ele><time>2026-04-23T12:46:35Z</time></trkpt><trkpt lat="44.83594095195871" lon="9.3251669284398"><ele>625.0</ele><time>2026-04-23T12:46:36Z</time></trkpt><trkpt lat="44.83585583812578" lon="9.325044493251314"><ele>624.0</ele><time>2026-04-23T12:46:37Z</time></trkpt><trkpt lat="44.83577400997892" lon="9.324922845278046"><ele>624.0</ele><time>2026-04-23T12:46:38Z</time></trkpt><trkpt lat="44.83569068090991" lon="9.324809256013879"><ele>624.0</ele><time>2026-04-23T12:46:39Z</time></trkpt><trkpt lat="44.835608904941296" lon="9.324703403645943"><ele>624.0</ele><time>2026-04-23T12:46:40Z</time></trkpt><trkpt lat="44.83552846644425" lon="9.324602006130116"><ele>624.0</ele><time>2026-04-23T12:46:41Z</time></trkpt><trkpt lat="44.835448496178756" lon="9.324494933292854"><ele>624.0</ele><time>2026-04-23T12:46:42Z</time></trkpt><trkpt lat="44.83536360585909" lon="9.324380701070869"><ele>626.25</ele><time>2026-04-23T12:46:43Z</time></trkpt><trkpt lat="44.8352775544983" lon="9.324262581083632"><ele>628.5</ele><time>2026-04-23T12:46:44Z</time></trkpt><trkpt lat="44.835186333467874" lon="9.324140519740252"><ele>630.75</ele><time>2026-04-23T12:46:45Z</time></trkpt><trkpt lat="44.83509460113918" lon="9.324026227079708"><ele>633.0</ele><time>2026-04-23T12:46:46Z</time></trkpt><trkpt lat="44.83500254891726" lon="9.323917139343555"><ele>635.75</ele><time>2026-04-23T12:46:47Z</time></trkpt><trkpt lat="44.834910259656006" lon="9.323810918687535"><ele>638.5</ele><time>2026-04-23T12:46:48Z</time></trkpt><trkpt lat="44.834825153530815" lon="9.323701349938975"><ele>641.25</ele><time>2026-04-23T12:46:49Z</time></trkpt><trkpt lat="44.83473875149292" lon="9.323591350834603"><ele>644.0</ele><time>2026-04-23T12:46:50Z</time></trkpt><trkpt lat="44.834659791532715" lon="9.323481512076123"><ele>644.0</ele><time>2026-04-23T12:46:51Z</time></trkpt><trkpt lat="44.83457704345066" lon="9.323379554897198"><ele>644.0</ele><time>2026-04-23T12:46:52Z</time></trkpt><trkpt lat="44.83449522812287" lon="9.32328387060197"><ele>644.0</ele><time>2026-04-23T12:46:53Z</time></trkpt><trkpt lat="44.834417377314416" lon="9.323177546134488"><ele>644.0</ele><time>2026-04-23T12:46:54Z</time></trkpt><trkpt lat="44.83434432262383" lon="9.32307113787107"><ele>644.0</ele><time>2026-04-23T12:46:55Z</time></trkpt><trkpt lat="44.8342735611696" lon="9.322959176081856"><ele>644.5</ele><time>2026-04-23T12:46:56Z</time></trkpt><trkpt lat="44.834212832073135" lon="9.322833464135957"><ele>645.0</ele><time>2026-04-23T12:46:57Z</time></trkpt><trkpt lat="44.834164737913675" lon="9.322698259456306"><ele>645.5</ele><time>2026-04-23T12:46:58Z</time></trkpt><trkpt lat="44.83410917874483" lon="9.322555242186711"><ele>646.0</ele><time>2026-04-23T12:46:59Z</time></trkpt><trkpt lat="44.83403442376147" lon="9.322424941047768"><ele>646.0</ele><time>2026-04-23T12:47:00Z</time></trkpt><trkpt lat="44.83395734717038" lon="9.322300539582292"><ele>646.0</ele><time>2026-04-23T12:47:01Z</time></trkpt><trkpt lat="44.833877795081456" lon="9.322179480362994"><ele>646.0</ele><time>2026-04-23T12:47:02Z</time></trkpt><trkpt lat="44.83380766097139" lon="9.322072994040061"><ele>646.0</ele><time>2026-04-23T12:47:02.999Z</time></trkpt><trkpt lat="44.83373710389548" lon="9.321993745944399"><ele>646.0</ele><time>2026-04-23T12:47:03.999Z</time></trkpt><trkpt lat="44.83367472601489" lon="9.321916457970932"><ele>647.0</ele><time>2026-04-23T12:47:04.999Z</time></trkpt><trkpt lat="44.833607646424255" lon="9.321864600782343"><ele>648.0</ele><time>2026-04-23T12:47:05.999Z</time></trkpt><trkpt lat="44.83353976267639" lon="9.321845590953412"><ele>649.0</ele><time>2026-04-23T12:47:06.999Z</time></trkpt><trkpt lat="44.83347682553763" lon="9.321859346192293"><ele>650.0</ele><time>2026-04-23T12:47:07.999Z</time></trkpt><trkpt lat="44.833417626218115" lon="9.321899458244557"><ele>651.0</ele><time>2026-04-23T12:47:08.999Z</time></trkpt><trkpt lat="44.83336302371785" lon="9.321987924357312"><ele>652.0</ele><time>2026-04-23T12:47:09.999Z</time></trkpt><trkpt lat="44.83332690629628" lon="9.32210677352746"><ele>652.6</ele><time>2026-04-23T12:47:10.999Z</time></trkpt><trkpt lat="44.83332478547889" lon="9.32225379185298"><ele>653.2</ele><time>2026-04-23T12:47:11.999Z</time></trkpt><trkpt lat="44.833368005529486" lon="9.322400989174344"><ele>653.8</ele><time>2026-04-23T12:47:12.999Z</time></trkpt><trkpt lat="44.83339675952943" lon="9.32256410044203"><ele>654.4</ele><time>2026-04-23T12:47:13.999Z</time></trkpt><trkpt lat="44.83342176412132" lon="9.322717856535606"><ele>655.0</ele><time>2026-04-23T12:47:14.999Z</time></trkpt><trkpt lat="44.83343246747333" lon="9.322885665049425"><ele>657.6666666666667</ele><time>2026-04-23T12:47:15.999Z</time></trkpt><trkpt lat="44.833463737895244" lon="9.323072212312034"><ele>660.3333333333334</ele><time>2026-04-23T12:47:16.999Z</time></trkpt><trkpt lat="44.83351998887122" lon="9.32328742996188"><ele>663.0</ele><time>2026-04-23T12:47:17.999Z</time></trkpt><trkpt lat="44.83357752415303" lon="9.323508550678078"><ele>655.6666666666666</ele><time>2026-04-23T12:47:18.999Z</time></trkpt><trkpt lat="44.83361672601422" lon="9.323707652933324"><ele>648.3333333333333</ele><time>2026-04-23T12:47:19.999Z</time></trkpt><trkpt lat="44.833664924041365" lon="9.32391362991804"><ele>641.0</ele><time>2026-04-23T12:47:20.999Z</time></trkpt><trkpt lat="44.833700666562514" lon="9.324139142225183"><ele>641.0</ele><time>2026-04-23T12:47:21.999Z</time></trkpt><trkpt lat="44.833733236089394" lon="9.324367526857088"><ele>641.0</ele><time>2026-04-23T12:47:22.999Z</time></trkpt><trkpt lat="44.83375099891247" lon="9.324582457161382"><ele>641.0</ele><time>2026-04-23T12:47:23.999Z</time></trkpt><trkpt lat="44.83375146855462" lon="9.324786218959908"><ele>643.75</ele><time>2026-04-23T12:47:24.999Z</time></trkpt><trkpt lat="44.83376310192449" lon="9.324978954825918"><ele>646.5</ele><time>2026-04-23T12:47:25.999Z</time></trkpt><trkpt lat="44.83382759557416" lon="9.325156181087703"><ele>649.25</ele><time>2026-04-23T12:47:26.999Z</time></trkpt><trkpt lat="44.833907036702" lon="9.325324205106256"><ele>652.0</ele><time>2026-04-23T12:47:27.999Z</time></trkpt><trkpt lat="44.83397976417016" lon="9.325497397700135"><ele>655.0</ele><time>2026-04-23T12:47:28.999Z</time></trkpt><trkpt lat="44.83405964448689" lon="9.325650408760753"><ele>658.0</ele><time>2026-04-23T12:47:29.999Z</time></trkpt><trkpt lat="44.83415526836013" lon="9.325784876090067"><ele>661.0</ele><time>2026-04-23T12:47:30.999Z</time></trkpt><trkpt lat="44.83423814657256" lon="9.325912874996153"><ele>664.0</ele><time>2026-04-23T12:47:31.999Z</time></trkpt><trkpt lat="44.83430928442457" lon="9.326072825411929"><ele>659.75</ele><time>2026-04-23T12:47:32.999Z</time></trkpt><trkpt lat="44.83436761911801" lon="9.32627005100039"><ele>655.5</ele><time>2026-04-23T12:47:33.999Z</time></trkpt><trkpt lat="44.834416276944935" lon="9.326457893272822"><ele>651.25</ele><time>2026-04-23T12:47:34.999Z</time></trkpt><trkpt lat="44.8344574413004" lon="9.32661600118828"><ele>647.0</ele><time>2026-04-23T12:47:35.999Z</time></trkpt><trkpt lat="44.834449660901676" lon="9.326751788834569"><ele>647.0</ele><time>2026-04-23T12:47:36.999Z</time></trkpt><trkpt lat="44.83439033625183" lon="9.32685358228621"><ele>647.0</ele><time>2026-04-23T12:47:37.999Z</time></trkpt><trkpt lat="44.83430168851434" lon="9.326921009697683"><ele>647.0</ele><time>2026-04-23T12:47:38.999Z</time></trkpt><trkpt lat="44.83418369944954" lon="9.326938140769183"><ele>647.0</ele><time>2026-04-23T12:47:39.999Z</time></trkpt><trkpt lat="44.83405045139831" lon="9.326951524383938"><ele>647.0</ele><time>2026-04-23T12:47:40.999Z</time></trkpt><trkpt lat="44.83391763663921" lon="9.32697561836762"><ele>651.5</ele><time>2026-04-23T12:47:41.999Z</time></trkpt><trkpt lat="44.83381258297076" lon="9.326968776305902"><ele>656.0</ele><time>2026-04-23T12:47:42.999Z</time></trkpt><trkpt lat="44.83371209803658" lon="9.326926164933461"><ele>660.5</ele><time>2026-04-23T12:47:43.999Z</time></trkpt><trkpt lat="44.833607137130315" lon="9.326844849988877"><ele>665.0</ele><time>2026-04-23T12:47:44.999Z</time></trkpt><trkpt lat="44.833503156817464" lon="9.326741263281262"><ele>665.25</ele><time>2026-04-23T12:47:45.999Z</time></trkpt><trkpt lat="44.83339343803221" lon="9.326653352630764"><ele>665.5</ele><time>2026-04-23T12:47:46.999Z</time></trkpt><trkpt lat="44.833279043271475" lon="9.32656728084526"><ele>665.75</ele><time>2026-04-23T12:47:47.999Z</time></trkpt><trkpt lat="44.83316301837631" lon="9.326486085499566"><ele>666.0</ele><time>2026-04-23T12:47:48.999Z</time></trkpt><trkpt lat="44.8330442611931" lon="9.326401863341061"><ele>669.25</ele><time>2026-04-23T12:47:49.999Z</time></trkpt><trkpt lat="44.832924682512164" lon="9.326335918260567"><ele>672.5</ele><time>2026-04-23T12:47:50.999Z</time></trkpt><trkpt lat="44.832793457616546" lon="9.326292013638886"><ele>675.75</ele><time>2026-04-23T12:47:51.999Z</time></trkpt><trkpt lat="44.83265700661314" lon="9.326271075466304"><ele>679.0</ele><time>2026-04-23T12:47:52.999Z</time></trkpt><trkpt lat="44.832506871096754" lon="9.326276983236678"><ele>681.5</ele><time>2026-04-23T12:47:53.999Z</time></trkpt><trkpt lat="44.832355421576835" lon="9.326308563774154"><ele>684.0</ele><time>2026-04-23T12:47:54.999Z</time></trkpt><trkpt lat="44.83220967056004" lon="9.326349824241172"><ele>686.5</ele><time>2026-04-23T12:47:55.999Z</time></trkpt><trkpt lat="44.832086224180635" lon="9.32639720188816"><ele>689.0</ele><time>2026-04-23T12:47:56.999Z</time></trkpt><trkpt lat="44.83195254169731" lon="9.32640731900988"><ele>689.3333333333333</ele><time>2026-04-23T12:47:57.999Z</time></trkpt><trkpt lat="44.83180476914578" lon="9.326349008247247"><ele>689.6666666666666</ele><time>2026-04-23T12:47:58.999Z</time></trkpt><trkpt lat="44.83165568877126" lon="9.32625959457672"><ele>690.0</ele><time>2026-04-23T12:47:59.999Z</time></trkpt><trkpt lat="44.83152248700649" lon="9.326155102022069"><ele>690.0</ele><time>2026-04-23T12:48:00.999Z</time></trkpt><trkpt lat="44.831384700923074" lon="9.326024033010059"><ele>690.0</ele><time>2026-04-23T12:48:01.999Z</time></trkpt><trkpt lat="44.8312252260686" lon="9.325918559956508"><ele>690.0</ele><time>2026-04-23T12:48:02.999Z</time></trkpt><trkpt lat="44.831036227799885" lon="9.325905909516006"><ele>689.0</ele><time>2026-04-23T12:48:03.999Z</time></trkpt><trkpt lat="44.83083711070582" lon="9.325919941300553"><ele>688.0</ele><time>2026-04-23T12:48:04.999Z</time></trkpt><trkpt lat="44.83066398486214" lon="9.325943719229688"><ele>687.0</ele><time>2026-04-23T12:48:05.999Z</time></trkpt><trkpt lat="44.83050334185948" lon="9.32594533626819"><ele>687.0</ele><time>2026-04-23T12:48:06.998Z</time></trkpt><trkpt lat="44.83035017528008" lon="9.325967990807099"><ele>687.0</ele><time>2026-04-23T12:48:07.998Z</time></trkpt><trkpt lat="44.83018712761347" lon="9.326062384468596"><ele>687.0</ele><time>2026-04-23T12:48:08.998Z</time></trkpt><trkpt lat="44.8300292295415" lon="9.3261766934181"><ele>691.0</ele><time>2026-04-23T12:48:09.998Z</time></trkpt><trkpt lat="44.829880265831655" lon="9.326270680598116"><ele>695.0</ele><time>2026-04-23T12:48:10.998Z</time></trkpt><trkpt lat="44.82975053126456" lon="9.326361876269353"><ele>699.0</ele><time>2026-04-23T12:48:11.998Z</time></trkpt><trkpt lat="44.82963089484569" lon="9.326470886296837"><ele>696.5</ele><time>2026-04-23T12:48:12.998Z</time></trkpt><trkpt lat="44.829531425581926" lon="9.326592576879237"><ele>694.0</ele><time>2026-04-23T12:48:13.998Z</time></trkpt><trkpt lat="44.829442562062155" lon="9.32671228956794"><ele>691.5</ele><time>2026-04-23T12:48:14.998Z</time></trkpt><trkpt lat="44.82936011198755" lon="9.326816887293962"><ele>689.0</ele><time>2026-04-23T12:48:15.998Z</time></trkpt><trkpt lat="44.829271826201115" lon="9.326877722273297"><ele>689.0</ele><time>2026-04-23T12:48:16.998Z</time></trkpt><trkpt lat="44.82918015990265" lon="9.32686362719286"><ele>689.0</ele><time>2026-04-23T12:48:17.998Z</time></trkpt><trkpt lat="44.8290922680886" lon="9.326778913415552"><ele>689.0</ele><time>2026-04-23T12:48:18.998Z</time></trkpt><trkpt lat="44.82901481597136" lon="9.326659864513438"><ele>689.0</ele><time>2026-04-23T12:48:19.998Z</time></trkpt><trkpt lat="44.82893470504919" lon="9.326512262450715"><ele>689.0</ele><time>2026-04-23T12:48:20.998Z</time></trkpt><trkpt lat="44.828853390721015" lon="9.326344500371635"><ele>691.5</ele><time>2026-04-23T12:48:22Z</time></trkpt><trkpt lat="44.82875658991019" lon="9.326205440792354"><ele>694.0</ele><time>2026-04-23T12:48:23Z</time></trkpt><trkpt lat="44.82863387691239" lon="9.326093710214957"><ele>696.5</ele><time>2026-04-23T12:48:24Z</time></trkpt><trkpt lat="44.82850455583622" lon="9.325992892409237"><ele>699.0</ele><time>2026-04-23T12:48:25Z</time></trkpt><trkpt lat="44.828384068445395" lon="9.32588773083792"><ele>699.0</ele><time>2026-04-23T12:48:26Z</time></trkpt><trkpt lat="44.82827407522028" lon="9.325781224642666"><ele>699.0</ele><time>2026-04-23T12:48:27Z</time></trkpt><trkpt lat="44.82816256155693" lon="9.325674118475677"><ele>699.0</ele><time>2026-04-23T12:48:28Z</time></trkpt><trkpt lat="44.82804886750244" lon="9.325578973224815"><ele>699.0</ele><time>2026-04-23T12:48:29Z</time></trkpt><trkpt lat="44.82793859860861" lon="9.32547074687084"><ele>698.75</ele><time>2026-04-23T12:48:30Z</time></trkpt><trkpt lat="44.82782628986432" lon="9.325342192443301"><ele>698.5</ele><time>2026-04-23T12:48:31Z</time></trkpt><trkpt lat="44.82772703007709" lon="9.325195304800237"><ele>698.25</ele><time>2026-04-23T12:48:32Z</time></trkpt><trkpt lat="44.82763048169725" lon="9.325055176861717"><ele>698.0</ele><time>2026-04-23T12:48:33Z</time></trkpt><trkpt lat="44.82753940152634" lon="9.324904628313142"><ele>698.0</ele><time>2026-04-23T12:48:34Z</time></trkpt><trkpt lat="44.827456256965185" lon="9.324740722094814"><ele>698.0</ele><time>2026-04-23T12:48:35Z</time></trkpt><trkpt lat="44.82736028960036" lon="9.324574965985052"><ele>698.0</ele><time>2026-04-23T12:48:36Z</time></trkpt><trkpt lat="44.827255368160046" lon="9.324416732265266"><ele>698.0</ele><time>2026-04-23T12:48:37Z</time></trkpt><trkpt lat="44.82718199350877" lon="9.324233344574283"><ele>707.0</ele><time>2026-04-23T12:48:38Z</time></trkpt><trkpt lat="44.82709867790377" lon="9.32406067199003"><ele>716.0</ele><time>2026-04-23T12:48:39Z</time></trkpt><trkpt lat="44.826985227907684" lon="9.323921577719718"><ele>725.0</ele><time>2026-04-23T12:48:40Z</time></trkpt><trkpt lat="44.826854357751294" lon="9.323790379884864"><ele>725.0</ele><time>2026-04-23T12:48:41Z</time></trkpt><trkpt lat="44.82671929182006" lon="9.323676858164118"><ele>725.0</ele><time>2026-04-23T12:48:42Z</time></trkpt><trkpt lat="44.826590073514765" lon="9.32357748933605"><ele>725.0</ele><time>2026-04-23T12:48:43Z</time></trkpt><trkpt lat="44.826480464606" lon="9.323457779133525"><ele>725.0</ele><time>2026-04-23T12:48:44Z</time></trkpt><trkpt lat="44.826371217877195" lon="9.323360986288993"><ele>725.0</ele><time>2026-04-23T12:48:45Z</time></trkpt><trkpt lat="44.826266812070635" lon="9.323271298678348"><ele>725.0</ele><time>2026-04-23T12:48:46Z</time></trkpt><trkpt lat="44.82618248405864" lon="9.323168293041482"><ele>725.0</ele><time>2026-04-23T12:48:47Z</time></trkpt><trkpt lat="44.82612960152755" lon="9.323042314866141"><ele>725.0</ele><time>2026-04-23T12:48:48Z</time></trkpt><trkpt lat="44.826100720285844" lon="9.322903423811894"><ele>725.0</ele><time>2026-04-23T12:48:49Z</time></trkpt><trkpt lat="44.82602960521316" lon="9.322805355631141"><ele>723.4</ele><time>2026-04-23T12:48:50Z</time></trkpt><trkpt lat="44.82592793935602" lon="9.322778602350901"><ele>721.8</ele><time>2026-04-23T12:48:51Z</time></trkpt><trkpt lat="44.825831234629604" lon="9.32282409029811"><ele>720.2</ele><time>2026-04-23T12:48:52Z</time></trkpt><trkpt lat="44.8257602307528" lon="9.32292082927211"><ele>718.6</ele><time>2026-04-23T12:48:53Z</time></trkpt><trkpt lat="44.82570553460293" lon="9.323050688012186"><ele>717.0</ele><time>2026-04-23T12:48:54Z</time></trkpt><trkpt lat="44.825687298158975" lon="9.323215243708171"><ele>717.0</ele><time>2026-04-23T12:48:55Z</time></trkpt><trkpt lat="44.82568661612836" lon="9.323356421962197"><ele>717.0</ele><time>2026-04-23T12:48:56Z</time></trkpt><trkpt lat="44.82569720944236" lon="9.32348594094402"><ele>717.0</ele><time>2026-04-23T12:48:57Z</time></trkpt><trkpt lat="44.82571208082581" lon="9.32360498828284"><ele>717.0</ele><time>2026-04-23T12:48:58Z</time></trkpt><trkpt lat="44.825728023147995" lon="9.32370893003302"><ele>717.0</ele><time>2026-04-23T12:48:59Z</time></trkpt><trkpt lat="44.82573844366757" lon="9.323804459219255"><ele>717.0</ele><time>2026-04-23T12:49:00Z</time></trkpt><trkpt lat="44.825748822014305" lon="9.323973523687004"><ele>716.0</ele><time>2026-04-23T12:49:02Z</time></trkpt><trkpt lat="44.82575130404205" lon="9.32412788418293"><ele>715.0</ele><time>2026-04-23T12:49:04Z</time></trkpt><trkpt lat="44.82575343173583" lon="9.324224585394147"><ele>714.0</ele><time>2026-04-23T12:49:05Z</time></trkpt><trkpt lat="44.82575814312674" lon="9.324335585062716"><ele>713.0</ele><time>2026-04-23T12:49:06Z</time></trkpt><trkpt lat="44.82575620671807" lon="9.324473651875705"><ele>712.0</ele><time>2026-04-23T12:49:07Z</time></trkpt><trkpt lat="44.82574348316691" lon="9.324631137750973"><ele>711.6666666666667</ele><time>2026-04-23T12:49:08Z</time></trkpt><trkpt lat="44.82572523208672" lon="9.324779533152785"><ele>711.3333333333334</ele><time>2026-04-23T12:49:09Z</time></trkpt><trkpt lat="44.82570623983176" lon="9.324913172670357"><ele>711.0</ele><time>2026-04-23T12:49:09.999Z</time></trkpt><trkpt lat="44.825684955446995" lon="9.325029322187998"><ele>710.6666666666666</ele><time>2026-04-23T12:49:10.999Z</time></trkpt><trkpt lat="44.82565437112944" lon="9.325125667450365"><ele>710.3333333333333</ele><time>2026-04-23T12:49:11.999Z</time></trkpt><trkpt lat="44.82559877782958" lon="9.325208193679241"><ele>710.0</ele><time>2026-04-23T12:49:12.999Z</time></trkpt><trkpt lat="44.82551628325036" lon="9.325255756229739"><ele>710.0</ele><time>2026-04-23T12:49:13.999Z</time></trkpt><trkpt lat="44.82542075203189" lon="9.32526043412611"><ele>710.0</ele><time>2026-04-23T12:49:14.999Z</time></trkpt><trkpt lat="44.82531622929078" lon="9.325231644467536"><ele>710.0</ele><time>2026-04-23T12:49:15.999Z</time></trkpt><trkpt lat="44.825194988884505" lon="9.3252026408712"><ele>710.0</ele><time>2026-04-23T12:49:16.999Z</time></trkpt><trkpt lat="44.825077313703126" lon="9.32516322585574"><ele>710.0</ele><time>2026-04-23T12:49:17.999Z</time></trkpt><trkpt lat="44.82496526381509" lon="9.325115812997934"><ele>713.6</ele><time>2026-04-23T12:49:18.999Z</time></trkpt><trkpt lat="44.82486903124961" lon="9.32509095161099"><ele>717.2</ele><time>2026-04-23T12:49:19.999Z</time></trkpt><trkpt lat="44.824780009378976" lon="9.325095480552147"><ele>720.8</ele><time>2026-04-23T12:49:20.999Z</time></trkpt><trkpt lat="44.82469138073568" lon="9.32510744394863"><ele>724.4</ele><time>2026-04-23T12:49:21.999Z</time></trkpt><trkpt lat="44.82459953261665" lon="9.325124138426713"><ele>728.0</ele><time>2026-04-23T12:49:22.999Z</time></trkpt><trkpt lat="44.82450431766362" lon="9.325141885825293"><ele>728.0</ele><time>2026-04-23T12:49:23.999Z</time></trkpt><trkpt lat="44.82440908977603" lon="9.325164663454705"><ele>728.0</ele><time>2026-04-23T12:49:24.999Z</time></trkpt><trkpt lat="44.82431264631642" lon="9.325181158149457"><ele>728.0</ele><time>2026-04-23T12:49:25.999Z</time></trkpt><trkpt lat="44.8242161669688" lon="9.325187576257102"><ele>728.0</ele><time>2026-04-23T12:49:26.999Z</time></trkpt><trkpt lat="44.824128528237196" lon="9.32520143686001"><ele>728.0</ele><time>2026-04-23T12:49:27.999Z</time></trkpt><trkpt lat="44.8240353700909" lon="9.325215388468015"><ele>731.8</ele><time>2026-04-23T12:49:28.999Z</time></trkpt><trkpt lat="44.823943296674045" lon="9.325242951752527"><ele>735.5999999999999</ele><time>2026-04-23T12:49:29.999Z</time></trkpt><trkpt lat="44.823850769902705" lon="9.32529837653045"><ele>739.4000000000001</ele><time>2026-04-23T12:49:30.999Z</time></trkpt><trkpt lat="44.82375272168433" lon="9.325345413867417"><ele>743.2</ele><time>2026-04-23T12:49:31.999Z</time></trkpt><trkpt lat="44.82364822560126" lon="9.325383511568871"><ele>747.0</ele><time>2026-04-23T12:49:32.999Z</time></trkpt><trkpt lat="44.82354288947695" lon="9.325396109702094"><ele>749.2</ele><time>2026-04-23T12:49:33.999Z</time></trkpt><trkpt lat="44.823440225032705" lon="9.325408988179527"><ele>751.4000000000001</ele><time>2026-04-23T12:49:34.999Z</time></trkpt><trkpt lat="44.82334235381928" lon="9.32542299351179"><ele>753.5999999999999</ele><time>2026-04-23T12:49:35.999Z</time></trkpt><trkpt lat="44.8232421423734" lon="9.325445649184129"><ele>755.8</ele><time>2026-04-23T12:49:36.999Z</time></trkpt><trkpt lat="44.82314456679282" lon="9.325473443463407"><ele>758.0</ele><time>2026-04-23T12:49:37.999Z</time></trkpt><trkpt lat="44.82303527727156" lon="9.325494143472083"><ele>758.0</ele><time>2026-04-23T12:49:38.999Z</time></trkpt><trkpt lat="44.822935797837026" lon="9.325530166369324"><ele>758.0</ele><time>2026-04-23T12:49:39.999Z</time></trkpt><trkpt lat="44.82283796031702" lon="9.325577802049814"><ele>758.0</ele><time>2026-04-23T12:49:40.999Z</time></trkpt><trkpt lat="44.82274535084658" lon="9.325629809650586"><ele>758.0</ele><time>2026-04-23T12:49:41.999Z</time></trkpt><trkpt lat="44.82265079329359" lon="9.325648435493811"><ele>758.0</ele><time>2026-04-23T12:49:42.999Z</time></trkpt><trkpt lat="44.82255128070809" lon="9.325590709494"><ele>759.75</ele><time>2026-04-23T12:49:43.999Z</time></trkpt><trkpt lat="44.82244939782404" lon="9.325504913267343"><ele>761.5</ele><time>2026-04-23T12:49:44.999Z</time></trkpt><trkpt lat="44.822353551756585" lon="9.325378561269574"><ele>763.25</ele><time>2026-04-23T12:49:45.999Z</time></trkpt><trkpt lat="44.82226243570589" lon="9.325281080342515"><ele>765.0</ele><time>2026-04-23T12:49:46.999Z</time></trkpt><trkpt lat="44.82216957936889" lon="9.325205549491592"><ele>765.0</ele><time>2026-04-23T12:49:47.999Z</time></trkpt><trkpt lat="44.82207193873786" lon="9.325166068320677"><ele>765.0</ele><time>2026-04-23T12:49:48.999Z</time></trkpt><trkpt lat="44.82195288922589" lon="9.325190572315568"><ele>765.0</ele><time>2026-04-23T12:49:49.999Z</time></trkpt><trkpt lat="44.82182490575991" lon="9.325262565096581"><ele>765.0</ele><time>2026-04-23T12:49:50.999Z</time></trkpt><trkpt lat="44.821676917635905" lon="9.325314074757719"><ele>764.0</ele><time>2026-04-23T12:49:51.999Z</time></trkpt><trkpt lat="44.821539093782945" lon="9.325338149162798"><ele>763.0</ele><time>2026-04-23T12:49:52.999Z</time></trkpt><trkpt lat="44.82143354514849" lon="9.325356303910498"><ele>762.0</ele><time>2026-04-23T12:49:53.999Z</time></trkpt><trkpt lat="44.821304791566206" lon="9.3253401961728"><ele>761.0</ele><time>2026-04-23T12:49:54.999Z</time></trkpt><trkpt lat="44.82118800242595" lon="9.325355410408793"><ele>761.0</ele><time>2026-04-23T12:49:55.999Z</time></trkpt><trkpt lat="44.821071945556376" lon="9.325420305014168"><ele>761.0</ele><time>2026-04-23T12:49:56.999Z</time></trkpt><trkpt lat="44.82097530900948" lon="9.325536959503822"><ele>761.0</ele><time>2026-04-23T12:49:57.999Z</time></trkpt><trkpt lat="44.82090926609556" lon="9.325686570166768"><ele>761.0</ele><time>2026-04-23T12:49:58.999Z</time></trkpt><trkpt lat="44.82080290852027" lon="9.325782676631137"><ele>758.5</ele><time>2026-04-23T12:49:59.999Z</time></trkpt><trkpt lat="44.82068360462476" lon="9.325842388417488"><ele>756.0</ele><time>2026-04-23T12:50:00.999Z</time></trkpt><trkpt lat="44.82056948714221" lon="9.32591800271147"><ele>753.5</ele><time>2026-04-23T12:50:01.999Z</time></trkpt><trkpt lat="44.82047329799163" lon="9.326043653205662"><ele>751.0</ele><time>2026-04-23T12:50:02.999Z</time></trkpt><trkpt lat="44.820399098167734" lon="9.326172114312426"><ele>751.0</ele><time>2026-04-23T12:50:03.999Z</time></trkpt><trkpt lat="44.820326159422436" lon="9.326271701018188"><ele>751.0</ele><time>2026-04-23T12:50:04.999Z</time></trkpt><trkpt lat="44.820253564144245" lon="9.326340584477828"><ele>751.0</ele><time>2026-04-23T12:50:05.999Z</time></trkpt><trkpt lat="44.82017845713607" lon="9.326386080046051"><ele>751.0</ele><time>2026-04-23T12:50:06.999Z</time></trkpt><trkpt lat="44.82010900368437" lon="9.326424763507243"><ele>751.0</ele><time>2026-04-23T12:50:07.999Z</time></trkpt><trkpt lat="44.820048075949636" lon="9.32648231924933"><ele>751.0</ele><time>2026-04-23T12:50:08.999Z</time></trkpt><trkpt lat="44.81996029334381" lon="9.326505434724734"><ele>753.4</ele><time>2026-04-23T12:50:09.999Z</time></trkpt><trkpt lat="44.81986738504143" lon="9.326538234147561"><ele>755.8</ele><time>2026-04-23T12:50:10.999Z</time></trkpt><trkpt lat="44.81976822859208" lon="9.326576305597172"><ele>758.1999999999999</ele><time>2026-04-23T12:50:11.998Z</time></trkpt><trkpt lat="44.81966901818434" lon="9.32661610093094"><ele>760.5999999999999</ele><time>2026-04-23T12:50:12.998Z</time></trkpt><trkpt lat="44.8195696203498" lon="9.326655588115308"><ele>763.0</ele><time>2026-04-23T12:50:13.998Z</time></trkpt><trkpt lat="44.81947673654853" lon="9.326688969649124"><ele>763.0</ele><time>2026-04-23T12:50:14.998Z</time></trkpt><trkpt lat="44.81937988123191" lon="9.326702598567046"><ele>763.0</ele><time>2026-04-23T12:50:15.998Z</time></trkpt><trkpt lat="44.8192809931661" lon="9.32666759404077"><ele>763.0</ele><time>2026-04-23T12:50:16.998Z</time></trkpt><trkpt lat="44.81917511189393" lon="9.326597734763897"><ele>763.0</ele><time>2026-04-23T12:50:17.998Z</time></trkpt><trkpt lat="44.81906594184241" lon="9.326561788721698"><ele>763.0</ele><time>2026-04-23T12:50:18.998Z</time></trkpt><trkpt lat="44.818954006976405" lon="9.326552100057397"><ele>764.4</ele><time>2026-04-23T12:50:19.998Z</time></trkpt><trkpt lat="44.81884580285921" lon="9.32654243543872"><ele>765.8</ele><time>2026-04-23T12:50:20.998Z</time></trkpt><trkpt lat="44.8187461277776" lon="9.326530886494838"><ele>767.2</ele><time>2026-04-23T12:50:21.998Z</time></trkpt><trkpt lat="44.81866695025658" lon="9.326498116510336"><ele>768.6</ele><time>2026-04-23T12:50:22.998Z</time></trkpt><trkpt lat="44.818608375540585" lon="9.326438109216841"><ele>770.0</ele><time>2026-04-23T12:50:23.998Z</time></trkpt><trkpt lat="44.81856924560527" lon="9.326320048009215"><ele>772.2</ele><time>2026-04-23T12:50:24.998Z</time></trkpt><trkpt lat="44.818553501911516" lon="9.326194401237005"><ele>774.4</ele><time>2026-04-23T12:50:25.998Z</time></trkpt><trkpt lat="44.818596897774306" lon="9.326063182247356"><ele>776.5999999999999</ele><time>2026-04-23T12:50:26.998Z</time></trkpt><trkpt lat="44.81867797990521" lon="9.325959255222784"><ele>778.8</ele><time>2026-04-23T12:50:28Z</time></trkpt><trkpt lat="44.81878332565743" lon="9.32586548747307"><ele>781.0</ele><time>2026-04-23T12:50:29Z</time></trkpt><trkpt lat="44.81889293418933" lon="9.325752422240406"><ele>781.0</ele><time>2026-04-23T12:50:30Z</time></trkpt><trkpt lat="44.81899991368755" lon="9.325642837348514"><ele>781.0</ele><time>2026-04-23T12:50:31Z</time></trkpt><trkpt lat="44.819132629298814" lon="9.325506512823425"><ele>781.0</ele><time>2026-04-23T12:50:32Z</time></trkpt><trkpt lat="44.819277056385985" lon="9.32535760322447"><ele>783.0</ele><time>2026-04-23T12:50:33Z</time></trkpt><trkpt lat="44.81942144828914" lon="9.325194355091105"><ele>785.0</ele><time>2026-04-23T12:50:34Z</time></trkpt><trkpt lat="44.819556631308494" lon="9.325052679680988"><ele>787.0</ele><time>2026-04-23T12:50:35Z</time></trkpt><trkpt lat="44.819710567738504" lon="9.324934268312052"><ele>787.0</ele><time>2026-04-23T12:50:36Z</time></trkpt><trkpt lat="44.81989590134016" lon="9.324855375294169"><ele>787.0</ele><time>2026-04-23T12:50:37Z</time></trkpt><trkpt lat="44.82008823319089" lon="9.324791102616771"><ele>787.0</ele><time>2026-04-23T12:50:38Z</time></trkpt><trkpt lat="44.82025783073566" lon="9.32470031366829"><ele>794.0</ele><time>2026-04-23T12:50:39Z</time></trkpt><trkpt lat="44.82040133238727" lon="9.324578839190421"><ele>801.0</ele><time>2026-04-23T12:50:40Z</time></trkpt><trkpt lat="44.820541358307274" lon="9.3245064276763"><ele>808.0</ele><time>2026-04-23T12:50:41Z</time></trkpt><trkpt lat="44.82069240058955" lon="9.324494844249745"><ele>808.0</ele><time>2026-04-23T12:50:42Z</time></trkpt><trkpt lat="44.82082938203267" lon="9.32445778846237"><ele>808.0</ele><time>2026-04-23T12:50:43Z</time></trkpt><trkpt lat="44.82095828393721" lon="9.324344427653173"><ele>808.0</ele><time>2026-04-23T12:50:44Z</time></trkpt><trkpt lat="44.82108580204032" lon="9.32419713429658"><ele>811.0</ele><time>2026-04-23T12:50:45Z</time></trkpt><trkpt lat="44.82121619241391" lon="9.324047597350765"><ele>814.0</ele><time>2026-04-23T12:50:46Z</time></trkpt><trkpt lat="44.82134332830344" lon="9.323895122755737"><ele>817.0</ele><time>2026-04-23T12:50:47Z</time></trkpt><trkpt lat="44.821476969311306" lon="9.32373330659751"><ele>817.0</ele><time>2026-04-23T12:50:48Z</time></trkpt><trkpt lat="44.821612644159686" lon="9.323605999718604"><ele>817.0</ele><time>2026-04-23T12:50:49Z</time></trkpt><trkpt lat="44.821765272449504" lon="9.323535748901117"><ele>817.0</ele><time>2026-04-23T12:50:50Z</time></trkpt><trkpt lat="44.821938234122186" lon="9.323509511778926"><ele>816.3333333333333</ele><time>2026-04-23T12:50:51Z</time></trkpt><trkpt lat="44.82212372150489" lon="9.323532068797228"><ele>815.6666666666667</ele><time>2026-04-23T12:50:52Z</time></trkpt><trkpt lat="44.822295596345725" lon="9.323572979620627"><ele>815.0</ele><time>2026-04-23T12:50:53Z</time></trkpt><trkpt lat="44.822440015815765" lon="9.323623932019897"><ele>815.0</ele><time>2026-04-23T12:50:54Z</time></trkpt><trkpt lat="44.82256623024722" lon="9.323728925234677"><ele>815.0</ele><time>2026-04-23T12:50:55Z</time></trkpt><trkpt lat="44.82266722229849" lon="9.323873244256795"><ele>815.0</ele><time>2026-04-23T12:50:56Z</time></trkpt><trkpt lat="44.82275888148527" lon="9.32396544636112"><ele>815.0</ele><time>2026-04-23T12:50:57Z</time></trkpt><trkpt lat="44.822857399121894" lon="9.323983422260797"><ele>814.0</ele><time>2026-04-23T12:50:58Z</time></trkpt><trkpt lat="44.822950543514786" lon="9.323954578262066"><ele>813.0</ele><time>2026-04-23T12:50:59Z</time></trkpt><trkpt lat="44.82305853566058" lon="9.323905414641875"><ele>812.0</ele><time>2026-04-23T12:51:00Z</time></trkpt><trkpt lat="44.82316070553576" lon="9.323849284617058"><ele>811.0</ele><time>2026-04-23T12:51:01Z</time></trkpt><trkpt lat="44.823213524230226" lon="9.323745402759764"><ele>810.0</ele><time>2026-04-23T12:51:02Z</time></trkpt><trkpt lat="44.82324658965587" lon="9.32363408622234"><ele>810.0</ele><time>2026-04-23T12:51:03Z</time></trkpt><trkpt lat="44.82325228135206" lon="9.32354214143997"><ele>810.0</ele><time>2026-04-23T12:51:04Z</time></trkpt><trkpt lat="44.82321444516299" lon="9.323428284990353"><ele>810.0</ele><time>2026-04-23T12:51:05Z</time></trkpt><trkpt lat="44.823144151598136" lon="9.323320428817016"><ele>810.0</ele><time>2026-04-23T12:51:06Z</time></trkpt><trkpt lat="44.82305356390782" lon="9.323224599441113"><ele>810.0</ele><time>2026-04-23T12:51:07Z</time></trkpt><trkpt lat="44.82299191236964" lon="9.323119368185672"><ele>808.25</ele><time>2026-04-23T12:51:08Z</time></trkpt><trkpt lat="44.82291456072627" lon="9.323035884355766"><ele>806.5</ele><time>2026-04-23T12:51:09Z</time></trkpt><trkpt lat="44.822807347934884" lon="9.322986971023687"><ele>804.75</ele><time>2026-04-23T12:51:10Z</time></trkpt><trkpt lat="44.82268659844295" lon="9.322987548597442"><ele>803.0</ele><time>2026-04-23T12:51:11Z</time></trkpt><trkpt lat="44.82255019220447" lon="9.32301027181355"><ele>808.5</ele><time>2026-04-23T12:51:12Z</time></trkpt><trkpt lat="44.82242565290768" lon="9.323024564835693"><ele>814.0</ele><time>2026-04-23T12:51:13Z</time></trkpt><trkpt lat="44.82228140331944" lon="9.322998627737478"><ele>819.5</ele><time>2026-04-23T12:51:14Z</time></trkpt><trkpt lat="44.82212456171328" lon="9.322953490765238"><ele>825.0</ele><time>2026-04-23T12:51:15Z</time></trkpt><trkpt lat="44.82195783221091" lon="9.3229026873801"><ele>831.6666666666667</ele><time>2026-04-23T12:51:15.999Z</time></trkpt><trkpt lat="44.821803102253305" lon="9.322856907954366"><ele>838.3333333333334</ele><time>2026-04-23T12:51:16.999Z</time></trkpt><trkpt lat="44.821657227488785" lon="9.322855341172772"><ele>845.0</ele><time>2026-04-23T12:51:17.999Z</time></trkpt><trkpt lat="44.82150086506958" lon="9.322928338064663"><ele>845.0</ele><time>2026-04-23T12:51:18.999Z</time></trkpt><trkpt lat="44.82135406035185" lon="9.323054471879571"><ele>845.0</ele><time>2026-04-23T12:51:19.999Z</time></trkpt><trkpt lat="44.821215329379754" lon="9.323175909255104"><ele>845.0</ele><time>2026-04-23T12:51:20.999Z</time></trkpt><trkpt lat="44.82107573955862" lon="9.323299814601308"><ele>843.3333333333334</ele><time>2026-04-23T12:51:21.999Z</time></trkpt><trkpt lat="44.82092981118136" lon="9.32340634077237"><ele>841.6666666666667</ele><time>2026-04-23T12:51:22.999Z</time></trkpt><trkpt lat="44.820797605337546" lon="9.32350184198318"><ele>840.0</ele><time>2026-04-23T12:51:23.999Z</time></trkpt><trkpt lat="44.82067394052819" lon="9.32359961134561"><ele>840.0</ele><time>2026-04-23T12:51:24.999Z</time></trkpt><trkpt lat="44.82054176280316" lon="9.323677316066469"><ele>840.0</ele><time>2026-04-23T12:51:25.999Z</time></trkpt><trkpt lat="44.820391596218734" lon="9.323711255649597"><ele>840.0</ele><time>2026-04-23T12:51:26.999Z</time></trkpt><trkpt lat="44.82023684882766" lon="9.323701224572092"><ele>841.5</ele><time>2026-04-23T12:51:27.999Z</time></trkpt><trkpt lat="44.82009839336902" lon="9.323685971457794"><ele>843.0</ele><time>2026-04-23T12:51:28.999Z</time></trkpt><trkpt lat="44.81996770944791" lon="9.323647203744548"><ele>844.5</ele><time>2026-04-23T12:51:29.999Z</time></trkpt><trkpt lat="44.819834921384505" lon="9.323565675236054"><ele>846.0</ele><time>2026-04-23T12:51:30.999Z</time></trkpt><trkpt lat="44.819694863193334" lon="9.323443522321968"><ele>846.0</ele><time>2026-04-23T12:51:31.999Z</time></trkpt><trkpt lat="44.81953047498731" lon="9.323336660207968"><ele>846.0</ele><time>2026-04-23T12:51:32.999Z</time></trkpt><trkpt lat="44.81934445820715" lon="9.323286554946916"><ele>846.0</ele><time>2026-04-23T12:51:33.999Z</time></trkpt><trkpt lat="44.819171089860454" lon="9.323274555681174"><ele>845.6666666666667</ele><time>2026-04-23T12:51:34.999Z</time></trkpt><trkpt lat="44.819000808572355" lon="9.323300910784752"><ele>845.3333333333334</ele><time>2026-04-23T12:51:35.999Z</time></trkpt><trkpt lat="44.818820544235926" lon="9.323382894694095"><ele>845.0</ele><time>2026-04-23T12:51:36.999Z</time></trkpt><trkpt lat="44.818637162864874" lon="9.323494704882016"><ele>850.3333333333334</ele><time>2026-04-23T12:51:37.999Z</time></trkpt><trkpt lat="44.81844904859617" lon="9.323615200015686"><ele>855.6666666666667</ele><time>2026-04-23T12:51:38.999Z</time></trkpt><trkpt lat="44.81825255562409" lon="9.323725566401865"><ele>861.0</ele><time>2026-04-23T12:51:39.999Z</time></trkpt><trkpt lat="44.81805405396907" lon="9.32383282228299"><ele>862.0</ele><time>2026-04-23T12:51:40.999Z</time></trkpt><trkpt lat="44.817878553969514" lon="9.32394287974436"><ele>863.0</ele><time>2026-04-23T12:51:41.999Z</time></trkpt><trkpt lat="44.81772338165977" lon="9.324051947272247"><ele>864.0</ele><time>2026-04-23T12:51:42.999Z</time></trkpt><trkpt lat="44.81759209139705" lon="9.324176520955586"><ele>864.0</ele><time>2026-04-23T12:51:43.999Z</time></trkpt><trkpt lat="44.8175021165095" lon="9.324334189163926"><ele>864.0</ele><time>2026-04-23T12:51:44.999Z</time></trkpt><trkpt lat="44.81744830532655" lon="9.32451582912557"><ele>864.0</ele><time>2026-04-23T12:51:45.999Z</time></trkpt><trkpt lat="44.81739591508583" lon="9.324701854454709"><ele>864.0</ele><time>2026-04-23T12:51:46.999Z</time></trkpt><trkpt lat="44.81730759366399" lon="9.324873306686328"><ele>856.6666666666667</ele><time>2026-04-23T12:51:47.999Z</time></trkpt><trkpt lat="44.81717715867815" lon="9.325025065331742"><ele>849.3333333333334</ele><time>2026-04-23T12:51:48.999Z</time></trkpt><trkpt lat="44.81705516614072" lon="9.325152134862156"><ele>842.0</ele><time>2026-04-23T12:51:49.999Z</time></trkpt><trkpt lat="44.81693968717932" lon="9.325245726258418"><ele>848.0</ele><time>2026-04-23T12:51:50.999Z</time></trkpt><trkpt lat="44.81681462932566" lon="9.325326349146865"><ele>854.0</ele><time>2026-04-23T12:51:51.999Z</time></trkpt><trkpt lat="44.81669623521172" lon="9.325379152915204"><ele>860.0</ele><time>2026-04-23T12:51:52.999Z</time></trkpt><trkpt lat="44.816597538344794" lon="9.32541123324499"><ele>866.0</ele><time>2026-04-23T12:51:53.999Z</time></trkpt><trkpt lat="44.81650119715888" lon="9.325394809166548"><ele>866.0</ele><time>2026-04-23T12:51:54.999Z</time></trkpt><trkpt lat="44.816393733637824" lon="9.325302904219699"><ele>866.0</ele><time>2026-04-23T12:51:55.999Z</time></trkpt><trkpt lat="44.816275013299695" lon="9.32521186764963"><ele>866.0</ele><time>2026-04-23T12:51:56.999Z</time></trkpt><trkpt lat="44.8161218876984" lon="9.325159851275954"><ele>866.0</ele><time>2026-04-23T12:51:57.999Z</time></trkpt><trkpt lat="44.8159475969384" lon="9.325124107293806"><ele>868.0</ele><time>2026-04-23T12:51:58.999Z</time></trkpt><trkpt lat="44.81578410652309" lon="9.325029137370608"><ele>870.0</ele><time>2026-04-23T12:51:59.999Z</time></trkpt><trkpt lat="44.81560589408272" lon="9.324912687769114"><ele>872.0</ele><time>2026-04-23T12:52:00.999Z</time></trkpt><trkpt lat="44.81541310471177" lon="9.32477728143466"><ele>879.0</ele><time>2026-04-23T12:52:01.999Z</time></trkpt><trkpt lat="44.81523872092541" lon="9.324637205200995"><ele>886.0</ele><time>2026-04-23T12:52:02.999Z</time></trkpt><trkpt lat="44.81508642889194" lon="9.324500636680934"><ele>893.0</ele><time>2026-04-23T12:52:03.999Z</time></trkpt><trkpt lat="44.81492971722371" lon="9.324401159063784"><ele>893.0</ele><time>2026-04-23T12:52:04.999Z</time></trkpt><trkpt lat="44.81475475914074" lon="9.324359185288417"><ele>893.0</ele><time>2026-04-23T12:52:05.999Z</time></trkpt><trkpt lat="44.814588034823736" lon="9.324346632092407"><ele>893.0</ele><time>2026-04-23T12:52:06.999Z</time></trkpt><trkpt lat="44.814446015257175" lon="9.324352823876186"><ele>893.0</ele><time>2026-04-23T12:52:07.999Z</time></trkpt><trkpt lat="44.81432167563813" lon="9.324397118903063"><ele>893.0</ele><time>2026-04-23T12:52:08.999Z</time></trkpt><trkpt lat="44.81421261339693" lon="9.324498794961093"><ele>893.0</ele><time>2026-04-23T12:52:09.999Z</time></trkpt><trkpt lat="44.81410107794059" lon="9.324643829158674"><ele>893.0</ele><time>2026-04-23T12:52:10.999Z</time></trkpt><trkpt lat="44.81396400243262" lon="9.324723590096164"><ele>892.5</ele><time>2026-04-23T12:52:11.999Z</time></trkpt><trkpt lat="44.813820768299145" lon="9.324795634565497"><ele>892.0</ele><time>2026-04-23T12:52:12.999Z</time></trkpt><trkpt lat="44.813710677232216" lon="9.32490294424354"><ele>891.5</ele><time>2026-04-23T12:52:13.999Z</time></trkpt><trkpt lat="44.81359076905669" lon="9.324973554356983"><ele>891.0</ele><time>2026-04-23T12:52:14.999Z</time></trkpt><trkpt lat="44.81344000515074" lon="9.324982967163306"><ele>891.0</ele><time>2026-04-23T12:52:15.999Z</time></trkpt><trkpt lat="44.813306402245516" lon="9.325012935897321"><ele>891.0</ele><time>2026-04-23T12:52:16.999Z</time></trkpt><trkpt lat="44.81318426221606" lon="9.325098277570337"><ele>891.0</ele><time>2026-04-23T12:52:17.998Z</time></trkpt><trkpt lat="44.81308799071334" lon="9.325250316021133"><ele>891.0</ele><time>2026-04-23T12:52:18.998Z</time></trkpt><trkpt lat="44.81302935995357" lon="9.325382561052589"><ele>891.0</ele><time>2026-04-23T12:52:19.998Z</time></trkpt><trkpt lat="44.81296986021968" lon="9.3254701641534"><ele>891.0</ele><time>2026-04-23T12:52:20.998Z</time></trkpt><trkpt lat="44.81284378169933" lon="9.325464148311381"><ele>891.0</ele><time>2026-04-23T12:52:21.998Z</time></trkpt><trkpt lat="44.81269411600388" lon="9.325406722967282"><ele>891.0</ele><time>2026-04-23T12:52:22.998Z</time></trkpt><trkpt lat="44.81254459055297" lon="9.325379767497274"><ele>894.1999999999999</ele><time>2026-04-23T12:52:23.998Z</time></trkpt><trkpt lat="44.81240809595246" lon="9.325374067666937"><ele>897.3999999999999</ele><time>2026-04-23T12:52:24.998Z</time></trkpt><trkpt lat="44.81227488748706" lon="9.325433245116367"><ele>900.6</ele><time>2026-04-23T12:52:25.998Z</time></trkpt><trkpt lat="44.81217754821971" lon="9.325472418651035"><ele>903.8</ele><time>2026-04-23T12:52:26.998Z</time></trkpt><trkpt lat="44.81211266056544" lon="9.325457346568323"><ele>907.0</ele><time>2026-04-23T12:52:27.998Z</time></trkpt><trkpt lat="44.81203944718038" lon="9.325310526125469"><ele>907.0</ele><time>2026-04-23T12:52:29.998Z</time></trkpt><trkpt lat="44.81207144032274" lon="9.325221758824842"><ele>907.0</ele><time>2026-04-23T12:52:30.998Z</time></trkpt><trkpt lat="44.8121460292154" lon="9.325168956872439"><ele>907.0</ele><time>2026-04-23T12:52:31.998Z</time></trkpt><trkpt lat="44.81223746921636" lon="9.325156432690903"><ele>907.0</ele><time>2026-04-23T12:52:32.998Z</time></trkpt><trkpt lat="44.812348817523585" lon="9.32514335893106"><ele>907.0</ele><time>2026-04-23T12:52:34Z</time></trkpt><trkpt lat="44.812462583189216" lon="9.325122939361393"><ele>907.0</ele><time>2026-04-23T12:52:35Z</time></trkpt><trkpt lat="44.81255813072334" lon="9.325061157003576"><ele>907.0</ele><time>2026-04-23T12:52:36Z</time></trkpt><trkpt lat="44.812658878614215" lon="9.324951121357786"><ele>907.0</ele><time>2026-04-23T12:52:37Z</time></trkpt><trkpt lat="44.81271221767233" lon="9.324794363448733"><ele>907.0</ele><time>2026-04-23T12:52:38Z</time></trkpt><trkpt lat="44.81274595594827" lon="9.324639712960641"><ele>907.4999999999999</ele><time>2026-04-23T12:52:39Z</time></trkpt><trkpt lat="44.81281396775855" lon="9.324512590200547"><ele>908.0</ele><time>2026-04-23T12:52:40Z</time></trkpt><trkpt lat="44.812918557328096" lon="9.324468287354444"><ele>908.5</ele><time>2026-04-23T12:52:41Z</time></trkpt><trkpt lat="44.81300142023774" lon="9.324438666837038"><ele>909.0</ele><time>2026-04-23T12:52:42Z</time></trkpt><trkpt lat="44.81305250892053" lon="9.324372301253048"><ele>909.4999999999999</ele><time>2026-04-23T12:52:43Z</time></trkpt><trkpt lat="44.813081045303186" lon="9.324287782979598"><ele>910.0</ele><time>2026-04-23T12:52:44Z</time></trkpt><trkpt lat="44.81307067211521" lon="9.32418908271385"><ele>909.9999999999999</ele><time>2026-04-23T12:52:45Z</time></trkpt><trkpt lat="44.81302132342019" lon="9.324131642893185"><ele>910.0</ele><time>2026-04-23T12:52:46Z</time></trkpt><trkpt lat="44.812944105344826" lon="9.324118850718023"><ele>910.0</ele><time>2026-04-23T12:52:47Z</time></trkpt><trkpt lat="44.81285987812879" lon="9.32417022344317"><ele>910.0</ele><time>2026-04-23T12:52:48Z</time></trkpt><trkpt lat="44.812774314361526" lon="9.324251585721928"><ele>909.9999999999999</ele><time>2026-04-23T12:52:49Z</time></trkpt><trkpt lat="44.81267446643148" lon="9.324320737404491"><ele>910.0</ele><time>2026-04-23T12:52:50Z</time></trkpt><trkpt lat="44.81256004904962" lon="9.324368201297142"><ele>915.0</ele><time>2026-04-23T12:52:51Z</time></trkpt><trkpt lat="44.81242886778326" lon="9.324404939191163"><ele>920.0</ele><time>2026-04-23T12:52:52Z</time></trkpt><trkpt lat="44.81229225873262" lon="9.324441742944988"><ele>925.0</ele><time>2026-04-23T12:52:53Z</time></trkpt><trkpt lat="44.81216782178144" lon="9.324500775617558"><ele>930.0</ele><time>2026-04-23T12:52:54Z</time></trkpt><trkpt lat="44.81203547135128" lon="9.324573110678502"><ele>930.0</ele><time>2026-04-23T12:52:55Z</time></trkpt><trkpt lat="44.81189008895795" lon="9.32458632475115"><ele>930.0</ele><time>2026-04-23T12:52:56Z</time></trkpt><trkpt lat="44.811748957165705" lon="9.32455455492166"><ele>930.0</ele><time>2026-04-23T12:52:57Z</time></trkpt><trkpt lat="44.81162209789274" lon="9.324513767394198"><ele>930.0</ele><time>2026-04-23T12:52:58Z</time></trkpt><trkpt lat="44.81151061579842" lon="9.324482540189784"><ele>932.5</ele><time>2026-04-23T12:52:59Z</time></trkpt><trkpt lat="44.811390019864064" lon="9.324519385858315"><ele>935.0</ele><time>2026-04-23T12:53:00Z</time></trkpt><trkpt lat="44.811272449103825" lon="9.324580419707386"><ele>937.5</ele><time>2026-04-23T12:53:01Z</time></trkpt><trkpt lat="44.81117012700192" lon="9.3245945095829"><ele>940.0</ele><time>2026-04-23T12:53:02Z</time></trkpt><trkpt lat="44.81104974354682" lon="9.324544255389858"><ele>940.25</ele><time>2026-04-23T12:53:03Z</time></trkpt><trkpt lat="44.81091792762583" lon="9.324462395152123"><ele>940.5</ele><time>2026-04-23T12:53:04Z</time></trkpt><trkpt lat="44.81078601894022" lon="9.324384445537333"><ele>940.75</ele><time>2026-04-23T12:53:05Z</time></trkpt><trkpt lat="44.8106528007295" lon="9.32431168663402"><ele>941.0</ele><time>2026-04-23T12:53:06Z</time></trkpt><trkpt lat="44.8105046482587" lon="9.324231477460687"><ele>941.0</ele><time>2026-04-23T12:53:07Z</time></trkpt><trkpt lat="44.81034991569793" lon="9.324150795953653"><ele>941.0</ele><time>2026-04-23T12:53:08Z</time></trkpt><trkpt lat="44.81019698270996" lon="9.324079077745132"><ele>941.0</ele><time>2026-04-23T12:53:09Z</time></trkpt><trkpt lat="44.810041557285054" lon="9.324039177839532"><ele>941.0</ele><time>2026-04-23T12:53:10Z</time></trkpt><trkpt lat="44.809877542488074" lon="9.324026169161977"><ele>941.0</ele><time>2026-04-23T12:53:11Z</time></trkpt><trkpt lat="44.80971572197248" lon="9.324012411660387"><ele>941.0</ele><time>2026-04-23T12:53:12Z</time></trkpt><trkpt lat="44.80955861837163" lon="9.323996669297365"><ele>941.0</ele><time>2026-04-23T12:53:13Z</time></trkpt><trkpt lat="44.80941072148025" lon="9.32398103026538"><ele>941.0</ele><time>2026-04-23T12:53:14Z</time></trkpt><trkpt lat="44.80926982591939" lon="9.32397172359271"><ele>941.0</ele><time>2026-04-23T12:53:15Z</time></trkpt><trkpt lat="44.80914071083961" lon="9.323963176328068"><ele>941.0</ele><time>2026-04-23T12:53:16Z</time></trkpt><trkpt lat="44.809025595844524" lon="9.323949260921513"><ele>942.0</ele><time>2026-04-23T12:53:17Z</time></trkpt><trkpt lat="44.808921114989126" lon="9.323925376381483"><ele>942.9999999999999</ele><time>2026-04-23T12:53:18Z</time></trkpt><trkpt lat="44.80882929605106" lon="9.323881912746272"><ele>943.9999999999999</ele><time>2026-04-23T12:53:19Z</time></trkpt><trkpt lat="44.808748483850806" lon="9.32378978774111"><ele>945.0</ele><time>2026-04-23T12:53:19.999Z</time></trkpt><trkpt lat="44.8086730898701" lon="9.323661697456213"><ele>946.0</ele><time>2026-04-23T12:53:20.999Z</time></trkpt><trkpt lat="44.80857789293455" lon="9.323559674910184"><ele>948.6666666666666</ele><time>2026-04-23T12:53:21.999Z</time></trkpt><trkpt lat="44.80843923116422" lon="9.323499563844491"><ele>951.3333333333333</ele><time>2026-04-23T12:53:22.999Z</time></trkpt><trkpt lat="44.8082751516919" lon="9.323482272055204"><ele>954.0</ele><time>2026-04-23T12:53:23.999Z</time></trkpt><trkpt lat="44.808115648549204" lon="9.323478428002772"><ele>954.0</ele><time>2026-04-23T12:53:24.999Z</time></trkpt><trkpt lat="44.807963540249716" lon="9.323460926118237"><ele>954.0</ele><time>2026-04-23T12:53:25.999Z</time></trkpt><trkpt lat="44.80782049409756" lon="9.323432316729503"><ele>954.0</ele><time>2026-04-23T12:53:26.999Z</time></trkpt><trkpt lat="44.80768659467111" lon="9.323400957662281"><ele>954.0</ele><time>2026-04-23T12:53:27.999Z</time></trkpt><trkpt lat="44.80756442131364" lon="9.323344843871551"><ele>954.5</ele><time>2026-04-23T12:53:28.999Z</time></trkpt><trkpt lat="44.8074531147405" lon="9.323274082807092"><ele>955.0</ele><time>2026-04-23T12:53:29.999Z</time></trkpt><trkpt lat="44.80733880883684" lon="9.32321182924129"><ele>955.5</ele><time>2026-04-23T12:53:30.999Z</time></trkpt><trkpt lat="44.807229079551156" lon="9.323158104666634"><ele>956.0</ele><time>2026-04-23T12:53:31.999Z</time></trkpt><trkpt lat="44.80713134319007" lon="9.323107459298386"><ele>956.1999999999999</ele><time>2026-04-23T12:53:32.999Z</time></trkpt><trkpt lat="44.807041474429234" lon="9.323060672306875"><ele>956.3999999999999</ele><time>2026-04-23T12:53:33.999Z</time></trkpt><trkpt lat="44.806949106681614" lon="9.323027003144945"><ele>956.6</ele><time>2026-04-23T12:53:34.999Z</time></trkpt><trkpt lat="44.806857987628916" lon="9.3230205950013"><ele>956.8</ele><time>2026-04-23T12:53:35.999Z</time></trkpt><trkpt lat="44.806770816129095" lon="9.323054943406321"><ele>957.0</ele><time>2026-04-23T12:53:36.999Z</time></trkpt><trkpt lat="44.80668583127855" lon="9.323113357350337"><ele>957.0</ele><time>2026-04-23T12:53:37.999Z</time></trkpt><trkpt lat="44.80659815969422" lon="9.323187756910587"><ele>957.0</ele><time>2026-04-23T12:53:38.999Z</time></trkpt><trkpt lat="44.806518219732055" lon="9.323263882908275"><ele>957.0</ele><time>2026-04-23T12:53:39.999Z</time></trkpt><trkpt lat="44.80646056369663" lon="9.323363310491308"><ele>957.0</ele><time>2026-04-23T12:53:40.999Z</time></trkpt><trkpt lat="44.80642820834207" lon="9.323508228511212"><ele>957.0</ele><time>2026-04-23T12:53:41.999Z</time></trkpt><trkpt lat="44.806418634243585" lon="9.323678674960187"><ele>957.0</ele><time>2026-04-23T12:53:42.999Z</time></trkpt><trkpt lat="44.806384836473754" lon="9.323850436494306"><ele>957.0</ele><time>2026-04-23T12:53:43.999Z</time></trkpt><trkpt lat="44.806313483567756" lon="9.324027200788022"><ele>957.0</ele><time>2026-04-23T12:53:44.999Z</time></trkpt><trkpt lat="44.8062208805029" lon="9.324200520698403"><ele>957.0</ele><time>2026-04-23T12:53:45.999Z</time></trkpt><trkpt lat="44.80612244823569" lon="9.324360711297556"><ele>956.8</ele><time>2026-04-23T12:53:46.999Z</time></trkpt><trkpt lat="44.80603056033808" lon="9.324481386634107"><ele>956.6</ele><time>2026-04-23T12:53:47.999Z</time></trkpt><trkpt lat="44.805943210303965" lon="9.324546990944151"><ele>956.3999999999999</ele><time>2026-04-23T12:53:48.999Z</time></trkpt><trkpt lat="44.8058516895593" lon="9.32452796873258"><ele>956.1999999999999</ele><time>2026-04-23T12:53:49.999Z</time></trkpt><trkpt lat="44.80578713884696" lon="9.324451561051998"><ele>956.0</ele><time>2026-04-23T12:53:50.999Z</time></trkpt><trkpt lat="44.80572467230903" lon="9.324371506938467"><ele>956.0</ele><time>2026-04-23T12:53:51.999Z</time></trkpt><trkpt lat="44.805660373646454" lon="9.32432038507377"><ele>955.9999999999999</ele><time>2026-04-23T12:53:52.999Z</time></trkpt><trkpt lat="44.80557446513892" lon="9.324331316617805"><ele>955.9999999999999</ele><time>2026-04-23T12:53:53.999Z</time></trkpt><trkpt lat="44.805495513486804" lon="9.324385498867718"><ele>956.0</ele><time>2026-04-23T12:53:54.999Z</time></trkpt><trkpt lat="44.80543220564887" lon="9.324482655450296"><ele>956.0</ele><time>2026-04-23T12:53:55.999Z</time></trkpt><trkpt lat="44.80538527354189" lon="9.324623002686529"><ele>956.5999999999999</ele><time>2026-04-23T12:53:56.999Z</time></trkpt><trkpt lat="44.80535301959444" lon="9.32477207506778"><ele>957.1999999999999</ele><time>2026-04-23T12:53:57.999Z</time></trkpt><trkpt lat="44.805324688676215" lon="9.324928540193769"><ele>957.8000000000001</ele><time>2026-04-23T12:53:58.999Z</time></trkpt><trkpt lat="44.805282141706094" lon="9.325069157417879"><ele>958.4000000000001</ele><time>2026-04-23T12:53:59.999Z</time></trkpt><trkpt lat="44.80521762783015" lon="9.325196075810195"><ele>959.0</ele><time>2026-04-23T12:54:00.999Z</time></trkpt><trkpt lat="44.80516047197508" lon="9.325319148101048"><ele>959.0</ele><time>2026-04-23T12:54:01.999Z</time></trkpt><trkpt lat="44.805104694762775" lon="9.325441622864192"><ele>959.0000000000001</ele><time>2026-04-23T12:54:02.999Z</time></trkpt><trkpt lat="44.80504370495391" lon="9.325561687051636"><ele>959.0000000000001</ele><time>2026-04-23T12:54:03.999Z</time></trkpt><trkpt lat="44.80498394602713" lon="9.325673017353866"><ele>959.0</ele><time>2026-04-23T12:54:04.999Z</time></trkpt><trkpt lat="44.80492057366439" lon="9.3257768661395"><ele>959.0</ele><time>2026-04-23T12:54:05.999Z</time></trkpt><trkpt lat="44.80484729165432" lon="9.325873664830404"><ele>958.0</ele><time>2026-04-23T12:54:06.999Z</time></trkpt><trkpt lat="44.80476893189804" lon="9.325962317507795"><ele>957.0000000000001</ele><time>2026-04-23T12:54:07.999Z</time></trkpt><trkpt lat="44.804689103413494" lon="9.326045591408656"><ele>956.0000000000001</ele><time>2026-04-23T12:54:08.999Z</time></trkpt><trkpt lat="44.80461012836528" lon="9.326141225763152"><ele>955.0</ele><time>2026-04-23T12:54:09.999Z</time></trkpt><trkpt lat="44.80453749327875" lon="9.326241801952772"><ele>954.0</ele><time>2026-04-23T12:54:10.999Z</time></trkpt><trkpt lat="44.804464530648566" lon="9.326336441504552"><ele>953.25</ele><time>2026-04-23T12:54:11.999Z</time></trkpt><trkpt lat="44.804392665951376" lon="9.3264400195554"><ele>952.5</ele><time>2026-04-23T12:54:12.999Z</time></trkpt><trkpt lat="44.804330664060366" lon="9.326564471314406"><ele>951.75</ele><time>2026-04-23T12:54:13.999Z</time></trkpt><trkpt lat="44.80428604778454" lon="9.32671496474456"><ele>951.0</ele><time>2026-04-23T12:54:14.999Z</time></trkpt><trkpt lat="44.80427422527694" lon="9.326902045312515"><ele>955.0</ele><time>2026-04-23T12:54:15.999Z</time></trkpt><trkpt lat="44.80427093475759" lon="9.32709590047886"><ele>959.0</ele><time>2026-04-23T12:54:16.999Z</time></trkpt><trkpt lat="44.80426921094344" lon="9.327289202132519"><ele>963.0</ele><time>2026-04-23T12:54:17.999Z</time></trkpt><trkpt lat="44.804258677988315" lon="9.327490278653427"><ele>967.0</ele><time>2026-04-23T12:54:18.999Z</time></trkpt><trkpt lat="44.8042455161508" lon="9.327701689293376"><ele>966.75</ele><time>2026-04-23T12:54:19.998Z</time></trkpt><trkpt lat="44.80423105015402" lon="9.327910434341735"><ele>966.5</ele><time>2026-04-23T12:54:20.998Z</time></trkpt><trkpt lat="44.804225537330154" lon="9.328114253187676"><ele>966.25</ele><time>2026-04-23T12:54:21.998Z</time></trkpt><trkpt lat="44.80422184442017" lon="9.328306600564089"><ele>966.0</ele><time>2026-04-23T12:54:22.998Z</time></trkpt><trkpt lat="44.804221056353285" lon="9.328496448203362"><ele>966.0</ele><time>2026-04-23T12:54:23.998Z</time></trkpt><trkpt lat="44.8042245361671" lon="9.328698679663736"><ele>966.0</ele><time>2026-04-23T12:54:24.998Z</time></trkpt><trkpt lat="44.80422995417358" lon="9.328900938623152"><ele>966.0</ele><time>2026-04-23T12:54:25.998Z</time></trkpt><trkpt lat="44.80424149228262" lon="9.329108384967778"><ele>966.0</ele><time>2026-04-23T12:54:26.998Z</time></trkpt><trkpt lat="44.80427183626217" lon="9.329305538582606"><ele>965.5</ele><time>2026-04-23T12:54:27.998Z</time></trkpt><trkpt lat="44.804305909994014" lon="9.329505799728476"><ele>965.0</ele><time>2026-04-23T12:54:28.998Z</time></trkpt><trkpt lat="44.804340301518415" lon="9.329693621883507"><ele>964.5</ele><time>2026-04-23T12:54:29.998Z</time></trkpt><trkpt lat="44.8043681819777" lon="9.329866812642132"><ele>964.0</ele><time>2026-04-23T12:54:30.998Z</time></trkpt><trkpt lat="44.80440963120745" lon="9.330021129210934"><ele>962.5</ele><time>2026-04-23T12:54:31.998Z</time></trkpt><trkpt lat="44.80446704565087" lon="9.330166858872943"><ele>961.0</ele><time>2026-04-23T12:54:32.998Z</time></trkpt><trkpt lat="44.80454822605784" lon="9.33030778645336"><ele>959.5</ele><time>2026-04-23T12:54:33.998Z</time></trkpt><trkpt lat="44.8046366847245" lon="9.330441735138718"><ele>958.0</ele><time>2026-04-23T12:54:34.998Z</time></trkpt><trkpt lat="44.804721146848856" lon="9.330588629535322"><ele>958.0</ele><time>2026-04-23T12:54:35.998Z</time></trkpt><trkpt lat="44.80479949016872" lon="9.330668133879033"><ele>958.0</ele><time>2026-04-23T12:54:36.998Z</time></trkpt><trkpt lat="44.80488039610283" lon="9.33078315119325"><ele>958.0</ele><time>2026-04-23T12:54:37.998Z</time></trkpt><trkpt lat="44.80495834315503" lon="9.33089579625668"><ele>958.0</ele><time>2026-04-23T12:54:38.998Z</time></trkpt><trkpt lat="44.805050031259086" lon="9.330977098761764"><ele>958.0</ele><time>2026-04-23T12:54:40Z</time></trkpt><trkpt lat="44.80519024757481" lon="9.33101014511608"><ele>955.5999999999999</ele><time>2026-04-23T12:54:41Z</time></trkpt><trkpt lat="44.80529234545626" lon="9.331061463432675"><ele>953.1999999999999</ele><time>2026-04-23T12:54:42Z</time></trkpt><trkpt lat="44.80539015039605" lon="9.331115974841778"><ele>950.8</ele><time>2026-04-23T12:54:43Z</time></trkpt><trkpt lat="44.80548284257202" lon="9.331215064301128"><ele>948.4</ele><time>2026-04-23T12:54:44Z</time></trkpt><trkpt lat="44.80554227584968" lon="9.331318825851294"><ele>946.0</ele><time>2026-04-23T12:54:45Z</time></trkpt><trkpt lat="44.80557002062355" lon="9.331481015555257"><ele>946.0</ele><time>2026-04-23T12:54:46Z</time></trkpt><trkpt lat="44.80557968102356" lon="9.331669836336765"><ele>946.0</ele><time>2026-04-23T12:54:47Z</time></trkpt><trkpt lat="44.80559141103574" lon="9.331856903792868"><ele>946.0</ele><time>2026-04-23T12:54:48Z</time></trkpt><trkpt lat="44.805605849848014" lon="9.332033946334397"><ele>946.0</ele><time>2026-04-23T12:54:49Z</time></trkpt><trkpt lat="44.80560406537318" lon="9.33219623981542"><ele>946.5</ele><time>2026-04-23T12:54:50Z</time></trkpt><trkpt lat="44.80556015783436" lon="9.33235870479215"><ele>947.0</ele><time>2026-04-23T12:54:51Z</time></trkpt><trkpt lat="44.805479043823496" lon="9.33251893987761"><ele>947.5</ele><time>2026-04-23T12:54:52Z</time></trkpt><trkpt lat="44.80539440386602" lon="9.332659922132379"><ele>948.0</ele><time>2026-04-23T12:54:53Z</time></trkpt><trkpt lat="44.8053523516077" lon="9.332806435034826"><ele>948.0</ele><time>2026-04-23T12:54:54Z</time></trkpt><trkpt lat="44.805358669549065" lon="9.332951056346486"><ele>948.0</ele><time>2026-04-23T12:54:55Z</time></trkpt><trkpt lat="44.805421782969425" lon="9.333086241352428"><ele>948.0</ele><time>2026-04-23T12:54:56Z</time></trkpt><trkpt lat="44.80551243077334" lon="9.333208885472542"><ele>948.0</ele><time>2026-04-23T12:54:57Z</time></trkpt><trkpt lat="44.80562653832049" lon="9.33330894333561"><ele>948.5</ele><time>2026-04-23T12:54:58Z</time></trkpt><trkpt lat="44.80574446238338" lon="9.333409314149598"><ele>949.0</ele><time>2026-04-23T12:54:59Z</time></trkpt><trkpt lat="44.80584087623673" lon="9.333509334340095"><ele>949.5</ele><time>2026-04-23T12:55:00Z</time></trkpt><trkpt lat="44.80593368039376" lon="9.333613554972539"><ele>950.0</ele><time>2026-04-23T12:55:01Z</time></trkpt><trkpt lat="44.805995212746694" lon="9.333738083040855"><ele>949.5</ele><time>2026-04-23T12:55:02Z</time></trkpt><trkpt lat="44.80602499024402" lon="9.333912998759176"><ele>949.0</ele><time>2026-04-23T12:55:03Z</time></trkpt><trkpt lat="44.806024745785855" lon="9.334106438347517"><ele>948.5</ele><time>2026-04-23T12:55:04Z</time></trkpt><trkpt lat="44.80604434330081" lon="9.334294858525515"><ele>948.0</ele><time>2026-04-23T12:55:05Z</time></trkpt><trkpt lat="44.806125353989735" lon="9.334466280844575"><ele>948.0</ele><time>2026-04-23T12:55:06Z</time></trkpt><trkpt lat="44.80622120790113" lon="9.334618917668827"><ele>948.0</ele><time>2026-04-23T12:55:07Z</time></trkpt><trkpt lat="44.806336060043755" lon="9.33474216363856"><ele>948.0</ele><time>2026-04-23T12:55:08Z</time></trkpt><trkpt lat="44.8064653993961" lon="9.334803505589605"><ele>948.0</ele><time>2026-04-23T12:55:09Z</time></trkpt><trkpt lat="44.80657687837038" lon="9.334851632327961"><ele>950.0</ele><time>2026-04-23T12:55:10Z</time></trkpt><trkpt lat="44.80666381863067" lon="9.3348991591735"><ele>952.0</ele><time>2026-04-23T12:55:11Z</time></trkpt><trkpt lat="44.80670343900322" lon="9.335013063143279"><ele>954.0</ele><time>2026-04-23T12:55:12Z</time></trkpt><trkpt lat="44.806707757821485" lon="9.33514759699157"><ele>956.0</ele><time>2026-04-23T12:55:13Z</time></trkpt><trkpt lat="44.806659472551" lon="9.335300025795577"><ele>958.0</ele><time>2026-04-23T12:55:14Z</time></trkpt><trkpt lat="44.80661065500355" lon="9.335459688248468"><ele>958.75</ele><time>2026-04-23T12:55:15Z</time></trkpt><trkpt lat="44.806566856887386" lon="9.335630269718685"><ele>959.5</ele><time>2026-04-23T12:55:16Z</time></trkpt><trkpt lat="44.80651269952838" lon="9.335816795356932"><ele>960.25</ele><time>2026-04-23T12:55:17Z</time></trkpt><trkpt lat="44.80646444133817" lon="9.335993609096793"><ele>961.0</ele><time>2026-04-23T12:55:18Z</time></trkpt><trkpt lat="44.80641141294462" lon="9.336163625793091"><ele>961.0</ele><time>2026-04-23T12:55:19Z</time></trkpt><trkpt lat="44.80636423372566" lon="9.336320185861133"><ele>961.0</ele><time>2026-04-23T12:55:20Z</time></trkpt><trkpt lat="44.80632371278595" lon="9.336468985928887"><ele>961.0</ele><time>2026-04-23T12:55:20.999Z</time></trkpt><trkpt lat="44.80630160193052" lon="9.336627037149752"><ele>961.0</ele><time>2026-04-23T12:55:21.999Z</time></trkpt><trkpt lat="44.80632208285016" lon="9.336790440227773"><ele>960.75</ele><time>2026-04-23T12:55:22.999Z</time></trkpt><trkpt lat="44.80639110960808" lon="9.336952024561207"><ele>960.5</ele><time>2026-04-23T12:55:23.999Z</time></trkpt><trkpt lat="44.806500267359716" lon="9.337056882242203"><ele>960.25</ele><time>2026-04-23T12:55:24.999Z</time></trkpt><trkpt lat="44.80660408223268" lon="9.337158144723592"><ele>960.0</ele><time>2026-04-23T12:55:25.999Z</time></trkpt><trkpt lat="44.80670227083675" lon="9.33725538322581"><ele>962.25</ele><time>2026-04-23T12:55:26.999Z</time></trkpt><trkpt lat="44.806808122392574" lon="9.337332584962464"><ele>964.5</ele><time>2026-04-23T12:55:27.999Z</time></trkpt><trkpt lat="44.80693451916137" lon="9.337353971391288"><ele>966.75</ele><time>2026-04-23T12:55:28.999Z</time></trkpt><trkpt lat="44.807060266802786" lon="9.337347981353663"><ele>969.0</ele><time>2026-04-23T12:55:29.999Z</time></trkpt><trkpt lat="44.80717910634793" lon="9.337357124623793"><ele>969.0</ele><time>2026-04-23T12:55:30.999Z</time></trkpt><trkpt lat="44.807283736355735" lon="9.33737055394513"><ele>969.0000000000001</ele><time>2026-04-23T12:55:31.999Z</time></trkpt><trkpt lat="44.80738819308016" lon="9.337423308095527"><ele>969.0000000000001</ele><time>2026-04-23T12:55:32.999Z</time></trkpt><trkpt lat="44.80748716958369" lon="9.337493976620244"><ele>969.0</ele><time>2026-04-23T12:55:33.999Z</time></trkpt><trkpt lat="44.8075784018754" lon="9.337594716959572"><ele>969.0</ele><time>2026-04-23T12:55:34.999Z</time></trkpt><trkpt lat="44.807662565570375" lon="9.337709062771808"><ele>968.3333333333334</ele><time>2026-04-23T12:55:35.999Z</time></trkpt><trkpt lat="44.807742980697896" lon="9.337815762397872"><ele>967.6666666666667</ele><time>2026-04-23T12:55:36.999Z</time></trkpt><trkpt lat="44.80781751442444" lon="9.337906164985691"><ele>967.0</ele><time>2026-04-23T12:55:37.999Z</time></trkpt><trkpt lat="44.80788338971078" lon="9.33799034604061"><ele>966.3333333333334</ele><time>2026-04-23T12:55:38.999Z</time></trkpt><trkpt lat="44.80794931433648" lon="9.338054171885352"><ele>965.6666666666667</ele><time>2026-04-23T12:55:39.999Z</time></trkpt><trkpt lat="44.807991733213086" lon="9.338124557726175"><ele>965.0</ele><time>2026-04-23T12:55:40.999Z</time></trkpt><trkpt lat="44.80803350650492" lon="9.33821107547398"><ele>965.0000000000001</ele><time>2026-04-23T12:55:41.999Z</time></trkpt><trkpt lat="44.80807159760812" lon="9.338302136232294"><ele>965.0</ele><time>2026-04-23T12:55:42.999Z</time></trkpt><trkpt lat="44.80809339049741" lon="9.338389879531745"><ele>965.0</ele><time>2026-04-23T12:55:43.999Z</time></trkpt><trkpt lat="44.80810460862247" lon="9.338509765024872"><ele>965.0</ele><time>2026-04-23T12:55:44.999Z</time></trkpt><trkpt lat="44.80812251925203" lon="9.338654050833277"><ele>965.0000000000001</ele><time>2026-04-23T12:55:45.999Z</time></trkpt><trkpt lat="44.80813084232649" lon="9.33880689158762"><ele>965.0</ele><time>2026-04-23T12:55:46.999Z</time></trkpt><trkpt lat="44.80813216717362" lon="9.338957819593546"><ele>966.4</ele><time>2026-04-23T12:55:47.999Z</time></trkpt><trkpt lat="44.80812906979846" lon="9.339090781022852"><ele>967.8</ele><time>2026-04-23T12:55:48.999Z</time></trkpt><trkpt lat="44.80812276989181" lon="9.339207085372054"><ele>969.2</ele><time>2026-04-23T12:55:49.999Z</time></trkpt><trkpt lat="44.808086762311405" lon="9.339300985688672"><ele>970.6</ele><time>2026-04-23T12:55:50.999Z</time></trkpt><trkpt lat="44.8079867832724" lon="9.339398593636986"><ele>972.0</ele><time>2026-04-23T12:55:52.999Z</time></trkpt><trkpt lat="44.80790862660617" lon="9.339392784225113"><ele>972.0</ele><time>2026-04-23T12:55:53.999Z</time></trkpt><trkpt lat="44.80782715454206" lon="9.33931476597948"><ele>972.0</ele><time>2026-04-23T12:55:54.999Z</time></trkpt><trkpt lat="44.80775277501389" lon="9.339225857334156"><ele>972.0</ele><time>2026-04-23T12:55:55.999Z</time></trkpt><trkpt lat="44.807685085377415" lon="9.339117808513508"><ele>972.0</ele><time>2026-04-23T12:55:56.999Z</time></trkpt><trkpt lat="44.807639514300696" lon="9.339009012430395"><ele>972.0</ele><time>2026-04-23T12:55:57.999Z</time></trkpt><trkpt lat="44.807548378713" lon="9.338949667560803"><ele>974.6</ele><time>2026-04-23T12:55:58.999Z</time></trkpt><trkpt lat="44.80744129321613" lon="9.338931924663793"><ele>977.2</ele><time>2026-04-23T12:55:59.999Z</time></trkpt><trkpt lat="44.80733268099774" lon="9.338939535533752"><ele>979.8</ele><time>2026-04-23T12:56:00.999Z</time></trkpt><trkpt lat="44.80722661891054" lon="9.338973096783667"><ele>982.4</ele><time>2026-04-23T12:56:01.999Z</time></trkpt><trkpt lat="44.807110495277584" lon="9.338982930457957"><ele>985.0</ele><time>2026-04-23T12:56:02.999Z</time></trkpt><trkpt lat="44.80700372928441" lon="9.339008955796073"><ele>985.0</ele><time>2026-04-23T12:56:03.999Z</time></trkpt><trkpt lat="44.80690313414386" lon="9.33904132022892"><ele>985.0</ele><time>2026-04-23T12:56:04.999Z</time></trkpt><trkpt lat="44.80680766779415" lon="9.339074834328175"><ele>985.0</ele><time>2026-04-23T12:56:05.999Z</time></trkpt><trkpt lat="44.80672212031203" lon="9.33913503646188"><ele>985.0</ele><time>2026-04-23T12:56:06.999Z</time></trkpt><trkpt lat="44.806654766492585" lon="9.339233353763786"><ele>985.0</ele><time>2026-04-23T12:56:07.999Z</time></trkpt><trkpt lat="44.806620374098664" lon="9.33936402689958"><ele>985.8</ele><time>2026-04-23T12:56:08.999Z</time></trkpt><trkpt lat="44.80662511619281" lon="9.339504333805502"><ele>986.6</ele><time>2026-04-23T12:56:09.999Z</time></trkpt><trkpt lat="44.80666453532416" lon="9.339640566211724"><ele>987.4000000000001</ele><time>2026-04-23T12:56:10.999Z</time></trkpt><trkpt lat="44.80674679845661" lon="9.339749730815132"><ele>988.2</ele><time>2026-04-23T12:56:11.999Z</time></trkpt><trkpt lat="44.80685215716207" lon="9.33982065360344"><ele>989.0</ele><time>2026-04-23T12:56:12.999Z</time></trkpt><trkpt lat="44.80696965565672" lon="9.339860993718178"><ele>991.4000000000001</ele><time>2026-04-23T12:56:13.999Z</time></trkpt><trkpt lat="44.807076488069036" lon="9.339916059917634"><ele>993.8000000000001</ele><time>2026-04-23T12:56:14.999Z</time></trkpt><trkpt lat="44.80717387819177" lon="9.339983217543175"><ele>996.1999999999999</ele><time>2026-04-23T12:56:15.999Z</time></trkpt><trkpt lat="44.807272020345806" lon="9.340046034454666"><ele>998.5999999999999</ele><time>2026-04-23T12:56:16.999Z</time></trkpt><trkpt lat="44.80736464047436" lon="9.34011691394592"><ele>1001.0</ele><time>2026-04-23T12:56:17.999Z</time></trkpt><trkpt lat="44.807450547612355" lon="9.340212404499612"><ele>1001.0</ele><time>2026-04-23T12:56:18.999Z</time></trkpt><trkpt lat="44.80753132020435" lon="9.340324214574983"><ele>1000.9999999999999</ele><time>2026-04-23T12:56:19.999Z</time></trkpt><trkpt lat="44.80760542245626" lon="9.340438492797029"><ele>1000.9999999999999</ele><time>2026-04-23T12:56:20.998Z</time></trkpt><trkpt lat="44.8076680307096" lon="9.340559472121612"><ele>1001.0</ele><time>2026-04-23T12:56:21.998Z</time></trkpt><trkpt lat="44.80771105875644" lon="9.340691819837849"><ele>1001.0</ele><time>2026-04-23T12:56:22.998Z</time></trkpt><trkpt lat="44.807742429435805" lon="9.340831387114932"><ele>998.4</ele><time>2026-04-23T12:56:23.998Z</time></trkpt><trkpt lat="44.80775878953629" lon="9.340980007523312"><ele>995.8</ele><time>2026-04-23T12:56:24.998Z</time></trkpt><trkpt lat="44.807747422402755" lon="9.341128939332972"><ele>993.1999999999999</ele><time>2026-04-23T12:56:25.998Z</time></trkpt><trkpt lat="44.80772636213839" lon="9.341285079753934"><ele>990.5999999999999</ele><time>2026-04-23T12:56:26.998Z</time></trkpt><trkpt lat="44.8076915644267" lon="9.341437443954163"><ele>988.0</ele><time>2026-04-23T12:56:27.998Z</time></trkpt><trkpt lat="44.80765218189839" lon="9.341582312318414"><ele>993.2</ele><time>2026-04-23T12:56:28.998Z</time></trkpt><trkpt lat="44.807633802775136" lon="9.341718943591864"><ele>998.4</ele><time>2026-04-23T12:56:29.998Z</time></trkpt><trkpt lat="44.80759793152664" lon="9.341844361852132"><ele>1003.6000000000001</ele><time>2026-04-23T12:56:30.998Z</time></trkpt><trkpt lat="44.80753254897079" lon="9.341943873395225"><ele>1008.8000000000001</ele><time>2026-04-23T12:56:31.998Z</time></trkpt><trkpt lat="44.8074316814558" lon="9.342008038297065"><ele>1014.0</ele><time>2026-04-23T12:56:32.998Z</time></trkpt><trkpt lat="44.8073283562114" lon="9.342062300466761"><ele>1014.0</ele><time>2026-04-23T12:56:33.998Z</time></trkpt><trkpt lat="44.80723396179983" lon="9.342132154759538"><ele>1014.0000000000001</ele><time>2026-04-23T12:56:34.998Z</time></trkpt><trkpt lat="44.80713420755732" lon="9.342183478344268"><ele>1014.0000000000001</ele><time>2026-04-23T12:56:35.998Z</time></trkpt><trkpt lat="44.80703113989016" lon="9.342195009314047"><ele>1014.0</ele><time>2026-04-23T12:56:36.998Z</time></trkpt><trkpt lat="44.80692873395709" lon="9.342166003171242"><ele>1014.0</ele><time>2026-04-23T12:56:37.998Z</time></trkpt><trkpt lat="44.806837327272014" lon="9.342086088571246"><ele>1015.6</ele><time>2026-04-23T12:56:38.998Z</time></trkpt><trkpt lat="44.806741742147" lon="9.342004922253475"><ele>1017.2</ele><time>2026-04-23T12:56:39.998Z</time></trkpt><trkpt lat="44.80664281845056" lon="9.3419459443127"><ele>1018.8000000000001</ele><time>2026-04-23T12:56:40.998Z</time></trkpt><trkpt lat="44.80654645299949" lon="9.341850821510976"><ele>1020.4000000000001</ele><time>2026-04-23T12:56:41.998Z</time></trkpt><trkpt lat="44.806469104478765" lon="9.341743130881847"><ele>1022.0</ele><time>2026-04-23T12:56:42.998Z</time></trkpt><trkpt lat="44.80638727283692" lon="9.341628314122932"><ele>1022.0</ele><time>2026-04-23T12:56:43.998Z</time></trkpt><trkpt lat="44.806309900371986" lon="9.341517841827804"><ele>1022.0</ele><time>2026-04-23T12:56:44.998Z</time></trkpt><trkpt lat="44.80622674401987" lon="9.341437175904009"><ele>1022.0</ele><time>2026-04-23T12:56:46Z</time></trkpt><trkpt lat="44.80613462846854" lon="9.341396956232481"><ele>1022.0</ele><time>2026-04-23T12:56:47Z</time></trkpt><trkpt lat="44.8060239731293" lon="9.341423411556987"><ele>1022.0</ele><time>2026-04-23T12:56:48Z</time></trkpt><trkpt lat="44.80591260732801" lon="9.341439542372436"><ele>1025.4</ele><time>2026-04-23T12:56:49Z</time></trkpt><trkpt lat="44.805811335143694" lon="9.341448399379232"><ele>1028.8000000000002</ele><time>2026-04-23T12:56:50Z</time></trkpt><trkpt lat="44.80569398418759" lon="9.34143098028481"><ele>1032.2</ele><time>2026-04-23T12:56:51Z</time></trkpt><trkpt lat="44.80558588409576" lon="9.34143949177489"><ele>1035.6000000000001</ele><time>2026-04-23T12:56:52Z</time></trkpt><trkpt lat="44.805487528454535" lon="9.341460287123711"><ele>1039.0</ele><time>2026-04-23T12:56:53Z</time></trkpt><trkpt lat="44.80538639273431" lon="9.341496126089314"><ele>1039.0</ele><time>2026-04-23T12:56:54Z</time></trkpt><trkpt lat="44.80529571963621" lon="9.34155735221089"><ele>1039.0</ele><time>2026-04-23T12:56:55Z</time></trkpt><trkpt lat="44.805209400245325" lon="9.34163198779649"><ele>1039.0</ele><time>2026-04-23T12:56:56Z</time></trkpt><trkpt lat="44.805121910512646" lon="9.341699496843203"><ele>1039.0</ele><time>2026-04-23T12:56:57Z</time></trkpt><trkpt lat="44.80503171077832" lon="9.341767538529462"><ele>1039.0</ele><time>2026-04-23T12:56:58Z</time></trkpt><trkpt lat="44.80492568304601" lon="9.341825516817046"><ele>1038.0</ele><time>2026-04-23T12:56:59Z</time></trkpt><trkpt lat="44.80482726506379" lon="9.341883624248293"><ele>1037.0</ele><time>2026-04-23T12:57:00Z</time></trkpt><trkpt lat="44.804739074628" lon="9.341938198300863"><ele>1036.0</ele><time>2026-04-23T12:57:01Z</time></trkpt><trkpt lat="44.80465039510283" lon="9.341978045511347"><ele>1035.0</ele><time>2026-04-23T12:57:02Z</time></trkpt><trkpt lat="44.80456132968047" lon="9.341983143153417"><ele>1034.0</ele><time>2026-04-23T12:57:03Z</time></trkpt><trkpt lat="44.80446928067218" lon="9.341947519281312"><ele>1034.0</ele><time>2026-04-23T12:57:04Z</time></trkpt><trkpt lat="44.80438775818958" lon="9.341871867107773"><ele>1034.0</ele><time>2026-04-23T12:57:05Z</time></trkpt><trkpt lat="44.80433695873477" lon="9.341786002289846"><ele>1034.0</ele><time>2026-04-23T12:57:06Z</time></trkpt><trkpt lat="44.80432959624907" lon="9.341678365245999"><ele>1034.0</ele><time>2026-04-23T12:57:07Z</time></trkpt><trkpt lat="44.804355221258774" lon="9.341561519518084"><ele>1034.0</ele><time>2026-04-23T12:57:08Z</time></trkpt><trkpt lat="44.80434498041299" lon="9.341469105334467"><ele>1034.0</ele><time>2026-04-23T12:57:09Z</time></trkpt><trkpt lat="44.80428611939363" lon="9.341335505837682"><ele>1033.1666666666667</ele><time>2026-04-23T12:57:11Z</time></trkpt><trkpt lat="44.80426590672401" lon="9.341232371948694"><ele>1032.3333333333335</ele><time>2026-04-23T12:57:13Z</time></trkpt><trkpt lat="44.80427192585941" lon="9.341120160904389"><ele>1031.5</ele><time>2026-04-23T12:57:14Z</time></trkpt><trkpt lat="44.80429685059177" lon="9.340992033444033"><ele>1030.6666666666667</ele><time>2026-04-23T12:57:15Z</time></trkpt><trkpt lat="44.80430264524868" lon="9.340840216630333"><ele>1029.8333333333333</ele><time>2026-04-23T12:57:16Z</time></trkpt><trkpt lat="44.80428709350727" lon="9.340730417785192"><ele>1029.0</ele><time>2026-04-23T12:57:17Z</time></trkpt><trkpt lat="44.80425408674102" lon="9.34064477519312"><ele>1031.4</ele><time>2026-04-23T12:57:18Z</time></trkpt><trkpt lat="44.80420954164444" lon="9.340539144330986"><ele>1033.8000000000002</ele><time>2026-04-23T12:57:19Z</time></trkpt><trkpt lat="44.80414537257724" lon="9.340455902627086"><ele>1036.1999999999998</ele><time>2026-04-23T12:57:20Z</time></trkpt><trkpt lat="44.80403909494304" lon="9.340401895837875"><ele>1038.6</ele><time>2026-04-23T12:57:21Z</time></trkpt><trkpt lat="44.803914648871626" lon="9.340357717536845"><ele>1041.0</ele><time>2026-04-23T12:57:22Z</time></trkpt><trkpt lat="44.803786748733785" lon="9.34029608776215"><ele>1041.0</ele><time>2026-04-23T12:57:23Z</time></trkpt><trkpt lat="44.80368055759506" lon="9.340227860854279"><ele>1041.0</ele><time>2026-04-23T12:57:24Z</time></trkpt><trkpt lat="44.80359013360153" lon="9.340140403440849"><ele>1041.0</ele><time>2026-04-23T12:57:25Z</time></trkpt><trkpt lat="44.80352051872368" lon="9.340020283184883"><ele>1041.0</ele><time>2026-04-23T12:57:26Z</time></trkpt><trkpt lat="44.8034750455095" lon="9.339876724294447"><ele>1041.0</ele><time>2026-04-23T12:57:27Z</time></trkpt><trkpt lat="44.803479147353755" lon="9.339710731082711"><ele>1039.5</ele><time>2026-04-23T12:57:28Z</time></trkpt><trkpt lat="44.803527921460415" lon="9.339551663967782"><ele>1038.0</ele><time>2026-04-23T12:57:29Z</time></trkpt><trkpt lat="44.803599824007875" lon="9.339401755705403"><ele>1036.5</ele><time>2026-04-23T12:57:30Z</time></trkpt><trkpt lat="44.803664026925055" lon="9.3392325185465"><ele>1035.0</ele><time>2026-04-23T12:57:31Z</time></trkpt><trkpt lat="44.803707339496874" lon="9.33906116225289"><ele>1035.0</ele><time>2026-04-23T12:57:32Z</time></trkpt><trkpt lat="44.803767343794576" lon="9.338900823028755"><ele>1035.0</ele><time>2026-04-23T12:57:32.999Z</time></trkpt><trkpt lat="44.80382603684591" lon="9.338728183955137"><ele>1035.0</ele><time>2026-04-23T12:57:33.999Z</time></trkpt><trkpt lat="44.803877051783154" lon="9.338545244940482"><ele>1035.0</ele><time>2026-04-23T12:57:34.999Z</time></trkpt><trkpt lat="44.803887726909466" lon="9.338359756448666"><ele>1034.25</ele><time>2026-04-23T12:57:35.999Z</time></trkpt><trkpt lat="44.803862206860764" lon="9.33816601333524"><ele>1033.5</ele><time>2026-04-23T12:57:36.999Z</time></trkpt><trkpt lat="44.803805409704474" lon="9.337981369600154"><ele>1032.75</ele><time>2026-04-23T12:57:37.999Z</time></trkpt><trkpt lat="44.803716648067514" lon="9.337814878693733"><ele>1032.0</ele><time>2026-04-23T12:57:38.999Z</time></trkpt><trkpt lat="44.80360082069151" lon="9.33767746445991"><ele>1036.6666666666667</ele><time>2026-04-23T12:57:39.999Z</time></trkpt><trkpt lat="44.803475017277066" lon="9.337548604818057"><ele>1041.3333333333335</ele><time>2026-04-23T12:57:40.999Z</time></trkpt><trkpt lat="44.803359639582354" lon="9.33740691333183"><ele>1046.0</ele><time>2026-04-23T12:57:41.999Z</time></trkpt><trkpt lat="44.803251519211074" lon="9.337269713250016"><ele>1053.25</ele><time>2026-04-23T12:57:42.999Z</time></trkpt><trkpt lat="44.80314351252655" lon="9.337136634283288"><ele>1060.5</ele><time>2026-04-23T12:57:43.999Z</time></trkpt><trkpt lat="44.803037115564656" lon="9.337005472163328"><ele>1067.75</ele><time>2026-04-23T12:57:44.999Z</time></trkpt><trkpt lat="44.80292466001595" lon="9.336895687788388"><ele>1075.0</ele><time>2026-04-23T12:57:45.999Z</time></trkpt><trkpt lat="44.80281883541133" lon="9.336780574871286"><ele>1075.0</ele><time>2026-04-23T12:57:46.999Z</time></trkpt><trkpt lat="44.80271826510619" lon="9.336650551453339"><ele>1075.0</ele><time>2026-04-23T12:57:47.999Z</time></trkpt><trkpt lat="44.802624596339356" lon="9.336501041418604"><ele>1075.0</ele><time>2026-04-23T12:57:48.999Z</time></trkpt><trkpt lat="44.80253230665408" lon="9.336328660269439"><ele>1075.0</ele><time>2026-04-23T12:57:49.999Z</time></trkpt><trkpt lat="44.80244614951062" lon="9.336138757059782"><ele>1075.0</ele><time>2026-04-23T12:57:50.999Z</time></trkpt><trkpt lat="44.802364682965084" lon="9.33595241149737"><ele>1075.0</ele><time>2026-04-23T12:57:51.999Z</time></trkpt><trkpt lat="44.80229141733609" lon="9.335763641477957"><ele>1075.0</ele><time>2026-04-23T12:57:52.999Z</time></trkpt><trkpt lat="44.80221365700914" lon="9.335581801125638"><ele>1081.5</ele><time>2026-04-23T12:57:53.999Z</time></trkpt><trkpt lat="44.80213560763694" lon="9.335402762616676"><ele>1088.0</ele><time>2026-04-23T12:57:54.999Z</time></trkpt><trkpt lat="44.802058721128724" lon="9.335225722107273"><ele>1094.5</ele><time>2026-04-23T12:57:55.999Z</time></trkpt><trkpt lat="44.801978980856624" lon="9.335067986820851"><ele>1101.0</ele><time>2026-04-23T12:57:56.999Z</time></trkpt><trkpt lat="44.801914489068885" lon="9.334907992710312"><ele>1101.0</ele><time>2026-04-23T12:57:57.999Z</time></trkpt><trkpt lat="44.801852337726956" lon="9.334770406798645"><ele>1101.0</ele><time>2026-04-23T12:57:58.999Z</time></trkpt><trkpt lat="44.80183489266231" lon="9.334601304176921"><ele>1101.0</ele><time>2026-04-23T12:57:59.999Z</time></trkpt><trkpt lat="44.801867158838064" lon="9.33440416738979"><ele>1101.0</ele><time>2026-04-23T12:58:00.999Z</time></trkpt><trkpt lat="44.80189597990391" lon="9.334214489494936"><ele>1101.5</ele><time>2026-04-23T12:58:01.999Z</time></trkpt><trkpt lat="44.80187224937728" lon="9.334092584835863"><ele>1102.0</ele><time>2026-04-23T12:58:02.999Z</time></trkpt><trkpt lat="44.80181536850826" lon="9.333948780715156"><ele>1102.5</ele><time>2026-04-23T12:58:03.999Z</time></trkpt><trkpt lat="44.80168367374583" lon="9.33384870339843"><ele>1103.0</ele><time>2026-04-23T12:58:04.999Z</time></trkpt><trkpt lat="44.80156148585001" lon="9.333736359007917"><ele>1103.0</ele><time>2026-04-23T12:58:05.999Z</time></trkpt><trkpt lat="44.80144939207577" lon="9.333584287658104"><ele>1103.0</ele><time>2026-04-23T12:58:06.999Z</time></trkpt><trkpt lat="44.80134664979681" lon="9.33338811256845"><ele>1103.0</ele><time>2026-04-23T12:58:07.999Z</time></trkpt><trkpt lat="44.801255290804676" lon="9.3332114855138"><ele>1102.6666666666667</ele><time>2026-04-23T12:58:08.999Z</time></trkpt><trkpt lat="44.80114692342936" lon="9.333052181268613"><ele>1102.3333333333333</ele><time>2026-04-23T12:58:09.999Z</time></trkpt><trkpt lat="44.80103481016447" lon="9.332930854940182"><ele>1102.0</ele><time>2026-04-23T12:58:10.999Z</time></trkpt><trkpt lat="44.800897878686904" lon="9.332829100317854"><ele>1102.0</ele><time>2026-04-23T12:58:11.999Z</time></trkpt><trkpt lat="44.800751909429145" lon="9.33272452323462"><ele>1102.0</ele><time>2026-04-23T12:58:12.999Z</time></trkpt><trkpt lat="44.80061330836183" lon="9.332639402930425"><ele>1102.0</ele><time>2026-04-23T12:58:13.999Z</time></trkpt><trkpt lat="44.80047306873523" lon="9.332554028297336"><ele>1102.0</ele><time>2026-04-23T12:58:14.999Z</time></trkpt><trkpt lat="44.80030321500793" lon="9.332539811811504"><ele>1102.0</ele><time>2026-04-23T12:58:15.999Z</time></trkpt><trkpt lat="44.800168015473346" lon="9.332502631999555"><ele>1102.0</ele><time>2026-04-23T12:58:16.999Z</time></trkpt><trkpt lat="44.80003985810433" lon="9.332450434544306"><ele>1102.0</ele><time>2026-04-23T12:58:17.999Z</time></trkpt><trkpt lat="44.7999252085519" lon="9.332386331189042"><ele>1100.0</ele><time>2026-04-23T12:58:18.999Z</time></trkpt><trkpt lat="44.799813875998964" lon="9.33235137335012"><ele>1098.0</ele><time>2026-04-23T12:58:19.999Z</time></trkpt><trkpt lat="44.79972035331655" lon="9.332281181194702"><ele>1096.0</ele><time>2026-04-23T12:58:20.999Z</time></trkpt><trkpt lat="44.79963999998713" lon="9.332173082684445"><ele>1094.0</ele><time>2026-04-23T12:58:21.999Z</time></trkpt><trkpt lat="44.799548967330836" lon="9.332059564535934"><ele>1096.75</ele><time>2026-04-23T12:58:22.999Z</time></trkpt><trkpt lat="44.79945437430103" lon="9.331900484871197"><ele>1099.5</ele><time>2026-04-23T12:58:23.999Z</time></trkpt><trkpt lat="44.79935142294807" lon="9.331765336944125"><ele>1102.25</ele><time>2026-04-23T12:58:24.999Z</time></trkpt><trkpt lat="44.799249094835304" lon="9.331649170669639"><ele>1105.0</ele><time>2026-04-23T12:58:25.999Z</time></trkpt><trkpt lat="44.79915614921414" lon="9.331519700797166"><ele>1113.0</ele><time>2026-04-23T12:58:26.999Z</time></trkpt><trkpt lat="44.79908530098754" lon="9.331351553196994"><ele>1121.0</ele><time>2026-04-23T12:58:27.999Z</time></trkpt><trkpt lat="44.799045665407334" lon="9.331129899980914"><ele>1129.0</ele><time>2026-04-23T12:58:28.999Z</time></trkpt><trkpt lat="44.798984075045354" lon="9.33092332505494"><ele>1129.0</ele><time>2026-04-23T12:58:29.999Z</time></trkpt><trkpt lat="44.79888924512157" lon="9.330725260569203"><ele>1129.0</ele><time>2026-04-23T12:58:30.999Z</time></trkpt><trkpt lat="44.79878790498753" lon="9.33054370438933"><ele>1129.0</ele><time>2026-04-23T12:58:31.999Z</time></trkpt><trkpt lat="44.79867787494785" lon="9.33037778763055"><ele>1128.75</ele><time>2026-04-23T12:58:32.999Z</time></trkpt><trkpt lat="44.79857378838053" lon="9.330228692417533"><ele>1128.5</ele><time>2026-04-23T12:58:33.998Z</time></trkpt><trkpt lat="44.79846346253358" lon="9.330091487198333"><ele>1128.25</ele><time>2026-04-23T12:58:34.998Z</time></trkpt><trkpt lat="44.798336351312486" lon="9.329993354430712"><ele>1128.0</ele><time>2026-04-23T12:58:35.998Z</time></trkpt><trkpt lat="44.798178324040336" lon="9.329932249945786"><ele>1128.0</ele><time>2026-04-23T12:58:36.998Z</time></trkpt><trkpt lat="44.79801195427478" lon="9.329828000661697"><ele>1128.0</ele><time>2026-04-23T12:58:37.998Z</time></trkpt><trkpt lat="44.79786550840025" lon="9.329721050001545"><ele>1128.0</ele><time>2026-04-23T12:58:38.998Z</time></trkpt><trkpt lat="44.7977306293893" lon="9.32960545040109"><ele>1130.25</ele><time>2026-04-23T12:58:39.998Z</time></trkpt><trkpt lat="44.797597780066525" lon="9.329511464069698"><ele>1132.5</ele><time>2026-04-23T12:58:40.998Z</time></trkpt><trkpt lat="44.797468813395476" lon="9.329463626356214"><ele>1134.75</ele><time>2026-04-23T12:58:41.998Z</time></trkpt><trkpt lat="44.79734982930429" lon="9.329413493691677"><ele>1137.0</ele><time>2026-04-23T12:58:42.998Z</time></trkpt><trkpt lat="44.79724959994391" lon="9.329337718842913"><ele>1137.0</ele><time>2026-04-23T12:58:43.998Z</time></trkpt><trkpt lat="44.79715538956905" lon="9.329232504622622"><ele>1137.0</ele><time>2026-04-23T12:58:44.998Z</time></trkpt><trkpt lat="44.797047795444854" lon="9.32908326724605"><ele>1137.0</ele><time>2026-04-23T12:58:45.998Z</time></trkpt><trkpt lat="44.79692897876165" lon="9.328937950237165"><ele>1137.0</ele><time>2026-04-23T12:58:46.998Z</time></trkpt><trkpt lat="44.796819376434286" lon="9.328817012890001"><ele>1138.0</ele><time>2026-04-23T12:58:47.998Z</time></trkpt><trkpt lat="44.7967315830553" lon="9.32873913620682"><ele>1139.0</ele><time>2026-04-23T12:58:48.998Z</time></trkpt><trkpt lat="44.79662410595041" lon="9.328701261115366"><ele>1140.0</ele><time>2026-04-23T12:58:49.998Z</time></trkpt><trkpt lat="44.79650557664581" lon="9.32876356457544"><ele>1141.0</ele><time>2026-04-23T12:58:50.998Z</time></trkpt><trkpt lat="44.79641843240836" lon="9.328903428114065"><ele>1141.0</ele><time>2026-04-23T12:58:52Z</time></trkpt><trkpt lat="44.79639450123267" lon="9.32906118826044"><ele>1141.0</ele><time>2026-04-23T12:58:53Z</time></trkpt><trkpt lat="44.79634642181761" lon="9.32914397953882"><ele>1141.0</ele><time>2026-04-23T12:58:54Z</time></trkpt><trkpt lat="44.796234206390615" lon="9.329220167005191"><ele>1141.0</ele><time>2026-04-23T12:58:56Z</time></trkpt><trkpt lat="44.796168138796446" lon="9.329149197370592"><ele>1141.0</ele><time>2026-04-23T12:58:57Z</time></trkpt><trkpt lat="44.796147320180786" lon="9.329028937193456"><ele>1141.0</ele><time>2026-04-23T12:58:58Z</time></trkpt><trkpt lat="44.796178068574314" lon="9.328913277564816"><ele>1141.0</ele><time>2026-04-23T12:58:59Z</time></trkpt><trkpt lat="44.7962496131458" lon="9.328807514960442"><ele>1141.0</ele><time>2026-04-23T12:59:00Z</time></trkpt><trkpt lat="44.79631535082414" lon="9.328688303671186"><ele>1141.0</ele><time>2026-04-23T12:59:01Z</time></trkpt><trkpt lat="44.79638670501926" lon="9.328584577662117"><ele>1141.0</ele><time>2026-04-23T12:59:02Z</time></trkpt><trkpt lat="44.796475889031505" lon="9.328487472866604"><ele>1140.8</ele><time>2026-04-23T12:59:03Z</time></trkpt><trkpt lat="44.79658603130347" lon="9.328422734103782"><ele>1140.6</ele><time>2026-04-23T12:59:04Z</time></trkpt><trkpt lat="44.796690191951335" lon="9.328372803981264"><ele>1140.4</ele><time>2026-04-23T12:59:05Z</time></trkpt><trkpt lat="44.79678821579881" lon="9.328341939473043"><ele>1140.2</ele><time>2026-04-23T12:59:06Z</time></trkpt><trkpt lat="44.79687385414399" lon="9.328330688025904"><ele>1140.0</ele><time>2026-04-23T12:59:07Z</time></trkpt><trkpt lat="44.79696418846271" lon="9.328354939333112"><ele>1140.0</ele><time>2026-04-23T12:59:08Z</time></trkpt><trkpt lat="44.797036887076835" lon="9.32837349508375"><ele>1140.0</ele><time>2026-04-23T12:59:09Z</time></trkpt><trkpt lat="44.79714418151461" lon="9.3283728705902"><ele>1140.0</ele><time>2026-04-23T12:59:11Z</time></trkpt><trkpt lat="44.797231557357286" lon="9.328391239069465"><ele>1140.0</ele><time>2026-04-23T12:59:13Z</time></trkpt><trkpt lat="44.797330590261474" lon="9.328464474290376"><ele>1140.0</ele><time>2026-04-23T12:59:15Z</time></trkpt><trkpt lat="44.7973725760208" lon="9.328565563364396"><ele>1140.0</ele><time>2026-04-23T12:59:17Z</time></trkpt><trkpt lat="44.797442320008685" lon="9.32857904792655"><ele>1140.0</ele><time>2026-04-23T12:59:19Z</time></trkpt><trkpt lat="44.79759226713886" lon="9.328619894969597"><ele>1140.0</ele><time>2026-04-23T12:59:24Z</time></trkpt><trkpt lat="44.79754118848651" lon="9.328534129920987"><ele>1140.0</ele><time>2026-04-23T12:59:48.999Z</time></trkpt></trkseg><trkseg><trkpt lat="44.80205238044116" lon="9.313387921200242"><ele>1094.0</ele><time>2026-04-23T13:26:25Z</time></trkpt><trkpt lat="44.8021269821258" lon="9.31337794895736"><ele>1094.0</ele><time>2026-04-23T13:26:27Z</time></trkpt><trkpt lat="44.802206499972996" lon="9.313382660666745"><ele>1094.0</ele><time>2026-04-23T13:26:29Z</time></trkpt><trkpt lat="44.802313480545294" lon="9.313393786738665"><ele>1094.0</ele><time>2026-04-23T13:26:31Z</time></trkpt><trkpt lat="44.802415823512376" lon="9.313350929904221"><ele>1094.0</ele><time>2026-04-23T13:26:33Z</time></trkpt><trkpt lat="44.80252769352621" lon="9.313291526704182"><ele>1094.0</ele><time>2026-04-23T13:26:35Z</time></trkpt><trkpt lat="44.802641410367436" lon="9.313208066451102"><ele>1094.0</ele><time>2026-04-23T13:26:37Z</time></trkpt><trkpt lat="44.80270169294562" lon="9.313166162567942"><ele>1094.0</ele><time>2026-04-23T13:26:38Z</time></trkpt><trkpt lat="44.802772324777045" lon="9.3131192777536"><ele>1094.0</ele><time>2026-04-23T13:26:39Z</time></trkpt><trkpt lat="44.80283990100603" lon="9.313071324363122"><ele>1094.0</ele><time>2026-04-23T13:26:40Z</time></trkpt><trkpt lat="44.802908578558736" lon="9.313019599799004"><ele>1094.0</ele><time>2026-04-23T13:26:41Z</time></trkpt><trkpt lat="44.802979065332764" lon="9.312973746643033"><ele>1095.6666666666667</ele><time>2026-04-23T13:26:42Z</time></trkpt><trkpt lat="44.80304316722917" lon="9.31292581590546"><ele>1097.3333333333335</ele><time>2026-04-23T13:26:43Z</time></trkpt><trkpt lat="44.80310235084911" lon="9.31287429792698"><ele>1099.0</ele><time>2026-04-23T13:26:44Z</time></trkpt><trkpt lat="44.80316429542129" lon="9.31284126464516"><ele>1100.6666666666667</ele><time>2026-04-23T13:26:45Z</time></trkpt><trkpt lat="44.80329351671583" lon="9.31285775882875"><ele>1102.3333333333333</ele><time>2026-04-23T13:26:47Z</time></trkpt><trkpt lat="44.80334987716384" lon="9.312912905330405"><ele>1104.0</ele><time>2026-04-23T13:26:48Z</time></trkpt><trkpt lat="44.80339806859543" lon="9.312986898426422"><ele>1102.0</ele><time>2026-04-23T13:26:49Z</time></trkpt><trkpt lat="44.80341896550812" lon="9.313080012831023"><ele>1100.0</ele><time>2026-04-23T13:26:50Z</time></trkpt><trkpt lat="44.80341609282945" lon="9.31318725339951"><ele>1098.0</ele><time>2026-04-23T13:26:51Z</time></trkpt><trkpt lat="44.80337813432109" lon="9.313293980791352"><ele>1096.0</ele><time>2026-04-23T13:26:52Z</time></trkpt><trkpt lat="44.80332431922404" lon="9.313408221907585"><ele>1094.0</ele><time>2026-04-23T13:26:53Z</time></trkpt><trkpt lat="44.80325604009432" lon="9.313508868532479"><ele>1092.0</ele><time>2026-04-23T13:26:54Z</time></trkpt><trkpt lat="44.803180463114344" lon="9.313617736128938"><ele>1092.0</ele><time>2026-04-23T13:26:55Z</time></trkpt><trkpt lat="44.803108944479845" lon="9.31372720448981"><ele>1092.0</ele><time>2026-04-23T13:26:56Z</time></trkpt><trkpt lat="44.8030378358412" lon="9.31384253713065"><ele>1092.0</ele><time>2026-04-23T13:26:57Z</time></trkpt><trkpt lat="44.802966527671025" lon="9.313957676791931"><ele>1092.0</ele><time>2026-04-23T13:26:58Z</time></trkpt><trkpt lat="44.80288778243056" lon="9.314050934223348"><ele>1092.0</ele><time>2026-04-23T13:26:59Z</time></trkpt><trkpt lat="44.80281046325068" lon="9.314147755537398"><ele>1091.4</ele><time>2026-04-23T13:27:00Z</time></trkpt><trkpt lat="44.80273742906757" lon="9.314245690361913"><ele>1090.8000000000002</ele><time>2026-04-23T13:27:01Z</time></trkpt><trkpt lat="44.802665940072224" lon="9.314351930820935"><ele>1090.2</ele><time>2026-04-23T13:27:02Z</time></trkpt><trkpt lat="44.8026032659063" lon="9.31443977594571"><ele>1089.6000000000001</ele><time>2026-04-23T13:27:03Z</time></trkpt><trkpt lat="44.80253305966156" lon="9.314533683900512"><ele>1089.0</ele><time>2026-04-23T13:27:04Z</time></trkpt><trkpt lat="44.80246807287446" lon="9.314623746106982"><ele>1089.0</ele><time>2026-04-23T13:27:05Z</time></trkpt><trkpt lat="44.802406488520695" lon="9.31469979506651"><ele>1089.0</ele><time>2026-04-23T13:27:06Z</time></trkpt><trkpt lat="44.8023510230091" lon="9.314786221476595"><ele>1089.0</ele><time>2026-04-23T13:27:06.999Z</time></trkpt><trkpt lat="44.80233518472436" lon="9.314887112199333"><ele>1089.0</ele><time>2026-04-23T13:27:07.999Z</time></trkpt><trkpt lat="44.8023510164454" lon="9.314993089107436"><ele>1089.0</ele><time>2026-04-23T13:27:08.999Z</time></trkpt><trkpt lat="44.80240566415433" lon="9.315078344643654"><ele>1089.0</ele><time>2026-04-23T13:27:09.999Z</time></trkpt><trkpt lat="44.80248342638464" lon="9.315115806998712"><ele>1087.0</ele><time>2026-04-23T13:27:10.999Z</time></trkpt><trkpt lat="44.802568887892086" lon="9.315098040519723"><ele>1085.0</ele><time>2026-04-23T13:27:11.999Z</time></trkpt><trkpt lat="44.802657125756106" lon="9.315051675806952"><ele>1083.0</ele><time>2026-04-23T13:27:12.999Z</time></trkpt><trkpt lat="44.80275158790174" lon="9.314971141768668"><ele>1081.0</ele><time>2026-04-23T13:27:13.999Z</time></trkpt><trkpt lat="44.80284422905307" lon="9.314911209805151"><ele>1079.0</ele><time>2026-04-23T13:27:14.999Z</time></trkpt><trkpt lat="44.802951046573625" lon="9.314864458825582"><ele>1077.2</ele><time>2026-04-23T13:27:15.999Z</time></trkpt><trkpt lat="44.80306159837921" lon="9.314843309896848"><ele>1075.4</ele><time>2026-04-23T13:27:16.999Z</time></trkpt><trkpt lat="44.80316886389827" lon="9.3148388906105"><ele>1073.6</ele><time>2026-04-23T13:27:17.999Z</time></trkpt><trkpt lat="44.803277612978974" lon="9.314843262297964"><ele>1071.8</ele><time>2026-04-23T13:27:18.999Z</time></trkpt><trkpt lat="44.80338583122055" lon="9.3148846484369"><ele>1070.0</ele><time>2026-04-23T13:27:19.999Z</time></trkpt><trkpt lat="44.803500003664205" lon="9.3148984720625"><ele>1069.25</ele><time>2026-04-23T13:27:20.999Z</time></trkpt><trkpt lat="44.80361610672676" lon="9.314889454645442"><ele>1068.5</ele><time>2026-04-23T13:27:21.999Z</time></trkpt><trkpt lat="44.80373314789777" lon="9.314880852821048"><ele>1067.75</ele><time>2026-04-23T13:27:22.999Z</time></trkpt><trkpt lat="44.803836685371785" lon="9.314898705613475"><ele>1067.0</ele><time>2026-04-23T13:27:23.999Z</time></trkpt><trkpt lat="44.80394814663668" lon="9.314913546203567"><ele>1067.0</ele><time>2026-04-23T13:27:24.999Z</time></trkpt><trkpt lat="44.804059652736555" lon="9.31492942505551"><ele>1067.0</ele><time>2026-04-23T13:27:25.999Z</time></trkpt><trkpt lat="44.80416726065704" lon="9.314942775140537"><ele>1067.0</ele><time>2026-04-23T13:27:26.999Z</time></trkpt><trkpt lat="44.80427274309148" lon="9.314965385972751"><ele>1067.0</ele><time>2026-04-23T13:27:27.999Z</time></trkpt><trkpt lat="44.804374741240174" lon="9.31502703821881"><ele>1067.0</ele><time>2026-04-23T13:27:28.999Z</time></trkpt><trkpt lat="44.80446127346812" lon="9.315149719460553"><ele>1065.75</ele><time>2026-04-23T13:27:29.999Z</time></trkpt><trkpt lat="44.80453185460087" lon="9.315324810033975"><ele>1064.5</ele><time>2026-04-23T13:27:30.999Z</time></trkpt><trkpt lat="44.804599774916625" lon="9.315490940327399"><ele>1063.25</ele><time>2026-04-23T13:27:31.999Z</time></trkpt><trkpt lat="44.80466433590175" lon="9.315643032572183"><ele>1062.0</ele><time>2026-04-23T13:27:32.999Z</time></trkpt><trkpt lat="44.804734590140846" lon="9.315781662415793"><ele>1062.0</ele><time>2026-04-23T13:27:33.999Z</time></trkpt><trkpt lat="44.804821259348465" lon="9.315901151573604"><ele>1062.0</ele><time>2026-04-23T13:27:34.999Z</time></trkpt><trkpt lat="44.80492784742974" lon="9.315987111134174"><ele>1062.0</ele><time>2026-04-23T13:27:35.999Z</time></trkpt><trkpt lat="44.80505265166869" lon="9.316040361056869"><ele>1062.0</ele><time>2026-04-23T13:27:36.999Z</time></trkpt><trkpt lat="44.80516261097676" lon="9.316121232747753"><ele>1063.75</ele><time>2026-04-23T13:27:37.999Z</time></trkpt><trkpt lat="44.8052829372522" lon="9.316162349339926"><ele>1065.5</ele><time>2026-04-23T13:27:38.999Z</time></trkpt><trkpt lat="44.805399357338075" lon="9.316251743587337"><ele>1067.25</ele><time>2026-04-23T13:27:39.999Z</time></trkpt><trkpt lat="44.805520094595735" lon="9.316319770581982"><ele>1069.0</ele><time>2026-04-23T13:27:40.999Z</time></trkpt><trkpt lat="44.80563589809423" lon="9.316355211836575"><ele>1067.5</ele><time>2026-04-23T13:27:41.999Z</time></trkpt><trkpt lat="44.805746281396644" lon="9.316411363530232"><ele>1066.0</ele><time>2026-04-23T13:27:42.999Z</time></trkpt><trkpt lat="44.80584294966507" lon="9.316472207741853"><ele>1064.5</ele><time>2026-04-23T13:27:43.999Z</time></trkpt><trkpt lat="44.805954303371394" lon="9.316576956325788"><ele>1063.0</ele><time>2026-04-23T13:27:44.999Z</time></trkpt><trkpt lat="44.80606035370693" lon="9.316688962701333"><ele>1063.0</ele><time>2026-04-23T13:27:45.999Z</time></trkpt><trkpt lat="44.8061713641739" lon="9.316794489127346"><ele>1063.0</ele><time>2026-04-23T13:27:46.999Z</time></trkpt><trkpt lat="44.80628004020942" lon="9.316906151126767"><ele>1063.0</ele><time>2026-04-23T13:27:47.999Z</time></trkpt><trkpt lat="44.80638615574957" lon="9.317013924816"><ele>1063.0</ele><time>2026-04-23T13:27:48.999Z</time></trkpt><trkpt lat="44.80649232103599" lon="9.317102251196246"><ele>1063.0</ele><time>2026-04-23T13:27:49.999Z</time></trkpt><trkpt lat="44.80660503684782" lon="9.31715744769333"><ele>1063.0</ele><time>2026-04-23T13:27:50.999Z</time></trkpt><trkpt lat="44.80672017245933" lon="9.31721644985771"><ele>1063.0</ele><time>2026-04-23T13:27:51.999Z</time></trkpt><trkpt lat="44.80682752393484" lon="9.317272672559739"><ele>1063.0</ele><time>2026-04-23T13:27:52.999Z</time></trkpt><trkpt lat="44.80693834296112" lon="9.317317208404042"><ele>1061.4</ele><time>2026-04-23T13:27:53.999Z</time></trkpt><trkpt lat="44.80704010347007" lon="9.317320788048729"><ele>1059.8</ele><time>2026-04-23T13:27:54.999Z</time></trkpt><trkpt lat="44.807117484893304" lon="9.317358950477699"><ele>1058.2</ele><time>2026-04-23T13:27:55.999Z</time></trkpt><trkpt lat="44.80721832369594" lon="9.317381904042854"><ele>1056.6</ele><time>2026-04-23T13:27:56.999Z</time></trkpt><trkpt lat="44.807293653464356" lon="9.317482257833966"><ele>1055.0</ele><time>2026-04-23T13:27:57.999Z</time></trkpt><trkpt lat="44.8073321818799" lon="9.31762498827535"><ele>1055.0</ele><time>2026-04-23T13:27:58.999Z</time></trkpt><trkpt lat="44.807365669310464" lon="9.317747354655772"><ele>1055.0</ele><time>2026-04-23T13:27:59.999Z</time></trkpt><trkpt lat="44.80743750795929" lon="9.317862910069564"><ele>1055.0</ele><time>2026-04-23T13:28:00.999Z</time></trkpt><trkpt lat="44.80754256365386" lon="9.31791650039965"><ele>1055.0</ele><time>2026-04-23T13:28:01.999Z</time></trkpt><trkpt lat="44.80764354722692" lon="9.31796395779328"><ele>1055.0</ele><time>2026-04-23T13:28:02.999Z</time></trkpt><trkpt lat="44.80774753911097" lon="9.318013810296486"><ele>1052.0</ele><time>2026-04-23T13:28:03.999Z</time></trkpt><trkpt lat="44.80784829725141" lon="9.318072850731317"><ele>1049.0</ele><time>2026-04-23T13:28:04.999Z</time></trkpt><trkpt lat="44.80795006475616" lon="9.318156003551696"><ele>1046.0</ele><time>2026-04-23T13:28:05.999Z</time></trkpt><trkpt lat="44.80803891589824" lon="9.318251951382484"><ele>1043.0</ele><time>2026-04-23T13:28:06.999Z</time></trkpt><trkpt lat="44.80812153139742" lon="9.318358671869355"><ele>1043.0</ele><time>2026-04-23T13:28:08Z</time></trkpt><trkpt lat="44.80820890013777" lon="9.318442077650682"><ele>1043.0</ele><time>2026-04-23T13:28:09Z</time></trkpt><trkpt lat="44.808291205073495" lon="9.3185149141525"><ele>1043.0</ele><time>2026-04-23T13:28:10Z</time></trkpt><trkpt lat="44.80837715526728" lon="9.318560465794343"><ele>1043.0</ele><time>2026-04-23T13:28:11Z</time></trkpt><trkpt lat="44.80845688292308" lon="9.318625677580629"><ele>1043.0</ele><time>2026-04-23T13:28:12Z</time></trkpt><trkpt lat="44.8085169574812" lon="9.318707791836912"><ele>1043.0</ele><time>2026-04-23T13:28:13Z</time></trkpt><trkpt lat="44.8085309033081" lon="9.31881380747285"><ele>1043.0</ele><time>2026-04-23T13:28:14Z</time></trkpt><trkpt lat="44.80850380801293" lon="9.318905010864212"><ele>1043.0</ele><time>2026-04-23T13:28:15Z</time></trkpt><trkpt lat="44.80843008211387" lon="9.31898559920437"><ele>1043.0</ele><time>2026-04-23T13:28:16Z</time></trkpt><trkpt lat="44.808348685774995" lon="9.318974915822997"><ele>1043.0</ele><time>2026-04-23T13:28:17Z</time></trkpt><trkpt lat="44.8082485210956" lon="9.318917502982469"><ele>1043.0</ele><time>2026-04-23T13:28:18Z</time></trkpt><trkpt lat="44.808169278639625" lon="9.31881592564931"><ele>1043.0</ele><time>2026-04-23T13:28:19Z</time></trkpt><trkpt lat="44.808103833956686" lon="9.31869059931249"><ele>1043.0</ele><time>2026-04-23T13:28:20Z</time></trkpt><trkpt lat="44.80802753879817" lon="9.318563874350655"><ele>1043.0</ele><time>2026-04-23T13:28:21Z</time></trkpt><trkpt lat="44.807969605275936" lon="9.318441441743474"><ele>1043.0</ele><time>2026-04-23T13:28:22Z</time></trkpt><trkpt lat="44.80789850070438" lon="9.318357550189583"><ele>1043.0</ele><time>2026-04-23T13:28:23Z</time></trkpt><trkpt lat="44.80781228646938" lon="9.318301358334155"><ele>1043.0</ele><time>2026-04-23T13:28:24Z</time></trkpt><trkpt lat="44.807733583118385" lon="9.31834635105946"><ele>1043.0</ele><time>2026-04-23T13:28:25Z</time></trkpt><trkpt lat="44.807667918074934" lon="9.318438655567661"><ele>1043.0</ele><time>2026-04-23T13:28:26Z</time></trkpt><trkpt lat="44.807666053605566" lon="9.318574814113719"><ele>1043.0</ele><time>2026-04-23T13:28:27Z</time></trkpt><trkpt lat="44.80769964366897" lon="9.318686785529028"><ele>1043.0</ele><time>2026-04-23T13:28:28Z</time></trkpt><trkpt lat="44.807765846944946" lon="9.31877405036764"><ele>1043.0</ele><time>2026-04-23T13:28:29Z</time></trkpt><trkpt lat="44.807861230403816" lon="9.318838973634486"><ele>1043.0</ele><time>2026-04-23T13:28:30Z</time></trkpt><trkpt lat="44.80796319572713" lon="9.318907658248381"><ele>1043.0</ele><time>2026-04-23T13:28:31Z</time></trkpt><trkpt lat="44.80806115759151" lon="9.319006976672782"><ele>1043.0</ele><time>2026-04-23T13:28:32Z</time></trkpt><trkpt lat="44.808146315578455" lon="9.319112628362182"><ele>1039.25</ele><time>2026-04-23T13:28:33Z</time></trkpt><trkpt lat="44.80824927691131" lon="9.319214243618532"><ele>1035.5</ele><time>2026-04-23T13:28:34Z</time></trkpt><trkpt lat="44.80836200082725" lon="9.319343006948822"><ele>1031.75</ele><time>2026-04-23T13:28:35Z</time></trkpt><trkpt lat="44.808477085837545" lon="9.319451954656577"><ele>1028.0</ele><time>2026-04-23T13:28:36Z</time></trkpt><trkpt lat="44.80859369142825" lon="9.319551825032207"><ele>1028.0</ele><time>2026-04-23T13:28:37Z</time></trkpt><trkpt lat="44.808704094246444" lon="9.31963856323702"><ele>1028.0</ele><time>2026-04-23T13:28:38Z</time></trkpt><trkpt lat="44.80880818520673" lon="9.319724079429422"><ele>1028.0</ele><time>2026-04-23T13:28:39Z</time></trkpt><trkpt lat="44.80891639989899" lon="9.319800348043279"><ele>1028.0</ele><time>2026-04-23T13:28:40Z</time></trkpt><trkpt lat="44.80902548898949" lon="9.319854036325813"><ele>1025.5</ele><time>2026-04-23T13:28:41Z</time></trkpt><trkpt lat="44.80912337476493" lon="9.319925191992127"><ele>1023.0</ele><time>2026-04-23T13:28:42Z</time></trkpt><trkpt lat="44.809207258188884" lon="9.3200749112251"><ele>1020.5</ele><time>2026-04-23T13:28:43Z</time></trkpt><trkpt lat="44.80926414552303" lon="9.32024525388904"><ele>1018.0</ele><time>2026-04-23T13:28:44Z</time></trkpt><trkpt lat="44.809325132429436" lon="9.320410601505285"><ele>1015.0</ele><time>2026-04-23T13:28:45Z</time></trkpt><trkpt lat="44.80938537822187" lon="9.32056759844578"><ele>1012.0</ele><time>2026-04-23T13:28:46Z</time></trkpt><trkpt lat="44.80944850482748" lon="9.320700617163594"><ele>1009.0</ele><time>2026-04-23T13:28:47Z</time></trkpt><trkpt lat="44.8095130043676" lon="9.320810189727933"><ele>1006.0</ele><time>2026-04-23T13:28:48Z</time></trkpt><trkpt lat="44.80959587711984" lon="9.320867531865249"><ele>1003.0</ele><time>2026-04-23T13:28:49Z</time></trkpt><trkpt lat="44.80969502532077" lon="9.32087054883418"><ele>1003.0</ele><time>2026-04-23T13:28:50Z</time></trkpt><trkpt lat="44.80978572598927" lon="9.320814788922034"><ele>1003.0</ele><time>2026-04-23T13:28:51Z</time></trkpt><trkpt lat="44.80987865352239" lon="9.320744708748384"><ele>1003.0</ele><time>2026-04-23T13:28:52Z</time></trkpt><trkpt lat="44.80996423336565" lon="9.320655359258494"><ele>1003.0</ele><time>2026-04-23T13:28:53Z</time></trkpt><trkpt lat="44.810020021257266" lon="9.320558097355024"><ele>1003.0</ele><time>2026-04-23T13:28:54Z</time></trkpt><trkpt lat="44.81008994426262" lon="9.320520594635221"><ele>1002.9999999999999</ele><time>2026-04-23T13:28:55Z</time></trkpt><trkpt lat="44.810156812376654" lon="9.320520608446376"><ele>1003.0</ele><time>2026-04-23T13:28:56Z</time></trkpt><trkpt lat="44.810219151616955" lon="9.320575986820167"><ele>1003.0</ele><time>2026-04-23T13:28:57Z</time></trkpt><trkpt lat="44.810243352791325" lon="9.320702165126006"><ele>1003.0</ele><time>2026-04-23T13:28:58Z</time></trkpt><trkpt lat="44.810217189906986" lon="9.320823236884488"><ele>1002.9999999999999</ele><time>2026-04-23T13:28:59Z</time></trkpt><trkpt lat="44.81014591683244" lon="9.3209195807681"><ele>1003.0</ele><time>2026-04-23T13:29:00Z</time></trkpt><trkpt lat="44.81006508680681" lon="9.321017734145732"><ele>1003.0</ele><time>2026-04-23T13:29:01Z</time></trkpt><trkpt lat="44.80997856730398" lon="9.321110366740378"><ele>1003.0</ele><time>2026-04-23T13:29:02Z</time></trkpt><trkpt lat="44.80989178776637" lon="9.321198026166135"><ele>1003.0</ele><time>2026-04-23T13:29:03Z</time></trkpt><trkpt lat="44.80980028400751" lon="9.321273937113006"><ele>1003.0</ele><time>2026-04-23T13:29:04Z</time></trkpt><trkpt lat="44.80971031834358" lon="9.321332489197728"><ele>1003.0</ele><time>2026-04-23T13:29:05Z</time></trkpt><trkpt lat="44.80962051761796" lon="9.321374555366141"><ele>1003.0</ele><time>2026-04-23T13:29:06Z</time></trkpt><trkpt lat="44.80954758542321" lon="9.321401018225412"><ele>1003.0</ele><time>2026-04-23T13:29:07Z</time></trkpt><trkpt lat="44.80947640272058" lon="9.321325232110215"><ele>1003.0</ele><time>2026-04-23T13:29:08Z</time></trkpt><trkpt lat="44.80940588633204" lon="9.321238894161528"><ele>1003.0</ele><time>2026-04-23T13:29:09Z</time></trkpt><trkpt lat="44.80934397186434" lon="9.321105289266042"><ele>1003.0</ele><time>2026-04-23T13:29:10Z</time></trkpt><trkpt lat="44.80928090527492" lon="9.32098054102737"><ele>1003.2</ele><time>2026-04-23T13:29:11Z</time></trkpt><trkpt lat="44.80923272827125" lon="9.320880517549343"><ele>1003.4</ele><time>2026-04-23T13:29:12Z</time></trkpt><trkpt lat="44.80916101770403" lon="9.320789417111765"><ele>1003.6000000000001</ele><time>2026-04-23T13:29:13Z</time></trkpt><trkpt lat="44.809072741129064" lon="9.320747441320423"><ele>1003.8000000000001</ele><time>2026-04-23T13:29:14Z</time></trkpt><trkpt lat="44.80897400360353" lon="9.320734273072745"><ele>1004.0</ele><time>2026-04-23T13:29:15Z</time></trkpt><trkpt lat="44.80886207811005" lon="9.320751449738735"><ele>1004.0</ele><time>2026-04-23T13:29:16Z</time></trkpt><trkpt lat="44.808749959425256" lon="9.32077177585558"><ele>1004.0000000000001</ele><time>2026-04-23T13:29:17Z</time></trkpt><trkpt lat="44.8086419544168" lon="9.320778944019413"><ele>1004.0000000000001</ele><time>2026-04-23T13:29:18Z</time></trkpt><trkpt lat="44.80853665693357" lon="9.320778013789424"><ele>1004.0</ele><time>2026-04-23T13:29:19Z</time></trkpt><trkpt lat="44.808434079175406" lon="9.320763930835927"><ele>1004.0</ele><time>2026-04-23T13:29:20Z</time></trkpt><trkpt lat="44.80835798142697" lon="9.32071306328982"><ele>1005.4000000000001</ele><time>2026-04-23T13:29:20.999Z</time></trkpt><trkpt lat="44.80827584201428" lon="9.320666563822801"><ele>1006.8000000000001</ele><time>2026-04-23T13:29:21.999Z</time></trkpt><trkpt lat="44.80820974301659" lon="9.32059418178605"><ele>1008.1999999999999</ele><time>2026-04-23T13:29:22.999Z</time></trkpt><trkpt lat="44.808124969800474" lon="9.320504360389076"><ele>1009.5999999999999</ele><time>2026-04-23T13:29:23.999Z</time></trkpt><trkpt lat="44.80804318371988" lon="9.320422888707789"><ele>1011.0</ele><time>2026-04-23T13:29:24.999Z</time></trkpt><trkpt lat="44.807938249517385" lon="9.320379575499933"><ele>1011.0</ele><time>2026-04-23T13:29:25.999Z</time></trkpt><trkpt lat="44.807843115386184" lon="9.320384403873652"><ele>1010.9999999999999</ele><time>2026-04-23T13:29:26.999Z</time></trkpt><trkpt lat="44.80773350459486" lon="9.320450138011497"><ele>1010.9999999999999</ele><time>2026-04-23T13:29:27.999Z</time></trkpt><trkpt lat="44.80764604152124" lon="9.32054557272552"><ele>1011.0</ele><time>2026-04-23T13:29:28.999Z</time></trkpt><trkpt lat="44.807544340885634" lon="9.320632056614002"><ele>1011.0</ele><time>2026-04-23T13:29:29.999Z</time></trkpt><trkpt lat="44.80745128969494" lon="9.32069762438139"><ele>1005.5</ele><time>2026-04-23T13:29:30.999Z</time></trkpt><trkpt lat="44.807373719429286" lon="9.320937300436787"><ele>1000.0</ele><time>2026-04-23T13:29:31.999Z</time></trkpt><trkpt lat="44.80728244707445" lon="9.320934529255162"><ele>994.5</ele><time>2026-04-23T13:29:32.999Z</time></trkpt><trkpt lat="44.807187011145885" lon="9.320983142856972"><ele>989.0</ele><time>2026-04-23T13:29:33.999Z</time></trkpt><trkpt lat="44.80707833189092" lon="9.321019548369433"><ele>989.0</ele><time>2026-04-23T13:29:34.999Z</time></trkpt><trkpt lat="44.80697675302598" lon="9.32095163976129"><ele>989.0000000000001</ele><time>2026-04-23T13:29:35.999Z</time></trkpt><trkpt lat="44.80688061627115" lon="9.320901195061483"><ele>989.0000000000001</ele><time>2026-04-23T13:29:36.999Z</time></trkpt><trkpt lat="44.806790399928" lon="9.320828433005506"><ele>989.0</ele><time>2026-04-23T13:29:37.999Z</time></trkpt><trkpt lat="44.806707469418946" lon="9.320749913691273"><ele>989.0</ele><time>2026-04-23T13:29:38.999Z</time></trkpt><trkpt lat="44.806593963657164" lon="9.32072304573737"><ele>988.6</ele><time>2026-04-23T13:29:39.999Z</time></trkpt><trkpt lat="44.806501217180234" lon="9.320670490070558"><ele>988.2</ele><time>2026-04-23T13:29:40.999Z</time></trkpt><trkpt lat="44.80640239450598" lon="9.320655934687974"><ele>987.8000000000001</ele><time>2026-04-23T13:29:41.999Z</time></trkpt><trkpt lat="44.80628263688317" lon="9.320653817251834"><ele>987.4000000000001</ele><time>2026-04-23T13:29:42.999Z</time></trkpt><trkpt lat="44.8061729249345" lon="9.32070755130711"><ele>987.0</ele><time>2026-04-23T13:29:43.999Z</time></trkpt><trkpt lat="44.80606059056868" lon="9.320790407491645"><ele>987.25</ele><time>2026-04-23T13:29:44.999Z</time></trkpt><trkpt lat="44.805956245353336" lon="9.320889015503939"><ele>987.5</ele><time>2026-04-23T13:29:45.999Z</time></trkpt><trkpt lat="44.805843124499056" lon="9.320949695873555"><ele>987.75</ele><time>2026-04-23T13:29:46.999Z</time></trkpt><trkpt lat="44.805742029627055" lon="9.32100352590495"><ele>988.0</ele><time>2026-04-23T13:29:47.999Z</time></trkpt><trkpt lat="44.80564267781346" lon="9.32104797032245"><ele>988.0</ele><time>2026-04-23T13:29:48.999Z</time></trkpt><trkpt lat="44.805569475324965" lon="9.321083581561208"><ele>988.0</ele><time>2026-04-23T13:29:49.999Z</time></trkpt><trkpt lat="44.8055194046423" lon="9.32119690550161"><ele>988.0</ele><time>2026-04-23T13:29:50.999Z</time></trkpt><trkpt lat="44.805509815117546" lon="9.32130511281958"><ele>988.0</ele><time>2026-04-23T13:29:51.999Z</time></trkpt><trkpt lat="44.805568728689934" lon="9.3214409319704"><ele>988.0</ele><time>2026-04-23T13:29:52.999Z</time></trkpt><trkpt lat="44.80563624811575" lon="9.321526974192604"><ele>985.0</ele><time>2026-04-23T13:29:53.999Z</time></trkpt><trkpt lat="44.80574281056763" lon="9.32156069044563"><ele>982.0</ele><time>2026-04-23T13:29:54.999Z</time></trkpt><trkpt lat="44.8058647944471" lon="9.321556752915114"><ele>979.0</ele><time>2026-04-23T13:29:55.999Z</time></trkpt><trkpt lat="44.80598764125438" lon="9.321551914388634"><ele>976.0</ele><time>2026-04-23T13:29:56.999Z</time></trkpt><trkpt lat="44.8060960088092" lon="9.321562587841727"><ele>975.6666666666666</ele><time>2026-04-23T13:29:57.999Z</time></trkpt><trkpt lat="44.80619782207259" lon="9.321573091923927"><ele>975.3333333333333</ele><time>2026-04-23T13:29:58.999Z</time></trkpt><trkpt lat="44.80629518775243" lon="9.321584180175146"><ele>975.0</ele><time>2026-04-23T13:29:59.999Z</time></trkpt><trkpt lat="44.806385615878874" lon="9.321606488109017"><ele>974.6666666666667</ele><time>2026-04-23T13:30:00.999Z</time></trkpt><trkpt lat="44.80645868557073" lon="9.321648488341545"><ele>974.3333333333334</ele><time>2026-04-23T13:30:01.999Z</time></trkpt><trkpt lat="44.806514112505816" lon="9.32172194914574"><ele>974.0</ele><time>2026-04-23T13:30:02.999Z</time></trkpt><trkpt lat="44.806535962712886" lon="9.321838574737685"><ele>974.0</ele><time>2026-04-23T13:30:03.999Z</time></trkpt><trkpt lat="44.80653343967501" lon="9.32196172883973"><ele>974.0000000000001</ele><time>2026-04-23T13:30:04.999Z</time></trkpt><trkpt lat="44.80649273437391" lon="9.322072639123821"><ele>974.0000000000001</ele><time>2026-04-23T13:30:05.999Z</time></trkpt><trkpt lat="44.80642134311158" lon="9.322166768247198"><ele>974.0</ele><time>2026-04-23T13:30:06.999Z</time></trkpt><trkpt lat="44.80633615366997" lon="9.322259078114056"><ele>974.0</ele><time>2026-04-23T13:30:07.999Z</time></trkpt><trkpt lat="44.80625575800104" lon="9.322353819777277"><ele>972.3333333333334</ele><time>2026-04-23T13:30:08.999Z</time></trkpt><trkpt lat="44.80619313129903" lon="9.322443465183662"><ele>970.6666666666667</ele><time>2026-04-23T13:30:09.999Z</time></trkpt><trkpt lat="44.80613333350214" lon="9.32253172835044"><ele>969.0</ele><time>2026-04-23T13:30:10.999Z</time></trkpt><trkpt lat="44.80608754129439" lon="9.322640560466377"><ele>967.3333333333333</ele><time>2026-04-23T13:30:11.999Z</time></trkpt><trkpt lat="44.806046269987206" lon="9.322749321997893"><ele>965.6666666666666</ele><time>2026-04-23T13:30:12.999Z</time></trkpt><trkpt lat="44.80603450428571" lon="9.322878178292376"><ele>964.0</ele><time>2026-04-23T13:30:14.001Z</time></trkpt><trkpt lat="44.80603480373319" lon="9.323015988062235"><ele>964.2</ele><time>2026-04-23T13:30:15.001Z</time></trkpt><trkpt lat="44.80602837032253" lon="9.32315544490904"><ele>964.4000000000001</ele><time>2026-04-23T13:30:16.001Z</time></trkpt><trkpt lat="44.805982197307685" lon="9.323271630303115"><ele>964.6</ele><time>2026-04-23T13:30:17.001Z</time></trkpt><trkpt lat="44.80590858314368" lon="9.323391988363474"><ele>964.8</ele><time>2026-04-23T13:30:18.001Z</time></trkpt><trkpt lat="44.80582775312434" lon="9.323495784155359"><ele>965.0</ele><time>2026-04-23T13:30:19.001Z</time></trkpt><trkpt lat="44.8057573407231" lon="9.323594988770258"><ele>965.0</ele><time>2026-04-23T13:30:20.001Z</time></trkpt><trkpt lat="44.805712258005784" lon="9.323687747682662"><ele>965.0</ele><time>2026-04-23T13:30:21.001Z</time></trkpt><trkpt lat="44.80574839686164" lon="9.323894038407222"><ele>965.0</ele><time>2026-04-23T13:30:23Z</time></trkpt><trkpt lat="44.805821594399575" lon="9.323962561993788"><ele>965.0</ele><time>2026-04-23T13:30:24Z</time></trkpt><trkpt lat="44.805908114751844" lon="9.323978180805064"><ele>965.0</ele><time>2026-04-23T13:30:25Z</time></trkpt><trkpt lat="44.80599053473275" lon="9.32393140311406"><ele>963.4</ele><time>2026-04-23T13:30:26Z</time></trkpt><trkpt lat="44.80607778915597" lon="9.323851417949244"><ele>961.8</ele><time>2026-04-23T13:30:27Z</time></trkpt><trkpt lat="44.80616215902072" lon="9.323765761016867"><ele>960.2</ele><time>2026-04-23T13:30:28Z</time></trkpt><trkpt lat="44.80623808423505" lon="9.323683046725682"><ele>958.6</ele><time>2026-04-23T13:30:29Z</time></trkpt><trkpt lat="44.80630698865393" lon="9.323586697184654"><ele>957.0</ele><time>2026-04-23T13:30:30Z</time></trkpt><trkpt lat="44.80636486363401" lon="9.323489601530614"><ele>957.0</ele><time>2026-04-23T13:30:31Z</time></trkpt><trkpt lat="44.806417909128555" lon="9.323407974253659"><ele>957.0</ele><time>2026-04-23T13:30:32Z</time></trkpt><trkpt lat="44.80646635330289" lon="9.323330208961057"><ele>957.0</ele><time>2026-04-23T13:30:33Z</time></trkpt><trkpt lat="44.806524272642044" lon="9.323263352026734"><ele>957.0</ele><time>2026-04-23T13:30:34Z</time></trkpt><trkpt lat="44.80659949654871" lon="9.323200852559724"><ele>957.0</ele><time>2026-04-23T13:30:35Z</time></trkpt><trkpt lat="44.80668957981983" lon="9.323143122174484"><ele>957.0</ele><time>2026-04-23T13:30:36Z</time></trkpt><trkpt lat="44.8067842078936" lon="9.323101639174356"><ele>956.8</ele><time>2026-04-23T13:30:37Z</time></trkpt><trkpt lat="44.80687005514421" lon="9.323060889702601"><ele>956.6</ele><time>2026-04-23T13:30:38Z</time></trkpt><trkpt lat="44.806968903778305" lon="9.32305927210517"><ele>956.3999999999999</ele><time>2026-04-23T13:30:39Z</time></trkpt><trkpt lat="44.80707438247781" lon="9.323099054016275"><ele>956.1999999999999</ele><time>2026-04-23T13:30:40Z</time></trkpt><trkpt lat="44.80717733881598" lon="9.32318454711101"><ele>956.0</ele><time>2026-04-23T13:30:41Z</time></trkpt><trkpt lat="44.80728638350193" lon="9.323261965967024"><ele>956.0</ele><time>2026-04-23T13:30:42Z</time></trkpt><trkpt lat="44.80740532077405" lon="9.323336089243385"><ele>956.0</ele><time>2026-04-23T13:30:43Z</time></trkpt><trkpt lat="44.80752657056706" lon="9.323385481914006"><ele>956.0</ele><time>2026-04-23T13:30:44Z</time></trkpt><trkpt lat="44.807648195933304" lon="9.323435759193679"><ele>956.0</ele><time>2026-04-23T13:30:45Z</time></trkpt><trkpt lat="44.80777225280724" lon="9.323482295743709"><ele>955.5</ele><time>2026-04-23T13:30:46Z</time></trkpt><trkpt lat="44.80790734516975" lon="9.323506221411659"><ele>955.0</ele><time>2026-04-23T13:30:47Z</time></trkpt><trkpt lat="44.80804258629496" lon="9.323516506242798"><ele>954.5</ele><time>2026-04-23T13:30:48Z</time></trkpt><trkpt lat="44.80816505541533" lon="9.323529401143153"><ele>954.0</ele><time>2026-04-23T13:30:49Z</time></trkpt><trkpt lat="44.808299628383054" lon="9.323547851293286"><ele>954.0</ele><time>2026-04-23T13:30:50Z</time></trkpt><trkpt lat="44.80841036788227" lon="9.323557152640886"><ele>954.0000000000001</ele><time>2026-04-23T13:30:51Z</time></trkpt><trkpt lat="44.80852816516583" lon="9.323583761586983"><ele>954.0000000000001</ele><time>2026-04-23T13:30:52Z</time></trkpt><trkpt lat="44.808620406910386" lon="9.323647904775317"><ele>954.0</ele><time>2026-04-23T13:30:53Z</time></trkpt><trkpt lat="44.80869894190345" lon="9.323744569435117"><ele>954.0</ele><time>2026-04-23T13:30:54Z</time></trkpt><trkpt lat="44.80876603982493" lon="9.323866553487708"><ele>952.4000000000001</ele><time>2026-04-23T13:30:55Z</time></trkpt><trkpt lat="44.80883570373127" lon="9.323966874952635"><ele>950.8000000000001</ele><time>2026-04-23T13:30:56Z</time></trkpt><trkpt lat="44.80892836440372" lon="9.324008324928977"><ele>949.1999999999999</ele><time>2026-04-23T13:30:57Z</time></trkpt><trkpt lat="44.809045831345216" lon="9.324010089426508"><ele>947.5999999999999</ele><time>2026-04-23T13:30:58Z</time></trkpt><trkpt lat="44.80917542302915" lon="9.324010405613054"><ele>946.0</ele><time>2026-04-23T13:30:59Z</time></trkpt><trkpt lat="44.80930328422624" lon="9.324012751401805"><ele>944.75</ele><time>2026-04-23T13:31:00Z</time></trkpt><trkpt lat="44.80943860461992" lon="9.324029152178412"><ele>943.5</ele><time>2026-04-23T13:31:01Z</time></trkpt><trkpt lat="44.80956941090196" lon="9.324040495663256"><ele>942.25</ele><time>2026-04-23T13:31:02Z</time></trkpt><trkpt lat="44.80970479891413" lon="9.32405068514464"><ele>941.0</ele><time>2026-04-23T13:31:03Z</time></trkpt><trkpt lat="44.80983989372917" lon="9.32406074850655"><ele>941.0</ele><time>2026-04-23T13:31:04Z</time></trkpt><trkpt lat="44.809973152706156" lon="9.32406665821347"><ele>941.0</ele><time>2026-04-23T13:31:05Z</time></trkpt><trkpt lat="44.81010093727894" lon="9.324080412534299"><ele>941.0</ele><time>2026-04-23T13:31:06Z</time></trkpt><trkpt lat="44.81022257260191" lon="9.324103237563758"><ele>941.0</ele><time>2026-04-23T13:31:07Z</time></trkpt><trkpt lat="44.81034540958139" lon="9.324153938142267"><ele>941.0</ele><time>2026-04-23T13:31:08Z</time></trkpt><trkpt lat="44.8104672141326" lon="9.32422149126924"><ele>941.0</ele><time>2026-04-23T13:31:09Z</time></trkpt><trkpt lat="44.8105790620065" lon="9.324296799128879"><ele>941.0</ele><time>2026-04-23T13:31:10Z</time></trkpt><trkpt lat="44.81069845770298" lon="9.324355486921094"><ele>941.0</ele><time>2026-04-23T13:31:11Z</time></trkpt><trkpt lat="44.810809895347454" lon="9.324408988909457"><ele>941.0</ele><time>2026-04-23T13:31:12Z</time></trkpt><trkpt lat="44.810919777754656" lon="9.324492026508416"><ele>941.0</ele><time>2026-04-23T13:31:13Z</time></trkpt><trkpt lat="44.811031190340124" lon="9.324563689352246"><ele>941.0</ele><time>2026-04-23T13:31:14Z</time></trkpt><trkpt lat="44.81113597507726" lon="9.32461220121436"><ele>941.0</ele><time>2026-04-23T13:31:15Z</time></trkpt><trkpt lat="44.81124307073609" lon="9.324653823631442"><ele>940.8</ele><time>2026-04-23T13:31:16Z</time></trkpt><trkpt lat="44.81134814976333" lon="9.324606960746564"><ele>940.5999999999999</ele><time>2026-04-23T13:31:17Z</time></trkpt><trkpt lat="44.81144660430808" lon="9.324523183909635"><ele>940.4</ele><time>2026-04-23T13:31:18Z</time></trkpt><trkpt lat="44.81155182493842" lon="9.324489061656955"><ele>940.2</ele><time>2026-04-23T13:31:19Z</time></trkpt><trkpt lat="44.81165677263215" lon="9.32453212251592"><ele>940.0</ele><time>2026-04-23T13:31:20Z</time></trkpt><trkpt lat="44.81177381533334" lon="9.324597393367132"><ele>937.5</ele><time>2026-04-23T13:31:21Z</time></trkpt><trkpt lat="44.81189837034721" lon="9.32462662319292"><ele>935.0</ele><time>2026-04-23T13:31:21.999Z</time></trkpt><trkpt lat="44.8120376465385" lon="9.32460108711019"><ele>932.5</ele><time>2026-04-23T13:31:22.999Z</time></trkpt><trkpt lat="44.81218104480501" lon="9.324555862651383"><ele>930.0</ele><time>2026-04-23T13:31:23.999Z</time></trkpt><trkpt lat="44.81230976469218" lon="9.324472752686448"><ele>930.0</ele><time>2026-04-23T13:31:24.999Z</time></trkpt><trkpt lat="44.812432843103586" lon="9.324412813185262"><ele>930.0</ele><time>2026-04-23T13:31:25.999Z</time></trkpt><trkpt lat="44.8125616424242" lon="9.324379663395778"><ele>930.0</ele><time>2026-04-23T13:31:26.999Z</time></trkpt><trkpt lat="44.81267338439303" lon="9.324340458854063"><ele>930.0</ele><time>2026-04-23T13:31:27.999Z</time></trkpt><trkpt lat="44.812776435643265" lon="9.324286477285732"><ele>926.6666666666666</ele><time>2026-04-23T13:31:28.999Z</time></trkpt><trkpt lat="44.812842357200395" lon="9.3241903363861"><ele>923.3333333333333</ele><time>2026-04-23T13:31:29.999Z</time></trkpt><trkpt lat="44.812921885273404" lon="9.324154331995942"><ele>920.0</ele><time>2026-04-23T13:31:30.999Z</time></trkpt><trkpt lat="44.81298555879132" lon="9.324151312626503"><ele>916.6666666666666</ele><time>2026-04-23T13:31:31.999Z</time></trkpt><trkpt lat="44.81304247032811" lon="9.324215790641045"><ele>913.3333333333333</ele><time>2026-04-23T13:31:32.999Z</time></trkpt><trkpt lat="44.81304833185654" lon="9.324331371671379"><ele>910.0</ele><time>2026-04-23T13:31:33.999Z</time></trkpt><trkpt lat="44.81299647847764" lon="9.324443145323393"><ele>910.0</ele><time>2026-04-23T13:31:34.999Z</time></trkpt><trkpt lat="44.81290773146923" lon="9.324518733424611"><ele>910.0</ele><time>2026-04-23T13:31:35.999Z</time></trkpt><trkpt lat="44.81280938531519" lon="9.324558088543506"><ele>910.0</ele><time>2026-04-23T13:31:36.999Z</time></trkpt><trkpt lat="44.81272028211134" lon="9.324617341202027"><ele>910.0</ele><time>2026-04-23T13:31:37.999Z</time></trkpt><trkpt lat="44.81267384156754" lon="9.32473992710681"><ele>910.0</ele><time>2026-04-23T13:31:38.999Z</time></trkpt><trkpt lat="44.812651430935" lon="9.324895228010941"><ele>909.25</ele><time>2026-04-23T13:31:39.999Z</time></trkpt><trkpt lat="44.81259051195974" lon="9.325026220052196"><ele>908.5</ele><time>2026-04-23T13:31:40.999Z</time></trkpt><trkpt lat="44.81248938293094" lon="9.325103896751141"><ele>907.75</ele><time>2026-04-23T13:31:41.999Z</time></trkpt><trkpt lat="44.81237760890572" lon="9.325109293802818"><ele>907.0</ele><time>2026-04-23T13:31:42.999Z</time></trkpt><trkpt lat="44.81226550442125" lon="9.32513518033304"><ele>907.0</ele><time>2026-04-23T13:31:43.999Z</time></trkpt><trkpt lat="44.81216737145276" lon="9.325158681373672"><ele>907.0</ele><time>2026-04-23T13:31:44.999Z</time></trkpt><trkpt lat="44.81207581855343" lon="9.325187474958744"><ele>907.0</ele><time>2026-04-23T13:31:45.999Z</time></trkpt><trkpt lat="44.812007203346866" lon="9.325208653783871"><ele>907.0</ele><time>2026-04-23T13:31:46.999Z</time></trkpt><trkpt lat="44.81198666872416" lon="9.325340888296896"><ele>907.0</ele><time>2026-04-23T13:31:47.999Z</time></trkpt><trkpt lat="44.812018739677484" lon="9.325465740407072"><ele>907.0</ele><time>2026-04-23T13:31:48.999Z</time></trkpt><trkpt lat="44.812094093294256" lon="9.325533101995012"><ele>907.0</ele><time>2026-04-23T13:31:49.999Z</time></trkpt><trkpt lat="44.81219425324256" lon="9.325532022550798"><ele>907.0</ele><time>2026-04-23T13:31:50.999Z</time></trkpt><trkpt lat="44.81230610995402" lon="9.32547907286637"><ele>907.0</ele><time>2026-04-23T13:31:51.999Z</time></trkpt><trkpt lat="44.812416433778395" lon="9.325435194341132"><ele>907.0</ele><time>2026-04-23T13:31:52.999Z</time></trkpt><trkpt lat="44.81254240438179" lon="9.325431187857836"><ele>903.8</ele><time>2026-04-23T13:31:53.999Z</time></trkpt><trkpt lat="44.81266475489041" lon="9.32545626782361"><ele>900.6</ele><time>2026-04-23T13:31:54.999Z</time></trkpt><trkpt lat="44.8127794389089" lon="9.325494627989777"><ele>897.3999999999999</ele><time>2026-04-23T13:31:55.999Z</time></trkpt><trkpt lat="44.81289359039938" lon="9.325470613529735"><ele>894.1999999999999</ele><time>2026-04-23T13:31:56.999Z</time></trkpt><trkpt lat="44.8129845180694" lon="9.325449409875286"><ele>891.0</ele><time>2026-04-23T13:31:57.999Z</time></trkpt><trkpt lat="44.81304164843947" lon="9.325361723967767"><ele>891.0</ele><time>2026-04-23T13:31:58.999Z</time></trkpt><trkpt lat="44.813100202454564" lon="9.325246074258997"><ele>890.9999999999999</ele><time>2026-04-23T13:31:59.999Z</time></trkpt><trkpt lat="44.813154114109885" lon="9.32512116968139"><ele>890.9999999999999</ele><time>2026-04-23T13:32:00.999Z</time></trkpt><trkpt lat="44.81323372408442" lon="9.325037761250389"><ele>891.0</ele><time>2026-04-23T13:32:01.999Z</time></trkpt><trkpt lat="44.81333826486217" lon="9.32500967337137"><ele>891.0</ele><time>2026-04-23T13:32:02.999Z</time></trkpt><trkpt lat="44.813451381749175" lon="9.325013485327618"><ele>892.8</ele><time>2026-04-23T13:32:03.999Z</time></trkpt><trkpt lat="44.81355429592436" lon="9.324996742529311"><ele>894.5999999999999</ele><time>2026-04-23T13:32:04.999Z</time></trkpt><trkpt lat="44.81366690889506" lon="9.324963551110486"><ele>896.4</ele><time>2026-04-23T13:32:05.999Z</time></trkpt><trkpt lat="44.813761429783355" lon="9.324893503858052"><ele>898.2</ele><time>2026-04-23T13:32:06.999Z</time></trkpt><trkpt lat="44.81384967775486" lon="9.324799773415553"><ele>900.0</ele><time>2026-04-23T13:32:07.999Z</time></trkpt><trkpt lat="44.81394097794362" lon="9.324703545977178"><ele>900.0</ele><time>2026-04-23T13:32:08.999Z</time></trkpt><trkpt lat="44.814049918492415" lon="9.324713266732134"><ele>900.0</ele><time>2026-04-23T13:32:09.999Z</time></trkpt><trkpt lat="44.81415938189781" lon="9.324667318592276"><ele>900.0</ele><time>2026-04-23T13:32:10.999Z</time></trkpt><trkpt lat="44.814244782606" lon="9.324540269609361"><ele>900.0</ele><time>2026-04-23T13:32:11.999Z</time></trkpt><trkpt lat="44.814337853267574" lon="9.32443020868607"><ele>898.25</ele><time>2026-04-23T13:32:12.999Z</time></trkpt><trkpt lat="44.81441001858055" lon="9.324357387647108"><ele>896.5</ele><time>2026-04-23T13:32:13.999Z</time></trkpt><trkpt lat="44.814598220888904" lon="9.324366086761973"><ele>894.75</ele><time>2026-04-23T13:32:15.999Z</time></trkpt><trkpt lat="44.81469574604615" lon="9.32439142455852"><ele>893.0</ele><time>2026-04-23T13:32:16.999Z</time></trkpt><trkpt lat="44.81481793770314" lon="9.324441660105652"><ele>893.0</ele><time>2026-04-23T13:32:17.999Z</time></trkpt><trkpt lat="44.81493885907171" lon="9.324484374953263"><ele>893.0</ele><time>2026-04-23T13:32:18.999Z</time></trkpt><trkpt lat="44.815046716555344" lon="9.324554516652775"><ele>893.0</ele><time>2026-04-23T13:32:20Z</time></trkpt><trkpt lat="44.81515276230528" lon="9.32463575291654"><ele>893.0</ele><time>2026-04-23T13:32:21.001Z</time></trkpt><trkpt lat="44.81526031090684" lon="9.324722542715797"><ele>887.75</ele><time>2026-04-23T13:32:22Z</time></trkpt><trkpt lat="44.81536929537652" lon="9.324809437653446"><ele>882.5</ele><time>2026-04-23T13:32:23.001Z</time></trkpt><trkpt lat="44.81550302968572" lon="9.324903985577382"><ele>877.25</ele><time>2026-04-23T13:32:24.001Z</time></trkpt><trkpt lat="44.815640342455616" lon="9.325001929601681"><ele>872.0</ele><time>2026-04-23T13:32:25Z</time></trkpt><trkpt lat="44.81577662156557" lon="9.325088051407294"><ele>872.0</ele><time>2026-04-23T13:32:26Z</time></trkpt><trkpt lat="44.81590668502241" lon="9.325177246092483"><ele>872.0</ele><time>2026-04-23T13:32:27Z</time></trkpt><trkpt lat="44.816038415083355" lon="9.325237209778013"><ele>872.0</ele><time>2026-04-23T13:32:28Z</time></trkpt><trkpt lat="44.81616700209423" lon="9.325246371613504"><ele>872.0</ele><time>2026-04-23T13:32:29Z</time></trkpt><trkpt lat="44.81629528978038" lon="9.325271278823113"><ele>870.5</ele><time>2026-04-23T13:32:30Z</time></trkpt><trkpt lat="44.81638995829123" lon="9.325337525762981"><ele>869.0</ele><time>2026-04-23T13:32:31Z</time></trkpt><trkpt lat="44.816466726747386" lon="9.32545300854449"><ele>867.5</ele><time>2026-04-23T13:32:32Z</time></trkpt><trkpt lat="44.816572328416804" lon="9.325516241088273"><ele>866.0</ele><time>2026-04-23T13:32:33Z</time></trkpt><trkpt lat="44.81669959095961" lon="9.325475764272507"><ele>860.0</ele><time>2026-04-23T13:32:34Z</time></trkpt><trkpt lat="44.816824997646286" lon="9.325376333326194"><ele>854.0</ele><time>2026-04-23T13:32:35Z</time></trkpt><trkpt lat="44.816953635008005" lon="9.325292773577914"><ele>848.0</ele><time>2026-04-23T13:32:36Z</time></trkpt><trkpt lat="44.8170837473078" lon="9.325187722227815"><ele>842.0</ele><time>2026-04-23T13:32:37Z</time></trkpt><trkpt lat="44.81718631898382" lon="9.325061132566809"><ele>842.0</ele><time>2026-04-23T13:32:38Z</time></trkpt><trkpt lat="44.81728584230632" lon="9.324924584725812"><ele>842.0</ele><time>2026-04-23T13:32:39Z</time></trkpt><trkpt lat="44.81737189621691" lon="9.324782411698157"><ele>842.0</ele><time>2026-04-23T13:32:40Z</time></trkpt><trkpt lat="44.81742889729627" lon="9.324630517848803"><ele>842.0</ele><time>2026-04-23T13:32:41Z</time></trkpt><trkpt lat="44.81747429106893" lon="9.32446765715245"><ele>841.0</ele><time>2026-04-23T13:32:42Z</time></trkpt><trkpt lat="44.81753971469726" lon="9.324326468961821"><ele>840.0</ele><time>2026-04-23T13:32:43Z</time></trkpt><trkpt lat="44.81760880841965" lon="9.324215339279634"><ele>839.0</ele><time>2026-04-23T13:32:44Z</time></trkpt><trkpt lat="44.817702951751976" lon="9.324113697292187"><ele>838.0</ele><time>2026-04-23T13:32:45Z</time></trkpt><trkpt lat="44.81782907181377" lon="9.324048802314152"><ele>838.0</ele><time>2026-04-23T13:32:46Z</time></trkpt><trkpt lat="44.81796766936784" lon="9.323949732220417"><ele>838.0</ele><time>2026-04-23T13:32:47Z</time></trkpt><trkpt lat="44.818099184117976" lon="9.323855471352442"><ele>838.0</ele><time>2026-04-23T13:32:48Z</time></trkpt><trkpt lat="44.81822749362113" lon="9.32379062250506"><ele>838.0</ele><time>2026-04-23T13:32:49Z</time></trkpt><trkpt lat="44.81834006924435" lon="9.323711417643542"><ele>839.75</ele><time>2026-04-23T13:32:50Z</time></trkpt><trkpt lat="44.818483591988986" lon="9.323649898353487"><ele>841.5</ele><time>2026-04-23T13:32:51Z</time></trkpt><trkpt lat="44.81861181552596" lon="9.323567037612724"><ele>843.25</ele><time>2026-04-23T13:32:52Z</time></trkpt><trkpt lat="44.818716755765784" lon="9.323479084277471"><ele>845.0</ele><time>2026-04-23T13:32:53Z</time></trkpt><trkpt lat="44.81881607884583" lon="9.32342676336866"><ele>845.0</ele><time>2026-04-23T13:32:54Z</time></trkpt><trkpt lat="44.818945709380685" lon="9.323375258183333"><ele>845.0</ele><time>2026-04-23T13:32:55Z</time></trkpt><trkpt lat="44.81907079440995" lon="9.323323504246035"><ele>845.0</ele><time>2026-04-23T13:32:56Z</time></trkpt><trkpt lat="44.819179545011714" lon="9.323311944813485"><ele>845.0</ele><time>2026-04-23T13:32:57Z</time></trkpt><trkpt lat="44.81930956761328" lon="9.323323639737673"><ele>845.25</ele><time>2026-04-23T13:32:58Z</time></trkpt><trkpt lat="44.819425657604285" lon="9.323358013879771"><ele>845.5</ele><time>2026-04-23T13:32:59Z</time></trkpt><trkpt lat="44.81954316491816" lon="9.323405481482812"><ele>845.75</ele><time>2026-04-23T13:33:00Z</time></trkpt><trkpt lat="44.81966121260051" lon="9.323448363088993"><ele>846.0</ele><time>2026-04-23T13:33:01Z</time></trkpt><trkpt lat="44.81977284393135" lon="9.323567330684455"><ele>846.0</ele><time>2026-04-23T13:33:02Z</time></trkpt><trkpt lat="44.8198748393028" lon="9.32367664914092"><ele>846.0</ele><time>2026-04-23T13:33:03Z</time></trkpt><trkpt lat="44.819992582650215" lon="9.323733450448975"><ele>846.0</ele><time>2026-04-23T13:33:04Z</time></trkpt><trkpt lat="44.82013172888121" lon="9.323736708849603"><ele>846.0</ele><time>2026-04-23T13:33:05Z</time></trkpt><trkpt lat="44.82026689307746" lon="9.323769430051188"><ele>844.5</ele><time>2026-04-23T13:33:06Z</time></trkpt><trkpt lat="44.82039602018388" lon="9.323778844691901"><ele>843.0</ele><time>2026-04-23T13:33:07Z</time></trkpt><trkpt lat="44.82053089265857" lon="9.323742614115092"><ele>841.5</ele><time>2026-04-23T13:33:08Z</time></trkpt><trkpt lat="44.82066033052254" lon="9.323689569034086"><ele>840.0</ele><time>2026-04-23T13:33:09Z</time></trkpt><trkpt lat="44.820785671941444" lon="9.32361286306845"><ele>840.0</ele><time>2026-04-23T13:33:10Z</time></trkpt><trkpt lat="44.82090195454254" lon="9.323517518337562"><ele>840.0</ele><time>2026-04-23T13:33:11Z</time></trkpt><trkpt lat="44.82102235754242" lon="9.32341014061898"><ele>840.0</ele><time>2026-04-23T13:33:12Z</time></trkpt><trkpt lat="44.82113983240303" lon="9.323312013439894"><ele>840.0</ele><time>2026-04-23T13:33:13Z</time></trkpt><trkpt lat="44.82125901484036" lon="9.32322324757668"><ele>841.25</ele><time>2026-04-23T13:33:14Z</time></trkpt><trkpt lat="44.821361326495065" lon="9.323115780296012"><ele>842.5</ele><time>2026-04-23T13:33:15Z</time></trkpt><trkpt lat="44.82145773194864" lon="9.323013110604208"><ele>843.75</ele><time>2026-04-23T13:33:16Z</time></trkpt><trkpt lat="44.82155336466065" lon="9.322925769297129"><ele>845.0</ele><time>2026-04-23T13:33:17Z</time></trkpt><trkpt lat="44.821663232233064" lon="9.322880910367987"><ele>845.0</ele><time>2026-04-23T13:33:18Z</time></trkpt><trkpt lat="44.82178256133578" lon="9.322870438978113"><ele>845.0</ele><time>2026-04-23T13:33:19Z</time></trkpt><trkpt lat="44.82191585509216" lon="9.322805986823266"><ele>845.0</ele><time>2026-04-23T13:33:20Z</time></trkpt><trkpt lat="44.822045696026116" lon="9.322961614349014"><ele>845.0</ele><time>2026-04-23T13:33:21Z</time></trkpt><trkpt lat="44.822170921873244" lon="9.323012734040436"><ele>840.0</ele><time>2026-04-23T13:33:22Z</time></trkpt><trkpt lat="44.822281032881826" lon="9.323031131351526"><ele>835.0</ele><time>2026-04-23T13:33:23Z</time></trkpt><trkpt lat="44.82240688853359" lon="9.323029512608269"><ele>830.0</ele><time>2026-04-23T13:33:23.999Z</time></trkpt><trkpt lat="44.82253521821737" lon="9.32302359847933"><ele>825.0</ele><time>2026-04-23T13:33:24.999Z</time></trkpt><trkpt lat="44.82265698271008" lon="9.323007282705804"><ele>822.0</ele><time>2026-04-23T13:33:25.999Z</time></trkpt><trkpt lat="44.82276920803582" lon="9.322997978350664"><ele>819.0</ele><time>2026-04-23T13:33:26.999Z</time></trkpt><trkpt lat="44.82285709241221" lon="9.323018420375622"><ele>816.0</ele><time>2026-04-23T13:33:27.999Z</time></trkpt><trkpt lat="44.822952846071225" lon="9.323093210893013"><ele>813.0</ele><time>2026-04-23T13:33:28.999Z</time></trkpt><trkpt lat="44.82303770763148" lon="9.323203132841835"><ele>810.0</ele><time>2026-04-23T13:33:29.999Z</time></trkpt><trkpt lat="44.82312688293851" lon="9.323326832410064"><ele>810.0</ele><time>2026-04-23T13:33:30.999Z</time></trkpt><trkpt lat="44.82321180819869" lon="9.323426566625447"><ele>810.0</ele><time>2026-04-23T13:33:31.999Z</time></trkpt><trkpt lat="44.823264290368456" lon="9.323535508006186"><ele>810.0</ele><time>2026-04-23T13:33:32.999Z</time></trkpt><trkpt lat="44.823224262289344" lon="9.323714673354525"><ele>810.0</ele><time>2026-04-23T13:33:34.999Z</time></trkpt><trkpt lat="44.82315722729096" lon="9.323819077778698"><ele>810.0</ele><time>2026-04-23T13:33:35.999Z</time></trkpt><trkpt lat="44.82306878897528" lon="9.323875515588322"><ele>810.0</ele><time>2026-04-23T13:33:36.999Z</time></trkpt><trkpt lat="44.82295027257217" lon="9.323921741202227"><ele>810.0</ele><time>2026-04-23T13:33:37.999Z</time></trkpt><trkpt lat="44.82281318922189" lon="9.32393821309892"><ele>810.0</ele><time>2026-04-23T13:33:38.999Z</time></trkpt><trkpt lat="44.82273507222805" lon="9.323914826044312"><ele>810.0</ele><time>2026-04-23T13:33:39.999Z</time></trkpt><trkpt lat="44.822661595968974" lon="9.323813887928164"><ele>810.0</ele><time>2026-04-23T13:33:40.999Z</time></trkpt><trkpt lat="44.822587760884154" lon="9.32369347209011"><ele>811.25</ele><time>2026-04-23T13:33:41.999Z</time></trkpt><trkpt lat="44.8224638568838" lon="9.323599346887416"><ele>812.5</ele><time>2026-04-23T13:33:42.999Z</time></trkpt><trkpt lat="44.82234097554039" lon="9.323542811939374"><ele>813.75</ele><time>2026-04-23T13:33:43.999Z</time></trkpt><trkpt lat="44.82219695632204" lon="9.323516353700727"><ele>815.0</ele><time>2026-04-23T13:33:44.999Z</time></trkpt><trkpt lat="44.822070993937324" lon="9.32349691094022"><ele>815.0</ele><time>2026-04-23T13:33:45.999Z</time></trkpt><trkpt lat="44.82195303089788" lon="9.323486078967035"><ele>815.0</ele><time>2026-04-23T13:33:46.999Z</time></trkpt><trkpt lat="44.8218380057035" lon="9.323477017920162"><ele>815.0</ele><time>2026-04-23T13:33:47.999Z</time></trkpt><trkpt lat="44.82171767787646" lon="9.323523944169121"><ele>815.0</ele><time>2026-04-23T13:33:48.999Z</time></trkpt><trkpt lat="44.8216063084561" lon="9.323600093205654"><ele>815.5</ele><time>2026-04-23T13:33:49.999Z</time></trkpt><trkpt lat="44.82149845391227" lon="9.323706271609314"><ele>816.0</ele><time>2026-04-23T13:33:50.999Z</time></trkpt><trkpt lat="44.821387301813964" lon="9.323829198477753"><ele>816.5</ele><time>2026-04-23T13:33:51.999Z</time></trkpt><trkpt lat="44.82128207070544" lon="9.32395719912442"><ele>817.0</ele><time>2026-04-23T13:33:52.999Z</time></trkpt><trkpt lat="44.82118948348029" lon="9.324064168414282"><ele>814.75</ele><time>2026-04-23T13:33:53.999Z</time></trkpt><trkpt lat="44.821076867634076" lon="9.324160521243792"><ele>812.5</ele><time>2026-04-23T13:33:54.999Z</time></trkpt><trkpt lat="44.82097029782472" lon="9.32427773596672"><ele>810.25</ele><time>2026-04-23T13:33:55.999Z</time></trkpt><trkpt lat="44.82087690200583" lon="9.324374340241661"><ele>808.0</ele><time>2026-04-23T13:33:56.999Z</time></trkpt><trkpt lat="44.82077406574795" lon="9.324448996731741"><ele>808.0</ele><time>2026-04-23T13:33:57.999Z</time></trkpt><trkpt lat="44.82067147259821" lon="9.324473256152777"><ele>808.0</ele><time>2026-04-23T13:33:58.999Z</time></trkpt><trkpt lat="44.82056813469866" lon="9.32448871612319"><ele>808.0</ele><time>2026-04-23T13:33:59.999Z</time></trkpt><trkpt lat="44.82044625942942" lon="9.324509959726907"><ele>808.0</ele><time>2026-04-23T13:34:00.999Z</time></trkpt><trkpt lat="44.82032698183324" lon="9.324612891820061"><ele>808.0</ele><time>2026-04-23T13:34:01.999Z</time></trkpt><trkpt lat="44.82020773202903" lon="9.324696453702382"><ele>808.0</ele><time>2026-04-23T13:34:02.999Z</time></trkpt><trkpt lat="44.820084810705566" lon="9.324755324171441"><ele>808.0</ele><time>2026-04-23T13:34:03.999Z</time></trkpt><trkpt lat="44.819961778712326" lon="9.324812750156251"><ele>808.0</ele><time>2026-04-23T13:34:04.999Z</time></trkpt><trkpt lat="44.81981977434473" lon="9.32485686749222"><ele>802.75</ele><time>2026-04-23T13:34:05.999Z</time></trkpt><trkpt lat="44.81968646573369" lon="9.324924312099705"><ele>797.5</ele><time>2026-04-23T13:34:06.999Z</time></trkpt><trkpt lat="44.81956928202805" lon="9.325030875302575"><ele>792.25</ele><time>2026-04-23T13:34:07.999Z</time></trkpt><trkpt lat="44.81945455641091" lon="9.32510708311566"><ele>787.0</ele><time>2026-04-23T13:34:08.999Z</time></trkpt><trkpt lat="44.819356716339776" lon="9.32521919574116"><ele>785.0</ele><time>2026-04-23T13:34:09.999Z</time></trkpt><trkpt lat="44.81921051389748" lon="9.325384664340586"><ele>783.0</ele><time>2026-04-23T13:34:10.999Z</time></trkpt><trkpt lat="44.819097265824446" lon="9.325504500534166"><ele>781.0</ele><time>2026-04-23T13:34:11.999Z</time></trkpt><trkpt lat="44.81898112638595" lon="9.325626057434551"><ele>781.0</ele><time>2026-04-23T13:34:12.999Z</time></trkpt><trkpt lat="44.81887151613331" lon="9.325741920787232"><ele>781.0</ele><time>2026-04-23T13:34:13.999Z</time></trkpt><trkpt lat="44.81876813553271" lon="9.325833228699985"><ele>781.0</ele><time>2026-04-23T13:34:14.999Z</time></trkpt><trkpt lat="44.818676852743295" lon="9.325932096159551"><ele>781.0</ele><time>2026-04-23T13:34:15.999Z</time></trkpt><trkpt lat="44.81861005391979" lon="9.326002499153288"><ele>781.0</ele><time>2026-04-23T13:34:16.999Z</time></trkpt><trkpt lat="44.818552999083074" lon="9.326101169343602"><ele>781.0</ele><time>2026-04-23T13:34:17.999Z</time></trkpt><trkpt lat="44.8185169101013" lon="9.326236588712957"><ele>781.0</ele><time>2026-04-23T13:34:18.999Z</time></trkpt><trkpt lat="44.81854318907963" lon="9.32642024276977"><ele>781.0</ele><time>2026-04-23T13:34:19.999Z</time></trkpt><trkpt lat="44.81861113627002" lon="9.326529701930454"><ele>781.0</ele><time>2026-04-23T13:34:20.999Z</time></trkpt><trkpt lat="44.81872092539468" lon="9.32660258618733"><ele>778.25</ele><time>2026-04-23T13:34:21.999Z</time></trkpt><trkpt lat="44.81883142396157" lon="9.326604492092157"><ele>775.5</ele><time>2026-04-23T13:34:22.999Z</time></trkpt><trkpt lat="44.818948902483726" lon="9.326584846603811"><ele>772.75</ele><time>2026-04-23T13:34:23.999Z</time></trkpt><trkpt lat="44.81905358962736" lon="9.326612201432521"><ele>770.0</ele><time>2026-04-23T13:34:24.999Z</time></trkpt><trkpt lat="44.81917708840668" lon="9.326657070023915"><ele>770.0</ele><time>2026-04-23T13:34:26Z</time></trkpt><trkpt lat="44.81929714601389" lon="9.326715226150462"><ele>770.0</ele><time>2026-04-23T13:34:27Z</time></trkpt><trkpt lat="44.8194271639781" lon="9.32674299863417"><ele>770.0</ele><time>2026-04-23T13:34:28Z</time></trkpt><trkpt lat="44.81956491035747" lon="9.326724171148062"><ele>770.0</ele><time>2026-04-23T13:34:29Z</time></trkpt><trkpt lat="44.81969799972057" lon="9.326665370079546"><ele>768.25</ele><time>2026-04-23T13:34:30Z</time></trkpt><trkpt lat="44.81983024838018" lon="9.326600847563515"><ele>766.5</ele><time>2026-04-23T13:34:31Z</time></trkpt><trkpt lat="44.81996214175517" lon="9.32655813689914"><ele>764.75</ele><time>2026-04-23T13:34:32Z</time></trkpt><trkpt lat="44.820084967454314" lon="9.3265159235224"><ele>763.0</ele><time>2026-04-23T13:34:33Z</time></trkpt><trkpt lat="44.82020527166368" lon="9.326481671422417"><ele>760.0</ele><time>2026-04-23T13:34:34Z</time></trkpt><trkpt lat="44.8203030686704" lon="9.32640354606825"><ele>757.0</ele><time>2026-04-23T13:34:35Z</time></trkpt><trkpt lat="44.820390675502196" lon="9.326280905532624"><ele>754.0</ele><time>2026-04-23T13:34:36Z</time></trkpt><trkpt lat="44.82045214062112" lon="9.32612988709939"><ele>751.0</ele><time>2026-04-23T13:34:37Z</time></trkpt><trkpt lat="44.820527156325824" lon="9.326018186266529"><ele>751.0</ele><time>2026-04-23T13:34:38Z</time></trkpt><trkpt lat="44.82062604487819" lon="9.325944625715378"><ele>751.0</ele><time>2026-04-23T13:34:39Z</time></trkpt><trkpt lat="44.820740389097885" lon="9.325869587378133"><ele>751.0</ele><time>2026-04-23T13:34:40Z</time></trkpt><trkpt lat="44.820854621385244" lon="9.325782113474743"><ele>751.0</ele><time>2026-04-23T13:34:41Z</time></trkpt><trkpt lat="44.82095180249542" lon="9.325684962686625"><ele>753.5</ele><time>2026-04-23T13:34:42Z</time></trkpt><trkpt lat="44.821033089375845" lon="9.325556429984056"><ele>756.0</ele><time>2026-04-23T13:34:43Z</time></trkpt><trkpt lat="44.82112575914935" lon="9.325443376157905"><ele>758.5</ele><time>2026-04-23T13:34:44Z</time></trkpt><trkpt lat="44.82124264918794" lon="9.325389808899358"><ele>761.0</ele><time>2026-04-23T13:34:45Z</time></trkpt><trkpt lat="44.82136701612914" lon="9.325391661814473"><ele>761.0</ele><time>2026-04-23T13:34:46Z</time></trkpt><trkpt lat="44.82148876732696" lon="9.325384856233184"><ele>761.0</ele><time>2026-04-23T13:34:47Z</time></trkpt><trkpt lat="44.821605018301184" lon="9.325400161224055"><ele>761.0</ele><time>2026-04-23T13:34:48Z</time></trkpt><trkpt lat="44.821738817260666" lon="9.325375247955908"><ele>761.0</ele><time>2026-04-23T13:34:49Z</time></trkpt><trkpt lat="44.821843995861826" lon="9.325296553977664"><ele>762.0</ele><time>2026-04-23T13:34:50Z</time></trkpt><trkpt lat="44.821959770689276" lon="9.325232686121847"><ele>763.0</ele><time>2026-04-23T13:34:51Z</time></trkpt><trkpt lat="44.822071030333134" lon="9.325218872356112"><ele>764.0</ele><time>2026-04-23T13:34:52Z</time></trkpt><trkpt lat="44.822179921462904" lon="9.32526578181453"><ele>765.0</ele><time>2026-04-23T13:34:53Z</time></trkpt><trkpt lat="44.822278529583436" lon="9.325362261657999"><ele>765.0</ele><time>2026-04-23T13:34:54Z</time></trkpt><trkpt lat="44.8223830694616" lon="9.325465654659617"><ele>765.0</ele><time>2026-04-23T13:34:55Z</time></trkpt><trkpt lat="44.822478016116406" lon="9.325551837864715"><ele>765.0</ele><time>2026-04-23T13:34:56Z</time></trkpt><trkpt lat="44.822570233195385" lon="9.32564504235317"><ele>765.0</ele><time>2026-04-23T13:34:57Z</time></trkpt><trkpt lat="44.82266532113125" lon="9.32570777058678"><ele>763.25</ele><time>2026-04-23T13:34:58Z</time></trkpt><trkpt lat="44.82278298489571" lon="9.325680186478033"><ele>761.5</ele><time>2026-04-23T13:34:59Z</time></trkpt><trkpt lat="44.82290453019352" lon="9.325612290161047"><ele>759.75</ele><time>2026-04-23T13:35:00Z</time></trkpt><trkpt lat="44.82302900743151" lon="9.325550806806985"><ele>758.0</ele><time>2026-04-23T13:35:01Z</time></trkpt><trkpt lat="44.82314768658168" lon="9.325491629089251"><ele>758.0</ele><time>2026-04-23T13:35:02Z</time></trkpt><trkpt lat="44.82328638894984" lon="9.325481257191786"><ele>758.0</ele><time>2026-04-23T13:35:03Z</time></trkpt><trkpt lat="44.82342080846602" lon="9.32547165070522"><ele>758.0</ele><time>2026-04-23T13:35:04Z</time></trkpt><trkpt lat="44.82355361100154" lon="9.325473556440048"><ele>758.0</ele><time>2026-04-23T13:35:05Z</time></trkpt><trkpt lat="44.823681042446516" lon="9.32547514911699"><ele>755.25</ele><time>2026-04-23T13:35:06Z</time></trkpt><trkpt lat="44.823807317253085" lon="9.325410930119636"><ele>752.5</ele><time>2026-04-23T13:35:07Z</time></trkpt><trkpt lat="44.823917952524475" lon="9.32537458494927"><ele>749.75</ele><time>2026-04-23T13:35:08Z</time></trkpt><trkpt lat="44.824022506557505" lon="9.325303469408366"><ele>747.0</ele><time>2026-04-23T13:35:09Z</time></trkpt><trkpt lat="44.82413245128661" lon="9.32526230567128"><ele>747.0</ele><time>2026-04-23T13:35:10Z</time></trkpt><trkpt lat="44.82423635520174" lon="9.325218132174182"><ele>747.0</ele><time>2026-04-23T13:35:11Z</time></trkpt><trkpt lat="44.82435459233333" lon="9.325214009117477"><ele>747.0</ele><time>2026-04-23T13:35:12Z</time></trkpt><trkpt lat="44.82447908176245" lon="9.3251982895223"><ele>747.0</ele><time>2026-04-23T13:35:13Z</time></trkpt><trkpt lat="44.82460051690694" lon="9.325175436054087"><ele>742.25</ele><time>2026-04-23T13:35:14Z</time></trkpt><trkpt lat="44.82472125500107" lon="9.325152636394757"><ele>737.5</ele><time>2026-04-23T13:35:15Z</time></trkpt><trkpt lat="44.824847362382506" lon="9.325167571519893"><ele>732.75</ele><time>2026-04-23T13:35:16Z</time></trkpt><trkpt lat="44.824970659146175" lon="9.325174322033009"><ele>728.0</ele><time>2026-04-23T13:35:17Z</time></trkpt><trkpt lat="44.82508594378406" lon="9.325213345611925"><ele>724.4</ele><time>2026-04-23T13:35:18Z</time></trkpt><trkpt lat="44.82518891428139" lon="9.325266975969392"><ele>720.8</ele><time>2026-04-23T13:35:19Z</time></trkpt><trkpt lat="44.825286551980845" lon="9.325315358742492"><ele>717.2</ele><time>2026-04-23T13:35:20Z</time></trkpt><trkpt lat="44.82539171353207" lon="9.32534045964213"><ele>713.6</ele><time>2026-04-23T13:35:21Z</time></trkpt><trkpt lat="44.82549370082611" lon="9.325348021709866"><ele>710.0</ele><time>2026-04-23T13:35:21.999Z</time></trkpt><trkpt lat="44.825596341644165" lon="9.325270637660141"><ele>710.0</ele><time>2026-04-23T13:35:22.999Z</time></trkpt><trkpt lat="44.82567154614753" lon="9.325160460410084"><ele>710.0</ele><time>2026-04-23T13:35:23.999Z</time></trkpt><trkpt lat="44.82571336200043" lon="9.324996395617742"><ele>710.0</ele><time>2026-04-23T13:35:24.999Z</time></trkpt><trkpt lat="44.82573686274193" lon="9.324813254255972"><ele>710.0</ele><time>2026-04-23T13:35:25.999Z</time></trkpt><trkpt lat="44.82575793546851" lon="9.324636089552515"><ele>710.5</ele><time>2026-04-23T13:35:26.999Z</time></trkpt><trkpt lat="44.82576110179972" lon="9.324465492424856"><ele>711.0</ele><time>2026-04-23T13:35:27.999Z</time></trkpt><trkpt lat="44.82576866139766" lon="9.324283464534231"><ele>711.5</ele><time>2026-04-23T13:35:28.999Z</time></trkpt><trkpt lat="44.825760979016756" lon="9.324102353030899"><ele>712.0</ele><time>2026-04-23T13:35:29.999Z</time></trkpt><trkpt lat="44.825752008836204" lon="9.323931581414568"><ele>713.25</ele><time>2026-04-23T13:35:30.999Z</time></trkpt><trkpt lat="44.82572537614578" lon="9.323755943710518"><ele>714.5</ele><time>2026-04-23T13:35:31.999Z</time></trkpt><trkpt lat="44.825716753501396" lon="9.323587561374842"><ele>715.75</ele><time>2026-04-23T13:35:32.999Z</time></trkpt><trkpt lat="44.825696746339176" lon="9.3234188991777"><ele>717.0</ele><time>2026-04-23T13:35:33.999Z</time></trkpt><trkpt lat="44.82568130271036" lon="9.323266253125249"><ele>717.0</ele><time>2026-04-23T13:35:34.999Z</time></trkpt><trkpt lat="44.825656465988835" lon="9.32311403863616"><ele>717.0</ele><time>2026-04-23T13:35:35.999Z</time></trkpt><trkpt lat="44.82566251041082" lon="9.323010806415848"><ele>717.0</ele><time>2026-04-23T13:35:36.999Z</time></trkpt><trkpt lat="44.82573452262192" lon="9.322896637434972"><ele>717.0</ele><time>2026-04-23T13:35:37.999Z</time></trkpt><trkpt lat="44.82583065201066" lon="9.322834933016413"><ele>717.0</ele><time>2026-04-23T13:35:38.999Z</time></trkpt><trkpt lat="44.82593191953621" lon="9.322843191399718"><ele>718.6</ele><time>2026-04-23T13:35:39.999Z</time></trkpt><trkpt lat="44.82602827575047" lon="9.322899937469346"><ele>720.2</ele><time>2026-04-23T13:35:40.999Z</time></trkpt><trkpt lat="44.82609074119967" lon="9.323039219143459"><ele>721.8</ele><time>2026-04-23T13:35:41.999Z</time></trkpt><trkpt lat="44.826118565495435" lon="9.323181468271855"><ele>723.4</ele><time>2026-04-23T13:35:42.999Z</time></trkpt><trkpt lat="44.82617333504951" lon="9.323329519801526"><ele>725.0</ele><time>2026-04-23T13:35:43.999Z</time></trkpt><trkpt lat="44.8262796444999" lon="9.32342989688564"><ele>725.0</ele><time>2026-04-23T13:35:44.999Z</time></trkpt><trkpt lat="44.82640134698965" lon="9.323508631118543"><ele>725.0</ele><time>2026-04-23T13:35:45.999Z</time></trkpt><trkpt lat="44.826516323860375" lon="9.323610217437118"><ele>725.0</ele><time>2026-04-23T13:35:46.999Z</time></trkpt><trkpt lat="44.82663230357507" lon="9.323697032593723"><ele>725.0</ele><time>2026-04-23T13:35:47.999Z</time></trkpt><trkpt lat="44.82674282981324" lon="9.323796788733079"><ele>725.0</ele><time>2026-04-23T13:35:48.999Z</time></trkpt><trkpt lat="44.826853432438554" lon="9.323896611790559"><ele>725.0</ele><time>2026-04-23T13:35:49.999Z</time></trkpt><trkpt lat="44.82695791803944" lon="9.32400119222799"><ele>725.0</ele><time>2026-04-23T13:35:50.999Z</time></trkpt><trkpt lat="44.827056031322606" lon="9.32409435605644"><ele>725.0</ele><time>2026-04-23T13:35:51.999Z</time></trkpt><trkpt lat="44.82712435357011" lon="9.324232921922095"><ele>725.0</ele><time>2026-04-23T13:35:52.999Z</time></trkpt><trkpt lat="44.82721117196931" lon="9.32439012744946"><ele>725.0</ele><time>2026-04-23T13:35:53.999Z</time></trkpt><trkpt lat="44.827278823341906" lon="9.324548398644716"><ele>725.0</ele><time>2026-04-23T13:35:54.999Z</time></trkpt><trkpt lat="44.827362071682515" lon="9.324697814589781"><ele>725.0</ele><time>2026-04-23T13:35:55.999Z</time></trkpt><trkpt lat="44.82745831270238" lon="9.324854670763173"><ele>726.5</ele><time>2026-04-23T13:35:56.999Z</time></trkpt><trkpt lat="44.82754498003285" lon="9.325005054538398"><ele>728.0</ele><time>2026-04-23T13:35:57.999Z</time></trkpt><trkpt lat="44.82762557794664" lon="9.325141129155528"><ele>729.5</ele><time>2026-04-23T13:35:58.999Z</time></trkpt><trkpt lat="44.82771415374558" lon="9.325295443035694"><ele>731.0</ele><time>2026-04-23T13:35:59.999Z</time></trkpt><trkpt lat="44.827814559038664" lon="9.325433968486642"><ele>731.0</ele><time>2026-04-23T13:36:00.999Z</time></trkpt><trkpt lat="44.82792297374866" lon="9.32555305101009"><ele>731.0</ele><time>2026-04-23T13:36:01.999Z</time></trkpt><trkpt lat="44.828032917644144" lon="9.325660650624418"><ele>731.0</ele><time>2026-04-23T13:36:02.999Z</time></trkpt><trkpt lat="44.828143810139416" lon="9.3257662626821"><ele>731.0</ele><time>2026-04-23T13:36:03.999Z</time></trkpt><trkpt lat="44.828255523649894" lon="9.325853719530091"><ele>729.0</ele><time>2026-04-23T13:36:04.999Z</time></trkpt><trkpt lat="44.828367280191955" lon="9.325948335075164"><ele>727.0</ele><time>2026-04-23T13:36:05.999Z</time></trkpt><trkpt lat="44.828484920063666" lon="9.326043602465585"><ele>725.0</ele><time>2026-04-23T13:36:06.999Z</time></trkpt><trkpt lat="44.828602020969186" lon="9.326141244111476"><ele>723.0</ele><time>2026-04-23T13:36:07.999Z</time></trkpt><trkpt lat="44.8287162107068" lon="9.326237696810418"><ele>723.0</ele><time>2026-04-23T13:36:08.999Z</time></trkpt><trkpt lat="44.82882221528007" lon="9.326351281108527"><ele>723.0</ele><time>2026-04-23T13:36:09.999Z</time></trkpt><trkpt lat="44.82888473876623" lon="9.326518326621937"><ele>723.0</ele><time>2026-04-23T13:36:10.999Z</time></trkpt><trkpt lat="44.82896079046639" lon="9.326682324912614"><ele>723.0</ele><time>2026-04-23T13:36:11.999Z</time></trkpt><trkpt lat="44.82904224626837" lon="9.326817325710799"><ele>716.2</ele><time>2026-04-23T13:36:12.999Z</time></trkpt><trkpt lat="44.82914764853338" lon="9.326896745405143"><ele>709.4</ele><time>2026-04-23T13:36:13.999Z</time></trkpt><trkpt lat="44.829253603626874" lon="9.326932769745376"><ele>702.6</ele><time>2026-04-23T13:36:14.999Z</time></trkpt><trkpt lat="44.82934693832464" lon="9.326925805261642"><ele>695.8000000000001</ele><time>2026-04-23T13:36:15.999Z</time></trkpt><trkpt lat="44.82941962854993" lon="9.326842898767634"><ele>689.0</ele><time>2026-04-23T13:36:16.999Z</time></trkpt><trkpt lat="44.82948179237751" lon="9.326719311797202"><ele>691.5</ele><time>2026-04-23T13:36:17.999Z</time></trkpt><trkpt lat="44.82955431755401" lon="9.326610761664599"><ele>694.0</ele><time>2026-04-23T13:36:18.999Z</time></trkpt><trkpt lat="44.82964297585816" lon="9.3265132002109"><ele>696.5</ele><time>2026-04-23T13:36:19.999Z</time></trkpt><trkpt lat="44.82973778293957" lon="9.326418292039083"><ele>699.0</ele><time>2026-04-23T13:36:20.999Z</time></trkpt><trkpt lat="44.829840355394545" lon="9.326332546909011"><ele>699.0</ele><time>2026-04-23T13:36:21.999Z</time></trkpt><trkpt lat="44.82994892854576" lon="9.326256930958214"><ele>699.0</ele><time>2026-04-23T13:36:22.999Z</time></trkpt><trkpt lat="44.83006564003645" lon="9.32618757281875"><ele>699.0</ele><time>2026-04-23T13:36:23.999Z</time></trkpt><trkpt lat="44.830181425887126" lon="9.326118553214288"><ele>699.0</ele><time>2026-04-23T13:36:24.999Z</time></trkpt><trkpt lat="44.83029291102395" lon="9.326044600066924"><ele>696.0</ele><time>2026-04-23T13:36:25.999Z</time></trkpt><trkpt lat="44.83041493645711" lon="9.325991173876224"><ele>693.0</ele><time>2026-04-23T13:36:26.998Z</time></trkpt><trkpt lat="44.830560135939855" lon="9.32598619131288"><ele>690.0</ele><time>2026-04-23T13:36:27.998Z</time></trkpt><trkpt lat="44.830694776098944" lon="9.325999924497204"><ele>687.0</ele><time>2026-04-23T13:36:28.998Z</time></trkpt><trkpt lat="44.83083069729461" lon="9.325981016627637"><ele>687.0</ele><time>2026-04-23T13:36:29.998Z</time></trkpt><trkpt lat="44.83096567836764" lon="9.325943003869583"><ele>687.0</ele><time>2026-04-23T13:36:30.998Z</time></trkpt><trkpt lat="44.83109749065556" lon="9.325923391259115"><ele>687.0</ele><time>2026-04-23T13:36:32Z</time></trkpt><trkpt lat="44.8312300610225" lon="9.325954572172877"><ele>687.0</ele><time>2026-04-23T13:36:33Z</time></trkpt><trkpt lat="44.831362221599285" lon="9.326047020205124"><ele>687.75</ele><time>2026-04-23T13:36:34Z</time></trkpt><trkpt lat="44.83147799528542" lon="9.32616319661687"><ele>688.5</ele><time>2026-04-23T13:36:35Z</time></trkpt><trkpt lat="44.831590385526134" lon="9.32626075890125"><ele>689.25</ele><time>2026-04-23T13:36:36Z</time></trkpt><trkpt lat="44.83171414117523" lon="9.326367347076097"><ele>690.0</ele><time>2026-04-23T13:36:37Z</time></trkpt><trkpt lat="44.83184810452731" lon="9.326419813412695"><ele>689.75</ele><time>2026-04-23T13:36:38Z</time></trkpt><trkpt lat="44.83197544936661" lon="9.32645602193617"><ele>689.5</ele><time>2026-04-23T13:36:39Z</time></trkpt><trkpt lat="44.832103562933085" lon="9.326457343195928"><ele>689.25</ele><time>2026-04-23T13:36:40Z</time></trkpt><trkpt lat="44.832235293579195" lon="9.326393407335392"><ele>689.0</ele><time>2026-04-23T13:36:41Z</time></trkpt><trkpt lat="44.83238327360623" lon="9.326340809617959"><ele>689.0</ele><time>2026-04-23T13:36:42Z</time></trkpt><trkpt lat="44.83252477391904" lon="9.326315449685461"><ele>689.0</ele><time>2026-04-23T13:36:43Z</time></trkpt><trkpt lat="44.83266303281319" lon="9.326326269783928"><ele>689.0</ele><time>2026-04-23T13:36:44Z</time></trkpt><trkpt lat="44.832800265019706" lon="9.326347236380476"><ele>689.0</ele><time>2026-04-23T13:36:45Z</time></trkpt><trkpt lat="44.83292965562432" lon="9.326375265015349"><ele>683.25</ele><time>2026-04-23T13:36:46Z</time></trkpt><trkpt lat="44.83305640521879" lon="9.326468525336072"><ele>677.5</ele><time>2026-04-23T13:36:47Z</time></trkpt><trkpt lat="44.83316933664394" lon="9.326583072049537"><ele>671.75</ele><time>2026-04-23T13:36:48Z</time></trkpt><trkpt lat="44.833285537101425" lon="9.326683273674325"><ele>666.0</ele><time>2026-04-23T13:36:49Z</time></trkpt><trkpt lat="44.83340731085044" lon="9.326772630393904"><ele>665.75</ele><time>2026-04-23T13:36:50Z</time></trkpt><trkpt lat="44.83352390587469" lon="9.326866431792103"><ele>665.5</ele><time>2026-04-23T13:36:51Z</time></trkpt><trkpt lat="44.83363470137733" lon="9.326948790718609"><ele>665.25</ele><time>2026-04-23T13:36:52Z</time></trkpt><trkpt lat="44.83374396341057" lon="9.327017320957388"><ele>665.0</ele><time>2026-04-23T13:36:53Z</time></trkpt><trkpt lat="44.83385728737993" lon="9.32705635981209"><ele>665.0</ele><time>2026-04-23T13:36:54Z</time></trkpt><trkpt lat="44.83397491725236" lon="9.32703927008092"><ele>665.0</ele><time>2026-04-23T13:36:55Z</time></trkpt><trkpt lat="44.83409308582602" lon="9.32701177298467"><ele>665.0</ele><time>2026-04-23T13:36:56Z</time></trkpt><trkpt lat="44.834204272422504" lon="9.326989757669866"><ele>665.0</ele><time>2026-04-23T13:36:57Z</time></trkpt><trkpt lat="44.83430991035186" lon="9.326967761774133"><ele>661.4</ele><time>2026-04-23T13:36:58Z</time></trkpt><trkpt lat="44.8344015432973" lon="9.326910897458475"><ele>657.8</ele><time>2026-04-23T13:36:59Z</time></trkpt><trkpt lat="44.83446179164934" lon="9.326806623954386"><ele>654.2</ele><time>2026-04-23T13:37:00Z</time></trkpt><trkpt lat="44.834475796149874" lon="9.326667306114832"><ele>650.6</ele><time>2026-04-23T13:37:01Z</time></trkpt><trkpt lat="44.834439884714286" lon="9.326502508541132"><ele>647.0</ele><time>2026-04-23T13:37:02Z</time></trkpt><trkpt lat="44.834374808109835" lon="9.326329369798467"><ele>644.25</ele><time>2026-04-23T13:37:03Z</time></trkpt><trkpt lat="44.83432118290604" lon="9.326152593566455"><ele>641.5</ele><time>2026-04-23T13:37:04Z</time></trkpt><trkpt lat="44.83426172952596" lon="9.325973284687542"><ele>638.75</ele><time>2026-04-23T13:37:05Z</time></trkpt><trkpt lat="44.83419301802154" lon="9.325803384321995"><ele>636.0</ele><time>2026-04-23T13:37:06Z</time></trkpt><trkpt lat="44.83408942828703" lon="9.325663690031895"><ele>640.0</ele><time>2026-04-23T13:37:07Z</time></trkpt><trkpt lat="44.83398853724182" lon="9.325512152670607"><ele>644.0</ele><time>2026-04-23T13:37:08Z</time></trkpt><trkpt lat="44.83392046671567" lon="9.325340852368225"><ele>648.0</ele><time>2026-04-23T13:37:09Z</time></trkpt><trkpt lat="44.83384572345" lon="9.325173596708169"><ele>652.0</ele><time>2026-04-23T13:37:10Z</time></trkpt><trkpt lat="44.83377629996262" lon="9.325017842301484"><ele>652.0</ele><time>2026-04-23T13:37:11Z</time></trkpt><trkpt lat="44.83373794142033" lon="9.324853380790694"><ele>652.0</ele><time>2026-04-23T13:37:12Z</time></trkpt><trkpt lat="44.833736724063314" lon="9.324665702847101"><ele>652.0</ele><time>2026-04-23T13:37:13Z</time></trkpt><trkpt lat="44.83376258984042" lon="9.32445111256018"><ele>652.0</ele><time>2026-04-23T13:37:14Z</time></trkpt><trkpt lat="44.833740638043345" lon="9.324251826364462"><ele>648.3333333333334</ele><time>2026-04-23T13:37:15Z</time></trkpt><trkpt lat="44.83370696532009" lon="9.324042998370576"><ele>644.6666666666666</ele><time>2026-04-23T13:37:16Z</time></trkpt><trkpt lat="44.83365866699787" lon="9.323821368030814"><ele>641.0</ele><time>2026-04-23T13:37:17Z</time></trkpt><trkpt lat="44.83361772388212" lon="9.323589779759292"><ele>640.0</ele><time>2026-04-23T13:37:18Z</time></trkpt><trkpt lat="44.83358116728711" lon="9.323363022282042"><ele>639.0</ele><time>2026-04-23T13:37:19Z</time></trkpt><trkpt lat="44.8335191177458" lon="9.323144444113213"><ele>638.0</ele><time>2026-04-23T13:37:20Z</time></trkpt><trkpt lat="44.8334544540727" lon="9.322932722791753"><ele>641.5</ele><time>2026-04-23T13:37:21Z</time></trkpt><trkpt lat="44.83341904467335" lon="9.322715833159473"><ele>645.0</ele><time>2026-04-23T13:37:22Z</time></trkpt><trkpt lat="44.8333827385275" lon="9.322521526233745"><ele>648.5</ele><time>2026-04-23T13:37:23Z</time></trkpt><trkpt lat="44.833365934085236" lon="9.322348094519272"><ele>652.0</ele><time>2026-04-23T13:37:24Z</time></trkpt><trkpt lat="44.83333228683851" lon="9.322205214290122"><ele>652.0</ele><time>2026-04-23T13:37:25Z</time></trkpt><trkpt lat="44.83332140106097" lon="9.322070581561654"><ele>652.0</ele><time>2026-04-23T13:37:26Z</time></trkpt><trkpt lat="44.83336779132094" lon="9.321972905009954"><ele>652.0</ele><time>2026-04-23T13:37:27Z</time></trkpt><trkpt lat="44.833459557708096" lon="9.321907217783338"><ele>652.0</ele><time>2026-04-23T13:37:28Z</time></trkpt><trkpt lat="44.8335513202704" lon="9.321885643393248"><ele>652.0</ele><time>2026-04-23T13:37:28.999Z</time></trkpt><trkpt lat="44.833641599837044" lon="9.321932076309581"><ele>652.5</ele><time>2026-04-23T13:37:29.999Z</time></trkpt><trkpt lat="44.83371605156758" lon="9.322051672400606"><ele>653.0</ele><time>2026-04-23T13:37:30.999Z</time></trkpt><trkpt lat="44.83378987721801" lon="9.32219483673844"><ele>653.5</ele><time>2026-04-23T13:37:31.999Z</time></trkpt><trkpt lat="44.83387261321064" lon="9.322335643015279"><ele>654.0</ele><time>2026-04-23T13:37:32.999Z</time></trkpt><trkpt lat="44.83396078452841" lon="9.32248437451796"><ele>652.0</ele><time>2026-04-23T13:37:33.999Z</time></trkpt><trkpt lat="44.834046695708906" lon="9.322634350342756"><ele>650.0</ele><time>2026-04-23T13:37:34.999Z</time></trkpt><trkpt lat="44.83411565430387" lon="9.322789501998239"><ele>648.0</ele><time>2026-04-23T13:37:35.999Z</time></trkpt><trkpt lat="44.83418801272276" lon="9.322948011571368"><ele>646.0</ele><time>2026-04-23T13:37:36.999Z</time></trkpt><trkpt lat="44.83426681758182" lon="9.323101383110552"><ele>645.5</ele><time>2026-04-23T13:37:37.999Z</time></trkpt><trkpt lat="44.834360334453756" lon="9.323235577414607"><ele>645.0</ele><time>2026-04-23T13:37:38.999Z</time></trkpt><trkpt lat="44.83446499127615" lon="9.323362812029556"><ele>644.5</ele><time>2026-04-23T13:37:39.999Z</time></trkpt><trkpt lat="44.83456935709696" lon="9.323508121773937"><ele>644.0</ele><time>2026-04-23T13:37:40.999Z</time></trkpt><trkpt lat="44.8346753385402" lon="9.32364093886487"><ele>644.0</ele><time>2026-04-23T13:37:41.999Z</time></trkpt><trkpt lat="44.8347836573984" lon="9.32376758942603"><ele>644.0</ele><time>2026-04-23T13:37:42.999Z</time></trkpt><trkpt lat="44.83489064105102" lon="9.323907279370376"><ele>644.0</ele><time>2026-04-23T13:37:43.999Z</time></trkpt><trkpt lat="44.83499572272793" lon="9.324032562496944"><ele>644.0</ele><time>2026-04-23T13:37:44.999Z</time></trkpt><trkpt lat="44.83509868789651" lon="9.324159836296454"><ele>643.0</ele><time>2026-04-23T13:37:45.999Z</time></trkpt><trkpt lat="44.8352031105059" lon="9.324290912184685"><ele>642.0</ele><time>2026-04-23T13:37:46.999Z</time></trkpt><trkpt lat="44.835307025133716" lon="9.324422588632556"><ele>641.0</ele><time>2026-04-23T13:37:47.999Z</time></trkpt><trkpt lat="44.835412162361436" lon="9.324553862081997"><ele>640.0</ele><time>2026-04-23T13:37:48.999Z</time></trkpt><trkpt lat="44.83551331261675" lon="9.324687371127874"><ele>636.0</ele><time>2026-04-23T13:37:49.999Z</time></trkpt><trkpt lat="44.835594720964096" lon="9.324830987034524"><ele>632.0</ele><time>2026-04-23T13:37:50.999Z</time></trkpt><trkpt lat="44.83571210197209" lon="9.324969158688388"><ele>628.0</ele><time>2026-04-23T13:37:51.999Z</time></trkpt><trkpt lat="44.83582449664337" lon="9.32510609225839"><ele>624.0</ele><time>2026-04-23T13:37:52.999Z</time></trkpt><trkpt lat="44.83593153802561" lon="9.325250638339305"><ele>625.3333333333334</ele><time>2026-04-23T13:37:53.999Z</time></trkpt><trkpt lat="44.836028140147086" lon="9.32540297055012"><ele>626.6666666666667</ele><time>2026-04-23T13:37:54.999Z</time></trkpt><trkpt lat="44.83613149043477" lon="9.325571406119257"><ele>628.0</ele><time>2026-04-23T13:37:55.999Z</time></trkpt><trkpt lat="44.83621910090781" lon="9.325747025394447"><ele>628.0</ele><time>2026-04-23T13:37:56.999Z</time></trkpt><trkpt lat="44.83629225609683" lon="9.325937489513288"><ele>628.0</ele><time>2026-04-23T13:37:57.999Z</time></trkpt><trkpt lat="44.83635751547827" lon="9.326145544258287"><ele>628.0</ele><time>2026-04-23T13:37:58.999Z</time></trkpt><trkpt lat="44.83642033347113" lon="9.326359658020218"><ele>624.6666666666667</ele><time>2026-04-23T13:37:59.999Z</time></trkpt><trkpt lat="44.836485297312485" lon="9.326569414211313"><ele>621.3333333333334</ele><time>2026-04-23T13:38:00.999Z</time></trkpt><trkpt lat="44.836549760753044" lon="9.326777771228347"><ele>618.0</ele><time>2026-04-23T13:38:01.999Z</time></trkpt><trkpt lat="44.8366128560138" lon="9.326985559562653"><ele>618.0</ele><time>2026-04-23T13:38:02.999Z</time></trkpt><trkpt lat="44.836672790221726" lon="9.327194740776399"><ele>618.0</ele><time>2026-04-23T13:38:03.999Z</time></trkpt><trkpt lat="44.83673370157271" lon="9.327391623213948"><ele>618.0</ele><time>2026-04-23T13:38:04.999Z</time></trkpt><trkpt lat="44.83679954603482" lon="9.32758602946132"><ele>618.25</ele><time>2026-04-23T13:38:05.999Z</time></trkpt><trkpt lat="44.836861472083235" lon="9.327778519563664"><ele>618.5</ele><time>2026-04-23T13:38:06.999Z</time></trkpt><trkpt lat="44.836917333407975" lon="9.32796929196338"><ele>618.75</ele><time>2026-04-23T13:38:07.999Z</time></trkpt><trkpt lat="44.8369691820652" lon="9.328155610581375"><ele>619.0</ele><time>2026-04-23T13:38:08.999Z</time></trkpt><trkpt lat="44.837020560925815" lon="9.32832888814606"><ele>619.0</ele><time>2026-04-23T13:38:09.999Z</time></trkpt><trkpt lat="44.83707266354448" lon="9.328487523437953"><ele>619.0</ele><time>2026-04-23T13:38:10.999Z</time></trkpt><trkpt lat="44.83712268358047" lon="9.328639804630932"><ele>619.0</ele><time>2026-04-23T13:38:11.999Z</time></trkpt><trkpt lat="44.837168762533814" lon="9.328782674899635"><ele>619.0</ele><time>2026-04-23T13:38:12.999Z</time></trkpt><trkpt lat="44.83720765949105" lon="9.328926169132783"><ele>618.6</ele><time>2026-04-23T13:38:13.999Z</time></trkpt><trkpt lat="44.83724173204653" lon="9.329083538467373"><ele>618.2</ele><time>2026-04-23T13:38:14.999Z</time></trkpt><trkpt lat="44.83726173128718" lon="9.329227877118957"><ele>617.8000000000001</ele><time>2026-04-23T13:38:15.999Z</time></trkpt><trkpt lat="44.83728771166872" lon="9.329368500860197"><ele>617.4</ele><time>2026-04-23T13:38:16.999Z</time></trkpt><trkpt lat="44.83731664872237" lon="9.329508806441766"><ele>617.0</ele><time>2026-04-23T13:38:17.999Z</time></trkpt><trkpt lat="44.83734306803413" lon="9.3296457513131"><ele>614.4</ele><time>2026-04-23T13:38:18.999Z</time></trkpt><trkpt lat="44.83737959276566" lon="9.32977955176589"><ele>611.8000000000001</ele><time>2026-04-23T13:38:19.999Z</time></trkpt><trkpt lat="44.83742392612002" lon="9.329893800047806"><ele>609.2</ele><time>2026-04-23T13:38:20.999Z</time></trkpt><trkpt lat="44.83746512682037" lon="9.330003290704125"><ele>606.6</ele><time>2026-04-23T13:38:21.999Z</time></trkpt><trkpt lat="44.83750787738861" lon="9.33011324455906"><ele>604.0</ele><time>2026-04-23T13:38:22.999Z</time></trkpt><trkpt lat="44.83755275279006" lon="9.330217119058291"><ele>604.0</ele><time>2026-04-23T13:38:23.999Z</time></trkpt><trkpt lat="44.83760554369153" lon="9.330315073559808"><ele>604.0</ele><time>2026-04-23T13:38:24.999Z</time></trkpt><trkpt lat="44.8376679624262" lon="9.330404858362034"><ele>604.0</ele><time>2026-04-23T13:38:25.999Z</time></trkpt><trkpt lat="44.83775620845142" lon="9.330478273708918"><ele>604.0</ele><time>2026-04-23T13:38:26.999Z</time></trkpt><trkpt lat="44.83785599866156" lon="9.330537489878324"><ele>604.0</ele><time>2026-04-23T13:38:27.999Z</time></trkpt><trkpt lat="44.837966751464286" lon="9.330591546739"><ele>601.25</ele><time>2026-04-23T13:38:28.999Z</time></trkpt><trkpt lat="44.83808152706293" lon="9.330655490146205"><ele>598.5</ele><time>2026-04-23T13:38:29.999Z</time></trkpt><trkpt lat="44.83819730435124" lon="9.330717436086903"><ele>595.75</ele><time>2026-04-23T13:38:30.998Z</time></trkpt><trkpt lat="44.83830641544883" lon="9.330786325220602"><ele>593.0</ele><time>2026-04-23T13:38:31.998Z</time></trkpt><trkpt lat="44.838410452953816" lon="9.330848485170138"><ele>591.8</ele><time>2026-04-23T13:38:32.998Z</time></trkpt><trkpt lat="44.83851537444553" lon="9.330897923898128"><ele>590.5999999999999</ele><time>2026-04-23T13:38:33.998Z</time></trkpt><trkpt lat="44.83861740473168" lon="9.330942612653205"><ele>589.4000000000001</ele><time>2026-04-23T13:38:34.998Z</time></trkpt><trkpt lat="44.83871514471769" lon="9.33099199350563"><ele>588.2</ele><time>2026-04-23T13:38:35.998Z</time></trkpt><trkpt lat="44.83881923622121" lon="9.331015764906768"><ele>587.0</ele><time>2026-04-23T13:38:36.998Z</time></trkpt><trkpt lat="44.838949546732685" lon="9.330978483269295"><ele>587.0</ele><time>2026-04-23T13:38:38Z</time></trkpt><trkpt lat="44.83908228778571" lon="9.330891683084483"><ele>587.0</ele><time>2026-04-23T13:38:39Z</time></trkpt><trkpt lat="44.83921841844942" lon="9.33082971863352"><ele>587.0</ele><time>2026-04-23T13:38:40Z</time></trkpt><trkpt lat="44.83932934378416" lon="9.330772309329227"><ele>587.0</ele><time>2026-04-23T13:38:41Z</time></trkpt><trkpt lat="44.839436346947366" lon="9.330715331634279"><ele>587.0</ele><time>2026-04-23T13:38:42Z</time></trkpt><trkpt lat="44.8395335622913" lon="9.330655158588081"><ele>587.0</ele><time>2026-04-23T13:38:43Z</time></trkpt><trkpt lat="44.83963236082529" lon="9.33060561272441"><ele>587.0</ele><time>2026-04-23T13:38:44Z</time></trkpt><trkpt lat="44.83972631740381" lon="9.330566054658659"><ele>587.0</ele><time>2026-04-23T13:38:45Z</time></trkpt><trkpt lat="44.83981970573614" lon="9.330550509371324"><ele>587.0</ele><time>2026-04-23T13:38:46Z</time></trkpt><trkpt lat="44.83990969749277" lon="9.330564279804868"><ele>587.0</ele><time>2026-04-23T13:38:47Z</time></trkpt><trkpt lat="44.840003795604986" lon="9.330634276662563"><ele>587.0</ele><time>2026-04-23T13:38:48Z</time></trkpt><trkpt lat="44.84008507803892" lon="9.330727981445971"><ele>587.0</ele><time>2026-04-23T13:38:49Z</time></trkpt><trkpt lat="44.840154494694545" lon="9.33085218113197"><ele>587.0</ele><time>2026-04-23T13:38:50Z</time></trkpt><trkpt lat="44.840233209612755" lon="9.330971573813434"><ele>587.0</ele><time>2026-04-23T13:38:51Z</time></trkpt><trkpt lat="44.84031927612081" lon="9.331087493176266"><ele>586.75</ele><time>2026-04-23T13:38:52Z</time></trkpt><trkpt lat="44.84041011645385" lon="9.331196655928633"><ele>586.5</ele><time>2026-04-23T13:38:53Z</time></trkpt><trkpt lat="44.84049807021659" lon="9.331305448688603"><ele>586.25</ele><time>2026-04-23T13:38:54Z</time></trkpt><trkpt lat="44.8405808278546" lon="9.331416843413319"><ele>586.0</ele><time>2026-04-23T13:38:55Z</time></trkpt><trkpt lat="44.84066466227819" lon="9.331532877879152"><ele>586.0</ele><time>2026-04-23T13:38:56Z</time></trkpt><trkpt lat="44.840754934178285" lon="9.331636397505683"><ele>586.0</ele><time>2026-04-23T13:38:57Z</time></trkpt><trkpt lat="44.84084409488004" lon="9.331751192986314"><ele>586.0</ele><time>2026-04-23T13:38:58Z</time></trkpt><trkpt lat="44.840930207029345" lon="9.33187559957207"><ele>586.0</ele><time>2026-04-23T13:38:59Z</time></trkpt><trkpt lat="44.841018230946986" lon="9.33199031433362"><ele>585.2</ele><time>2026-04-23T13:39:00Z</time></trkpt><trkpt lat="44.84111766789864" lon="9.332073562984574"><ele>584.4000000000001</ele><time>2026-04-23T13:39:01Z</time></trkpt><trkpt lat="44.84122101755425" lon="9.332149468010016"><ele>583.6</ele><time>2026-04-23T13:39:02Z</time></trkpt><trkpt lat="44.8413238293343" lon="9.33219535213716"><ele>582.8000000000001</ele><time>2026-04-23T13:39:03Z</time></trkpt><trkpt lat="44.84142501679485" lon="9.33222037973256"><ele>582.0</ele><time>2026-04-23T13:39:04Z</time></trkpt><trkpt lat="44.84152413599996" lon="9.332214981912953"><ele>582.0</ele><time>2026-04-23T13:39:05Z</time></trkpt><trkpt lat="44.84162421148814" lon="9.332190305603016"><ele>582.0</ele><time>2026-04-23T13:39:06Z</time></trkpt><trkpt lat="44.841729513894066" lon="9.332125925857467"><ele>582.0</ele><time>2026-04-23T13:39:07Z</time></trkpt><trkpt lat="44.84183328368777" lon="9.332016634867493"><ele>582.0</ele><time>2026-04-23T13:39:08Z</time></trkpt><trkpt lat="44.84191575272807" lon="9.331879333588747"><ele>580.75</ele><time>2026-04-23T13:39:09Z</time></trkpt><trkpt lat="44.84198969764341" lon="9.331735442016004"><ele>579.5</ele><time>2026-04-23T13:39:10Z</time></trkpt><trkpt lat="44.842067835921014" lon="9.331629737851921"><ele>578.25</ele><time>2026-04-23T13:39:11Z</time></trkpt><trkpt lat="44.84221199936866" lon="9.331554179745456"><ele>577.0</ele><time>2026-04-23T13:39:12Z</time></trkpt><trkpt lat="44.84236660811213" lon="9.33151939231752"><ele>577.0</ele><time>2026-04-23T13:39:13Z</time></trkpt><trkpt lat="44.84253361349944" lon="9.331527202071262"><ele>577.0</ele><time>2026-04-23T13:39:14Z</time></trkpt><trkpt lat="44.84269423644935" lon="9.331584891458997"><ele>577.0</ele><time>2026-04-23T13:39:15Z</time></trkpt><trkpt lat="44.8428425811536" lon="9.331656514944816"><ele>576.6666666666667</ele><time>2026-04-23T13:39:16Z</time></trkpt><trkpt lat="44.84299170839768" lon="9.331714430801075"><ele>576.3333333333334</ele><time>2026-04-23T13:39:17Z</time></trkpt><trkpt lat="44.843156836592556" lon="9.331758005301001"><ele>576.0</ele><time>2026-04-23T13:39:18Z</time></trkpt><trkpt lat="44.84332804051796" lon="9.331784092099264"><ele>575.3333333333334</ele><time>2026-04-23T13:39:19Z</time></trkpt><trkpt lat="44.843501586738164" lon="9.33178563843762"><ele>574.6666666666667</ele><time>2026-04-23T13:39:20Z</time></trkpt><trkpt lat="44.84367138696265" lon="9.331766910326824"><ele>574.0</ele><time>2026-04-23T13:39:21Z</time></trkpt><trkpt lat="44.84384070641267" lon="9.331736364038436"><ele>574.0</ele><time>2026-04-23T13:39:22Z</time></trkpt><trkpt lat="44.844005381653446" lon="9.331704498921455"><ele>574.0</ele><time>2026-04-23T13:39:23Z</time></trkpt><trkpt lat="44.84416137396838" lon="9.331669146196619"><ele>574.0</ele><time>2026-04-23T13:39:24Z</time></trkpt><trkpt lat="44.84431523428165" lon="9.33163804075443"><ele>572.3333333333334</ele><time>2026-04-23T13:39:25Z</time></trkpt><trkpt lat="44.84446849037219" lon="9.331608087182973"><ele>570.6666666666666</ele><time>2026-04-23T13:39:25.999Z</time></trkpt><trkpt lat="44.84461966664922" lon="9.331578217821706"><ele>569.0</ele><time>2026-04-23T13:39:26.999Z</time></trkpt><trkpt lat="44.844763555318515" lon="9.33155402132992"><ele>569.0</ele><time>2026-04-23T13:39:27.999Z</time></trkpt><trkpt lat="44.84490249703918" lon="9.331534863735008"><ele>569.0</ele><time>2026-04-23T13:39:28.999Z</time></trkpt><trkpt lat="44.84503773231101" lon="9.331490148763816"><ele>569.0</ele><time>2026-04-23T13:39:29.999Z</time></trkpt><trkpt lat="44.84516229343336" lon="9.331411697947805"><ele>569.0</ele><time>2026-04-23T13:39:30.999Z</time></trkpt><trkpt lat="44.84528703529764" lon="9.331311578563662"><ele>569.5</ele><time>2026-04-23T13:39:31.999Z</time></trkpt><trkpt lat="44.84541207408487" lon="9.331221072277826"><ele>570.0</ele><time>2026-04-23T13:39:32.999Z</time></trkpt><trkpt lat="44.845544269694926" lon="9.331167332092448"><ele>570.5</ele><time>2026-04-23T13:39:33.999Z</time></trkpt><trkpt lat="44.845687760842246" lon="9.331154215313674"><ele>571.0</ele><time>2026-04-23T13:39:34.999Z</time></trkpt><trkpt lat="44.84582913739498" lon="9.331154864108289"><ele>570.25</ele><time>2026-04-23T13:39:35.999Z</time></trkpt><trkpt lat="44.8459743135597" lon="9.331167141305066"><ele>569.5</ele><time>2026-04-23T13:39:36.999Z</time></trkpt><trkpt lat="44.84612336577454" lon="9.331193122156115"><ele>568.75</ele><time>2026-04-23T13:39:37.999Z</time></trkpt><trkpt lat="44.84627063253225" lon="9.331180728062742"><ele>568.0</ele><time>2026-04-23T13:39:38.999Z</time></trkpt><trkpt lat="44.84641558661135" lon="9.33115979509308"><ele>568.0</ele><time>2026-04-23T13:39:39.999Z</time></trkpt><trkpt lat="44.84656193980238" lon="9.33114088935673"><ele>568.0</ele><time>2026-04-23T13:39:40.999Z</time></trkpt><trkpt lat="44.84670382541911" lon="9.331157118851673"><ele>568.0</ele><time>2026-04-23T13:39:41.999Z</time></trkpt><trkpt lat="44.84683526653332" lon="9.331238177164991"><ele>568.0</ele><time>2026-04-23T13:39:42.999Z</time></trkpt><trkpt lat="44.84694838931946" lon="9.331357412093912"><ele>567.0</ele><time>2026-04-23T13:39:43.999Z</time></trkpt><trkpt lat="44.847061643738705" lon="9.33148459854233"><ele>566.0</ele><time>2026-04-23T13:39:44.999Z</time></trkpt><trkpt lat="44.847189245505675" lon="9.331566838057665"><ele>565.0</ele><time>2026-04-23T13:39:45.999Z</time></trkpt><trkpt lat="44.84732071141711" lon="9.331620276986133"><ele>564.0</ele><time>2026-04-23T13:39:46.999Z</time></trkpt><trkpt lat="44.84744477564584" lon="9.331675054484586"><ele>564.0</ele><time>2026-04-23T13:39:47.999Z</time></trkpt><trkpt lat="44.847569628192694" lon="9.331738767694242"><ele>564.0</ele><time>2026-04-23T13:39:48.999Z</time></trkpt><trkpt lat="44.84770038147909" lon="9.3317939360198"><ele>564.0</ele><time>2026-04-23T13:39:49.999Z</time></trkpt><trkpt lat="44.847837746728835" lon="9.331832558355316"><ele>564.0</ele><time>2026-04-23T13:39:50.999Z</time></trkpt><trkpt lat="44.847984764771894" lon="9.33184599759986"><ele>563.3333333333334</ele><time>2026-04-23T13:39:51.999Z</time></trkpt><trkpt lat="44.84813144509293" lon="9.331850037781397"><ele>562.6666666666667</ele><time>2026-04-23T13:39:52.999Z</time></trkpt><trkpt lat="44.8482802157378" lon="9.33184865573668"><ele>562.0</ele><time>2026-04-23T13:39:53.999Z</time></trkpt><trkpt lat="44.84843471136157" lon="9.331809352571963"><ele>562.0</ele><time>2026-04-23T13:39:54.999Z</time></trkpt><trkpt lat="44.848585563612495" lon="9.331720346109796"><ele>562.0</ele><time>2026-04-23T13:39:55.999Z</time></trkpt><trkpt lat="44.848733631666555" lon="9.331615663819154"><ele>562.0</ele><time>2026-04-23T13:39:56.999Z</time></trkpt><trkpt lat="44.848885767633945" lon="9.331504879170263"><ele>562.0</ele><time>2026-04-23T13:39:57.999Z</time></trkpt><trkpt lat="44.849041469710784" lon="9.331421802545009"><ele>562.0</ele><time>2026-04-23T13:39:58.999Z</time></trkpt><trkpt lat="44.84919358229709" lon="9.331352236405644"><ele>562.0</ele><time>2026-04-23T13:39:59.999Z</time></trkpt><trkpt lat="44.849340371102045" lon="9.331285609245587"><ele>562.75</ele><time>2026-04-23T13:40:00.999Z</time></trkpt><trkpt lat="44.8494836769601" lon="9.331218312159521"><ele>563.5</ele><time>2026-04-23T13:40:01.999Z</time></trkpt><trkpt lat="44.84962352959816" lon="9.331159290312922"><ele>564.25</ele><time>2026-04-23T13:40:02.999Z</time></trkpt><trkpt lat="44.84976787384198" lon="9.33110854576096"><ele>565.0</ele><time>2026-04-23T13:40:03.999Z</time></trkpt><trkpt lat="44.84990599599106" lon="9.331056197229591"><ele>565.0</ele><time>2026-04-23T13:40:04.999Z</time></trkpt><trkpt lat="44.85004184775286" lon="9.33100997980404"><ele>565.0</ele><time>2026-04-23T13:40:05.999Z</time></trkpt><trkpt lat="44.85017562233121" lon="9.330962930157739"><ele>565.0</ele><time>2026-04-23T13:40:06.999Z</time></trkpt><trkpt lat="44.85030844100924" lon="9.3309118508769"><ele>565.0</ele><time>2026-04-23T13:40:07.999Z</time></trkpt><trkpt lat="44.85043531367149" lon="9.330859330223968"><ele>564.0</ele><time>2026-04-23T13:40:08.999Z</time></trkpt><trkpt lat="44.85055794066009" lon="9.330812950402498"><ele>563.0</ele><time>2026-04-23T13:40:09.999Z</time></trkpt><trkpt lat="44.85069419623195" lon="9.330771384322569"><ele>562.0</ele><time>2026-04-23T13:40:10.999Z</time></trkpt><trkpt lat="44.8508261949525" lon="9.330727817324377"><ele>561.0</ele><time>2026-04-23T13:40:11.999Z</time></trkpt><trkpt lat="44.85095664366351" lon="9.330688985093358"><ele>559.0</ele><time>2026-04-23T13:40:12.999Z</time></trkpt><trkpt lat="44.85108416240746" lon="9.330663558067059"><ele>557.0</ele><time>2026-04-23T13:40:13.999Z</time></trkpt><trkpt lat="44.85121022364066" lon="9.330644030076028"><ele>555.0</ele><time>2026-04-23T13:40:14.999Z</time></trkpt><trkpt lat="44.851325840890595" lon="9.330628112107538"><ele>553.0</ele><time>2026-04-23T13:40:15.999Z</time></trkpt><trkpt lat="44.851431498200775" lon="9.330610967720936"><ele>553.0</ele><time>2026-04-23T13:40:16.999Z</time></trkpt><trkpt lat="44.85154072165573" lon="9.330591925917027"><ele>553.0</ele><time>2026-04-23T13:40:17.999Z</time></trkpt><trkpt lat="44.851635656192634" lon="9.330538309496468"><ele>553.0</ele><time>2026-04-23T13:40:18.999Z</time></trkpt><trkpt lat="44.851726661873116" lon="9.33043028741287"><ele>553.0</ele><time>2026-04-23T13:40:19.999Z</time></trkpt><trkpt lat="44.85179657051979" lon="9.33027053294256"><ele>554.0</ele><time>2026-04-23T13:40:20.999Z</time></trkpt><trkpt lat="44.85183280418729" lon="9.33008203804572"><ele>555.0</ele><time>2026-04-23T13:40:21.999Z</time></trkpt><trkpt lat="44.85185102689373" lon="9.329904728475102"><ele>556.0</ele><time>2026-04-23T13:40:22.999Z</time></trkpt><trkpt lat="44.85185993982053" lon="9.329742422594801"><ele>557.0</ele><time>2026-04-23T13:40:23.999Z</time></trkpt><trkpt lat="44.851885800876474" lon="9.329600418873975"><ele>557.0</ele><time>2026-04-23T13:40:24.999Z</time></trkpt><trkpt lat="44.85194980613972" lon="9.329463733978393"><ele>557.0</ele><time>2026-04-23T13:40:25.998Z</time></trkpt><trkpt lat="44.852039712287755" lon="9.329344705449154"><ele>557.0</ele><time>2026-04-23T13:40:26.998Z</time></trkpt><trkpt lat="44.85215349948898" lon="9.329260858382987"><ele>557.0</ele><time>2026-04-23T13:40:27.998Z</time></trkpt><trkpt lat="44.852299753960786" lon="9.329223330094562"><ele>557.0</ele><time>2026-04-23T13:40:28.998Z</time></trkpt><trkpt lat="44.852455755087725" lon="9.329219169250278"><ele>557.0</ele><time>2026-04-23T13:40:29.998Z</time></trkpt><trkpt lat="44.852614238713535" lon="9.3291939257421"><ele>557.0</ele><time>2026-04-23T13:40:30.998Z</time></trkpt><trkpt lat="44.85278125363795" lon="9.329148543751671"><ele>555.0</ele><time>2026-04-23T13:40:31.998Z</time></trkpt><trkpt lat="44.85294198989736" lon="9.329092670030182"><ele>553.0</ele><time>2026-04-23T13:40:32.998Z</time></trkpt><trkpt lat="44.85309014508635" lon="9.329014155213347"><ele>551.0</ele><time>2026-04-23T13:40:33.998Z</time></trkpt><trkpt lat="44.8532325177482" lon="9.328911808781227"><ele>549.3333333333333</ele><time>2026-04-23T13:40:34.998Z</time></trkpt><trkpt lat="44.853374214617666" lon="9.32878592779822"><ele>547.6666666666666</ele><time>2026-04-23T13:40:35.998Z</time></trkpt><trkpt lat="44.85350821965393" lon="9.328641351443698"><ele>546.0</ele><time>2026-04-23T13:40:36.998Z</time></trkpt><trkpt lat="44.853635799913576" lon="9.328479252635056"><ele>546.0</ele><time>2026-04-23T13:40:37.998Z</time></trkpt><trkpt lat="44.853753551977334" lon="9.328297767913842"><ele>546.0</ele><time>2026-04-23T13:40:38.998Z</time></trkpt><trkpt lat="44.853865775987316" lon="9.32810428094798"><ele>546.0</ele><time>2026-04-23T13:40:39.998Z</time></trkpt><trkpt lat="44.85397987110802" lon="9.327916140313967"><ele>545.0</ele><time>2026-04-23T13:40:40.998Z</time></trkpt><trkpt lat="44.85409598800276" lon="9.32773294712122"><ele>544.0</ele><time>2026-04-23T13:40:41.998Z</time></trkpt><trkpt lat="44.854210258069195" lon="9.327555225373679"><ele>543.0</ele><time>2026-04-23T13:40:42.998Z</time></trkpt><trkpt lat="44.85432221217495" lon="9.32737103046608"><ele>547.6666666666666</ele><time>2026-04-23T13:40:44Z</time></trkpt><trkpt lat="44.85443388040125" lon="9.327197051666612"><ele>552.3333333333333</ele><time>2026-04-23T13:40:45Z</time></trkpt><trkpt lat="44.854558562195486" lon="9.327053551698915"><ele>557.0</ele><time>2026-04-23T13:40:46Z</time></trkpt><trkpt lat="44.85470665124876" lon="9.326971183822181"><ele>557.0</ele><time>2026-04-23T13:40:47Z</time></trkpt><trkpt lat="44.85487355660719" lon="9.326921534597574"><ele>557.0</ele><time>2026-04-23T13:40:48Z</time></trkpt><trkpt lat="44.85503507272801" lon="9.326830234803895"><ele>557.0</ele><time>2026-04-23T13:40:49Z</time></trkpt><trkpt lat="44.85518277706958" lon="9.326728541314381"><ele>552.3333333333333</ele><time>2026-04-23T13:40:50Z</time></trkpt><trkpt lat="44.85533022527715" lon="9.32662476088988"><ele>547.6666666666666</ele><time>2026-04-23T13:40:51Z</time></trkpt><trkpt lat="44.855474434413395" lon="9.326518150084262"><ele>543.0</ele><time>2026-04-23T13:40:52Z</time></trkpt><trkpt lat="44.85561676089872" lon="9.326407408203394"><ele>540.6666666666666</ele><time>2026-04-23T13:40:53Z</time></trkpt><trkpt lat="44.855747746247715" lon="9.326281132812094"><ele>538.3333333333333</ele><time>2026-04-23T13:40:54Z</time></trkpt><trkpt lat="44.85587479958303" lon="9.326142502028054"><ele>536.0</ele><time>2026-04-23T13:40:55Z</time></trkpt><trkpt lat="44.85600068040313" lon="9.326003109061055"><ele>536.0</ele><time>2026-04-23T13:40:56Z</time></trkpt><trkpt lat="44.856122984488195" lon="9.325860290823202"><ele>536.0</ele><time>2026-04-23T13:40:57Z</time></trkpt><trkpt lat="44.856224254078725" lon="9.325696973276125"><ele>536.0</ele><time>2026-04-23T13:40:58Z</time></trkpt><trkpt lat="44.856308975097384" lon="9.325504064399722"><ele>539.3333333333333</ele><time>2026-04-23T13:40:59Z</time></trkpt><trkpt lat="44.856383271648845" lon="9.325297567864908"><ele>542.6666666666666</ele><time>2026-04-23T13:41:00Z</time></trkpt><trkpt lat="44.8564498479598" lon="9.325079442809464"><ele>546.0</ele><time>2026-04-23T13:41:01Z</time></trkpt><trkpt lat="44.856512144189196" lon="9.324870143306471"><ele>548.0</ele><time>2026-04-23T13:41:02Z</time></trkpt><trkpt lat="44.856572753255016" lon="9.324672707535614"><ele>550.0</ele><time>2026-04-23T13:41:03Z</time></trkpt><trkpt lat="44.85663900786182" lon="9.324490833428959"><ele>552.0</ele><time>2026-04-23T13:41:04Z</time></trkpt><trkpt lat="44.856735174954764" lon="9.32436345542782"><ele>554.0</ele><time>2026-04-23T13:41:05Z</time></trkpt><trkpt lat="44.85686751795163" lon="9.32423748847732"><ele>549.6666666666666</ele><time>2026-04-23T13:41:06Z</time></trkpt><trkpt lat="44.856985098351366" lon="9.324095487686417"><ele>545.3333333333334</ele><time>2026-04-23T13:41:07Z</time></trkpt><trkpt lat="44.85708500811815" lon="9.32391744543305"><ele>541.0</ele><time>2026-04-23T13:41:08Z</time></trkpt><trkpt lat="44.857172039074165" lon="9.323729048134451"><ele>541.0</ele><time>2026-04-23T13:41:09Z</time></trkpt><trkpt lat="44.857255968620315" lon="9.323541047303456"><ele>541.0</ele><time>2026-04-23T13:41:10Z</time></trkpt><trkpt lat="44.85733884460395" lon="9.3233526203102"><ele>541.0</ele><time>2026-04-23T13:41:11Z</time></trkpt><trkpt lat="44.8574194581794" lon="9.323166467270404"><ele>543.0</ele><time>2026-04-23T13:41:12Z</time></trkpt><trkpt lat="44.857498673503265" lon="9.322986573759154"><ele>545.0</ele><time>2026-04-23T13:41:13Z</time></trkpt><trkpt lat="44.85758180553082" lon="9.322815158439672"><ele>547.0</ele><time>2026-04-23T13:41:14Z</time></trkpt><trkpt lat="44.85766468934213" lon="9.322647932589204"><ele>549.0</ele><time>2026-04-23T13:41:15Z</time></trkpt><trkpt lat="44.85774099621111" lon="9.32247437315348"><ele>544.75</ele><time>2026-04-23T13:41:16Z</time></trkpt><trkpt lat="44.85782248543715" lon="9.322302205392305"><ele>540.5</ele><time>2026-04-23T13:41:17Z</time></trkpt><trkpt lat="44.85789935374634" lon="9.32213129181979"><ele>536.25</ele><time>2026-04-23T13:41:18Z</time></trkpt><trkpt lat="44.857967313222616" lon="9.32194463534256"><ele>532.0</ele><time>2026-04-23T13:41:19Z</time></trkpt><trkpt lat="44.8580194851707" lon="9.321737479513292"><ele>532.0</ele><time>2026-04-23T13:41:20Z</time></trkpt><trkpt lat="44.85807050740046" lon="9.321528635319732"><ele>532.0</ele><time>2026-04-23T13:41:21Z</time></trkpt><trkpt lat="44.85812267529867" lon="9.321323577849416"><ele>532.0</ele><time>2026-04-23T13:41:22Z</time></trkpt><trkpt lat="44.858175439805606" lon="9.321120665771684"><ele>534.3333333333334</ele><time>2026-04-23T13:41:23Z</time></trkpt><trkpt lat="44.858227436460794" lon="9.320918655965551"><ele>536.6666666666666</ele><time>2026-04-23T13:41:24Z</time></trkpt><trkpt lat="44.85828084966808" lon="9.320717831503591"><ele>539.0</ele><time>2026-04-23T13:41:25Z</time></trkpt><trkpt lat="44.858333271759896" lon="9.320523127323447"><ele>540.0</ele><time>2026-04-23T13:41:26Z</time></trkpt><trkpt lat="44.8583866148928" lon="9.320330323156801"><ele>541.0</ele><time>2026-04-23T13:41:27Z</time></trkpt><trkpt lat="44.85843870607665" lon="9.320132988002625"><ele>542.0</ele><time>2026-04-23T13:41:28Z</time></trkpt><trkpt lat="44.85849201164696" lon="9.319932736800155"><ele>543.0</ele><time>2026-04-23T13:41:28.999Z</time></trkpt><trkpt lat="44.85856719124994" lon="9.319744718371018"><ele>537.0</ele><time>2026-04-23T13:41:29.999Z</time></trkpt><trkpt lat="44.85865648626252" lon="9.319560895663217"><ele>531.0</ele><time>2026-04-23T13:41:30.999Z</time></trkpt><trkpt lat="44.85874659557828" lon="9.319371558918194"><ele>525.0</ele><time>2026-04-23T13:41:31.999Z</time></trkpt><trkpt lat="44.858835958950216" lon="9.319185654614461"><ele>525.0</ele><time>2026-04-23T13:41:32.999Z</time></trkpt><trkpt lat="44.85892080703883" lon="9.319001241541551"><ele>525.0</ele><time>2026-04-23T13:41:33.999Z</time></trkpt><trkpt lat="44.85899593084238" lon="9.31881051789413"><ele>525.0</ele><time>2026-04-23T13:41:34.999Z</time></trkpt><trkpt lat="44.85905632098463" lon="9.318614870855972"><ele>524.0</ele><time>2026-04-23T13:41:35.999Z</time></trkpt><trkpt lat="44.85910565602769" lon="9.318415030491568"><ele>523.0</ele><time>2026-04-23T13:41:36.999Z</time></trkpt><trkpt lat="44.85915405133739" lon="9.318220780543419"><ele>522.0</ele><time>2026-04-23T13:41:37.999Z</time></trkpt><trkpt lat="44.85921690880344" lon="9.318032354753988"><ele>521.0</ele><time>2026-04-23T13:41:38.999Z</time></trkpt><trkpt lat="44.85929056792714" lon="9.317852551245124"><ele>521.0</ele><time>2026-04-23T13:41:39.999Z</time></trkpt><trkpt lat="44.859381739237904" lon="9.317684019724085"><ele>521.0</ele><time>2026-04-23T13:41:40.999Z</time></trkpt><trkpt lat="44.85947493669086" lon="9.317522141192372"><ele>521.0</ele><time>2026-04-23T13:41:41.999Z</time></trkpt><trkpt lat="44.859560849781836" lon="9.317363369120462"><ele>521.0</ele><time>2026-04-23T13:41:42.999Z</time></trkpt><trkpt lat="44.85964176292882" lon="9.31721230217864"><ele>521.25</ele><time>2026-04-23T13:41:43.999Z</time></trkpt><trkpt lat="44.85972183904054" lon="9.317063639584044"><ele>521.5</ele><time>2026-04-23T13:41:44.999Z</time></trkpt><trkpt lat="44.859793265891454" lon="9.31692500610233"><ele>521.75</ele><time>2026-04-23T13:41:45.999Z</time></trkpt><trkpt lat="44.85984910742063" lon="9.316779704694103"><ele>522.0</ele><time>2026-04-23T13:41:46.999Z</time></trkpt><trkpt lat="44.85984999430358" lon="9.316623425106778"><ele>522.0</ele><time>2026-04-23T13:41:47.999Z</time></trkpt><trkpt lat="44.859795269310986" lon="9.316488677079754"><ele>522.0</ele><time>2026-04-23T13:41:48.999Z</time></trkpt><trkpt lat="44.859707667161175" lon="9.316376057673043"><ele>522.0</ele><time>2026-04-23T13:41:49.999Z</time></trkpt><trkpt lat="44.85960450684329" lon="9.316267925568022"><ele>522.0</ele><time>2026-04-23T13:41:50.999Z</time></trkpt><trkpt lat="44.85951645873742" lon="9.316161077566955"><ele>521.4</ele><time>2026-04-23T13:41:51.999Z</time></trkpt><trkpt lat="44.859428535288686" lon="9.316060888972103"><ele>520.8000000000001</ele><time>2026-04-23T13:41:52.999Z</time></trkpt><trkpt lat="44.85935387222416" lon="9.315959304737438"><ele>520.2</ele><time>2026-04-23T13:41:53.999Z</time></trkpt><trkpt lat="44.859315030238605" lon="9.315831392871278"><ele>519.6</ele><time>2026-04-23T13:41:54.999Z</time></trkpt><trkpt lat="44.859322083592005" lon="9.315665974514909"><ele>519.0</ele><time>2026-04-23T13:41:55.999Z</time></trkpt><trkpt lat="44.85935659663558" lon="9.31550347956392"><ele>520.75</ele><time>2026-04-23T13:41:56.999Z</time></trkpt><trkpt lat="44.85941000849336" lon="9.315361304315424"><ele>522.5</ele><time>2026-04-23T13:41:57.999Z</time></trkpt><trkpt lat="44.85947098878989" lon="9.315250759238165"><ele>524.25</ele><time>2026-04-23T13:41:58.999Z</time></trkpt><trkpt lat="44.85958286798831" lon="9.315186938526015"><ele>526.0</ele><time>2026-04-23T13:41:59.999Z</time></trkpt><trkpt lat="44.85971012798877" lon="9.315157772271087"><ele>526.0</ele><time>2026-04-23T13:42:00.999Z</time></trkpt><trkpt lat="44.85984213874363" lon="9.315134927761367"><ele>526.0</ele><time>2026-04-23T13:42:01.999Z</time></trkpt><trkpt lat="44.859976198860636" lon="9.315116081054958"><ele>526.0</ele><time>2026-04-23T13:42:02.999Z</time></trkpt><trkpt lat="44.86010076168962" lon="9.315083627704913"><ele>526.0</ele><time>2026-04-23T13:42:03.999Z</time></trkpt><trkpt lat="44.86023028546393" lon="9.315036800098476"><ele>526.25</ele><time>2026-04-23T13:42:04.999Z</time></trkpt><trkpt lat="44.86035035614476" lon="9.314962864019227"><ele>526.5</ele><time>2026-04-23T13:42:05.999Z</time></trkpt><trkpt lat="44.86045913748483" lon="9.314871187376959"><ele>526.75</ele><time>2026-04-23T13:42:06.999Z</time></trkpt><trkpt lat="44.86055397382545" lon="9.314752349860177"><ele>527.0</ele><time>2026-04-23T13:42:07.999Z</time></trkpt><trkpt lat="44.86064421806247" lon="9.314625231862884"><ele>527.0</ele><time>2026-04-23T13:42:08.999Z</time></trkpt><trkpt lat="44.86073895900525" lon="9.314505680495747"><ele>527.0</ele><time>2026-04-23T13:42:09.999Z</time></trkpt><trkpt lat="44.8608324611748" lon="9.314386210236862"><ele>527.0</ele><time>2026-04-23T13:42:10.999Z</time></trkpt><trkpt lat="44.86093357963646" lon="9.314268180988053"><ele>527.0</ele><time>2026-04-23T13:42:11.999Z</time></trkpt><trkpt lat="44.861040321383534" lon="9.314165695029137"><ele>524.75</ele><time>2026-04-23T13:42:12.999Z</time></trkpt><trkpt lat="44.8611552352775" lon="9.314081264332053"><ele>522.5</ele><time>2026-04-23T13:42:13.999Z</time></trkpt><trkpt lat="44.86129052863177" lon="9.314025610602036"><ele>520.25</ele><time>2026-04-23T13:42:14.999Z</time></trkpt><trkpt lat="44.86142699276064" lon="9.313983209869235"><ele>518.0</ele><time>2026-04-23T13:42:15.999Z</time></trkpt><trkpt lat="44.86155863583732" lon="9.3139214127357"><ele>519.75</ele><time>2026-04-23T13:42:16.999Z</time></trkpt><trkpt lat="44.86166860544884" lon="9.313821732253615"><ele>521.5</ele><time>2026-04-23T13:42:17.999Z</time></trkpt><trkpt lat="44.86175780635946" lon="9.313676613965765"><ele>523.25</ele><time>2026-04-23T13:42:18.999Z</time></trkpt><trkpt lat="44.86182078509896" lon="9.31350832829897"><ele>525.0</ele><time>2026-04-23T13:42:19.999Z</time></trkpt><trkpt lat="44.86185806679594" lon="9.3133227170238"><ele>521.25</ele><time>2026-04-23T13:42:20.999Z</time></trkpt><trkpt lat="44.861893597064714" lon="9.313133187245679"><ele>517.5</ele><time>2026-04-23T13:42:21.999Z</time></trkpt><trkpt lat="44.86193981801504" lon="9.31294769418088"><ele>513.75</ele><time>2026-04-23T13:42:22.999Z</time></trkpt><trkpt lat="44.86199627245849" lon="9.312759971666665"><ele>510.0</ele><time>2026-04-23T13:42:23.999Z</time></trkpt><trkpt lat="44.86204969115722" lon="9.312573587889025"><ele>510.0</ele><time>2026-04-23T13:42:24.999Z</time></trkpt><trkpt lat="44.86209202555739" lon="9.312394856339342"><ele>510.0</ele><time>2026-04-23T13:42:25.999Z</time></trkpt><trkpt lat="44.86213506520246" lon="9.312210249759223"><ele>510.0</ele><time>2026-04-23T13:42:26.999Z</time></trkpt><trkpt lat="44.86218687007052" lon="9.312015181833102"><ele>510.0</ele><time>2026-04-23T13:42:27.998Z</time></trkpt><trkpt lat="44.862242023403226" lon="9.311821516575751"><ele>511.5</ele><time>2026-04-23T13:42:28.998Z</time></trkpt><trkpt lat="44.86229026300115" lon="9.311639744738155"><ele>513.0</ele><time>2026-04-23T13:42:29.998Z</time></trkpt><trkpt lat="44.86233499948024" lon="9.311471561854628"><ele>514.5</ele><time>2026-04-23T13:42:30.998Z</time></trkpt><trkpt lat="44.86236707594822" lon="9.311314083873395"><ele>516.0</ele><time>2026-04-23T13:42:31.998Z</time></trkpt><trkpt lat="44.862372606896194" lon="9.31113396194553"><ele>516.0</ele><time>2026-04-23T13:42:32.998Z</time></trkpt><trkpt lat="44.86233445564586" lon="9.310945088725225"><ele>516.0</ele><time>2026-04-23T13:42:33.998Z</time></trkpt><trkpt lat="44.86228142405398" lon="9.310760532206228"><ele>516.0</ele><time>2026-04-23T13:42:34.998Z</time></trkpt><trkpt lat="44.86225412349891" lon="9.3105670018023"><ele>516.0</ele><time>2026-04-23T13:42:35.998Z</time></trkpt><trkpt lat="44.8622827783336" lon="9.310390792719014"><ele>517.3333333333334</ele><time>2026-04-23T13:42:36.998Z</time></trkpt><trkpt lat="44.86232358554164" lon="9.3101824203078"><ele>518.6666666666667</ele><time>2026-04-23T13:42:37.998Z</time></trkpt><trkpt lat="44.86237878227793" lon="9.309986558696613"><ele>520.0</ele><time>2026-04-23T13:42:38.998Z</time></trkpt><trkpt lat="44.862427555566214" lon="9.30978108936507"><ele>521.0</ele><time>2026-04-23T13:42:39.998Z</time></trkpt><trkpt lat="44.86247085271945" lon="9.309578693057803"><ele>522.0</ele><time>2026-04-23T13:42:40.998Z</time></trkpt><trkpt lat="44.86252078265286" lon="9.309379576221913"><ele>523.0</ele><time>2026-04-23T13:42:41.998Z</time></trkpt><trkpt lat="44.862580920316574" lon="9.30918642523136"><ele>524.0</ele><time>2026-04-23T13:42:42.998Z</time></trkpt><trkpt lat="44.86266335678307" lon="9.309018501413686"><ele>520.0</ele><time>2026-04-23T13:42:43.998Z</time></trkpt><trkpt lat="44.862773512796466" lon="9.308893788860445"><ele>516.0</ele><time>2026-04-23T13:42:44.998Z</time></trkpt><trkpt lat="44.86288559049827" lon="9.308787206763885"><ele>512.0</ele><time>2026-04-23T13:42:45.998Z</time></trkpt><trkpt lat="44.86297192807776" lon="9.308677135705455"><ele>508.0</ele><time>2026-04-23T13:42:46.998Z</time></trkpt><trkpt lat="44.86302512896094" lon="9.308533783058122"><ele>508.0</ele><time>2026-04-23T13:42:47.998Z</time></trkpt><trkpt lat="44.86302784100058" lon="9.308369582948409"><ele>508.0</ele><time>2026-04-23T13:42:48.998Z</time></trkpt><trkpt lat="44.86298229456653" lon="9.308210921158361"><ele>508.0</ele><time>2026-04-23T13:42:50Z</time></trkpt><trkpt lat="44.86290510909891" lon="9.308071214985787"><ele>508.0</ele><time>2026-04-23T13:42:51Z</time></trkpt><trkpt lat="44.86282250842" lon="9.307937940203804"><ele>506.5</ele><time>2026-04-23T13:42:52Z</time></trkpt><trkpt lat="44.86274642139396" lon="9.307803038618653"><ele>505.0</ele><time>2026-04-23T13:42:53Z</time></trkpt><trkpt lat="44.862665554190315" lon="9.307675273595095"><ele>503.5</ele><time>2026-04-23T13:42:54Z</time></trkpt><trkpt lat="44.86258807367488" lon="9.307547267175254"><ele>502.0</ele><time>2026-04-23T13:42:55Z</time></trkpt><trkpt lat="44.86253855196645" lon="9.307401884609172"><ele>502.25</ele><time>2026-04-23T13:42:56Z</time></trkpt><trkpt lat="44.86253071879133" lon="9.307225415289361"><ele>502.5</ele><time>2026-04-23T13:42:57Z</time></trkpt><trkpt lat="44.86256687213245" lon="9.307047599763129"><ele>502.75</ele><time>2026-04-23T13:42:58Z</time></trkpt><trkpt lat="44.86263469465628" lon="9.306882735002487"><ele>503.0</ele><time>2026-04-23T13:42:59Z</time></trkpt><trkpt lat="44.86266058527799" lon="9.306714277177518"><ele>503.0</ele><time>2026-04-23T13:43:00Z</time></trkpt><trkpt lat="44.86262133411967" lon="9.30654826465087"><ele>503.0</ele><time>2026-04-23T13:43:01Z</time></trkpt><trkpt lat="44.8625534881111" lon="9.306386502128223"><ele>503.0</ele><time>2026-04-23T13:43:02Z</time></trkpt><trkpt lat="44.862492971433895" lon="9.306220312283036"><ele>503.0</ele><time>2026-04-23T13:43:03Z</time></trkpt><trkpt lat="44.86244519060938" lon="9.306057099266114"><ele>508.5</ele><time>2026-04-23T13:43:04Z</time></trkpt><trkpt lat="44.86242993235302" lon="9.305903057643464"><ele>514.0</ele><time>2026-04-23T13:43:05Z</time></trkpt><trkpt lat="44.86244942396346" lon="9.305752345979414"><ele>519.5</ele><time>2026-04-23T13:43:06Z</time></trkpt><trkpt lat="44.86249302309497" lon="9.305569694694348"><ele>525.0</ele><time>2026-04-23T13:43:07Z</time></trkpt><trkpt lat="44.86258210502874" lon="9.305405917662684"><ele>518.6666666666666</ele><time>2026-04-23T13:43:08Z</time></trkpt><trkpt lat="44.8626549307866" lon="9.305215015391243"><ele>512.3333333333333</ele><time>2026-04-23T13:43:09Z</time></trkpt><trkpt lat="44.862716650886725" lon="9.304986100064307"><ele>506.0</ele><time>2026-04-23T13:43:10Z</time></trkpt><trkpt lat="44.862784292201596" lon="9.304729264712456"><ele>506.0</ele><time>2026-04-23T13:43:11Z</time></trkpt><trkpt lat="44.86284061818214" lon="9.304461190743744"><ele>506.0</ele><time>2026-04-23T13:43:12Z</time></trkpt><trkpt lat="44.86287507586136" lon="9.304172206026202"><ele>506.0</ele><time>2026-04-23T13:43:13Z</time></trkpt><trkpt lat="44.86286762563929" lon="9.30386439140912"><ele>505.66666666666663</ele><time>2026-04-23T13:43:14Z</time></trkpt><trkpt lat="44.8628691675813" lon="9.303602966869626"><ele>505.33333333333337</ele><time>2026-04-23T13:43:15Z</time></trkpt><trkpt lat="44.86286531273032" lon="9.303370488274954"><ele>505.0</ele><time>2026-04-23T13:43:16Z</time></trkpt><trkpt lat="44.8628512079818" lon="9.303142069351548"><ele>505.33333333333337</ele><time>2026-04-23T13:43:17Z</time></trkpt><trkpt lat="44.8627944990276" lon="9.302926992990047"><ele>505.66666666666663</ele><time>2026-04-23T13:43:18Z</time></trkpt><trkpt lat="44.86273394102666" lon="9.302725176894956"><ele>506.0</ele><time>2026-04-23T13:43:19Z</time></trkpt><trkpt lat="44.86272900988944" lon="9.302520926477454"><ele>506.0</ele><time>2026-04-23T13:43:20Z</time></trkpt><trkpt lat="44.86273631185224" lon="9.302291345009802"><ele>506.0</ele><time>2026-04-23T13:43:21Z</time></trkpt><trkpt lat="44.86279446431884" lon="9.302060811783416"><ele>506.0</ele><time>2026-04-23T13:43:22Z</time></trkpt><trkpt lat="44.86286877682342" lon="9.301845617895763"><ele>507.0</ele><time>2026-04-23T13:43:23Z</time></trkpt><trkpt lat="44.862954612334114" lon="9.30165026871703"><ele>508.0</ele><time>2026-04-23T13:43:24Z</time></trkpt><trkpt lat="44.86308851555923" lon="9.301487330085543"><ele>509.0</ele><time>2026-04-23T13:43:25Z</time></trkpt><trkpt lat="44.863226950155195" lon="9.301323886384276"><ele>513.6666666666666</ele><time>2026-04-23T13:43:26Z</time></trkpt><trkpt lat="44.8633376240159" lon="9.301154646839867"><ele>518.3333333333334</ele><time>2026-04-23T13:43:27Z</time></trkpt><trkpt lat="44.86343184384511" lon="9.300962212898167"><ele>523.0</ele><time>2026-04-23T13:43:28Z</time></trkpt><trkpt lat="44.86349152642703" lon="9.300737461311167"><ele>513.6666666666667</ele><time>2026-04-23T13:43:29Z</time></trkpt><trkpt lat="44.86352925413505" lon="9.300482652064945"><ele>504.33333333333337</ele><time>2026-04-23T13:43:30Z</time></trkpt><trkpt lat="44.86357438484781" lon="9.300238846419791"><ele>495.0</ele><time>2026-04-23T13:43:31Z</time></trkpt><trkpt lat="44.86364450708262" lon="9.300025232929817"><ele>495.0</ele><time>2026-04-23T13:43:32Z</time></trkpt><trkpt lat="44.8637385748526" lon="9.299839762183995"><ele>495.0</ele><time>2026-04-23T13:43:33Z</time></trkpt><trkpt lat="44.86380210971779" lon="9.299651296234519"><ele>495.0</ele><time>2026-04-23T13:43:34Z</time></trkpt><trkpt lat="44.86381681839118" lon="9.299462740498331"><ele>495.0</ele><time>2026-04-23T13:43:35Z</time></trkpt><trkpt lat="44.86379011500584" lon="9.299268652326642"><ele>494.0</ele><time>2026-04-23T13:43:36Z</time></trkpt><trkpt lat="44.86372964264952" lon="9.299060210103422"><ele>493.0</ele><time>2026-04-23T13:43:36.999Z</time></trkpt><trkpt lat="44.8636662498475" lon="9.298848512472254"><ele>492.0</ele><time>2026-04-23T13:43:37.999Z</time></trkpt><trkpt lat="44.863616812436405" lon="9.298619565142939"><ele>490.0</ele><time>2026-04-23T13:43:38.999Z</time></trkpt><trkpt lat="44.86357664176519" lon="9.298396851493546"><ele>488.0</ele><time>2026-04-23T13:43:39.999Z</time></trkpt><trkpt lat="44.863552080316985" lon="9.29817783369567"><ele>486.0</ele><time>2026-04-23T13:43:40.999Z</time></trkpt><trkpt lat="44.863564241093165" lon="9.297950692146646"><ele>486.0</ele><time>2026-04-23T13:43:41.999Z</time></trkpt><trkpt lat="44.86359028441535" lon="9.29771949256849"><ele>486.0</ele><time>2026-04-23T13:43:42.999Z</time></trkpt><trkpt lat="44.86365133434525" lon="9.297488247337043"><ele>486.0</ele><time>2026-04-23T13:43:43.999Z</time></trkpt><trkpt lat="44.86371551834871" lon="9.297270615811172"><ele>487.0</ele><time>2026-04-23T13:43:44.999Z</time></trkpt><trkpt lat="44.86378696938933" lon="9.297044974488765"><ele>488.0</ele><time>2026-04-23T13:43:45.999Z</time></trkpt><trkpt lat="44.86385192016604" lon="9.296822308520476"><ele>489.0</ele><time>2026-04-23T13:43:46.999Z</time></trkpt><trkpt lat="44.86391182368076" lon="9.296591855800202"><ele>490.75</ele><time>2026-04-23T13:43:47.999Z</time></trkpt><trkpt lat="44.863955153677075" lon="9.296372574428982"><ele>492.5</ele><time>2026-04-23T13:43:48.999Z</time></trkpt><trkpt lat="44.86399248852215" lon="9.29617164547297"><ele>494.25</ele><time>2026-04-23T13:43:49.999Z</time></trkpt><trkpt lat="44.86401163787898" lon="9.295976201393042"><ele>496.0</ele><time>2026-04-23T13:43:50.999Z</time></trkpt><trkpt lat="44.864065130573955" lon="9.29579120240611"><ele>496.0</ele><time>2026-04-23T13:43:51.999Z</time></trkpt><trkpt lat="44.86416810738115" lon="9.295635410719258"><ele>496.0</ele><time>2026-04-23T13:43:52.999Z</time></trkpt><trkpt lat="44.864288070184266" lon="9.29550943327424"><ele>496.0</ele><time>2026-04-23T13:43:53.999Z</time></trkpt><trkpt lat="44.86440447159485" lon="9.295390972901643"><ele>496.0</ele><time>2026-04-23T13:43:54.999Z</time></trkpt><trkpt lat="44.86448751659413" lon="9.295271713452724"><ele>489.75</ele><time>2026-04-23T13:43:55.999Z</time></trkpt><trkpt lat="44.86454143109779" lon="9.29513782830003"><ele>483.5</ele><time>2026-04-23T13:43:56.999Z</time></trkpt><trkpt lat="44.86454164241661" lon="9.294985069389279"><ele>477.25</ele><time>2026-04-23T13:43:57.999Z</time></trkpt><trkpt lat="44.86451818550429" lon="9.294817304348038"><ele>471.0</ele><time>2026-04-23T13:43:58.999Z</time></trkpt><trkpt lat="44.864499896056074" lon="9.294621535273345"><ele>471.0</ele><time>2026-04-23T13:43:59.999Z</time></trkpt><trkpt lat="44.86451044140764" lon="9.294428059505606"><ele>471.0</ele><time>2026-04-23T13:44:00.999Z</time></trkpt><trkpt lat="44.864559030697436" lon="9.294243305329953"><ele>471.0</ele><time>2026-04-23T13:44:01.999Z</time></trkpt><trkpt lat="44.86464100729519" lon="9.294090746096222"><ele>471.0</ele><time>2026-04-23T13:44:02.999Z</time></trkpt><trkpt lat="44.86469697383589" lon="9.293944392628113"><ele>470.5</ele><time>2026-04-23T13:44:03.999Z</time></trkpt><trkpt lat="44.864714372155305" lon="9.293757197277118"><ele>470.0</ele><time>2026-04-23T13:44:04.999Z</time></trkpt><trkpt lat="44.8646977291484" lon="9.293547976355226"><ele>469.5</ele><time>2026-04-23T13:44:05.999Z</time></trkpt><trkpt lat="44.86466462932139" lon="9.293329666748368"><ele>469.0</ele><time>2026-04-23T13:44:06.999Z</time></trkpt><trkpt lat="44.8646308897688" lon="9.293118273145376"><ele>469.5</ele><time>2026-04-23T13:44:07.999Z</time></trkpt><trkpt lat="44.864599968436664" lon="9.292916130034763"><ele>470.0</ele><time>2026-04-23T13:44:08.999Z</time></trkpt><trkpt lat="44.864565006101444" lon="9.292727112110015"><ele>470.5</ele><time>2026-04-23T13:44:09.999Z</time></trkpt><trkpt lat="44.86453151683055" lon="9.292552617156273"><ele>471.0</ele><time>2026-04-23T13:44:10.999Z</time></trkpt><trkpt lat="44.86450906425256" lon="9.292387279284698"><ele>472.8</ele><time>2026-04-23T13:44:11.999Z</time></trkpt><trkpt lat="44.864510348063256" lon="9.292225920332237"><ele>474.6</ele><time>2026-04-23T13:44:12.999Z</time></trkpt><trkpt lat="44.86454751468341" lon="9.292086831755158"><ele>476.4</ele><time>2026-04-23T13:44:13.999Z</time></trkpt><trkpt lat="44.86462264804065" lon="9.291986326813118"><ele>478.2</ele><time>2026-04-23T13:44:14.999Z</time></trkpt><trkpt lat="44.86472754568274" lon="9.29193041445335"><ele>480.0</ele><time>2026-04-23T13:44:15.999Z</time></trkpt><trkpt lat="44.86484756765614" lon="9.291935417571024"><ele>480.0</ele><time>2026-04-23T13:44:16.999Z</time></trkpt><trkpt lat="44.864978061528724" lon="9.29200387628232"><ele>480.0</ele><time>2026-04-23T13:44:17.999Z</time></trkpt><trkpt lat="44.86511449920042" lon="9.292075207220828"><ele>480.0</ele><time>2026-04-23T13:44:18.999Z</time></trkpt><trkpt lat="44.865261899744226" lon="9.292129232143571"><ele>480.0</ele><time>2026-04-23T13:44:19.999Z</time></trkpt><trkpt lat="44.86539246858831" lon="9.292179363974038"><ele>479.8</ele><time>2026-04-23T13:44:20.999Z</time></trkpt><trkpt lat="44.8655075698915" lon="9.292231138075506"><ele>479.6</ele><time>2026-04-23T13:44:21.999Z</time></trkpt><trkpt lat="44.86561123027608" lon="9.292247233203828"><ele>479.4</ele><time>2026-04-23T13:44:22.999Z</time></trkpt><trkpt lat="44.865713652084665" lon="9.29221732123918"><ele>479.2</ele><time>2026-04-23T13:44:23.999Z</time></trkpt><trkpt lat="44.86578642041728" lon="9.292141091651288"><ele>479.0</ele><time>2026-04-23T13:44:24.999Z</time></trkpt><trkpt lat="44.86584103370804" lon="9.292037211981398"><ele>479.0</ele><time>2026-04-23T13:44:25.999Z</time></trkpt><trkpt lat="44.86583405617098" lon="9.291877488715876"><ele>479.0</ele><time>2026-04-23T13:44:26.999Z</time></trkpt><trkpt lat="44.865811582910986" lon="9.291720241538101"><ele>479.0</ele><time>2026-04-23T13:44:27.999Z</time></trkpt><trkpt lat="44.86577973627973" lon="9.29155403119195"><ele>479.0</ele><time>2026-04-23T13:44:28.999Z</time></trkpt><trkpt lat="44.86574197310825" lon="9.291379151475962"><ele>480.0</ele><time>2026-04-23T13:44:29.999Z</time></trkpt><trkpt lat="44.86569941193793" lon="9.291195945771491"><ele>481.0</ele><time>2026-04-23T13:44:30.999Z</time></trkpt><trkpt lat="44.86563747537983" lon="9.291018329147775"><ele>482.0</ele><time>2026-04-23T13:44:31.999Z</time></trkpt><trkpt lat="44.86554156943788" lon="9.290883284351114"><ele>483.0</ele><time>2026-04-23T13:44:32.999Z</time></trkpt><trkpt lat="44.86545211440303" lon="9.29078038763237"><ele>483.0</ele><time>2026-04-23T13:44:33.999Z</time></trkpt><trkpt lat="44.86538262483302" lon="9.290691456297692"><ele>482.99999999999994</ele><time>2026-04-23T13:44:34.999Z</time></trkpt><trkpt lat="44.86533965078454" lon="9.290587876180272"><ele>482.99999999999994</ele><time>2026-04-23T13:44:35.998Z</time></trkpt><trkpt lat="44.86537196850424" lon="9.290459261960363"><ele>483.0</ele><time>2026-04-23T13:44:36.998Z</time></trkpt><trkpt lat="44.865438039784586" lon="9.29034200617796"><ele>483.0</ele><time>2026-04-23T13:44:37.998Z</time></trkpt><trkpt lat="44.86554613325823" lon="9.290272712962803"><ele>482.5</ele><time>2026-04-23T13:44:38.998Z</time></trkpt><trkpt lat="44.86567162016158" lon="9.290202569298772"><ele>482.0</ele><time>2026-04-23T13:44:39.998Z</time></trkpt><trkpt lat="44.86579807064185" lon="9.290108073079024"><ele>481.5</ele><time>2026-04-23T13:44:40.998Z</time></trkpt><trkpt lat="44.865902570892864" lon="9.290008966163903"><ele>481.0</ele><time>2026-04-23T13:44:41.998Z</time></trkpt><trkpt lat="44.866031392713396" lon="9.289901666676847"><ele>481.0</ele><time>2026-04-23T13:44:42.998Z</time></trkpt><trkpt lat="44.866178324606956" lon="9.289797014216127"><ele>481.0</ele><time>2026-04-23T13:44:43.998Z</time></trkpt><trkpt lat="44.866331832431335" lon="9.289687596686477"><ele>481.0</ele><time>2026-04-23T13:44:44.998Z</time></trkpt><trkpt lat="44.86648447704025" lon="9.289551914215732"><ele>484.33333333333337</ele><time>2026-04-23T13:44:45.998Z</time></trkpt><trkpt lat="44.86661921760821" lon="9.289368971526455"><ele>487.66666666666663</ele><time>2026-04-23T13:44:46.998Z</time></trkpt><trkpt lat="44.86674008411595" lon="9.289143343979466"><ele>491.0</ele><time>2026-04-23T13:44:47.998Z</time></trkpt><trkpt lat="44.866839456252414" lon="9.288920843360989"><ele>492.0</ele><time>2026-04-23T13:44:48.998Z</time></trkpt><trkpt lat="44.86693301845688" lon="9.288721963046374"><ele>493.0</ele><time>2026-04-23T13:44:49.998Z</time></trkpt><trkpt lat="44.867032453956256" lon="9.2885387369394"><ele>494.0</ele><time>2026-04-23T13:44:50.998Z</time></trkpt><trkpt lat="44.86714182558633" lon="9.288405864078202"><ele>494.0</ele><time>2026-04-23T13:44:51.998Z</time></trkpt><trkpt lat="44.86728393140596" lon="9.288342525323488"><ele>494.0</ele><time>2026-04-23T13:44:52.998Z</time></trkpt><trkpt lat="44.867448541501794" lon="9.288355064889194"><ele>494.0</ele><time>2026-04-23T13:44:53.998Z</time></trkpt><trkpt lat="44.867615543387586" lon="9.28835027389599"><ele>489.5</ele><time>2026-04-23T13:44:54.998Z</time></trkpt><trkpt lat="44.86776442988453" lon="9.288328872349652"><ele>485.0</ele><time>2026-04-23T13:44:56Z</time></trkpt><trkpt lat="44.867914430207186" lon="9.288312724466662"><ele>480.5</ele><time>2026-04-23T13:44:57Z</time></trkpt><trkpt lat="44.868039474449816" lon="9.288305000908707"><ele>476.0</ele><time>2026-04-23T13:44:58Z</time></trkpt><trkpt lat="44.868152320690946" lon="9.288271876038582"><ele>476.0</ele><time>2026-04-23T13:44:59Z</time></trkpt><trkpt lat="44.8682422819533" lon="9.28817443575803"><ele>476.0</ele><time>2026-04-23T13:45:00Z</time></trkpt><trkpt lat="44.86831456229489" lon="9.288011183014476"><ele>476.0</ele><time>2026-04-23T13:45:01Z</time></trkpt><trkpt lat="44.86837178528202" lon="9.287847956309152"><ele>476.0</ele><time>2026-04-23T13:45:02Z</time></trkpt><trkpt lat="44.86840911739522" lon="9.287694698365954"><ele>478.20000000000005</ele><time>2026-04-23T13:45:03Z</time></trkpt><trkpt lat="44.868417114763716" lon="9.287554470371418"><ele>480.40000000000003</ele><time>2026-04-23T13:45:04Z</time></trkpt><trkpt lat="44.86837054685234" lon="9.28741922984297"><ele>482.6</ele><time>2026-04-23T13:45:05Z</time></trkpt><trkpt lat="44.868292462084305" lon="9.287306388327242"><ele>484.8</ele><time>2026-04-23T13:45:06Z</time></trkpt><trkpt lat="44.86819735715897" lon="9.28725012143568"><ele>487.0</ele><time>2026-04-23T13:45:07Z</time></trkpt><trkpt lat="44.86814754705898" lon="9.287122797022514"><ele>487.0</ele><time>2026-04-23T13:45:08Z</time></trkpt><trkpt lat="44.86811266002145" lon="9.286978221616904"><ele>487.0</ele><time>2026-04-23T13:45:09Z</time></trkpt><trkpt lat="44.86813240213405" lon="9.286798371363599"><ele>487.0</ele><time>2026-04-23T13:45:10Z</time></trkpt><trkpt lat="44.86819214965453" lon="9.286633486909018"><ele>487.0</ele><time>2026-04-23T13:45:11Z</time></trkpt><trkpt lat="44.86828148029617" lon="9.286463060016457"><ele>489.0</ele><time>2026-04-23T13:45:12Z</time></trkpt><trkpt lat="44.868337614451754" lon="9.286275673911815"><ele>491.0</ele><time>2026-04-23T13:45:13Z</time></trkpt><trkpt lat="44.86836558343493" lon="9.286067775815646"><ele>493.0</ele><time>2026-04-23T13:45:14Z</time></trkpt><trkpt lat="44.868395075726646" lon="9.285882045084133"><ele>495.0</ele><time>2026-04-23T13:45:15Z</time></trkpt><trkpt lat="44.86848339410036" lon="9.285719764814477"><ele>489.75</ele><time>2026-04-23T13:45:16Z</time></trkpt><trkpt lat="44.86861258644718" lon="9.285617593942971"><ele>484.5</ele><time>2026-04-23T13:45:17Z</time></trkpt><trkpt lat="44.868748620429855" lon="9.285526029289567"><ele>479.25</ele><time>2026-04-23T13:45:18Z</time></trkpt><trkpt lat="44.86886811452608" lon="9.285418243016048"><ele>474.0</ele><time>2026-04-23T13:45:19Z</time></trkpt><trkpt lat="44.86895988169563" lon="9.285297258733376"><ele>474.0</ele><time>2026-04-23T13:45:20Z</time></trkpt><trkpt lat="44.86903150474435" lon="9.285157165898669"><ele>474.0</ele><time>2026-04-23T13:45:21Z</time></trkpt><trkpt lat="44.86906119313079" lon="9.284993579134095"><ele>474.0</ele><time>2026-04-23T13:45:22Z</time></trkpt><trkpt lat="44.86904401419248" lon="9.284834631751298"><ele>474.0</ele><time>2026-04-23T13:45:23Z</time></trkpt><trkpt lat="44.86898596958861" lon="9.284673333667103"><ele>473.25</ele><time>2026-04-23T13:45:24Z</time></trkpt><trkpt lat="44.86891302463154" lon="9.284517324196553"><ele>472.5</ele><time>2026-04-23T13:45:25Z</time></trkpt><trkpt lat="44.86883828018576" lon="9.28436583410609"><ele>471.75</ele><time>2026-04-23T13:45:26Z</time></trkpt><trkpt lat="44.86877212659034" lon="9.284206518290912"><ele>471.0</ele><time>2026-04-23T13:45:27Z</time></trkpt><trkpt lat="44.86871647820183" lon="9.28403572555549"><ele>469.5</ele><time>2026-04-23T13:45:28Z</time></trkpt><trkpt lat="44.868684102505675" lon="9.283849618013072"><ele>468.0</ele><time>2026-04-23T13:45:29Z</time></trkpt><trkpt lat="44.86868692536129" lon="9.283665162332275"><ele>466.5</ele><time>2026-04-23T13:45:30Z</time></trkpt><trkpt lat="44.868706745390746" lon="9.283465834660973"><ele>465.0</ele><time>2026-04-23T13:45:31Z</time></trkpt><trkpt lat="44.86874716057826" lon="9.283259601918173"><ele>465.33333333333337</ele><time>2026-04-23T13:45:32Z</time></trkpt><trkpt lat="44.86878547146366" lon="9.283045052020546"><ele>465.6666666666667</ele><time>2026-04-23T13:45:33Z</time></trkpt><trkpt lat="44.86881656833596" lon="9.282822847904415"><ele>466.0</ele><time>2026-04-23T13:45:34Z</time></trkpt><trkpt lat="44.86884320246958" lon="9.28260626326658"><ele>466.0</ele><time>2026-04-23T13:45:35Z</time></trkpt><trkpt lat="44.86887481792591" lon="9.282393898153899"><ele>466.0</ele><time>2026-04-23T13:45:36Z</time></trkpt><trkpt lat="44.86890796072227" lon="9.28218299199532"><ele>466.0</ele><time>2026-04-23T13:45:37Z</time></trkpt><trkpt lat="44.86893450436332" lon="9.281971471925637"><ele>467.33333333333337</ele><time>2026-04-23T13:45:38Z</time></trkpt><trkpt lat="44.868968154336535" lon="9.281763374594624"><ele>468.66666666666663</ele><time>2026-04-23T13:45:38.999Z</time></trkpt><trkpt lat="44.86903976743352" lon="9.281573703768684"><ele>470.0</ele><time>2026-04-23T13:45:39.999Z</time></trkpt><trkpt lat="44.86915214407364" lon="9.281412389521158"><ele>472.0</ele><time>2026-04-23T13:45:40.999Z</time></trkpt><trkpt lat="44.869241249634086" lon="9.281199145574906"><ele>474.0</ele><time>2026-04-23T13:45:41.999Z</time></trkpt><trkpt lat="44.869324298872236" lon="9.280986651896411"><ele>476.0</ele><time>2026-04-23T13:45:42.999Z</time></trkpt><trkpt lat="44.86939827664837" lon="9.280781872946948"><ele>473.25</ele><time>2026-04-23T13:45:43.999Z</time></trkpt><trkpt lat="44.869467783801376" lon="9.280589932949338"><ele>470.5</ele><time>2026-04-23T13:45:44.999Z</time></trkpt><trkpt lat="44.869568931631285" lon="9.28044356143829"><ele>467.75</ele><time>2026-04-23T13:45:45.999Z</time></trkpt><trkpt lat="44.86969476062935" lon="9.280339951453891"><ele>465.0</ele><time>2026-04-23T13:45:46.999Z</time></trkpt><trkpt lat="44.86981152563128" lon="9.280243583681859"><ele>465.0</ele><time>2026-04-23T13:45:47.999Z</time></trkpt><trkpt lat="44.86992129088795" lon="9.280135236937548"><ele>465.0</ele><time>2026-04-23T13:45:48.999Z</time></trkpt><trkpt lat="44.870012567861295" lon="9.280027858019036"><ele>465.0</ele><time>2026-04-23T13:45:49.999Z</time></trkpt><trkpt lat="44.87009152850871" lon="9.279882280059724"><ele>465.0</ele><time>2026-04-23T13:45:50.999Z</time></trkpt><trkpt lat="44.87013974528147" lon="9.27969614166698"><ele>461.33333333333337</ele><time>2026-04-23T13:45:51.999Z</time></trkpt><trkpt lat="44.87016490148974" lon="9.279480886280426"><ele>457.6666666666667</ele><time>2026-04-23T13:45:52.999Z</time></trkpt><trkpt lat="44.87016099977229" lon="9.279260448973012"><ele>454.0</ele><time>2026-04-23T13:45:53.999Z</time></trkpt><trkpt lat="44.87014393341126" lon="9.279054761191327"><ele>454.5</ele><time>2026-04-23T13:45:54.999Z</time></trkpt><trkpt lat="44.87013218571223" lon="9.27887077290437"><ele>455.0</ele><time>2026-04-23T13:45:55.999Z</time></trkpt><trkpt lat="44.870153735863845" lon="9.278707062076725"><ele>455.5</ele><time>2026-04-23T13:45:56.999Z</time></trkpt><trkpt lat="44.87021714321946" lon="9.278580721248124"><ele>456.0</ele><time>2026-04-23T13:45:57.999Z</time></trkpt><trkpt lat="44.87030200938977" lon="9.278447956858797"><ele>456.0</ele><time>2026-04-23T13:45:58.999Z</time></trkpt><trkpt lat="44.87037486946567" lon="9.278317427886927"><ele>456.0</ele><time>2026-04-23T13:45:59.999Z</time></trkpt><trkpt lat="44.87044660753619" lon="9.278205768669025"><ele>456.0</ele><time>2026-04-23T13:46:00.999Z</time></trkpt><trkpt lat="44.87054207649918" lon="9.278139088753745"><ele>456.0</ele><time>2026-04-23T13:46:01.999Z</time></trkpt><trkpt lat="44.8706342684529" lon="9.27806686976091"><ele>456.0</ele><time>2026-04-23T13:46:02.999Z</time></trkpt><trkpt lat="44.87068958929254" lon="9.277915716278741"><ele>456.25</ele><time>2026-04-23T13:46:03.999Z</time></trkpt><trkpt lat="44.8707146727162" lon="9.277718454996293"><ele>456.5</ele><time>2026-04-23T13:46:04.999Z</time></trkpt><trkpt lat="44.870738958187076" lon="9.277517903906912"><ele>456.75</ele><time>2026-04-23T13:46:05.999Z</time></trkpt><trkpt lat="44.870761092272076" lon="9.277315420151739"><ele>457.0</ele><time>2026-04-23T13:46:06.999Z</time></trkpt><trkpt lat="44.87076641655159" lon="9.277114413554294"><ele>457.0</ele><time>2026-04-23T13:46:07.999Z</time></trkpt><trkpt lat="44.87076113121459" lon="9.27691794531565"><ele>457.0</ele><time>2026-04-23T13:46:08.999Z</time></trkpt><trkpt lat="44.87076127524775" lon="9.276730157094022"><ele>457.0</ele><time>2026-04-23T13:46:09.999Z</time></trkpt><trkpt lat="44.870772319064216" lon="9.276554296309612"><ele>457.0</ele><time>2026-04-23T13:46:10.999Z</time></trkpt><trkpt lat="44.87081180376172" lon="9.276377748381842"><ele>458.0</ele><time>2026-04-23T13:46:11.999Z</time></trkpt><trkpt lat="44.87088642999662" lon="9.276204472221051"><ele>459.0</ele><time>2026-04-23T13:46:12.999Z</time></trkpt><trkpt lat="44.870984124150944" lon="9.276045783233121"><ele>460.0</ele><time>2026-04-23T13:46:13.999Z</time></trkpt><trkpt lat="44.87109329586869" lon="9.275902628786943"><ele>461.0</ele><time>2026-04-23T13:46:14.999Z</time></trkpt><trkpt lat="44.871202948406875" lon="9.275770354485402"><ele>459.0</ele><time>2026-04-23T13:46:15.999Z</time></trkpt><trkpt lat="44.871320721129585" lon="9.27564665428683"><ele>457.0</ele><time>2026-04-23T13:46:16.999Z</time></trkpt><trkpt lat="44.87143416581138" lon="9.275524623654002"><ele>455.0</ele><time>2026-04-23T13:46:17.999Z</time></trkpt><trkpt lat="44.871547134797574" lon="9.275398471288119"><ele>453.0</ele><time>2026-04-23T13:46:18.999Z</time></trkpt><trkpt lat="44.87165749799283" lon="9.275273571570056"><ele>453.0</ele><time>2026-04-23T13:46:19.999Z</time></trkpt><trkpt lat="44.871769390269755" lon="9.275153085836482"><ele>453.0</ele><time>2026-04-23T13:46:20.999Z</time></trkpt><trkpt lat="44.871877236182854" lon="9.275036949190044"><ele>453.0</ele><time>2026-04-23T13:46:21.999Z</time></trkpt><trkpt lat="44.871977409801126" lon="9.27491793057073"><ele>453.0</ele><time>2026-04-23T13:46:22.999Z</time></trkpt><trkpt lat="44.87205663020188" lon="9.274778607440467"><ele>449.75</ele><time>2026-04-23T13:46:23.999Z</time></trkpt><trkpt lat="44.87211468101627" lon="9.274618538797862"><ele>446.5</ele><time>2026-04-23T13:46:24.999Z</time></trkpt><trkpt lat="44.87216064325115" lon="9.274445175269914"><ele>443.25</ele><time>2026-04-23T13:46:25.999Z</time></trkpt><trkpt lat="44.87219883982359" lon="9.274266985301262"><ele>440.0</ele><time>2026-04-23T13:46:26.999Z</time></trkpt><trkpt lat="44.87223376033033" lon="9.27409459126551"><ele>442.0</ele><time>2026-04-23T13:46:27.999Z</time></trkpt><trkpt lat="44.87227076896538" lon="9.273924192231052"><ele>444.0</ele><time>2026-04-23T13:46:28.999Z</time></trkpt><trkpt lat="44.8723274772279" lon="9.27377157334081"><ele>446.0</ele><time>2026-04-23T13:46:29.999Z</time></trkpt><trkpt lat="44.872423575322344" lon="9.273649103834387"><ele>448.0</ele><time>2026-04-23T13:46:30.999Z</time></trkpt><trkpt lat="44.87254544073644" lon="9.273546202507239"><ele>446.5</ele><time>2026-04-23T13:46:31.999Z</time></trkpt><trkpt lat="44.87266932451888" lon="9.273445956083286"><ele>445.0</ele><time>2026-04-23T13:46:32.999Z</time></trkpt><trkpt lat="44.87278130982644" lon="9.27332898266552"><ele>443.5</ele><time>2026-04-23T13:46:33.999Z</time></trkpt><trkpt lat="44.872888009298904" lon="9.273199918878436"><ele>442.0</ele><time>2026-04-23T13:46:34.999Z</time></trkpt><trkpt lat="44.873002666613125" lon="9.273084974462472"><ele>442.0</ele><time>2026-04-23T13:46:35.999Z</time></trkpt><trkpt lat="44.873121397185734" lon="9.272984673568017"><ele>442.0</ele><time>2026-04-23T13:46:36.998Z</time></trkpt><trkpt lat="44.873248991238405" lon="9.272904489727683"><ele>442.0</ele><time>2026-04-23T13:46:37.998Z</time></trkpt><trkpt lat="44.873397299675965" lon="9.272864575120884"><ele>442.0</ele><time>2026-04-23T13:46:38.998Z</time></trkpt><trkpt lat="44.873567581344" lon="9.272854868663554"><ele>438.6666666666667</ele><time>2026-04-23T13:46:39.998Z</time></trkpt><trkpt lat="44.87373811615743" lon="9.272810908473026"><ele>435.33333333333337</ele><time>2026-04-23T13:46:40.998Z</time></trkpt><trkpt lat="44.873899030125735" lon="9.272733152201226"><ele>432.0</ele><time>2026-04-23T13:46:41.998Z</time></trkpt><trkpt lat="44.87405277637024" lon="9.27265186876967"><ele>432.0</ele><time>2026-04-23T13:46:42.998Z</time></trkpt><trkpt lat="44.87419624749806" lon="9.272590546779988"><ele>432.0</ele><time>2026-04-23T13:46:43.998Z</time></trkpt><trkpt lat="44.874328250409086" lon="9.272538831371774"><ele>432.0</ele><time>2026-04-23T13:46:44.998Z</time></trkpt><trkpt lat="44.87444498081974" lon="9.272472667156432"><ele>432.0</ele><time>2026-04-23T13:46:45.998Z</time></trkpt><trkpt lat="44.87453905999297" lon="9.272374408682456"><ele>428.5</ele><time>2026-04-23T13:46:46.998Z</time></trkpt><trkpt lat="44.874605389564046" lon="9.272249874185079"><ele>425.0</ele><time>2026-04-23T13:46:47.998Z</time></trkpt><trkpt lat="44.87463361545808" lon="9.272089133171848"><ele>421.5</ele><time>2026-04-23T13:46:48.998Z</time></trkpt><trkpt lat="44.87464641955477" lon="9.271908636219196"><ele>418.0</ele><time>2026-04-23T13:46:49.998Z</time></trkpt><trkpt lat="44.874667873085095" lon="9.271728060777937"><ele>418.0</ele><time>2026-04-23T13:46:50.998Z</time></trkpt><trkpt lat="44.874717089600125" lon="9.271567137010157"><ele>418.0</ele><time>2026-04-23T13:46:51.998Z</time></trkpt><trkpt lat="44.874797598606996" lon="9.271429243968942"><ele>418.0</ele><time>2026-04-23T13:46:52.998Z</time></trkpt><trkpt lat="44.87492976041259" lon="9.271352255769058"><ele>418.0</ele><time>2026-04-23T13:46:53.998Z</time></trkpt><trkpt lat="44.87505909424181" lon="9.27126569777562"><ele>415.25</ele><time>2026-04-23T13:46:54.998Z</time></trkpt><trkpt lat="44.875184292119016" lon="9.271165373162702"><ele>412.5</ele><time>2026-04-23T13:46:55.998Z</time></trkpt><trkpt lat="44.87529121326312" lon="9.271018965204153"><ele>409.75</ele><time>2026-04-23T13:46:56.998Z</time></trkpt><trkpt lat="44.87537642673537" lon="9.270838361430393"><ele>407.0</ele><time>2026-04-23T13:46:57.998Z</time></trkpt><trkpt lat="44.87546095831992" lon="9.270658600578345"><ele>408.3333333333333</ele><time>2026-04-23T13:46:58.998Z</time></trkpt><trkpt lat="44.87556706266789" lon="9.270500305498476"><ele>409.66666666666663</ele><time>2026-04-23T13:46:59.998Z</time></trkpt><trkpt lat="44.87569187072202" lon="9.270367652158566"><ele>411.0</ele><time>2026-04-23T13:47:00.998Z</time></trkpt><trkpt lat="44.87582409092063" lon="9.270247245546276"><ele>408.33333333333337</ele><time>2026-04-23T13:47:02Z</time></trkpt><trkpt lat="44.8759600688428" lon="9.270149054258827"><ele>405.6666666666667</ele><time>2026-04-23T13:47:03Z</time></trkpt><trkpt lat="44.87610265028791" lon="9.270082104984239"><ele>403.0</ele><time>2026-04-23T13:47:04Z</time></trkpt><trkpt lat="44.876244815391736" lon="9.270030427183851"><ele>403.0</ele><time>2026-04-23T13:47:05Z</time></trkpt><trkpt lat="44.876380634140176" lon="9.269972332755358"><ele>403.0</ele><time>2026-04-23T13:47:06Z</time></trkpt><trkpt lat="44.87649988388303" lon="9.269869991885736"><ele>403.0</ele><time>2026-04-23T13:47:07Z</time></trkpt><trkpt lat="44.87662164428403" lon="9.269728899532454"><ele>403.0</ele><time>2026-04-23T13:47:08Z</time></trkpt><trkpt lat="44.87675750096814" lon="9.269593087212654"><ele>400.33333333333337</ele><time>2026-04-23T13:47:09Z</time></trkpt><trkpt lat="44.87687013465782" lon="9.26942124709579"><ele>397.66666666666663</ele><time>2026-04-23T13:47:10Z</time></trkpt><trkpt lat="44.877006007082755" lon="9.26925030090342"><ele>395.0</ele><time>2026-04-23T13:47:11Z</time></trkpt><trkpt lat="44.87714180957688" lon="9.269073474160713"><ele>396.3333333333333</ele><time>2026-04-23T13:47:12Z</time></trkpt><trkpt lat="44.877271636070766" lon="9.268901204883516"><ele>397.66666666666663</ele><time>2026-04-23T13:47:13Z</time></trkpt><trkpt lat="44.877413874277636" lon="9.268755051040818"><ele>399.0</ele><time>2026-04-23T13:47:14Z</time></trkpt><trkpt lat="44.87753522455813" lon="9.268594649277142"><ele>396.66666666666663</ele><time>2026-04-23T13:47:15Z</time></trkpt><trkpt lat="44.877669700425216" lon="9.268476102624728"><ele>394.3333333333333</ele><time>2026-04-23T13:47:16Z</time></trkpt><trkpt lat="44.87780382580368" lon="9.268382760188654"><ele>392.0</ele><time>2026-04-23T13:47:17Z</time></trkpt><trkpt lat="44.877944922488865" lon="9.26832047949723"><ele>392.0</ele><time>2026-04-23T13:47:18Z</time></trkpt><trkpt lat="44.87808934516971" lon="9.26828928105782"><ele>392.0</ele><time>2026-04-23T13:47:19Z</time></trkpt><trkpt lat="44.878236584395886" lon="9.268257863428987"><ele>392.0</ele><time>2026-04-23T13:47:20Z</time></trkpt><trkpt lat="44.8783766318745" lon="9.268229621054932"><ele>392.0</ele><time>2026-04-23T13:47:21Z</time></trkpt><trkpt lat="44.878508923825855" lon="9.268206895043726"><ele>391.0</ele><time>2026-04-23T13:47:22Z</time></trkpt><trkpt lat="44.87862857227816" lon="9.268160569391764"><ele>390.0</ele><time>2026-04-23T13:47:23Z</time></trkpt><trkpt lat="44.878731965883624" lon="9.268074812858282"><ele>389.0</ele><time>2026-04-23T13:47:24Z</time></trkpt><trkpt lat="44.87881973549419" lon="9.267953761794514"><ele>388.0</ele><time>2026-04-23T13:47:25Z</time></trkpt><trkpt lat="44.87890906012279" lon="9.267819602413683"><ele>388.0</ele><time>2026-04-23T13:47:26Z</time></trkpt><trkpt lat="44.879002105657136" lon="9.26768713462132"><ele>388.0</ele><time>2026-04-23T13:47:27Z</time></trkpt><trkpt lat="44.87909740645268" lon="9.267552174186116"><ele>388.0</ele><time>2026-04-23T13:47:28Z</time></trkpt><trkpt lat="44.87920031853337" lon="9.267431167566851"><ele>388.0</ele><time>2026-04-23T13:47:29Z</time></trkpt><trkpt lat="44.87929811955157" lon="9.267301146043101"><ele>387.0</ele><time>2026-04-23T13:47:30Z</time></trkpt><trkpt lat="44.879385323711105" lon="9.267156983227592"><ele>386.0</ele><time>2026-04-23T13:47:31Z</time></trkpt><trkpt lat="44.8794746280071" lon="9.267016348631296"><ele>385.0</ele><time>2026-04-23T13:47:32Z</time></trkpt><trkpt lat="44.87956824041524" lon="9.266881180634462"><ele>384.0</ele><time>2026-04-23T13:47:33Z</time></trkpt><trkpt lat="44.879662802510744" lon="9.266742954060152"><ele>384.0</ele><time>2026-04-23T13:47:34Z</time></trkpt><trkpt lat="44.879757795825086" lon="9.26660639988812"><ele>384.0</ele><time>2026-04-23T13:47:35Z</time></trkpt><trkpt lat="44.879845911747424" lon="9.266471212734224"><ele>384.0</ele><time>2026-04-23T13:47:36Z</time></trkpt><trkpt lat="44.87992250175073" lon="9.266326477060327"><ele>384.0</ele><time>2026-04-23T13:47:37Z</time></trkpt><trkpt lat="44.87997706046025" lon="9.266165192524433"><ele>384.25</ele><time>2026-04-23T13:47:38Z</time></trkpt><trkpt lat="44.88002169505739" lon="9.265997987446797"><ele>384.5</ele><time>2026-04-23T13:47:39Z</time></trkpt><trkpt lat="44.88006698145489" lon="9.265835267126253"><ele>384.75</ele><time>2026-04-23T13:47:40Z</time></trkpt><trkpt lat="44.88011359009715" lon="9.265678603089038"><ele>385.0</ele><time>2026-04-23T13:47:41Z</time></trkpt><trkpt lat="44.88015885269805" lon="9.265529696861092"><ele>385.4</ele><time>2026-04-23T13:47:42Z</time></trkpt><trkpt lat="44.880195449456664" lon="9.265391968026924"><ele>385.8</ele><time>2026-04-23T13:47:43Z</time></trkpt><trkpt lat="44.88023637118418" lon="9.265261732880704"><ele>386.20000000000005</ele><time>2026-04-23T13:47:44Z</time></trkpt><trkpt lat="44.88029215835535" lon="9.265147636934335"><ele>386.6</ele><time>2026-04-23T13:47:45Z</time></trkpt><trkpt lat="44.88038291588594" lon="9.265062878757954"><ele>387.0</ele><time>2026-04-23T13:47:46Z</time></trkpt><trkpt lat="44.88050538015098" lon="9.26502714753115"><ele>387.0</ele><time>2026-04-23T13:47:47Z</time></trkpt><trkpt lat="44.88063923084649" lon="9.265031300480148"><ele>387.0</ele><time>2026-04-23T13:47:48Z</time></trkpt><trkpt lat="44.880779246824005" lon="9.265029058330992"><ele>387.0</ele><time>2026-04-23T13:47:49Z</time></trkpt><trkpt lat="44.880919265957274" lon="9.265013268550385"><ele>387.0</ele><time>2026-04-23T13:47:49.999Z</time></trkpt><trkpt lat="44.88106350295199" lon="9.265002567187661"><ele>386.0</ele><time>2026-04-23T13:47:50.999Z</time></trkpt><trkpt lat="44.881209743958856" lon="9.26499440441686"><ele>385.0</ele><time>2026-04-23T13:47:51.999Z</time></trkpt><trkpt lat="44.8813596157047" lon="9.264988468387052"><ele>384.0</ele><time>2026-04-23T13:47:52.999Z</time></trkpt><trkpt lat="44.88151119076588" lon="9.264977258404949"><ele>383.0</ele><time>2026-04-23T13:47:53.999Z</time></trkpt><trkpt lat="44.88165767133114" lon="9.264960179722406"><ele>382.33333333333337</ele><time>2026-04-23T13:47:54.999Z</time></trkpt><trkpt lat="44.881797583356814" lon="9.264937415717133"><ele>381.6666666666667</ele><time>2026-04-23T13:47:55.999Z</time></trkpt><trkpt lat="44.88194714086844" lon="9.264906467179314"><ele>381.0</ele><time>2026-04-23T13:47:56.999Z</time></trkpt><trkpt lat="44.882105727812515" lon="9.264866077925332"><ele>381.0</ele><time>2026-04-23T13:47:57.999Z</time></trkpt><trkpt lat="44.88226576819449" lon="9.264827373238585"><ele>381.0</ele><time>2026-04-23T13:47:58.999Z</time></trkpt><trkpt lat="44.88242505196379" lon="9.264790692885606"><ele>381.0</ele><time>2026-04-23T13:47:59.999Z</time></trkpt><trkpt lat="44.88258346312832" lon="9.264756827279502"><ele>381.6666666666667</ele><time>2026-04-23T13:48:00.999Z</time></trkpt><trkpt lat="44.88273988715114" lon="9.264726134501714"><ele>382.33333333333337</ele><time>2026-04-23T13:48:01.999Z</time></trkpt><trkpt lat="44.882891764801975" lon="9.26468959767423"><ele>383.0</ele><time>2026-04-23T13:48:02.999Z</time></trkpt><trkpt lat="44.88304305569353" lon="9.26465354713184"><ele>383.0</ele><time>2026-04-23T13:48:03.999Z</time></trkpt><trkpt lat="44.88319386128284" lon="9.26461760064866"><ele>383.0</ele><time>2026-04-23T13:48:04.999Z</time></trkpt><trkpt lat="44.88334287788556" lon="9.264578393988774"><ele>383.0</ele><time>2026-04-23T13:48:05.999Z</time></trkpt><trkpt lat="44.88349619686" lon="9.264541780257925"><ele>382.0</ele><time>2026-04-23T13:48:06.999Z</time></trkpt><trkpt lat="44.88366114893158" lon="9.264538207383685"><ele>381.0</ele><time>2026-04-23T13:48:07.999Z</time></trkpt><trkpt lat="44.88382689708955" lon="9.26455932933592"><ele>380.0</ele><time>2026-04-23T13:48:08.999Z</time></trkpt><trkpt lat="44.88398959705326" lon="9.264579252058228"><ele>380.0</ele><time>2026-04-23T13:48:09.999Z</time></trkpt><trkpt lat="44.88415209434385" lon="9.264598853682811"><ele>380.0</ele><time>2026-04-23T13:48:10.999Z</time></trkpt><trkpt lat="44.88431389255815" lon="9.264615569607757"><ele>380.0</ele><time>2026-04-23T13:48:11.999Z</time></trkpt><trkpt lat="44.884475389480166" lon="9.264633679073093"><ele>381.0</ele><time>2026-04-23T13:48:12.999Z</time></trkpt><trkpt lat="44.884633277284024" lon="9.264651168816647"><ele>382.0</ele><time>2026-04-23T13:48:13.999Z</time></trkpt><trkpt lat="44.884791634740274" lon="9.264667525908536"><ele>383.0</ele><time>2026-04-23T13:48:14.999Z</time></trkpt><trkpt lat="44.884948587543725" lon="9.264683780161187"><ele>384.33333333333337</ele><time>2026-04-23T13:48:15.999Z</time></trkpt><trkpt lat="44.88510534890973" lon="9.264700736241949"><ele>385.6666666666667</ele><time>2026-04-23T13:48:16.999Z</time></trkpt><trkpt lat="44.88526038272313" lon="9.264721581223206"><ele>387.0</ele><time>2026-04-23T13:48:17.999Z</time></trkpt><trkpt lat="44.885413318580845" lon="9.26473579384804"><ele>387.0</ele><time>2026-04-23T13:48:18.999Z</time></trkpt><trkpt lat="44.8855661427487" lon="9.2647492834057"><ele>387.0</ele><time>2026-04-23T13:48:19.999Z</time></trkpt><trkpt lat="44.885716271488526" lon="9.264767882727666"><ele>387.0</ele><time>2026-04-23T13:48:20.999Z</time></trkpt><trkpt lat="44.88586444964167" lon="9.264793922846314"><ele>383.3333333333333</ele><time>2026-04-23T13:48:21.999Z</time></trkpt><trkpt lat="44.88601355674696" lon="9.264819187308168"><ele>379.66666666666663</ele><time>2026-04-23T13:48:22.999Z</time></trkpt><trkpt lat="44.886164781914275" lon="9.264846140490038"><ele>376.0</ele><time>2026-04-23T13:48:23.999Z</time></trkpt><trkpt lat="44.886318269260734" lon="9.264884265651553"><ele>376.0</ele><time>2026-04-23T13:48:24.999Z</time></trkpt><trkpt lat="44.88647339082565" lon="9.26494263289744"><ele>376.0</ele><time>2026-04-23T13:48:25.999Z</time></trkpt><trkpt lat="44.88662707196075" lon="9.265027828285644"><ele>376.0</ele><time>2026-04-23T13:48:26.999Z</time></trkpt><trkpt lat="44.88678228776584" lon="9.26511510720042"><ele>378.3333333333333</ele><time>2026-04-23T13:48:27.999Z</time></trkpt><trkpt lat="44.88693814323541" lon="9.265198847484667"><ele>380.6666666666667</ele><time>2026-04-23T13:48:28.999Z</time></trkpt><trkpt lat="44.88710071712168" lon="9.265279456550731"><ele>383.0</ele><time>2026-04-23T13:48:29.999Z</time></trkpt><trkpt lat="44.887271845728925" lon="9.265367436755954"><ele>383.0</ele><time>2026-04-23T13:48:30.999Z</time></trkpt><trkpt lat="44.8874343077607" lon="9.26545127646006"><ele>383.0</ele><time>2026-04-23T13:48:31.999Z</time></trkpt><trkpt lat="44.887579892280804" lon="9.265530120210522"><ele>383.0</ele><time>2026-04-23T13:48:32.999Z</time></trkpt><trkpt lat="44.88772301197926" lon="9.265600577155798"><ele>380.33333333333337</ele><time>2026-04-23T13:48:33.999Z</time></trkpt><trkpt lat="44.88786636182674" lon="9.265683592472834"><ele>377.6666666666667</ele><time>2026-04-23T13:48:34.999Z</time></trkpt><trkpt lat="44.888011501627375" lon="9.26578591683307"><ele>375.0</ele><time>2026-04-23T13:48:35.999Z</time></trkpt><trkpt lat="44.888177288218536" lon="9.265902405126745"><ele>375.0</ele><time>2026-04-23T13:48:36.999Z</time></trkpt><trkpt lat="44.888347130792695" lon="9.26601912094847"><ele>375.0</ele><time>2026-04-23T13:48:37.999Z</time></trkpt><trkpt lat="44.888515132471454" lon="9.266138562122103"><ele>375.0</ele><time>2026-04-23T13:48:38.999Z</time></trkpt><trkpt lat="44.88868168039191" lon="9.266248824987263"><ele>374.3333333333333</ele><time>2026-04-23T13:48:39.999Z</time></trkpt><trkpt lat="44.88883918014254" lon="9.266357819832976"><ele>373.66666666666663</ele><time>2026-04-23T13:48:40.999Z</time></trkpt><trkpt lat="44.8889844695889" lon="9.266471462359625"><ele>373.0</ele><time>2026-04-23T13:48:41.999Z</time></trkpt><trkpt lat="44.889122032265064" lon="9.266558941091962"><ele>373.0</ele><time>2026-04-23T13:48:42.999Z</time></trkpt><trkpt lat="44.88925682934432" lon="9.26661090900173"><ele>373.0</ele><time>2026-04-23T13:48:43.999Z</time></trkpt><trkpt lat="44.889386281123684" lon="9.266619169120252"><ele>373.0</ele><time>2026-04-23T13:48:44.999Z</time></trkpt><trkpt lat="44.88950400490342" lon="9.266577970913765"><ele>373.0</ele><time>2026-04-23T13:48:45.999Z</time></trkpt><trkpt lat="44.889591938085644" lon="9.26648098340987"><ele>373.0</ele><time>2026-04-23T13:48:46.999Z</time></trkpt><trkpt lat="44.88966338356232" lon="9.266342142279997"><ele>373.0</ele><time>2026-04-23T13:48:47.999Z</time></trkpt><trkpt lat="44.88970568520186" lon="9.266166859147859"><ele>373.0</ele><time>2026-04-23T13:48:48.998Z</time></trkpt><trkpt lat="44.88975090564206" lon="9.266014040898792"><ele>373.0</ele><time>2026-04-23T13:48:49.998Z</time></trkpt><trkpt lat="44.88982086374969" lon="9.2658827219886"><ele>373.0</ele><time>2026-04-23T13:48:50.998Z</time></trkpt><trkpt lat="44.8899119119685" lon="9.265786487006398"><ele>373.0</ele><time>2026-04-23T13:48:51.998Z</time></trkpt><trkpt lat="44.89000411167148" lon="9.265716363848053"><ele>373.0</ele><time>2026-04-23T13:48:52.998Z</time></trkpt><trkpt lat="44.89009273444857" lon="9.265639715486527"><ele>373.0</ele><time>2026-04-23T13:48:53.998Z</time></trkpt><trkpt lat="44.89017396718434" lon="9.265583509314542"><ele>373.0</ele><time>2026-04-23T13:48:54.998Z</time></trkpt><trkpt lat="44.89024263834019" lon="9.26557884278603"><ele>374.59999999999997</ele><time>2026-04-23T13:48:55.998Z</time></trkpt><trkpt lat="44.89031768657291" lon="9.265719406322448"><ele>376.2</ele><time>2026-04-23T13:48:57.998Z</time></trkpt><trkpt lat="44.8903460373865" lon="9.26582097797693"><ele>377.8</ele><time>2026-04-23T13:48:58.998Z</time></trkpt><trkpt lat="44.89037296189889" lon="9.265957065971174"><ele>379.4</ele><time>2026-04-23T13:48:59.998Z</time></trkpt><trkpt lat="44.890389113520826" lon="9.266115597864042"><ele>381.0</ele><time>2026-04-23T13:49:00.998Z</time></trkpt><trkpt lat="44.890418324821155" lon="9.266282806964307"><ele>379.75</ele><time>2026-04-23T13:49:01.998Z</time></trkpt><trkpt lat="44.890424075796275" lon="9.266452732354333"><ele>378.5</ele><time>2026-04-23T13:49:02.998Z</time></trkpt><trkpt lat="44.89044326779504" lon="9.26661073370013"><ele>377.25</ele><time>2026-04-23T13:49:03.998Z</time></trkpt><trkpt lat="44.890466973705294" lon="9.266789481199359"><ele>376.0</ele><time>2026-04-23T13:49:04.998Z</time></trkpt><trkpt lat="44.89048462901216" lon="9.266983213754871"><ele>376.0</ele><time>2026-04-23T13:49:05.998Z</time></trkpt><trkpt lat="44.89051065812926" lon="9.267191955213606"><ele>376.0</ele><time>2026-04-23T13:49:06.998Z</time></trkpt><trkpt lat="44.89055049901551" lon="9.267413677928767"><ele>376.0</ele><time>2026-04-23T13:49:08Z</time></trkpt><trkpt lat="44.89058567326512" lon="9.267631637143975"><ele>376.0</ele><time>2026-04-23T13:49:09Z</time></trkpt><trkpt lat="44.890617158459904" lon="9.2678404764328"><ele>376.0</ele><time>2026-04-23T13:49:10Z</time></trkpt><trkpt lat="44.89064844930561" lon="9.268063940132848"><ele>376.0</ele><time>2026-04-23T13:49:11Z</time></trkpt><trkpt lat="44.89067843747568" lon="9.268275563918614"><ele>376.0</ele><time>2026-04-23T13:49:12Z</time></trkpt><trkpt lat="44.89071361582358" lon="9.268477077097442"><ele>376.0</ele><time>2026-04-23T13:49:13Z</time></trkpt><trkpt lat="44.89077083066065" lon="9.268661054252199"><ele>376.0</ele><time>2026-04-23T13:49:14Z</time></trkpt><trkpt lat="44.890867533140536" lon="9.268828890342503"><ele>376.0</ele><time>2026-04-23T13:49:15Z</time></trkpt><trkpt lat="44.89098205939075" lon="9.268977297628945"><ele>377.66666666666663</ele><time>2026-04-23T13:49:16Z</time></trkpt><trkpt lat="44.89110619551925" lon="9.269115524722995"><ele>379.3333333333333</ele><time>2026-04-23T13:49:17Z</time></trkpt><trkpt lat="44.89122128831349" lon="9.269263334243275"><ele>381.0</ele><time>2026-04-23T13:49:18Z</time></trkpt><trkpt lat="44.89132878414857" lon="9.269418425589945"><ele>381.0</ele><time>2026-04-23T13:49:19Z</time></trkpt><trkpt lat="44.89142234289412" lon="9.26959019662125"><ele>381.0</ele><time>2026-04-23T13:49:20Z</time></trkpt><trkpt lat="44.89149321099253" lon="9.269776009308842"><ele>381.0</ele><time>2026-04-23T13:49:21Z</time></trkpt><trkpt lat="44.891576237200134" lon="9.269943805765825"><ele>381.0</ele><time>2026-04-23T13:49:22Z</time></trkpt><trkpt lat="44.89168833559939" lon="9.270067937893197"><ele>383.0</ele><time>2026-04-23T13:49:23Z</time></trkpt><trkpt lat="44.89181827215168" lon="9.270135417059041"><ele>385.0</ele><time>2026-04-23T13:49:24Z</time></trkpt><trkpt lat="44.891935658869755" lon="9.270220101130493"><ele>387.0</ele><time>2026-04-23T13:49:25Z</time></trkpt><trkpt lat="44.89201821555881" lon="9.270373160980565"><ele>389.0</ele><time>2026-04-23T13:49:26Z</time></trkpt><trkpt lat="44.89206136634663" lon="9.270578240089304"><ele>386.75</ele><time>2026-04-23T13:49:27Z</time></trkpt><trkpt lat="44.89209879909268" lon="9.270775774100793"><ele>384.5</ele><time>2026-04-23T13:49:28Z</time></trkpt><trkpt lat="44.892126977240046" lon="9.270966917644534"><ele>382.25</ele><time>2026-04-23T13:49:29Z</time></trkpt><trkpt lat="44.89217097188422" lon="9.27114395961607"><ele>380.0</ele><time>2026-04-23T13:49:30Z</time></trkpt><trkpt lat="44.89224009939947" lon="9.27130660213071"><ele>378.0</ele><time>2026-04-23T13:49:31Z</time></trkpt><trkpt lat="44.89233415968849" lon="9.27144568276306"><ele>376.0</ele><time>2026-04-23T13:49:32Z</time></trkpt><trkpt lat="44.89244010181018" lon="9.271547465009322"><ele>374.0</ele><time>2026-04-23T13:49:33Z</time></trkpt><trkpt lat="44.89254198700831" lon="9.271636418733747"><ele>372.0</ele><time>2026-04-23T13:49:34Z</time></trkpt><trkpt lat="44.89261270570684" lon="9.27175283046501"><ele>376.75</ele><time>2026-04-23T13:49:35Z</time></trkpt><trkpt lat="44.892673557702224" lon="9.271861990683725"><ele>381.5</ele><time>2026-04-23T13:49:36Z</time></trkpt><trkpt lat="44.89268624029142" lon="9.272021276248944"><ele>386.25</ele><time>2026-04-23T13:49:37Z</time></trkpt><trkpt lat="44.892674317974674" lon="9.272201235117482"><ele>391.0</ele><time>2026-04-23T13:49:38Z</time></trkpt><trkpt lat="44.89264420850969" lon="9.27238860847789"><ele>391.25</ele><time>2026-04-23T13:49:39Z</time></trkpt><trkpt lat="44.8926073609031" lon="9.272568775874902"><ele>391.5</ele><time>2026-04-23T13:49:40Z</time></trkpt><trkpt lat="44.8925903871265" lon="9.272745971108685"><ele>391.75</ele><time>2026-04-23T13:49:41Z</time></trkpt><trkpt lat="44.89262930914483" lon="9.272920471505497"><ele>392.0</ele><time>2026-04-23T13:49:42Z</time></trkpt><trkpt lat="44.892710392955884" lon="9.273091359032659"><ele>389.0</ele><time>2026-04-23T13:49:43Z</time></trkpt><trkpt lat="44.89279126177852" lon="9.273271626592837"><ele>386.0</ele><time>2026-04-23T13:49:44Z</time></trkpt><trkpt lat="44.8928638554096" lon="9.273450647410284"><ele>383.0</ele><time>2026-04-23T13:49:45Z</time></trkpt><trkpt lat="44.8929347370069" lon="9.27362274760119"><ele>380.0</ele><time>2026-04-23T13:49:46Z</time></trkpt><trkpt lat="44.89301367540709" lon="9.273806961811504"><ele>377.33333333333337</ele><time>2026-04-23T13:49:47Z</time></trkpt><trkpt lat="44.893099583603394" lon="9.273994940015461"><ele>374.6666666666667</ele><time>2026-04-23T13:49:48Z</time></trkpt><trkpt lat="44.89318965829236" lon="9.274180643643277"><ele>372.0</ele><time>2026-04-23T13:49:49Z</time></trkpt><trkpt lat="44.89328285590369" lon="9.274353683652656"><ele>372.0</ele><time>2026-04-23T13:49:50Z</time></trkpt><trkpt lat="44.89337561179588" lon="9.274521128523098"><ele>372.0</ele><time>2026-04-23T13:49:51Z</time></trkpt><trkpt lat="44.89346601873342" lon="9.274682845388966"><ele>372.0</ele><time>2026-04-23T13:49:52Z</time></trkpt><trkpt lat="44.89356367540656" lon="9.274826749598283"><ele>372.0</ele><time>2026-04-23T13:49:52.999Z</time></trkpt><trkpt lat="44.89368910123313" lon="9.27493452239164"><ele>375.0</ele><time>2026-04-23T13:49:53.999Z</time></trkpt><trkpt lat="44.89383434282217" lon="9.274999044314278"><ele>378.0</ele><time>2026-04-23T13:49:54.999Z</time></trkpt><trkpt lat="44.8939910000585" lon="9.275041398476418"><ele>381.0</ele><time>2026-04-23T13:49:55.999Z</time></trkpt><trkpt lat="44.89414609703312" lon="9.275092776017386"><ele>385.66666666666663</ele><time>2026-04-23T13:49:56.999Z</time></trkpt><trkpt lat="44.89429999215456" lon="9.275144674896298"><ele>390.3333333333333</ele><time>2026-04-23T13:49:57.999Z</time></trkpt><trkpt lat="44.89444708994755" lon="9.275203625075891"><ele>395.0</ele><time>2026-04-23T13:49:58.999Z</time></trkpt><trkpt lat="44.8945881168237" lon="9.275269354206232"><ele>395.0</ele><time>2026-04-23T13:49:59.999Z</time></trkpt><trkpt lat="44.8947233502661" lon="9.275357954987836"><ele>395.0</ele><time>2026-04-23T13:50:00.999Z</time></trkpt><trkpt lat="44.894846969137504" lon="9.27547095567952"><ele>395.0</ele><time>2026-04-23T13:50:01.999Z</time></trkpt><trkpt lat="44.894969142009565" lon="9.275572702922126"><ele>395.0</ele><time>2026-04-23T13:50:02.999Z</time></trkpt><trkpt lat="44.89509027881251" lon="9.275672174019757"><ele>392.0</ele><time>2026-04-23T13:50:03.999Z</time></trkpt><trkpt lat="44.895202096514126" lon="9.27577444115924"><ele>389.0</ele><time>2026-04-23T13:50:04.999Z</time></trkpt><trkpt lat="44.89528656517668" lon="9.275907333833755"><ele>386.0</ele><time>2026-04-23T13:50:05.999Z</time></trkpt><trkpt lat="44.89533367409951" lon="9.276082565390254"><ele>383.0</ele><time>2026-04-23T13:50:06.999Z</time></trkpt><trkpt lat="44.89534993962207" lon="9.276284914671923"><ele>381.75</ele><time>2026-04-23T13:50:07.999Z</time></trkpt><trkpt lat="44.89536035355903" lon="9.276496789607753"><ele>380.5</ele><time>2026-04-23T13:50:08.999Z</time></trkpt><trkpt lat="44.89538535016008" lon="9.276708308020485"><ele>379.25</ele><time>2026-04-23T13:50:09.999Z</time></trkpt><trkpt lat="44.89540281675763" lon="9.276914271268828"><ele>378.0</ele><time>2026-04-23T13:50:10.999Z</time></trkpt><trkpt lat="44.895415510078294" lon="9.277107076300393"><ele>376.25</ele><time>2026-04-23T13:50:11.999Z</time></trkpt><trkpt lat="44.89543506093301" lon="9.27728073028189"><ele>374.5</ele><time>2026-04-23T13:50:12.999Z</time></trkpt><trkpt lat="44.89549695919774" lon="9.27742178808834"><ele>372.75</ele><time>2026-04-23T13:50:13.999Z</time></trkpt><trkpt lat="44.89559489708233" lon="9.27752135941857"><ele>371.0</ele><time>2026-04-23T13:50:14.999Z</time></trkpt><trkpt lat="44.8957077760169" lon="9.277604456438334"><ele>371.0</ele><time>2026-04-23T13:50:15.999Z</time></trkpt><trkpt lat="44.8958269175263" lon="9.277699401042685"><ele>371.0</ele><time>2026-04-23T13:50:16.999Z</time></trkpt><trkpt lat="44.895944568815736" lon="9.277801491560894"><ele>371.0</ele><time>2026-04-23T13:50:17.999Z</time></trkpt><trkpt lat="44.89606186772503" lon="9.2778951927723"><ele>371.0</ele><time>2026-04-23T13:50:18.999Z</time></trkpt><trkpt lat="44.896175049006736" lon="9.27798195030346"><ele>371.0</ele><time>2026-04-23T13:50:19.999Z</time></trkpt><trkpt lat="44.89628025795181" lon="9.278070064632637"><ele>371.0</ele><time>2026-04-23T13:50:20.999Z</time></trkpt><trkpt lat="44.89638119224347" lon="9.278153564985384"><ele>371.0</ele><time>2026-04-23T13:50:21.999Z</time></trkpt><trkpt lat="44.896485390275" lon="9.278242546292628"><ele>371.0</ele><time>2026-04-23T13:50:22.999Z</time></trkpt><trkpt lat="44.896596569916824" lon="9.278330362175552"><ele>371.0</ele><time>2026-04-23T13:50:23.999Z</time></trkpt><trkpt lat="44.89670926700904" lon="9.278407878131938"><ele>371.0</ele><time>2026-04-23T13:50:24.999Z</time></trkpt><trkpt lat="44.896830202694424" lon="9.27847874911127"><ele>371.0</ele><time>2026-04-23T13:50:25.999Z</time></trkpt><trkpt lat="44.89694605281777" lon="9.278557563794765"><ele>371.0</ele><time>2026-04-23T13:50:26.999Z</time></trkpt><trkpt lat="44.89705563658073" lon="9.27864109528123"><ele>373.5</ele><time>2026-04-23T13:50:27.999Z</time></trkpt><trkpt lat="44.89716455839511" lon="9.27872122638955"><ele>376.0</ele><time>2026-04-23T13:50:28.999Z</time></trkpt><trkpt lat="44.89727435151807" lon="9.278789437258476"><ele>378.5</ele><time>2026-04-23T13:50:29.999Z</time></trkpt><trkpt lat="44.897383930919844" lon="9.27885481535504"><ele>381.0</ele><time>2026-04-23T13:50:30.999Z</time></trkpt><trkpt lat="44.89749360066567" lon="9.278930730855569"><ele>378.25</ele><time>2026-04-23T13:50:31.999Z</time></trkpt><trkpt lat="44.89762457224643" lon="9.278937953968304"><ele>375.5</ele><time>2026-04-23T13:50:32.999Z</time></trkpt><trkpt lat="44.89775470467669" lon="9.278955136542193"><ele>372.75</ele><time>2026-04-23T13:50:33.999Z</time></trkpt><trkpt lat="44.8978886418479" lon="9.278965566937778"><ele>370.0</ele><time>2026-04-23T13:50:34.999Z</time></trkpt><trkpt lat="44.89802450578194" lon="9.2789719256802"><ele>370.0</ele><time>2026-04-23T13:50:35.999Z</time></trkpt><trkpt lat="44.898158377398985" lon="9.278975860630903"><ele>370.0</ele><time>2026-04-23T13:50:36.999Z</time></trkpt><trkpt lat="44.89828581557945" lon="9.278983261512318"><ele>370.0</ele><time>2026-04-23T13:50:37.999Z</time></trkpt><trkpt lat="44.89840835740464" lon="9.278990927639796"><ele>370.0</ele><time>2026-04-23T13:50:38.999Z</time></trkpt><trkpt lat="44.89851919520453" lon="9.279017472905954"><ele>371.2</ele><time>2026-04-23T13:50:39.999Z</time></trkpt><trkpt lat="44.898618528188635" lon="9.27908223595446"><ele>372.4</ele><time>2026-04-23T13:50:40.999Z</time></trkpt><trkpt lat="44.898708656226006" lon="9.27917538932432"><ele>373.6</ele><time>2026-04-23T13:50:41.999Z</time></trkpt><trkpt lat="44.89878957467712" lon="9.279254807123271"><ele>374.8</ele><time>2026-04-23T13:50:42.999Z</time></trkpt><trkpt lat="44.898873014606" lon="9.27931641425745"><ele>376.0</ele><time>2026-04-23T13:50:43.999Z</time></trkpt><trkpt lat="44.89897258168026" lon="9.279375972395234"><ele>376.0</ele><time>2026-04-23T13:50:44.999Z</time></trkpt><trkpt lat="44.89908054616087" lon="9.27944116309556"><ele>376.0</ele><time>2026-04-23T13:50:45.999Z</time></trkpt><trkpt lat="44.89918073986169" lon="9.279507656379792"><ele>376.0</ele><time>2026-04-23T13:50:46.999Z</time></trkpt><trkpt lat="44.899273494869284" lon="9.27958767157655"><ele>376.0</ele><time>2026-04-23T13:50:47.999Z</time></trkpt><trkpt lat="44.899357044892405" lon="9.27968781220157"><ele>376.0</ele><time>2026-04-23T13:50:48.999Z</time></trkpt><trkpt lat="44.89942631506476" lon="9.27980912993581"><ele>377.0</ele><time>2026-04-23T13:50:49.999Z</time></trkpt><trkpt lat="44.89947501564391" lon="9.279930638206686"><ele>378.0</ele><time>2026-04-23T13:50:50.999Z</time></trkpt><trkpt lat="44.899501368418" lon="9.280066036248769"><ele>379.0</ele><time>2026-04-23T13:50:51.998Z</time></trkpt><trkpt lat="44.899498157752895" lon="9.280214469048408"><ele>380.0</ele><time>2026-04-23T13:50:52.998Z</time></trkpt><trkpt lat="44.899482857361306" lon="9.280377729670304"><ele>381.0</ele><time>2026-04-23T13:50:53.998Z</time></trkpt><trkpt lat="44.8994872027463" lon="9.280566398648151"><ele>380.75</ele><time>2026-04-23T13:50:54.998Z</time></trkpt><trkpt lat="44.899503345727624" lon="9.280756997381681"><ele>380.5</ele><time>2026-04-23T13:50:55.998Z</time></trkpt><trkpt lat="44.89952311017706" lon="9.28093215365191"><ele>380.25</ele><time>2026-04-23T13:50:56.998Z</time></trkpt><trkpt lat="44.899553851264606" lon="9.281100047499791"><ele>380.0</ele><time>2026-04-23T13:50:57.998Z</time></trkpt><trkpt lat="44.89959818422577" lon="9.281256796398408"><ele>380.0</ele><time>2026-04-23T13:50:58.998Z</time></trkpt><trkpt lat="44.89966389870928" lon="9.281407921018696"><ele>380.0</ele><time>2026-04-23T13:50:59.998Z</time></trkpt><trkpt lat="44.89975604283784" lon="9.281547474369711"><ele>380.0</ele><time>2026-04-23T13:51:00.998Z</time></trkpt><trkpt lat="44.89986775234018" lon="9.281686806435228"><ele>380.0</ele><time>2026-04-23T13:51:01.998Z</time></trkpt><trkpt lat="44.899977005013774" lon="9.281840759657747"><ele>379.5</ele><time>2026-04-23T13:51:02.998Z</time></trkpt><trkpt lat="44.9000783476903" lon="9.281985139223545"><ele>379.0</ele><time>2026-04-23T13:51:03.998Z</time></trkpt><trkpt lat="44.9001806998246" lon="9.282121692707536"><ele>378.5</ele><time>2026-04-23T13:51:04.998Z</time></trkpt><trkpt lat="44.90029252890544" lon="9.282274175097765"><ele>378.0</ele><time>2026-04-23T13:51:05.998Z</time></trkpt><trkpt lat="44.90040699540427" lon="9.282421153707693"><ele>378.0</ele><time>2026-04-23T13:51:06.998Z</time></trkpt><trkpt lat="44.90052029517055" lon="9.282565026640325"><ele>378.0</ele><time>2026-04-23T13:51:07.998Z</time></trkpt><trkpt lat="44.90063098072696" lon="9.282703488676123"><ele>378.0</ele><time>2026-04-23T13:51:08.998Z</time></trkpt><trkpt lat="44.90074290245528" lon="9.282833205880285"><ele>378.0</ele><time>2026-04-23T13:51:09.998Z</time></trkpt><trkpt lat="44.90085478415252" lon="9.282941018965207"><ele>378.25</ele><time>2026-04-23T13:51:10.998Z</time></trkpt><trkpt lat="44.900964623535714" lon="9.283036770333444"><ele>378.5</ele><time>2026-04-23T13:51:11.998Z</time></trkpt><trkpt lat="44.90107587375948" lon="9.283117067358402"><ele>378.75</ele><time>2026-04-23T13:51:12.998Z</time></trkpt><trkpt lat="44.9011857485017" lon="9.283177317130356"><ele>379.0</ele><time>2026-04-23T13:51:14Z</time></trkpt><trkpt lat="44.901297523824645" lon="9.283191247033812"><ele>379.0</ele><time>2026-04-23T13:51:15Z</time></trkpt><trkpt lat="44.90141490270573" lon="9.283181746172712"><ele>379.0</ele><time>2026-04-23T13:51:16Z</time></trkpt><trkpt lat="44.90153102348598" lon="9.283143956038082"><ele>379.0</ele><time>2026-04-23T13:51:17Z</time></trkpt><trkpt lat="44.90165006624473" lon="9.283068370994458"><ele>379.0</ele><time>2026-04-23T13:51:18Z</time></trkpt><trkpt lat="44.90175968634661" lon="9.282949724078872"><ele>378.6</ele><time>2026-04-23T13:51:19Z</time></trkpt><trkpt lat="44.90184762560938" lon="9.282825830562972"><ele>378.2</ele><time>2026-04-23T13:51:20Z</time></trkpt><trkpt lat="44.90191927840875" lon="9.282704485968521"><ele>377.8</ele><time>2026-04-23T13:51:21Z</time></trkpt><trkpt lat="44.90199965175743" lon="9.28260691853603"><ele>377.40000000000003</ele><time>2026-04-23T13:51:22Z</time></trkpt><trkpt lat="44.90207629853685" lon="9.282528058720315"><ele>377.0</ele><time>2026-04-23T13:51:23Z</time></trkpt><trkpt lat="44.902164576793275" lon="9.282459297335636"><ele>377.0</ele><time>2026-04-23T13:51:24Z</time></trkpt><trkpt lat="44.902273046337456" lon="9.282428818174136"><ele>377.0</ele><time>2026-04-23T13:51:25Z</time></trkpt><trkpt lat="44.90239271144671" lon="9.28245776258957"><ele>377.0</ele><time>2026-04-23T13:51:26Z</time></trkpt><trkpt lat="44.902517230540624" lon="9.28253693353631"><ele>377.0</ele><time>2026-04-23T13:51:27Z</time></trkpt><trkpt lat="44.902641253818764" lon="9.282656788068646"><ele>379.75</ele><time>2026-04-23T13:51:28Z</time></trkpt><trkpt lat="44.902770402772056" lon="9.282746726410732"><ele>382.5</ele><time>2026-04-23T13:51:29Z</time></trkpt><trkpt lat="44.9029000193362" lon="9.282824082950958"><ele>385.25</ele><time>2026-04-23T13:51:30Z</time></trkpt><trkpt lat="44.903020293948934" lon="9.282911259356096"><ele>388.0</ele><time>2026-04-23T13:51:31Z</time></trkpt><trkpt lat="44.90313567075989" lon="9.282997550821865"><ele>388.0</ele><time>2026-04-23T13:51:32Z</time></trkpt><trkpt lat="44.9032435524241" lon="9.283072964666468"><ele>388.0</ele><time>2026-04-23T13:51:33Z</time></trkpt><trkpt lat="44.90334930161543" lon="9.28314283531394"><ele>388.0</ele><time>2026-04-23T13:51:34Z</time></trkpt><trkpt lat="44.90344307723274" lon="9.283214235900289"><ele>388.0</ele><time>2026-04-23T13:51:35Z</time></trkpt><trkpt lat="44.90352469609131" lon="9.283291870770485"><ele>388.0</ele><time>2026-04-23T13:51:36Z</time></trkpt><trkpt lat="44.90359045706362" lon="9.283391244344294"><ele>388.4</ele><time>2026-04-23T13:51:37Z</time></trkpt><trkpt lat="44.90364498264349" lon="9.283528324245564"><ele>388.79999999999995</ele><time>2026-04-23T13:51:38Z</time></trkpt><trkpt lat="44.90365627335179" lon="9.283665831798928"><ele>389.2</ele><time>2026-04-23T13:51:39Z</time></trkpt><trkpt lat="44.903624811441645" lon="9.283805760863546"><ele>389.6</ele><time>2026-04-23T13:51:40Z</time></trkpt><trkpt lat="44.9035506265081" lon="9.283966525243983"><ele>390.0</ele><time>2026-04-23T13:51:41Z</time></trkpt><trkpt lat="44.90346595868419" lon="9.284135179994891"><ele>384.6666666666667</ele><time>2026-04-23T13:51:42Z</time></trkpt><trkpt lat="44.90338980619543" lon="9.284333335757895"><ele>379.33333333333337</ele><time>2026-04-23T13:51:43Z</time></trkpt><trkpt lat="44.90332193323894" lon="9.284519441504333"><ele>374.0</ele><time>2026-04-23T13:51:44Z</time></trkpt><trkpt lat="44.903260448891054" lon="9.284705782243565"><ele>375.25</ele><time>2026-04-23T13:51:45Z</time></trkpt><trkpt lat="44.903202982635186" lon="9.284889432713522"><ele>376.5</ele><time>2026-04-23T13:51:46Z</time></trkpt><trkpt lat="44.90314693580173" lon="9.285061588936955"><ele>377.75</ele><time>2026-04-23T13:51:47Z</time></trkpt><trkpt lat="44.903089231894036" lon="9.285224483176352"><ele>379.0</ele><time>2026-04-23T13:51:48Z</time></trkpt><trkpt lat="44.90304645347099" lon="9.28538629740569"><ele>379.0</ele><time>2026-04-23T13:51:49Z</time></trkpt><trkpt lat="44.903024458857274" lon="9.285545934676795"><ele>379.0</ele><time>2026-04-23T13:51:50Z</time></trkpt><trkpt lat="44.903029804129865" lon="9.285694432464918"><ele>379.0</ele><time>2026-04-23T13:51:51Z</time></trkpt><trkpt lat="44.90307149209833" lon="9.285823797795382"><ele>379.0</ele><time>2026-04-23T13:51:52Z</time></trkpt><trkpt lat="44.90313473386184" lon="9.28592422567365"><ele>379.0</ele><time>2026-04-23T13:51:53Z</time></trkpt><trkpt lat="44.903190956117456" lon="9.286009182767781"><ele>379.8333333333333</ele><time>2026-04-23T13:51:54Z</time></trkpt><trkpt lat="44.90324417423268" lon="9.286074386031855"><ele>380.66666666666663</ele><time>2026-04-23T13:51:54.999Z</time></trkpt><trkpt lat="44.903305365970944" lon="9.286111298034507"><ele>381.5</ele><time>2026-04-23T13:51:55.999Z</time></trkpt><trkpt lat="44.903423198711806" lon="9.286108236619485"><ele>382.3333333333333</ele><time>2026-04-23T13:51:57.999Z</time></trkpt><trkpt lat="44.903520642388635" lon="9.286113322153048"><ele>383.1666666666667</ele><time>2026-04-23T13:51:59.999Z</time></trkpt><trkpt lat="44.903601601039924" lon="9.286097103463382"><ele>384.0</ele><time>2026-04-23T13:52:01.999Z</time></trkpt><trkpt lat="44.90367632112027" lon="9.286109340199534"><ele>384.0</ele><time>2026-04-23T13:52:04.999Z</time></trkpt><trkpt lat="44.90371357124317" lon="9.286207423544813"><ele>384.0</ele><time>2026-04-23T13:52:11.999Z</time></trkpt><trkpt lat="44.90346167776684" lon="9.285968632101216"><ele>384.0</ele><time>2026-04-23T14:01:50.998Z</time></trkpt></trkseg><trkseg><trkpt lat="44.91211790417193" lon="9.310268966565074"><ele>390.0</ele><time>2026-04-23T15:14:39Z</time></trkpt><trkpt lat="44.912231318039986" lon="9.310349776657722"><ele>390.0</ele><time>2026-04-23T15:14:41Z</time></trkpt><trkpt lat="44.912284038521065" lon="9.310437561968719"><ele>390.0</ele><time>2026-04-23T15:14:42Z</time></trkpt><trkpt lat="44.91233349673773" lon="9.31051426064285"><ele>390.0</ele><time>2026-04-23T15:14:43Z</time></trkpt><trkpt lat="44.91237953991391" lon="9.310579732702095"><ele>390.0</ele><time>2026-04-23T15:14:44Z</time></trkpt><trkpt lat="44.912420328732004" lon="9.310650494376466"><ele>390.0</ele><time>2026-04-23T15:14:45Z</time></trkpt><trkpt lat="44.91246216216162" lon="9.310725908593152"><ele>390.57142857142856</ele><time>2026-04-23T15:14:46Z</time></trkpt><trkpt lat="44.912502515351036" lon="9.31079828615311"><ele>391.1428571428571</ele><time>2026-04-23T15:14:47Z</time></trkpt><trkpt lat="44.91254368164482" lon="9.310878805527272"><ele>391.7142857142857</ele><time>2026-04-23T15:14:48Z</time></trkpt><trkpt lat="44.912584582013146" lon="9.310954818930275"><ele>392.2857142857143</ele><time>2026-04-23T15:14:49Z</time></trkpt><trkpt lat="44.912612292935286" lon="9.311041581645528"><ele>392.8571428571429</ele><time>2026-04-23T15:14:50Z</time></trkpt><trkpt lat="44.91264432279715" lon="9.31113018602655"><ele>393.42857142857144</ele><time>2026-04-23T15:14:51Z</time></trkpt><trkpt lat="44.91268572101347" lon="9.311224420186422"><ele>394.0</ele><time>2026-04-23T15:14:52Z</time></trkpt><trkpt lat="44.91274808116364" lon="9.311335334232808"><ele>399.75</ele><time>2026-04-23T15:14:53.999Z</time></trkpt><trkpt lat="44.91283161391654" lon="9.31147510351401"><ele>405.5</ele><time>2026-04-23T15:14:55.999Z</time></trkpt><trkpt lat="44.91287661287752" lon="9.311585399285637"><ele>411.25</ele><time>2026-04-23T15:14:57.999Z</time></trkpt><trkpt lat="44.912943185278685" lon="9.311720731139564"><ele>417.0</ele><time>2026-04-23T15:14:59.999Z</time></trkpt><trkpt lat="44.913022906037966" lon="9.311834469815162"><ele>417.0</ele><time>2026-04-23T15:15:01.999Z</time></trkpt><trkpt lat="44.913102299666804" lon="9.311884408472102"><ele>417.0</ele><time>2026-04-23T15:15:03.999Z</time></trkpt><trkpt lat="44.91317292735016" lon="9.311903442757739"><ele>417.0</ele><time>2026-04-23T15:15:05.999Z</time></trkpt><trkpt lat="44.91329719451528" lon="9.311934910142257"><ele>417.0</ele><time>2026-04-23T15:15:07.999Z</time></trkpt><trkpt lat="44.91337900951912" lon="9.311945927335822"><ele>417.0</ele><time>2026-04-23T15:15:09.999Z</time></trkpt><trkpt lat="44.913454523092135" lon="9.311938486661619"><ele>417.0</ele><time>2026-04-23T15:15:12.999Z</time></trkpt><trkpt lat="44.91357874794446" lon="9.311909239977517"><ele>419.8</ele><time>2026-04-23T15:15:14.999Z</time></trkpt><trkpt lat="44.913665230952255" lon="9.311900948798009"><ele>422.6</ele><time>2026-04-23T15:15:15.999Z</time></trkpt><trkpt lat="44.9137832347801" lon="9.311886549579372"><ele>425.40000000000003</ele><time>2026-04-23T15:15:17.999Z</time></trkpt><trkpt lat="44.91388844373136" lon="9.31187418108934"><ele>428.20000000000005</ele><time>2026-04-23T15:15:19.999Z</time></trkpt><trkpt lat="44.91398684129748" lon="9.311850228482703"><ele>431.0</ele><time>2026-04-23T15:15:21.999Z</time></trkpt><trkpt lat="44.91404762189123" lon="9.311879843838511"><ele>430.99999999999994</ele><time>2026-04-23T15:15:23.999Z</time></trkpt><trkpt lat="44.91410502050439" lon="9.311918385833309"><ele>431.0</ele><time>2026-04-23T15:17:31.999Z</time></trkpt><trkpt lat="44.9141870616803" lon="9.311977018215979"><ele>431.0</ele><time>2026-04-23T15:17:34.999Z</time></trkpt><trkpt lat="44.91425587773379" lon="9.311983557173681"><ele>431.0</ele><time>2026-04-23T15:17:36.999Z</time></trkpt><trkpt lat="44.914321658279064" lon="9.311995497576335"><ele>430.99999999999994</ele><time>2026-04-23T15:17:38.999Z</time></trkpt><trkpt lat="44.914395830829484" lon="9.312008461496402"><ele>431.0</ele><time>2026-04-23T15:17:40.999Z</time></trkpt><trkpt lat="44.91448948278647" lon="9.312052923513809"><ele>434.16666666666663</ele><time>2026-04-23T15:17:42.999Z</time></trkpt><trkpt lat="44.91456884527612" lon="9.312069555037457"><ele>437.3333333333333</ele><time>2026-04-23T15:17:44.999Z</time></trkpt><trkpt lat="44.914633469788015" lon="9.312081279718132"><ele>440.5</ele><time>2026-04-23T15:17:46.999Z</time></trkpt><trkpt lat="44.91470718749851" lon="9.312100359536123"><ele>443.66666666666663</ele><time>2026-04-23T15:17:49.999Z</time></trkpt><trkpt lat="44.914776975614274" lon="9.31210239771658"><ele>446.8333333333333</ele><time>2026-04-23T15:17:52.998Z</time></trkpt><trkpt lat="44.91485685351052" lon="9.312156371172295"><ele>450.0</ele><time>2026-04-23T15:17:55.998Z</time></trkpt><trkpt lat="44.91493342233854" lon="9.312239062775365"><ele>450.1666666666667</ele><time>2026-04-23T15:17:59.998Z</time></trkpt><trkpt lat="44.915015929316496" lon="9.312266524401718"><ele>450.33333333333337</ele><time>2026-04-23T15:18:02.998Z</time></trkpt><trkpt lat="44.915076117759426" lon="9.312314476289332"><ele>450.5</ele><time>2026-04-23T15:18:04.998Z</time></trkpt><trkpt lat="44.91514018842524" lon="9.3123576888438"><ele>450.6666666666667</ele><time>2026-04-23T15:18:07.998Z</time></trkpt><trkpt lat="44.91523209441003" lon="9.312421418908322"><ele>450.83333333333337</ele><time>2026-04-23T15:18:09.998Z</time></trkpt><trkpt lat="44.91530209707234" lon="9.31246461766362"><ele>451.0</ele><time>2026-04-23T15:18:11.998Z</time></trkpt><trkpt lat="44.91539107264391" lon="9.312478286048975"><ele>453.6666666666667</ele><time>2026-04-23T15:18:14.998Z</time></trkpt><trkpt lat="44.91546294081091" lon="9.31251134430204"><ele>456.33333333333337</ele><time>2026-04-23T15:18:16.998Z</time></trkpt><trkpt lat="44.91554784726363" lon="9.312498708703373"><ele>459.0</ele><time>2026-04-23T15:18:20Z</time></trkpt><trkpt lat="44.91561507987748" lon="9.312493316034717"><ele>461.66666666666663</ele><time>2026-04-23T15:18:23Z</time></trkpt><trkpt lat="44.91567966121611" lon="9.312497095387332"><ele>464.3333333333333</ele><time>2026-04-23T15:18:35Z</time></trkpt><trkpt lat="44.91577652466588" lon="9.312526591424403"><ele>467.0</ele><time>2026-04-23T15:18:38Z</time></trkpt><trkpt lat="44.91584607543642" lon="9.312570097743954"><ele>467.8</ele><time>2026-04-23T15:18:40Z</time></trkpt><trkpt lat="44.9159507430166" lon="9.312607164569878"><ele>468.6</ele><time>2026-04-23T15:18:43Z</time></trkpt><trkpt lat="44.91602174982001" lon="9.31263816190346"><ele>469.40000000000003</ele><time>2026-04-23T15:18:46Z</time></trkpt><trkpt lat="44.91608943398015" lon="9.31271150891898"><ele>470.20000000000005</ele><time>2026-04-23T15:18:48Z</time></trkpt><trkpt lat="44.91618617488486" lon="9.312767359636563"><ele>471.0</ele><time>2026-04-23T15:18:50Z</time></trkpt><trkpt lat="44.91630800197288" lon="9.312827354370862"><ele>471.0</ele><time>2026-04-23T15:18:52Z</time></trkpt><trkpt lat="44.916412091801824" lon="9.312886425194442"><ele>471.0</ele><time>2026-04-23T15:18:54Z</time></trkpt><trkpt lat="44.91653198879644" lon="9.312925637940348"><ele>471.0</ele><time>2026-04-23T15:18:56Z</time></trkpt><trkpt lat="44.916614200512186" lon="9.312962431653549"><ele>471.0</ele><time>2026-04-23T15:18:58Z</time></trkpt><trkpt lat="44.91670401215059" lon="9.313018843866567"><ele>471.0</ele><time>2026-04-23T15:18:59.999Z</time></trkpt><trkpt lat="44.916808358912704" lon="9.313080622335367"><ele>471.5</ele><time>2026-04-23T15:19:01.999Z</time></trkpt><trkpt lat="44.916920629917485" lon="9.313054484911055"><ele>472.0</ele><time>2026-04-23T15:19:03.999Z</time></trkpt><trkpt lat="44.916985515587584" lon="9.313038632882904"><ele>472.5</ele><time>2026-04-23T15:19:04.999Z</time></trkpt><trkpt lat="44.91711236673359" lon="9.313023331029354"><ele>473.0</ele><time>2026-04-23T15:19:06.999Z</time></trkpt><trkpt lat="44.917178612293746" lon="9.313037629082967"><ele>473.5</ele><time>2026-04-23T15:19:07.999Z</time></trkpt><trkpt lat="44.91724022679617" lon="9.313064014801167"><ele>474.0</ele><time>2026-04-23T15:19:08.999Z</time></trkpt><trkpt lat="44.917304889460226" lon="9.313096531795724"><ele>475.6666666666667</ele><time>2026-04-23T15:19:09.999Z</time></trkpt><trkpt lat="44.91737940092742" lon="9.313134917711565"><ele>477.33333333333337</ele><time>2026-04-23T15:19:10.999Z</time></trkpt><trkpt lat="44.91744972460368" lon="9.313168176019467"><ele>479.0</ele><time>2026-04-23T15:19:11.999Z</time></trkpt><trkpt lat="44.91752128286954" lon="9.313226313175832"><ele>480.6666666666667</ele><time>2026-04-23T15:19:12.999Z</time></trkpt><trkpt lat="44.91759869338533" lon="9.313295624195167"><ele>482.33333333333337</ele><time>2026-04-23T15:19:13.999Z</time></trkpt><trkpt lat="44.91767979665849" lon="9.31336466260819"><ele>484.0</ele><time>2026-04-23T15:19:14.999Z</time></trkpt><trkpt lat="44.91776903386346" lon="9.313418954537603"><ele>486.0</ele><time>2026-04-23T15:19:15.999Z</time></trkpt><trkpt lat="44.9178814511401" lon="9.313478228665103"><ele>488.0</ele><time>2026-04-23T15:19:16.999Z</time></trkpt><trkpt lat="44.91798586775664" lon="9.313550594671584"><ele>490.0</ele><time>2026-04-23T15:19:17.999Z</time></trkpt><trkpt lat="44.91808561847243" lon="9.313608019477494"><ele>492.0</ele><time>2026-04-23T15:19:18.999Z</time></trkpt><trkpt lat="44.91816711902173" lon="9.313656517589749"><ele>494.0</ele><time>2026-04-23T15:19:19.999Z</time></trkpt><trkpt lat="44.91822279006583" lon="9.313703200655748"><ele>493.99999999999994</ele><time>2026-04-23T15:19:20.999Z</time></trkpt><trkpt lat="44.91827878318184" lon="9.31376802203527"><ele>494.0</ele><time>2026-04-23T15:19:21.999Z</time></trkpt><trkpt lat="44.91834853715723" lon="9.313833113821934"><ele>494.0</ele><time>2026-04-23T15:19:22.999Z</time></trkpt><trkpt lat="44.91840719304389" lon="9.313877309610575"><ele>494.0</ele><time>2026-04-23T15:19:23.999Z</time></trkpt><trkpt lat="44.918518582654315" lon="9.313876585501994"><ele>493.99999999999994</ele><time>2026-04-23T15:19:25.999Z</time></trkpt><trkpt lat="44.91859322972982" lon="9.313891326659016"><ele>494.0</ele><time>2026-04-23T15:19:26.999Z</time></trkpt><trkpt lat="44.91867002637127" lon="9.313899410962215"><ele>494.8333333333333</ele><time>2026-04-23T15:19:27.999Z</time></trkpt><trkpt lat="44.91873407800943" lon="9.31389642886908"><ele>495.66666666666663</ele><time>2026-04-23T15:19:28.999Z</time></trkpt><trkpt lat="44.91883273744788" lon="9.313932626401572"><ele>496.5</ele><time>2026-04-23T15:19:30.999Z</time></trkpt><trkpt lat="44.918896713876315" lon="9.313873829567976"><ele>497.33333333333337</ele><time>2026-04-23T15:19:32.999Z</time></trkpt><trkpt lat="44.918962858010495" lon="9.313868199936834"><ele>498.1666666666667</ele><time>2026-04-23T15:19:38.999Z</time></trkpt><trkpt lat="44.919065845380196" lon="9.313879599613038"><ele>499.0</ele><time>2026-04-23T15:19:41.999Z</time></trkpt><trkpt lat="44.91915075886493" lon="9.313889475174635"><ele>500.8571428571429</ele><time>2026-04-23T15:19:45.999Z</time></trkpt><trkpt lat="44.91921368817878" lon="9.313915690285162"><ele>502.7142857142857</ele><time>2026-04-23T15:19:47.999Z</time></trkpt><trkpt lat="44.91926733562428" lon="9.313973966698754"><ele>504.57142857142856</ele><time>2026-04-23T15:19:49.999Z</time></trkpt><trkpt lat="44.91932604403008" lon="9.314044086242586"><ele>506.42857142857144</ele><time>2026-04-23T15:19:51.999Z</time></trkpt><trkpt lat="44.91932930204079" lon="9.314143325331921"><ele>508.2857142857142</ele><time>2026-04-23T15:19:53.999Z</time></trkpt><trkpt lat="44.91928932539645" lon="9.314245926708924"><ele>510.1428571428571</ele><time>2026-04-23T15:19:55.999Z</time></trkpt><trkpt lat="44.9193089296876" lon="9.314343680140349"><ele>512.0</ele><time>2026-04-23T15:19:57.999Z</time></trkpt><trkpt lat="44.91938992914981" lon="9.31438686435698"><ele>512.8333333333333</ele><time>2026-04-23T15:19:59.999Z</time></trkpt><trkpt lat="44.919454755774645" lon="9.314425330009541"><ele>513.6666666666666</ele><time>2026-04-23T15:20:02.998Z</time></trkpt><trkpt lat="44.9195603725899" lon="9.31452325779764"><ele>514.5</ele><time>2026-04-23T15:20:04.998Z</time></trkpt><trkpt lat="44.919630127511994" lon="9.314563402136306"><ele>515.3333333333334</ele><time>2026-04-23T15:20:06.998Z</time></trkpt><trkpt lat="44.919696971600395" lon="9.314613095773453"><ele>516.1666666666667</ele><time>2026-04-23T15:20:08.998Z</time></trkpt><trkpt lat="44.91978027872966" lon="9.314669712482134"><ele>517.0</ele><time>2026-04-23T15:20:11.998Z</time></trkpt><trkpt lat="44.919844653469205" lon="9.314760918043199"><ele>517.5</ele><time>2026-04-23T15:20:13.998Z</time></trkpt><trkpt lat="44.919914110527216" lon="9.314875421248047"><ele>518.0</ele><time>2026-04-23T15:20:15.998Z</time></trkpt><trkpt lat="44.91997431951738" lon="9.314957483830305"><ele>518.5</ele><time>2026-04-23T15:20:17.998Z</time></trkpt><trkpt lat="44.92005417804042" lon="9.315034191383843"><ele>519.0</ele><time>2026-04-23T15:20:19.998Z</time></trkpt><trkpt lat="44.92011915042908" lon="9.3151030445444"><ele>519.5</ele><time>2026-04-23T15:20:21.998Z</time></trkpt><trkpt lat="44.920194549949045" lon="9.315113781592297"><ele>520.0</ele><time>2026-04-23T15:20:23.998Z</time></trkpt><trkpt lat="44.920260795740475" lon="9.315129353125869"><ele>520.0</ele><time>2026-04-23T15:20:37Z</time></trkpt><trkpt lat="44.920340810592435" lon="9.315027457372048"><ele>520.0</ele><time>2026-04-23T15:20:40Z</time></trkpt><trkpt lat="44.92037886986184" lon="9.314955049590132"><ele>520.0</ele><time>2026-04-23T15:20:41Z</time></trkpt><trkpt lat="44.92045110022088" lon="9.314859332803593"><ele>520.0</ele><time>2026-04-23T15:20:43Z</time></trkpt><trkpt lat="44.92052900547832" lon="9.31479581661018"><ele>520.0</ele><time>2026-04-23T15:20:45Z</time></trkpt><trkpt lat="44.92065404917751" lon="9.314706696616787"><ele>520.3333333333334</ele><time>2026-04-23T15:20:47Z</time></trkpt><trkpt lat="44.92073679864019" lon="9.314647783490768"><ele>520.6666666666667</ele><time>2026-04-23T15:20:48Z</time></trkpt><trkpt lat="44.92082056997916" lon="9.314595614095142"><ele>521.0</ele><time>2026-04-23T15:20:49Z</time></trkpt><trkpt lat="44.92090145072126" lon="9.31454986981792"><ele>521.3333333333334</ele><time>2026-04-23T15:20:50Z</time></trkpt><trkpt lat="44.920977954514825" lon="9.314507915910003"><ele>521.6666666666666</ele><time>2026-04-23T15:20:51Z</time></trkpt><trkpt lat="44.92105250902952" lon="9.31446823575238"><ele>522.0</ele><time>2026-04-23T15:20:52Z</time></trkpt><trkpt lat="44.92111393371553" lon="9.314436842135006"><ele>530.0</ele><time>2026-04-23T15:20:53Z</time></trkpt><trkpt lat="44.921194670846916" lon="9.314379007733598"><ele>530.0</ele><time>2026-04-23T15:20:55Z</time></trkpt><trkpt lat="44.921239624329814" lon="9.314299965561768"><ele>530.0</ele><time>2026-04-23T15:20:57Z</time></trkpt><trkpt lat="44.92120585808641" lon="9.314220599849577"><ele>530.0</ele><time>2026-04-23T15:20:59Z</time></trkpt><trkpt lat="44.921158398160614" lon="9.314279389290451"><ele>530.0</ele><time>2026-04-23T15:21:03Z</time></trkpt></trkseg><trkseg><trkpt lat="44.9211689926171" lon="9.314396469260476"><ele>530.0</ele><time>2026-04-23T15:36:11.999Z</time></trkpt><trkpt lat="44.921086459696475" lon="9.314464736555461"><ele>530.0</ele><time>2026-04-23T15:36:14.999Z</time></trkpt><trkpt lat="44.92099558321318" lon="9.314509175025126"><ele>530.0</ele><time>2026-04-23T15:36:16.999Z</time></trkpt><trkpt lat="44.92091080618757" lon="9.314549933342732"><ele>530.0</ele><time>2026-04-23T15:36:18.999Z</time></trkpt><trkpt lat="44.92081792893112" lon="9.314599048947985"><ele>530.0</ele><time>2026-04-23T15:36:20.999Z</time></trkpt><trkpt lat="44.920747097487045" lon="9.314652839194464"><ele>528.8571428571428</ele><time>2026-04-23T15:36:21.999Z</time></trkpt><trkpt lat="44.920678089222235" lon="9.314696990522762"><ele>527.7142857142857</ele><time>2026-04-23T15:36:22.999Z</time></trkpt><trkpt lat="44.92062144367949" lon="9.314736422210887"><ele>526.5714285714286</ele><time>2026-04-23T15:36:23.999Z</time></trkpt><trkpt lat="44.92056525361871" lon="9.314783495311737"><ele>525.4285714285713</ele><time>2026-04-23T15:36:24.999Z</time></trkpt><trkpt lat="44.92050304291195" lon="9.314838193064077"><ele>524.2857142857142</ele><time>2026-04-23T15:36:25.999Z</time></trkpt><trkpt lat="44.92044000905867" lon="9.314897489815575"><ele>523.1428571428571</ele><time>2026-04-23T15:36:26.999Z</time></trkpt><trkpt lat="44.920384841053654" lon="9.314961381549654"><ele>522.0</ele><time>2026-04-23T15:36:27.999Z</time></trkpt><trkpt lat="44.9203214080244" lon="9.315053065912226"><ele>522.2</ele><time>2026-04-23T15:36:28.999Z</time></trkpt><trkpt lat="44.920281651305444" lon="9.31512612112458"><ele>522.4000000000001</ele><time>2026-04-23T15:36:29.999Z</time></trkpt><trkpt lat="44.920194098751374" lon="9.315245075105114"><ele>522.5999999999999</ele><time>2026-04-23T15:36:31.999Z</time></trkpt><trkpt lat="44.92015312201621" lon="9.315354465890488"><ele>522.8</ele><time>2026-04-23T15:36:32.999Z</time></trkpt><trkpt lat="44.920100921428144" lon="9.315513357549154"><ele>523.0</ele><time>2026-04-23T15:36:33.999Z</time></trkpt><trkpt lat="44.92006441418809" lon="9.315649329635274"><ele>523.0</ele><time>2026-04-23T15:36:34.999Z</time></trkpt><trkpt lat="44.920024737632744" lon="9.315753921885783"><ele>523.0</ele><time>2026-04-23T15:36:35.999Z</time></trkpt><trkpt lat="44.919983648897066" lon="9.315841814337672"><ele>523.0</ele><time>2026-04-23T15:36:36.999Z</time></trkpt><trkpt lat="44.91993607297864" lon="9.315920426280172"><ele>523.0</ele><time>2026-04-23T15:36:37.999Z</time></trkpt><trkpt lat="44.919882029283926" lon="9.316007764315508"><ele>523.0</ele><time>2026-04-23T15:36:38.999Z</time></trkpt><trkpt lat="44.91983173442414" lon="9.316092935642569"><ele>523.0</ele><time>2026-04-23T15:36:39.998Z</time></trkpt><trkpt lat="44.919779348491794" lon="9.316175011232215"><ele>523.0</ele><time>2026-04-23T15:36:40.998Z</time></trkpt><trkpt lat="44.91972940320972" lon="9.316243319006478"><ele>523.0</ele><time>2026-04-23T15:36:41.998Z</time></trkpt><trkpt lat="44.919688263548515" lon="9.316318585567842"><ele>523.0</ele><time>2026-04-23T15:36:42.998Z</time></trkpt><trkpt lat="44.91960862614375" lon="9.316432502037143"><ele>523.0</ele><time>2026-04-23T15:36:44.998Z</time></trkpt><trkpt lat="44.91956640513003" lon="9.316520585917742"><ele>523.0</ele><time>2026-04-23T15:36:47.999Z</time></trkpt><trkpt lat="44.919665206633596" lon="9.316512163783067"><ele>523.0</ele><time>2026-04-23T15:36:53.999Z</time></trkpt><trkpt lat="44.91974166922833" lon="9.316491574385415"><ele>523.0</ele><time>2026-04-23T15:36:54.999Z</time></trkpt><trkpt lat="44.91983560908891" lon="9.316440754095378"><ele>523.0</ele><time>2026-04-23T15:36:55.999Z</time></trkpt><trkpt lat="44.919908590409754" lon="9.316414201259274"><ele>523.0</ele><time>2026-04-23T15:36:56.999Z</time></trkpt><trkpt lat="44.91998875014741" lon="9.316389264337143"><ele>523.0</ele><time>2026-04-23T15:36:57.999Z</time></trkpt><trkpt lat="44.920086784296544" lon="9.316350689045843"><ele>523.0</ele><time>2026-04-23T15:36:58.999Z</time></trkpt><trkpt lat="44.920191132050796" lon="9.316301406508337"><ele>520.5</ele><time>2026-04-23T15:36:59.999Z</time></trkpt><trkpt lat="44.92030278920562" lon="9.316215938631274"><ele>518.0</ele><time>2026-04-23T15:37:00.999Z</time></trkpt><trkpt lat="44.9204096724616" lon="9.31608788666952"><ele>515.5</ele><time>2026-04-23T15:37:01.999Z</time></trkpt><trkpt lat="44.92052170055039" lon="9.31595856166627"><ele>513.0</ele><time>2026-04-23T15:37:02.999Z</time></trkpt><trkpt lat="44.92062042323124" lon="9.315832943673835"><ele>513.0</ele><time>2026-04-23T15:37:03.999Z</time></trkpt><trkpt lat="44.92072000303627" lon="9.315706251048185"><ele>513.0</ele><time>2026-04-23T15:37:04.999Z</time></trkpt><trkpt lat="44.920834024817076" lon="9.315583201782676"><ele>513.0</ele><time>2026-04-23T15:37:05.999Z</time></trkpt><trkpt lat="44.920953018638926" lon="9.315451887022336"><ele>513.0</ele><time>2026-04-23T15:37:06.999Z</time></trkpt><trkpt lat="44.92105727351653" lon="9.31532958827952"><ele>514.75</ele><time>2026-04-23T15:37:07.999Z</time></trkpt><trkpt lat="44.92115489619832" lon="9.315222816749634"><ele>516.5</ele><time>2026-04-23T15:37:08.999Z</time></trkpt><trkpt lat="44.92127117748098" lon="9.315185160359935"><ele>518.25</ele><time>2026-04-23T15:37:09.999Z</time></trkpt><trkpt lat="44.92139798700145" lon="9.315280133914976"><ele>520.0</ele><time>2026-04-23T15:37:10.999Z</time></trkpt><trkpt lat="44.921546917473364" lon="9.315356261358025"><ele>520.0</ele><time>2026-04-23T15:37:11.999Z</time></trkpt><trkpt lat="44.9217011718087" lon="9.315422463913459"><ele>520.0</ele><time>2026-04-23T15:37:12.999Z</time></trkpt><trkpt lat="44.921832695634016" lon="9.315546360232677"><ele>520.0</ele><time>2026-04-23T15:37:13.999Z</time></trkpt><trkpt lat="44.92195027100937" lon="9.315668298518363"><ele>518.25</ele><time>2026-04-23T15:37:14.999Z</time></trkpt><trkpt lat="44.92206233178847" lon="9.315772695280062"><ele>516.5</ele><time>2026-04-23T15:37:15.999Z</time></trkpt><trkpt lat="44.92217926645641" lon="9.315881348102335"><ele>514.75</ele><time>2026-04-23T15:37:16.999Z</time></trkpt><trkpt lat="44.92230014254839" lon="9.315968915823003"><ele>513.0</ele><time>2026-04-23T15:37:17.999Z</time></trkpt><trkpt lat="44.92241918523989" lon="9.316018981894617"><ele>513.0</ele><time>2026-04-23T15:37:18.999Z</time></trkpt><trkpt lat="44.92253965383178" lon="9.315994258943915"><ele>513.0</ele><time>2026-04-23T15:37:19.999Z</time></trkpt><trkpt lat="44.92266172456115" lon="9.315920731986617"><ele>513.0</ele><time>2026-04-23T15:37:20.999Z</time></trkpt><trkpt lat="44.922791636269345" lon="9.31587671366865"><ele>513.0</ele><time>2026-04-23T15:37:21.999Z</time></trkpt><trkpt lat="44.92293058622692" lon="9.315824612689402"><ele>514.5</ele><time>2026-04-23T15:37:22.999Z</time></trkpt><trkpt lat="44.92308421790073" lon="9.31576596298192"><ele>516.0</ele><time>2026-04-23T15:37:23.999Z</time></trkpt><trkpt lat="44.92323215159651" lon="9.315715396562299"><ele>517.5</ele><time>2026-04-23T15:37:24.999Z</time></trkpt><trkpt lat="44.92336712456974" lon="9.315688848150389"><ele>519.0</ele><time>2026-04-23T15:37:25.999Z</time></trkpt><trkpt lat="44.92349466997032" lon="9.315706286233391"><ele>521.0</ele><time>2026-04-23T15:37:26.999Z</time></trkpt><trkpt lat="44.92362423754071" lon="9.315767776427819"><ele>523.0</ele><time>2026-04-23T15:37:27.999Z</time></trkpt><trkpt lat="44.92374248022704" lon="9.315863799269732"><ele>525.0</ele><time>2026-04-23T15:37:28.999Z</time></trkpt><trkpt lat="44.923819440666016" lon="9.316012420492566"><ele>527.0</ele><time>2026-04-23T15:37:29.999Z</time></trkpt><trkpt lat="44.9239062887712" lon="9.31618446009677"><ele>527.0</ele><time>2026-04-23T15:37:30.999Z</time></trkpt><trkpt lat="44.92400704244529" lon="9.316356360987127"><ele>527.0</ele><time>2026-04-23T15:37:31.999Z</time></trkpt><trkpt lat="44.924111193397565" lon="9.316488910801036"><ele>527.0</ele><time>2026-04-23T15:37:32.999Z</time></trkpt><trkpt lat="44.92421523690357" lon="9.31661653083111"><ele>527.0</ele><time>2026-04-23T15:37:33.999Z</time></trkpt><trkpt lat="44.92432252203849" lon="9.31670598355125"><ele>527.6</ele><time>2026-04-23T15:37:34.999Z</time></trkpt><trkpt lat="44.92440412567208" lon="9.316803684243018"><ele>528.2</ele><time>2026-04-23T15:37:35.999Z</time></trkpt><trkpt lat="44.92445897455531" lon="9.31690104946692"><ele>528.8</ele><time>2026-04-23T15:37:36.999Z</time></trkpt><trkpt lat="44.92450074771068" lon="9.317017564195543"><ele>529.4</ele><time>2026-04-23T15:37:37.999Z</time></trkpt><trkpt lat="44.92441599573331" lon="9.317166035013516"><ele>530.0</ele><time>2026-04-23T15:37:38.999Z</time></trkpt><trkpt lat="44.92438818257519" lon="9.317346998044865"><ele>530.0</ele><time>2026-04-23T15:37:39.999Z</time></trkpt><trkpt lat="44.924372797477496" lon="9.317557655256497"><ele>530.0</ele><time>2026-04-23T15:37:40.999Z</time></trkpt><trkpt lat="44.92434734190512" lon="9.317744027662112"><ele>530.0</ele><time>2026-04-23T15:37:41.999Z</time></trkpt><trkpt lat="44.924337402105834" lon="9.317905367362467"><ele>530.0</ele><time>2026-04-23T15:37:42.999Z</time></trkpt><trkpt lat="44.924357949575636" lon="9.318032534040348"><ele>530.0</ele><time>2026-04-23T15:37:43.999Z</time></trkpt><trkpt lat="44.92442371165393" lon="9.318115603749757"><ele>530.0</ele><time>2026-04-23T15:37:44.999Z</time></trkpt><trkpt lat="44.924518975867606" lon="9.318145068829786"><ele>530.0</ele><time>2026-04-23T15:37:45.999Z</time></trkpt><trkpt lat="44.924623473292066" lon="9.31811974211696"><ele>530.0</ele><time>2026-04-23T15:37:46.999Z</time></trkpt><trkpt lat="44.9247321803218" lon="9.3180512923921"><ele>530.0</ele><time>2026-04-23T15:37:47.999Z</time></trkpt><trkpt lat="44.924844014161565" lon="9.317982055665286"><ele>530.0</ele><time>2026-04-23T15:37:48.999Z</time></trkpt><trkpt lat="44.9249532834816" lon="9.3180166215771"><ele>530.0</ele><time>2026-04-23T15:37:49.999Z</time></trkpt><trkpt lat="44.925071374576" lon="9.318061681580453"><ele>530.0</ele><time>2026-04-23T15:37:50.999Z</time></trkpt><trkpt lat="44.92519019237927" lon="9.318070244502122"><ele>530.0</ele><time>2026-04-23T15:37:51.999Z</time></trkpt><trkpt lat="44.925319255103545" lon="9.318101680182002"><ele>527.75</ele><time>2026-04-23T15:37:52.999Z</time></trkpt><trkpt lat="44.92545655586793" lon="9.318118230184421"><ele>525.5</ele><time>2026-04-23T15:37:53.999Z</time></trkpt><trkpt lat="44.92558528962168" lon="9.318136669549386"><ele>523.25</ele><time>2026-04-23T15:37:54.999Z</time></trkpt><trkpt lat="44.925707914790245" lon="9.318172127584706"><ele>521.0</ele><time>2026-04-23T15:37:55.999Z</time></trkpt><trkpt lat="44.92580541818298" lon="9.318255219474347"><ele>521.0</ele><time>2026-04-23T15:37:56.999Z</time></trkpt><trkpt lat="44.92588785365091" lon="9.318362339277106"><ele>521.0</ele><time>2026-04-23T15:37:57.999Z</time></trkpt><trkpt lat="44.92596395388103" lon="9.318458619878646"><ele>521.0</ele><time>2026-04-23T15:37:58.999Z</time></trkpt><trkpt lat="44.92603976129834" lon="9.318493224133134"><ele>521.0</ele><time>2026-04-23T15:37:59.999Z</time></trkpt><trkpt lat="44.926109196613545" lon="9.318474005125847"><ele>521.0</ele><time>2026-04-23T15:38:00.999Z</time></trkpt><trkpt lat="44.92619126679172" lon="9.318406929384988"><ele>520.6</ele><time>2026-04-23T15:38:01.999Z</time></trkpt><trkpt lat="44.92624809343211" lon="9.318275519139751"><ele>520.2</ele><time>2026-04-23T15:38:02.999Z</time></trkpt><trkpt lat="44.92629837862662" lon="9.3181656374884"><ele>519.8</ele><time>2026-04-23T15:38:03.999Z</time></trkpt><trkpt lat="44.926338047818305" lon="9.318076131498087"><ele>519.4</ele><time>2026-04-23T15:38:04.999Z</time></trkpt><trkpt lat="44.92638170064606" lon="9.317973874297635"><ele>519.0</ele><time>2026-04-23T15:38:05.999Z</time></trkpt><trkpt lat="44.92643391116576" lon="9.317865325334408"><ele>521.2</ele><time>2026-04-23T15:38:06.999Z</time></trkpt><trkpt lat="44.92650993425966" lon="9.31779770996586"><ele>523.4</ele><time>2026-04-23T15:38:07.999Z</time></trkpt><trkpt lat="44.92659290613559" lon="9.317745549958275"><ele>525.6</ele><time>2026-04-23T15:38:08.999Z</time></trkpt><trkpt lat="44.92669555627213" lon="9.317760294073173"><ele>527.8</ele><time>2026-04-23T15:38:09.999Z</time></trkpt><trkpt lat="44.926795522336896" lon="9.317809989922994"><ele>530.0</ele><time>2026-04-23T15:38:10.999Z</time></trkpt><trkpt lat="44.926880937327816" lon="9.317919856214974"><ele>529.6666666666666</ele><time>2026-04-23T15:38:11.999Z</time></trkpt><trkpt lat="44.92695683342707" lon="9.318037599775417"><ele>529.3333333333333</ele><time>2026-04-23T15:38:12.999Z</time></trkpt><trkpt lat="44.92702131008959" lon="9.318126091942759"><ele>529.0</ele><time>2026-04-23T15:38:13.999Z</time></trkpt><trkpt lat="44.92705579238841" lon="9.318211765416608"><ele>528.6666666666666</ele><time>2026-04-23T15:38:15.999Z</time></trkpt><trkpt lat="44.92712304627031" lon="9.318301558056538"><ele>528.3333333333334</ele><time>2026-04-23T15:38:41.999Z</time></trkpt><trkpt lat="44.92717439260074" lon="9.31838771472642"><ele>528.0</ele><time>2026-04-23T15:38:42.999Z</time></trkpt><trkpt lat="44.92724523989255" lon="9.3185072102109"><ele>528.0</ele><time>2026-04-23T15:38:43.999Z</time></trkpt><trkpt lat="44.92733092767627" lon="9.31865352668101"><ele>528.0</ele><time>2026-04-23T15:38:44.999Z</time></trkpt><trkpt lat="44.927417770410855" lon="9.318803989394276"><ele>528.0</ele><time>2026-04-23T15:38:45.999Z</time></trkpt><trkpt lat="44.927509696520964" lon="9.31894379448478"><ele>528.0</ele><time>2026-04-23T15:38:46.999Z</time></trkpt><trkpt lat="44.927584764230346" lon="9.319069154400838"><ele>529.6</ele><time>2026-04-23T15:38:47.999Z</time></trkpt><trkpt lat="44.92765965382787" lon="9.319165100655518"><ele>531.1999999999999</ele><time>2026-04-23T15:38:48.999Z</time></trkpt><trkpt lat="44.92774064843711" lon="9.319219898248265"><ele>532.8</ele><time>2026-04-23T15:38:49.998Z</time></trkpt><trkpt lat="44.92783431913296" lon="9.319226276226178"><ele>534.4</ele><time>2026-04-23T15:38:50.998Z</time></trkpt><trkpt lat="44.92793641296859" lon="9.319172238007924"><ele>536.0</ele><time>2026-04-23T15:38:51.999Z</time></trkpt><trkpt lat="44.92804024173081" lon="9.319094957025927"><ele>536.0</ele><time>2026-04-23T15:38:52.999Z</time></trkpt><trkpt lat="44.92815090515704" lon="9.31908056525937"><ele>536.0</ele><time>2026-04-23T15:38:53.999Z</time></trkpt><trkpt lat="44.92825067176411" lon="9.31910859049684"><ele>536.0</ele><time>2026-04-23T15:38:54.999Z</time></trkpt><trkpt lat="44.92832793044101" lon="9.31920661631447"><ele>536.0</ele><time>2026-04-23T15:38:55.999Z</time></trkpt><trkpt lat="44.928399351579294" lon="9.319348028200018"><ele>536.0</ele><time>2026-04-23T15:38:56.999Z</time></trkpt><trkpt lat="44.92849513869476" lon="9.31949842546636"><ele>538.0</ele><time>2026-04-23T15:38:57.999Z</time></trkpt><trkpt lat="44.9285734836658" lon="9.319662556927275"><ele>540.0</ele><time>2026-04-23T15:38:58.999Z</time></trkpt><trkpt lat="44.9286514406871" lon="9.319798558238768"><ele>542.0</ele><time>2026-04-23T15:38:59.999Z</time></trkpt><trkpt lat="44.92872394569602" lon="9.319930370496753"><ele>544.0</ele><time>2026-04-23T15:39:00.999Z</time></trkpt><trkpt lat="44.92880723076352" lon="9.320044461087884"><ele>544.0</ele><time>2026-04-23T15:39:01.999Z</time></trkpt><trkpt lat="44.92890270681176" lon="9.320145014089642"><ele>544.0</ele><time>2026-04-23T15:39:02.999Z</time></trkpt><trkpt lat="44.929002980045055" lon="9.320216256433"><ele>544.0</ele><time>2026-04-23T15:39:03.999Z</time></trkpt><trkpt lat="44.9290949109304" lon="9.320290078255507"><ele>544.0</ele><time>2026-04-23T15:39:04.999Z</time></trkpt><trkpt lat="44.92918068080028" lon="9.320358455167494"><ele>544.0</ele><time>2026-04-23T15:39:05.999Z</time></trkpt><trkpt lat="44.92927084193573" lon="9.320405165091328"><ele>543.8</ele><time>2026-04-23T15:39:06.999Z</time></trkpt><trkpt lat="44.92936014680055" lon="9.32039854393354"><ele>543.5999999999999</ele><time>2026-04-23T15:39:07.999Z</time></trkpt><trkpt lat="44.929438647880005" lon="9.320325715611801"><ele>543.4</ele><time>2026-04-23T15:39:08.999Z</time></trkpt><trkpt lat="44.92949003078618" lon="9.320191310043155"><ele>543.1999999999999</ele><time>2026-04-23T15:39:09.999Z</time></trkpt><trkpt lat="44.92954271233918" lon="9.320047684147212"><ele>543.0</ele><time>2026-04-23T15:39:10.999Z</time></trkpt><trkpt lat="44.92960503309223" lon="9.31989217474895"><ele>545.75</ele><time>2026-04-23T15:39:11.999Z</time></trkpt><trkpt lat="44.929647458399394" lon="9.319725281169559"><ele>548.5</ele><time>2026-04-23T15:39:12.999Z</time></trkpt><trkpt lat="44.92969974346443" lon="9.319569337111814"><ele>551.25</ele><time>2026-04-23T15:39:13.999Z</time></trkpt><trkpt lat="44.92977858766544" lon="9.319449957416174"><ele>554.0</ele><time>2026-04-23T15:39:14.999Z</time></trkpt><trkpt lat="44.92986327533575" lon="9.31935255950969"><ele>554.0</ele><time>2026-04-23T15:39:15.999Z</time></trkpt><trkpt lat="44.92996474102648" lon="9.319284371464693"><ele>554.0</ele><time>2026-04-23T15:39:16.999Z</time></trkpt><trkpt lat="44.93007603706206" lon="9.319233044358683"><ele>554.0</ele><time>2026-04-23T15:39:17.999Z</time></trkpt><trkpt lat="44.93017911562655" lon="9.319238331888876"><ele>554.0</ele><time>2026-04-23T15:39:18.999Z</time></trkpt><trkpt lat="44.9302853972074" lon="9.31925949074908"><ele>554.0</ele><time>2026-04-23T15:39:19.999Z</time></trkpt><trkpt lat="44.93040471915885" lon="9.319297058670253"><ele>556.0</ele><time>2026-04-23T15:39:20.999Z</time></trkpt><trkpt lat="44.93052750594649" lon="9.31933472185585"><ele>558.0</ele><time>2026-04-23T15:39:21.999Z</time></trkpt><trkpt lat="44.93064748380955" lon="9.31937192676302"><ele>560.0</ele><time>2026-04-23T15:39:22.999Z</time></trkpt><trkpt lat="44.93076107728033" lon="9.319404768706903"><ele>562.0</ele><time>2026-04-23T15:39:23.999Z</time></trkpt><trkpt lat="44.93086017346123" lon="9.319435185364437"><ele>561.3333333333334</ele><time>2026-04-23T15:39:24.999Z</time></trkpt><trkpt lat="44.930936613880476" lon="9.319474358465333"><ele>560.6666666666667</ele><time>2026-04-23T15:39:25.999Z</time></trkpt><trkpt lat="44.93100342475295" lon="9.319521224709963"><ele>560.0</ele><time>2026-04-23T15:39:26.999Z</time></trkpt><trkpt lat="44.93104946264474" lon="9.319591592271864"><ele>559.3333333333334</ele><time>2026-04-23T15:39:27.999Z</time></trkpt><trkpt lat="44.931086753211616" lon="9.319745545018964"><ele>558.6666666666666</ele><time>2026-04-23T15:39:29.999Z</time></trkpt><trkpt lat="44.93112151708881" lon="9.319822988479197"><ele>558.0</ele><time>2026-04-23T15:39:30.999Z</time></trkpt><trkpt lat="44.931147041820445" lon="9.319977672877862"><ele>558.0</ele><time>2026-04-23T15:39:32.999Z</time></trkpt><trkpt lat="44.93119991360219" lon="9.320086101617806"><ele>558.0</ele><time>2026-04-23T15:39:34.999Z</time></trkpt><trkpt lat="44.931230196925746" lon="9.320172189393032"><ele>558.0</ele><time>2026-04-23T15:39:36.999Z</time></trkpt><trkpt lat="44.9313345589161" lon="9.32015782872283"><ele>558.0</ele><time>2026-04-23T15:39:40.999Z</time></trkpt><trkpt lat="44.931409837667594" lon="9.320134150997404"><ele>558.0</ele><time>2026-04-23T15:39:42.999Z</time></trkpt><trkpt lat="44.931487157686135" lon="9.320105255834996"><ele>558.0</ele><time>2026-04-23T15:39:44.999Z</time></trkpt><trkpt lat="44.93155506932753" lon="9.320086855759298"><ele>558.0</ele><time>2026-04-23T15:39:46.999Z</time></trkpt><trkpt lat="44.931243268086945" lon="9.320017513205167"><ele>558.0</ele><time>2026-04-23T15:39:56.999Z</time></trkpt><trkpt lat="44.931341515606924" lon="9.320092910108881"><ele>558.0</ele><time>2026-04-23T15:39:59.999Z</time></trkpt><trkpt lat="44.931276421994475" lon="9.320110863356883"><ele>558.0</ele><time>2026-04-23T15:40:02.999Z</time></trkpt><trkpt lat="44.93120669703648" lon="9.320050995281807"><ele>558.0</ele><time>2026-04-23T15:40:21.999Z</time></trkpt><trkpt lat="44.93118068108868" lon="9.319958093411397"><ele>558.0</ele><time>2026-04-23T15:40:23.999Z</time></trkpt><trkpt lat="44.931163313155665" lon="9.31986496132451"><ele>558.0</ele><time>2026-04-23T15:40:25.999Z</time></trkpt><trkpt lat="44.93114183277869" lon="9.319759400102612"><ele>558.0</ele><time>2026-04-23T15:40:28.999Z</time></trkpt><trkpt lat="44.931141870657946" lon="9.319884053480862"><ele>558.0</ele><time>2026-04-23T15:40:33.999Z</time></trkpt><trkpt lat="44.93118283544242" lon="9.32002346220946"><ele>558.0</ele><time>2026-04-23T15:40:35.999Z</time></trkpt><trkpt lat="44.931204257057814" lon="9.320110159237727"><ele>558.0</ele><time>2026-04-23T15:40:37.999Z</time></trkpt><trkpt lat="44.93125865512078" lon="9.320060749082318"><ele>558.0</ele><time>2026-04-23T15:40:40.999Z</time></trkpt><trkpt lat="44.93124869018508" lon="9.319950863489526"><ele>558.0</ele><time>2026-04-23T15:40:42.999Z</time></trkpt><trkpt lat="44.931255701918516" lon="9.31982866907974"><ele>558.0</ele><time>2026-04-23T15:40:44.999Z</time></trkpt><trkpt lat="44.931324512219554" lon="9.319721400637652"><ele>558.0</ele><time>2026-04-23T15:40:46.999Z</time></trkpt><trkpt lat="44.93138677819538" lon="9.319578990782917"><ele>560.4</ele><time>2026-04-23T15:40:48.999Z</time></trkpt><trkpt lat="44.93145383858653" lon="9.319465740611399"><ele>562.8</ele><time>2026-04-23T15:40:50.999Z</time></trkpt><trkpt lat="44.93149915959535" lon="9.319344225846372"><ele>565.2</ele><time>2026-04-23T15:40:52.999Z</time></trkpt><trkpt lat="44.931550544041336" lon="9.319215501553101"><ele>567.6</ele><time>2026-04-23T15:40:54.999Z</time></trkpt><trkpt lat="44.93160022316887" lon="9.319078317911346"><ele>570.0</ele><time>2026-04-23T15:40:56.999Z</time></trkpt><trkpt lat="44.93165899512772" lon="9.318958288324195"><ele>570.3333333333334</ele><time>2026-04-23T15:40:59Z</time></trkpt><trkpt lat="44.93170815712449" lon="9.31882936309356"><ele>570.6666666666666</ele><time>2026-04-23T15:41:02Z</time></trkpt><trkpt lat="44.93172952266951" lon="9.318693418921288"><ele>571.0</ele><time>2026-04-23T15:41:04Z</time></trkpt><trkpt lat="44.931731340312766" lon="9.31857743032617"><ele>571.3333333333333</ele><time>2026-04-23T15:41:06Z</time></trkpt><trkpt lat="44.931752064217235" lon="9.318465102577376"><ele>571.6666666666666</ele><time>2026-04-23T15:41:08Z</time></trkpt><trkpt lat="44.93174262295192" lon="9.318557294222746"><ele>572.0</ele><time>2026-04-23T15:41:23Z</time></trkpt><trkpt lat="44.93173329137184" lon="9.318657109553225"><ele>572.0</ele><time>2026-04-23T15:41:28Z</time></trkpt><trkpt lat="44.93172963619533" lon="9.318772951475468"><ele>572.0</ele><time>2026-04-23T15:41:32Z</time></trkpt><trkpt lat="44.93169860681827" lon="9.318870720793228"><ele>572.0</ele><time>2026-04-23T15:41:35Z</time></trkpt><trkpt lat="44.931699777138064" lon="9.31896736041933"><ele>572.0</ele><time>2026-04-23T15:41:41Z</time></trkpt><trkpt lat="44.93172566991712" lon="9.318872579966953"><ele>572.0</ele><time>2026-04-23T15:41:46Z</time></trkpt><trkpt lat="44.931719205087624" lon="9.318739921444756"><ele>572.0</ele><time>2026-04-23T15:41:49Z</time></trkpt><trkpt lat="44.931725697613984" lon="9.318618134726108"><ele>572.0</ele><time>2026-04-23T15:41:51Z</time></trkpt><trkpt lat="44.93174185638497" lon="9.318491376615103"><ele>572.0</ele><time>2026-04-23T15:41:53Z</time></trkpt><trkpt lat="44.93177269620185" lon="9.318362404733847"><ele>572.0</ele><time>2026-04-23T15:41:55Z</time></trkpt><trkpt lat="44.93178906663387" lon="9.318201520448804"><ele>572.0</ele><time>2026-04-23T15:41:57Z</time></trkpt><trkpt lat="44.93177436911547" lon="9.31803697087339"><ele>572.0</ele><time>2026-04-23T15:41:59Z</time></trkpt><trkpt lat="44.9317588722126" lon="9.317882852717505"><ele>574.6</ele><time>2026-04-23T15:42:01Z</time></trkpt><trkpt lat="44.931732114117274" lon="9.317759017018872"><ele>577.2</ele><time>2026-04-23T15:42:03Z</time></trkpt><trkpt lat="44.931673832642346" lon="9.317666922590671"><ele>579.8</ele><time>2026-04-23T15:42:05Z</time></trkpt><trkpt lat="44.93158225047592" lon="9.317561839052292"><ele>582.4</ele><time>2026-04-23T15:42:07Z</time></trkpt><trkpt lat="44.931524824185104" lon="9.317520623086684"><ele>585.0</ele><time>2026-04-23T15:42:08Z</time></trkpt><trkpt lat="44.93141647967097" lon="9.317450734809606"><ele>586.2</ele><time>2026-04-23T15:42:10Z</time></trkpt><trkpt lat="44.93131903424616" lon="9.317390405586462"><ele>587.4</ele><time>2026-04-23T15:42:12Z</time></trkpt><trkpt lat="44.93121810411751" lon="9.317336817728354"><ele>588.6</ele><time>2026-04-23T15:42:14Z</time></trkpt><trkpt lat="44.931129883526545" lon="9.317259681673033"><ele>589.8</ele><time>2026-04-23T15:42:16Z</time></trkpt><trkpt lat="44.931178900414345" lon="9.317327100827882"><ele>591.0</ele><time>2026-04-23T15:42:24Z</time></trkpt><trkpt lat="44.931243862926785" lon="9.317352227961287"><ele>591.0</ele><time>2026-04-23T15:42:25Z</time></trkpt><trkpt lat="44.93133735374887" lon="9.317439183841595"><ele>591.0</ele><time>2026-04-23T15:42:27Z</time></trkpt><trkpt lat="44.93142118751055" lon="9.317493946713933"><ele>591.0</ele><time>2026-04-23T15:42:29Z</time></trkpt><trkpt lat="44.93150550644166" lon="9.317526415561307"><ele>591.0</ele><time>2026-04-23T15:42:30.999Z</time></trkpt><trkpt lat="44.93157802773426" lon="9.317587330743814"><ele>591.0</ele><time>2026-04-23T15:42:32.999Z</time></trkpt><trkpt lat="44.93164527031168" lon="9.317647425186706"><ele>591.0</ele><time>2026-04-23T15:42:34.999Z</time></trkpt><trkpt lat="44.9317118604859" lon="9.31770961745425"><ele>591.0</ele><time>2026-04-23T15:42:36.999Z</time></trkpt><trkpt lat="44.93174306245844" lon="9.31780569593484"><ele>591.0</ele><time>2026-04-23T15:42:38.999Z</time></trkpt><trkpt lat="44.93176357646831" lon="9.317938143843469"><ele>591.0</ele><time>2026-04-23T15:42:40.999Z</time></trkpt><trkpt lat="44.93175304651538" lon="9.318088238014239"><ele>591.0</ele><time>2026-04-23T15:42:42.999Z</time></trkpt><trkpt lat="44.931754487548446" lon="9.318232823011918"><ele>588.8333333333334</ele><time>2026-04-23T15:42:44.999Z</time></trkpt><trkpt lat="44.93174996036999" lon="9.318363402614228"><ele>586.6666666666666</ele><time>2026-04-23T15:42:46.999Z</time></trkpt><trkpt lat="44.931727574362206" lon="9.318475764603116"><ele>584.5</ele><time>2026-04-23T15:42:48.999Z</time></trkpt><trkpt lat="44.93170273377794" lon="9.318575966774597"><ele>582.3333333333333</ele><time>2026-04-23T15:42:50.999Z</time></trkpt><trkpt lat="44.93171307587407" lon="9.31867525921473"><ele>580.1666666666666</ele><time>2026-04-23T15:42:53.999Z</time></trkpt><trkpt lat="44.93169590628011" lon="9.318782399416214"><ele>578.0</ele><time>2026-04-23T15:42:57.999Z</time></trkpt><trkpt lat="44.93167139277015" lon="9.318881259664503"><ele>576.6666666666666</ele><time>2026-04-23T15:43:00.999Z</time></trkpt><trkpt lat="44.931641108371906" lon="9.318966933742887"><ele>575.3333333333333</ele><time>2026-04-23T15:43:04Z</time></trkpt><trkpt lat="44.93159113799929" lon="9.31902671685882"><ele>574.0</ele><time>2026-04-23T15:43:06Z</time></trkpt><trkpt lat="44.93154619424862" lon="9.319144851591995"><ele>572.6666666666666</ele><time>2026-04-23T15:43:08Z</time></trkpt><trkpt lat="44.93148536342659" lon="9.319288474576599"><ele>571.3333333333334</ele><time>2026-04-23T15:43:10Z</time></trkpt><trkpt lat="44.93144733810064" lon="9.319372311732486"><ele>570.0</ele><time>2026-04-23T15:43:11Z</time></trkpt><trkpt lat="44.93141009391842" lon="9.319452979649872"><ele>570.0</ele><time>2026-04-23T15:43:12Z</time></trkpt><trkpt lat="44.93137342780306" lon="9.319532395403964"><ele>570.0</ele><time>2026-04-23T15:43:13Z</time></trkpt><trkpt lat="44.931304862874406" lon="9.319672355121254"><ele>570.0</ele><time>2026-04-23T15:43:15Z</time></trkpt><trkpt lat="44.93127024986884" lon="9.31975031653558"><ele>570.0</ele><time>2026-04-23T15:43:16Z</time></trkpt><trkpt lat="44.931234679960966" lon="9.319893056643892"><ele>570.0</ele><time>2026-04-23T15:43:18Z</time></trkpt><trkpt lat="44.93123418471119" lon="9.319988114817633"><ele>570.0</ele><time>2026-04-23T15:43:20Z</time></trkpt><trkpt lat="44.931211885254186" lon="9.320072583815442"><ele>567.0</ele><time>2026-04-23T15:43:25Z</time></trkpt><trkpt lat="44.93139196875929" lon="9.320152060766665"><ele>564.0</ele><time>2026-04-23T15:43:31Z</time></trkpt><trkpt lat="44.93146506463813" lon="9.320125524075523"><ele>561.0</ele><time>2026-04-23T15:43:32Z</time></trkpt><trkpt lat="44.931555604076735" lon="9.320080605986341"><ele>558.0</ele><time>2026-04-23T15:43:33Z</time></trkpt><trkpt lat="44.931644052330746" lon="9.320022085852635"><ele>557.6</ele><time>2026-04-23T15:43:34Z</time></trkpt><trkpt lat="44.93173155705069" lon="9.319925372757751"><ele>557.1999999999999</ele><time>2026-04-23T15:43:35Z</time></trkpt><trkpt lat="44.93182171556385" lon="9.319849163590566"><ele>556.8</ele><time>2026-04-23T15:43:36Z</time></trkpt><trkpt lat="44.93190550460958" lon="9.31975234581686"><ele>556.4</ele><time>2026-04-23T15:43:37Z</time></trkpt><trkpt lat="44.931982752936875" lon="9.31965536935777"><ele>556.0</ele><time>2026-04-23T15:43:38Z</time></trkpt><trkpt lat="44.932049340296686" lon="9.319535470754026"><ele>556.0</ele><time>2026-04-23T15:43:39Z</time></trkpt><trkpt lat="44.93209714632534" lon="9.319356049941657"><ele>556.0</ele><time>2026-04-23T15:43:40Z</time></trkpt><trkpt lat="44.93211223397662" lon="9.319171240764957"><ele>556.0</ele><time>2026-04-23T15:43:41Z</time></trkpt><trkpt lat="44.93211047658387" lon="9.318945339999502"><ele>556.0</ele><time>2026-04-23T15:43:43Z</time></trkpt><trkpt lat="44.93216418707137" lon="9.3188198662588"><ele>558.6</ele><time>2026-04-23T15:43:44Z</time></trkpt><trkpt lat="44.932215314889255" lon="9.318709385688793"><ele>561.2</ele><time>2026-04-23T15:43:45Z</time></trkpt><trkpt lat="44.93227817225418" lon="9.318630378570154"><ele>563.8</ele><time>2026-04-23T15:43:46Z</time></trkpt><trkpt lat="44.932352854548256" lon="9.318569611154832"><ele>566.4</ele><time>2026-04-23T15:43:47Z</time></trkpt><trkpt lat="44.93243731717434" lon="9.318581468226936"><ele>569.0</ele><time>2026-04-23T15:43:48Z</time></trkpt><trkpt lat="44.93255747558628" lon="9.318597997233109"><ele>569.0</ele><time>2026-04-23T15:43:49Z</time></trkpt><trkpt lat="44.93269339211941" lon="9.31858797349335"><ele>569.0</ele><time>2026-04-23T15:43:50Z</time></trkpt><trkpt lat="44.93283083303541" lon="9.318566002310588"><ele>569.0</ele><time>2026-04-23T15:43:51Z</time></trkpt><trkpt lat="44.932970290901" lon="9.31849122326048"><ele>569.0</ele><time>2026-04-23T15:43:52Z</time></trkpt><trkpt lat="44.93309541083829" lon="9.318412218224719"><ele>569.0</ele><time>2026-04-23T15:43:53Z</time></trkpt><trkpt lat="44.93324030160031" lon="9.318338878810156"><ele>569.0</ele><time>2026-04-23T15:43:54Z</time></trkpt><trkpt lat="44.933375857647064" lon="9.318266253189945"><ele>569.0</ele><time>2026-04-23T15:43:55Z</time></trkpt><trkpt lat="44.933497767730216" lon="9.318204997802042"><ele>569.0</ele><time>2026-04-23T15:43:56Z</time></trkpt><trkpt lat="44.93360858032182" lon="9.31815020007204"><ele>570.0</ele><time>2026-04-23T15:43:57Z</time></trkpt><trkpt lat="44.933698542155575" lon="9.318068205351738"><ele>571.0</ele><time>2026-04-23T15:43:58Z</time></trkpt><trkpt lat="44.93376427447382" lon="9.317944154658194"><ele>572.0</ele><time>2026-04-23T15:43:59Z</time></trkpt><trkpt lat="44.93380782230319" lon="9.317792165829237"><ele>573.0</ele><time>2026-04-23T15:44:00Z</time></trkpt><trkpt lat="44.933840957061726" lon="9.317639724639536"><ele>574.0</ele><time>2026-04-23T15:44:01Z</time></trkpt><trkpt lat="44.933872953484226" lon="9.317486346360404"><ele>574.0</ele><time>2026-04-23T15:44:02Z</time></trkpt><trkpt lat="44.933911278170484" lon="9.317347005654316"><ele>574.0</ele><time>2026-04-23T15:44:03Z</time></trkpt><trkpt lat="44.93395014800737" lon="9.317221336500557"><ele>574.0</ele><time>2026-04-23T15:44:04Z</time></trkpt><trkpt lat="44.934001801278015" lon="9.317130061548786"><ele>574.0</ele><time>2026-04-23T15:44:05Z</time></trkpt><trkpt lat="44.934057729801914" lon="9.31706388145411"><ele>574.0</ele><time>2026-04-23T15:44:06Z</time></trkpt><trkpt lat="44.934141164190095" lon="9.317056731617441"><ele>574.0</ele><time>2026-04-23T15:44:07Z</time></trkpt><trkpt lat="44.9342555974132" lon="9.31701750229113"><ele>576.75</ele><time>2026-04-23T15:44:08Z</time></trkpt><trkpt lat="44.93437108545949" lon="9.316946222288914"><ele>579.5</ele><time>2026-04-23T15:44:09Z</time></trkpt><trkpt lat="44.93448673496075" lon="9.316906906488967"><ele>582.25</ele><time>2026-04-23T15:44:10Z</time></trkpt><trkpt lat="44.9346112907509" lon="9.31693568793669"><ele>585.0</ele><time>2026-04-23T15:44:11Z</time></trkpt><trkpt lat="44.934733453354205" lon="9.316946560345217"><ele>585.0</ele><time>2026-04-23T15:44:12Z</time></trkpt><trkpt lat="44.93485889750765" lon="9.316957724794639"><ele>585.0</ele><time>2026-04-23T15:44:13Z</time></trkpt><trkpt lat="44.934975956786346" lon="9.316967218046116"><ele>585.0</ele><time>2026-04-23T15:44:14Z</time></trkpt><trkpt lat="44.9350672886682" lon="9.317003294883222"><ele>585.0</ele><time>2026-04-23T15:44:15Z</time></trkpt><trkpt lat="44.93514650971501" lon="9.317046292439096"><ele>585.0</ele><time>2026-04-23T15:44:16Z</time></trkpt><trkpt lat="44.935209792996076" lon="9.317187719171928"><ele>585.0</ele><time>2026-04-23T15:44:17Z</time></trkpt><trkpt lat="44.93524676661584" lon="9.317357581044357"><ele>585.0</ele><time>2026-04-23T15:44:18Z</time></trkpt><trkpt lat="44.93532463127284" lon="9.317508040549042"><ele>585.0</ele><time>2026-04-23T15:44:19Z</time></trkpt><trkpt lat="44.935403631563574" lon="9.317640823227055"><ele>585.0</ele><time>2026-04-23T15:44:20Z</time></trkpt><trkpt lat="44.93549699172532" lon="9.317748807177635"><ele>585.0</ele><time>2026-04-23T15:44:21Z</time></trkpt><trkpt lat="44.935611643535296" lon="9.317822873354512"><ele>585.0</ele><time>2026-04-23T15:44:22Z</time></trkpt><trkpt lat="44.935732888881184" lon="9.31787169016203"><ele>585.0</ele><time>2026-04-23T15:44:23Z</time></trkpt><trkpt lat="44.93586115723868" lon="9.317941039164186"><ele>585.0</ele><time>2026-04-23T15:44:24Z</time></trkpt><trkpt lat="44.93598848226274" lon="9.317981470306817"><ele>586.6</ele><time>2026-04-23T15:44:25Z</time></trkpt><trkpt lat="44.93610277505424" lon="9.31804370479477"><ele>588.2</ele><time>2026-04-23T15:44:26Z</time></trkpt><trkpt lat="44.936207900360955" lon="9.31808419171906"><ele>589.8</ele><time>2026-04-23T15:44:27Z</time></trkpt><trkpt lat="44.93629639534567" lon="9.318151909335494"><ele>591.4</ele><time>2026-04-23T15:44:28Z</time></trkpt><trkpt lat="44.93637617124337" lon="9.318222691282658"><ele>593.0</ele><time>2026-04-23T15:44:29Z</time></trkpt><trkpt lat="44.93641819681799" lon="9.318329291658465"><ele>593.0</ele><time>2026-04-23T15:44:30Z</time></trkpt><trkpt lat="44.936445347139596" lon="9.318473240840794"><ele>593.0</ele><time>2026-04-23T15:44:31Z</time></trkpt><trkpt lat="44.936513140041" lon="9.318589450090228"><ele>593.0</ele><time>2026-04-23T15:44:32Z</time></trkpt><trkpt lat="44.93659661637028" lon="9.318675334608566"><ele>593.0</ele><time>2026-04-23T15:44:33Z</time></trkpt><trkpt lat="44.93669226046577" lon="9.318726282076765"><ele>593.0</ele><time>2026-04-23T15:44:34Z</time></trkpt><trkpt lat="44.93676917853127" lon="9.3187771425528"><ele>593.4</ele><time>2026-04-23T15:44:35Z</time></trkpt><trkpt lat="44.93682381823916" lon="9.31883371042539"><ele>593.8</ele><time>2026-04-23T15:44:36Z</time></trkpt><trkpt lat="44.93691944751732" lon="9.318894515314753"><ele>594.2</ele><time>2026-04-23T15:44:38Z</time></trkpt><trkpt lat="44.93699047667636" lon="9.318950715934342"><ele>594.6</ele><time>2026-04-23T15:44:41Z</time></trkpt><trkpt lat="44.93695751570171" lon="9.318702816782325"><ele>595.0</ele><time>2026-04-23T15:44:46Z</time></trkpt><trkpt lat="44.936947685423945" lon="9.318569090524836"><ele>597.2</ele><time>2026-04-23T15:44:47Z</time></trkpt><trkpt lat="44.93691848812057" lon="9.318421050521192"><ele>599.4</ele><time>2026-04-23T15:44:48Z</time></trkpt><trkpt lat="44.936871079078365" lon="9.31826989266961"><ele>601.6</ele><time>2026-04-23T15:44:49Z</time></trkpt><trkpt lat="44.93684038918892" lon="9.318115358616707"><ele>603.8</ele><time>2026-04-23T15:44:50Z</time></trkpt><trkpt lat="44.93681628238173" lon="9.317965087318065"><ele>606.0</ele><time>2026-04-23T15:44:51Z</time></trkpt><trkpt lat="44.936777557317704" lon="9.317835699670779"><ele>606.0</ele><time>2026-04-23T15:44:52Z</time></trkpt><trkpt lat="44.936737651894425" lon="9.317705845495688"><ele>606.0</ele><time>2026-04-23T15:44:53Z</time></trkpt><trkpt lat="44.93671405717932" lon="9.317568475208601"><ele>606.0</ele><time>2026-04-23T15:44:53.999Z</time></trkpt><trkpt lat="44.93669508367686" lon="9.317429557627193"><ele>606.0</ele><time>2026-04-23T15:44:54.999Z</time></trkpt><trkpt lat="44.93668748703251" lon="9.317297076779811"><ele>606.0</ele><time>2026-04-23T15:44:55.999Z</time></trkpt><trkpt lat="44.93669268607942" lon="9.317191880682772"><ele>608.0</ele><time>2026-04-23T15:44:56.999Z</time></trkpt><trkpt lat="44.93674646041011" lon="9.317135599004576"><ele>610.0</ele><time>2026-04-23T15:44:57.999Z</time></trkpt><trkpt lat="44.93681621798978" lon="9.317135325971758"><ele>612.0</ele><time>2026-04-23T15:44:58.999Z</time></trkpt><trkpt lat="44.93689306842774" lon="9.317203833584527"><ele>614.0</ele><time>2026-04-23T15:44:59.999Z</time></trkpt><trkpt lat="44.936978793386" lon="9.317279812078942"><ele>616.0</ele><time>2026-04-23T15:45:00.999Z</time></trkpt><trkpt lat="44.93707395708223" lon="9.31739047954092"><ele>616.0</ele><time>2026-04-23T15:45:01.999Z</time></trkpt><trkpt lat="44.93716701920119" lon="9.317518006726326"><ele>616.0</ele><time>2026-04-23T15:45:02.999Z</time></trkpt><trkpt lat="44.937270477665166" lon="9.317610447475266"><ele>616.0</ele><time>2026-04-23T15:45:03.999Z</time></trkpt><trkpt lat="44.937351939538935" lon="9.31771667314852"><ele>616.0</ele><time>2026-04-23T15:45:04.999Z</time></trkpt><trkpt lat="44.93742780693607" lon="9.317807902977645"><ele>616.0</ele><time>2026-04-23T15:45:05.999Z</time></trkpt><trkpt lat="44.93750807597539" lon="9.31786835667427"><ele>616.0</ele><time>2026-04-23T15:45:06.999Z</time></trkpt><trkpt lat="44.93759950236453" lon="9.317893509005003"><ele>616.0</ele><time>2026-04-23T15:45:07.999Z</time></trkpt><trkpt lat="44.937701896872966" lon="9.317889387144463"><ele>616.0</ele><time>2026-04-23T15:45:08.999Z</time></trkpt><trkpt lat="44.93781339226524" lon="9.317877642791297"><ele>616.0</ele><time>2026-04-23T15:45:10.001Z</time></trkpt><trkpt lat="44.93791323379308" lon="9.317878661499167"><ele>617.2</ele><time>2026-04-23T15:45:11.001Z</time></trkpt><trkpt lat="44.938010332418855" lon="9.317889548688196"><ele>618.4000000000001</ele><time>2026-04-23T15:45:12.001Z</time></trkpt><trkpt lat="44.93810649043741" lon="9.317896439118165"><ele>619.6</ele><time>2026-04-23T15:45:13.001Z</time></trkpt><trkpt lat="44.93820768544767" lon="9.31789440670573"><ele>620.8000000000001</ele><time>2026-04-23T15:45:14.001Z</time></trkpt><trkpt lat="44.938311362134584" lon="9.317857727231084"><ele>622.0</ele><time>2026-04-23T15:45:15.001Z</time></trkpt><trkpt lat="44.938421449237275" lon="9.317844570658158"><ele>623.6</ele><time>2026-04-23T15:45:16.001Z</time></trkpt><trkpt lat="44.938533241594385" lon="9.317830711158734"><ele>625.2</ele><time>2026-04-23T15:45:17.001Z</time></trkpt><trkpt lat="44.93864202123125" lon="9.317822072037094"><ele>626.8</ele><time>2026-04-23T15:45:18Z</time></trkpt><trkpt lat="44.9387512455771" lon="9.317802600553664"><ele>628.4</ele><time>2026-04-23T15:45:19Z</time></trkpt><trkpt lat="44.93885649667638" lon="9.31781057300256"><ele>630.0</ele><time>2026-04-23T15:45:20Z</time></trkpt><trkpt lat="44.938961900828204" lon="9.317822808325099"><ele>630.0</ele><time>2026-04-23T15:45:21Z</time></trkpt><trkpt lat="44.93905638337704" lon="9.317847622430204"><ele>630.0</ele><time>2026-04-23T15:45:22Z</time></trkpt><trkpt lat="44.93914474396181" lon="9.317882179281515"><ele>630.0</ele><time>2026-04-23T15:45:23Z</time></trkpt><trkpt lat="44.93921084539903" lon="9.317972827895533"><ele>630.0</ele><time>2026-04-23T15:45:24Z</time></trkpt><trkpt lat="44.93924370820195" lon="9.31811261418508"><ele>630.0</ele><time>2026-04-23T15:45:25Z</time></trkpt><trkpt lat="44.93926357563753" lon="9.31825739921504"><ele>630.3333333333334</ele><time>2026-04-23T15:45:26Z</time></trkpt><trkpt lat="44.93929259267473" lon="9.318374290412164"><ele>630.6666666666666</ele><time>2026-04-23T15:45:27Z</time></trkpt><trkpt lat="44.93933925417387" lon="9.318451355044319"><ele>631.0</ele><time>2026-04-23T15:45:28Z</time></trkpt><trkpt lat="44.93939827348497" lon="9.318491920869564"><ele>631.3333333333333</ele><time>2026-04-23T15:45:29Z</time></trkpt><trkpt lat="44.93950857783728" lon="9.318402145523677"><ele>631.6666666666666</ele><time>2026-04-23T15:45:31Z</time></trkpt><trkpt lat="44.93954737457381" lon="9.318291227186517"><ele>632.0</ele><time>2026-04-23T15:45:32Z</time></trkpt><trkpt lat="44.93956404986618" lon="9.31816082406993"><ele>631.6666666666666</ele><time>2026-04-23T15:45:33Z</time></trkpt><trkpt lat="44.939573365203636" lon="9.318018799245127"><ele>631.3333333333333</ele><time>2026-04-23T15:45:34Z</time></trkpt><trkpt lat="44.93958671125009" lon="9.317897705081212"><ele>631.0</ele><time>2026-04-23T15:45:35Z</time></trkpt><trkpt lat="44.93960622826714" lon="9.317786603891324"><ele>630.6666666666666</ele><time>2026-04-23T15:45:36Z</time></trkpt><trkpt lat="44.9396235889421" lon="9.317693044315295"><ele>630.3333333333334</ele><time>2026-04-23T15:45:37Z</time></trkpt><trkpt lat="44.93967059038662" lon="9.317575284973408"><ele>630.0</ele><time>2026-04-23T15:45:39Z</time></trkpt><trkpt lat="44.93973671762147" lon="9.317550699963961"><ele>630.0</ele><time>2026-04-23T15:45:41Z</time></trkpt><trkpt lat="44.93981897113294" lon="9.317515928791614"><ele>630.0</ele><time>2026-04-23T15:45:45Z</time></trkpt><trkpt lat="44.93992882723408" lon="9.317510409882468"><ele>630.0</ele><time>2026-04-23T15:45:47Z</time></trkpt><trkpt lat="44.940017302318296" lon="9.31749501820675"><ele>630.0</ele><time>2026-04-23T15:45:48Z</time></trkpt><trkpt lat="44.940118926487294" lon="9.317490906244023"><ele>630.0</ele><time>2026-04-23T15:45:49Z</time></trkpt><trkpt lat="44.940223826076114" lon="9.317493552888433"><ele>629.8</ele><time>2026-04-23T15:45:50Z</time></trkpt><trkpt lat="44.940327091507584" lon="9.317481064265005"><ele>629.6</ele><time>2026-04-23T15:45:51Z</time></trkpt><trkpt lat="44.94040982888398" lon="9.317462746849491"><ele>629.4</ele><time>2026-04-23T15:45:52Z</time></trkpt><trkpt lat="44.94049275427169" lon="9.31736546121086"><ele>629.2</ele><time>2026-04-23T15:45:53Z</time></trkpt><trkpt lat="44.94054430684473" lon="9.317261320693278"><ele>629.0</ele><time>2026-04-23T15:45:54Z</time></trkpt><trkpt lat="44.94056153797644" lon="9.31714911616764"><ele>627.6</ele><time>2026-04-23T15:45:55Z</time></trkpt><trkpt lat="44.940549531004564" lon="9.317028701994868"><ele>626.2</ele><time>2026-04-23T15:45:56Z</time></trkpt><trkpt lat="44.940509924647465" lon="9.316918856560052"><ele>624.8000000000001</ele><time>2026-04-23T15:45:57Z</time></trkpt><trkpt lat="44.94046207621966" lon="9.316823662267216"><ele>623.4</ele><time>2026-04-23T15:45:58Z</time></trkpt><trkpt lat="44.94038005996979" lon="9.316724997284748"><ele>622.0</ele><time>2026-04-23T15:45:59Z</time></trkpt><trkpt lat="44.94028934453209" lon="9.316633253019107"><ele>622.0</ele><time>2026-04-23T15:46:00Z</time></trkpt><trkpt lat="44.940210043927436" lon="9.316533607279059"><ele>622.0</ele><time>2026-04-23T15:46:01Z</time></trkpt><trkpt lat="44.9401344814155" lon="9.316445926580352"><ele>622.0</ele><time>2026-04-23T15:46:02Z</time></trkpt><trkpt lat="44.94007132431554" lon="9.316354327258255"><ele>622.0</ele><time>2026-04-23T15:46:03Z</time></trkpt><trkpt lat="44.94002355812919" lon="9.31623071088081"><ele>622.0</ele><time>2026-04-23T15:46:04Z</time></trkpt><trkpt lat="44.93999038152383" lon="9.31607744081858"><ele>621.0</ele><time>2026-04-23T15:46:05Z</time></trkpt><trkpt lat="44.93997218393314" lon="9.315920891354775"><ele>620.0</ele><time>2026-04-23T15:46:06Z</time></trkpt><trkpt lat="44.939959587280946" lon="9.315764834373983"><ele>619.0</ele><time>2026-04-23T15:46:07Z</time></trkpt><trkpt lat="44.939970923662536" lon="9.31560906322014"><ele>618.0</ele><time>2026-04-23T15:46:08Z</time></trkpt><trkpt lat="44.9400021532812" lon="9.315459709618192"><ele>617.0</ele><time>2026-04-23T15:46:09Z</time></trkpt><trkpt lat="44.94000400338325" lon="9.31530014782267"><ele>615.6</ele><time>2026-04-23T15:46:10Z</time></trkpt><trkpt lat="44.94003040647872" lon="9.3151571688852"><ele>614.2</ele><time>2026-04-23T15:46:11Z</time></trkpt><trkpt lat="44.94003087467231" lon="9.315016024596279"><ele>612.8</ele><time>2026-04-23T15:46:12Z</time></trkpt><trkpt lat="44.93999640278507" lon="9.314880796480121"><ele>611.4</ele><time>2026-04-23T15:46:13Z</time></trkpt><trkpt lat="44.93995988111097" lon="9.314752910933676"><ele>610.0</ele><time>2026-04-23T15:46:14Z</time></trkpt><trkpt lat="44.93993090241101" lon="9.31461695753568"><ele>608.0</ele><time>2026-04-23T15:46:15Z</time></trkpt><trkpt lat="44.93991362289284" lon="9.314468012808966"><ele>606.0</ele><time>2026-04-23T15:46:16Z</time></trkpt><trkpt lat="44.939884705278466" lon="9.314329372982453"><ele>604.0</ele><time>2026-04-23T15:46:17Z</time></trkpt><trkpt lat="44.93987907087519" lon="9.314198036245827"><ele>602.0</ele><time>2026-04-23T15:46:18Z</time></trkpt><trkpt lat="44.939874553263" lon="9.314053917091332"><ele>600.0</ele><time>2026-04-23T15:46:19Z</time></trkpt><trkpt lat="44.93986505903392" lon="9.313894147468002"><ele>598.75</ele><time>2026-04-23T15:46:20Z</time></trkpt><trkpt lat="44.93989289958216" lon="9.313718161455846"><ele>597.5</ele><time>2026-04-23T15:46:21Z</time></trkpt><trkpt lat="44.93992039319884" lon="9.313537045548399"><ele>596.25</ele><time>2026-04-23T15:46:22Z</time></trkpt><trkpt lat="44.93994358191569" lon="9.31336929831285"><ele>595.0</ele><time>2026-04-23T15:46:23Z</time></trkpt><trkpt lat="44.93996061709978" lon="9.313210192960783"><ele>593.8</ele><time>2026-04-23T15:46:24Z</time></trkpt><trkpt lat="44.93995249681564" lon="9.313052133186424"><ele>592.6</ele><time>2026-04-23T15:46:25Z</time></trkpt><trkpt lat="44.93994358183252" lon="9.312903544922431"><ele>591.4</ele><time>2026-04-23T15:46:26Z</time></trkpt><trkpt lat="44.93993722514605" lon="9.312760386926062"><ele>590.2</ele><time>2026-04-23T15:46:27Z</time></trkpt><trkpt lat="44.93992727841483" lon="9.312634306882837"><ele>589.0</ele><time>2026-04-23T15:46:28Z</time></trkpt><trkpt lat="44.939906643822894" lon="9.312522258267165"><ele>589.0</ele><time>2026-04-23T15:46:29Z</time></trkpt><trkpt lat="44.939882595467" lon="9.31241551295425"><ele>589.0</ele><time>2026-04-23T15:46:30Z</time></trkpt><trkpt lat="44.93985356613832" lon="9.31232844058958"><ele>589.0</ele><time>2026-04-23T15:46:31Z</time></trkpt><trkpt lat="44.93982966270814" lon="9.312204234185216"><ele>589.0</ele><time>2026-04-23T15:46:33Z</time></trkpt><trkpt lat="44.93981069573075" lon="9.312090399291312"><ele>589.0</ele><time>2026-04-23T15:46:37Z</time></trkpt><trkpt lat="44.93978344266633" lon="9.312002207677233"><ele>589.0</ele><time>2026-04-23T15:46:40Z</time></trkpt><trkpt lat="44.939711631376795" lon="9.311922513890272"><ele>587.2</ele><time>2026-04-23T15:46:41.999Z</time></trkpt><trkpt lat="44.93966523350696" lon="9.311822780744368"><ele>585.4</ele><time>2026-04-23T15:46:42.999Z</time></trkpt><trkpt lat="44.9395732235309" lon="9.31173863094715"><ele>583.6</ele><time>2026-04-23T15:46:43.999Z</time></trkpt><trkpt lat="44.93946577945058" lon="9.311677284235342"><ele>581.8</ele><time>2026-04-23T15:46:44.999Z</time></trkpt><trkpt lat="44.939365000090746" lon="9.31157649112072"><ele>580.0</ele><time>2026-04-23T15:46:45.999Z</time></trkpt><trkpt lat="44.939229277126366" lon="9.31152902326134"><ele>579.0</ele><time>2026-04-23T15:46:46.999Z</time></trkpt><trkpt lat="44.939153232479356" lon="9.311515791805963"><ele>578.0</ele><time>2026-04-23T15:46:47.999Z</time></trkpt><trkpt lat="44.93904754102616" lon="9.3114582607731"><ele>577.0</ele><time>2026-04-23T15:46:48.999Z</time></trkpt><trkpt lat="44.9389619438115" lon="9.311400280885062"><ele>576.0</ele><time>2026-04-23T15:46:49.999Z</time></trkpt><trkpt lat="44.93888863232121" lon="9.311337841948102"><ele>575.0</ele><time>2026-04-23T15:46:50.999Z</time></trkpt><trkpt lat="44.93882672476719" lon="9.31125336387911"><ele>575.0</ele><time>2026-04-23T15:46:51.999Z</time></trkpt><trkpt lat="44.938765487061964" lon="9.311142711332009"><ele>575.0</ele><time>2026-04-23T15:46:52.999Z</time></trkpt><trkpt lat="44.93874904352517" lon="9.310944452942065"><ele>575.0</ele><time>2026-04-23T15:46:53.999Z</time></trkpt><trkpt lat="44.93874320151069" lon="9.31074135478025"><ele>575.0</ele><time>2026-04-23T15:46:54.999Z</time></trkpt><trkpt lat="44.93876088240247" lon="9.31054882714154"><ele>574.5</ele><time>2026-04-23T15:46:55.999Z</time></trkpt><trkpt lat="44.938792859095905" lon="9.310363355681654"><ele>574.0</ele><time>2026-04-23T15:46:56.999Z</time></trkpt><trkpt lat="44.93884802270527" lon="9.310176326181217"><ele>573.5</ele><time>2026-04-23T15:46:57.999Z</time></trkpt><trkpt lat="44.9389079765331" lon="9.309987504602713"><ele>573.0</ele><time>2026-04-23T15:46:58.999Z</time></trkpt><trkpt lat="44.938968491834586" lon="9.309826722617453"><ele>572.25</ele><time>2026-04-23T15:46:59.999Z</time></trkpt><trkpt lat="44.93900522488777" lon="9.30962937132864"><ele>571.5</ele><time>2026-04-23T15:47:00.999Z</time></trkpt><trkpt lat="44.93904885570431" lon="9.30944121951268"><ele>570.75</ele><time>2026-04-23T15:47:01.999Z</time></trkpt><trkpt lat="44.93908438677283" lon="9.309274659046775"><ele>570.0</ele><time>2026-04-23T15:47:02.999Z</time></trkpt><trkpt lat="44.939117256084195" lon="9.309111875458273"><ele>570.0</ele><time>2026-04-23T15:47:03.999Z</time></trkpt><trkpt lat="44.939138867735885" lon="9.30895503979815"><ele>570.0</ele><time>2026-04-23T15:47:04.999Z</time></trkpt><trkpt lat="44.939155440290875" lon="9.308804085065331"><ele>570.0</ele><time>2026-04-23T15:47:05.999Z</time></trkpt><trkpt lat="44.93916303054244" lon="9.308656215045954"><ele>570.0</ele><time>2026-04-23T15:47:06.999Z</time></trkpt><trkpt lat="44.93920759818151" lon="9.308537576264403"><ele>570.0</ele><time>2026-04-23T15:47:07.999Z</time></trkpt><trkpt lat="44.93926444619143" lon="9.308431795382218"><ele>568.5</ele><time>2026-04-23T15:47:08.999Z</time></trkpt><trkpt lat="44.93932703010943" lon="9.30831634290127"><ele>567.0</ele><time>2026-04-23T15:47:09.999Z</time></trkpt><trkpt lat="44.93938938575192" lon="9.30817304977226"><ele>565.5</ele><time>2026-04-23T15:47:10.999Z</time></trkpt><trkpt lat="44.93943735323299" lon="9.308021445683375"><ele>564.0</ele><time>2026-04-23T15:47:11.999Z</time></trkpt><trkpt lat="44.93948544428459" lon="9.307856457271178"><ele>564.0</ele><time>2026-04-23T15:47:12.999Z</time></trkpt><trkpt lat="44.939514922120026" lon="9.307777638772164"><ele>564.0</ele><time>2026-04-23T15:47:13.999Z</time></trkpt><trkpt lat="44.93955055124065" lon="9.307653816317359"><ele>564.0</ele><time>2026-04-23T15:47:14.999Z</time></trkpt><trkpt lat="44.93961589283984" lon="9.30758860965294"><ele>564.0</ele><time>2026-04-23T15:47:16Z</time></trkpt><trkpt lat="44.939739295030506" lon="9.30746984051405"><ele>564.0</ele><time>2026-04-23T15:47:17Z</time></trkpt><trkpt lat="44.93985492815763" lon="9.30735074878813"><ele>564.0</ele><time>2026-04-23T15:47:18Z</time></trkpt><trkpt lat="44.93999224650699" lon="9.307280712816635"><ele>564.0</ele><time>2026-04-23T15:47:19Z</time></trkpt><trkpt lat="44.940112231419995" lon="9.30721081036823"><ele>564.0</ele><time>2026-04-23T15:47:20Z</time></trkpt><trkpt lat="44.94023136206186" lon="9.30715730149751"><ele>564.0</ele><time>2026-04-23T15:47:21Z</time></trkpt><trkpt lat="44.94030152950775" lon="9.307127228451826"><ele>561.3333333333334</ele><time>2026-04-23T15:47:22Z</time></trkpt><trkpt lat="44.94037035979029" lon="9.307083349454999"><ele>558.6666666666666</ele><time>2026-04-23T15:47:23Z</time></trkpt><trkpt lat="44.94043776900668" lon="9.307032295783428"><ele>556.0</ele><time>2026-04-23T15:47:24Z</time></trkpt><trkpt lat="44.940502573971244" lon="9.306973726495483"><ele>553.3333333333333</ele><time>2026-04-23T15:47:25Z</time></trkpt><trkpt lat="44.94050333143388" lon="9.306846820642757"><ele>550.6666666666666</ele><time>2026-04-23T15:47:26Z</time></trkpt><trkpt lat="44.940473571279234" lon="9.306742820337904"><ele>548.0</ele><time>2026-04-23T15:47:27Z</time></trkpt><trkpt lat="44.9404064833326" lon="9.306616005789335"><ele>548.0</ele><time>2026-04-23T15:47:28Z</time></trkpt><trkpt lat="44.9403880755414" lon="9.306424428275017"><ele>548.0</ele><time>2026-04-23T15:47:29Z</time></trkpt><trkpt lat="44.94038059206029" lon="9.306268864168763"><ele>548.0</ele><time>2026-04-23T15:47:30Z</time></trkpt><trkpt lat="44.940415661692676" lon="9.306102298776564"><ele>548.0</ele><time>2026-04-23T15:47:31Z</time></trkpt><trkpt lat="44.94043205310653" lon="9.305970189607258"><ele>549.1999999999999</ele><time>2026-04-23T15:47:32Z</time></trkpt><trkpt lat="44.94044622575896" lon="9.305834030541089"><ele>550.4</ele><time>2026-04-23T15:47:33Z</time></trkpt><trkpt lat="44.94048385916452" lon="9.30570832099688"><ele>551.5999999999999</ele><time>2026-04-23T15:47:34Z</time></trkpt><trkpt lat="44.94053842019875" lon="9.305608859014812"><ele>552.8</ele><time>2026-04-23T15:47:35Z</time></trkpt><trkpt lat="44.940588575488796" lon="9.305502791840969"><ele>554.0</ele><time>2026-04-23T15:47:36Z</time></trkpt><trkpt lat="44.94067327739128" lon="9.305454437521629"><ele>555.0</ele><time>2026-04-23T15:47:37Z</time></trkpt><trkpt lat="44.94073925320017" lon="9.305387647375106"><ele>556.0</ele><time>2026-04-23T15:47:38Z</time></trkpt><trkpt lat="44.94080688041289" lon="9.305318545956919"><ele>557.0</ele><time>2026-04-23T15:47:39Z</time></trkpt><trkpt lat="44.94083290347081" lon="9.30523231842342"><ele>558.0</ele><time>2026-04-23T15:47:40Z</time></trkpt><trkpt lat="44.94085797495686" lon="9.30513601251151"><ele>559.0</ele><time>2026-04-23T15:47:41Z</time></trkpt><trkpt lat="44.94086473993737" lon="9.305017581718454"><ele>560.0</ele><time>2026-04-23T15:47:42Z</time></trkpt><trkpt lat="44.94087222580592" lon="9.304880313078836"><ele>560.0</ele><time>2026-04-23T15:47:43Z</time></trkpt><trkpt lat="44.94087998606309" lon="9.304748555621549"><ele>560.0</ele><time>2026-04-23T15:47:44Z</time></trkpt><trkpt lat="44.940899753015515" lon="9.30459755827102"><ele>560.0</ele><time>2026-04-23T15:47:46Z</time></trkpt><trkpt lat="44.940919601800374" lon="9.304509722831815"><ele>560.0</ele><time>2026-04-23T15:47:47Z</time></trkpt><trkpt lat="44.940947231989924" lon="9.304411752839108"><ele>560.0</ele><time>2026-04-23T15:47:48Z</time></trkpt><trkpt lat="44.94096621712531" lon="9.304300908239158"><ele>560.0</ele><time>2026-04-23T15:47:49Z</time></trkpt><trkpt lat="44.94098323236805" lon="9.304206745109024"><ele>559.0</ele><time>2026-04-23T15:47:50Z</time></trkpt><trkpt lat="44.94094842740133" lon="9.304100098524358"><ele>558.0</ele><time>2026-04-23T15:47:51Z</time></trkpt><trkpt lat="44.94089706840082" lon="9.304005329896254"><ele>557.0</ele><time>2026-04-23T15:47:52Z</time></trkpt><trkpt lat="44.940837414295665" lon="9.303912697603401"><ele>556.0</ele><time>2026-04-23T15:47:53Z</time></trkpt><trkpt lat="44.94078487342065" lon="9.303845224921513"><ele>555.0</ele><time>2026-04-23T15:47:54Z</time></trkpt><trkpt lat="44.94075053972767" lon="9.30374344220968"><ele>554.0</ele><time>2026-04-23T15:47:55Z</time></trkpt><trkpt lat="44.940739415113015" lon="9.303638702656272"><ele>554.0</ele><time>2026-04-23T15:47:56Z</time></trkpt><trkpt lat="44.940815698479874" lon="9.303531066112392"><ele>554.0</ele><time>2026-04-23T15:47:57Z</time></trkpt><trkpt lat="44.940898165662304" lon="9.30337998992838"><ele>554.0</ele><time>2026-04-23T15:47:58Z</time></trkpt><trkpt lat="44.94101507871147" lon="9.303228820426941"><ele>554.0</ele><time>2026-04-23T15:47:59Z</time></trkpt><trkpt lat="44.941085307506114" lon="9.303039782565868"><ele>548.75</ele><time>2026-04-23T15:48:00Z</time></trkpt><trkpt lat="44.94115688851289" lon="9.302784824955115"><ele>543.5</ele><time>2026-04-23T15:48:01Z</time></trkpt><trkpt lat="44.941176197144806" lon="9.30269409026605"><ele>538.25</ele><time>2026-04-23T15:48:03Z</time></trkpt><trkpt lat="44.94121493858157" lon="9.30256119198274"><ele>533.0</ele><time>2026-04-23T15:48:04Z</time></trkpt><trkpt lat="44.94127645676858" lon="9.302448740846001"><ele>533.0</ele><time>2026-04-23T15:48:05Z</time></trkpt><trkpt lat="44.94135401814019" lon="9.302374504973706"><ele>533.0</ele><time>2026-04-23T15:48:06Z</time></trkpt><trkpt lat="44.94142968908644" lon="9.302305651017791"><ele>533.0</ele><time>2026-04-23T15:48:07Z</time></trkpt><trkpt lat="44.94150768965885" lon="9.302210321639341"><ele>533.0</ele><time>2026-04-23T15:48:08Z</time></trkpt><trkpt lat="44.94158744909382" lon="9.302141190217041"><ele>533.0</ele><time>2026-04-23T15:48:09Z</time></trkpt><trkpt lat="44.94165251016187" lon="9.302048040701592"><ele>533.1999999999999</ele><time>2026-04-23T15:48:10Z</time></trkpt><trkpt lat="44.941702460724905" lon="9.301927681163198"><ele>533.4</ele><time>2026-04-23T15:48:11Z</time></trkpt><trkpt lat="44.941752469304454" lon="9.30180593816276"><ele>533.5999999999999</ele><time>2026-04-23T15:48:12Z</time></trkpt><trkpt lat="44.94179368348293" lon="9.301689257113393"><ele>533.8</ele><time>2026-04-23T15:48:13Z</time></trkpt><trkpt lat="44.941831852003546" lon="9.301567229256234"><ele>534.0</ele><time>2026-04-23T15:48:14Z</time></trkpt><trkpt lat="44.941848296761734" lon="9.301447558527613"><ele>530.1666666666666</ele><time>2026-04-23T15:48:15Z</time></trkpt><trkpt lat="44.94184127239561" lon="9.301330438341218"><ele>526.3333333333334</ele><time>2026-04-23T15:48:16Z</time></trkpt><trkpt lat="44.94182652031781" lon="9.301220301163944"><ele>522.5</ele><time>2026-04-23T15:48:17Z</time></trkpt><trkpt lat="44.94180613443414" lon="9.301102426166075"><ele>518.6666666666667</ele><time>2026-04-23T15:48:18Z</time></trkpt><trkpt lat="44.94178767532934" lon="9.300986077608096"><ele>514.8333333333334</ele><time>2026-04-23T15:48:19Z</time></trkpt><trkpt lat="44.94179036682573" lon="9.300868125465195"><ele>511.0</ele><time>2026-04-23T15:48:20Z</time></trkpt><trkpt lat="44.94182613389745" lon="9.30075822716148"><ele>511.0</ele><time>2026-04-23T15:48:21Z</time></trkpt><trkpt lat="44.94185941185064" lon="9.300645848060137"><ele>511.0</ele><time>2026-04-23T15:48:22Z</time></trkpt><trkpt lat="44.941917853383444" lon="9.300561660923782"><ele>511.0</ele><time>2026-04-23T15:48:23Z</time></trkpt><trkpt lat="44.941984127887174" lon="9.300466000766587"><ele>511.0</ele><time>2026-04-23T15:48:24Z</time></trkpt><trkpt lat="44.94204044016911" lon="9.30035727202511"><ele>511.0</ele><time>2026-04-23T15:48:25Z</time></trkpt><trkpt lat="44.94209830363631" lon="9.300250814766157"><ele>511.20000000000005</ele><time>2026-04-23T15:48:26Z</time></trkpt><trkpt lat="44.94214914947306" lon="9.300135755737623"><ele>511.40000000000003</ele><time>2026-04-23T15:48:27Z</time></trkpt><trkpt lat="44.942197593837086" lon="9.300019791546916"><ele>511.6</ele><time>2026-04-23T15:48:28Z</time></trkpt><trkpt lat="44.94225844112349" lon="9.299911198004267"><ele>511.8</ele><time>2026-04-23T15:48:29Z</time></trkpt><trkpt lat="44.94230480695643" lon="9.299793791312274"><ele>512.0</ele><time>2026-04-23T15:48:30Z</time></trkpt><trkpt lat="44.942358190744194" lon="9.299674008140329"><ele>511.49999999999994</ele><time>2026-04-23T15:48:31Z</time></trkpt><trkpt lat="44.94240865336829" lon="9.29955919464043"><ele>511.0</ele><time>2026-04-23T15:48:32Z</time></trkpt><trkpt lat="44.94245623959308" lon="9.299450524288472"><ele>510.5</ele><time>2026-04-23T15:48:33Z</time></trkpt><trkpt lat="44.942490343191054" lon="9.299361802071841"><ele>510.0</ele><time>2026-04-23T15:48:34Z</time></trkpt><trkpt lat="44.94249348341373" lon="9.299244643405443"><ele>509.49999999999994</ele><time>2026-04-23T15:48:35Z</time></trkpt><trkpt lat="44.942466916109595" lon="9.299148813310676"><ele>509.0</ele><time>2026-04-23T15:48:36Z</time></trkpt><trkpt lat="44.94244069833084" lon="9.299052231663469"><ele>508.99999999999994</ele><time>2026-04-23T15:48:37Z</time></trkpt><trkpt lat="44.942376982548595" lon="9.298981694191092"><ele>509.0</ele><time>2026-04-23T15:48:38Z</time></trkpt><trkpt lat="44.94230436294249" lon="9.298953860857102"><ele>508.99999999999994</ele><time>2026-04-23T15:48:39Z</time></trkpt><trkpt lat="44.9422379286942" lon="9.298911375745556"><ele>508.99999999999994</ele><time>2026-04-23T15:48:40Z</time></trkpt><trkpt lat="44.94216955952813" lon="9.298873844923898"><ele>509.0</ele><time>2026-04-23T15:48:41Z</time></trkpt><trkpt lat="44.94211264749472" lon="9.298814438968632"><ele>508.99999999999994</ele><time>2026-04-23T15:48:41.999Z</time></trkpt><trkpt lat="44.9420550266674" lon="9.298777011252684"><ele>508.99999999999994</ele><time>2026-04-23T15:48:42.999Z</time></trkpt><trkpt lat="44.941970357807534" lon="9.298694836098246"><ele>507.79999999999995</ele><time>2026-04-23T15:48:44.999Z</time></trkpt><trkpt lat="44.941928856583885" lon="9.298612130145006"><ele>506.59999999999997</ele><time>2026-04-23T15:48:48.999Z</time></trkpt><trkpt lat="44.94194474574476" lon="9.298481328684657"><ele>505.4</ele><time>2026-04-23T15:48:51.999Z</time></trkpt><trkpt lat="44.94202348640804" lon="9.298352915452055"><ele>504.2</ele><time>2026-04-23T15:48:53.999Z</time></trkpt><trkpt lat="44.942068736862616" lon="9.29825174436324"><ele>503.0</ele><time>2026-04-23T15:48:54.999Z</time></trkpt><trkpt lat="44.942139110901046" lon="9.29817433191"><ele>501.0</ele><time>2026-04-23T15:48:55.999Z</time></trkpt><trkpt lat="44.94220179743482" lon="9.298078866356546"><ele>498.99999999999994</ele><time>2026-04-23T15:48:56.999Z</time></trkpt><trkpt lat="44.94226991784175" lon="9.297982386578528"><ele>496.99999999999994</ele><time>2026-04-23T15:48:57.999Z</time></trkpt><trkpt lat="44.94233537711161" lon="9.29789563993909"><ele>495.0</ele><time>2026-04-23T15:48:58.999Z</time></trkpt><trkpt lat="44.94240496132403" lon="9.297810039713221"><ele>493.0</ele><time>2026-04-23T15:48:59.999Z</time></trkpt><trkpt lat="44.94246734248972" lon="9.29772305483872"><ele>493.00000000000006</ele><time>2026-04-23T15:49:00.999Z</time></trkpt><trkpt lat="44.942533666612604" lon="9.297657720391497"><ele>493.0</ele><time>2026-04-23T15:49:01.999Z</time></trkpt><trkpt lat="44.94260508523022" lon="9.297616554366456"><ele>493.0</ele><time>2026-04-23T15:49:02.999Z</time></trkpt><trkpt lat="44.94268680033343" lon="9.297610062759299"><ele>493.0</ele><time>2026-04-23T15:49:03.999Z</time></trkpt><trkpt lat="44.94276480710998" lon="9.297623665946672"><ele>493.00000000000006</ele><time>2026-04-23T15:49:04.999Z</time></trkpt><trkpt lat="44.94284424001885" lon="9.297656813314385"><ele>493.0</ele><time>2026-04-23T15:49:05.999Z</time></trkpt><trkpt lat="44.94292226927802" lon="9.29768870731412"><ele>491.33333333333337</ele><time>2026-04-23T15:49:06.999Z</time></trkpt><trkpt lat="44.94300294254036" lon="9.297706665139076"><ele>489.6666666666667</ele><time>2026-04-23T15:49:07.999Z</time></trkpt><trkpt lat="44.943090146889006" lon="9.297725561511477"><ele>488.0</ele><time>2026-04-23T15:49:08.999Z</time></trkpt><trkpt lat="44.943179664747966" lon="9.29774853978357"><ele>486.33333333333337</ele><time>2026-04-23T15:49:09.999Z</time></trkpt><trkpt lat="44.94327100535669" lon="9.297776118345102"><ele>484.6666666666667</ele><time>2026-04-23T15:49:10.999Z</time></trkpt><trkpt lat="44.94335578590486" lon="9.297807490328593"><ele>483.0</ele><time>2026-04-23T15:49:11.999Z</time></trkpt><trkpt lat="44.94344200746054" lon="9.297841991526358"><ele>481.6666666666667</ele><time>2026-04-23T15:49:12.999Z</time></trkpt><trkpt lat="44.943523338673586" lon="9.29788290999245"><ele>480.33333333333337</ele><time>2026-04-23T15:49:13.999Z</time></trkpt><trkpt lat="44.9435990246018" lon="9.297943323878494"><ele>479.0</ele><time>2026-04-23T15:49:14.999Z</time></trkpt><trkpt lat="44.94367641423901" lon="9.297995500236345"><ele>477.6666666666667</ele><time>2026-04-23T15:49:15.999Z</time></trkpt><trkpt lat="44.94375176706694" lon="9.29804960015149"><ele>476.33333333333337</ele><time>2026-04-23T15:49:16.999Z</time></trkpt><trkpt lat="44.943825264263545" lon="9.298094218835793"><ele>475.0</ele><time>2026-04-23T15:49:17.999Z</time></trkpt><trkpt lat="44.943906154497235" lon="9.298135171522357"><ele>475.00000000000006</ele><time>2026-04-23T15:49:18.999Z</time></trkpt><trkpt lat="44.94398519253179" lon="9.29817516787944"><ele>475.0</ele><time>2026-04-23T15:49:19.999Z</time></trkpt><trkpt lat="44.94405554682494" lon="9.29823099775788"><ele>475.0</ele><time>2026-04-23T15:49:20.999Z</time></trkpt><trkpt lat="44.94411958713611" lon="9.298301926719354"><ele>475.0</ele><time>2026-04-23T15:49:22Z</time></trkpt><trkpt lat="44.94417027917683" lon="9.298397472198163"><ele>475.00000000000006</ele><time>2026-04-23T15:49:23Z</time></trkpt><trkpt lat="44.94421763883335" lon="9.298495921530515"><ele>475.0</ele><time>2026-04-23T15:49:24Z</time></trkpt><trkpt lat="44.94425119417604" lon="9.298604708554793"><ele>473.1666666666667</ele><time>2026-04-23T15:49:25Z</time></trkpt><trkpt lat="44.9442729948027" lon="9.298718140362844"><ele>471.33333333333337</ele><time>2026-04-23T15:49:26Z</time></trkpt><trkpt lat="44.94430790677409" lon="9.298829564134673"><ele>469.5</ele><time>2026-04-23T15:49:27Z</time></trkpt><trkpt lat="44.94434840171322" lon="9.29893982896704"><ele>467.66666666666663</ele><time>2026-04-23T15:49:28Z</time></trkpt><trkpt lat="44.94439327304815" lon="9.299042748884403"><ele>465.8333333333333</ele><time>2026-04-23T15:49:29Z</time></trkpt><trkpt lat="44.944448236684735" lon="9.299132994654812"><ele>464.0</ele><time>2026-04-23T15:49:30Z</time></trkpt><trkpt lat="44.94452454479542" lon="9.299204505926827"><ele>464.0</ele><time>2026-04-23T15:49:31Z</time></trkpt><trkpt lat="44.94461408474894" lon="9.299241059887157"><ele>464.0</ele><time>2026-04-23T15:49:32Z</time></trkpt><trkpt lat="44.94470148690892" lon="9.299300088265666"><ele>464.0</ele><time>2026-04-23T15:49:33Z</time></trkpt><trkpt lat="44.944748922355785" lon="9.299419138795825"><ele>464.0</ele><time>2026-04-23T15:49:34Z</time></trkpt><trkpt lat="44.9448149233623" lon="9.29949367936204"><ele>464.0</ele><time>2026-04-23T15:49:35Z</time></trkpt><trkpt lat="44.94487241612962" lon="9.299575836291982"><ele>463.99999999999994</ele><time>2026-04-23T15:49:36Z</time></trkpt><trkpt lat="44.94494333161741" lon="9.299647699880834"><ele>464.0</ele><time>2026-04-23T15:49:37Z</time></trkpt><trkpt lat="44.945021848393274" lon="9.299711251772298"><ele>464.0</ele><time>2026-04-23T15:49:38Z</time></trkpt><trkpt lat="44.94509804404082" lon="9.299780430287854"><ele>464.0</ele><time>2026-04-23T15:49:39Z</time></trkpt><trkpt lat="44.945175322182536" lon="9.299826366938278"><ele>463.99999999999994</ele><time>2026-04-23T15:49:40Z</time></trkpt><trkpt lat="44.945240186748535" lon="9.299842658431865"><ele>464.0</ele><time>2026-04-23T15:49:41Z</time></trkpt><trkpt lat="44.94530156811661" lon="9.299818823946133"><ele>461.8333333333333</ele><time>2026-04-23T15:49:42Z</time></trkpt><trkpt lat="44.94534883999364" lon="9.299756928442028"><ele>459.66666666666663</ele><time>2026-04-23T15:49:43Z</time></trkpt><trkpt lat="44.94538792600592" lon="9.299671115540859"><ele>457.5</ele><time>2026-04-23T15:49:44Z</time></trkpt><trkpt lat="44.94539887809705" lon="9.299553609171545"><ele>455.33333333333337</ele><time>2026-04-23T15:49:45Z</time></trkpt><trkpt lat="44.94540931656681" lon="9.299402147917078"><ele>453.1666666666667</ele><time>2026-04-23T15:49:46Z</time></trkpt><trkpt lat="44.945408238244944" lon="9.299233620575757"><ele>451.0</ele><time>2026-04-23T15:49:47Z</time></trkpt><trkpt lat="44.94540174127754" lon="9.29907715342141"><ele>450.8</ele><time>2026-04-23T15:49:48Z</time></trkpt><trkpt lat="44.945407860141856" lon="9.298919613458768"><ele>450.6</ele><time>2026-04-23T15:49:49Z</time></trkpt><trkpt lat="44.945410163549916" lon="9.298770328746176"><ele>450.4</ele><time>2026-04-23T15:49:50Z</time></trkpt><trkpt lat="44.94537954525207" lon="9.29863841169872"><ele>450.2</ele><time>2026-04-23T15:49:51Z</time></trkpt><trkpt lat="44.94533754774171" lon="9.298513320722394"><ele>450.0</ele><time>2026-04-23T15:49:52Z</time></trkpt><trkpt lat="44.945297857303686" lon="9.298398096469164"><ele>450.0</ele><time>2026-04-23T15:49:53Z</time></trkpt><trkpt lat="44.945280656778046" lon="9.298276164759555"><ele>450.0</ele><time>2026-04-23T15:49:54Z</time></trkpt><trkpt lat="44.94532400909423" lon="9.29817224334971"><ele>450.0</ele><time>2026-04-23T15:49:55Z</time></trkpt><trkpt lat="44.94536992583285" lon="9.29808491926451"><ele>450.0</ele><time>2026-04-23T15:49:56Z</time></trkpt><trkpt lat="44.945468118426334" lon="9.298062382231626"><ele>450.0</ele><time>2026-04-23T15:49:57Z</time></trkpt><trkpt lat="44.945551820739254" lon="9.297990954387206"><ele>450.0</ele><time>2026-04-23T15:49:58Z</time></trkpt><trkpt lat="44.94564707502478" lon="9.29791615664275"><ele>448.5</ele><time>2026-04-23T15:49:59Z</time></trkpt><trkpt lat="44.945742537208744" lon="9.297841199022253"><ele>447.0</ele><time>2026-04-23T15:50:00Z</time></trkpt><trkpt lat="44.94585966153253" lon="9.297783021359676"><ele>445.5</ele><time>2026-04-23T15:50:01Z</time></trkpt><trkpt lat="44.945961541798646" lon="9.29770783496913"><ele>444.0</ele><time>2026-04-23T15:50:02Z</time></trkpt><trkpt lat="44.94605631962098" lon="9.297608174414544"><ele>442.6</ele><time>2026-04-23T15:50:03Z</time></trkpt><trkpt lat="44.946158274770085" lon="9.297559162462035"><ele>441.2</ele><time>2026-04-23T15:50:04Z</time></trkpt><trkpt lat="44.94624658495253" lon="9.297500478320053"><ele>439.80000000000007</ele><time>2026-04-23T15:50:05Z</time></trkpt><trkpt lat="44.94633412038492" lon="9.29742752672722"><ele>438.40000000000003</ele><time>2026-04-23T15:50:06Z</time></trkpt><trkpt lat="44.94642789208913" lon="9.297384243926183"><ele>437.0</ele><time>2026-04-23T15:50:07Z</time></trkpt><trkpt lat="44.94652228676524" lon="9.29738469450152"><ele>437.0</ele><time>2026-04-23T15:50:08Z</time></trkpt><trkpt lat="44.94661255345069" lon="9.297393950936229"><ele>437.00000000000006</ele><time>2026-04-23T15:50:09Z</time></trkpt><trkpt lat="44.946699466730585" lon="9.297433605833406"><ele>437.00000000000006</ele><time>2026-04-23T15:50:10Z</time></trkpt><trkpt lat="44.9467831312405" lon="9.29748783181331"><ele>437.0</ele><time>2026-04-23T15:50:11Z</time></trkpt><trkpt lat="44.94686270075711" lon="9.29755072134163"><ele>437.0</ele><time>2026-04-23T15:50:12Z</time></trkpt><trkpt lat="44.94694893860964" lon="9.297586290900588"><ele>435.20000000000005</ele><time>2026-04-23T15:50:13Z</time></trkpt><trkpt lat="44.947034841913684" lon="9.297624388587037"><ele>433.40000000000003</ele><time>2026-04-23T15:50:14Z</time></trkpt><trkpt lat="44.94713592424837" lon="9.297642539142007"><ele>431.59999999999997</ele><time>2026-04-23T15:50:15Z</time></trkpt><trkpt lat="44.94724566121907" lon="9.297628714807473"><ele>429.79999999999995</ele><time>2026-04-23T15:50:16Z</time></trkpt><trkpt lat="44.947369387386175" lon="9.29760537334573"><ele>428.0</ele><time>2026-04-23T15:50:17Z</time></trkpt><trkpt lat="44.947500337599635" lon="9.297613656931162"><ele>426.5</ele><time>2026-04-23T15:50:18Z</time></trkpt><trkpt lat="44.94762498164755" lon="9.29759958020868"><ele>425.0</ele><time>2026-04-23T15:50:19Z</time></trkpt><trkpt lat="44.94774635874834" lon="9.297586355000824"><ele>423.5</ele><time>2026-04-23T15:50:20Z</time></trkpt><trkpt lat="44.947864348374104" lon="9.297551066030294"><ele>422.0</ele><time>2026-04-23T15:50:21Z</time></trkpt><trkpt lat="44.947980370889425" lon="9.297548352175195"><ele>422.0</ele><time>2026-04-23T15:50:22Z</time></trkpt><trkpt lat="44.9480967721157" lon="9.297529148513789"><ele>422.0</ele><time>2026-04-23T15:50:23Z</time></trkpt><trkpt lat="44.94821609561477" lon="9.297528741849819"><ele>422.0</ele><time>2026-04-23T15:50:24Z</time></trkpt><trkpt lat="44.948322532627465" lon="9.29751152160067"><ele>422.0</ele><time>2026-04-23T15:50:25Z</time></trkpt><trkpt lat="44.94841718869741" lon="9.29752209928966"><ele>422.0</ele><time>2026-04-23T15:50:26Z</time></trkpt><trkpt lat="44.948516024465334" lon="9.29751422246134"><ele>419.0</ele><time>2026-04-23T15:50:27Z</time></trkpt><trkpt lat="44.94860495960357" lon="9.29751949250609"><ele>416.0</ele><time>2026-04-23T15:50:28Z</time></trkpt><trkpt lat="44.94869024022415" lon="9.29749714421888"><ele>413.0</ele><time>2026-04-23T15:50:29Z</time></trkpt><trkpt lat="44.94877413109229" lon="9.297449556383928"><ele>410.0</ele><time>2026-04-23T15:50:30Z</time></trkpt><trkpt lat="44.94885482608822" lon="9.297391753746764"><ele>407.0</ele><time>2026-04-23T15:50:31Z</time></trkpt><trkpt lat="44.948922994655774" lon="9.297298904485837"><ele>408.20000000000005</ele><time>2026-04-23T15:50:32Z</time></trkpt><trkpt lat="44.94897475449866" lon="9.297188066090182"><ele>409.4</ele><time>2026-04-23T15:50:33Z</time></trkpt><trkpt lat="44.94904037313344" lon="9.297086916159408"><ele>410.6</ele><time>2026-04-23T15:50:34Z</time></trkpt><trkpt lat="44.94911374542145" lon="9.297010896557524"><ele>411.79999999999995</ele><time>2026-04-23T15:50:35Z</time></trkpt><trkpt lat="44.94917180798969" lon="9.296908571614015"><ele>413.0</ele><time>2026-04-23T15:50:36Z</time></trkpt><trkpt lat="44.94924450955749" lon="9.296822282687792"><ele>410.2</ele><time>2026-04-23T15:50:37Z</time></trkpt><trkpt lat="44.94931686475433" lon="9.296731631848573"><ele>407.4</ele><time>2026-04-23T15:50:38Z</time></trkpt><trkpt lat="44.94938970173316" lon="9.296648718818721"><ele>404.59999999999997</ele><time>2026-04-23T15:50:39Z</time></trkpt><trkpt lat="44.94946109288182" lon="9.296562269523436"><ele>401.79999999999995</ele><time>2026-04-23T15:50:40Z</time></trkpt><trkpt lat="44.949522516414426" lon="9.296464180455406"><ele>399.0</ele><time>2026-04-23T15:50:40.999Z</time></trkpt><trkpt lat="44.9495700633678" lon="9.296346747033166"><ele>399.0</ele><time>2026-04-23T15:50:41.999Z</time></trkpt><trkpt lat="44.94960523494975" lon="9.296225836928993"><ele>399.0</ele><time>2026-04-23T15:50:42.999Z</time></trkpt><trkpt lat="44.949635116173646" lon="9.29609631726726"><ele>399.0</ele><time>2026-04-23T15:50:43.999Z</time></trkpt><trkpt lat="44.94967826925229" lon="9.295969155792383"><ele>399.0</ele><time>2026-04-23T15:50:44.999Z</time></trkpt><trkpt lat="44.94967809318309" lon="9.295828492698197"><ele>399.0</ele><time>2026-04-23T15:50:45.999Z</time></trkpt><trkpt lat="44.949686576339836" lon="9.295698588959738"><ele>398.3333333333333</ele><time>2026-04-23T15:50:46.999Z</time></trkpt><trkpt lat="44.9496825917523" lon="9.29557165048126"><ele>397.66666666666663</ele><time>2026-04-23T15:50:47.999Z</time></trkpt><trkpt lat="44.949669432808435" lon="9.295448421688473"><ele>397.0</ele><time>2026-04-23T15:50:48.999Z</time></trkpt><trkpt lat="44.94965043375521" lon="9.295329555738528"><ele>396.3333333333333</ele><time>2026-04-23T15:50:49.999Z</time></trkpt><trkpt lat="44.949624702343804" lon="9.29521088214688"><ele>395.66666666666663</ele><time>2026-04-23T15:50:50.999Z</time></trkpt><trkpt lat="44.94961221708335" lon="9.29508179859835"><ele>395.0</ele><time>2026-04-23T15:50:51.999Z</time></trkpt><trkpt lat="44.94957112922243" lon="9.294942845270032"><ele>395.0</ele><time>2026-04-23T15:50:52.999Z</time></trkpt><trkpt lat="44.949536891515066" lon="9.294827827955928"><ele>395.0</ele><time>2026-04-23T15:50:53.999Z</time></trkpt><trkpt lat="44.94948198905648" lon="9.294711080835134"><ele>395.0</ele><time>2026-04-23T15:50:54.999Z</time></trkpt><trkpt lat="44.94940912598547" lon="9.294629274175483"><ele>395.0</ele><time>2026-04-23T15:50:55.999Z</time></trkpt><trkpt lat="44.9493262401591" lon="9.294570189308256"><ele>395.0</ele><time>2026-04-23T15:50:56.999Z</time></trkpt><trkpt lat="44.9492368896236" lon="9.294535245331478"><ele>394.6</ele><time>2026-04-23T15:50:57.999Z</time></trkpt><trkpt lat="44.949145043384526" lon="9.294500936128111"><ele>394.2</ele><time>2026-04-23T15:50:58.999Z</time></trkpt><trkpt lat="44.949053419557394" lon="9.294482306329739"><ele>393.79999999999995</ele><time>2026-04-23T15:50:59.999Z</time></trkpt><trkpt lat="44.94897699923718" lon="9.29444659325652"><ele>393.4</ele><time>2026-04-23T15:51:00.999Z</time></trkpt><trkpt lat="44.94889982482935" lon="9.294330074245472"><ele>393.0</ele><time>2026-04-23T15:51:02.999Z</time></trkpt><trkpt lat="44.94889388217241" lon="9.29418690123613"><ele>393.0</ele><time>2026-04-23T15:51:04.999Z</time></trkpt><trkpt lat="44.94893841282684" lon="9.294086625592689"><ele>393.0</ele><time>2026-04-23T15:51:05.999Z</time></trkpt><trkpt lat="44.94901238891492" lon="9.293990602592439"><ele>393.0</ele><time>2026-04-23T15:51:06.999Z</time></trkpt><trkpt lat="44.94910235997631" lon="9.293901508196758"><ele>393.0</ele><time>2026-04-23T15:51:07.999Z</time></trkpt><trkpt lat="44.949185561487305" lon="9.29380119280716"><ele>393.0</ele><time>2026-04-23T15:51:08.999Z</time></trkpt><trkpt lat="44.94928418416589" lon="9.293720493469438"><ele>390.25</ele><time>2026-04-23T15:51:09.999Z</time></trkpt><trkpt lat="44.94937889109468" lon="9.293620224207991"><ele>387.5</ele><time>2026-04-23T15:51:10.999Z</time></trkpt><trkpt lat="44.94948086778016" lon="9.293512258192896"><ele>384.75</ele><time>2026-04-23T15:51:11.999Z</time></trkpt><trkpt lat="44.94958310332287" lon="9.29340401828843"><ele>382.0</ele><time>2026-04-23T15:51:12.999Z</time></trkpt><trkpt lat="44.94968938292449" lon="9.29329654492472"><ele>382.0</ele><time>2026-04-23T15:51:13.999Z</time></trkpt><trkpt lat="44.94979381883596" lon="9.293176500094384"><ele>382.0</ele><time>2026-04-23T15:51:14.999Z</time></trkpt><trkpt lat="44.9498982793273" lon="9.293078060681825"><ele>382.0</ele><time>2026-04-23T15:51:15.999Z</time></trkpt><trkpt lat="44.95000223889421" lon="9.292989737843094"><ele>382.0</ele><time>2026-04-23T15:51:16.999Z</time></trkpt><trkpt lat="44.95010714075555" lon="9.292918429081846"><ele>378.3333333333333</ele><time>2026-04-23T15:51:17.999Z</time></trkpt><trkpt lat="44.9502120694943" lon="9.292860275742981"><ele>374.66666666666663</ele><time>2026-04-23T15:51:18.999Z</time></trkpt><trkpt lat="44.950310501732595" lon="9.292821438508604"><ele>371.0</ele><time>2026-04-23T15:51:19.999Z</time></trkpt><trkpt lat="44.95039482979606" lon="9.292803825875463"><ele>367.3333333333333</ele><time>2026-04-23T15:51:20.999Z</time></trkpt><trkpt lat="44.950471412529815" lon="9.292806448583187"><ele>363.6666666666667</ele><time>2026-04-23T15:51:21.999Z</time></trkpt><trkpt lat="44.95054095773752" lon="9.292805575043474"><ele>360.0</ele><time>2026-04-23T15:51:22.999Z</time></trkpt><trkpt lat="44.95066277961689" lon="9.292784949255836"><ele>360.0</ele><time>2026-04-23T15:51:24.999Z</time></trkpt><trkpt lat="44.95074049012506" lon="9.292792810668473"><ele>360.0</ele><time>2026-04-23T15:51:25.999Z</time></trkpt><trkpt lat="44.9508358170661" lon="9.292821384381014"><ele>360.0</ele><time>2026-04-23T15:51:26.999Z</time></trkpt><trkpt lat="44.95094941359767" lon="9.292885829492429"><ele>360.0</ele><time>2026-04-23T15:51:28Z</time></trkpt><trkpt lat="44.95106824842462" lon="9.292953264180902"><ele>360.0</ele><time>2026-04-23T15:51:29Z</time></trkpt><trkpt lat="44.95118757268418" lon="9.292989662815328"><ele>358.75</ele><time>2026-04-23T15:51:30Z</time></trkpt><trkpt lat="44.95131393188953" lon="9.2929855597905"><ele>357.5</ele><time>2026-04-23T15:51:31Z</time></trkpt><trkpt lat="44.951440550806346" lon="9.292986720407127"><ele>356.25</ele><time>2026-04-23T15:51:32Z</time></trkpt><trkpt lat="44.951557818558136" lon="9.292994542711174"><ele>355.0</ele><time>2026-04-23T15:51:33Z</time></trkpt><trkpt lat="44.95166748519392" lon="9.293033668459525"><ele>354.75</ele><time>2026-04-23T15:51:34Z</time></trkpt><trkpt lat="44.95177062207135" lon="9.293123027557378"><ele>354.5</ele><time>2026-04-23T15:51:35Z</time></trkpt><trkpt lat="44.95187239209706" lon="9.29323981880245"><ele>354.25</ele><time>2026-04-23T15:51:36Z</time></trkpt><trkpt lat="44.95196887443287" lon="9.293363137185558"><ele>354.0</ele><time>2026-04-23T15:51:37Z</time></trkpt><trkpt lat="44.952064802734824" lon="9.29347501002416"><ele>354.0</ele><time>2026-04-23T15:51:38Z</time></trkpt><trkpt lat="44.95215356912675" lon="9.293574393423484"><ele>354.0</ele><time>2026-04-23T15:51:39Z</time></trkpt><trkpt lat="44.952254094199894" lon="9.29363538902401"><ele>354.0</ele><time>2026-04-23T15:51:40Z</time></trkpt><trkpt lat="44.95233860691136" lon="9.293730032898189"><ele>354.0</ele><time>2026-04-23T15:51:41Z</time></trkpt><trkpt lat="44.95241019249104" lon="9.293830870971284"><ele>354.0</ele><time>2026-04-23T15:51:42Z</time></trkpt><trkpt lat="44.952482093802224" lon="9.293945061631915"><ele>350.2</ele><time>2026-04-23T15:51:43Z</time></trkpt><trkpt lat="44.95255887781199" lon="9.294047344002172"><ele>346.4</ele><time>2026-04-23T15:51:44Z</time></trkpt><trkpt lat="44.95261320160665" lon="9.294156532720983"><ele>342.6</ele><time>2026-04-23T15:51:45Z</time></trkpt><trkpt lat="44.952666911839955" lon="9.294269412591161"><ele>338.8</ele><time>2026-04-23T15:51:46Z</time></trkpt><trkpt lat="44.95271320494669" lon="9.294376108801252"><ele>335.0</ele><time>2026-04-23T15:51:47Z</time></trkpt><trkpt lat="44.95275239759024" lon="9.294489226670214"><ele>335.0</ele><time>2026-04-23T15:51:48Z</time></trkpt><trkpt lat="44.952776732684164" lon="9.294582212381203"><ele>335.0</ele><time>2026-04-23T15:51:49Z</time></trkpt><trkpt lat="44.952805197097135" lon="9.294729644195437"><ele>335.0</ele><time>2026-04-23T15:51:50Z</time></trkpt><trkpt lat="44.952804553879695" lon="9.294854891315861"><ele>335.0</ele><time>2026-04-23T15:51:51Z</time></trkpt><trkpt lat="44.95278433922507" lon="9.294986105356935"><ele>335.0</ele><time>2026-04-23T15:51:52Z</time></trkpt><trkpt lat="44.952748717090124" lon="9.295110115069027"><ele>335.33333333333337</ele><time>2026-04-23T15:51:53Z</time></trkpt><trkpt lat="44.95272510361816" lon="9.29523394120987"><ele>335.6666666666667</ele><time>2026-04-23T15:51:54Z</time></trkpt><trkpt lat="44.95272434015911" lon="9.295350406997635"><ele>336.0</ele><time>2026-04-23T15:51:55Z</time></trkpt><trkpt lat="44.952730974408134" lon="9.295446895997816"><ele>336.3333333333333</ele><time>2026-04-23T15:51:56Z</time></trkpt><trkpt lat="44.95281197395425" lon="9.295529671559486"><ele>336.66666666666663</ele><time>2026-04-23T15:51:57Z</time></trkpt><trkpt lat="44.9528756361201" lon="9.295627772726483"><ele>337.0</ele><time>2026-04-23T15:51:58Z</time></trkpt><trkpt lat="44.95292542737869" lon="9.295707706625892"><ele>337.8333333333333</ele><time>2026-04-23T15:51:59Z</time></trkpt><trkpt lat="44.952928892694295" lon="9.295827500346022"><ele>338.66666666666663</ele><time>2026-04-23T15:52:00Z</time></trkpt><trkpt lat="44.95294746068533" lon="9.295938358141596"><ele>339.5</ele><time>2026-04-23T15:52:01Z</time></trkpt><trkpt lat="44.95296555014943" lon="9.296044563022924"><ele>340.3333333333333</ele><time>2026-04-23T15:52:02Z</time></trkpt><trkpt lat="44.95299748657694" lon="9.296160035096031"><ele>341.1666666666667</ele><time>2026-04-23T15:52:03Z</time></trkpt><trkpt lat="44.9530143126104" lon="9.296270102099514"><ele>342.0</ele><time>2026-04-23T15:52:04Z</time></trkpt><trkpt lat="44.95302429420312" lon="9.296392254794194"><ele>341.8333333333333</ele><time>2026-04-23T15:52:05Z</time></trkpt><trkpt lat="44.95303378843965" lon="9.296513277100308"><ele>341.6666666666667</ele><time>2026-04-23T15:52:06Z</time></trkpt><trkpt lat="44.95305013649012" lon="9.296635364924226"><ele>341.5</ele><time>2026-04-23T15:52:07Z</time></trkpt><trkpt lat="44.95306681719078" lon="9.296751594452816"><ele>341.33333333333337</ele><time>2026-04-23T15:52:08Z</time></trkpt><trkpt lat="44.95308191235625" lon="9.296867127646772"><ele>341.1666666666667</ele><time>2026-04-23T15:52:09Z</time></trkpt><trkpt lat="44.95310357428001" lon="9.296979149147354"><ele>341.0</ele><time>2026-04-23T15:52:10Z</time></trkpt><trkpt lat="44.953137383132336" lon="9.297075793452787"><ele>341.0</ele><time>2026-04-23T15:52:11Z</time></trkpt><trkpt lat="44.95318996691847" lon="9.29714838434535"><ele>341.0</ele><time>2026-04-23T15:52:12Z</time></trkpt><trkpt lat="44.953256121563506" lon="9.297193178798107"><ele>341.0</ele><time>2026-04-23T15:52:13Z</time></trkpt><trkpt lat="44.95333642912486" lon="9.297209310853507"><ele>341.0</ele><time>2026-04-23T15:52:14Z</time></trkpt><trkpt lat="44.953440888206416" lon="9.297189880636521"><ele>341.0</ele><time>2026-04-23T15:52:15Z</time></trkpt><trkpt lat="44.9535367402308" lon="9.297164093930197"><ele>341.0</ele><time>2026-04-23T15:52:16Z</time></trkpt><trkpt lat="44.95362127214373" lon="9.297153066789084"><ele>339.83333333333337</ele><time>2026-04-23T15:52:17Z</time></trkpt><trkpt lat="44.95369089346349" lon="9.297167968636499"><ele>338.6666666666667</ele><time>2026-04-23T15:52:18Z</time></trkpt><trkpt lat="44.953756675743676" lon="9.29720248481652"><ele>337.5</ele><time>2026-04-23T15:52:19Z</time></trkpt><trkpt lat="44.95382118084115" lon="9.297227460999482"><ele>336.3333333333333</ele><time>2026-04-23T15:52:20Z</time></trkpt><trkpt lat="44.953954511335844" lon="9.29721455182571"><ele>335.16666666666663</ele><time>2026-04-23T15:52:22Z</time></trkpt><trkpt lat="44.954039522005324" lon="9.297175712823977"><ele>334.0</ele><time>2026-04-23T15:52:23Z</time></trkpt><trkpt lat="44.954145326302154" lon="9.297143409409653"><ele>334.25</ele><time>2026-04-23T15:52:24Z</time></trkpt><trkpt lat="44.95426358049272" lon="9.297097723689745"><ele>334.5</ele><time>2026-04-23T15:52:25Z</time></trkpt><trkpt lat="44.95437602909033" lon="9.297070357442717"><ele>334.75</ele><time>2026-04-23T15:52:26Z</time></trkpt><trkpt lat="44.954489614219206" lon="9.297075305308422"><ele>335.0</ele><time>2026-04-23T15:52:27Z</time></trkpt><trkpt lat="44.95458776361582" lon="9.29712673674582"><ele>335.0</ele><time>2026-04-23T15:52:28Z</time></trkpt><trkpt lat="44.954694264663544" lon="9.297174030893043"><ele>335.0</ele><time>2026-04-23T15:52:29Z</time></trkpt><trkpt lat="44.954816497427274" lon="9.297215831730158"><ele>335.0</ele><time>2026-04-23T15:52:30Z</time></trkpt><trkpt lat="44.954950897739415" lon="9.297284498666327"><ele>335.0</ele><time>2026-04-23T15:52:31Z</time></trkpt><trkpt lat="44.95509096387187" lon="9.297353608346883"><ele>335.75</ele><time>2026-04-23T15:52:32Z</time></trkpt><trkpt lat="44.955224156268244" lon="9.297425968814997"><ele>336.5</ele><time>2026-04-23T15:52:33Z</time></trkpt><trkpt lat="44.95535069520577" lon="9.297498925995873"><ele>337.25</ele><time>2026-04-23T15:52:34Z</time></trkpt><trkpt lat="44.95545633704629" lon="9.297563012675223"><ele>338.0</ele><time>2026-04-23T15:52:35Z</time></trkpt><trkpt lat="44.95552515619399" lon="9.297604686758975"><ele>338.0</ele><time>2026-04-23T15:52:36Z</time></trkpt><trkpt lat="44.9555958392357" lon="9.297655684005125"><ele>338.0</ele><time>2026-04-23T15:52:38Z</time></trkpt><trkpt lat="44.95566887689762" lon="9.297708067941075"><ele>338.0</ele><time>2026-04-23T15:52:42.999Z</time></trkpt><trkpt lat="44.955722612887456" lon="9.297759990414967"><ele>338.0</ele><time>2026-04-23T15:52:44.999Z</time></trkpt><trkpt lat="44.95581248449018" lon="9.297828586361137"><ele>338.0</ele><time>2026-04-23T15:52:46.999Z</time></trkpt><trkpt lat="44.955932220701705" lon="9.297920633307504"><ele>338.4</ele><time>2026-04-23T15:52:48.999Z</time></trkpt><trkpt lat="44.956005963547426" lon="9.297965616055034"><ele>338.79999999999995</ele><time>2026-04-23T15:52:49.999Z</time></trkpt><trkpt lat="44.9560867701941" lon="9.298018323088684"><ele>339.2</ele><time>2026-04-23T15:52:50.999Z</time></trkpt><trkpt lat="44.956181143552016" lon="9.298083709601137"><ele>339.6</ele><time>2026-04-23T15:52:51.999Z</time></trkpt><trkpt lat="44.956291474861544" lon="9.298164997759015"><ele>340.0</ele><time>2026-04-23T15:52:52.999Z</time></trkpt><trkpt lat="44.956398020536646" lon="9.298242825153352"><ele>340.8</ele><time>2026-04-23T15:52:53.999Z</time></trkpt><trkpt lat="44.95649622764664" lon="9.298315924130513"><ele>341.6</ele><time>2026-04-23T15:52:54.999Z</time></trkpt><trkpt lat="44.95658639266212" lon="9.298377108588243"><ele>342.4</ele><time>2026-04-23T15:52:55.999Z</time></trkpt><trkpt lat="44.95666774046422" lon="9.298441058547118"><ele>343.2</ele><time>2026-04-23T15:52:56.999Z</time></trkpt><trkpt lat="44.9567381585256" lon="9.298515814398472"><ele>344.0</ele><time>2026-04-23T15:52:57.999Z</time></trkpt><trkpt lat="44.95678144787986" lon="9.298647405221649"><ele>344.0</ele><time>2026-04-23T15:52:58.999Z</time></trkpt><trkpt lat="44.95682029817216" lon="9.29878533817499"><ele>344.0</ele><time>2026-04-23T15:52:59.999Z</time></trkpt><trkpt lat="44.95686351714197" lon="9.298950932115444"><ele>344.0</ele><time>2026-04-23T15:53:00.999Z</time></trkpt><trkpt lat="44.956904965669224" lon="9.299116075458025"><ele>344.0</ele><time>2026-04-23T15:53:01.999Z</time></trkpt><trkpt lat="44.95695179909578" lon="9.299266676680986"><ele>344.2</ele><time>2026-04-23T15:53:02.999Z</time></trkpt><trkpt lat="44.956989577537776" lon="9.29939899658286"><ele>344.4</ele><time>2026-04-23T15:53:03.999Z</time></trkpt><trkpt lat="44.957014541056374" lon="9.299529678427385"><ele>344.6</ele><time>2026-04-23T15:53:04.999Z</time></trkpt><trkpt lat="44.95704342113245" lon="9.299657449817966"><ele>344.8</ele><time>2026-04-23T15:53:05.999Z</time></trkpt><trkpt lat="44.95707642658628" lon="9.299794207189768"><ele>345.0</ele><time>2026-04-23T15:53:06.999Z</time></trkpt><trkpt lat="44.95711489110336" lon="9.299931176334084"><ele>345.4</ele><time>2026-04-23T15:53:07.999Z</time></trkpt><trkpt lat="44.957144060063" lon="9.300079134860814"><ele>345.8</ele><time>2026-04-23T15:53:08.999Z</time></trkpt><trkpt lat="44.9571957889637" lon="9.300217565085985"><ele>346.20000000000005</ele><time>2026-04-23T15:53:09.999Z</time></trkpt><trkpt lat="44.95725954348115" lon="9.300352506681373"><ele>346.6</ele><time>2026-04-23T15:53:10.999Z</time></trkpt><trkpt lat="44.957330183260375" lon="9.300458587087997"><ele>347.0</ele><time>2026-04-23T15:53:11.999Z</time></trkpt><trkpt lat="44.95742678236764" lon="9.300542311519425"><ele>348.0</ele><time>2026-04-23T15:53:12.999Z</time></trkpt><trkpt lat="44.95756137582859" lon="9.300624501577143"><ele>349.0</ele><time>2026-04-23T15:53:13.999Z</time></trkpt><trkpt lat="44.95770403991193" lon="9.300693417761854"><ele>350.0</ele><time>2026-04-23T15:53:14.999Z</time></trkpt><trkpt lat="44.95786651494168" lon="9.30077679236261"><ele>350.0</ele><time>2026-04-23T15:53:15.999Z</time></trkpt><trkpt lat="44.95802350090483" lon="9.300849711248606"><ele>350.0</ele><time>2026-04-23T15:53:16.999Z</time></trkpt><trkpt lat="44.95816843841632" lon="9.300919870505586"><ele>350.0</ele><time>2026-04-23T15:53:17.999Z</time></trkpt><trkpt lat="44.9583186273971" lon="9.300994065299582"><ele>350.6666666666667</ele><time>2026-04-23T15:53:18.999Z</time></trkpt><trkpt lat="44.95847201063815" lon="9.301069838463532"><ele>351.3333333333333</ele><time>2026-04-23T15:53:19.999Z</time></trkpt><trkpt lat="44.958622320206004" lon="9.301143170967988"><ele>352.0</ele><time>2026-04-23T15:53:20.999Z</time></trkpt><trkpt lat="44.9587518135129" lon="9.301206528488288"><ele>352.0</ele><time>2026-04-23T15:53:21.999Z</time></trkpt><trkpt lat="44.958876806819276" lon="9.301269510533723"><ele>352.0</ele><time>2026-04-23T15:53:22.999Z</time></trkpt><trkpt lat="44.95897905002892" lon="9.301327494031955"><ele>352.0</ele><time>2026-04-23T15:53:23.999Z</time></trkpt><trkpt lat="44.959053341352494" lon="9.301380452081236"><ele>352.0</ele><time>2026-04-23T15:53:24.999Z</time></trkpt><trkpt lat="44.959135832784035" lon="9.301451775018016"><ele>352.0</ele><time>2026-04-23T15:53:26.999Z</time></trkpt><trkpt lat="44.959036923903305" lon="9.301638533764178"><ele>353.8</ele><time>2026-04-23T15:53:43Z</time></trkpt><trkpt lat="44.958985353498086" lon="9.301710554602112"><ele>355.6</ele><time>2026-04-23T15:53:44Z</time></trkpt><trkpt lat="44.95897902776962" lon="9.301817456752984"><ele>357.40000000000003</ele><time>2026-04-23T15:53:45Z</time></trkpt><trkpt lat="44.95901206185674" lon="9.301913034027192"><ele>359.20000000000005</ele><time>2026-04-23T15:53:46Z</time></trkpt><trkpt lat="44.95912199904628" lon="9.301990349609621"><ele>361.0</ele><time>2026-04-23T15:53:47Z</time></trkpt><trkpt lat="44.95922868017064" lon="9.302035079255994"><ele>361.25</ele><time>2026-04-23T15:53:48Z</time></trkpt><trkpt lat="44.959341181826275" lon="9.302096711716949"><ele>361.5</ele><time>2026-04-23T15:53:49Z</time></trkpt><trkpt lat="44.9594723444627" lon="9.30213744090973"><ele>361.75</ele><time>2026-04-23T15:53:50Z</time></trkpt><trkpt lat="44.9595824197942" lon="9.302202556286566"><ele>362.0</ele><time>2026-04-23T15:53:51Z</time></trkpt><trkpt lat="44.95968522425967" lon="9.302241196828163"><ele>363.83333333333337</ele><time>2026-04-23T15:53:52Z</time></trkpt><trkpt lat="44.9597772546346" lon="9.30228305504735"><ele>365.6666666666667</ele><time>2026-04-23T15:53:53Z</time></trkpt><trkpt lat="44.95984720905867" lon="9.302334182920633"><ele>367.5</ele><time>2026-04-23T15:53:54Z</time></trkpt><trkpt lat="44.95988460200817" lon="9.302411283419335"><ele>369.3333333333333</ele><time>2026-04-23T15:53:55Z</time></trkpt><trkpt lat="44.95986195540434" lon="9.302503588036595"><ele>371.16666666666663</ele><time>2026-04-23T15:53:56Z</time></trkpt><trkpt lat="44.959818336524485" lon="9.302578323370682"><ele>373.0</ele><time>2026-04-23T15:53:57Z</time></trkpt><trkpt lat="44.95973571264845" lon="9.302630464352927"><ele>373.0</ele><time>2026-04-23T15:53:58Z</time></trkpt><trkpt lat="44.95962621906661" lon="9.302668392601035"><ele>373.0</ele><time>2026-04-23T15:53:59Z</time></trkpt><trkpt lat="44.9595101428817" lon="9.30274300809633"><ele>373.0</ele><time>2026-04-23T15:54:00Z</time></trkpt><trkpt lat="44.959408989432795" lon="9.302869896259018"><ele>373.0</ele><time>2026-04-23T15:54:01Z</time></trkpt><trkpt lat="44.95931831375481" lon="9.30301672782879"><ele>375.3333333333333</ele><time>2026-04-23T15:54:02Z</time></trkpt><trkpt lat="44.9591974311884" lon="9.30316511926366"><ele>377.6666666666667</ele><time>2026-04-23T15:54:03Z</time></trkpt><trkpt lat="44.95908413365219" lon="9.303307657145385"><ele>380.0</ele><time>2026-04-23T15:54:04Z</time></trkpt><trkpt lat="44.95897180977787" lon="9.303441082144493"><ele>380.0</ele><time>2026-04-23T15:54:05Z</time></trkpt><trkpt lat="44.95887358432017" lon="9.303556053740586"><ele>380.0</ele><time>2026-04-23T15:54:06Z</time></trkpt><trkpt lat="44.95877702788778" lon="9.303632644447015"><ele>380.0</ele><time>2026-04-23T15:54:07Z</time></trkpt><trkpt lat="44.9586701945924" lon="9.303690707022845"><ele>380.0</ele><time>2026-04-23T15:54:08Z</time></trkpt><trkpt lat="44.958553638689544" lon="9.303738223363926"><ele>380.0</ele><time>2026-04-23T15:54:09Z</time></trkpt><trkpt lat="44.95843259188262" lon="9.303765825061928"><ele>380.0</ele><time>2026-04-23T15:54:10Z</time></trkpt><trkpt lat="44.95830269081668" lon="9.303734497093725"><ele>380.0</ele><time>2026-04-23T15:54:11Z</time></trkpt><trkpt lat="44.9581702393356" lon="9.303697374438824"><ele>380.0</ele><time>2026-04-23T15:54:12Z</time></trkpt><trkpt lat="44.95803985335214" lon="9.303684074963874"><ele>379.6</ele><time>2026-04-23T15:54:13Z</time></trkpt><trkpt lat="44.9579305495699" lon="9.303645421163164"><ele>379.2</ele><time>2026-04-23T15:54:14Z</time></trkpt><trkpt lat="44.957833048066995" lon="9.303633036584761"><ele>378.79999999999995</ele><time>2026-04-23T15:54:15Z</time></trkpt><trkpt lat="44.957753784836925" lon="9.303670312503279"><ele>378.4</ele><time>2026-04-23T15:54:16Z</time></trkpt><trkpt lat="44.95769938690833" lon="9.303781778200058"><ele>378.0</ele><time>2026-04-23T15:54:17Z</time></trkpt><trkpt lat="44.95770383270787" lon="9.303898655587204"><ele>379.3333333333333</ele><time>2026-04-23T15:54:18Z</time></trkpt><trkpt lat="44.957761893761756" lon="9.304008606376646"><ele>380.66666666666663</ele><time>2026-04-23T15:54:18.999Z</time></trkpt><trkpt lat="44.95782136569461" lon="9.304112509181081"><ele>382.0</ele><time>2026-04-23T15:54:19.999Z</time></trkpt><trkpt lat="44.95787450545057" lon="9.30418921085699"><ele>383.3333333333333</ele><time>2026-04-23T15:54:20.999Z</time></trkpt><trkpt lat="44.95791945487487" lon="9.30425181951093"><ele>384.66666666666663</ele><time>2026-04-23T15:54:21.999Z</time></trkpt><trkpt lat="44.95800175810851" lon="9.304347043445196"><ele>386.0</ele><time>2026-04-23T15:54:23.999Z</time></trkpt><trkpt lat="44.95805859205414" lon="9.304418272739312"><ele>385.99999999999994</ele><time>2026-04-23T15:54:26.999Z</time></trkpt><trkpt lat="44.9581375877796" lon="9.304445338799152"><ele>386.0</ele><time>2026-04-23T15:56:02.999Z</time></trkpt><trkpt lat="44.95819004062537" lon="9.304603214025637"><ele>386.0</ele><time>2026-04-23T15:56:04.999Z</time></trkpt><trkpt lat="44.9582088082755" lon="9.30470123996293"><ele>386.0</ele><time>2026-04-23T15:56:05.999Z</time></trkpt><trkpt lat="44.958202953281784" lon="9.304808153252358"><ele>385.99999999999994</ele><time>2026-04-23T15:56:06.999Z</time></trkpt><trkpt lat="44.958223400173395" lon="9.30490242422984"><ele>386.0</ele><time>2026-04-23T15:56:07.999Z</time></trkpt><trkpt lat="44.95824767425723" lon="9.304991018388927"><ele>387.3333333333333</ele><time>2026-04-23T15:56:08.999Z</time></trkpt><trkpt lat="44.95828571759696" lon="9.305076153727327"><ele>388.66666666666663</ele><time>2026-04-23T15:56:09.999Z</time></trkpt><trkpt lat="44.95832588232836" lon="9.305147981731606"><ele>390.0</ele><time>2026-04-23T15:56:10.999Z</time></trkpt><trkpt lat="44.958379237351025" lon="9.305213573162003"><ele>391.33333333333337</ele><time>2026-04-23T15:56:11.999Z</time></trkpt><trkpt lat="44.95846033020182" lon="9.305242063621957"><ele>392.6666666666667</ele><time>2026-04-23T15:56:12.999Z</time></trkpt><trkpt lat="44.95857341729805" lon="9.305331714511949"><ele>394.0</ele><time>2026-04-23T15:56:14.999Z</time></trkpt><trkpt lat="44.95863828898217" lon="9.305370318400682"><ele>394.50000000000006</ele><time>2026-04-23T15:56:15.999Z</time></trkpt><trkpt lat="44.958715200421175" lon="9.305416086937626"><ele>395.0</ele><time>2026-04-23T15:56:16.999Z</time></trkpt><trkpt lat="44.958800918241295" lon="9.305447646823831"><ele>395.5</ele><time>2026-04-23T15:56:17.999Z</time></trkpt><trkpt lat="44.958863482564524" lon="9.30552994045808"><ele>396.0</ele><time>2026-04-23T15:56:18.999Z</time></trkpt><trkpt lat="44.958932746971485" lon="9.305611795451807"><ele>396.50000000000006</ele><time>2026-04-23T15:56:19.999Z</time></trkpt><trkpt lat="44.95901238136275" lon="9.305677058781688"><ele>397.0</ele><time>2026-04-23T15:56:20.999Z</time></trkpt><trkpt lat="44.959082894389596" lon="9.305765690049029"><ele>398.8</ele><time>2026-04-23T15:56:21.999Z</time></trkpt><trkpt lat="44.9591631380246" lon="9.305835678549515"><ele>400.6</ele><time>2026-04-23T15:56:22.999Z</time></trkpt><trkpt lat="44.95924300996081" lon="9.30591662430278"><ele>402.40000000000003</ele><time>2026-04-23T15:56:23.999Z</time></trkpt><trkpt lat="44.959332031342505" lon="9.3059464947535"><ele>404.20000000000005</ele><time>2026-04-23T15:56:24.999Z</time></trkpt><trkpt lat="44.95941354887452" lon="9.306001333497157"><ele>406.0</ele><time>2026-04-23T15:56:25.999Z</time></trkpt><trkpt lat="44.95951082295714" lon="9.305985731682842"><ele>407.8</ele><time>2026-04-23T15:56:26.999Z</time></trkpt><trkpt lat="44.95960531284757" lon="9.305976668478857"><ele>409.6</ele><time>2026-04-23T15:56:27.999Z</time></trkpt><trkpt lat="44.95969686536057" lon="9.305980802559832"><ele>411.4</ele><time>2026-04-23T15:56:28.999Z</time></trkpt><trkpt lat="44.959785138991364" lon="9.305912101066532"><ele>413.2</ele><time>2026-04-23T15:56:29.999Z</time></trkpt><trkpt lat="44.95986570992038" lon="9.30583332360598"><ele>415.0</ele><time>2026-04-23T15:56:30.999Z</time></trkpt><trkpt lat="44.959937072051055" lon="9.305749475243843"><ele>415.00000000000006</ele><time>2026-04-23T15:56:31.999Z</time></trkpt><trkpt lat="44.96001425959569" lon="9.305691914557235"><ele>415.0</ele><time>2026-04-23T15:56:32.999Z</time></trkpt><trkpt lat="44.960088878052574" lon="9.305670722057574"><ele>415.0</ele><time>2026-04-23T15:56:33.999Z</time></trkpt><trkpt lat="44.960153854742856" lon="9.305737954087759"><ele>415.0</ele><time>2026-04-23T15:56:34.999Z</time></trkpt><trkpt lat="44.960206906787114" lon="9.305787856464866"><ele>415.00000000000006</ele><time>2026-04-23T15:56:35.999Z</time></trkpt><trkpt lat="44.96020258149374" lon="9.305958597001943"><ele>415.0</ele><time>2026-04-23T15:56:36.999Z</time></trkpt><trkpt lat="44.9602274850447" lon="9.306079762430127"><ele>417.6666666666667</ele><time>2026-04-23T15:56:37.999Z</time></trkpt><trkpt lat="44.96024466893694" lon="9.30619592398414"><ele>420.33333333333337</ele><time>2026-04-23T15:56:38.999Z</time></trkpt><trkpt lat="44.96025273539013" lon="9.306306387486702"><ele>423.0</ele><time>2026-04-23T15:56:39.999Z</time></trkpt><trkpt lat="44.96025204244984" lon="9.306406485658947"><ele>425.66666666666663</ele><time>2026-04-23T15:56:40.999Z</time></trkpt><trkpt lat="44.96025308782045" lon="9.306518398257808"><ele>428.3333333333333</ele><time>2026-04-23T15:56:41.999Z</time></trkpt><trkpt lat="44.960254310326604" lon="9.30662412394532"><ele>431.0</ele><time>2026-04-23T15:56:42.999Z</time></trkpt><trkpt lat="44.96027207281611" lon="9.306731299833684"><ele>430.99999999999994</ele><time>2026-04-23T15:56:43.999Z</time></trkpt><trkpt lat="44.9602777695484" lon="9.306838755636361"><ele>431.0</ele><time>2026-04-23T15:56:44.999Z</time></trkpt><trkpt lat="44.960270866050074" lon="9.306949182089605"><ele>431.0</ele><time>2026-04-23T15:56:45.999Z</time></trkpt><trkpt lat="44.96029200035303" lon="9.307060566252957"><ele>431.0</ele><time>2026-04-23T15:56:46.999Z</time></trkpt><trkpt lat="44.960309180469395" lon="9.307166792100343"><ele>430.99999999999994</ele><time>2026-04-23T15:56:47.999Z</time></trkpt><trkpt lat="44.960342945918306" lon="9.307260894504125"><ele>431.0</ele><time>2026-04-23T15:56:48.999Z</time></trkpt><trkpt lat="44.960412429931424" lon="9.307327357041892"><ele>431.20000000000005</ele><time>2026-04-23T15:56:49.999Z</time></trkpt><trkpt lat="44.96050743420985" lon="9.307331664365735"><ele>431.40000000000003</ele><time>2026-04-23T15:56:50.999Z</time></trkpt><trkpt lat="44.960638422143404" lon="9.307355619066003"><ele>431.6</ele><time>2026-04-23T15:56:51.999Z</time></trkpt><trkpt lat="44.96072462743871" lon="9.307366891174818"><ele>431.8</ele><time>2026-04-23T15:56:52.999Z</time></trkpt><trkpt lat="44.960807384397434" lon="9.307381457654571"><ele>432.0</ele><time>2026-04-23T15:56:53.999Z</time></trkpt><trkpt lat="44.960883355990674" lon="9.30738825287989"><ele>434.1666666666667</ele><time>2026-04-23T15:56:54.999Z</time></trkpt><trkpt lat="44.96095293119126" lon="9.307363581188799"><ele>436.33333333333337</ele><time>2026-04-23T15:56:55.999Z</time></trkpt><trkpt lat="44.96101363076781" lon="9.307313594194001"><ele>438.5</ele><time>2026-04-23T15:56:56.999Z</time></trkpt><trkpt lat="44.96106206696038" lon="9.307251912317023"><ele>440.6666666666667</ele><time>2026-04-23T15:56:57.999Z</time></trkpt><trkpt lat="44.96108277060154" lon="9.307110812591178"><ele>442.83333333333337</ele><time>2026-04-23T15:56:58.999Z</time></trkpt><trkpt lat="44.961112056190466" lon="9.306962723924547"><ele>445.0</ele><time>2026-04-23T15:56:59.999Z</time></trkpt><trkpt lat="44.9611318611911" lon="9.306816573555478"><ele>445.0</ele><time>2026-04-23T15:57:00.999Z</time></trkpt><trkpt lat="44.96114138325684" lon="9.306671986126894"><ele>445.0</ele><time>2026-04-23T15:57:01.999Z</time></trkpt><trkpt lat="44.96114320356563" lon="9.306532292558684"><ele>445.0</ele><time>2026-04-23T15:57:02.999Z</time></trkpt><trkpt lat="44.961148552244346" lon="9.306391344337392"><ele>445.0</ele><time>2026-04-23T15:57:03.999Z</time></trkpt><trkpt lat="44.96115195137902" lon="9.306252792381361"><ele>445.0</ele><time>2026-04-23T15:57:04.999Z</time></trkpt><trkpt lat="44.96115423697237" lon="9.306119095440549"><ele>445.00000000000006</ele><time>2026-04-23T15:57:05.999Z</time></trkpt><trkpt lat="44.96114848387813" lon="9.30598977481007"><ele>445.0</ele><time>2026-04-23T15:57:06.999Z</time></trkpt><trkpt lat="44.96114474426481" lon="9.305862915570895"><ele>445.0</ele><time>2026-04-23T15:57:07.999Z</time></trkpt><trkpt lat="44.96113817904247" lon="9.305739152972324"><ele>445.0</ele><time>2026-04-23T15:57:08.999Z</time></trkpt><trkpt lat="44.96113055280939" lon="9.305621159451613"><ele>445.00000000000006</ele><time>2026-04-23T15:57:09.999Z</time></trkpt><trkpt lat="44.961115475638074" lon="9.3055046245711"><ele>445.0</ele><time>2026-04-23T15:57:10.999Z</time></trkpt><trkpt lat="44.96111119620418" lon="9.30539501821263"><ele>443.6666666666667</ele><time>2026-04-23T15:57:11.999Z</time></trkpt><trkpt lat="44.961116111643804" lon="9.305292948876206"><ele>442.33333333333337</ele><time>2026-04-23T15:57:12.999Z</time></trkpt><trkpt lat="44.96114056051648" lon="9.305201401014363"><ele>441.0</ele><time>2026-04-23T15:57:13.999Z</time></trkpt><trkpt lat="44.961186196066315" lon="9.30512460532655"><ele>439.66666666666663</ele><time>2026-04-23T15:57:14.999Z</time></trkpt><trkpt lat="44.96124711443111" lon="9.305064280521178"><ele>438.3333333333333</ele><time>2026-04-23T15:57:15.999Z</time></trkpt><trkpt lat="44.96131118990321" lon="9.305029545405004"><ele>437.0</ele><time>2026-04-23T15:57:16.999Z</time></trkpt><trkpt lat="44.96144072586298" lon="9.305027094729535"><ele>437.0</ele><time>2026-04-23T15:57:18.999Z</time></trkpt><trkpt lat="44.961508435260775" lon="9.305046753021799"><ele>437.00000000000006</ele><time>2026-04-23T15:57:19.999Z</time></trkpt><trkpt lat="44.96155798481413" lon="9.30511945931119"><ele>437.00000000000006</ele><time>2026-04-23T15:57:20.999Z</time></trkpt><trkpt lat="44.96160858204425" lon="9.305279506213255"><ele>437.0</ele><time>2026-04-23T15:57:22.999Z</time></trkpt><trkpt lat="44.961646117328534" lon="9.305429469832914"><ele>437.0</ele><time>2026-04-23T15:57:24.999Z</time></trkpt><trkpt lat="44.961679239983766" lon="9.305574657851329"><ele>438.20000000000005</ele><time>2026-04-23T15:57:26.999Z</time></trkpt><trkpt lat="44.96173352015966" lon="9.305713998280753"><ele>439.40000000000003</ele><time>2026-04-23T15:57:28.999Z</time></trkpt><trkpt lat="44.96175658169922" lon="9.305868005778507"><ele>440.59999999999997</ele><time>2026-04-23T15:57:30.999Z</time></trkpt><trkpt lat="44.96178649467293" lon="9.306006605406777"><ele>441.79999999999995</ele><time>2026-04-23T15:57:32.999Z</time></trkpt><trkpt lat="44.961779641882416" lon="9.306152214237873"><ele>443.0</ele><time>2026-04-23T15:57:34.999Z</time></trkpt><trkpt lat="44.961753401733546" lon="9.3063208989322"><ele>445.79999999999995</ele><time>2026-04-23T15:57:36.999Z</time></trkpt><trkpt lat="44.96177229438617" lon="9.306498412333825"><ele>448.59999999999997</ele><time>2026-04-23T15:57:38.999Z</time></trkpt><trkpt lat="44.96180183625174" lon="9.306606476337778"><ele>451.40000000000003</ele><time>2026-04-23T15:57:39.999Z</time></trkpt><trkpt lat="44.96182404557864" lon="9.306714164750947"><ele>454.20000000000005</ele><time>2026-04-23T15:57:40.999Z</time></trkpt><trkpt lat="44.961826939794655" lon="9.30685025763552"><ele>457.0</ele><time>2026-04-23T15:57:41.999Z</time></trkpt><trkpt lat="44.96185760752816" lon="9.30700816549275"><ele>457.00000000000006</ele><time>2026-04-23T15:57:42.999Z</time></trkpt><trkpt lat="44.961869345123255" lon="9.307167208754825"><ele>457.0</ele><time>2026-04-23T15:57:43.998Z</time></trkpt><trkpt lat="44.96186126666872" lon="9.307305390788715"><ele>457.0</ele><time>2026-04-23T15:57:44.998Z</time></trkpt><trkpt lat="44.96186386345999" lon="9.307418849989048"><ele>457.0</ele><time>2026-04-23T15:57:45.999Z</time></trkpt><trkpt lat="44.96187319361243" lon="9.307526204933643"><ele>457.00000000000006</ele><time>2026-04-23T15:57:46.999Z</time></trkpt><trkpt lat="44.96187355994989" lon="9.307624067381274"><ele>457.0</ele><time>2026-04-23T15:57:47.999Z</time></trkpt><trkpt lat="44.96187367681051" lon="9.307723002646625"><ele>457.6</ele><time>2026-04-23T15:57:48.999Z</time></trkpt><trkpt lat="44.961873895507814" lon="9.307839620909428"><ele>458.20000000000005</ele><time>2026-04-23T15:57:49.999Z</time></trkpt><trkpt lat="44.961870665221134" lon="9.307973622027253"><ele>458.8</ele><time>2026-04-23T15:57:50.999Z</time></trkpt><trkpt lat="44.96187356317977" lon="9.308102692840043"><ele>459.4</ele><time>2026-04-23T15:57:51.999Z</time></trkpt><trkpt lat="44.961888253187034" lon="9.308203943602788"><ele>460.0</ele><time>2026-04-23T15:57:52.999Z</time></trkpt><trkpt lat="44.96193767016536" lon="9.308340269281498"><ele>458.2</ele><time>2026-04-23T15:57:54.999Z</time></trkpt><trkpt lat="44.96195533183559" lon="9.308441566273014"><ele>456.4</ele><time>2026-04-23T15:57:58Z</time></trkpt><trkpt lat="44.961930834735085" lon="9.3085275157313"><ele>454.6</ele><time>2026-04-23T15:58:02Z</time></trkpt><trkpt lat="44.96189241394309" lon="9.30862859128395"><ele>452.8</ele><time>2026-04-23T15:58:19Z</time></trkpt><trkpt lat="44.961844889444585" lon="9.308781407582503"><ele>451.0</ele><time>2026-04-23T15:58:21Z</time></trkpt><trkpt lat="44.96184937478753" lon="9.308970392207929"><ele>449.20000000000005</ele><time>2026-04-23T15:58:23Z</time></trkpt><trkpt lat="44.96190518262425" lon="9.30914969356537"><ele>447.40000000000003</ele><time>2026-04-23T15:58:24.999Z</time></trkpt><trkpt lat="44.961960998472705" lon="9.309245990126293"><ele>445.6</ele><time>2026-04-23T15:58:25.999Z</time></trkpt><trkpt lat="44.9620414334123" lon="9.309312931588202"><ele>443.8</ele><time>2026-04-23T15:58:26.999Z</time></trkpt><trkpt lat="44.96212219288579" lon="9.309358483948643"><ele>442.0</ele><time>2026-04-23T15:58:27.999Z</time></trkpt><trkpt lat="44.962208343732954" lon="9.30938087880433"><ele>442.0</ele><time>2026-04-23T15:58:28.999Z</time></trkpt><trkpt lat="44.96228903536727" lon="9.309398017767613"><ele>442.00000000000006</ele><time>2026-04-23T15:58:29.999Z</time></trkpt><trkpt lat="44.962348181515935" lon="9.309445112157443"><ele>442.00000000000006</ele><time>2026-04-23T15:58:30.999Z</time></trkpt><trkpt lat="44.96245809888209" lon="9.309550069073731"><ele>442.0</ele><time>2026-04-23T15:58:32.999Z</time></trkpt><trkpt lat="44.962472816178455" lon="9.309667231621868"><ele>442.0</ele><time>2026-04-23T15:58:33.999Z</time></trkpt><trkpt lat="44.96251364610189" lon="9.309779304721435"><ele>441.8</ele><time>2026-04-23T15:58:34.999Z</time></trkpt><trkpt lat="44.9625291681453" lon="9.30991013241163"><ele>441.6</ele><time>2026-04-23T15:58:35.999Z</time></trkpt><trkpt lat="44.96252806611694" lon="9.310040068319477"><ele>441.40000000000003</ele><time>2026-04-23T15:58:36.999Z</time></trkpt><trkpt lat="44.962518937604564" lon="9.310164486102204"><ele>441.20000000000005</ele><time>2026-04-23T15:58:37.999Z</time></trkpt><trkpt lat="44.962495987595574" lon="9.310289119756007"><ele>441.0</ele><time>2026-04-23T15:58:38.999Z</time></trkpt><trkpt lat="44.962468223702366" lon="9.310422423485228"><ele>441.0</ele><time>2026-04-23T15:58:39.999Z</time></trkpt><trkpt lat="44.96243528121613" lon="9.3105514743235"><ele>441.0</ele><time>2026-04-23T15:58:40.999Z</time></trkpt><trkpt lat="44.96239581952215" lon="9.31068013723331"><ele>441.0</ele><time>2026-04-23T15:58:41.999Z</time></trkpt><trkpt lat="44.962346413082756" lon="9.310800079531067"><ele>441.0</ele><time>2026-04-23T15:58:42.999Z</time></trkpt><trkpt lat="44.962286722138586" lon="9.310911881452657"><ele>441.0</ele><time>2026-04-23T15:58:43.999Z</time></trkpt><trkpt lat="44.962218292572004" lon="9.311030747103787"><ele>438.8</ele><time>2026-04-23T15:58:44.999Z</time></trkpt><trkpt lat="44.9621493833812" lon="9.311149059236637"><ele>436.6</ele><time>2026-04-23T15:58:45.999Z</time></trkpt><trkpt lat="44.962086308967656" lon="9.311257081801783"><ele>434.4</ele><time>2026-04-23T15:58:46.999Z</time></trkpt><trkpt lat="44.962026973714686" lon="9.31136682275336"><ele>432.2</ele><time>2026-04-23T15:58:47.999Z</time></trkpt><trkpt lat="44.96197714464571" lon="9.311490855337196"><ele>430.0</ele><time>2026-04-23T15:58:48.999Z</time></trkpt><trkpt lat="44.961933479823514" lon="9.31160110885885"><ele>428.8</ele><time>2026-04-23T15:58:49.999Z</time></trkpt><trkpt lat="44.96190737171192" lon="9.311720266532326"><ele>427.6</ele><time>2026-04-23T15:58:50.999Z</time></trkpt><trkpt lat="44.96191406984811" lon="9.311844175962065"><ele>426.4</ele><time>2026-04-23T15:58:51.999Z</time></trkpt><trkpt lat="44.96194135380712" lon="9.311982566093596"><ele>425.2</ele><time>2026-04-23T15:58:52.999Z</time></trkpt><trkpt lat="44.96202086455157" lon="9.312120699398193"><ele>424.0</ele><time>2026-04-23T15:58:53.999Z</time></trkpt><trkpt lat="44.9621434583234" lon="9.312220194463483"><ele>424.5</ele><time>2026-04-23T15:58:54.999Z</time></trkpt><trkpt lat="44.96226711287903" lon="9.312330411061915"><ele>425.0</ele><time>2026-04-23T15:58:55.999Z</time></trkpt><trkpt lat="44.96237851424379" lon="9.312425449955233"><ele>425.5</ele><time>2026-04-23T15:58:56.999Z</time></trkpt><trkpt lat="44.96246782800152" lon="9.312534503148244"><ele>426.0</ele><time>2026-04-23T15:58:57.999Z</time></trkpt><trkpt lat="44.962532521826084" lon="9.312697226488728"><ele>422.5</ele><time>2026-04-23T15:58:58.999Z</time></trkpt><trkpt lat="44.96255641613594" lon="9.312897731466826"><ele>419.0</ele><time>2026-04-23T15:58:59.999Z</time></trkpt><trkpt lat="44.962585840043175" lon="9.313100322408028"><ele>415.5</ele><time>2026-04-23T15:59:00.999Z</time></trkpt><trkpt lat="44.96259274231212" lon="9.31326903365829"><ele>412.0</ele><time>2026-04-23T15:59:01.999Z</time></trkpt><trkpt lat="44.962586263957554" lon="9.313402043210381"><ele>412.0</ele><time>2026-04-23T15:59:02.999Z</time></trkpt><trkpt lat="44.96257233785736" lon="9.313518073908027"><ele>412.0</ele><time>2026-04-23T15:59:03.999Z</time></trkpt><trkpt lat="44.96251663529585" lon="9.313613111686257"><ele>412.0</ele><time>2026-04-23T15:59:04.999Z</time></trkpt><trkpt lat="44.962444913770504" lon="9.313694526154615"><ele>412.0</ele><time>2026-04-23T15:59:05.999Z</time></trkpt><trkpt lat="44.962355909811905" lon="9.313781990022475"><ele>412.0</ele><time>2026-04-23T15:59:06.999Z</time></trkpt><trkpt lat="44.96226761393054" lon="9.31386236073139"><ele>415.0</ele><time>2026-04-23T15:59:07.999Z</time></trkpt><trkpt lat="44.96218051478292" lon="9.313962937450563"><ele>418.0</ele><time>2026-04-23T15:59:08.999Z</time></trkpt><trkpt lat="44.96209950086135" lon="9.314046124448568"><ele>421.00000000000006</ele><time>2026-04-23T15:59:09.999Z</time></trkpt><trkpt lat="44.96200898709923" lon="9.314107731308418"><ele>424.0</ele><time>2026-04-23T15:59:10.999Z</time></trkpt><trkpt lat="44.96189455814308" lon="9.31414355492247"><ele>427.0</ele><time>2026-04-23T15:59:11.999Z</time></trkpt><trkpt lat="44.961758690004665" lon="9.31417697683933"><ele>429.5</ele><time>2026-04-23T15:59:12.999Z</time></trkpt><trkpt lat="44.9616118577168" lon="9.314157197014323"><ele>432.0</ele><time>2026-04-23T15:59:13.999Z</time></trkpt><trkpt lat="44.9614712597584" lon="9.314153384607446"><ele>434.5</ele><time>2026-04-23T15:59:14.999Z</time></trkpt><trkpt lat="44.96132746685931" lon="9.314130845470515"><ele>437.0</ele><time>2026-04-23T15:59:15.999Z</time></trkpt><trkpt lat="44.96119054833014" lon="9.314113664470757"><ele>437.0</ele><time>2026-04-23T15:59:16.999Z</time></trkpt><trkpt lat="44.96109226026443" lon="9.314114108018515"><ele>437.0</ele><time>2026-04-23T15:59:17.999Z</time></trkpt><trkpt lat="44.96098606477369" lon="9.314154497974235"><ele>437.0</ele><time>2026-04-23T15:59:18.999Z</time></trkpt><trkpt lat="44.96091296364444" lon="9.314209705293194"><ele>437.0</ele><time>2026-04-23T15:59:19.999Z</time></trkpt><trkpt lat="44.96074578455657" lon="9.314453700488695"><ele>440.0</ele><time>2026-04-23T15:59:20.999Z</time></trkpt><trkpt lat="44.96067825870945" lon="9.314631056273305"><ele>443.0</ele><time>2026-04-23T15:59:21.999Z</time></trkpt><trkpt lat="44.960626666022634" lon="9.314843987769084"><ele>446.0</ele><time>2026-04-23T15:59:22.999Z</time></trkpt><trkpt lat="44.9606074159361" lon="9.315071445175175"><ele>446.0</ele><time>2026-04-23T15:59:23.999Z</time></trkpt><trkpt lat="44.960578505010666" lon="9.31529661989892"><ele>446.0</ele><time>2026-04-23T15:59:24.999Z</time></trkpt><trkpt lat="44.96052526131046" lon="9.31551129956481"><ele>446.0</ele><time>2026-04-23T15:59:25.999Z</time></trkpt><trkpt lat="44.96047503421417" lon="9.315717246811005"><ele>445.0</ele><time>2026-04-23T15:59:26.999Z</time></trkpt><trkpt lat="44.96042520929827" lon="9.315928149294438"><ele>444.0</ele><time>2026-04-23T15:59:27.999Z</time></trkpt><trkpt lat="44.96039340213083" lon="9.316169590270038"><ele>443.0</ele><time>2026-04-23T15:59:28.999Z</time></trkpt><trkpt lat="44.960362627824054" lon="9.316433001302634"><ele>442.0</ele><time>2026-04-23T15:59:29.999Z</time></trkpt><trkpt lat="44.96034771469751" lon="9.316730540449297"><ele>441.0</ele><time>2026-04-23T15:59:30.999Z</time></trkpt><trkpt lat="44.96034304273276" lon="9.31703249489795"><ele>440.0</ele><time>2026-04-23T15:59:31.999Z</time></trkpt><trkpt lat="44.96034198648007" lon="9.317306394439635"><ele>440.0</ele><time>2026-04-23T15:59:32.999Z</time></trkpt><trkpt lat="44.96034456218683" lon="9.317602488099771"><ele>440.0</ele><time>2026-04-23T15:59:33.999Z</time></trkpt><trkpt lat="44.960336445357065" lon="9.31789145826691"><ele>440.0</ele><time>2026-04-23T15:59:34.999Z</time></trkpt><trkpt lat="44.96033336476114" lon="9.318172360785008"><ele>440.0</ele><time>2026-04-23T15:59:35.999Z</time></trkpt><trkpt lat="44.9603318369867" lon="9.318452033973529"><ele>440.0</ele><time>2026-04-23T15:59:36.999Z</time></trkpt><trkpt lat="44.96031061793789" lon="9.31872187410873"><ele>440.0</ele><time>2026-04-23T15:59:37.999Z</time></trkpt><trkpt lat="44.96030456928627" lon="9.31898713424625"><ele>440.0</ele><time>2026-04-23T15:59:38.999Z</time></trkpt><trkpt lat="44.960298470275376" lon="9.31924342102288"><ele>440.0</ele><time>2026-04-23T15:59:39.999Z</time></trkpt><trkpt lat="44.960293194242496" lon="9.319476139605255"><ele>440.0</ele><time>2026-04-23T15:59:40.999Z</time></trkpt><trkpt lat="44.96030369970782" lon="9.319689991297711"><ele>441.0</ele><time>2026-04-23T15:59:41.999Z</time></trkpt><trkpt lat="44.96031050413706" lon="9.319878909281247"><ele>442.0</ele><time>2026-04-23T15:59:42.999Z</time></trkpt><trkpt lat="44.96033658914065" lon="9.320068639172966"><ele>443.0</ele><time>2026-04-23T15:59:43.999Z</time></trkpt><trkpt lat="44.96038818375505" lon="9.32024646593732"><ele>444.0</ele><time>2026-04-23T15:59:44.999Z</time></trkpt><trkpt lat="44.960467472392835" lon="9.320411247506138"><ele>444.66666666666663</ele><time>2026-04-23T15:59:45.999Z</time></trkpt><trkpt lat="44.96057762524938" lon="9.320585597908105"><ele>445.3333333333333</ele><time>2026-04-23T15:59:46.999Z</time></trkpt><trkpt lat="44.96070492478721" lon="9.320752254162816"><ele>446.0</ele><time>2026-04-23T15:59:47.999Z</time></trkpt><trkpt lat="44.9608575229743" lon="9.32088462430403"><ele>442.66666666666663</ele><time>2026-04-23T15:59:48.999Z</time></trkpt><trkpt lat="44.96100738732347" lon="9.321029115435655"><ele>439.33333333333337</ele><time>2026-04-23T15:59:49.999Z</time></trkpt><trkpt lat="44.9611513219834" lon="9.321171011424568"><ele>436.0</ele><time>2026-04-23T15:59:50.999Z</time></trkpt><trkpt lat="44.961295175805105" lon="9.32131411136347"><ele>436.0</ele><time>2026-04-23T15:59:52Z</time></trkpt><trkpt lat="44.96143612980742" lon="9.321458456687125"><ele>436.0</ele><time>2026-04-23T15:59:53Z</time></trkpt><trkpt lat="44.961570141651116" lon="9.321606414128201"><ele>436.0</ele><time>2026-04-23T15:59:54Z</time></trkpt><trkpt lat="44.96170170002912" lon="9.321749950508307"><ele>436.0</ele><time>2026-04-23T15:59:55Z</time></trkpt><trkpt lat="44.96183605233415" lon="9.321879155329778"><ele>436.0</ele><time>2026-04-23T15:59:56Z</time></trkpt><trkpt lat="44.9619700742355" lon="9.32199651925905"><ele>436.0</ele><time>2026-04-23T15:59:57Z</time></trkpt><trkpt lat="44.96210282508873" lon="9.322104850938809"><ele>436.0</ele><time>2026-04-23T15:59:58Z</time></trkpt><trkpt lat="44.96223206890655" lon="9.322187872247016"><ele>436.0</ele><time>2026-04-23T15:59:59Z</time></trkpt><trkpt lat="44.96235881534257" lon="9.322250364589186"><ele>436.0</ele><time>2026-04-23T16:00:00Z</time></trkpt><trkpt lat="44.96249067415325" lon="9.322317340415498"><ele>436.0</ele><time>2026-04-23T16:00:01Z</time></trkpt><trkpt lat="44.96261965070102" lon="9.322397575851625"><ele>437.5</ele><time>2026-04-23T16:00:02Z</time></trkpt><trkpt lat="44.962731892802786" lon="9.322508150221624"><ele>439.0</ele><time>2026-04-23T16:00:03Z</time></trkpt><trkpt lat="44.96286469546776" lon="9.322599792509417"><ele>440.5</ele><time>2026-04-23T16:00:04Z</time></trkpt><trkpt lat="44.96297797008533" lon="9.322718954755242"><ele>442.0</ele><time>2026-04-23T16:00:05Z</time></trkpt><trkpt lat="44.96307442079362" lon="9.322818211109889"><ele>442.0</ele><time>2026-04-23T16:00:06Z</time></trkpt><trkpt lat="44.96317751681379" lon="9.322891109750756"><ele>442.0</ele><time>2026-04-23T16:00:07Z</time></trkpt><trkpt lat="44.96330243883427" lon="9.322940448441207"><ele>442.0</ele><time>2026-04-23T16:00:08Z</time></trkpt><trkpt lat="44.963455553575024" lon="9.322958304188507"><ele>442.0</ele><time>2026-04-23T16:00:09Z</time></trkpt><trkpt lat="44.96362661133568" lon="9.322945165828193"><ele>442.0</ele><time>2026-04-23T16:00:10Z</time></trkpt><trkpt lat="44.963790970287185" lon="9.32295379931906"><ele>442.0</ele><time>2026-04-23T16:00:11Z</time></trkpt><trkpt lat="44.96393069312257" lon="9.32301742505737"><ele>442.0</ele><time>2026-04-23T16:00:12Z</time></trkpt><trkpt lat="44.96405801324833" lon="9.323100202484493"><ele>444.20000000000005</ele><time>2026-04-23T16:00:13Z</time></trkpt><trkpt lat="44.96417805645129" lon="9.323160040035168"><ele>446.40000000000003</ele><time>2026-04-23T16:00:14Z</time></trkpt><trkpt lat="44.96428668230535" lon="9.323246070160279"><ele>448.59999999999997</ele><time>2026-04-23T16:00:15Z</time></trkpt><trkpt lat="44.9643881080772" lon="9.32332139620142"><ele>450.79999999999995</ele><time>2026-04-23T16:00:16Z</time></trkpt><trkpt lat="44.964449756866806" lon="9.323389814983779"><ele>453.0</ele><time>2026-04-23T16:00:17Z</time></trkpt><trkpt lat="44.9645353460648" lon="9.323484612081682"><ele>453.79999999999995</ele><time>2026-04-23T16:00:18Z</time></trkpt><trkpt lat="44.96460159777882" lon="9.323603060165631"><ele>454.59999999999997</ele><time>2026-04-23T16:00:19Z</time></trkpt><trkpt lat="44.96465003816522" lon="9.323696396098589"><ele>455.40000000000003</ele><time>2026-04-23T16:00:20Z</time></trkpt><trkpt lat="44.96471108813375" lon="9.32384123041016"><ele>456.20000000000005</ele><time>2026-04-23T16:00:22Z</time></trkpt><trkpt lat="44.96473937958643" lon="9.32398626895584"><ele>457.0</ele><time>2026-04-23T16:00:24Z</time></trkpt><trkpt lat="44.96475134346132" lon="9.324075816487442"><ele>456.6666666666667</ele><time>2026-04-23T16:00:25Z</time></trkpt><trkpt lat="44.96476347192382" lon="9.32420793834719"><ele>456.33333333333337</ele><time>2026-04-23T16:00:27Z</time></trkpt><trkpt lat="44.964772959788434" lon="9.32432071376358"><ele>456.0</ele><time>2026-04-23T16:00:37Z</time></trkpt><trkpt lat="44.964860360521065" lon="9.324313243050314"><ele>455.66666666666663</ele><time>2026-04-23T16:00:38Z</time></trkpt><trkpt lat="44.964937749720505" lon="9.324266280268294"><ele>455.3333333333333</ele><time>2026-04-23T16:00:39Z</time></trkpt><trkpt lat="44.96502480147906" lon="9.3242232872869"><ele>455.0</ele><time>2026-04-23T16:00:40Z</time></trkpt><trkpt lat="44.965125803681666" lon="9.324197003663183"><ele>455.0</ele><time>2026-04-23T16:00:41Z</time></trkpt><trkpt lat="44.96522473232995" lon="9.324177983791698"><ele>455.0</ele><time>2026-04-23T16:00:42Z</time></trkpt><trkpt lat="44.965298824394736" lon="9.3241372178975"><ele>455.0</ele><time>2026-04-23T16:00:43Z</time></trkpt><trkpt lat="44.965384494864274" lon="9.324092920367905"><ele>455.0</ele><time>2026-04-23T16:00:44Z</time></trkpt><trkpt lat="44.96546778805215" lon="9.32404559069735"><ele>455.0</ele><time>2026-04-23T16:00:45Z</time></trkpt><trkpt lat="44.96554907293166" lon="9.323986689261535"><ele>454.99999999999994</ele><time>2026-04-23T16:00:46Z</time></trkpt><trkpt lat="44.96562874630003" lon="9.323931243704992"><ele>455.0</ele><time>2026-04-23T16:00:47Z</time></trkpt><trkpt lat="44.96570231976604" lon="9.32387179193784"><ele>455.0</ele><time>2026-04-23T16:00:48Z</time></trkpt><trkpt lat="44.96577016582094" lon="9.323805662693323"><ele>455.0</ele><time>2026-04-23T16:00:48.999Z</time></trkpt><trkpt lat="44.96584422403515" lon="9.323744629044965"><ele>454.99999999999994</ele><time>2026-04-23T16:00:49.999Z</time></trkpt><trkpt lat="44.96591892608016" lon="9.323673566432628"><ele>455.0</ele><time>2026-04-23T16:00:50.999Z</time></trkpt><trkpt lat="44.966005161893555" lon="9.323612745911339"><ele>454.2</ele><time>2026-04-23T16:00:51.999Z</time></trkpt><trkpt lat="44.96609526086367" lon="9.323536218649155"><ele>453.4</ele><time>2026-04-23T16:00:52.999Z</time></trkpt><trkpt lat="44.96618148149478" lon="9.32343745343436"><ele>452.6</ele><time>2026-04-23T16:00:53.999Z</time></trkpt><trkpt lat="44.96628317712562" lon="9.32336615683139"><ele>451.8</ele><time>2026-04-23T16:00:54.999Z</time></trkpt><trkpt lat="44.96637430108968" lon="9.323287297729438"><ele>451.0</ele><time>2026-04-23T16:00:55.999Z</time></trkpt><trkpt lat="44.96646188057296" lon="9.323224825322104"><ele>451.0</ele><time>2026-04-23T16:00:56.999Z</time></trkpt><trkpt lat="44.96654707612329" lon="9.32315246283478"><ele>451.0</ele><time>2026-04-23T16:00:57.999Z</time></trkpt><trkpt lat="44.966626765266184" lon="9.323064752142486"><ele>451.0</ele><time>2026-04-23T16:00:58.999Z</time></trkpt><trkpt lat="44.96671886423153" lon="9.323002048775681"><ele>451.0</ele><time>2026-04-23T16:00:59.999Z</time></trkpt><trkpt lat="44.96680764363961" lon="9.322930949547978"><ele>451.0</ele><time>2026-04-23T16:01:00.999Z</time></trkpt><trkpt lat="44.96689310896801" lon="9.322854799501659"><ele>450.6</ele><time>2026-04-23T16:01:01.999Z</time></trkpt><trkpt lat="44.96698217836862" lon="9.322787454309209"><ele>450.20000000000005</ele><time>2026-04-23T16:01:02.999Z</time></trkpt><trkpt lat="44.96707446496599" lon="9.322719675821574"><ele>449.79999999999995</ele><time>2026-04-23T16:01:03.999Z</time></trkpt><trkpt lat="44.96716936046179" lon="9.322656545417543"><ele>449.4</ele><time>2026-04-23T16:01:04.999Z</time></trkpt><trkpt lat="44.96727089158691" lon="9.322610021400836"><ele>449.0</ele><time>2026-04-23T16:01:05.999Z</time></trkpt><trkpt lat="44.96736279326654" lon="9.3225524314104"><ele>448.99999999999994</ele><time>2026-04-23T16:01:06.999Z</time></trkpt><trkpt lat="44.96745278385022" lon="9.32249836048407"><ele>449.0</ele><time>2026-04-23T16:01:07.999Z</time></trkpt><trkpt lat="44.96753988990416" lon="9.322450699791572"><ele>449.0</ele><time>2026-04-23T16:01:08.999Z</time></trkpt><trkpt lat="44.96762148127711" lon="9.322414187444531"><ele>449.0</ele><time>2026-04-23T16:01:09.999Z</time></trkpt><trkpt lat="44.96769603060312" lon="9.322379016395777"><ele>448.99999999999994</ele><time>2026-04-23T16:01:10.999Z</time></trkpt><trkpt lat="44.96776823653178" lon="9.322341420278368"><ele>449.0</ele><time>2026-04-23T16:01:11.999Z</time></trkpt><trkpt lat="44.96783642940792" lon="9.322299648735253"><ele>448.8333333333333</ele><time>2026-04-23T16:01:12.999Z</time></trkpt><trkpt lat="44.96790774947514" lon="9.32226325707965"><ele>448.66666666666663</ele><time>2026-04-23T16:01:13.999Z</time></trkpt><trkpt lat="44.967983983159584" lon="9.322245300406067"><ele>448.5</ele><time>2026-04-23T16:01:14.999Z</time></trkpt><trkpt lat="44.96805355422519" lon="9.322216357275252"><ele>448.33333333333337</ele><time>2026-04-23T16:01:15.999Z</time></trkpt><trkpt lat="44.968127118186366" lon="9.32219128064723"><ele>448.1666666666667</ele><time>2026-04-23T16:01:16.999Z</time></trkpt><trkpt lat="44.9682026701276" lon="9.32216576096519"><ele>448.0</ele><time>2026-04-23T16:01:17.999Z</time></trkpt><trkpt lat="44.96827994995512" lon="9.322142787567348"><ele>446.6666666666667</ele><time>2026-04-23T16:01:18.999Z</time></trkpt><trkpt lat="44.96835374152809" lon="9.322106390035307"><ele>445.33333333333337</ele><time>2026-04-23T16:01:19.999Z</time></trkpt><trkpt lat="44.96842696906242" lon="9.32206457581796"><ele>444.0</ele><time>2026-04-23T16:01:20.999Z</time></trkpt><trkpt lat="44.96849994640037" lon="9.322032933664376"><ele>442.66666666666663</ele><time>2026-04-23T16:01:21.999Z</time></trkpt><trkpt lat="44.96857699258989" lon="9.321997147306915"><ele>441.3333333333333</ele><time>2026-04-23T16:01:22.999Z</time></trkpt><trkpt lat="44.96865336139889" lon="9.321971218835776"><ele>440.0</ele><time>2026-04-23T16:01:23.999Z</time></trkpt><trkpt lat="44.9687372635396" lon="9.321954966901565"><ele>439.49999999999994</ele><time>2026-04-23T16:01:24.999Z</time></trkpt><trkpt lat="44.96882083193737" lon="9.321947457569538"><ele>439.0</ele><time>2026-04-23T16:01:25.999Z</time></trkpt><trkpt lat="44.968903551518466" lon="9.321946022464088"><ele>438.5</ele><time>2026-04-23T16:01:26.999Z</time></trkpt><trkpt lat="44.96898007275659" lon="9.321972706272126"><ele>438.0</ele><time>2026-04-23T16:01:27.999Z</time></trkpt><trkpt lat="44.969056814608244" lon="9.321988487297034"><ele>437.49999999999994</ele><time>2026-04-23T16:01:28.999Z</time></trkpt><trkpt lat="44.96913224783776" lon="9.322005110648986"><ele>437.0</ele><time>2026-04-23T16:01:29.999Z</time></trkpt><trkpt lat="44.969210329458335" lon="9.322020576189619"><ele>435.49999999999994</ele><time>2026-04-23T16:01:30.999Z</time></trkpt><trkpt lat="44.96928837976612" lon="9.322043065435327"><ele>434.0</ele><time>2026-04-23T16:01:31.999Z</time></trkpt><trkpt lat="44.969366707196016" lon="9.32206311294497"><ele>432.5</ele><time>2026-04-23T16:01:32.999Z</time></trkpt><trkpt lat="44.96944841883636" lon="9.3220833878602"><ele>431.0</ele><time>2026-04-23T16:01:33.999Z</time></trkpt><trkpt lat="44.96952635465106" lon="9.322102520964368"><ele>429.49999999999994</ele><time>2026-04-23T16:01:34.999Z</time></trkpt><trkpt lat="44.969606025766936" lon="9.32211367897722"><ele>428.0</ele><time>2026-04-23T16:01:35.999Z</time></trkpt><trkpt lat="44.96968423771471" lon="9.322132458966045"><ele>427.99999999999994</ele><time>2026-04-23T16:01:36.999Z</time></trkpt><trkpt lat="44.96976445387888" lon="9.32214478207543"><ele>428.0</ele><time>2026-04-23T16:01:37.999Z</time></trkpt><trkpt lat="44.96984980478991" lon="9.322153875752065"><ele>428.0</ele><time>2026-04-23T16:01:38.999Z</time></trkpt><trkpt lat="44.96993167337642" lon="9.322135565182869"><ele>428.0</ele><time>2026-04-23T16:01:39.999Z</time></trkpt><trkpt lat="44.97001476398535" lon="9.322101984395752"><ele>427.99999999999994</ele><time>2026-04-23T16:01:40.999Z</time></trkpt><trkpt lat="44.97009406545997" lon="9.322061609197823"><ele>428.0</ele><time>2026-04-23T16:01:41.999Z</time></trkpt><trkpt lat="44.97017723115931" lon="9.322012260707314"><ele>426.99999999999994</ele><time>2026-04-23T16:01:42.999Z</time></trkpt><trkpt lat="44.97025532585109" lon="9.321959608967623"><ele>426.0</ele><time>2026-04-23T16:01:43.999Z</time></trkpt><trkpt lat="44.970320981333295" lon="9.321898869913944"><ele>425.0</ele><time>2026-04-23T16:01:44.999Z</time></trkpt><trkpt lat="44.97039006921533" lon="9.321845662912303"><ele>424.0</ele><time>2026-04-23T16:01:45.999Z</time></trkpt><trkpt lat="44.97045373681256" lon="9.321800928675456"><ele>422.99999999999994</ele><time>2026-04-23T16:01:46.999Z</time></trkpt><trkpt lat="44.97052211608043" lon="9.321752689113891"><ele>422.0</ele><time>2026-04-23T16:01:47.999Z</time></trkpt><trkpt lat="44.97057852112398" lon="9.321697052757175"><ele>421.99999999999994</ele><time>2026-04-23T16:01:48.999Z</time></trkpt><trkpt lat="44.970637201975045" lon="9.321643451170852"><ele>422.0</ele><time>2026-04-23T16:01:49.999Z</time></trkpt><trkpt lat="44.970692883676676" lon="9.321599082510456"><ele>422.0</ele><time>2026-04-23T16:01:50.999Z</time></trkpt><trkpt lat="44.97074869974946" lon="9.321556877653975"><ele>422.0</ele><time>2026-04-23T16:01:51.999Z</time></trkpt><trkpt lat="44.97082900535053" lon="9.321488101923512"><ele>421.99999999999994</ele><time>2026-04-23T16:01:53.999Z</time></trkpt><trkpt lat="44.97089035687293" lon="9.321449992959174"><ele>422.0</ele><time>2026-04-23T16:01:56.999Z</time></trkpt><trkpt lat="44.970987108089986" lon="9.321339657732482"><ele>421.6</ele><time>2026-04-23T16:07:05.999Z</time></trkpt><trkpt lat="44.97104093226793" lon="9.32128092563191"><ele>421.20000000000005</ele><time>2026-04-23T16:07:06.999Z</time></trkpt><trkpt lat="44.97112621072417" lon="9.321215236807799"><ele>420.8</ele><time>2026-04-23T16:07:07.999Z</time></trkpt><trkpt lat="44.97121252006568" lon="9.321146602843092"><ele>420.4</ele><time>2026-04-23T16:07:08.999Z</time></trkpt><trkpt lat="44.971301363597895" lon="9.321079771138102"><ele>420.0</ele><time>2026-04-23T16:07:09.999Z</time></trkpt><trkpt lat="44.97138947963971" lon="9.321006116209718"><ele>420.0</ele><time>2026-04-23T16:07:10.999Z</time></trkpt><trkpt lat="44.9714740559127" lon="9.320933957996084"><ele>420.0</ele><time>2026-04-23T16:07:11.999Z</time></trkpt><trkpt lat="44.9715713469568" lon="9.320896353883906"><ele>420.0</ele><time>2026-04-23T16:07:12.999Z</time></trkpt><trkpt lat="44.97166525680449" lon="9.320856596948433"><ele>420.0</ele><time>2026-04-23T16:07:13.999Z</time></trkpt><trkpt lat="44.97178182599815" lon="9.320821698698689"><ele>420.0</ele><time>2026-04-23T16:07:14.999Z</time></trkpt><trkpt lat="44.97192901607215" lon="9.32078651471039"><ele>419.5</ele><time>2026-04-23T16:07:16Z</time></trkpt><trkpt lat="44.97205845969957" lon="9.320742632217462"><ele>419.0</ele><time>2026-04-23T16:07:17Z</time></trkpt><trkpt lat="44.972186484044386" lon="9.32072136081776"><ele>418.5</ele><time>2026-04-23T16:07:18Z</time></trkpt><trkpt lat="44.97230550123193" lon="9.320703893001085"><ele>418.0</ele><time>2026-04-23T16:07:19Z</time></trkpt><trkpt lat="44.9724192165907" lon="9.320681980219314"><ele>416.4</ele><time>2026-04-23T16:07:20Z</time></trkpt><trkpt lat="44.972527280059424" lon="9.320653268009403"><ele>414.79999999999995</ele><time>2026-04-23T16:07:21Z</time></trkpt><trkpt lat="44.9726282153958" lon="9.320610028618685"><ele>413.2</ele><time>2026-04-23T16:07:22Z</time></trkpt><trkpt lat="44.97272305271931" lon="9.320554843626608"><ele>411.6</ele><time>2026-04-23T16:07:23Z</time></trkpt><trkpt lat="44.97281664277143" lon="9.320497191083705"><ele>410.0</ele><time>2026-04-23T16:07:24Z</time></trkpt><trkpt lat="44.97291378584337" lon="9.320439658237044"><ele>410.0</ele><time>2026-04-23T16:07:25Z</time></trkpt><trkpt lat="44.9730100822627" lon="9.320373554103883"><ele>410.0</ele><time>2026-04-23T16:07:26Z</time></trkpt><trkpt lat="44.97311238654867" lon="9.320303905409125"><ele>410.0</ele><time>2026-04-23T16:07:27Z</time></trkpt><trkpt lat="44.97322350007425" lon="9.320249188900947"><ele>410.0</ele><time>2026-04-23T16:07:28Z</time></trkpt><trkpt lat="44.97332855825427" lon="9.32018348752542"><ele>409.25</ele><time>2026-04-23T16:07:29Z</time></trkpt><trkpt lat="44.97343781726168" lon="9.320128633592592"><ele>408.5</ele><time>2026-04-23T16:07:30Z</time></trkpt><trkpt lat="44.973556469990726" lon="9.320084419182335"><ele>407.75</ele><time>2026-04-23T16:07:31Z</time></trkpt><trkpt lat="44.97366854557049" lon="9.320046248317295"><ele>407.0</ele><time>2026-04-23T16:07:32Z</time></trkpt><trkpt lat="44.97377540884641" lon="9.320005283180787"><ele>407.0</ele><time>2026-04-23T16:07:33Z</time></trkpt><trkpt lat="44.97388041023922" lon="9.319963533009862"><ele>407.0</ele><time>2026-04-23T16:07:34Z</time></trkpt><trkpt lat="44.97398366772492" lon="9.319924675336244"><ele>407.0</ele><time>2026-04-23T16:07:35Z</time></trkpt><trkpt lat="44.97408018758673" lon="9.319893228010898"><ele>407.0</ele><time>2026-04-23T16:07:36Z</time></trkpt><trkpt lat="44.974173155574206" lon="9.31985682386043"><ele>407.0</ele><time>2026-04-23T16:07:37Z</time></trkpt><trkpt lat="44.97425459389139" lon="9.319828538551162"><ele>407.8</ele><time>2026-04-23T16:07:38Z</time></trkpt><trkpt lat="44.97432133255476" lon="9.319795172680761"><ele>408.6</ele><time>2026-04-23T16:07:39Z</time></trkpt><trkpt lat="44.974389012713125" lon="9.319760586315589"><ele>409.40000000000003</ele><time>2026-04-23T16:07:40Z</time></trkpt><trkpt lat="44.97450006680148" lon="9.319726234131712"><ele>410.20000000000005</ele><time>2026-04-23T16:07:42Z</time></trkpt><trkpt lat="44.97457896895014" lon="9.319653004906668"><ele>411.0</ele><time>2026-04-23T16:07:44Z</time></trkpt><trkpt lat="44.97470896434724" lon="9.319677678821671"><ele>411.0</ele><time>2026-04-23T16:07:46Z</time></trkpt><trkpt lat="44.97477866232601" lon="9.319700695851054"><ele>411.0</ele><time>2026-04-23T16:07:47Z</time></trkpt><trkpt lat="44.97487410651768" lon="9.319726828318082"><ele>411.0</ele><time>2026-04-23T16:07:48Z</time></trkpt><trkpt lat="44.97497801255681" lon="9.319761801265846"><ele>411.0</ele><time>2026-04-23T16:07:49Z</time></trkpt><trkpt lat="44.9751079858632" lon="9.319773983291881"><ele>411.0</ele><time>2026-04-23T16:07:50Z</time></trkpt><trkpt lat="44.97523175664706" lon="9.319804863236355"><ele>412.4</ele><time>2026-04-23T16:07:51Z</time></trkpt><trkpt lat="44.97535083585753" lon="9.319821569145947"><ele>413.8</ele><time>2026-04-23T16:07:52Z</time></trkpt><trkpt lat="44.97546107365506" lon="9.319852168357459"><ele>415.2</ele><time>2026-04-23T16:07:53Z</time></trkpt><trkpt lat="44.97557053264001" lon="9.319870251038836"><ele>416.59999999999997</ele><time>2026-04-23T16:07:54Z</time></trkpt><trkpt lat="44.975676448365654" lon="9.319890375677357"><ele>418.0</ele><time>2026-04-23T16:07:55Z</time></trkpt><trkpt lat="44.97577672147906" lon="9.319915576904918"><ele>417.4</ele><time>2026-04-23T16:07:56Z</time></trkpt><trkpt lat="44.97586940129014" lon="9.319943555786947"><ele>416.79999999999995</ele><time>2026-04-23T16:07:57Z</time></trkpt><trkpt lat="44.9759569802607" lon="9.319975871334375"><ele>416.2</ele><time>2026-04-23T16:07:58Z</time></trkpt><trkpt lat="44.976046198695876" lon="9.320006071618451"><ele>415.6</ele><time>2026-04-23T16:07:59Z</time></trkpt><trkpt lat="44.976139727242455" lon="9.320010842652605"><ele>415.0</ele><time>2026-04-23T16:08:00Z</time></trkpt><trkpt lat="44.97625189202892" lon="9.319989647814122"><ele>415.00000000000006</ele><time>2026-04-23T16:08:01Z</time></trkpt><trkpt lat="44.97636442238979" lon="9.319981571360639"><ele>415.0</ele><time>2026-04-23T16:08:02Z</time></trkpt><trkpt lat="44.97645705062037" lon="9.319949880196129"><ele>415.0</ele><time>2026-04-23T16:08:03Z</time></trkpt><trkpt lat="44.97653666973018" lon="9.319912112222035"><ele>415.0</ele><time>2026-04-23T16:08:04Z</time></trkpt><trkpt lat="44.97661628866234" lon="9.319902319392115"><ele>415.00000000000006</ele><time>2026-04-23T16:08:05Z</time></trkpt><trkpt lat="44.97668748699825" lon="9.319876137722643"><ele>415.0</ele><time>2026-04-23T16:08:06Z</time></trkpt><trkpt lat="44.976744194492404" lon="9.319837078373714"><ele>414.50000000000006</ele><time>2026-04-23T16:08:07Z</time></trkpt><trkpt lat="44.97680848142334" lon="9.319826692423126"><ele>414.0</ele><time>2026-04-23T16:08:08Z</time></trkpt><trkpt lat="44.976885720660846" lon="9.319835607645595"><ele>413.5</ele><time>2026-04-23T16:08:09Z</time></trkpt><trkpt lat="44.976970592619665" lon="9.31983878367289"><ele>413.0</ele><time>2026-04-23T16:08:10Z</time></trkpt><trkpt lat="44.977078193868735" lon="9.319845680302183"><ele>412.50000000000006</ele><time>2026-04-23T16:08:11Z</time></trkpt><trkpt lat="44.977187683827985" lon="9.31984964063195"><ele>412.0</ele><time>2026-04-23T16:08:12Z</time></trkpt><trkpt lat="44.97729523591339" lon="9.319860722102664"><ele>412.0</ele><time>2026-04-23T16:08:13Z</time></trkpt><trkpt lat="44.97742263784589" lon="9.31988080155622"><ele>412.0</ele><time>2026-04-23T16:08:14Z</time></trkpt><trkpt lat="44.977571966914155" lon="9.319918494637907"><ele>412.0</ele><time>2026-04-23T16:08:15Z</time></trkpt><trkpt lat="44.97773078041041" lon="9.319958372600867"><ele>412.0</ele><time>2026-04-23T16:08:15.999Z</time></trkpt><trkpt lat="44.977911911332754" lon="9.320003059650249"><ele>412.0</ele><time>2026-04-23T16:08:16.999Z</time></trkpt><trkpt lat="44.97808312979272" lon="9.320064615698746"><ele>412.0</ele><time>2026-04-23T16:08:17.999Z</time></trkpt><trkpt lat="44.978259359163026" lon="9.320126788810178"><ele>412.0</ele><time>2026-04-23T16:08:18.999Z</time></trkpt><trkpt lat="44.97842004186038" lon="9.320186737400107"><ele>412.0</ele><time>2026-04-23T16:08:19.999Z</time></trkpt><trkpt lat="44.97856756039487" lon="9.320241079213671"><ele>412.0</ele><time>2026-04-23T16:08:20.999Z</time></trkpt><trkpt lat="44.97869702203929" lon="9.320293646934866"><ele>412.0</ele><time>2026-04-23T16:08:21.999Z</time></trkpt><trkpt lat="44.97879737895502" lon="9.320380309920894"><ele>412.0</ele><time>2026-04-23T16:08:22.999Z</time></trkpt><trkpt lat="44.97891105562111" lon="9.32043956054012"><ele>412.0</ele><time>2026-04-23T16:08:23.999Z</time></trkpt><trkpt lat="44.97900484237838" lon="9.320528643638367"><ele>412.0</ele><time>2026-04-23T16:08:24.999Z</time></trkpt><trkpt lat="44.97907664452404" lon="9.320626752321388"><ele>412.0</ele><time>2026-04-23T16:08:25.999Z</time></trkpt><trkpt lat="44.97915030395434" lon="9.32071354366784"><ele>412.0</ele><time>2026-04-23T16:08:26.999Z</time></trkpt><trkpt lat="44.97921153521015" lon="9.320805661180927"><ele>412.0</ele><time>2026-04-23T16:08:27.999Z</time></trkpt><trkpt lat="44.979277199785315" lon="9.32090457716817"><ele>409.8</ele><time>2026-04-23T16:08:28.999Z</time></trkpt><trkpt lat="44.979340897131216" lon="9.321008121706466"><ele>407.6</ele><time>2026-04-23T16:08:29.999Z</time></trkpt><trkpt lat="44.97940386020002" lon="9.321109312490902"><ele>405.40000000000003</ele><time>2026-04-23T16:08:30.999Z</time></trkpt><trkpt lat="44.97947680940564" lon="9.321194860039512"><ele>403.20000000000005</ele><time>2026-04-23T16:08:31.999Z</time></trkpt><trkpt lat="44.979540593468066" lon="9.321293553404342"><ele>401.0</ele><time>2026-04-23T16:08:32.999Z</time></trkpt><trkpt lat="44.97960796505734" lon="9.321391129017043"><ele>401.20000000000005</ele><time>2026-04-23T16:08:33.999Z</time></trkpt><trkpt lat="44.979675765751374" lon="9.321489486052759"><ele>401.40000000000003</ele><time>2026-04-23T16:08:34.999Z</time></trkpt><trkpt lat="44.9797431205653" lon="9.321578459780964"><ele>401.6</ele><time>2026-04-23T16:08:35.999Z</time></trkpt><trkpt lat="44.97982568354486" lon="9.32163099278398"><ele>401.8</ele><time>2026-04-23T16:08:36.999Z</time></trkpt><trkpt lat="44.97991713031443" lon="9.321630194040205"><ele>402.0</ele><time>2026-04-23T16:08:37.999Z</time></trkpt><trkpt lat="44.98000809498385" lon="9.321578710107168"><ele>399.0</ele><time>2026-04-23T16:08:38.999Z</time></trkpt><trkpt lat="44.980101115653014" lon="9.321539188074645"><ele>396.0</ele><time>2026-04-23T16:08:39.999Z</time></trkpt><trkpt lat="44.98020570908166" lon="9.321543487391324"><ele>393.0</ele><time>2026-04-23T16:08:40.999Z</time></trkpt><trkpt lat="44.9802919811838" lon="9.321610095256581"><ele>390.0</ele><time>2026-04-23T16:08:41.999Z</time></trkpt><trkpt lat="44.980367769911155" lon="9.321708646006304"><ele>387.0</ele><time>2026-04-23T16:08:42.999Z</time></trkpt><trkpt lat="44.98045536713997" lon="9.32180980196144"><ele>387.0</ele><time>2026-04-23T16:08:43.999Z</time></trkpt><trkpt lat="44.98055981296154" lon="9.321921003119623"><ele>387.0</ele><time>2026-04-23T16:08:44.999Z</time></trkpt><trkpt lat="44.98065318920261" lon="9.322033604900113"><ele>387.0</ele><time>2026-04-23T16:08:45.999Z</time></trkpt><trkpt lat="44.98073442943902" lon="9.322153867095107"><ele>387.0</ele><time>2026-04-23T16:08:46.999Z</time></trkpt><trkpt lat="44.98082367126721" lon="9.322254568772514"><ele>385.6</ele><time>2026-04-23T16:08:47.999Z</time></trkpt><trkpt lat="44.980909899302546" lon="9.322362468588999"><ele>384.20000000000005</ele><time>2026-04-23T16:08:48.999Z</time></trkpt><trkpt lat="44.98099162178767" lon="9.322478792834874"><ele>382.8</ele><time>2026-04-23T16:08:49.999Z</time></trkpt><trkpt lat="44.981072671168455" lon="9.322596634784956"><ele>381.4</ele><time>2026-04-23T16:08:50.999Z</time></trkpt><trkpt lat="44.981142562944164" lon="9.322697094986326"><ele>380.0</ele><time>2026-04-23T16:08:51.999Z</time></trkpt><trkpt lat="44.98123545127473" lon="9.322758879615025"><ele>380.0</ele><time>2026-04-23T16:08:52.999Z</time></trkpt><trkpt lat="44.98135861132257" lon="9.322802669250956"><ele>380.0</ele><time>2026-04-23T16:08:53.999Z</time></trkpt><trkpt lat="44.981513849825284" lon="9.322843543194569"><ele>380.0</ele><time>2026-04-23T16:08:54.999Z</time></trkpt><trkpt lat="44.9816632718999" lon="9.322894070955847"><ele>380.0</ele><time>2026-04-23T16:08:55.999Z</time></trkpt><trkpt lat="44.981823852982885" lon="9.322946902206679"><ele>376.6666666666667</ele><time>2026-04-23T16:08:56.999Z</time></trkpt><trkpt lat="44.98197692602749" lon="9.322999831690868"><ele>373.3333333333333</ele><time>2026-04-23T16:08:57.999Z</time></trkpt><trkpt lat="44.98212206147818" lon="9.323062488037264"><ele>370.0</ele><time>2026-04-23T16:08:58.999Z</time></trkpt><trkpt lat="44.982263036732" lon="9.323133786808885"><ele>370.0</ele><time>2026-04-23T16:08:59.999Z</time></trkpt><trkpt lat="44.98240031245615" lon="9.323218118640407"><ele>370.0</ele><time>2026-04-23T16:09:00.999Z</time></trkpt><trkpt lat="44.98253032284249" lon="9.323298376535583"><ele>370.0</ele><time>2026-04-23T16:09:01.999Z</time></trkpt><trkpt lat="44.982667579526954" lon="9.323358706712265"><ele>370.0</ele><time>2026-04-23T16:09:02.999Z</time></trkpt><trkpt lat="44.98279614632845" lon="9.32342291949693"><ele>369.0</ele><time>2026-04-23T16:09:03.999Z</time></trkpt><trkpt lat="44.9829317762681" lon="9.323476529789277"><ele>368.0</ele><time>2026-04-23T16:09:04.999Z</time></trkpt><trkpt lat="44.98307474023663" lon="9.323546832755756"><ele>367.0</ele><time>2026-04-23T16:09:05.999Z</time></trkpt><trkpt lat="44.98321094229218" lon="9.323597161560473"><ele>366.0</ele><time>2026-04-23T16:09:06.999Z</time></trkpt><trkpt lat="44.98331342215189" lon="9.323596625462656"><ele>364.75</ele><time>2026-04-23T16:09:07.999Z</time></trkpt><trkpt lat="44.98346458738993" lon="9.323590223725725"><ele>363.5</ele><time>2026-04-23T16:09:08.999Z</time></trkpt><trkpt lat="44.98359071972953" lon="9.323563734584505"><ele>362.25</ele><time>2026-04-23T16:09:09.999Z</time></trkpt><trkpt lat="44.98373165150238" lon="9.323539229768771"><ele>361.0</ele><time>2026-04-23T16:09:10.999Z</time></trkpt><trkpt lat="44.983862434198805" lon="9.323510033166524"><ele>361.0</ele><time>2026-04-23T16:09:11.999Z</time></trkpt><trkpt lat="44.98398786884771" lon="9.323510800780042"><ele>361.0</ele><time>2026-04-23T16:09:12.999Z</time></trkpt><trkpt lat="44.98410677938448" lon="9.323564644321504"><ele>361.0</ele><time>2026-04-23T16:09:13.999Z</time></trkpt><trkpt lat="44.98421531775359" lon="9.323635822693099"><ele>361.0</ele><time>2026-04-23T16:09:14.999Z</time></trkpt><trkpt lat="44.98433540484805" lon="9.323723296630897"><ele>361.25</ele><time>2026-04-23T16:09:15.999Z</time></trkpt><trkpt lat="44.984459619549" lon="9.323818646230484"><ele>361.5</ele><time>2026-04-23T16:09:16.999Z</time></trkpt><trkpt lat="44.98457613832326" lon="9.323906824467747"><ele>361.75</ele><time>2026-04-23T16:09:17.999Z</time></trkpt><trkpt lat="44.98468499207402" lon="9.323990699939282"><ele>362.0</ele><time>2026-04-23T16:09:18.999Z</time></trkpt><trkpt lat="44.98481432020632" lon="9.32407047753323"><ele>362.0</ele><time>2026-04-23T16:09:19.999Z</time></trkpt><trkpt lat="44.9849545952155" lon="9.324155578585469"><ele>362.0</ele><time>2026-04-23T16:09:20.999Z</time></trkpt><trkpt lat="44.98504779829405" lon="9.324255020826268"><ele>362.0</ele><time>2026-04-23T16:09:22Z</time></trkpt><trkpt lat="44.98513114266666" lon="9.324330257881213"><ele>362.0</ele><time>2026-04-23T16:09:23Z</time></trkpt><trkpt lat="44.98520774063595" lon="9.324406112839384"><ele>362.0</ele><time>2026-04-23T16:09:24Z</time></trkpt><trkpt lat="44.98528713319575" lon="9.324466666504584"><ele>362.0</ele><time>2026-04-23T16:09:25Z</time></trkpt><trkpt lat="44.98535400129383" lon="9.324550597801656"><ele>362.0</ele><time>2026-04-23T16:09:26Z</time></trkpt><trkpt lat="44.98542334167487" lon="9.32461497116872"><ele>362.0</ele><time>2026-04-23T16:09:27Z</time></trkpt><trkpt lat="44.98549620053173" lon="9.324665764955382"><ele>362.0</ele><time>2026-04-23T16:09:28Z</time></trkpt><trkpt lat="44.98556765402085" lon="9.324711473060189"><ele>362.0</ele><time>2026-04-23T16:09:29Z</time></trkpt><trkpt lat="44.98564008747413" lon="9.324744259426485"><ele>362.0</ele><time>2026-04-23T16:09:30Z</time></trkpt><trkpt lat="44.98570958076564" lon="9.324786181431593"><ele>362.0</ele><time>2026-04-23T16:09:31Z</time></trkpt><trkpt lat="44.98577684246354" lon="9.324825598687362"><ele>362.0</ele><time>2026-04-23T16:09:32Z</time></trkpt><trkpt lat="44.98584331193346" lon="9.32486068842314"><ele>362.0</ele><time>2026-04-23T16:09:33Z</time></trkpt><trkpt lat="44.985910908500486" lon="9.324894518990543"><ele>362.0</ele><time>2026-04-23T16:09:34Z</time></trkpt><trkpt lat="44.985982278869514" lon="9.324925567316193"><ele>362.0</ele><time>2026-04-23T16:09:35Z</time></trkpt><trkpt lat="44.986057330623666" lon="9.324956662364055"><ele>362.0</ele><time>2026-04-23T16:09:36Z</time></trkpt><trkpt lat="44.98613067767003" lon="9.324983502144663"><ele>361.57142857142856</ele><time>2026-04-23T16:09:37Z</time></trkpt><trkpt lat="44.98620688571081" lon="9.324999672659068"><ele>361.1428571428571</ele><time>2026-04-23T16:09:38Z</time></trkpt><trkpt lat="44.98627878685856" lon="9.325015595122293"><ele>360.7142857142857</ele><time>2026-04-23T16:09:39Z</time></trkpt><trkpt lat="44.98634671501823" lon="9.325037716159185"><ele>360.2857142857143</ele><time>2026-04-23T16:09:40Z</time></trkpt><trkpt lat="44.98641702558138" lon="9.325057517308423"><ele>359.8571428571429</ele><time>2026-04-23T16:09:41Z</time></trkpt><trkpt lat="44.986342078377795" lon="9.325041539826728"><ele>359.42857142857144</ele><time>2026-04-23T16:09:49Z</time></trkpt><trkpt lat="44.98639779286642" lon="9.324999691148273"><ele>359.0</ele><time>2026-04-23T16:09:50Z</time></trkpt><trkpt lat="44.98619189094123" lon="9.324955523705746"><ele>359.0</ele><time>2026-04-23T16:09:51Z</time></trkpt><trkpt lat="44.98608257581447" lon="9.324942340486643"><ele>359.0</ele><time>2026-04-23T16:09:52Z</time></trkpt><trkpt lat="44.98597338309457" lon="9.324904043187315"><ele>359.0</ele><time>2026-04-23T16:09:53Z</time></trkpt><trkpt lat="44.985862992265666" lon="9.324851470779327"><ele>359.0</ele><time>2026-04-23T16:09:54Z</time></trkpt><trkpt lat="44.985735274814886" lon="9.324777047019772"><ele>358.79999999999995</ele><time>2026-04-23T16:09:55Z</time></trkpt><trkpt lat="44.985616283201686" lon="9.324708024619675"><ele>358.59999999999997</ele><time>2026-04-23T16:09:56Z</time></trkpt><trkpt lat="44.98551392388195" lon="9.324642541564895"><ele>358.4</ele><time>2026-04-23T16:09:57Z</time></trkpt><trkpt lat="44.98542324152398" lon="9.324580789960272"><ele>358.2</ele><time>2026-04-23T16:09:58Z</time></trkpt><trkpt lat="44.985351176736415" lon="9.324491246792897"><ele>358.0</ele><time>2026-04-23T16:09:59Z</time></trkpt><trkpt lat="44.98527282520522" lon="9.324440142911046"><ele>358.0</ele><time>2026-04-23T16:10:00Z</time></trkpt><trkpt lat="44.98521869839894" lon="9.324367264415244"><ele>358.0</ele><time>2026-04-23T16:10:01Z</time></trkpt><trkpt lat="44.98516470179897" lon="9.324308882636613"><ele>358.0</ele><time>2026-04-23T16:10:02Z</time></trkpt><trkpt lat="44.98508392864173" lon="9.324239199320143"><ele>358.0</ele><time>2026-04-23T16:10:04Z</time></trkpt><trkpt lat="44.98505015320868" lon="9.324159818258973"><ele>358.0</ele><time>2026-04-23T16:10:07Z</time></trkpt><trkpt lat="44.98514414345768" lon="9.323979763372394"><ele>357.0</ele><time>2026-04-23T16:10:12Z</time></trkpt><trkpt lat="44.98518244062646" lon="9.323886437092936"><ele>356.0</ele><time>2026-04-23T16:10:14Z</time></trkpt><trkpt lat="44.985224392944374" lon="9.323784227017939"><ele>355.0</ele><time>2026-04-23T16:10:16Z</time></trkpt><trkpt lat="44.98526780840061" lon="9.323676609320616"><ele>354.0</ele><time>2026-04-23T16:10:18Z</time></trkpt><trkpt lat="44.985317280434714" lon="9.323551130809548"><ele>353.0</ele><time>2026-04-23T16:10:20Z</time></trkpt><trkpt lat="44.98536834260916" lon="9.323425431753057"><ele>353.0</ele><time>2026-04-23T16:10:22Z</time></trkpt><trkpt lat="44.98541170961068" lon="9.323296992238554"><ele>353.0</ele><time>2026-04-23T16:10:24Z</time></trkpt><trkpt lat="44.98545338368374" lon="9.323177378135764"><ele>353.0</ele><time>2026-04-23T16:10:26Z</time></trkpt><trkpt lat="44.98548522462652" lon="9.323073908546498"><ele>353.0</ele><time>2026-04-23T16:10:28Z</time></trkpt><trkpt lat="44.985527600773516" lon="9.32295733750562"><ele>353.0</ele><time>2026-04-23T16:10:31Z</time></trkpt><trkpt lat="44.985577965333974" lon="9.322862957463393"><ele>353.0</ele><time>2026-04-23T16:10:33Z</time></trkpt><trkpt lat="44.98561494400555" lon="9.322772605642495"><ele>353.0</ele><time>2026-04-23T16:10:34.999Z</time></trkpt><trkpt lat="44.985569233324" lon="9.322855113080605"><ele>353.0</ele><time>2026-04-23T16:10:42.999Z</time></trkpt><trkpt lat="44.985560328323025" lon="9.322951020421407"><ele>353.0</ele><time>2026-04-23T16:10:43.999Z</time></trkpt><trkpt lat="44.98552571769871" lon="9.323071484717127"><ele>353.0</ele><time>2026-04-23T16:10:44.999Z</time></trkpt><trkpt lat="44.98548845229531" lon="9.323185083566742"><ele>353.0</ele><time>2026-04-23T16:10:45.999Z</time></trkpt><trkpt lat="44.985430716495515" lon="9.32332415371273"><ele>353.0</ele><time>2026-04-23T16:10:46.999Z</time></trkpt><trkpt lat="44.985374745897396" lon="9.323454617737571"><ele>353.0</ele><time>2026-04-23T16:10:47.999Z</time></trkpt><trkpt lat="44.985330815761614" lon="9.32356363293199"><ele>353.0</ele><time>2026-04-23T16:10:48.999Z</time></trkpt><trkpt lat="44.98528205210109" lon="9.32367664416243"><ele>353.0</ele><time>2026-04-23T16:10:49.999Z</time></trkpt><trkpt lat="44.9852376834247" lon="9.323789060798608"><ele>353.0</ele><time>2026-04-23T16:10:50.999Z</time></trkpt><trkpt lat="44.985205588448444" lon="9.323879673306989"><ele>353.83333333333337</ele><time>2026-04-23T16:10:51.999Z</time></trkpt><trkpt lat="44.985168187070876" lon="9.323968524441776"><ele>354.6666666666667</ele><time>2026-04-23T16:10:52.999Z</time></trkpt><trkpt lat="44.98509836659054" lon="9.324095226367263"><ele>355.5</ele><time>2026-04-23T16:10:54.999Z</time></trkpt><trkpt lat="44.98507503567605" lon="9.324177937537891"><ele>356.3333333333333</ele><time>2026-04-23T16:10:56.999Z</time></trkpt><trkpt lat="44.98512760207197" lon="9.324304328985507"><ele>357.16666666666663</ele><time>2026-04-23T16:10:59.999Z</time></trkpt><trkpt lat="44.985174571827194" lon="9.324376104306506"><ele>358.0</ele><time>2026-04-23T16:11:00.999Z</time></trkpt><trkpt lat="44.98524640464676" lon="9.324441205936296"><ele>358.0</ele><time>2026-04-23T16:11:01.999Z</time></trkpt><trkpt lat="44.98533406108181" lon="9.324504651916428"><ele>358.0</ele><time>2026-04-23T16:11:02.999Z</time></trkpt><trkpt lat="44.98541356348806" lon="9.324584013745119"><ele>358.0</ele><time>2026-04-23T16:11:03.999Z</time></trkpt><trkpt lat="44.98551609166836" lon="9.324681440863593"><ele>358.0</ele><time>2026-04-23T16:11:04.999Z</time></trkpt><trkpt lat="44.98564464791852" lon="9.324754879864503"><ele>358.25</ele><time>2026-04-23T16:11:05.999Z</time></trkpt><trkpt lat="44.98577449426563" lon="9.324815754540536"><ele>358.5</ele><time>2026-04-23T16:11:06.999Z</time></trkpt><trkpt lat="44.98590548373999" lon="9.324877540044616"><ele>358.75</ele><time>2026-04-23T16:11:07.999Z</time></trkpt><trkpt lat="44.98604458819619" lon="9.324937109188145"><ele>359.0</ele><time>2026-04-23T16:11:08.999Z</time></trkpt><trkpt lat="44.98618707503803" lon="9.324985678013249"><ele>359.0</ele><time>2026-04-23T16:11:09.999Z</time></trkpt><trkpt lat="44.986327683401406" lon="9.325031755536719"><ele>359.0</ele><time>2026-04-23T16:11:10.999Z</time></trkpt><trkpt lat="44.9864634439233" lon="9.325063757552671"><ele>359.0</ele><time>2026-04-23T16:11:11.999Z</time></trkpt><trkpt lat="44.986603383628974" lon="9.32506805506028"><ele>359.0</ele><time>2026-04-23T16:11:12.999Z</time></trkpt><trkpt lat="44.986740525901325" lon="9.32505285430518"><ele>357.5</ele><time>2026-04-23T16:11:13.999Z</time></trkpt><trkpt lat="44.986871266062934" lon="9.325063996422932"><ele>356.0</ele><time>2026-04-23T16:11:14.999Z</time></trkpt><trkpt lat="44.98699894706741" lon="9.325080357871803"><ele>354.5</ele><time>2026-04-23T16:11:15.999Z</time></trkpt><trkpt lat="44.987119241547454" lon="9.325090152003739"><ele>353.0</ele><time>2026-04-23T16:11:16.999Z</time></trkpt><trkpt lat="44.98723436840399" lon="9.325101814859195"><ele>353.0</ele><time>2026-04-23T16:11:17.999Z</time></trkpt><trkpt lat="44.98734593033163" lon="9.325104336285646"><ele>353.0</ele><time>2026-04-23T16:11:18.999Z</time></trkpt><trkpt lat="44.987452532619145" lon="9.325110980230649"><ele>353.0</ele><time>2026-04-23T16:11:19.999Z</time></trkpt><trkpt lat="44.987571117479995" lon="9.325126798464643"><ele>353.0</ele><time>2026-04-23T16:11:20.999Z</time></trkpt><trkpt lat="44.987676354181644" lon="9.325159645289276"><ele>353.0</ele><time>2026-04-23T16:11:21.999Z</time></trkpt><trkpt lat="44.98779961820961" lon="9.325172629175727"><ele>352.79999999999995</ele><time>2026-04-23T16:11:22.999Z</time></trkpt><trkpt lat="44.98790142606501" lon="9.325181612719682"><ele>352.6</ele><time>2026-04-23T16:11:23.999Z</time></trkpt><trkpt lat="44.98799547921831" lon="9.325194866385493"><ele>352.4</ele><time>2026-04-23T16:11:24.999Z</time></trkpt><trkpt lat="44.98809203976697" lon="9.325200992297797"><ele>352.20000000000005</ele><time>2026-04-23T16:11:25.999Z</time></trkpt><trkpt lat="44.988180447153084" lon="9.325202843248372"><ele>352.0</ele><time>2026-04-23T16:11:26.999Z</time></trkpt><trkpt lat="44.98826994221365" lon="9.325207225291303"><ele>351.3333333333333</ele><time>2026-04-23T16:11:28Z</time></trkpt><trkpt lat="44.9883555466685" lon="9.32520040510206"><ele>350.66666666666663</ele><time>2026-04-23T16:11:29Z</time></trkpt><trkpt lat="44.98844351998321" lon="9.325178390957548"><ele>350.0</ele><time>2026-04-23T16:11:30Z</time></trkpt><trkpt lat="44.98852834373784" lon="9.32514990750491"><ele>349.3333333333333</ele><time>2026-04-23T16:11:31Z</time></trkpt><trkpt lat="44.988615096676526" lon="9.325116132575934"><ele>348.6666666666667</ele><time>2026-04-23T16:11:32Z</time></trkpt><trkpt lat="44.98870023332245" lon="9.325076086728972"><ele>348.0</ele><time>2026-04-23T16:11:33Z</time></trkpt><trkpt lat="44.988779883754766" lon="9.325025712240244"><ele>348.0</ele><time>2026-04-23T16:11:34Z</time></trkpt><trkpt lat="44.988861977008256" lon="9.324969909490214"><ele>348.0</ele><time>2026-04-23T16:11:35Z</time></trkpt><trkpt lat="44.988967482637875" lon="9.324886865653612"><ele>348.0</ele><time>2026-04-23T16:11:36Z</time></trkpt><trkpt lat="44.989090655233824" lon="9.324778937282273"><ele>348.0</ele><time>2026-04-23T16:11:37Z</time></trkpt><trkpt lat="44.98921479575257" lon="9.324680531709399"><ele>348.2</ele><time>2026-04-23T16:11:38Z</time></trkpt><trkpt lat="44.98932547909911" lon="9.324594663478132"><ele>348.4</ele><time>2026-04-23T16:11:39Z</time></trkpt><trkpt lat="44.98942973387397" lon="9.324546556838722"><ele>348.59999999999997</ele><time>2026-04-23T16:11:40Z</time></trkpt><trkpt lat="44.98952880282211" lon="9.324504362276942"><ele>348.79999999999995</ele><time>2026-04-23T16:11:41Z</time></trkpt><trkpt lat="44.9896268983921" lon="9.324480332911813"><ele>349.0</ele><time>2026-04-23T16:11:42Z</time></trkpt><trkpt lat="44.98972587676846" lon="9.324460075110656"><ele>349.0</ele><time>2026-04-23T16:11:43Z</time></trkpt><trkpt lat="44.98982772837356" lon="9.324454043704957"><ele>349.0</ele><time>2026-04-23T16:11:44Z</time></trkpt><trkpt lat="44.98993395679599" lon="9.324444753461067"><ele>349.0</ele><time>2026-04-23T16:11:45Z</time></trkpt><trkpt lat="44.99004343001571" lon="9.324454202870273"><ele>349.0</ele><time>2026-04-23T16:11:46Z</time></trkpt><trkpt lat="44.99014628210118" lon="9.324478507105534"><ele>349.0</ele><time>2026-04-23T16:11:47Z</time></trkpt><trkpt lat="44.99024810303006" lon="9.32449202051835"><ele>348.3333333333333</ele><time>2026-04-23T16:11:48Z</time></trkpt><trkpt lat="44.990344604260244" lon="9.324497867402428"><ele>347.66666666666663</ele><time>2026-04-23T16:11:49Z</time></trkpt><trkpt lat="44.990433797068505" lon="9.324487607792816"><ele>347.0</ele><time>2026-04-23T16:11:50Z</time></trkpt><trkpt lat="44.99051348139291" lon="9.32447206910133"><ele>346.3333333333333</ele><time>2026-04-23T16:11:51Z</time></trkpt><trkpt lat="44.990588056911" lon="9.324461093942778"><ele>345.6666666666667</ele><time>2026-04-23T16:11:52Z</time></trkpt><trkpt lat="44.990681865973414" lon="9.324427428657442"><ele>345.0</ele><time>2026-04-23T16:11:54Z</time></trkpt><trkpt lat="44.99074494649516" lon="9.32445691781092"><ele>345.0</ele><time>2026-04-23T16:11:58Z</time></trkpt><trkpt lat="44.99066159415204" lon="9.32459650522528"><ele>345.0</ele><time>2026-04-23T16:12:03Z</time></trkpt><trkpt lat="44.99058996007278" lon="9.324705643656728"><ele>345.0</ele><time>2026-04-23T16:12:05Z</time></trkpt><trkpt lat="44.990499084660144" lon="9.324844803355603"><ele>345.0</ele><time>2026-04-23T16:12:07Z</time></trkpt><trkpt lat="44.990444821297835" lon="9.324928382296322"><ele>345.0</ele><time>2026-04-23T16:12:08Z</time></trkpt><trkpt lat="44.99038651995913" lon="9.325018405163208"><ele>343.4</ele><time>2026-04-23T16:12:09Z</time></trkpt><trkpt lat="44.99032769251364" lon="9.325109962647993"><ele>341.8</ele><time>2026-04-23T16:12:10Z</time></trkpt><trkpt lat="44.990263541890826" lon="9.325211208141857"><ele>340.20000000000005</ele><time>2026-04-23T16:12:11Z</time></trkpt><trkpt lat="44.9902065038706" lon="9.325337387511823"><ele>338.6</ele><time>2026-04-23T16:12:12Z</time></trkpt><trkpt lat="44.99014330560065" lon="9.325442365068831"><ele>337.0</ele><time>2026-04-23T16:12:13Z</time></trkpt><trkpt lat="44.99008441085261" lon="9.325552612459589"><ele>337.20000000000005</ele><time>2026-04-23T16:12:14Z</time></trkpt><trkpt lat="44.99002549692584" lon="9.32566076375548"><ele>337.4</ele><time>2026-04-23T16:12:15Z</time></trkpt><trkpt lat="44.98997872509177" lon="9.325775160631228"><ele>337.6</ele><time>2026-04-23T16:12:16Z</time></trkpt><trkpt lat="44.989933248555324" lon="9.325888376751998"><ele>337.79999999999995</ele><time>2026-04-23T16:12:17Z</time></trkpt><trkpt lat="44.98989350101791" lon="9.326011710158966"><ele>338.0</ele><time>2026-04-23T16:12:18Z</time></trkpt><trkpt lat="44.98985227203118" lon="9.326125909419646"><ele>338.0</ele><time>2026-04-23T16:12:19Z</time></trkpt><trkpt lat="44.98981467951527" lon="9.3262431200757"><ele>338.0</ele><time>2026-04-23T16:12:20Z</time></trkpt><trkpt lat="44.989755155244346" lon="9.326346068713127"><ele>338.0</ele><time>2026-04-23T16:12:21Z</time></trkpt><trkpt lat="44.9897386762853" lon="9.326478563915744"><ele>338.0</ele><time>2026-04-23T16:12:22Z</time></trkpt><trkpt lat="44.9897005518781" lon="9.326595415502153"><ele>338.0</ele><time>2026-04-23T16:12:23Z</time></trkpt><trkpt lat="44.98966368498273" lon="9.326714346535386"><ele>336.83333333333337</ele><time>2026-04-23T16:12:24Z</time></trkpt><trkpt lat="44.989623442323236" lon="9.326824153236938"><ele>335.6666666666667</ele><time>2026-04-23T16:12:25Z</time></trkpt><trkpt lat="44.989578163644595" lon="9.326939023853154"><ele>334.5</ele><time>2026-04-23T16:12:26Z</time></trkpt><trkpt lat="44.98953398843774" lon="9.327041590214526"><ele>333.3333333333333</ele><time>2026-04-23T16:12:27Z</time></trkpt><trkpt lat="44.98948898506184" lon="9.32714612744349"><ele>332.16666666666663</ele><time>2026-04-23T16:12:28Z</time></trkpt><trkpt lat="44.9894419688975" lon="9.327250796373963"><ele>331.0</ele><time>2026-04-23T16:12:29Z</time></trkpt><trkpt lat="44.9893986197174" lon="9.327351629479352"><ele>331.16666666666663</ele><time>2026-04-23T16:12:30Z</time></trkpt><trkpt lat="44.98934806641225" lon="9.327452992306132"><ele>331.3333333333333</ele><time>2026-04-23T16:12:31Z</time></trkpt><trkpt lat="44.9892831040687" lon="9.327526935862885"><ele>331.5</ele><time>2026-04-23T16:12:32Z</time></trkpt><trkpt lat="44.989225947583456" lon="9.327614316550854"><ele>331.6666666666667</ele><time>2026-04-23T16:12:33Z</time></trkpt><trkpt lat="44.98917848665824" lon="9.327710932942873"><ele>331.83333333333337</ele><time>2026-04-23T16:12:34Z</time></trkpt><trkpt lat="44.989111405730405" lon="9.327796257484357"><ele>332.0</ele><time>2026-04-23T16:12:35Z</time></trkpt><trkpt lat="44.9890436437434" lon="9.327894492545797"><ele>332.0</ele><time>2026-04-23T16:12:36Z</time></trkpt><trkpt lat="44.98897020578337" lon="9.327999546168495"><ele>332.0</ele><time>2026-04-23T16:12:37Z</time></trkpt><trkpt lat="44.98890044769393" lon="9.328107572290662"><ele>332.0</ele><time>2026-04-23T16:12:38Z</time></trkpt><trkpt lat="44.988831510850645" lon="9.32821804954993"><ele>332.0</ele><time>2026-04-23T16:12:39Z</time></trkpt><trkpt lat="44.98875673154612" lon="9.328335106840244"><ele>332.0</ele><time>2026-04-23T16:12:40Z</time></trkpt><trkpt lat="44.98869601714402" lon="9.328464934751212"><ele>330.25</ele><time>2026-04-23T16:12:41Z</time></trkpt><trkpt lat="44.98863949806803" lon="9.328601374353553"><ele>328.5</ele><time>2026-04-23T16:12:42Z</time></trkpt><trkpt lat="44.98857040775008" lon="9.32873471954339"><ele>326.75</ele><time>2026-04-23T16:12:43Z</time></trkpt><trkpt lat="44.98850951716908" lon="9.328861793838042"><ele>325.0</ele><time>2026-04-23T16:12:44Z</time></trkpt><trkpt lat="44.98844988930086" lon="9.328997338563111"><ele>324.75</ele><time>2026-04-23T16:12:45Z</time></trkpt><trkpt lat="44.98839954877564" lon="9.329169590357546"><ele>324.5</ele><time>2026-04-23T16:12:46Z</time></trkpt><trkpt lat="44.98836246810201" lon="9.32935562618957"><ele>324.25</ele><time>2026-04-23T16:12:46.999Z</time></trkpt><trkpt lat="44.98830545264244" lon="9.329530021821077"><ele>324.0</ele><time>2026-04-23T16:12:47.999Z</time></trkpt><trkpt lat="44.988251040630686" lon="9.329702977754181"><ele>321.75</ele><time>2026-04-23T16:12:48.999Z</time></trkpt><trkpt lat="44.988192002410635" lon="9.329870252984465"><ele>319.5</ele><time>2026-04-23T16:12:49.999Z</time></trkpt><trkpt lat="44.98812999405517" lon="9.330027325438548"><ele>317.25</ele><time>2026-04-23T16:12:50.999Z</time></trkpt><trkpt lat="44.988074981449365" lon="9.330185702358712"><ele>315.0</ele><time>2026-04-23T16:12:51.999Z</time></trkpt><trkpt lat="44.98796807563509" lon="9.330298260536894"><ele>315.0</ele><time>2026-04-23T16:12:52.999Z</time></trkpt><trkpt lat="44.98786952105715" lon="9.330396791941235"><ele>315.0</ele><time>2026-04-23T16:12:53.999Z</time></trkpt><trkpt lat="44.98777903658874" lon="9.330479153638061"><ele>315.0</ele><time>2026-04-23T16:12:54.999Z</time></trkpt><trkpt lat="44.987685864503796" lon="9.330557266554646"><ele>315.0</ele><time>2026-04-23T16:12:55.999Z</time></trkpt><trkpt lat="44.98760114352689" lon="9.330623409322637"><ele>315.0</ele><time>2026-04-23T16:12:56.999Z</time></trkpt><trkpt lat="44.987520591102424" lon="9.330684341345723"><ele>316.0</ele><time>2026-04-23T16:12:57.999Z</time></trkpt><trkpt lat="44.98745479285087" lon="9.33072903295482"><ele>317.0</ele><time>2026-04-23T16:12:58.999Z</time></trkpt><trkpt lat="44.98736351121111" lon="9.330784819968748"><ele>318.0</ele><time>2026-04-23T16:12:59.999Z</time></trkpt><trkpt lat="44.98727944925718" lon="9.33084929411016"><ele>319.0</ele><time>2026-04-23T16:13:00.999Z</time></trkpt><trkpt lat="44.9871891204199" lon="9.330877281799136"><ele>320.0</ele><time>2026-04-23T16:13:01.999Z</time></trkpt><trkpt lat="44.98707834266021" lon="9.330902010783197"><ele>320.0</ele><time>2026-04-23T16:13:02.999Z</time></trkpt><trkpt lat="44.986969064540304" lon="9.33094111450551"><ele>320.0</ele><time>2026-04-23T16:13:03.999Z</time></trkpt><trkpt lat="44.98686992566367" lon="9.330976590143049"><ele>320.0</ele><time>2026-04-23T16:13:04.999Z</time></trkpt><trkpt lat="44.98677120259295" lon="9.331009303453074"><ele>320.0</ele><time>2026-04-23T16:13:05.999Z</time></trkpt><trkpt lat="44.98667026409781" lon="9.331036304166936"><ele>320.0</ele><time>2026-04-23T16:13:06.999Z</time></trkpt><trkpt lat="44.98656207280686" lon="9.331053106121328"><ele>320.0</ele><time>2026-04-23T16:13:07.999Z</time></trkpt><trkpt lat="44.986444630032175" lon="9.331048518318651"><ele>320.0</ele><time>2026-04-23T16:13:08.999Z</time></trkpt><trkpt lat="44.98632404547018" lon="9.331026455680107"><ele>320.0</ele><time>2026-04-23T16:13:09.999Z</time></trkpt><trkpt lat="44.986207463117076" lon="9.33096738770889"><ele>320.0</ele><time>2026-04-23T16:13:10.999Z</time></trkpt><trkpt lat="44.98609677154714" lon="9.33086466791544"><ele>320.0</ele><time>2026-04-23T16:13:11.999Z</time></trkpt><trkpt lat="44.985986321849595" lon="9.330750858585795"><ele>320.0</ele><time>2026-04-23T16:13:12.999Z</time></trkpt><trkpt lat="44.98587179002911" lon="9.330639115357725"><ele>320.0</ele><time>2026-04-23T16:13:13.999Z</time></trkpt><trkpt lat="44.98574864031245" lon="9.330575085698161"><ele>320.0</ele><time>2026-04-23T16:13:14.999Z</time></trkpt><trkpt lat="44.985635622102386" lon="9.330524858793412"><ele>321.75</ele><time>2026-04-23T16:13:15.999Z</time></trkpt><trkpt lat="44.98551122181536" lon="9.330517621911808"><ele>323.5</ele><time>2026-04-23T16:13:16.999Z</time></trkpt><trkpt lat="44.985383730066815" lon="9.330475719276423"><ele>325.25</ele><time>2026-04-23T16:13:17.999Z</time></trkpt><trkpt lat="44.98526191371578" lon="9.330434822528739"><ele>327.0</ele><time>2026-04-23T16:13:18.999Z</time></trkpt><trkpt lat="44.98513309207678" lon="9.330368256359765"><ele>327.0</ele><time>2026-04-23T16:13:19.999Z</time></trkpt><trkpt lat="44.98502707526224" lon="9.330280711405853"><ele>327.0</ele><time>2026-04-23T16:13:20.999Z</time></trkpt><trkpt lat="44.98493311952722" lon="9.33016895577908"><ele>327.0</ele><time>2026-04-23T16:13:21.999Z</time></trkpt><trkpt lat="44.984851760612216" lon="9.330031190120378"><ele>327.0</ele><time>2026-04-23T16:13:22.999Z</time></trkpt><trkpt lat="44.984763014476286" lon="9.329881724090143"><ele>327.5</ele><time>2026-04-23T16:13:23.999Z</time></trkpt><trkpt lat="44.984694811447085" lon="9.329726983711444"><ele>328.0</ele><time>2026-04-23T16:13:24.999Z</time></trkpt><trkpt lat="44.984622401200156" lon="9.329574510811693"><ele>328.5</ele><time>2026-04-23T16:13:25.999Z</time></trkpt><trkpt lat="44.98454341141132" lon="9.329430857908923"><ele>329.0</ele><time>2026-04-23T16:13:26.999Z</time></trkpt><trkpt lat="44.98445851784398" lon="9.329295351885447"><ele>329.0</ele><time>2026-04-23T16:13:27.999Z</time></trkpt><trkpt lat="44.98436587886087" lon="9.329170871958675"><ele>329.0</ele><time>2026-04-23T16:13:28.999Z</time></trkpt><trkpt lat="44.98426250772177" lon="9.329069169578524"><ele>329.0</ele><time>2026-04-23T16:13:29.999Z</time></trkpt><trkpt lat="44.98414396232092" lon="9.329000221809654"><ele>329.0</ele><time>2026-04-23T16:13:30.999Z</time></trkpt><trkpt lat="44.984022462601175" lon="9.3289687655844"><ele>326.5</ele><time>2026-04-23T16:13:31.999Z</time></trkpt><trkpt lat="44.98389535801419" lon="9.328974468075454"><ele>324.0</ele><time>2026-04-23T16:13:32.999Z</time></trkpt><trkpt lat="44.98376719452319" lon="9.328994764352988"><ele>321.5</ele><time>2026-04-23T16:13:34Z</time></trkpt><trkpt lat="44.98364094720213" lon="9.328979306282342"><ele>319.0</ele><time>2026-04-23T16:13:35Z</time></trkpt><trkpt lat="44.98351094293469" lon="9.329005893787135"><ele>319.0</ele><time>2026-04-23T16:13:36Z</time></trkpt><trkpt lat="44.98337212484162" lon="9.328980387433832"><ele>319.0</ele><time>2026-04-23T16:13:37Z</time></trkpt><trkpt lat="44.98320258755808" lon="9.328970242346585"><ele>319.0</ele><time>2026-04-23T16:13:38Z</time></trkpt><trkpt lat="44.98302552851235" lon="9.32899414097417"><ele>318.75</ele><time>2026-04-23T16:13:39Z</time></trkpt><trkpt lat="44.98286550271168" lon="9.329093263290735"><ele>318.5</ele><time>2026-04-23T16:13:41Z</time></trkpt><trkpt lat="44.982773232333294" lon="9.32921812344002"><ele>318.25</ele><time>2026-04-23T16:13:42Z</time></trkpt><trkpt lat="44.982676518357486" lon="9.329314445476403"><ele>318.0</ele><time>2026-04-23T16:13:43Z</time></trkpt><trkpt lat="44.982598147106316" lon="9.32942166791328"><ele>318.0</ele><time>2026-04-23T16:13:44Z</time></trkpt><trkpt lat="44.982514850613825" lon="9.329564570249145"><ele>318.0</ele><time>2026-04-23T16:13:45Z</time></trkpt><trkpt lat="44.98244546298267" lon="9.329739810406888"><ele>318.0</ele><time>2026-04-23T16:13:46Z</time></trkpt><trkpt lat="44.982391353487905" lon="9.329915683387902"><ele>318.0</ele><time>2026-04-23T16:13:47Z</time></trkpt><trkpt lat="44.982312884199835" lon="9.33008756085534"><ele>318.0</ele><time>2026-04-23T16:13:48Z</time></trkpt><trkpt lat="44.98225357279684" lon="9.330270125207255"><ele>318.0</ele><time>2026-04-23T16:13:49Z</time></trkpt><trkpt lat="44.98216973365448" lon="9.330404874093375"><ele>318.0</ele><time>2026-04-23T16:13:50Z</time></trkpt><trkpt lat="44.98209228844756" lon="9.330533873822615"><ele>318.0</ele><time>2026-04-23T16:13:51Z</time></trkpt><trkpt lat="44.98199836342604" lon="9.33064769264026"><ele>318.2</ele><time>2026-04-23T16:13:52Z</time></trkpt><trkpt lat="44.98189302165334" lon="9.33076927919193"><ele>318.4</ele><time>2026-04-23T16:13:53Z</time></trkpt><trkpt lat="44.98179962047425" lon="9.330871501060168"><ele>318.59999999999997</ele><time>2026-04-23T16:13:54Z</time></trkpt><trkpt lat="44.981713351652054" lon="9.33095733504687"><ele>318.8</ele><time>2026-04-23T16:13:55Z</time></trkpt><trkpt lat="44.98164821416611" lon="9.3310350564164"><ele>319.0</ele><time>2026-04-23T16:13:56Z</time></trkpt><trkpt lat="44.98155725149143" lon="9.33104516275238"><ele>319.0</ele><time>2026-04-23T16:13:57Z</time></trkpt><trkpt lat="44.98146760139099" lon="9.33105767949786"><ele>319.0</ele><time>2026-04-23T16:13:58Z</time></trkpt><trkpt lat="44.9813892385403" lon="9.331051316636037"><ele>319.0</ele><time>2026-04-23T16:13:59Z</time></trkpt><trkpt lat="44.98126741946636" lon="9.331009346433985"><ele>319.0</ele><time>2026-04-23T16:14:01Z</time></trkpt><trkpt lat="44.98120423195791" lon="9.330976912070646"><ele>319.0</ele><time>2026-04-23T16:14:02Z</time></trkpt><trkpt lat="44.98114341185435" lon="9.33091977232212"><ele>319.0</ele><time>2026-04-23T16:14:03Z</time></trkpt><trkpt lat="44.98108254907206" lon="9.330873133738846"><ele>319.0</ele><time>2026-04-23T16:14:04Z</time></trkpt><trkpt lat="44.98102954493232" lon="9.330809372678464"><ele>319.0</ele><time>2026-04-23T16:14:05Z</time></trkpt><trkpt lat="44.98095641925111" lon="9.33075244566497"><ele>319.0</ele><time>2026-04-23T16:14:06Z</time></trkpt><trkpt lat="44.980886462899036" lon="9.330670993455"><ele>319.0</ele><time>2026-04-23T16:14:07Z</time></trkpt><trkpt lat="44.98081381637744" lon="9.33058324985069"><ele>319.0</ele><time>2026-04-23T16:14:08Z</time></trkpt><trkpt lat="44.98072739014204" lon="9.330498628426549"><ele>319.0</ele><time>2026-04-23T16:14:09Z</time></trkpt><trkpt lat="44.98064686151915" lon="9.330419167613607"><ele>319.6</ele><time>2026-04-23T16:14:10Z</time></trkpt><trkpt lat="44.980564337842395" lon="9.330328910903297"><ele>320.2</ele><time>2026-04-23T16:14:11Z</time></trkpt><trkpt lat="44.9804718482828" lon="9.330241601227316"><ele>320.8</ele><time>2026-04-23T16:14:12Z</time></trkpt><trkpt lat="44.980385265119494" lon="9.330139120263402"><ele>321.40000000000003</ele><time>2026-04-23T16:14:13Z</time></trkpt><trkpt lat="44.98030657317501" lon="9.330052329950863"><ele>322.0</ele><time>2026-04-23T16:14:14Z</time></trkpt><trkpt lat="44.98023745263819" lon="9.329935372854154"><ele>322.0</ele><time>2026-04-23T16:14:15Z</time></trkpt><trkpt lat="44.98016008802953" lon="9.329838537381399"><ele>322.0</ele><time>2026-04-23T16:14:16Z</time></trkpt><trkpt lat="44.980066448159775" lon="9.32977442263711"><ele>322.0</ele><time>2026-04-23T16:14:17Z</time></trkpt><trkpt lat="44.97999263586346" lon="9.329693559022303"><ele>322.0</ele><time>2026-04-23T16:14:18Z</time></trkpt><trkpt lat="44.979917777695654" lon="9.329624475986597"><ele>322.0</ele><time>2026-04-23T16:14:19Z</time></trkpt><trkpt lat="44.97984348655941" lon="9.329565842976312"><ele>321.8333333333333</ele><time>2026-04-23T16:14:20Z</time></trkpt><trkpt lat="44.97976890826048" lon="9.329500214630775"><ele>321.66666666666663</ele><time>2026-04-23T16:14:21Z</time></trkpt><trkpt lat="44.979696761049475" lon="9.329459785622486"><ele>321.5</ele><time>2026-04-23T16:14:22Z</time></trkpt><trkpt lat="44.97961881204987" lon="9.329445970033696"><ele>321.3333333333333</ele><time>2026-04-23T16:14:23Z</time></trkpt><trkpt lat="44.97954037457253" lon="9.329443412910699"><ele>321.1666666666667</ele><time>2026-04-23T16:14:24Z</time></trkpt><trkpt lat="44.97946139694708" lon="9.329440359176903"><ele>321.0</ele><time>2026-04-23T16:14:25Z</time></trkpt><trkpt lat="44.97938539031731" lon="9.329430431374979"><ele>321.0</ele><time>2026-04-23T16:14:26Z</time></trkpt><trkpt lat="44.97930658420837" lon="9.329421415997103"><ele>321.0</ele><time>2026-04-23T16:14:27Z</time></trkpt><trkpt lat="44.97922746906565" lon="9.329419377446166"><ele>321.0</ele><time>2026-04-23T16:14:28Z</time></trkpt><trkpt lat="44.97914277028254" lon="9.329422750223525"><ele>321.0</ele><time>2026-04-23T16:14:29Z</time></trkpt><trkpt lat="44.979048140572374" lon="9.329439282283298"><ele>321.0</ele><time>2026-04-23T16:14:30Z</time></trkpt><trkpt lat="44.97894524535587" lon="9.329470462435454"><ele>321.0</ele><time>2026-04-23T16:14:31Z</time></trkpt><trkpt lat="44.97885703351085" lon="9.329511984336719"><ele>319.40000000000003</ele><time>2026-04-23T16:14:32Z</time></trkpt><trkpt lat="44.97876787778962" lon="9.329560447232067"><ele>317.8</ele><time>2026-04-23T16:14:33Z</time></trkpt><trkpt lat="44.97867701296198" lon="9.32961484375402"><ele>316.20000000000005</ele><time>2026-04-23T16:14:34Z</time></trkpt><trkpt lat="44.97861575547828" lon="9.329714143898157"><ele>314.6</ele><time>2026-04-23T16:14:35Z</time></trkpt><trkpt lat="44.97851108357746" lon="9.329836020339325"><ele>313.0</ele><time>2026-04-23T16:14:36Z</time></trkpt><trkpt lat="44.97842388621909" lon="9.329952444137785"><ele>311.25</ele><time>2026-04-23T16:14:37Z</time></trkpt><trkpt lat="44.978321002226586" lon="9.330055206299326"><ele>309.5</ele><time>2026-04-23T16:14:38Z</time></trkpt><trkpt lat="44.97822963986063" lon="9.330155417613096"><ele>307.75</ele><time>2026-04-23T16:14:39Z</time></trkpt><trkpt lat="44.97813627566783" lon="9.330245324236158"><ele>306.0</ele><time>2026-04-23T16:14:40Z</time></trkpt><trkpt lat="44.97803936286924" lon="9.330323611642182"><ele>306.0</ele><time>2026-04-23T16:14:41Z</time></trkpt><trkpt lat="44.977946128144055" lon="9.33037347481162"><ele>306.0</ele><time>2026-04-23T16:14:42Z</time></trkpt><trkpt lat="44.97783970330545" lon="9.330394271562966"><ele>306.0</ele><time>2026-04-23T16:14:43Z</time></trkpt><trkpt lat="44.97772908742096" lon="9.330393682917519"><ele>306.0</ele><time>2026-04-23T16:14:44Z</time></trkpt><trkpt lat="44.977620481794986" lon="9.330372293658462"><ele>306.0</ele><time>2026-04-23T16:14:45Z</time></trkpt><trkpt lat="44.97751803846783" lon="9.330354143261877"><ele>306.8</ele><time>2026-04-23T16:14:46Z</time></trkpt><trkpt lat="44.97742566506304" lon="9.33033937413092"><ele>307.6</ele><time>2026-04-23T16:14:47Z</time></trkpt><trkpt lat="44.97733649281231" lon="9.330330450789935"><ele>308.4</ele><time>2026-04-23T16:14:48Z</time></trkpt><trkpt lat="44.977245834782074" lon="9.330344051376988"><ele>309.2</ele><time>2026-04-23T16:14:49Z</time></trkpt><trkpt lat="44.97714766997764" lon="9.330359802346091"><ele>310.0</ele><time>2026-04-23T16:14:50Z</time></trkpt><trkpt lat="44.97704116374468" lon="9.33036592799931"><ele>310.0</ele><time>2026-04-23T16:14:50.999Z</time></trkpt><trkpt lat="44.976931556980155" lon="9.330401662023302"><ele>310.0</ele><time>2026-04-23T16:14:51.999Z</time></trkpt><trkpt lat="44.97682568335816" lon="9.33046142924015"><ele>310.0</ele><time>2026-04-23T16:14:52.999Z</time></trkpt><trkpt lat="44.97671045155477" lon="9.330502231747635"><ele>310.0</ele><time>2026-04-23T16:14:53.999Z</time></trkpt><trkpt lat="44.97659454325999" lon="9.330531551685763"><ele>308.25</ele><time>2026-04-23T16:14:54.999Z</time></trkpt><trkpt lat="44.97647611733829" lon="9.330560066662379"><ele>306.5</ele><time>2026-04-23T16:14:55.999Z</time></trkpt><trkpt lat="44.97635227789288" lon="9.330604803398389"><ele>304.75</ele><time>2026-04-23T16:14:56.999Z</time></trkpt><trkpt lat="44.97622949131588" lon="9.330665289328294"><ele>303.0</ele><time>2026-04-23T16:14:57.999Z</time></trkpt><trkpt lat="44.97610375658573" lon="9.33074038906035"><ele>303.0</ele><time>2026-04-23T16:14:58.999Z</time></trkpt><trkpt lat="44.97598250245202" lon="9.330825859031256"><ele>303.0</ele><time>2026-04-23T16:14:59.999Z</time></trkpt><trkpt lat="44.97586255957387" lon="9.330918617468834"><ele>303.0</ele><time>2026-04-23T16:15:00.999Z</time></trkpt><trkpt lat="44.9757370914973" lon="9.330982388787355"><ele>303.0</ele><time>2026-04-23T16:15:01.999Z</time></trkpt><trkpt lat="44.97563223336785" lon="9.33104857559585"><ele>303.25</ele><time>2026-04-23T16:15:02.999Z</time></trkpt><trkpt lat="44.97551833726872" lon="9.331111421448913"><ele>303.5</ele><time>2026-04-23T16:15:03.999Z</time></trkpt><trkpt lat="44.97540236553962" lon="9.331192938209997"><ele>303.75</ele><time>2026-04-23T16:15:04.999Z</time></trkpt><trkpt lat="44.97529472083061" lon="9.331270067684427"><ele>304.0</ele><time>2026-04-23T16:15:05.999Z</time></trkpt><trkpt lat="44.97518632598717" lon="9.33135024972316"><ele>303.75</ele><time>2026-04-23T16:15:06.999Z</time></trkpt><trkpt lat="44.97507744178072" lon="9.33146265514697"><ele>303.5</ele><time>2026-04-23T16:15:07.999Z</time></trkpt><trkpt lat="44.97496951924191" lon="9.33157895919205"><ele>303.25</ele><time>2026-04-23T16:15:08.999Z</time></trkpt><trkpt lat="44.97488451060648" lon="9.331722782960345"><ele>303.0</ele><time>2026-04-23T16:15:09.999Z</time></trkpt><trkpt lat="44.97480913475615" lon="9.331864093788099"><ele>303.0</ele><time>2026-04-23T16:15:10.999Z</time></trkpt><trkpt lat="44.97472971419864" lon="9.331999102246137"><ele>303.0</ele><time>2026-04-23T16:15:11.999Z</time></trkpt><trkpt lat="44.97464827680141" lon="9.332129111272078"><ele>303.0</ele><time>2026-04-23T16:15:12.999Z</time></trkpt><trkpt lat="44.97457346833699" lon="9.332245107561908"><ele>303.0</ele><time>2026-04-23T16:15:13.999Z</time></trkpt><trkpt lat="44.97451508840094" lon="9.332362421803483"><ele>302.4</ele><time>2026-04-23T16:15:14.999Z</time></trkpt><trkpt lat="44.974483191126644" lon="9.332506375739994"><ele>301.8</ele><time>2026-04-23T16:15:15.999Z</time></trkpt><trkpt lat="44.97447297143554" lon="9.332660810044302"><ele>301.2</ele><time>2026-04-23T16:15:16.999Z</time></trkpt><trkpt lat="44.97447473529964" lon="9.332817623456705"><ele>300.6</ele><time>2026-04-23T16:15:17.999Z</time></trkpt><trkpt lat="44.97446934087553" lon="9.332978458548746"><ele>300.0</ele><time>2026-04-23T16:15:18.999Z</time></trkpt><trkpt lat="44.97445208053329" lon="9.333135443517367"><ele>300.2</ele><time>2026-04-23T16:15:19.999Z</time></trkpt><trkpt lat="44.974426092660615" lon="9.333289278084491"><ele>300.4</ele><time>2026-04-23T16:15:20.999Z</time></trkpt><trkpt lat="44.97437142504036" lon="9.333417946608952"><ele>300.6</ele><time>2026-04-23T16:15:21.999Z</time></trkpt><trkpt lat="44.97432865697669" lon="9.333547680066474"><ele>300.8</ele><time>2026-04-23T16:15:22.999Z</time></trkpt><trkpt lat="44.9742523742328" lon="9.3336559108326"><ele>301.0</ele><time>2026-04-23T16:15:23.999Z</time></trkpt><trkpt lat="44.97416287313962" lon="9.333764408065964"><ele>301.0</ele><time>2026-04-23T16:15:24.999Z</time></trkpt><trkpt lat="44.97406242020509" lon="9.333873690052112"><ele>301.0</ele><time>2026-04-23T16:15:25.999Z</time></trkpt><trkpt lat="44.973955697025275" lon="9.333976452844091"><ele>301.0</ele><time>2026-04-23T16:15:26.999Z</time></trkpt><trkpt lat="44.973848757911114" lon="9.334073379422176"><ele>301.0</ele><time>2026-04-23T16:15:27.999Z</time></trkpt><trkpt lat="44.97374377662171" lon="9.334169429066453"><ele>300.8</ele><time>2026-04-23T16:15:28.999Z</time></trkpt><trkpt lat="44.97364362254267" lon="9.334258465643934"><ele>300.6</ele><time>2026-04-23T16:15:29.999Z</time></trkpt><trkpt lat="44.97354020475933" lon="9.334342176645903"><ele>300.4</ele><time>2026-04-23T16:15:30.999Z</time></trkpt><trkpt lat="44.973444036657135" lon="9.334416463028509"><ele>300.2</ele><time>2026-04-23T16:15:31.999Z</time></trkpt><trkpt lat="44.97336786246007" lon="9.33449658458298"><ele>300.0</ele><time>2026-04-23T16:15:32.999Z</time></trkpt><trkpt lat="44.97331066404342" lon="9.334597012912633"><ele>300.4</ele><time>2026-04-23T16:15:33.999Z</time></trkpt><trkpt lat="44.97326428403268" lon="9.334724030872689"><ele>300.8</ele><time>2026-04-23T16:15:34.999Z</time></trkpt><trkpt lat="44.97323493042477" lon="9.334863601717341"><ele>301.2</ele><time>2026-04-23T16:15:35.999Z</time></trkpt><trkpt lat="44.973228151055125" lon="9.335011312460768"><ele>301.6</ele><time>2026-04-23T16:15:36.999Z</time></trkpt><trkpt lat="44.973235031920595" lon="9.335151419382244"><ele>302.0</ele><time>2026-04-23T16:15:37.999Z</time></trkpt><trkpt lat="44.97324729628511" lon="9.33527044986909"><ele>302.0</ele><time>2026-04-23T16:15:38.999Z</time></trkpt><trkpt lat="44.97327755854261" lon="9.335373136576075"><ele>302.0</ele><time>2026-04-23T16:15:40Z</time></trkpt><trkpt lat="44.97331349647299" lon="9.335470342815718"><ele>302.0</ele><time>2026-04-23T16:15:41Z</time></trkpt><trkpt lat="44.97335263511007" lon="9.335549178237526"><ele>302.0</ele><time>2026-04-23T16:15:42Z</time></trkpt><trkpt lat="44.9734022710827" lon="9.335624193482486"><ele>302.0</ele><time>2026-04-23T16:15:43Z</time></trkpt><trkpt lat="44.97346322239107" lon="9.335716814261954"><ele>302.0</ele><time>2026-04-23T16:15:44Z</time></trkpt><trkpt lat="44.973526764041324" lon="9.33584004385131"><ele>301.5</ele><time>2026-04-23T16:15:45Z</time></trkpt><trkpt lat="44.9735967506729" lon="9.33597463767433"><ele>301.0</ele><time>2026-04-23T16:15:46Z</time></trkpt><trkpt lat="44.973682601736854" lon="9.336106014103514"><ele>300.5</ele><time>2026-04-23T16:15:47Z</time></trkpt><trkpt lat="44.97375865567204" lon="9.336244323467533"><ele>300.0</ele><time>2026-04-23T16:15:48Z</time></trkpt><trkpt lat="44.97381712364003" lon="9.336397533355557"><ele>300.0</ele><time>2026-04-23T16:15:49Z</time></trkpt><trkpt lat="44.9738722765993" lon="9.336559648501625"><ele>300.0</ele><time>2026-04-23T16:15:50Z</time></trkpt><trkpt lat="44.97391250268035" lon="9.336770859722183"><ele>300.0</ele><time>2026-04-23T16:15:51Z</time></trkpt><trkpt lat="44.97396915436141" lon="9.336987350132135"><ele>300.0</ele><time>2026-04-23T16:15:52Z</time></trkpt><trkpt lat="44.97398616108623" lon="9.33721715365034"><ele>300.3333333333333</ele><time>2026-04-23T16:15:53Z</time></trkpt><trkpt lat="44.97398895323553" lon="9.337442004697007"><ele>300.66666666666663</ele><time>2026-04-23T16:15:54Z</time></trkpt><trkpt lat="44.97400609554798" lon="9.337660629404382"><ele>301.0</ele><time>2026-04-23T16:15:55Z</time></trkpt><trkpt lat="44.97401653140868" lon="9.337889006361316"><ele>302.0</ele><time>2026-04-23T16:15:56Z</time></trkpt><trkpt lat="44.97403433056123" lon="9.33809526513613"><ele>303.0</ele><time>2026-04-23T16:15:57Z</time></trkpt><trkpt lat="44.97409764573527" lon="9.338317682790429"><ele>304.0</ele><time>2026-04-23T16:15:58Z</time></trkpt><trkpt lat="44.97419768842974" lon="9.338535967837075"><ele>301.3333333333333</ele><time>2026-04-23T16:15:59Z</time></trkpt><trkpt lat="44.974300191437635" lon="9.338723794757188"><ele>298.6666666666667</ele><time>2026-04-23T16:16:00Z</time></trkpt><trkpt lat="44.974420124059954" lon="9.338908587772334"><ele>296.0</ele><time>2026-04-23T16:16:01Z</time></trkpt><trkpt lat="44.97453152984244" lon="9.339070160355856"><ele>296.0</ele><time>2026-04-23T16:16:02Z</time></trkpt><trkpt lat="44.97464007977348" lon="9.339216614998982"><ele>296.0</ele><time>2026-04-23T16:16:03Z</time></trkpt><trkpt lat="44.97474922165604" lon="9.33934751241731"><ele>296.0</ele><time>2026-04-23T16:16:04Z</time></trkpt><trkpt lat="44.97486643527199" lon="9.339482594905618"><ele>296.0</ele><time>2026-04-23T16:16:05Z</time></trkpt><trkpt lat="44.974972912974955" lon="9.339627265923172"><ele>293.6666666666667</ele><time>2026-04-23T16:16:06Z</time></trkpt><trkpt lat="44.975073676534365" lon="9.339790663994286"><ele>291.3333333333333</ele><time>2026-04-23T16:16:07Z</time></trkpt><trkpt lat="44.97517320159907" lon="9.339955295517127"><ele>289.0</ele><time>2026-04-23T16:16:08Z</time></trkpt><trkpt lat="44.9752659267834" lon="9.340125386447879"><ele>289.0</ele><time>2026-04-23T16:16:09Z</time></trkpt><trkpt lat="44.975360822349664" lon="9.340273480585783"><ele>289.0</ele><time>2026-04-23T16:16:10Z</time></trkpt><trkpt lat="44.97541267267975" lon="9.34044130452409"><ele>289.0</ele><time>2026-04-23T16:16:11Z</time></trkpt><trkpt lat="44.97549851208489" lon="9.340603540702228"><ele>289.0</ele><time>2026-04-23T16:16:12Z</time></trkpt><trkpt lat="44.975598145938655" lon="9.340765222096602"><ele>289.5</ele><time>2026-04-23T16:16:13Z</time></trkpt><trkpt lat="44.975687079447795" lon="9.340919230690663"><ele>290.0</ele><time>2026-04-23T16:16:14Z</time></trkpt><trkpt lat="44.97577111030606" lon="9.341051099806984"><ele>290.5</ele><time>2026-04-23T16:16:15Z</time></trkpt><trkpt lat="44.97585880856742" lon="9.341154676886292"><ele>291.0</ele><time>2026-04-23T16:16:16Z</time></trkpt><trkpt lat="44.97595764239039" lon="9.341223267635263"><ele>291.0</ele><time>2026-04-23T16:16:17Z</time></trkpt><trkpt lat="44.976058423953" lon="9.34127237810574"><ele>291.0</ele><time>2026-04-23T16:16:18Z</time></trkpt><trkpt lat="44.976152803888546" lon="9.341309784199387"><ele>291.0</ele><time>2026-04-23T16:16:19Z</time></trkpt><trkpt lat="44.97623882561721" lon="9.341362443034015"><ele>291.0</ele><time>2026-04-23T16:16:20Z</time></trkpt><trkpt lat="44.97631441690649" lon="9.341432573813332"><ele>291.0</ele><time>2026-04-23T16:16:21Z</time></trkpt><trkpt lat="44.976360968156825" lon="9.34156119794753"><ele>292.0</ele><time>2026-04-23T16:16:22Z</time></trkpt><trkpt lat="44.97642950789719" lon="9.341676527624175"><ele>293.0</ele><time>2026-04-23T16:16:23Z</time></trkpt><trkpt lat="44.97648423896525" lon="9.341797010066832"><ele>294.0</ele><time>2026-04-23T16:16:24Z</time></trkpt><trkpt lat="44.97651765344195" lon="9.341923757978542"><ele>295.0</ele><time>2026-04-23T16:16:25Z</time></trkpt><trkpt lat="44.97656364856244" lon="9.342031126657657"><ele>296.0</ele><time>2026-04-23T16:16:26Z</time></trkpt><trkpt lat="44.976548846186425" lon="9.342171118256191"><ele>296.0</ele><time>2026-04-23T16:16:27Z</time></trkpt><trkpt lat="44.97656331890047" lon="9.342307770873772"><ele>296.0</ele><time>2026-04-23T16:16:28Z</time></trkpt><trkpt lat="44.976552463335985" lon="9.342440753523833"><ele>296.0</ele><time>2026-04-23T16:16:29Z</time></trkpt><trkpt lat="44.97653724643826" lon="9.34257930119854"><ele>296.0</ele><time>2026-04-23T16:16:30Z</time></trkpt><trkpt lat="44.97649819407442" lon="9.342714557504165"><ele>296.0</ele><time>2026-04-23T16:16:31Z</time></trkpt><trkpt lat="44.97647581089749" lon="9.342868193120196"><ele>296.0</ele><time>2026-04-23T16:16:32Z</time></trkpt><trkpt lat="44.97643456728282" lon="9.343024662134715"><ele>296.0</ele><time>2026-04-23T16:16:33Z</time></trkpt><trkpt lat="44.976384786986614" lon="9.343196375590386"><ele>296.0</ele><time>2026-04-23T16:16:34Z</time></trkpt><trkpt lat="44.976334889918796" lon="9.343403497814997"><ele>296.0</ele><time>2026-04-23T16:16:35Z</time></trkpt><trkpt lat="44.97628472381828" lon="9.34362974520672"><ele>295.0</ele><time>2026-04-23T16:16:36Z</time></trkpt><trkpt lat="44.976234603818206" lon="9.343859579541837"><ele>294.0</ele><time>2026-04-23T16:16:37Z</time></trkpt><trkpt lat="44.97617473310791" lon="9.344066837745233"><ele>293.0</ele><time>2026-04-23T16:16:38Z</time></trkpt><trkpt lat="44.976138598310335" lon="9.34428890449115"><ele>291.5</ele><time>2026-04-23T16:16:39Z</time></trkpt><trkpt lat="44.976085205923376" lon="9.344501374032589"><ele>290.0</ele><time>2026-04-23T16:16:40Z</time></trkpt><trkpt lat="44.97603985170179" lon="9.344696157675436"><ele>288.5</ele><time>2026-04-23T16:16:41Z</time></trkpt><trkpt lat="44.97599986518833" lon="9.344875283022235"><ele>287.0</ele><time>2026-04-23T16:16:42Z</time></trkpt><trkpt lat="44.97593598415032" lon="9.345033835478505"><ele>286.5</ele><time>2026-04-23T16:16:43Z</time></trkpt><trkpt lat="44.975884615775755" lon="9.345197330944746"><ele>286.0</ele><time>2026-04-23T16:16:44Z</time></trkpt><trkpt lat="44.975808706318595" lon="9.345337057163027"><ele>285.5</ele><time>2026-04-23T16:16:45Z</time></trkpt><trkpt lat="44.975745555214004" lon="9.34548601042964"><ele>285.0</ele><time>2026-04-23T16:16:46Z</time></trkpt><trkpt lat="44.97569528293974" lon="9.345645330770711"><ele>288.0</ele><time>2026-04-23T16:16:47Z</time></trkpt><trkpt lat="44.97565094000011" lon="9.34581021691343"><ele>291.0</ele><time>2026-04-23T16:16:48Z</time></trkpt><trkpt lat="44.97562701450792" lon="9.345988346006408"><ele>294.0</ele><time>2026-04-23T16:16:49Z</time></trkpt><trkpt lat="44.97562478495775" lon="9.346180899032232"><ele>297.0</ele><time>2026-04-23T16:16:50Z</time></trkpt><trkpt lat="44.97564699511931" lon="9.346389706617583"><ele>297.3333333333333</ele><time>2026-04-23T16:16:51Z</time></trkpt><trkpt lat="44.9756850744985" lon="9.346598372915151"><ele>297.66666666666663</ele><time>2026-04-23T16:16:51.999Z</time></trkpt><trkpt lat="44.975734801703304" lon="9.346811791335702"><ele>298.0</ele><time>2026-04-23T16:16:52.999Z</time></trkpt><trkpt lat="44.97578102304746" lon="9.347033514665624"><ele>299.3333333333333</ele><time>2026-04-23T16:16:53.999Z</time></trkpt><trkpt lat="44.97581862028114" lon="9.347257581467552"><ele>300.6666666666667</ele><time>2026-04-23T16:16:54.999Z</time></trkpt><trkpt lat="44.97586261122336" lon="9.34747878884686"><ele>302.0</ele><time>2026-04-23T16:16:55.999Z</time></trkpt><trkpt lat="44.97591760747443" lon="9.34769229135568"><ele>300.0</ele><time>2026-04-23T16:16:56.999Z</time></trkpt><trkpt lat="44.97598788118909" lon="9.347898931757257"><ele>298.0</ele><time>2026-04-23T16:16:57.999Z</time></trkpt><trkpt lat="44.97607610621401" lon="9.348083154711597"><ele>296.0</ele><time>2026-04-23T16:16:58.999Z</time></trkpt><trkpt lat="44.976170590080635" lon="9.348249730315494"><ele>296.0</ele><time>2026-04-23T16:16:59.999Z</time></trkpt><trkpt lat="44.97627487361713" lon="9.348397883263766"><ele>296.0</ele><time>2026-04-23T16:17:00.999Z</time></trkpt><trkpt lat="44.97633608762709" lon="9.348591810996211"><ele>296.0</ele><time>2026-04-23T16:17:01.999Z</time></trkpt><trkpt lat="44.97639142136398" lon="9.348792653500597"><ele>297.0</ele><time>2026-04-23T16:17:02.999Z</time></trkpt><trkpt lat="44.976460747394675" lon="9.348994543264093"><ele>298.0</ele><time>2026-04-23T16:17:03.999Z</time></trkpt><trkpt lat="44.97650297862572" lon="9.349215646308531"><ele>299.0</ele><time>2026-04-23T16:17:04.999Z</time></trkpt><trkpt lat="44.97656019134079" lon="9.349414431285844"><ele>299.0</ele><time>2026-04-23T16:17:05.999Z</time></trkpt><trkpt lat="44.97661550776721" lon="9.349608416509243"><ele>299.0</ele><time>2026-04-23T16:17:06.999Z</time></trkpt><trkpt lat="44.97668369984905" lon="9.349804927552256"><ele>299.0</ele><time>2026-04-23T16:17:07.999Z</time></trkpt><trkpt lat="44.97679198956844" lon="9.34996003087927"><ele>299.0</ele><time>2026-04-23T16:17:08.999Z</time></trkpt><trkpt lat="44.9768636617005" lon="9.35013911863001"><ele>299.0</ele><time>2026-04-23T16:17:09.999Z</time></trkpt><trkpt lat="44.97693263687723" lon="9.350304545669648"><ele>299.0</ele><time>2026-04-23T16:17:10.999Z</time></trkpt><trkpt lat="44.97699151977152" lon="9.35047229469373"><ele>299.0</ele><time>2026-04-23T16:17:11.999Z</time></trkpt><trkpt lat="44.97705269675956" lon="9.350641192929634"><ele>299.0</ele><time>2026-04-23T16:17:12.999Z</time></trkpt><trkpt lat="44.97709364782746" lon="9.350816002491017"><ele>299.0</ele><time>2026-04-23T16:17:13.999Z</time></trkpt><trkpt lat="44.977146384861996" lon="9.35096884236666"><ele>299.0</ele><time>2026-04-23T16:17:14.999Z</time></trkpt><trkpt lat="44.97722610203515" lon="9.351085970995973"><ele>299.0</ele><time>2026-04-23T16:17:15.999Z</time></trkpt><trkpt lat="44.977335246237004" lon="9.351163627829383"><ele>299.0</ele><time>2026-04-23T16:17:16.999Z</time></trkpt><trkpt lat="44.977466231714" lon="9.351213062851073"><ele>299.0</ele><time>2026-04-23T16:17:17.999Z</time></trkpt><trkpt lat="44.97760176579128" lon="9.35125418625542"><ele>299.0</ele><time>2026-04-23T16:17:18.999Z</time></trkpt><trkpt lat="44.977731965337355" lon="9.35128691513113"><ele>299.0</ele><time>2026-04-23T16:17:19.999Z</time></trkpt><trkpt lat="44.97785857119238" lon="9.351293717438235"><ele>299.5</ele><time>2026-04-23T16:17:20.999Z</time></trkpt><trkpt lat="44.97798951441482" lon="9.351286108011381"><ele>300.0</ele><time>2026-04-23T16:17:21.999Z</time></trkpt><trkpt lat="44.97812106197722" lon="9.351260860282101"><ele>300.5</ele><time>2026-04-23T16:17:22.999Z</time></trkpt><trkpt lat="44.978254040344254" lon="9.35123625293089"><ele>301.0</ele><time>2026-04-23T16:17:23.999Z</time></trkpt><trkpt lat="44.97839241032983" lon="9.351219537275954"><ele>302.25</ele><time>2026-04-23T16:17:24.999Z</time></trkpt><trkpt lat="44.97853543519708" lon="9.351203346778917"><ele>303.5</ele><time>2026-04-23T16:17:25.999Z</time></trkpt><trkpt lat="44.9786835192775" lon="9.35117723530937"><ele>304.75</ele><time>2026-04-23T16:17:26.999Z</time></trkpt><trkpt lat="44.97882178155906" lon="9.351115548282632"><ele>306.0</ele><time>2026-04-23T16:17:27.999Z</time></trkpt><trkpt lat="44.978951113809956" lon="9.351013336707336"><ele>306.0</ele><time>2026-04-23T16:17:28.999Z</time></trkpt><trkpt lat="44.97907177240418" lon="9.350883590781136"><ele>306.0</ele><time>2026-04-23T16:17:29.999Z</time></trkpt><trkpt lat="44.97917237545736" lon="9.350750502385507"><ele>306.0</ele><time>2026-04-23T16:17:30.999Z</time></trkpt><trkpt lat="44.97926892233755" lon="9.350621035913695"><ele>306.0</ele><time>2026-04-23T16:17:31.999Z</time></trkpt><trkpt lat="44.97936936104026" lon="9.350510775869061"><ele>305.5</ele><time>2026-04-23T16:17:32.999Z</time></trkpt><trkpt lat="44.97948359904022" lon="9.350419862776599"><ele>305.0</ele><time>2026-04-23T16:17:33.999Z</time></trkpt><trkpt lat="44.979610628473786" lon="9.350361448316974"><ele>304.5</ele><time>2026-04-23T16:17:34.999Z</time></trkpt><trkpt lat="44.97974585141362" lon="9.350355312467284"><ele>304.0</ele><time>2026-04-23T16:17:35.999Z</time></trkpt><trkpt lat="44.979876783831706" lon="9.350324083446809"><ele>304.0</ele><time>2026-04-23T16:17:36.999Z</time></trkpt><trkpt lat="44.98001414211347" lon="9.350304197177273"><ele>304.0</ele><time>2026-04-23T16:17:37.999Z</time></trkpt><trkpt lat="44.98016849971338" lon="9.350279039194819"><ele>304.0</ele><time>2026-04-23T16:17:38.999Z</time></trkpt><trkpt lat="44.98032318692863" lon="9.350298848848768"><ele>304.0</ele><time>2026-04-23T16:17:39.999Z</time></trkpt><trkpt lat="44.98047619735917" lon="9.350321675961146"><ele>304.0</ele><time>2026-04-23T16:17:40.999Z</time></trkpt><trkpt lat="44.98062771141118" lon="9.350343412707828"><ele>304.0</ele><time>2026-04-23T16:17:41.999Z</time></trkpt><trkpt lat="44.98077394638797" lon="9.350341004767648"><ele>304.0</ele><time>2026-04-23T16:17:42.999Z</time></trkpt><trkpt lat="44.980916983660045" lon="9.350355527076525"><ele>304.0</ele><time>2026-04-23T16:17:43.999Z</time></trkpt><trkpt lat="44.981063464320364" lon="9.350330039466405"><ele>305.75</ele><time>2026-04-23T16:17:44.999Z</time></trkpt><trkpt lat="44.98120743601911" lon="9.350265714603697"><ele>307.5</ele><time>2026-04-23T16:17:46Z</time></trkpt><trkpt lat="44.981336889559174" lon="9.350158614891663"><ele>309.25</ele><time>2026-04-23T16:17:47Z</time></trkpt><trkpt lat="44.98145434371185" lon="9.350032563456024"><ele>311.0</ele><time>2026-04-23T16:17:48Z</time></trkpt><trkpt lat="44.98155995194724" lon="9.349878051051423"><ele>310.0</ele><time>2026-04-23T16:17:49Z</time></trkpt><trkpt lat="44.98165240658564" lon="9.349699284328647"><ele>309.0</ele><time>2026-04-23T16:17:50Z</time></trkpt><trkpt lat="44.981742694321014" lon="9.349531777767071"><ele>308.0</ele><time>2026-04-23T16:17:51Z</time></trkpt><trkpt lat="44.981824344429334" lon="9.349364797199957"><ele>307.0</ele><time>2026-04-23T16:17:52Z</time></trkpt><trkpt lat="44.98191018611221" lon="9.349202949248559"><ele>307.25</ele><time>2026-04-23T16:17:53Z</time></trkpt><trkpt lat="44.981987144934614" lon="9.349044290733053"><ele>307.5</ele><time>2026-04-23T16:17:54Z</time></trkpt><trkpt lat="44.982062905221454" lon="9.348900108024019"><ele>307.75</ele><time>2026-04-23T16:17:55Z</time></trkpt><trkpt lat="44.98215982105315" lon="9.348801430482565"><ele>308.0</ele><time>2026-04-23T16:17:56Z</time></trkpt><trkpt lat="44.982257090578564" lon="9.348725171460208"><ele>308.0</ele><time>2026-04-23T16:17:57Z</time></trkpt><trkpt lat="44.98235261165739" lon="9.3486671077031"><ele>308.0</ele><time>2026-04-23T16:17:58Z</time></trkpt><trkpt lat="44.98247109665588" lon="9.348673013642397"><ele>308.0</ele><time>2026-04-23T16:17:59Z</time></trkpt><trkpt lat="44.982599254676224" lon="9.348755946343692"><ele>308.0</ele><time>2026-04-23T16:18:00Z</time></trkpt><trkpt lat="44.98274671722951" lon="9.348835035445246"><ele>308.5</ele><time>2026-04-23T16:18:01Z</time></trkpt><trkpt lat="44.982893927852736" lon="9.348905542364253"><ele>309.0</ele><time>2026-04-23T16:18:02Z</time></trkpt><trkpt lat="44.983024328004404" lon="9.348987009498213"><ele>309.5</ele><time>2026-04-23T16:18:03Z</time></trkpt><trkpt lat="44.983140124092515" lon="9.349069898926444"><ele>310.0</ele><time>2026-04-23T16:18:04Z</time></trkpt><trkpt lat="44.983239338679816" lon="9.349167562691978"><ele>310.0</ele><time>2026-04-23T16:18:05Z</time></trkpt><trkpt lat="44.98332178677359" lon="9.34930233322169"><ele>310.0</ele><time>2026-04-23T16:18:06Z</time></trkpt><trkpt lat="44.983404511477374" lon="9.349454135833719"><ele>310.0</ele><time>2026-04-23T16:18:07Z</time></trkpt><trkpt lat="44.98346287256257" lon="9.34964195047113"><ele>310.0</ele><time>2026-04-23T16:18:08Z</time></trkpt><trkpt lat="44.983549238312186" lon="9.349819137189742"><ele>309.0</ele><time>2026-04-23T16:18:09Z</time></trkpt><trkpt lat="44.983620750746844" lon="9.350022333822258"><ele>308.0</ele><time>2026-04-23T16:18:10Z</time></trkpt><trkpt lat="44.983711666692955" lon="9.350206601727756"><ele>307.0</ele><time>2026-04-23T16:18:11Z</time></trkpt><trkpt lat="44.98383910409812" lon="9.350333541416909"><ele>307.0</ele><time>2026-04-23T16:18:12Z</time></trkpt><trkpt lat="44.983985945734794" lon="9.3504414075726"><ele>307.0</ele><time>2026-04-23T16:18:13Z</time></trkpt><trkpt lat="44.98411248933406" lon="9.350584321655663"><ele>307.0</ele><time>2026-04-23T16:18:14Z</time></trkpt><trkpt lat="44.984230725346734" lon="9.350724396555309"><ele>307.25</ele><time>2026-04-23T16:18:15Z</time></trkpt><trkpt lat="44.98432459469282" lon="9.350892057353349"><ele>307.5</ele><time>2026-04-23T16:18:16Z</time></trkpt><trkpt lat="44.98438650657061" lon="9.351071901882893"><ele>307.75</ele><time>2026-04-23T16:18:17Z</time></trkpt><trkpt lat="44.98442794300524" lon="9.351257218924477"><ele>308.0</ele><time>2026-04-23T16:18:18Z</time></trkpt><trkpt lat="44.984463967408324" lon="9.351433296950784"><ele>308.0</ele><time>2026-04-23T16:18:19Z</time></trkpt><trkpt lat="44.98450166444885" lon="9.351597336551857"><ele>308.0</ele><time>2026-04-23T16:18:20Z</time></trkpt><trkpt lat="44.98453087409205" lon="9.351757825621833"><ele>308.0</ele><time>2026-04-23T16:18:21Z</time></trkpt><trkpt lat="44.98456512791195" lon="9.351905745249075"><ele>308.0</ele><time>2026-04-23T16:18:22Z</time></trkpt><trkpt lat="44.98459528581996" lon="9.352042914269925"><ele>308.0</ele><time>2026-04-23T16:18:23Z</time></trkpt><trkpt lat="44.98465514572634" lon="9.352172765909168"><ele>308.0</ele><time>2026-04-23T16:18:24Z</time></trkpt><trkpt lat="44.984748007966935" lon="9.352257118519024"><ele>308.0</ele><time>2026-04-23T16:18:25Z</time></trkpt><trkpt lat="44.98485931609849" lon="9.352301466400505"><ele>308.0</ele><time>2026-04-23T16:18:26Z</time></trkpt><trkpt lat="44.9849869058677" lon="9.352311465435244"><ele>310.5</ele><time>2026-04-23T16:18:27Z</time></trkpt><trkpt lat="44.98512458821934" lon="9.352302040163678"><ele>313.0</ele><time>2026-04-23T16:18:28Z</time></trkpt><trkpt lat="44.985253733627594" lon="9.352287343972217"><ele>315.5</ele><time>2026-04-23T16:18:29Z</time></trkpt><trkpt lat="44.98538013446147" lon="9.352273275135332"><ele>318.0</ele><time>2026-04-23T16:18:30Z</time></trkpt><trkpt lat="44.98549585623734" lon="9.352260376720912"><ele>318.0</ele><time>2026-04-23T16:18:31Z</time></trkpt><trkpt lat="44.985607084053576" lon="9.352253185520595"><ele>318.0</ele><time>2026-04-23T16:18:32Z</time></trkpt><trkpt lat="44.98570944116125" lon="9.352262783596114"><ele>318.0</ele><time>2026-04-23T16:18:33Z</time></trkpt><trkpt lat="44.98580716962066" lon="9.352296862379266"><ele>318.0</ele><time>2026-04-23T16:18:34Z</time></trkpt><trkpt lat="44.98589841293318" lon="9.352338255239122"><ele>318.0</ele><time>2026-04-23T16:18:35Z</time></trkpt><trkpt lat="44.98597923660805" lon="9.352394180536297"><ele>316.8</ele><time>2026-04-23T16:18:36Z</time></trkpt><trkpt lat="44.98605884935593" lon="9.35245888437826"><ele>315.6</ele><time>2026-04-23T16:18:37Z</time></trkpt><trkpt lat="44.98614406500006" lon="9.352524558933169"><ele>314.4</ele><time>2026-04-23T16:18:38Z</time></trkpt><trkpt lat="44.986237538418045" lon="9.352592783318753"><ele>313.2</ele><time>2026-04-23T16:18:39Z</time></trkpt><trkpt lat="44.986329964264776" lon="9.352674207937651"><ele>312.0</ele><time>2026-04-23T16:18:40Z</time></trkpt><trkpt lat="44.98642693555922" lon="9.35275988243039"><ele>312.0</ele><time>2026-04-23T16:18:41Z</time></trkpt><trkpt lat="44.986524796516655" lon="9.352854762803448"><ele>312.0</ele><time>2026-04-23T16:18:42Z</time></trkpt><trkpt lat="44.986620450524434" lon="9.35294577862659"><ele>312.0</ele><time>2026-04-23T16:18:43Z</time></trkpt><trkpt lat="44.98671530309444" lon="9.353034205992527"><ele>312.0</ele><time>2026-04-23T16:18:44Z</time></trkpt><trkpt lat="44.9868134115852" lon="9.353115627251979"><ele>311.4</ele><time>2026-04-23T16:18:45Z</time></trkpt><trkpt lat="44.98691587177788" lon="9.353199107553692"><ele>310.79999999999995</ele><time>2026-04-23T16:18:46Z</time></trkpt><trkpt lat="44.987009476039916" lon="9.353286625490647"><ele>310.2</ele><time>2026-04-23T16:18:47Z</time></trkpt><trkpt lat="44.98708844515892" lon="9.353387737023851"><ele>309.59999999999997</ele><time>2026-04-23T16:18:48Z</time></trkpt><trkpt lat="44.987159794468525" lon="9.353495114210917"><ele>309.0</ele><time>2026-04-23T16:18:49Z</time></trkpt><trkpt lat="44.987230679466315" lon="9.353603829250382"><ele>309.0</ele><time>2026-04-23T16:18:50Z</time></trkpt><trkpt lat="44.987302020750924" lon="9.353716834899915"><ele>309.0</ele><time>2026-04-23T16:18:51Z</time></trkpt><trkpt lat="44.98736947165582" lon="9.353826240902238"><ele>309.0</ele><time>2026-04-23T16:18:52Z</time></trkpt><trkpt lat="44.98743327853486" lon="9.353936459666464"><ele>309.0</ele><time>2026-04-23T16:18:53Z</time></trkpt><trkpt lat="44.987491804674484" lon="9.354052765766648"><ele>309.0</ele><time>2026-04-23T16:18:54Z</time></trkpt><trkpt lat="44.98754325541471" lon="9.354171432049673"><ele>309.5</ele><time>2026-04-23T16:18:55Z</time></trkpt><trkpt lat="44.987593236263045" lon="9.354292393451411"><ele>310.0</ele><time>2026-04-23T16:18:56Z</time></trkpt><trkpt lat="44.98763807797905" lon="9.354411178863009"><ele>310.5</ele><time>2026-04-23T16:18:56.999Z</time></trkpt><trkpt lat="44.98767680498381" lon="9.354526283602178"><ele>311.0</ele><time>2026-04-23T16:18:57.999Z</time></trkpt><trkpt lat="44.98768971025479" lon="9.354643768449865"><ele>311.5</ele><time>2026-04-23T16:18:58.999Z</time></trkpt><trkpt lat="44.987716667747726" lon="9.35474422077738"><ele>312.0</ele><time>2026-04-23T16:18:59.999Z</time></trkpt><trkpt lat="44.98774151212443" lon="9.354844366385395"><ele>313.4</ele><time>2026-04-23T16:19:00.999Z</time></trkpt><trkpt lat="44.98776389591123" lon="9.354934965240885"><ele>314.79999999999995</ele><time>2026-04-23T16:19:01.999Z</time></trkpt><trkpt lat="44.98778530900377" lon="9.355025535282277"><ele>316.2</ele><time>2026-04-23T16:19:02.999Z</time></trkpt><trkpt lat="44.98781917307677" lon="9.355194131719195"><ele>317.59999999999997</ele><time>2026-04-23T16:19:04.999Z</time></trkpt><trkpt lat="44.98785768244522" lon="9.355334799029434"><ele>319.0</ele><time>2026-04-23T16:19:06.999Z</time></trkpt><trkpt lat="44.98785443064945" lon="9.355488365657369"><ele>317.8</ele><time>2026-04-23T16:19:08.999Z</time></trkpt><trkpt lat="44.987832388996154" lon="9.35567384978544"><ele>316.59999999999997</ele><time>2026-04-23T16:19:10.999Z</time></trkpt><trkpt lat="44.98781554246778" lon="9.355795694867027"><ele>315.4</ele><time>2026-04-23T16:19:11.999Z</time></trkpt><trkpt lat="44.987793856893454" lon="9.355938146465936"><ele>314.2</ele><time>2026-04-23T16:19:12.999Z</time></trkpt><trkpt lat="44.98777225086283" lon="9.356075311575104"><ele>313.0</ele><time>2026-04-23T16:19:13.999Z</time></trkpt><trkpt lat="44.98775035091139" lon="9.35621434252699"><ele>313.0</ele><time>2026-04-23T16:19:14.999Z</time></trkpt><trkpt lat="44.98774397560059" lon="9.356346318531124"><ele>313.0</ele><time>2026-04-23T16:19:15.999Z</time></trkpt><trkpt lat="44.9877260911372" lon="9.35645729319904"><ele>313.0</ele><time>2026-04-23T16:19:16.999Z</time></trkpt><trkpt lat="44.98770609550593" lon="9.356566029005368"><ele>313.0</ele><time>2026-04-23T16:19:17.999Z</time></trkpt><trkpt lat="44.98768091166607" lon="9.356683845559127"><ele>313.0</ele><time>2026-04-23T16:19:18.999Z</time></trkpt><trkpt lat="44.98765141798016" lon="9.356791414366535"><ele>313.0</ele><time>2026-04-23T16:19:19.999Z</time></trkpt><trkpt lat="44.98763729433041" lon="9.356891353965372"><ele>311.66666666666663</ele><time>2026-04-23T16:19:20.999Z</time></trkpt><trkpt lat="44.98763329980771" lon="9.356989356876586"><ele>310.3333333333333</ele><time>2026-04-23T16:19:21.999Z</time></trkpt><trkpt lat="44.987621486012024" lon="9.357079012570273"><ele>309.0</ele><time>2026-04-23T16:19:22.999Z</time></trkpt><trkpt lat="44.9875889138609" lon="9.357237918670977"><ele>307.6666666666667</ele><time>2026-04-23T16:19:24.999Z</time></trkpt><trkpt lat="44.987555292126146" lon="9.35733141335722"><ele>306.33333333333337</ele><time>2026-04-23T16:19:26.999Z</time></trkpt><trkpt lat="44.98758403378619" lon="9.357440874365677"><ele>305.0</ele><time>2026-04-23T16:19:27.999Z</time></trkpt><trkpt lat="44.987585287779574" lon="9.357554659725787"><ele>304.0</ele><time>2026-04-23T16:19:28.999Z</time></trkpt><trkpt lat="44.98758712968696" lon="9.357687373849016"><ele>303.0</ele><time>2026-04-23T16:19:29.999Z</time></trkpt><trkpt lat="44.98758956693283" lon="9.357814505500587"><ele>302.0</ele><time>2026-04-23T16:19:30.999Z</time></trkpt><trkpt lat="44.987610449342405" lon="9.357914870550255"><ele>301.0</ele><time>2026-04-23T16:19:31.999Z</time></trkpt><trkpt lat="44.98762050349984" lon="9.358089794012573"><ele>300.0</ele><time>2026-04-23T16:19:33.999Z</time></trkpt><trkpt lat="44.98763158639019" lon="9.358241909618204"><ele>298.8</ele><time>2026-04-23T16:19:35.999Z</time></trkpt><trkpt lat="44.987641726656626" lon="9.358405288147402"><ele>297.6</ele><time>2026-04-23T16:19:37.999Z</time></trkpt><trkpt lat="44.98764968421541" lon="9.358494861352959"><ele>296.4</ele><time>2026-04-23T16:19:38.999Z</time></trkpt><trkpt lat="44.98765657310205" lon="9.358584865341813"><ele>295.2</ele><time>2026-04-23T16:19:39.999Z</time></trkpt><trkpt lat="44.98767669400709" lon="9.358736896908331"><ele>294.0</ele><time>2026-04-23T16:19:41.999Z</time></trkpt><trkpt lat="44.987695932735924" lon="9.358883419770454"><ele>292.8333333333333</ele><time>2026-04-23T16:19:43.999Z</time></trkpt><trkpt lat="44.98774171319518" lon="9.359052443538976"><ele>291.6666666666667</ele><time>2026-04-23T16:19:45.999Z</time></trkpt><trkpt lat="44.9877317202414" lon="9.359166199110156"><ele>290.5</ele><time>2026-04-23T16:19:46.999Z</time></trkpt><trkpt lat="44.9877638855675" lon="9.359245094419435"><ele>289.33333333333337</ele><time>2026-04-23T16:19:47.999Z</time></trkpt><trkpt lat="44.987806693158795" lon="9.359324396568965"><ele>288.1666666666667</ele><time>2026-04-23T16:19:48.999Z</time></trkpt><trkpt lat="44.98785055276248" lon="9.359397301977932"><ele>287.0</ele><time>2026-04-23T16:19:49.999Z</time></trkpt><trkpt lat="44.98792003416962" lon="9.359487160775329"><ele>287.0</ele><time>2026-04-23T16:19:50.999Z</time></trkpt><trkpt lat="44.98798521149874" lon="9.35955061562737"><ele>287.0</ele><time>2026-04-23T16:19:52Z</time></trkpt><trkpt lat="44.98804334083409" lon="9.359599092773962"><ele>287.0</ele><time>2026-04-23T16:19:53Z</time></trkpt><trkpt lat="44.988103663174435" lon="9.359646814066599"><ele>287.0</ele><time>2026-04-23T16:19:54Z</time></trkpt><trkpt lat="44.988185960550865" lon="9.35973308641936"><ele>287.0</ele><time>2026-04-23T16:19:56Z</time></trkpt><trkpt lat="44.98821632618875" lon="9.359811507900199"><ele>287.0</ele><time>2026-04-23T16:19:57Z</time></trkpt><trkpt lat="44.988266419634066" lon="9.359924286443038"><ele>286.6666666666667</ele><time>2026-04-23T16:19:58Z</time></trkpt><trkpt lat="44.988305999525856" lon="9.360041917494064"><ele>286.33333333333337</ele><time>2026-04-23T16:19:59Z</time></trkpt><trkpt lat="44.98833803022956" lon="9.360145898988895"><ele>286.0</ele><time>2026-04-23T16:20:00Z</time></trkpt><trkpt lat="44.98836591963295" lon="9.360246500789229"><ele>285.6666666666667</ele><time>2026-04-23T16:20:01Z</time></trkpt><trkpt lat="44.988394292838166" lon="9.36037365025383"><ele>285.3333333333333</ele><time>2026-04-23T16:20:02Z</time></trkpt><trkpt lat="44.988406248744546" lon="9.360488695767492"><ele>285.0</ele><time>2026-04-23T16:20:03Z</time></trkpt><trkpt lat="44.988411016431826" lon="9.360616307635121"><ele>282.8</ele><time>2026-04-23T16:20:04Z</time></trkpt><trkpt lat="44.98842591360342" lon="9.36073518687194"><ele>280.6</ele><time>2026-04-23T16:20:05Z</time></trkpt><trkpt lat="44.988463773293454" lon="9.360858404968429"><ele>278.4</ele><time>2026-04-23T16:20:06Z</time></trkpt><trkpt lat="44.988494300224566" lon="9.360985441626935"><ele>276.2</ele><time>2026-04-23T16:20:07Z</time></trkpt><trkpt lat="44.988528739140136" lon="9.36112104943763"><ele>274.0</ele><time>2026-04-23T16:20:08Z</time></trkpt><trkpt lat="44.988573289084066" lon="9.361243929374519"><ele>274.0</ele><time>2026-04-23T16:20:09Z</time></trkpt><trkpt lat="44.988617024888896" lon="9.361359838094979"><ele>274.0</ele><time>2026-04-23T16:20:10Z</time></trkpt><trkpt lat="44.98866376139642" lon="9.361509425146085"><ele>274.0</ele><time>2026-04-23T16:20:11Z</time></trkpt><trkpt lat="44.98871047134396" lon="9.361654082376045"><ele>274.0</ele><time>2026-04-23T16:20:12Z</time></trkpt><trkpt lat="44.98875734917575" lon="9.36178642775201"><ele>274.0</ele><time>2026-04-23T16:20:13Z</time></trkpt><trkpt lat="44.98881227405576" lon="9.361894535378898"><ele>273.4</ele><time>2026-04-23T16:20:14Z</time></trkpt><trkpt lat="44.98887257261001" lon="9.361985591342476"><ele>272.79999999999995</ele><time>2026-04-23T16:20:15Z</time></trkpt><trkpt lat="44.98892209549194" lon="9.362070168093659"><ele>272.20000000000005</ele><time>2026-04-23T16:20:16Z</time></trkpt><trkpt lat="44.98897367289074" lon="9.36217591426017"><ele>271.6</ele><time>2026-04-23T16:20:17Z</time></trkpt><trkpt lat="44.98903398562309" lon="9.36229858808694"><ele>271.0</ele><time>2026-04-23T16:20:18Z</time></trkpt><trkpt lat="44.98909237864384" lon="9.36244161637883"><ele>270.5</ele><time>2026-04-23T16:20:19Z</time></trkpt><trkpt lat="44.989146647380885" lon="9.36259243101233"><ele>270.0</ele><time>2026-04-23T16:20:20Z</time></trkpt><trkpt lat="44.98920679539034" lon="9.362781564109849"><ele>269.5</ele><time>2026-04-23T16:20:21Z</time></trkpt><trkpt lat="44.989254174284596" lon="9.362957756649378"><ele>269.0</ele><time>2026-04-23T16:20:22Z</time></trkpt><trkpt lat="44.98929219420158" lon="9.363111666673728"><ele>266.4</ele><time>2026-04-23T16:20:23Z</time></trkpt><trkpt lat="44.989340616215294" lon="9.363251913341305"><ele>263.79999999999995</ele><time>2026-04-23T16:20:24Z</time></trkpt><trkpt lat="44.98940171566705" lon="9.363386400896433"><ele>261.20000000000005</ele><time>2026-04-23T16:20:25Z</time></trkpt><trkpt lat="44.989467252892936" lon="9.363511180087883"><ele>258.6</ele><time>2026-04-23T16:20:26Z</time></trkpt><trkpt lat="44.98952981753143" lon="9.363628887038303"><ele>256.0</ele><time>2026-04-23T16:20:27Z</time></trkpt><trkpt lat="44.989584656858895" lon="9.363747000843265"><ele>256.0</ele><time>2026-04-23T16:20:28Z</time></trkpt><trkpt lat="44.98963492192694" lon="9.363862167490314"><ele>256.0</ele><time>2026-04-23T16:20:29Z</time></trkpt><trkpt lat="44.989678202277304" lon="9.363986469675618"><ele>256.0</ele><time>2026-04-23T16:20:30Z</time></trkpt><trkpt lat="44.98972302295154" lon="9.364107186480428"><ele>256.0</ele><time>2026-04-23T16:20:31Z</time></trkpt><trkpt lat="44.989760682474255" lon="9.364245127417021"><ele>256.0</ele><time>2026-04-23T16:20:32Z</time></trkpt><trkpt lat="44.98979202762485" lon="9.3643789033539"><ele>257.0</ele><time>2026-04-23T16:20:33Z</time></trkpt><trkpt lat="44.98981753984228" lon="9.364529525423057"><ele>258.0</ele><time>2026-04-23T16:20:34Z</time></trkpt><trkpt lat="44.989832804530224" lon="9.364637520651634"><ele>259.0</ele><time>2026-04-23T16:20:35Z</time></trkpt><trkpt lat="44.98986102542457" lon="9.364735712272205"><ele>260.0</ele><time>2026-04-23T16:20:36Z</time></trkpt><trkpt lat="44.989889842435176" lon="9.364816384669927"><ele>261.0</ele><time>2026-04-23T16:20:37Z</time></trkpt><trkpt lat="44.98995257571038" lon="9.364976417844844"><ele>260.40000000000003</ele><time>2026-04-23T16:20:39Z</time></trkpt><trkpt lat="44.99000064037079" lon="9.365096316031071"><ele>259.8</ele><time>2026-04-23T16:20:40Z</time></trkpt><trkpt lat="44.99006018531073" lon="9.365237525768572"><ele>259.20000000000005</ele><time>2026-04-23T16:20:41Z</time></trkpt><trkpt lat="44.990126148157955" lon="9.3653690722663"><ele>258.6</ele><time>2026-04-23T16:20:42Z</time></trkpt><trkpt lat="44.99017515862322" lon="9.365482202692007"><ele>258.0</ele><time>2026-04-23T16:20:43Z</time></trkpt><trkpt lat="44.99020455321037" lon="9.365588363624306"><ele>259.4</ele><time>2026-04-23T16:20:44Z</time></trkpt><trkpt lat="44.9902093735066" lon="9.365691383175474"><ele>260.8</ele><time>2026-04-23T16:20:45Z</time></trkpt><trkpt lat="44.9902068238318" lon="9.365808248955068"><ele>262.2</ele><time>2026-04-23T16:20:46Z</time></trkpt><trkpt lat="44.990192630760035" lon="9.365946295146456"><ele>263.6</ele><time>2026-04-23T16:20:47Z</time></trkpt><trkpt lat="44.9901820001399" lon="9.366101825908506"><ele>265.0</ele><time>2026-04-23T16:20:48Z</time></trkpt><trkpt lat="44.990165682860365" lon="9.366241727052914"><ele>265.0</ele><time>2026-04-23T16:20:49Z</time></trkpt><trkpt lat="44.990186357941475" lon="9.366339055153508"><ele>265.0</ele><time>2026-04-23T16:20:49.999Z</time></trkpt><trkpt lat="44.990174871043024" lon="9.366465016324831"><ele>265.0</ele><time>2026-04-23T16:20:51.999Z</time></trkpt><trkpt lat="44.99017846371314" lon="9.366554821660465"><ele>265.0</ele><time>2026-04-23T16:20:55.999Z</time></trkpt><trkpt lat="44.99023917552172" lon="9.366618361138018"><ele>265.0</ele><time>2026-04-23T16:20:57.999Z</time></trkpt><trkpt lat="44.9903167696793" lon="9.366639055866562"><ele>265.0</ele><time>2026-04-23T16:20:58.999Z</time></trkpt><trkpt lat="44.9903573679789" lon="9.366745298298474"><ele>265.16666666666663</ele><time>2026-04-23T16:20:59.999Z</time></trkpt><trkpt lat="44.99042917405927" lon="9.366641832918857"><ele>265.3333333333333</ele><time>2026-04-23T16:21:00.999Z</time></trkpt><trkpt lat="44.99053893467638" lon="9.36661452496267"><ele>265.5</ele><time>2026-04-23T16:21:02.999Z</time></trkpt><trkpt lat="44.990610313982536" lon="9.366595744310134"><ele>265.6666666666667</ele><time>2026-04-23T16:21:03.999Z</time></trkpt><trkpt lat="44.990686032653144" lon="9.366574838864079"><ele>265.83333333333337</ele><time>2026-04-23T16:21:04.999Z</time></trkpt><trkpt lat="44.99076809914626" lon="9.366555466947585"><ele>266.0</ele><time>2026-04-23T16:21:05.999Z</time></trkpt><trkpt lat="44.99085113023614" lon="9.366539164684387"><ele>265.33333333333337</ele><time>2026-04-23T16:21:06.999Z</time></trkpt><trkpt lat="44.990932949805284" lon="9.366528802873503"><ele>264.6666666666667</ele><time>2026-04-23T16:21:07.999Z</time></trkpt><trkpt lat="44.99101034438279" lon="9.36650029938326"><ele>264.0</ele><time>2026-04-23T16:21:08.999Z</time></trkpt><trkpt lat="44.99108480091238" lon="9.36648117728763"><ele>263.3333333333333</ele><time>2026-04-23T16:21:09.999Z</time></trkpt><trkpt lat="44.991158269378104" lon="9.366473118387088"><ele>262.66666666666663</ele><time>2026-04-23T16:21:10.999Z</time></trkpt><trkpt lat="44.99123258611099" lon="9.366469094924614"><ele>262.0</ele><time>2026-04-23T16:21:11.999Z</time></trkpt><trkpt lat="44.991305022385674" lon="9.366465172204853"><ele>262.0</ele><time>2026-04-23T16:21:12.999Z</time></trkpt><trkpt lat="44.99137422632995" lon="9.366466643701306"><ele>262.0</ele><time>2026-04-23T16:21:13.999Z</time></trkpt><trkpt lat="44.99144210148845" lon="9.366474656684934"><ele>262.0</ele><time>2026-04-23T16:21:14.999Z</time></trkpt><trkpt lat="44.99151123594711" lon="9.366484064127985"><ele>262.0</ele><time>2026-04-23T16:21:15.999Z</time></trkpt><trkpt lat="44.99158122621118" lon="9.366497795841068"><ele>262.0</ele><time>2026-04-23T16:21:16.999Z</time></trkpt><trkpt lat="44.99165054847684" lon="9.36651730387295"><ele>262.0</ele><time>2026-04-23T16:21:17.999Z</time></trkpt><trkpt lat="44.9917221770055" lon="9.36653821788566"><ele>262.0</ele><time>2026-04-23T16:21:18.999Z</time></trkpt><trkpt lat="44.99179679232267" lon="9.366563499292068"><ele>261.0</ele><time>2026-04-23T16:21:19.999Z</time></trkpt><trkpt lat="44.991872808658805" lon="9.366599496694299"><ele>260.0</ele><time>2026-04-23T16:21:20.999Z</time></trkpt><trkpt lat="44.99195066978359" lon="9.36663871288882"><ele>259.0</ele><time>2026-04-23T16:21:21.999Z</time></trkpt><trkpt lat="44.99202766713452" lon="9.366676192390704"><ele>258.0</ele><time>2026-04-23T16:21:22.999Z</time></trkpt><trkpt lat="44.99210541083603" lon="9.366712882171166"><ele>257.0</ele><time>2026-04-23T16:21:23.999Z</time></trkpt><trkpt lat="44.99218362578703" lon="9.366752898802233"><ele>256.0</ele><time>2026-04-23T16:21:24.999Z</time></trkpt><trkpt lat="44.99226285039421" lon="9.366802580436314"><ele>255.99999999999997</ele><time>2026-04-23T16:21:25.999Z</time></trkpt><trkpt lat="44.9923433655473" lon="9.366856046870547"><ele>256.0</ele><time>2026-04-23T16:21:26.999Z</time></trkpt><trkpt lat="44.99242646265667" lon="9.366906521531366"><ele>256.0</ele><time>2026-04-23T16:21:27.999Z</time></trkpt><trkpt lat="44.99251165838865" lon="9.366954246232302"><ele>256.0</ele><time>2026-04-23T16:21:28.999Z</time></trkpt><trkpt lat="44.99259511990155" lon="9.366999857490988"><ele>255.99999999999997</ele><time>2026-04-23T16:21:29.999Z</time></trkpt><trkpt lat="44.99267868881644" lon="9.367040827095801"><ele>256.0</ele><time>2026-04-23T16:21:30.999Z</time></trkpt><trkpt lat="44.99276560873661" lon="9.367080974751257"><ele>254.83333333333331</ele><time>2026-04-23T16:21:31.999Z</time></trkpt><trkpt lat="44.9928522418117" lon="9.367111705687622"><ele>253.66666666666666</ele><time>2026-04-23T16:21:32.999Z</time></trkpt><trkpt lat="44.992939558575614" lon="9.367136499726683"><ele>252.5</ele><time>2026-04-23T16:21:33.999Z</time></trkpt><trkpt lat="44.99302623696842" lon="9.367157612996962"><ele>251.33333333333331</ele><time>2026-04-23T16:21:34.999Z</time></trkpt><trkpt lat="44.99310844899475" lon="9.367183087745516"><ele>250.16666666666666</ele><time>2026-04-23T16:21:35.999Z</time></trkpt><trkpt lat="44.99319694063051" lon="9.367196356217761"><ele>249.0</ele><time>2026-04-23T16:21:36.999Z</time></trkpt><trkpt lat="44.993282214574656" lon="9.367213223218874"><ele>248.16666666666666</ele><time>2026-04-23T16:21:37.999Z</time></trkpt><trkpt lat="44.99337092236784" lon="9.367232251929739"><ele>247.33333333333331</ele><time>2026-04-23T16:21:38.999Z</time></trkpt><trkpt lat="44.99345244967191" lon="9.367253221481201"><ele>246.5</ele><time>2026-04-23T16:21:39.999Z</time></trkpt><trkpt lat="44.993532144628105" lon="9.367268688944712"><ele>245.66666666666666</ele><time>2026-04-23T16:21:40.999Z</time></trkpt><trkpt lat="44.99361401171867" lon="9.367279436934902"><ele>244.83333333333331</ele><time>2026-04-23T16:21:41.999Z</time></trkpt><trkpt lat="44.99369536100541" lon="9.36729643673304"><ele>244.0</ele><time>2026-04-23T16:21:42.999Z</time></trkpt><trkpt lat="44.99376963665787" lon="9.367317869070494"><ele>243.99999999999997</ele><time>2026-04-23T16:21:43.999Z</time></trkpt><trkpt lat="44.993839471953045" lon="9.367341211475756"><ele>244.0</ele><time>2026-04-23T16:21:44.999Z</time></trkpt><trkpt lat="44.993905110966665" lon="9.367363661109943"><ele>244.0</ele><time>2026-04-23T16:21:45.999Z</time></trkpt><trkpt lat="44.9939743370626" lon="9.36739145326304"><ele>244.0</ele><time>2026-04-23T16:21:46.999Z</time></trkpt><trkpt lat="44.99403975870517" lon="9.36740403897581"><ele>243.99999999999997</ele><time>2026-04-23T16:21:47.999Z</time></trkpt><trkpt lat="44.994111255867686" lon="9.36741938307772"><ele>244.0</ele><time>2026-04-23T16:21:48.999Z</time></trkpt><trkpt lat="44.994233241816936" lon="9.367456706224047"><ele>242.71428571428567</ele><time>2026-04-23T16:21:50.999Z</time></trkpt><trkpt lat="44.99429789513681" lon="9.367478598385384"><ele>241.42857142857142</ele><time>2026-04-23T16:21:51.999Z</time></trkpt><trkpt lat="44.99436288444514" lon="9.367515575795665"><ele>240.1428571428571</ele><time>2026-04-23T16:21:52.999Z</time></trkpt><trkpt lat="44.99442685535278" lon="9.3675550970422"><ele>238.85714285714283</ele><time>2026-04-23T16:21:53.999Z</time></trkpt><trkpt lat="44.99448473777852" lon="9.367606281805962"><ele>237.57142857142856</ele><time>2026-04-23T16:21:54.999Z</time></trkpt><trkpt lat="44.994546826349925" lon="9.367651801624012"><ele>236.28571428571428</ele><time>2026-04-23T16:21:55.999Z</time></trkpt><trkpt lat="44.994611925043394" lon="9.367695275785893"><ele>235.0</ele><time>2026-04-23T16:21:56.999Z</time></trkpt><trkpt lat="44.99467541085432" lon="9.367743307057475"><ele>235.0</ele><time>2026-04-23T16:21:58Z</time></trkpt><trkpt lat="44.994739847186906" lon="9.367785005886349"><ele>234.99999999999997</ele><time>2026-04-23T16:21:59Z</time></trkpt><trkpt lat="44.994807343781446" lon="9.36781529467567"><ele>235.0</ele><time>2026-04-23T16:22:00Z</time></trkpt><trkpt lat="44.99487342241554" lon="9.367841635737408"><ele>235.0</ele><time>2026-04-23T16:22:01Z</time></trkpt><trkpt lat="44.994939592622046" lon="9.36786262442751"><ele>234.99999999999997</ele><time>2026-04-23T16:22:02Z</time></trkpt><trkpt lat="44.99500859929122" lon="9.367876876336478"><ele>235.0</ele><time>2026-04-23T16:22:03Z</time></trkpt><trkpt lat="44.99507461790457" lon="9.36789435580484"><ele>235.0</ele><time>2026-04-23T16:22:04Z</time></trkpt><trkpt lat="44.99514004130525" lon="9.367928707328288"><ele>234.0</ele><time>2026-04-23T16:22:05Z</time></trkpt><trkpt lat="44.995204051199586" lon="9.36794783151824"><ele>233.0</ele><time>2026-04-23T16:22:06Z</time></trkpt><trkpt lat="44.995317425710944" lon="9.367978877022535"><ele>232.0</ele><time>2026-04-23T16:22:08Z</time></trkpt><trkpt lat="44.99542840631397" lon="9.368002583975015"><ele>231.0</ele><time>2026-04-23T16:22:10Z</time></trkpt><trkpt lat="44.99550447445385" lon="9.368078531228804"><ele>230.0</ele><time>2026-04-23T16:22:12Z</time></trkpt><trkpt lat="44.99559048454289" lon="9.368153779668905"><ele>229.66666666666669</ele><time>2026-04-23T16:22:14Z</time></trkpt><trkpt lat="44.995694560197215" lon="9.368265666925181"><ele>229.33333333333334</ele><time>2026-04-23T16:22:16Z</time></trkpt><trkpt lat="44.99575487319907" lon="9.368312597485819"><ele>229.0</ele><time>2026-04-23T16:22:17Z</time></trkpt><trkpt lat="44.995816334329234" lon="9.368340003007594"><ele>228.66666666666669</ele><time>2026-04-23T16:22:18Z</time></trkpt><trkpt lat="44.99592442280746" lon="9.368408619654902"><ele>228.33333333333334</ele><time>2026-04-23T16:22:20Z</time></trkpt><trkpt lat="44.9959878920003" lon="9.368419118444633"><ele>228.0</ele><time>2026-04-23T16:22:21Z</time></trkpt><trkpt lat="44.99604620415995" lon="9.36845310373207"><ele>225.4</ele><time>2026-04-23T16:22:22Z</time></trkpt><trkpt lat="44.99616716909391" lon="9.368495795630974"><ele>222.8</ele><time>2026-04-23T16:22:24Z</time></trkpt><trkpt lat="44.99629398284324" lon="9.368508774613497"><ele>220.2</ele><time>2026-04-23T16:22:26Z</time></trkpt><trkpt lat="44.99635827174233" lon="9.368517649934125"><ele>217.6</ele><time>2026-04-23T16:22:27Z</time></trkpt><trkpt lat="44.99642331683925" lon="9.368533448424042"><ele>215.0</ele><time>2026-04-23T16:22:28Z</time></trkpt><trkpt lat="44.99649039965087" lon="9.36854405650962"><ele>215.00000000000003</ele><time>2026-04-23T16:22:29Z</time></trkpt><trkpt lat="44.99656715753208" lon="9.368553303414217"><ele>215.0</ele><time>2026-04-23T16:22:30Z</time></trkpt><trkpt lat="44.996651995055785" lon="9.368582757689808"><ele>215.0</ele><time>2026-04-23T16:22:31Z</time></trkpt><trkpt lat="44.99673802101482" lon="9.368588080300507"><ele>215.0</ele><time>2026-04-23T16:22:32Z</time></trkpt><trkpt lat="44.99681535233833" lon="9.368590720126505"><ele>215.00000000000003</ele><time>2026-04-23T16:22:33Z</time></trkpt><trkpt lat="44.99690631128291" lon="9.368593825153294"><ele>215.0</ele><time>2026-04-23T16:22:34Z</time></trkpt><trkpt lat="44.99699867109085" lon="9.368597956771946"><ele>213.2</ele><time>2026-04-23T16:22:35Z</time></trkpt><trkpt lat="44.997080756957374" lon="9.368592891244978"><ele>211.4</ele><time>2026-04-23T16:22:36Z</time></trkpt><trkpt lat="44.997155153060376" lon="9.368654478015813"><ele>209.60000000000002</ele><time>2026-04-23T16:22:37Z</time></trkpt><trkpt lat="44.99721920493892" lon="9.368716405849876"><ele>207.8</ele><time>2026-04-23T16:22:38Z</time></trkpt><trkpt lat="44.99730612947532" lon="9.368792815304216"><ele>206.0</ele><time>2026-04-23T16:22:39Z</time></trkpt><trkpt lat="44.99740902052859" lon="9.36888646739121"><ele>203.25</ele><time>2026-04-23T16:22:40Z</time></trkpt><trkpt lat="44.99752153140957" lon="9.3689671006314"><ele>200.5</ele><time>2026-04-23T16:22:41Z</time></trkpt><trkpt lat="44.997619414412505" lon="9.369066045379832"><ele>197.75</ele><time>2026-04-23T16:22:42Z</time></trkpt><trkpt lat="44.997715467091844" lon="9.369149533620863"><ele>195.0</ele><time>2026-04-23T16:22:43Z</time></trkpt><trkpt lat="44.99780321666086" lon="9.36922975819564"><ele>195.0</ele><time>2026-04-23T16:22:44Z</time></trkpt><trkpt lat="44.99789548207456" lon="9.369313585518631"><ele>195.0</ele><time>2026-04-23T16:22:45Z</time></trkpt><trkpt lat="44.99799596713965" lon="9.369400847345815"><ele>195.0</ele><time>2026-04-23T16:22:46Z</time></trkpt><trkpt lat="44.99810344028604" lon="9.36949382161253"><ele>195.0</ele><time>2026-04-23T16:22:47Z</time></trkpt><trkpt lat="44.99819881268057" lon="9.369606464355915"><ele>194.25</ele><time>2026-04-23T16:22:48Z</time></trkpt><trkpt lat="44.99829391253694" lon="9.369705883495675"><ele>193.5</ele><time>2026-04-23T16:22:49Z</time></trkpt><trkpt lat="44.99840069512558" lon="9.369794500691606"><ele>192.75</ele><time>2026-04-23T16:22:50Z</time></trkpt><trkpt lat="44.998502540903495" lon="9.369915581261385"><ele>192.0</ele><time>2026-04-23T16:22:51Z</time></trkpt><trkpt lat="44.99863326699181" lon="9.370031264528702"><ele>190.0</ele><time>2026-04-23T16:22:52Z</time></trkpt><trkpt lat="44.998745645875196" lon="9.37015161965404"><ele>188.0</ele><time>2026-04-23T16:22:53Z</time></trkpt><trkpt lat="44.99886094739279" lon="9.370229078973802"><ele>186.0</ele><time>2026-04-23T16:22:54Z</time></trkpt><trkpt lat="44.99896503940262" lon="9.370332328347462"><ele>184.0</ele><time>2026-04-23T16:22:54.999Z</time></trkpt><trkpt lat="44.99908519486335" lon="9.370423711756269"><ele>182.5</ele><time>2026-04-23T16:22:55.999Z</time></trkpt><trkpt lat="44.999203464317645" lon="9.370527544896223"><ele>181.0</ele><time>2026-04-23T16:22:56.999Z</time></trkpt><trkpt lat="44.999322487272465" lon="9.370610456395756"><ele>179.5</ele><time>2026-04-23T16:22:57.999Z</time></trkpt><trkpt lat="44.999435591478665" lon="9.370683840305965"><ele>178.0</ele><time>2026-04-23T16:22:58.999Z</time></trkpt><trkpt lat="44.99952797270353" lon="9.370748024438818"><ele>178.0</ele><time>2026-04-23T16:22:59.999Z</time></trkpt><trkpt lat="44.999617951513684" lon="9.370801361191775"><ele>178.0</ele><time>2026-04-23T16:23:00.999Z</time></trkpt><trkpt lat="44.999698538545275" lon="9.370879167595282"><ele>178.0</ele><time>2026-04-23T16:23:01.999Z</time></trkpt><trkpt lat="44.9998065907838" lon="9.370931700246736"><ele>178.0</ele><time>2026-04-23T16:23:02.999Z</time></trkpt><trkpt lat="44.9998979337029" lon="9.37101632487662"><ele>178.0</ele><time>2026-04-23T16:23:03.999Z</time></trkpt><trkpt lat="45.000011507666585" lon="9.371051451880481"><ele>178.0</ele><time>2026-04-23T16:23:04.999Z</time></trkpt><trkpt lat="45.00010393414923" lon="9.371120558358138"><ele>178.0</ele><time>2026-04-23T16:23:05.999Z</time></trkpt><trkpt lat="45.00018301833948" lon="9.371173746121096"><ele>178.0</ele><time>2026-04-23T16:23:06.999Z</time></trkpt><trkpt lat="45.000239395243426" lon="9.371238481525566"><ele>178.0</ele><time>2026-04-23T16:23:07.999Z</time></trkpt><trkpt lat="45.00028491181509" lon="9.371374693559094"><ele>178.0</ele><time>2026-04-23T16:23:09.999Z</time></trkpt><trkpt lat="45.000290531911645" lon="9.371480054180198"><ele>178.0</ele><time>2026-04-23T16:23:10.999Z</time></trkpt><trkpt lat="45.00028484886185" lon="9.371617755955356"><ele>178.0</ele><time>2026-04-23T16:23:11.999Z</time></trkpt><trkpt lat="45.000289649578356" lon="9.371755276511257"><ele>178.0</ele><time>2026-04-23T16:23:12.999Z</time></trkpt><trkpt lat="45.00029587671799" lon="9.371903951790953"><ele>178.0</ele><time>2026-04-23T16:23:13.999Z</time></trkpt><trkpt lat="45.000309366978435" lon="9.372065740762723"><ele>178.0</ele><time>2026-04-23T16:23:14.999Z</time></trkpt><trkpt lat="45.00033972113961" lon="9.372223732469315"><ele>178.0</ele><time>2026-04-23T16:23:15.999Z</time></trkpt><trkpt lat="45.000394835104956" lon="9.372416830127491"><ele>178.8</ele><time>2026-04-23T16:23:16.999Z</time></trkpt><trkpt lat="45.00044998854191" lon="9.37262376894641"><ele>179.60000000000002</ele><time>2026-04-23T16:23:17.999Z</time></trkpt><trkpt lat="45.000480025383325" lon="9.372770366499163"><ele>180.39999999999998</ele><time>2026-04-23T16:23:18.999Z</time></trkpt><trkpt lat="45.00049461686752" lon="9.372876210914947"><ele>181.2</ele><time>2026-04-23T16:23:19.999Z</time></trkpt><trkpt lat="45.00048572855786" lon="9.372989283767112"><ele>182.0</ele><time>2026-04-23T16:23:20.999Z</time></trkpt><trkpt lat="45.000471871077146" lon="9.373111364704295"><ele>183.0</ele><time>2026-04-23T16:23:21.999Z</time></trkpt><trkpt lat="45.00044331166214" lon="9.373246480103859"><ele>184.0</ele><time>2026-04-23T16:23:23.999Z</time></trkpt><trkpt lat="45.00043407828362" lon="9.373390491698443"><ele>185.0</ele><time>2026-04-23T16:23:25.999Z</time></trkpt><trkpt lat="45.00042559972058" lon="9.373485607106653"><ele>186.0</ele><time>2026-04-23T16:23:26.999Z</time></trkpt><trkpt lat="45.00041415673077" lon="9.373619990134445"><ele>187.0</ele><time>2026-04-23T16:23:27.999Z</time></trkpt><trkpt lat="45.00039890139959" lon="9.373750956499228"><ele>188.25</ele><time>2026-04-23T16:23:28.999Z</time></trkpt><trkpt lat="45.00038861531378" lon="9.373917373962636"><ele>189.5</ele><time>2026-04-23T16:23:29.999Z</time></trkpt><trkpt lat="45.000386635001036" lon="9.374097721175044"><ele>190.75</ele><time>2026-04-23T16:23:30.999Z</time></trkpt><trkpt lat="45.000387365805196" lon="9.37427727831417"><ele>192.0</ele><time>2026-04-23T16:23:31.999Z</time></trkpt><trkpt lat="45.00038344089112" lon="9.374446114046881"><ele>192.0</ele><time>2026-04-23T16:23:32.999Z</time></trkpt><trkpt lat="45.000377652718655" lon="9.374612057710484"><ele>192.0</ele><time>2026-04-23T16:23:33.999Z</time></trkpt><trkpt lat="45.000366451023396" lon="9.374779368006505"><ele>192.0</ele><time>2026-04-23T16:23:34.999Z</time></trkpt><trkpt lat="45.00034922566393" lon="9.374944253952638"><ele>192.0</ele><time>2026-04-23T16:23:35.999Z</time></trkpt><trkpt lat="45.00034169322134" lon="9.37510332079085"><ele>194.0</ele><time>2026-04-23T16:23:36.999Z</time></trkpt><trkpt lat="45.00033602461997" lon="9.375259079615843"><ele>196.0</ele><time>2026-04-23T16:23:37.999Z</time></trkpt><trkpt lat="45.00033710416588" lon="9.37542660654429"><ele>198.0</ele><time>2026-04-23T16:23:38.999Z</time></trkpt><trkpt lat="45.00034745512596" lon="9.3756020841601"><ele>200.0</ele><time>2026-04-23T16:23:39.999Z</time></trkpt><trkpt lat="45.00033556628711" lon="9.375743438084214"><ele>201.8</ele><time>2026-04-23T16:23:40.999Z</time></trkpt><trkpt lat="45.000337829697166" lon="9.375895690123341"><ele>203.6</ele><time>2026-04-23T16:23:41.999Z</time></trkpt><trkpt lat="45.000340887267306" lon="9.376041422680988"><ele>205.39999999999998</ele><time>2026-04-23T16:23:42.999Z</time></trkpt><trkpt lat="45.000328958127035" lon="9.376141413270362"><ele>207.2</ele><time>2026-04-23T16:23:43.999Z</time></trkpt><trkpt lat="45.00027927710986" lon="9.376303938265483"><ele>209.0</ele><time>2026-04-23T16:23:45.999Z</time></trkpt><trkpt lat="45.000226107318774" lon="9.37638058584803"><ele>210.00000000000003</ele><time>2026-04-23T16:23:46.999Z</time></trkpt><trkpt lat="45.00015720082899" lon="9.37647344977043"><ele>211.0</ele><time>2026-04-23T16:23:47.999Z</time></trkpt><trkpt lat="45.00007268917501" lon="9.376574710826453"><ele>212.0</ele><time>2026-04-23T16:23:48.999Z</time></trkpt><trkpt lat="45.00001502892815" lon="9.376657340051873"><ele>213.0</ele><time>2026-04-23T16:23:49.999Z</time></trkpt><trkpt lat="44.99997245973497" lon="9.376731276402994"><ele>214.00000000000003</ele><time>2026-04-23T16:23:50.999Z</time></trkpt><trkpt lat="44.99998915116773" lon="9.376832721032045"><ele>215.0</ele><time>2026-04-23T16:23:52.999Z</time></trkpt><trkpt lat="45.00008679551503" lon="9.376849935344476"><ele>215.0</ele><time>2026-04-23T16:23:54.999Z</time></trkpt><trkpt lat="45.00015837375855" lon="9.376867698169905"><ele>215.0</ele><time>2026-04-23T16:23:55.999Z</time></trkpt><trkpt lat="45.000262796381136" lon="9.376893610043853"><ele>215.0</ele><time>2026-04-23T16:23:56.999Z</time></trkpt><trkpt lat="45.0003564658988" lon="9.376930567585873"><ele>215.0</ele><time>2026-04-23T16:23:57.999Z</time></trkpt><trkpt lat="45.00044376630965" lon="9.376965260870415"><ele>215.0</ele><time>2026-04-23T16:23:58.999Z</time></trkpt><trkpt lat="45.00053080486195" lon="9.376997763315334"><ele>215.0</ele><time>2026-04-23T16:23:59.999Z</time></trkpt><trkpt lat="45.00061535230367" lon="9.37705303111478"><ele>215.0</ele><time>2026-04-23T16:24:00.999Z</time></trkpt><trkpt lat="45.00070262952097" lon="9.377100326421084"><ele>215.0</ele><time>2026-04-23T16:24:01.999Z</time></trkpt><trkpt lat="45.000783859441285" lon="9.377134845442903"><ele>215.0</ele><time>2026-04-23T16:24:02.999Z</time></trkpt><trkpt lat="45.00086521841547" lon="9.377182361047543"><ele>215.0</ele><time>2026-04-23T16:24:04Z</time></trkpt><trkpt lat="45.00095417237471" lon="9.377225545040217"><ele>215.50000000000003</ele><time>2026-04-23T16:24:05Z</time></trkpt><trkpt lat="45.00104646244759" lon="9.377261399106386"><ele>216.0</ele><time>2026-04-23T16:24:06Z</time></trkpt><trkpt lat="45.001131250701505" lon="9.377289505111198"><ele>216.5</ele><time>2026-04-23T16:24:07Z</time></trkpt><trkpt lat="45.00120923517125" lon="9.37733072662787"><ele>217.0</ele><time>2026-04-23T16:24:08Z</time></trkpt><trkpt lat="45.0012883676694" lon="9.377370683311094"><ele>217.50000000000003</ele><time>2026-04-23T16:24:09Z</time></trkpt><trkpt lat="45.00137693730223" lon="9.37741100380417"><ele>218.0</ele><time>2026-04-23T16:24:10Z</time></trkpt><trkpt lat="45.001479587474506" lon="9.377464596080207"><ele>218.00000000000003</ele><time>2026-04-23T16:24:11Z</time></trkpt><trkpt lat="45.00157196224617" lon="9.377516466978822"><ele>218.0</ele><time>2026-04-23T16:24:12Z</time></trkpt><trkpt lat="45.00164548063629" lon="9.377545125310219"><ele>218.0</ele><time>2026-04-23T16:24:13Z</time></trkpt><trkpt lat="45.00172328824392" lon="9.377579431414107"><ele>218.0</ele><time>2026-04-23T16:24:14Z</time></trkpt><trkpt lat="45.00180907793065" lon="9.377614256838728"><ele>218.00000000000003</ele><time>2026-04-23T16:24:15Z</time></trkpt><trkpt lat="45.001888923146296" lon="9.377629089097006"><ele>218.0</ele><time>2026-04-23T16:24:16Z</time></trkpt><trkpt lat="45.0019591672957" lon="9.377679977680906"><ele>217.50000000000003</ele><time>2026-04-23T16:24:17Z</time></trkpt><trkpt lat="45.00202593299727" lon="9.37771682270268"><ele>217.0</ele><time>2026-04-23T16:24:18Z</time></trkpt><trkpt lat="45.00208444935747" lon="9.377760061153142"><ele>216.5</ele><time>2026-04-23T16:24:19Z</time></trkpt><trkpt lat="45.00213537799686" lon="9.377823256737152"><ele>216.0</ele><time>2026-04-23T16:24:20Z</time></trkpt><trkpt lat="45.00219844175973" lon="9.377922731547462"><ele>215.50000000000003</ele><time>2026-04-23T16:24:21Z</time></trkpt><trkpt lat="45.002261759734765" lon="9.37803696244632"><ele>215.0</ele><time>2026-04-23T16:24:22Z</time></trkpt><trkpt lat="45.002335568003524" lon="9.37813264982169"><ele>216.16666666666669</ele><time>2026-04-23T16:24:23Z</time></trkpt><trkpt lat="45.002393714169706" lon="9.378187880193055"><ele>217.33333333333334</ele><time>2026-04-23T16:24:24Z</time></trkpt><trkpt lat="45.00243497756796" lon="9.378288203542313"><ele>218.5</ele><time>2026-04-23T16:24:26Z</time></trkpt><trkpt lat="45.00242045597899" lon="9.3783780096472"><ele>219.66666666666669</ele><time>2026-04-23T16:24:27Z</time></trkpt><trkpt lat="45.002399960483" lon="9.378470460036727"><ele>220.83333333333334</ele><time>2026-04-23T16:24:28Z</time></trkpt><trkpt lat="45.002386855944245" lon="9.37858319134581"><ele>222.0</ele><time>2026-04-23T16:24:29Z</time></trkpt><trkpt lat="45.0023654934494" lon="9.37871569740935"><ele>223.25</ele><time>2026-04-23T16:24:30Z</time></trkpt><trkpt lat="45.0023477462423" lon="9.378883545080246"><ele>224.5</ele><time>2026-04-23T16:24:31Z</time></trkpt><trkpt lat="45.002324597009256" lon="9.379058303376436"><ele>225.75</ele><time>2026-04-23T16:24:32Z</time></trkpt><trkpt lat="45.0023059849987" lon="9.379254634528658"><ele>227.0</ele><time>2026-04-23T16:24:33Z</time></trkpt><trkpt lat="45.00228983414326" lon="9.379433460053614"><ele>227.0</ele><time>2026-04-23T16:24:34Z</time></trkpt><trkpt lat="45.002277545451946" lon="9.379549321380791"><ele>227.0</ele><time>2026-04-23T16:24:35Z</time></trkpt><trkpt lat="45.002235853579066" lon="9.379740033866776"><ele>227.0</ele><time>2026-04-23T16:24:37Z</time></trkpt><trkpt lat="45.00219970276999" lon="9.379873534623355"><ele>227.0</ele><time>2026-04-23T16:24:38Z</time></trkpt><trkpt lat="45.00215982441956" lon="9.380034312246169"><ele>227.0</ele><time>2026-04-23T16:24:39Z</time></trkpt><trkpt lat="45.00212584927748" lon="9.38020300437493"><ele>228.2</ele><time>2026-04-23T16:24:40Z</time></trkpt><trkpt lat="45.00208800851348" lon="9.38036782032396"><ele>229.39999999999998</ele><time>2026-04-23T16:24:41Z</time></trkpt><trkpt lat="45.00205602778954" lon="9.380497732189406"><ele>230.60000000000002</ele><time>2026-04-23T16:24:42Z</time></trkpt><trkpt lat="45.00202237666793" lon="9.38064515634753"><ele>231.8</ele><time>2026-04-23T16:24:43Z</time></trkpt><trkpt lat="45.00199892541141" lon="9.380760896508184"><ele>233.0</ele><time>2026-04-23T16:24:44Z</time></trkpt><trkpt lat="45.001978488509955" lon="9.380867142582797"><ele>234.50000000000003</ele><time>2026-04-23T16:24:45Z</time></trkpt><trkpt lat="45.00195677686537" lon="9.380977203805791"><ele>236.0</ele><time>2026-04-23T16:24:46Z</time></trkpt><trkpt lat="45.00192373066011" lon="9.381072821920158"><ele>237.5</ele><time>2026-04-23T16:24:47Z</time></trkpt><trkpt lat="45.00185694016874" lon="9.381211380964592"><ele>239.0</ele><time>2026-04-23T16:24:49Z</time></trkpt><trkpt lat="45.00183796474956" lon="9.381327887238337"><ele>240.50000000000003</ele><time>2026-04-23T16:24:51Z</time></trkpt><trkpt lat="45.00190709702683" lon="9.381390238281053"><ele>242.0</ele><time>2026-04-23T16:24:54Z</time></trkpt><trkpt lat="45.001970604837" lon="9.381391636722313"><ele>242.0</ele><time>2026-04-23T16:24:55Z</time></trkpt><trkpt lat="45.002043414423575" lon="9.381338490837908"><ele>242.0</ele><time>2026-04-23T16:24:56Z</time></trkpt><trkpt lat="45.002138324212346" lon="9.381288696843752"><ele>242.0</ele><time>2026-04-23T16:24:57Z</time></trkpt><trkpt lat="45.002244434056436" lon="9.381247636679023"><ele>242.0</ele><time>2026-04-23T16:24:58Z</time></trkpt><trkpt lat="45.00236735205775" lon="9.381218633813383"><ele>242.0</ele><time>2026-04-23T16:24:59Z</time></trkpt><trkpt lat="45.00250978167818" lon="9.381176373670298"><ele>240.0</ele><time>2026-04-23T16:25:00Z</time></trkpt><trkpt lat="45.00265574894558" lon="9.381107996315437"><ele>238.0</ele><time>2026-04-23T16:25:01Z</time></trkpt><trkpt lat="45.002819459511755" lon="9.381026260641793"><ele>236.0</ele><time>2026-04-23T16:25:02Z</time></trkpt><trkpt lat="45.00297773933637" lon="9.380940287121923"><ele>236.0</ele><time>2026-04-23T16:25:03Z</time></trkpt><trkpt lat="45.00312949299867" lon="9.380860503325973"><ele>236.0</ele><time>2026-04-23T16:25:03.999Z</time></trkpt><trkpt lat="45.00327797192912" lon="9.380822012743725"><ele>236.0</ele><time>2026-04-23T16:25:04.999Z</time></trkpt><trkpt lat="45.00341206154525" lon="9.380797472402262"><ele>236.0</ele><time>2026-04-23T16:25:05.999Z</time></trkpt><trkpt lat="45.0035428107529" lon="9.380800319045543"><ele>235.5</ele><time>2026-04-23T16:25:06.999Z</time></trkpt><trkpt lat="45.00367277347108" lon="9.380810218269083"><ele>235.0</ele><time>2026-04-23T16:25:07.999Z</time></trkpt><trkpt lat="45.003805235206265" lon="9.380871177324906"><ele>234.5</ele><time>2026-04-23T16:25:08.999Z</time></trkpt><trkpt lat="45.00393429431527" lon="9.380933853631626"><ele>234.0</ele><time>2026-04-23T16:25:09.999Z</time></trkpt><trkpt lat="45.00406044825172" lon="9.380992559038697"><ele>233.25</ele><time>2026-04-23T16:25:10.999Z</time></trkpt><trkpt lat="45.004182117547856" lon="9.381063845024784"><ele>232.5</ele><time>2026-04-23T16:25:11.999Z</time></trkpt><trkpt lat="45.00430659695963" lon="9.381107832271596"><ele>231.75</ele><time>2026-04-23T16:25:12.999Z</time></trkpt><trkpt lat="45.004426352059745" lon="9.381166978765659"><ele>231.0</ele><time>2026-04-23T16:25:13.999Z</time></trkpt><trkpt lat="45.004541429651844" lon="9.381224359962388"><ele>231.0</ele><time>2026-04-23T16:25:14.999Z</time></trkpt><trkpt lat="45.00464319229473" lon="9.381288043318948"><ele>231.00000000000003</ele><time>2026-04-23T16:25:15.999Z</time></trkpt><trkpt lat="45.00473215894374" lon="9.38134737847941"><ele>231.00000000000003</ele><time>2026-04-23T16:25:16.999Z</time></trkpt><trkpt lat="45.004820074114505" lon="9.38139457168388"><ele>231.0</ele><time>2026-04-23T16:25:17.999Z</time></trkpt><trkpt lat="45.00491944988889" lon="9.381385706280305"><ele>231.0</ele><time>2026-04-23T16:25:18.999Z</time></trkpt><trkpt lat="45.00501974808337" lon="9.381366191991242"><ele>230.25</ele><time>2026-04-23T16:25:19.999Z</time></trkpt><trkpt lat="45.00511439564363" lon="9.381356562461503"><ele>229.5</ele><time>2026-04-23T16:25:20.999Z</time></trkpt><trkpt lat="45.00527882620404" lon="9.381438878109032"><ele>228.75</ele><time>2026-04-23T16:25:22.999Z</time></trkpt><trkpt lat="45.00537125876471" lon="9.381517113612308"><ele>228.0</ele><time>2026-04-23T16:25:23.999Z</time></trkpt><trkpt lat="45.005455661999285" lon="9.38160892824797"><ele>228.0</ele><time>2026-04-23T16:25:24.999Z</time></trkpt><trkpt lat="45.00553712890576" lon="9.38171311694162"><ele>228.0</ele><time>2026-04-23T16:25:25.999Z</time></trkpt><trkpt lat="45.00562251703147" lon="9.381807422592509"><ele>228.0</ele><time>2026-04-23T16:25:26.999Z</time></trkpt><trkpt lat="45.00569768066457" lon="9.381932821212999"><ele>228.0</ele><time>2026-04-23T16:25:27.999Z</time></trkpt><trkpt lat="45.005778337575016" lon="9.382060497249576"><ele>225.0</ele><time>2026-04-23T16:25:28.999Z</time></trkpt><trkpt lat="45.00585367921899" lon="9.382192810854637"><ele>222.0</ele><time>2026-04-23T16:25:29.999Z</time></trkpt><trkpt lat="45.0059285518425" lon="9.3823288156828"><ele>219.0</ele><time>2026-04-23T16:25:30.999Z</time></trkpt><trkpt lat="45.00599893965627" lon="9.38246832801337"><ele>216.0</ele><time>2026-04-23T16:25:31.999Z</time></trkpt><trkpt lat="45.00607683692867" lon="9.38261460098845"><ele>216.0</ele><time>2026-04-23T16:25:32.999Z</time></trkpt><trkpt lat="45.006146728612975" lon="9.382744631561724"><ele>216.0</ele><time>2026-04-23T16:25:33.999Z</time></trkpt><trkpt lat="45.00621801639268" lon="9.382880650474986"><ele>216.0</ele><time>2026-04-23T16:25:34.999Z</time></trkpt><trkpt lat="45.006279659067744" lon="9.383009774441941"><ele>216.0</ele><time>2026-04-23T16:25:35.999Z</time></trkpt><trkpt lat="45.006334794567465" lon="9.383162067750938"><ele>214.60000000000002</ele><time>2026-04-23T16:25:36.999Z</time></trkpt><trkpt lat="45.00639275194368" lon="9.383286429574794"><ele>213.20000000000002</ele><time>2026-04-23T16:25:37.999Z</time></trkpt><trkpt lat="45.00645241142455" lon="9.383408953069617"><ele>211.8</ele><time>2026-04-23T16:25:38.999Z</time></trkpt><trkpt lat="45.00652036740535" lon="9.383515450518445"><ele>210.39999999999998</ele><time>2026-04-23T16:25:39.999Z</time></trkpt><trkpt lat="45.00657277252126" lon="9.383614963975573"><ele>209.0</ele><time>2026-04-23T16:25:40.999Z</time></trkpt><trkpt lat="45.006637779351664" lon="9.383724740223931"><ele>209.00000000000003</ele><time>2026-04-23T16:25:41.999Z</time></trkpt><trkpt lat="45.00669835546185" lon="9.383819024790016"><ele>209.0</ele><time>2026-04-23T16:25:42.999Z</time></trkpt><trkpt lat="45.006759518587245" lon="9.383912606562294"><ele>209.0</ele><time>2026-04-23T16:25:43.999Z</time></trkpt><trkpt lat="45.00681685290326" lon="9.383992796276276"><ele>209.0</ele><time>2026-04-23T16:25:44.999Z</time></trkpt><trkpt lat="45.006877161518716" lon="9.384058888009537"><ele>209.00000000000003</ele><time>2026-04-23T16:25:45.999Z</time></trkpt><trkpt lat="45.00692147553391" lon="9.384146661930222"><ele>209.0</ele><time>2026-04-23T16:25:46.999Z</time></trkpt><trkpt lat="45.00696387318155" lon="9.384217432577392"><ele>209.0</ele><time>2026-04-23T16:25:47.999Z</time></trkpt><trkpt lat="45.00700143691548" lon="9.384292690050438"><ele>209.0</ele><time>2026-04-23T16:25:48.999Z</time></trkpt><trkpt lat="45.00705258207319" lon="9.384365315422286"><ele>209.0</ele><time>2026-04-23T16:25:49.999Z</time></trkpt><trkpt lat="45.00708480170654" lon="9.384446607247778"><ele>209.0</ele><time>2026-04-23T16:25:50.999Z</time></trkpt><trkpt lat="45.00710273712941" lon="9.384537619575182"><ele>209.0</ele><time>2026-04-23T16:25:51.999Z</time></trkpt><trkpt lat="45.00713292573515" lon="9.384625839579176"><ele>209.0</ele><time>2026-04-23T16:25:52.999Z</time></trkpt><trkpt lat="45.007176251812815" lon="9.384712322536034"><ele>209.0</ele><time>2026-04-23T16:25:53.999Z</time></trkpt><trkpt lat="45.007194035030714" lon="9.384833630116155"><ele>207.85714285714286</ele><time>2026-04-23T16:25:54.999Z</time></trkpt><trkpt lat="45.007211134259606" lon="9.38492379717155"><ele>206.71428571428572</ele><time>2026-04-23T16:25:55.999Z</time></trkpt><trkpt lat="45.00723379956331" lon="9.385028967810834"><ele>205.57142857142856</ele><time>2026-04-23T16:25:56.999Z</time></trkpt><trkpt lat="45.00725478947489" lon="9.385126364994337"><ele>204.42857142857144</ele><time>2026-04-23T16:25:57.999Z</time></trkpt><trkpt lat="45.00727844225039" lon="9.385223199344132"><ele>203.2857142857143</ele><time>2026-04-23T16:25:58.999Z</time></trkpt><trkpt lat="45.00730259798492" lon="9.385319503489168"><ele>202.14285714285714</ele><time>2026-04-23T16:25:59.999Z</time></trkpt><trkpt lat="45.007344144505346" lon="9.385424556191213"><ele>201.0</ele><time>2026-04-23T16:26:00.999Z</time></trkpt><trkpt lat="45.007384718731366" lon="9.385595158184083"><ele>200.60000000000002</ele><time>2026-04-23T16:26:02.999Z</time></trkpt><trkpt lat="45.00742419036672" lon="9.385726048355293"><ele>200.2</ele><time>2026-04-23T16:26:04.999Z</time></trkpt><trkpt lat="45.007462097886" lon="9.385874732172022"><ele>199.8</ele><time>2026-04-23T16:26:06.999Z</time></trkpt><trkpt lat="45.00749715045482" lon="9.386030345771722"><ele>199.39999999999998</ele><time>2026-04-23T16:26:08.999Z</time></trkpt><trkpt lat="45.00752701029134" lon="9.386188418282105"><ele>199.0</ele><time>2026-04-23T16:26:11Z</time></trkpt><trkpt lat="45.00757194622757" lon="9.386328883668332"><ele>198.0</ele><time>2026-04-23T16:26:13Z</time></trkpt><trkpt lat="45.007612961228" lon="9.386444428668158"><ele>197.0</ele><time>2026-04-23T16:26:15Z</time></trkpt><trkpt lat="45.00764624819551" lon="9.386541383370416"><ele>196.0</ele><time>2026-04-23T16:26:17Z</time></trkpt><trkpt lat="45.00768842256716" lon="9.386632284052748"><ele>195.0</ele><time>2026-04-23T16:26:19Z</time></trkpt><trkpt lat="45.00773561080142" lon="9.386745717146258"><ele>194.0</ele><time>2026-04-23T16:26:21Z</time></trkpt><trkpt lat="45.007794647880274" lon="9.38688730599863"><ele>194.0</ele><time>2026-04-23T16:26:23Z</time></trkpt><trkpt lat="45.0078863291708" lon="9.386972472408335"><ele>194.0</ele><time>2026-04-23T16:26:25Z</time></trkpt><trkpt lat="45.00793242759916" lon="9.38709680623592"><ele>194.0</ele><time>2026-04-23T16:26:27Z</time></trkpt><trkpt lat="45.00796399606453" lon="9.387182421577583"><ele>194.0</ele><time>2026-04-23T16:26:28Z</time></trkpt><trkpt lat="45.008013699395065" lon="9.387302897533809"><ele>194.0</ele><time>2026-04-23T16:26:29Z</time></trkpt><trkpt lat="45.00806534429335" lon="9.387424703271073"><ele>192.79999999999998</ele><time>2026-04-23T16:26:30Z</time></trkpt><trkpt lat="45.008120840564" lon="9.387545214313938"><ele>191.6</ele><time>2026-04-23T16:26:31Z</time></trkpt><trkpt lat="45.008178389924275" lon="9.38766493523415"><ele>190.4</ele><time>2026-04-23T16:26:32Z</time></trkpt><trkpt lat="45.00823453404111" lon="9.387781594391297"><ele>189.2</ele><time>2026-04-23T16:26:33Z</time></trkpt><trkpt lat="45.00827202769739" lon="9.387889388943117"><ele>188.0</ele><time>2026-04-23T16:26:34Z</time></trkpt><trkpt lat="45.00831455518698" lon="9.387983259479975"><ele>191.0</ele><time>2026-04-23T16:26:35Z</time></trkpt><trkpt lat="45.00836763551504" lon="9.388088430330594"><ele>194.0</ele><time>2026-04-23T16:26:36Z</time></trkpt><trkpt lat="45.00842294923694" lon="9.38818570001456"><ele>197.0</ele><time>2026-04-23T16:26:37Z</time></trkpt><trkpt lat="45.00847851613871" lon="9.388287256748628"><ele>200.0</ele><time>2026-04-23T16:26:38Z</time></trkpt><trkpt lat="45.00854785416062" lon="9.388395190861939"><ele>203.0</ele><time>2026-04-23T16:26:39Z</time></trkpt><trkpt lat="45.008597056520905" lon="9.388502520656912"><ele>203.0</ele><time>2026-04-23T16:26:40Z</time></trkpt><trkpt lat="45.00864254532426" lon="9.388584453941201"><ele>203.0</ele><time>2026-04-23T16:26:41Z</time></trkpt><trkpt lat="45.008635902122435" lon="9.38874694861546"><ele>203.0</ele><time>2026-04-23T16:26:44Z</time></trkpt><trkpt lat="45.00866212287585" lon="9.388863627666892"><ele>203.0</ele><time>2026-04-23T16:26:46Z</time></trkpt><trkpt lat="45.00864155306904" lon="9.389033733455545"><ele>203.0</ele><time>2026-04-23T16:26:49Z</time></trkpt><trkpt lat="45.00862146910839" lon="9.389177451826892"><ele>203.16666666666669</ele><time>2026-04-23T16:26:50Z</time></trkpt><trkpt lat="45.00862541759607" lon="9.38928671827195"><ele>203.33333333333334</ele><time>2026-04-23T16:26:51Z</time></trkpt><trkpt lat="45.008620237092394" lon="9.38939005285732"><ele>203.5</ele><time>2026-04-23T16:26:52Z</time></trkpt><trkpt lat="45.00860769205999" lon="9.38948054075584"><ele>203.66666666666669</ele><time>2026-04-23T16:26:53Z</time></trkpt><trkpt lat="45.008596843763925" lon="9.389575390250606"><ele>203.83333333333334</ele><time>2026-04-23T16:26:54Z</time></trkpt><trkpt lat="45.00858689372148" lon="9.389749834103442"><ele>204.0</ele><time>2026-04-23T16:26:56Z</time></trkpt><trkpt lat="45.00857395145987" lon="9.38992206321588"><ele>203.42857142857144</ele><time>2026-04-23T16:26:58Z</time></trkpt><trkpt lat="45.008579585968754" lon="9.39001236964011"><ele>202.85714285714286</ele><time>2026-04-23T16:26:59Z</time></trkpt><trkpt lat="45.00856692376715" lon="9.390106400396224"><ele>202.28571428571428</ele><time>2026-04-23T16:27:00Z</time></trkpt><trkpt lat="45.008551386243305" lon="9.390199902089414"><ele>201.71428571428572</ele><time>2026-04-23T16:27:01Z</time></trkpt><trkpt lat="45.008527147435615" lon="9.39028542301189"><ele>201.14285714285714</ele><time>2026-04-23T16:27:02Z</time></trkpt><trkpt lat="45.00851827751682" lon="9.390374470567666"><ele>200.57142857142858</ele><time>2026-04-23T16:27:03Z</time></trkpt><trkpt lat="45.008500483093876" lon="9.390537856599225"><ele>200.0</ele><time>2026-04-23T16:27:05Z</time></trkpt><trkpt lat="45.00850405285081" lon="9.390678654639242"><ele>198.4</ele><time>2026-04-23T16:27:07Z</time></trkpt><trkpt lat="45.00853783717956" lon="9.39084931248064"><ele>196.8</ele><time>2026-04-23T16:27:09Z</time></trkpt><trkpt lat="45.00856715328752" lon="9.390945022500789"><ele>195.2</ele><time>2026-04-23T16:27:10Z</time></trkpt><trkpt lat="45.008609354459416" lon="9.39103547261015"><ele>193.6</ele><time>2026-04-23T16:27:11Z</time></trkpt><trkpt lat="45.00868579770754" lon="9.391162241993612"><ele>192.0</ele><time>2026-04-23T16:27:12Z</time></trkpt><trkpt lat="45.00875618532835" lon="9.391249759303657"><ele>192.0</ele><time>2026-04-23T16:27:13Z</time></trkpt><trkpt lat="45.00879608135134" lon="9.391327545048867"><ele>192.0</ele><time>2026-04-23T16:27:13.999Z</time></trkpt><trkpt lat="45.00886007232971" lon="9.391484111830064"><ele>192.0</ele><time>2026-04-23T16:27:15.999Z</time></trkpt><trkpt lat="45.00888720365999" lon="9.39157863698014"><ele>192.0</ele><time>2026-04-23T16:27:16.999Z</time></trkpt><trkpt lat="45.00891996336782" lon="9.391670882076918"><ele>192.0</ele><time>2026-04-23T16:27:17.999Z</time></trkpt><trkpt lat="45.008958900250434" lon="9.391769803094906"><ele>192.0</ele><time>2026-04-23T16:27:18.999Z</time></trkpt><trkpt lat="45.0089951497432" lon="9.391862976628206"><ele>192.0</ele><time>2026-04-23T16:27:19.999Z</time></trkpt><trkpt lat="45.00903370581977" lon="9.391938626776724"><ele>192.0</ele><time>2026-04-23T16:27:20.999Z</time></trkpt><trkpt lat="45.00908659130739" lon="9.391999027108401"><ele>192.0</ele><time>2026-04-23T16:27:21.999Z</time></trkpt><trkpt lat="45.00913468676941" lon="9.392093382477995"><ele>192.0</ele><time>2026-04-23T16:27:22.999Z</time></trkpt><trkpt lat="45.009174414333195" lon="9.392210007852727"><ele>192.0</ele><time>2026-04-23T16:27:23.999Z</time></trkpt><trkpt lat="45.009209103743196" lon="9.39232060400403"><ele>192.0</ele><time>2026-04-23T16:27:24.999Z</time></trkpt><trkpt lat="45.00924376006803" lon="9.392424306480478"><ele>192.33333333333334</ele><time>2026-04-23T16:27:25.999Z</time></trkpt><trkpt lat="45.00927065345704" lon="9.392520741320824"><ele>192.66666666666669</ele><time>2026-04-23T16:27:26.999Z</time></trkpt><trkpt lat="45.009287567627645" lon="9.392621753976767"><ele>193.0</ele><time>2026-04-23T16:27:27.999Z</time></trkpt><trkpt lat="45.00931833733005" lon="9.392710123425823"><ele>193.33333333333334</ele><time>2026-04-23T16:27:28.999Z</time></trkpt><trkpt lat="45.00936146030574" lon="9.392870259494396"><ele>193.66666666666669</ele><time>2026-04-23T16:27:30.999Z</time></trkpt><trkpt lat="45.009362127406206" lon="9.392977844535935"><ele>194.0</ele><time>2026-04-23T16:27:31.999Z</time></trkpt><trkpt lat="45.0093645753605" lon="9.393094528039033"><ele>192.83333333333334</ele><time>2026-04-23T16:27:32.999Z</time></trkpt><trkpt lat="45.00936865879617" lon="9.393206407419205"><ele>191.66666666666669</ele><time>2026-04-23T16:27:33.999Z</time></trkpt><trkpt lat="45.00938753678655" lon="9.39332842037659"><ele>190.5</ele><time>2026-04-23T16:27:34.999Z</time></trkpt><trkpt lat="45.0093971944996" lon="9.393443849096096"><ele>189.33333333333334</ele><time>2026-04-23T16:27:35.999Z</time></trkpt><trkpt lat="45.00940606706101" lon="9.393555890078181"><ele>188.16666666666669</ele><time>2026-04-23T16:27:36.999Z</time></trkpt><trkpt lat="45.00941000384204" lon="9.393665597524402"><ele>187.0</ele><time>2026-04-23T16:27:37.999Z</time></trkpt><trkpt lat="45.009430723682996" lon="9.393767675839186"><ele>186.6</ele><time>2026-04-23T16:27:38.999Z</time></trkpt><trkpt lat="45.00943668479452" lon="9.393867594859039"><ele>186.2</ele><time>2026-04-23T16:27:39.999Z</time></trkpt><trkpt lat="45.009439770875495" lon="9.39398194862152"><ele>185.8</ele><time>2026-04-23T16:27:40.999Z</time></trkpt><trkpt lat="45.009443947351166" lon="9.394105338928524"><ele>185.4</ele><time>2026-04-23T16:27:41.999Z</time></trkpt><trkpt lat="45.0094300887812" lon="9.394246404139313"><ele>185.0</ele><time>2026-04-23T16:27:42.999Z</time></trkpt><trkpt lat="45.00939861586598" lon="9.394395896453052"><ele>185.0</ele><time>2026-04-23T16:27:43.999Z</time></trkpt><trkpt lat="45.009359167590425" lon="9.394537413141984"><ele>185.0</ele><time>2026-04-23T16:27:44.999Z</time></trkpt><trkpt lat="45.00931798620599" lon="9.394651892027683"><ele>185.0</ele><time>2026-04-23T16:27:45.999Z</time></trkpt><trkpt lat="45.00926549747715" lon="9.394772564638076"><ele>185.0</ele><time>2026-04-23T16:27:46.999Z</time></trkpt><trkpt lat="45.00921645014678" lon="9.394900504075181"><ele>185.0</ele><time>2026-04-23T16:27:47.999Z</time></trkpt><trkpt lat="45.00918050239864" lon="9.395017846098932"><ele>184.6</ele><time>2026-04-23T16:27:48.999Z</time></trkpt><trkpt lat="45.009154858820985" lon="9.395162728221056"><ele>184.2</ele><time>2026-04-23T16:27:49.999Z</time></trkpt><trkpt lat="45.00913708392321" lon="9.395293445544443"><ele>183.8</ele><time>2026-04-23T16:27:50.999Z</time></trkpt><trkpt lat="45.00912594437174" lon="9.395413398496082"><ele>183.4</ele><time>2026-04-23T16:27:51.999Z</time></trkpt><trkpt lat="45.009117811669874" lon="9.39551993580933"><ele>183.0</ele><time>2026-04-23T16:27:52.999Z</time></trkpt><trkpt lat="45.009146031786265" lon="9.395652146642144"><ele>184.75</ele><time>2026-04-23T16:27:53.999Z</time></trkpt><trkpt lat="45.00917826929245" lon="9.395842047736226"><ele>186.5</ele><time>2026-04-23T16:27:54.999Z</time></trkpt><trkpt lat="45.00920983085628" lon="9.396039000861169"><ele>188.25</ele><time>2026-04-23T16:27:55.999Z</time></trkpt><trkpt lat="45.00924119716775" lon="9.396175137232772"><ele>190.0</ele><time>2026-04-23T16:27:56.999Z</time></trkpt><trkpt lat="45.00927503804742" lon="9.3962733192062"><ele>189.0</ele><time>2026-04-23T16:27:57.999Z</time></trkpt><trkpt lat="45.00934439373181" lon="9.39636245232068"><ele>188.0</ele><time>2026-04-23T16:27:58.999Z</time></trkpt><trkpt lat="45.009426883218055" lon="9.39646881118448"><ele>187.0</ele><time>2026-04-23T16:27:59.999Z</time></trkpt><trkpt lat="45.00949167738259" lon="9.39654653777983"><ele>186.0</ele><time>2026-04-23T16:28:00.999Z</time></trkpt><trkpt lat="45.009541230388365" lon="9.396629490003935"><ele>185.0</ele><time>2026-04-23T16:28:01.999Z</time></trkpt><trkpt lat="45.00961787252007" lon="9.396770494106873"><ele>185.0</ele><time>2026-04-23T16:28:03.999Z</time></trkpt><trkpt lat="45.009675966503984" lon="9.396910418080973"><ele>185.0</ele><time>2026-04-23T16:28:05.999Z</time></trkpt><trkpt lat="45.00969815689259" lon="9.397047098928212"><ele>185.0</ele><time>2026-04-23T16:28:07.999Z</time></trkpt><trkpt lat="45.009724251214905" lon="9.397139154454688"><ele>185.0</ele><time>2026-04-23T16:28:08.999Z</time></trkpt><trkpt lat="45.0097466412415" lon="9.397255381906199"><ele>185.0</ele><time>2026-04-23T16:28:09.999Z</time></trkpt><trkpt lat="45.009776181956944" lon="9.397383872566158"><ele>183.66666666666666</ele><time>2026-04-23T16:28:10.999Z</time></trkpt><trkpt lat="45.00981181454421" lon="9.397485059482273"><ele>182.33333333333331</ele><time>2026-04-23T16:28:11.999Z</time></trkpt><trkpt lat="45.00983638625738" lon="9.397569204087093"><ele>181.0</ele><time>2026-04-23T16:28:12.999Z</time></trkpt><trkpt lat="45.00985151407446" lon="9.39766851336136"><ele>179.66666666666666</ele><time>2026-04-23T16:28:13.999Z</time></trkpt><trkpt lat="45.00988575375147" lon="9.39779597474938"><ele>178.33333333333334</ele><time>2026-04-23T16:28:14.999Z</time></trkpt><trkpt lat="45.00990829968218" lon="9.397887243929892"><ele>177.0</ele><time>2026-04-23T16:28:16Z</time></trkpt><trkpt lat="45.00993530940346" lon="9.398071934699452"><ele>176.39999999999998</ele><time>2026-04-23T16:28:18Z</time></trkpt><trkpt lat="45.0099633899805" lon="9.39819677671194"><ele>175.79999999999998</ele><time>2026-04-23T16:28:19Z</time></trkpt><trkpt lat="45.00997890271728" lon="9.398310595455746"><ele>175.2</ele><time>2026-04-23T16:28:20Z</time></trkpt><trkpt lat="45.01000121991454" lon="9.398420082268512"><ele>174.6</ele><time>2026-04-23T16:28:21Z</time></trkpt><trkpt lat="45.010018231530374" lon="9.398528397199208"><ele>174.0</ele><time>2026-04-23T16:28:22Z</time></trkpt><trkpt lat="45.01003914208143" lon="9.398702973339473"><ele>172.2</ele><time>2026-04-23T16:28:24Z</time></trkpt><trkpt lat="45.01004681368793" lon="9.398863066213114"><ele>170.39999999999998</ele><time>2026-04-23T16:28:26Z</time></trkpt><trkpt lat="45.01003600911729" lon="9.399056310748641"><ele>168.6</ele><time>2026-04-23T16:28:28Z</time></trkpt><trkpt lat="45.0100298076176" lon="9.399157938566974"><ele>166.8</ele><time>2026-04-23T16:28:29Z</time></trkpt><trkpt lat="45.01001567667674" lon="9.399258705976175"><ele>165.0</ele><time>2026-04-23T16:28:30Z</time></trkpt><trkpt lat="45.00999332951181" lon="9.399358792238196"><ele>165.14285714285717</ele><time>2026-04-23T16:28:31Z</time></trkpt><trkpt lat="45.00996414824742" lon="9.399464208811075"><ele>165.28571428571428</ele><time>2026-04-23T16:28:32Z</time></trkpt><trkpt lat="45.00994443273235" lon="9.399557623178518"><ele>165.42857142857144</ele><time>2026-04-23T16:28:33Z</time></trkpt><trkpt lat="45.00993283435005" lon="9.399654857388736"><ele>165.57142857142858</ele><time>2026-04-23T16:28:34Z</time></trkpt><trkpt lat="45.009917626189335" lon="9.399748707234947"><ele>165.71428571428572</ele><time>2026-04-23T16:28:35Z</time></trkpt><trkpt lat="45.00989589337997" lon="9.399845982806372"><ele>165.85714285714286</ele><time>2026-04-23T16:28:36Z</time></trkpt><trkpt lat="45.00985901914549" lon="9.399938278125797"><ele>166.0</ele><time>2026-04-23T16:28:37Z</time></trkpt><trkpt lat="45.00982780687055" lon="9.400031742774695"><ele>164.57142857142856</ele><time>2026-04-23T16:28:38Z</time></trkpt><trkpt lat="45.009820725018166" lon="9.400131098554414"><ele>163.14285714285717</ele><time>2026-04-23T16:28:39Z</time></trkpt><trkpt lat="45.009818775277395" lon="9.400254142900481"><ele>161.71428571428572</ele><time>2026-04-23T16:28:40Z</time></trkpt><trkpt lat="45.00982690736084" lon="9.400360112872384"><ele>160.28571428571428</ele><time>2026-04-23T16:28:41Z</time></trkpt><trkpt lat="45.00982672601432" lon="9.400464374636886"><ele>158.85714285714283</ele><time>2026-04-23T16:28:42Z</time></trkpt><trkpt lat="45.00981081982007" lon="9.400569069926842"><ele>157.42857142857144</ele><time>2026-04-23T16:28:43Z</time></trkpt><trkpt lat="45.00978069574307" lon="9.400647328480344"><ele>156.0</ele><time>2026-04-23T16:28:44Z</time></trkpt><trkpt lat="45.00970285329823" lon="9.400783504144371"><ele>154.8</ele><time>2026-04-23T16:28:46Z</time></trkpt><trkpt lat="45.009667325438556" lon="9.4008882997401"><ele>153.6</ele><time>2026-04-23T16:28:47Z</time></trkpt><trkpt lat="45.00964555439521" lon="9.401036068725167"><ele>152.4</ele><time>2026-04-23T16:28:48Z</time></trkpt><trkpt lat="45.00963040946646" lon="9.401203904986325"><ele>151.2</ele><time>2026-04-23T16:28:49Z</time></trkpt><trkpt lat="45.0096200649369" lon="9.4013866131669"><ele>150.0</ele><time>2026-04-23T16:28:50Z</time></trkpt><trkpt lat="45.009612784895666" lon="9.401540267317039"><ele>148.8</ele><time>2026-04-23T16:28:51Z</time></trkpt><trkpt lat="45.009607621734695" lon="9.401668228980192"><ele>147.6</ele><time>2026-04-23T16:28:52Z</time></trkpt><trkpt lat="45.00962000707947" lon="9.401806107394407"><ele>146.4</ele><time>2026-04-23T16:28:53Z</time></trkpt><trkpt lat="45.00964508850728" lon="9.4019420389017"><ele>145.2</ele><time>2026-04-23T16:28:54Z</time></trkpt><trkpt lat="45.00967664712937" lon="9.402081523258301"><ele>144.0</ele><time>2026-04-23T16:28:55Z</time></trkpt><trkpt lat="45.00970380539927" lon="9.40221802870815"><ele>142.6</ele><time>2026-04-23T16:28:56Z</time></trkpt><trkpt lat="45.00972319265456" lon="9.402356998841245"><ele>141.2</ele><time>2026-04-23T16:28:57Z</time></trkpt><trkpt lat="45.009742599758816" lon="9.402493940855098"><ele>139.79999999999998</ele><time>2026-04-23T16:28:58Z</time></trkpt><trkpt lat="45.00975809097303" lon="9.402633367017344"><ele>138.4</ele><time>2026-04-23T16:28:59Z</time></trkpt><trkpt lat="45.00977518958798" lon="9.402756879936165"><ele>137.0</ele><time>2026-04-23T16:29:00Z</time></trkpt><trkpt lat="45.00980169445709" lon="9.402868445220015"><ele>137.0</ele><time>2026-04-23T16:29:01Z</time></trkpt><trkpt lat="45.00983405402495" lon="9.402961617441322"><ele>137.0</ele><time>2026-04-23T16:29:02Z</time></trkpt><trkpt lat="45.00988097527563" lon="9.403064034204698"><ele>137.0</ele><time>2026-04-23T16:29:03Z</time></trkpt><trkpt lat="45.00995455110948" lon="9.403192268499584"><ele>137.0</ele><time>2026-04-23T16:29:04Z</time></trkpt><trkpt lat="45.01002643056631" lon="9.403330455020228"><ele>137.0</ele><time>2026-04-23T16:29:05Z</time></trkpt><trkpt lat="45.01009506985081" lon="9.403465536242992"><ele>135.6</ele><time>2026-04-23T16:29:06Z</time></trkpt><trkpt lat="45.01014839359181" lon="9.40359022680922"><ele>134.2</ele><time>2026-04-23T16:29:07Z</time></trkpt><trkpt lat="45.01019166507005" lon="9.403709568300384"><ele>132.8</ele><time>2026-04-23T16:29:08Z</time></trkpt><trkpt lat="45.01022733979663" lon="9.403829967045509"><ele>131.4</ele><time>2026-04-23T16:29:09Z</time></trkpt><trkpt lat="45.01025513037" lon="9.403945922377169"><ele>130.0</ele><time>2026-04-23T16:29:10Z</time></trkpt><trkpt lat="45.0102754817899" lon="9.404048859751757"><ele>129.0</ele><time>2026-04-23T16:29:11Z</time></trkpt><trkpt lat="45.0102834122682" lon="9.404144201115106"><ele>128.0</ele><time>2026-04-23T16:29:11.999Z</time></trkpt><trkpt lat="45.01027362433207" lon="9.404280828959411"><ele>127.0</ele><time>2026-04-23T16:29:13.999Z</time></trkpt><trkpt lat="45.010211331311254" lon="9.404347530858027"><ele>126.0</ele><time>2026-04-23T16:29:15.999Z</time></trkpt><trkpt lat="45.01013645031955" lon="9.404372727642054"><ele>125.0</ele><time>2026-04-23T16:29:17.999Z</time></trkpt><trkpt lat="45.01009582619339" lon="9.404555470631479"><ele>125.0</ele><time>2026-04-23T16:33:38Z</time></trkpt><trkpt lat="45.01007822250706" lon="9.404660637969307"><ele>125.0</ele><time>2026-04-23T16:33:39Z</time></trkpt><trkpt lat="45.010057485700266" lon="9.404757787841849"><ele>125.0</ele><time>2026-04-23T16:33:40Z</time></trkpt><trkpt lat="45.010020108334054" lon="9.404930157508339"><ele>125.0</ele><time>2026-04-23T16:33:41Z</time></trkpt><trkpt lat="45.00997826688812" lon="9.405092132801187"><ele>125.0</ele><time>2026-04-23T16:33:42Z</time></trkpt><trkpt lat="45.00994880933418" lon="9.405237164599438"><ele>126.6</ele><time>2026-04-23T16:33:43Z</time></trkpt><trkpt lat="45.00993424372795" lon="9.40538517833934"><ele>128.2</ele><time>2026-04-23T16:33:44Z</time></trkpt><trkpt lat="45.00990921010591" lon="9.405550927319595"><ele>129.8</ele><time>2026-04-23T16:33:45Z</time></trkpt><trkpt lat="45.00988522617779" lon="9.40569594682634"><ele>131.4</ele><time>2026-04-23T16:33:46Z</time></trkpt><trkpt lat="45.00987901863377" lon="9.405797125760847"><ele>133.0</ele><time>2026-04-23T16:33:47Z</time></trkpt><trkpt lat="45.009883592512054" lon="9.405902410675727"><ele>132.0</ele><time>2026-04-23T16:33:49Z</time></trkpt><trkpt lat="45.01004449573199" lon="9.4060004120332"><ele>131.0</ele><time>2026-04-23T16:33:56Z</time></trkpt><trkpt lat="45.0101623140718" lon="9.406027996120278"><ele>130.0</ele><time>2026-04-23T16:33:57Z</time></trkpt><trkpt lat="45.01027551230388" lon="9.406078752310476"><ele>129.0</ele><time>2026-04-23T16:33:58Z</time></trkpt><trkpt lat="45.01041922307145" lon="9.406146415782334"><ele>129.0</ele><time>2026-04-23T16:33:59Z</time></trkpt><trkpt lat="45.01057203264978" lon="9.406221938259415"><ele>129.0</ele><time>2026-04-23T16:34:00Z</time></trkpt><trkpt lat="45.010718826745176" lon="9.406290139862703"><ele>129.0</ele><time>2026-04-23T16:34:01Z</time></trkpt><trkpt lat="45.010878676867755" lon="9.406366072243882"><ele>127.66666666666666</ele><time>2026-04-23T16:34:02Z</time></trkpt><trkpt lat="45.011027459282126" lon="9.40642892699476"><ele>126.33333333333333</ele><time>2026-04-23T16:34:03Z</time></trkpt><trkpt lat="45.011170100884634" lon="9.406500949019048"><ele>125.0</ele><time>2026-04-23T16:34:04Z</time></trkpt><trkpt lat="45.01130702967857" lon="9.406570548324828"><ele>125.0</ele><time>2026-04-23T16:34:05Z</time></trkpt><trkpt lat="45.011451400772536" lon="9.406639433252442"><ele>125.0</ele><time>2026-04-23T16:34:06Z</time></trkpt><trkpt lat="45.01161270739564" lon="9.406714415792365"><ele>125.0</ele><time>2026-04-23T16:34:07Z</time></trkpt><trkpt lat="45.011783933806264" lon="9.406801539407422"><ele>124.66666666666666</ele><time>2026-04-23T16:34:08Z</time></trkpt><trkpt lat="45.011939125683206" lon="9.406877203611689"><ele>124.33333333333334</ele><time>2026-04-23T16:34:09Z</time></trkpt><trkpt lat="45.01209901343428" lon="9.406959912419428"><ele>124.0</ele><time>2026-04-23T16:34:10Z</time></trkpt><trkpt lat="45.01226059904055" lon="9.407047162067341"><ele>124.0</ele><time>2026-04-23T16:34:11Z</time></trkpt><trkpt lat="45.01241952176487" lon="9.407155334783809"><ele>124.0</ele><time>2026-04-23T16:34:11.999Z</time></trkpt><trkpt lat="45.01257111862255" lon="9.407271071873389"><ele>124.0</ele><time>2026-04-23T16:34:12.999Z</time></trkpt><trkpt lat="45.012733630794415" lon="9.407387359641424"><ele>124.0</ele><time>2026-04-23T16:34:13.999Z</time></trkpt><trkpt lat="45.012880857143415" lon="9.407499914423381"><ele>124.0</ele><time>2026-04-23T16:34:14.999Z</time></trkpt><trkpt lat="45.01301652834001" lon="9.40760771721386"><ele>124.0</ele><time>2026-04-23T16:34:15.999Z</time></trkpt><trkpt lat="45.013151486916875" lon="9.407701004433497"><ele>124.0</ele><time>2026-04-23T16:34:16.999Z</time></trkpt><trkpt lat="45.013291979064775" lon="9.407814971022518"><ele>124.0</ele><time>2026-04-23T16:34:17.999Z</time></trkpt><trkpt lat="45.01343273038441" lon="9.407920810725779"><ele>124.0</ele><time>2026-04-23T16:34:18.999Z</time></trkpt><trkpt lat="45.01357711047727" lon="9.40803077009197"><ele>123.33333333333334</ele><time>2026-04-23T16:34:19.999Z</time></trkpt><trkpt lat="45.013728092733515" lon="9.408141325067474"><ele>122.66666666666666</ele><time>2026-04-23T16:34:20.999Z</time></trkpt><trkpt lat="45.01387921835353" lon="9.408259754374976"><ele>122.0</ele><time>2026-04-23T16:34:21.999Z</time></trkpt><trkpt lat="45.01403074564785" lon="9.408379640574548"><ele>120.66666666666666</ele><time>2026-04-23T16:34:22.999Z</time></trkpt><trkpt lat="45.01418505754355" lon="9.40848778194372"><ele>119.33333333333334</ele><time>2026-04-23T16:34:23.999Z</time></trkpt><trkpt lat="45.014341892030735" lon="9.408595699478209"><ele>118.0</ele><time>2026-04-23T16:34:24.999Z</time></trkpt><trkpt lat="45.01450558672557" lon="9.408716003335678"><ele>118.0</ele><time>2026-04-23T16:34:25.999Z</time></trkpt><trkpt lat="45.014668116221" lon="9.408834997389256"><ele>118.0</ele><time>2026-04-23T16:34:26.999Z</time></trkpt><trkpt lat="45.014836414048325" lon="9.408958531890384"><ele>118.0</ele><time>2026-04-23T16:34:27.999Z</time></trkpt><trkpt lat="45.015003682401854" lon="9.409083369364014"><ele>118.0</ele><time>2026-04-23T16:34:28.999Z</time></trkpt><trkpt lat="45.015171036097506" lon="9.409208950586715"><ele>118.0</ele><time>2026-04-23T16:34:29.999Z</time></trkpt><trkpt lat="45.01533866844341" lon="9.409331683335626"><ele>118.0</ele><time>2026-04-23T16:34:30.999Z</time></trkpt><trkpt lat="45.015505436069" lon="9.409461184099623"><ele>118.0</ele><time>2026-04-23T16:34:31.999Z</time></trkpt><trkpt lat="45.015674169119464" lon="9.409587997254743"><ele>118.0</ele><time>2026-04-23T16:34:32.999Z</time></trkpt><trkpt lat="45.015843158747806" lon="9.409712543697218"><ele>118.0</ele><time>2026-04-23T16:34:33.999Z</time></trkpt><trkpt lat="45.016012400667734" lon="9.409836550679266"><ele>118.0</ele><time>2026-04-23T16:34:34.999Z</time></trkpt><trkpt lat="45.016179725227936" lon="9.409955188127077"><ele>118.0</ele><time>2026-04-23T16:34:35.999Z</time></trkpt><trkpt lat="45.016342487395534" lon="9.410078629948956"><ele>118.0</ele><time>2026-04-23T16:34:36.999Z</time></trkpt><trkpt lat="45.01650191835055" lon="9.410202339279072"><ele>117.66666666666667</ele><time>2026-04-23T16:34:37.999Z</time></trkpt><trkpt lat="45.016663571104374" lon="9.410325978849283"><ele>117.33333333333334</ele><time>2026-04-23T16:34:38.999Z</time></trkpt><trkpt lat="45.016832320829835" lon="9.410434665898345"><ele>117.0</ele><time>2026-04-23T16:34:39.999Z</time></trkpt><trkpt lat="45.01699801190288" lon="9.410549573546298"><ele>117.0</ele><time>2026-04-23T16:34:40.999Z</time></trkpt><trkpt lat="45.017158426050926" lon="9.410663635193528"><ele>117.0</ele><time>2026-04-23T16:34:41.999Z</time></trkpt><trkpt lat="45.01731605237234" lon="9.410781740271313"><ele>117.0</ele><time>2026-04-23T16:34:42.999Z</time></trkpt><trkpt lat="45.01747060497685" lon="9.410900970533161"><ele>116.33333333333334</ele><time>2026-04-23T16:34:43.999Z</time></trkpt><trkpt lat="45.01762053743497" lon="9.411012900206254"><ele>115.66666666666667</ele><time>2026-04-23T16:34:44.999Z</time></trkpt><trkpt lat="45.017767037182786" lon="9.411124173055867"><ele>115.0</ele><time>2026-04-23T16:34:45.999Z</time></trkpt><trkpt lat="45.01790984143561" lon="9.411228400508207"><ele>115.0</ele><time>2026-04-23T16:34:46.999Z</time></trkpt><trkpt lat="45.018044882027574" lon="9.411321477946252"><ele>115.0</ele><time>2026-04-23T16:34:47.999Z</time></trkpt><trkpt lat="45.01817351264275" lon="9.411415573042666"><ele>115.0</ele><time>2026-04-23T16:34:48.999Z</time></trkpt><trkpt lat="45.0182954202024" lon="9.411509742599653"><ele>115.0</ele><time>2026-04-23T16:34:49.999Z</time></trkpt><trkpt lat="45.018404862106784" lon="9.411603157661764"><ele>115.0</ele><time>2026-04-23T16:34:50.999Z</time></trkpt><trkpt lat="45.01848542239131" lon="9.411737889332377"><ele>115.0</ele><time>2026-04-23T16:34:51.999Z</time></trkpt><trkpt lat="45.01857393043405" lon="9.411847270593693"><ele>115.0</ele><time>2026-04-23T16:34:52.999Z</time></trkpt><trkpt lat="45.018624749227655" lon="9.41198112875607"><ele>115.0</ele><time>2026-04-23T16:34:53.999Z</time></trkpt><trkpt lat="45.018674859530265" lon="9.412081616487267"><ele>115.0</ele><time>2026-04-23T16:34:54.999Z</time></trkpt><trkpt lat="45.01880335394201" lon="9.412050235235675"><ele>115.0</ele><time>2026-04-23T16:34:56.999Z</time></trkpt><trkpt lat="45.01887227530383" lon="9.411968346756344"><ele>115.0</ele><time>2026-04-23T16:34:57.999Z</time></trkpt><trkpt lat="45.01895468304208" lon="9.411869353573538"><ele>115.0</ele><time>2026-04-23T16:34:58.999Z</time></trkpt><trkpt lat="45.01903839600241" lon="9.41176606426106"><ele>115.0</ele><time>2026-04-23T16:34:59.999Z</time></trkpt><trkpt lat="45.01911070880561" lon="9.411643924200034"><ele>115.0</ele><time>2026-04-23T16:35:00.999Z</time></trkpt><trkpt lat="45.01916929939868" lon="9.411496385737056"><ele>114.5</ele><time>2026-04-23T16:35:01.999Z</time></trkpt><trkpt lat="45.01921434480273" lon="9.411311456529566"><ele>114.0</ele><time>2026-04-23T16:35:02.999Z</time></trkpt><trkpt lat="45.01924916848045" lon="9.411130226076208"><ele>113.5</ele><time>2026-04-23T16:35:03.999Z</time></trkpt><trkpt lat="45.019285421890274" lon="9.410942426604745"><ele>113.0</ele><time>2026-04-23T16:35:04.999Z</time></trkpt><trkpt lat="45.01933668684286" lon="9.410747335151234"><ele>113.0</ele><time>2026-04-23T16:35:05.999Z</time></trkpt><trkpt lat="45.01938654075076" lon="9.410550739511397"><ele>113.0</ele><time>2026-04-23T16:35:06.999Z</time></trkpt><trkpt lat="45.01943705176366" lon="9.410352408789523"><ele>113.0</ele><time>2026-04-23T16:35:07.999Z</time></trkpt><trkpt lat="45.01948619701327" lon="9.410141526317698"><ele>113.0</ele><time>2026-04-23T16:35:08.999Z</time></trkpt><trkpt lat="45.01953283439413" lon="9.409926038278806"><ele>113.0</ele><time>2026-04-23T16:35:09.999Z</time></trkpt><trkpt lat="45.01958621432647" lon="9.409708341402629"><ele>113.0</ele><time>2026-04-23T16:35:10.999Z</time></trkpt><trkpt lat="45.019642091517674" lon="9.409489066391178"><ele>112.66666666666666</ele><time>2026-04-23T16:35:11.999Z</time></trkpt><trkpt lat="45.019695582204854" lon="9.409273879181342"><ele>112.33333333333334</ele><time>2026-04-23T16:35:12.999Z</time></trkpt><trkpt lat="45.01974683117458" lon="9.4090468311301"><ele>112.0</ele><time>2026-04-23T16:35:13.999Z</time></trkpt><trkpt lat="45.019797597881364" lon="9.408828199101615"><ele>111.66666666666667</ele><time>2026-04-23T16:35:14.999Z</time></trkpt><trkpt lat="45.019861887391635" lon="9.40861802428576"><ele>111.33333333333334</ele><time>2026-04-23T16:35:15.999Z</time></trkpt><trkpt lat="45.01991364606093" lon="9.408404689114331"><ele>111.0</ele><time>2026-04-23T16:35:16.999Z</time></trkpt><trkpt lat="45.0199521720343" lon="9.408187659620793"><ele>111.25</ele><time>2026-04-23T16:35:17.999Z</time></trkpt><trkpt lat="45.02000959093451" lon="9.407986054216812"><ele>111.5</ele><time>2026-04-23T16:35:19Z</time></trkpt><trkpt lat="45.02006112623292" lon="9.407791028901089"><ele>111.75</ele><time>2026-04-23T16:35:20Z</time></trkpt><trkpt lat="45.020102768852375" lon="9.407604408117429"><ele>112.0</ele><time>2026-04-23T16:35:21Z</time></trkpt><trkpt lat="45.02014109780633" lon="9.407423414036856"><ele>112.0</ele><time>2026-04-23T16:35:22Z</time></trkpt><trkpt lat="45.02017655681644" lon="9.407252375165678"><ele>111.99999999999999</ele><time>2026-04-23T16:35:23Z</time></trkpt><trkpt lat="45.02021743675287" lon="9.407107055754519"><ele>111.99999999999999</ele><time>2026-04-23T16:35:24Z</time></trkpt><trkpt lat="45.0202383042293" lon="9.406982609582206"><ele>112.0</ele><time>2026-04-23T16:35:25Z</time></trkpt><trkpt lat="45.02025334319309" lon="9.406887076110204"><ele>112.0</ele><time>2026-04-23T16:35:26Z</time></trkpt><trkpt lat="45.02028991631163" lon="9.406780390483977"><ele>112.0</ele><time>2026-04-23T16:35:28Z</time></trkpt><trkpt lat="45.02042169507239" lon="9.406836254617568"><ele>111.99999999999999</ele><time>2026-04-23T16:35:30Z</time></trkpt><trkpt lat="45.020511455050624" lon="9.406875453744238"><ele>111.99999999999999</ele><time>2026-04-23T16:35:32Z</time></trkpt><trkpt lat="45.02057887310508" lon="9.40688692018083"><ele>112.0</ele><time>2026-04-23T16:35:33Z</time></trkpt><trkpt lat="45.02066914575366" lon="9.406914914915669"><ele>112.0</ele><time>2026-04-23T16:35:34Z</time></trkpt><trkpt lat="45.02076798135332" lon="9.406931709474518"><ele>112.0</ele><time>2026-04-23T16:35:35Z</time></trkpt><trkpt lat="45.02086788433457" lon="9.406958107796795"><ele>111.99999999999999</ele><time>2026-04-23T16:35:36Z</time></trkpt><trkpt lat="45.020970504802555" lon="9.407008175978609"><ele>111.99999999999999</ele><time>2026-04-23T16:35:37Z</time></trkpt><trkpt lat="45.021073037310856" lon="9.407037694210489"><ele>112.0</ele><time>2026-04-23T16:35:38Z</time></trkpt><trkpt lat="45.0211979094115" lon="9.407055111583468"><ele>112.0</ele><time>2026-04-23T16:35:39Z</time></trkpt><trkpt lat="45.02132774167229" lon="9.407111021518995"><ele>112.0</ele><time>2026-04-23T16:35:40Z</time></trkpt><trkpt lat="45.021456322640695" lon="9.4071496544635"><ele>112.0</ele><time>2026-04-23T16:35:41Z</time></trkpt><trkpt lat="45.02158645516723" lon="9.407168561822312"><ele>112.0</ele><time>2026-04-23T16:35:42Z</time></trkpt><trkpt lat="45.02171806679034" lon="9.407219692362574"><ele>112.0</ele><time>2026-04-23T16:35:43Z</time></trkpt><trkpt lat="45.02185298593317" lon="9.407228976870211"><ele>111.75</ele><time>2026-04-23T16:35:44Z</time></trkpt><trkpt lat="45.021986225764074" lon="9.40723802806725"><ele>111.5</ele><time>2026-04-23T16:35:45Z</time></trkpt><trkpt lat="45.02211138709227" lon="9.407244220915905"><ele>111.25</ele><time>2026-04-23T16:35:46Z</time></trkpt><trkpt lat="45.02223266245928" lon="9.407274216338978"><ele>111.0</ele><time>2026-04-23T16:35:47Z</time></trkpt><trkpt lat="45.02235257608006" lon="9.407269995288186"><ele>111.0</ele><time>2026-04-23T16:35:48Z</time></trkpt><trkpt lat="45.02246748585223" lon="9.407284298152835"><ele>111.0</ele><time>2026-04-23T16:35:49Z</time></trkpt><trkpt lat="45.02257330331452" lon="9.407324878859843"><ele>111.0</ele><time>2026-04-23T16:35:50Z</time></trkpt><trkpt lat="45.02268532793271" lon="9.407357144341441"><ele>111.0</ele><time>2026-04-23T16:35:51Z</time></trkpt><trkpt lat="45.0228050849721" lon="9.407377836739421"><ele>111.0</ele><time>2026-04-23T16:35:52Z</time></trkpt><trkpt lat="45.02292762029182" lon="9.407449695785557"><ele>111.0</ele><time>2026-04-23T16:35:53Z</time></trkpt><trkpt lat="45.023053230654114" lon="9.407500323756471"><ele>111.0</ele><time>2026-04-23T16:35:54Z</time></trkpt><trkpt lat="45.02317351879354" lon="9.407550391218473"><ele>111.0</ele><time>2026-04-23T16:35:55Z</time></trkpt><trkpt lat="45.02329993091442" lon="9.40759002244683"><ele>110.25</ele><time>2026-04-23T16:35:56Z</time></trkpt><trkpt lat="45.023428338372234" lon="9.407636102119463"><ele>109.5</ele><time>2026-04-23T16:35:57Z</time></trkpt><trkpt lat="45.02355820551455" lon="9.407678480208036"><ele>108.75</ele><time>2026-04-23T16:35:58Z</time></trkpt><trkpt lat="45.02367400065205" lon="9.40773385758422"><ele>108.0</ele><time>2026-04-23T16:35:59Z</time></trkpt><trkpt lat="45.02378626974484" lon="9.407752343157924"><ele>108.0</ele><time>2026-04-23T16:36:00Z</time></trkpt><trkpt lat="45.02389597577027" lon="9.40779530731633"><ele>108.0</ele><time>2026-04-23T16:36:01Z</time></trkpt><trkpt lat="45.02400869507527" lon="9.407831806489066"><ele>108.0</ele><time>2026-04-23T16:36:02Z</time></trkpt><trkpt lat="45.024122684674225" lon="9.40787174600492"><ele>108.0</ele><time>2026-04-23T16:36:03Z</time></trkpt><trkpt lat="45.0242295709084" lon="9.407921447917392"><ele>107.80000000000001</ele><time>2026-04-23T16:36:04Z</time></trkpt><trkpt lat="45.024341801845885" lon="9.407938121069161"><ele>107.60000000000001</ele><time>2026-04-23T16:36:05Z</time></trkpt><trkpt lat="45.0244422948978" lon="9.40798076797723"><ele>107.39999999999999</ele><time>2026-04-23T16:36:06Z</time></trkpt><trkpt lat="45.024540063261476" lon="9.408031968767764"><ele>107.19999999999999</ele><time>2026-04-23T16:36:07Z</time></trkpt><trkpt lat="45.02461795197162" lon="9.408114611985887"><ele>107.0</ele><time>2026-04-23T16:36:08Z</time></trkpt><trkpt lat="45.02469530143337" lon="9.40818136520495"><ele>106.75</ele><time>2026-04-23T16:36:09Z</time></trkpt><trkpt lat="45.02475984636221" lon="9.408283991496216"><ele>106.5</ele><time>2026-04-23T16:36:10Z</time></trkpt><trkpt lat="45.024841376336305" lon="9.408359444239556"><ele>106.25</ele><time>2026-04-23T16:36:10.999Z</time></trkpt><trkpt lat="45.02495446740448" lon="9.408411742842922"><ele>106.0</ele><time>2026-04-23T16:36:11.999Z</time></trkpt><trkpt lat="45.02509197113034" lon="9.408447920978517"><ele>106.0</ele><time>2026-04-23T16:36:12.999Z</time></trkpt><trkpt lat="45.02524017808753" lon="9.408463863769489"><ele>106.0</ele><time>2026-04-23T16:36:13.999Z</time></trkpt><trkpt lat="45.02538977311405" lon="9.408500821974872"><ele>106.0</ele><time>2026-04-23T16:36:14.999Z</time></trkpt><trkpt lat="45.02555019496254" lon="9.408560540297652"><ele>106.0</ele><time>2026-04-23T16:36:15.999Z</time></trkpt><trkpt lat="45.025702428323456" lon="9.4086004327067"><ele>106.0</ele><time>2026-04-23T16:36:16.999Z</time></trkpt><trkpt lat="45.02583844414372" lon="9.408616614142263"><ele>106.0</ele><time>2026-04-23T16:36:17.999Z</time></trkpt><trkpt lat="45.02596507644066" lon="9.408672965024786"><ele>106.0</ele><time>2026-04-23T16:36:18.999Z</time></trkpt><trkpt lat="45.026087246651635" lon="9.40868807875917"><ele>105.6</ele><time>2026-04-23T16:36:19.999Z</time></trkpt><trkpt lat="45.02619286382183" lon="9.408719720430048"><ele>105.19999999999999</ele><time>2026-04-23T16:36:20.999Z</time></trkpt><trkpt lat="45.02629402299488" lon="9.408748315386061"><ele>104.80000000000001</ele><time>2026-04-23T16:36:21.999Z</time></trkpt><trkpt lat="45.0263874660705" lon="9.408781130178355"><ele>104.4</ele><time>2026-04-23T16:36:22.999Z</time></trkpt><trkpt lat="45.026475877248025" lon="9.408806084380696"><ele>104.0</ele><time>2026-04-23T16:36:23.999Z</time></trkpt><trkpt lat="45.02655576848178" lon="9.408829834238194"><ele>103.83333333333333</ele><time>2026-04-23T16:36:24.999Z</time></trkpt><trkpt lat="45.02662656911662" lon="9.408851136182568"><ele>103.66666666666666</ele><time>2026-04-23T16:36:25.999Z</time></trkpt><trkpt lat="45.02669216907706" lon="9.408870913409753"><ele>103.5</ele><time>2026-04-23T16:36:26.999Z</time></trkpt><trkpt lat="45.0267574810928" lon="9.408882636340513"><ele>103.33333333333334</ele><time>2026-04-23T16:36:27.999Z</time></trkpt><trkpt lat="45.026852748276724" lon="9.408811395499628"><ele>103.16666666666667</ele><time>2026-04-23T16:36:29.999Z</time></trkpt><trkpt lat="45.02688590261544" lon="9.408731964378727"><ele>103.0</ele><time>2026-04-23T16:36:30.999Z</time></trkpt><trkpt lat="45.026908430898345" lon="9.408621805623131"><ele>103.0</ele><time>2026-04-23T16:36:31.999Z</time></trkpt><trkpt lat="45.02691851538963" lon="9.408493122409668"><ele>103.0</ele><time>2026-04-23T16:36:32.999Z</time></trkpt><trkpt lat="45.026926710721355" lon="9.408351304474323"><ele>103.0</ele><time>2026-04-23T16:36:33.999Z</time></trkpt><trkpt lat="45.02692761590826" lon="9.408236182292885"><ele>103.0</ele><time>2026-04-23T16:36:34.999Z</time></trkpt><trkpt lat="45.0269476656778" lon="9.408144032953782"><ele>103.0</ele><time>2026-04-23T16:36:35.999Z</time></trkpt><trkpt lat="45.0269822434841" lon="9.407992176946491"><ele>103.0</ele><time>2026-04-23T16:36:37.999Z</time></trkpt><trkpt lat="45.02706870985419" lon="9.407883695079983"><ele>103.0</ele><time>2026-04-23T16:36:39.999Z</time></trkpt><trkpt lat="45.02714468713212" lon="9.40791467112409"><ele>103.0</ele><time>2026-04-23T16:36:40.999Z</time></trkpt><trkpt lat="45.02723472887582" lon="9.407940586227916"><ele>103.0</ele><time>2026-04-23T16:36:41.999Z</time></trkpt><trkpt lat="45.027369635267604" lon="9.407964768362579"><ele>103.0</ele><time>2026-04-23T16:36:42.999Z</time></trkpt><trkpt lat="45.02751954976727" lon="9.40797103717461"><ele>102.66666666666667</ele><time>2026-04-23T16:36:43.999Z</time></trkpt><trkpt lat="45.02767826281894" lon="9.407988564333074"><ele>102.33333333333334</ele><time>2026-04-23T16:36:44.999Z</time></trkpt><trkpt lat="45.02784786109942" lon="9.408013764500359"><ele>102.0</ele><time>2026-04-23T16:36:45.999Z</time></trkpt><trkpt lat="45.02800431821296" lon="9.40804484910243"><ele>102.0</ele><time>2026-04-23T16:36:46.999Z</time></trkpt><trkpt lat="45.02818043909429" lon="9.408082752061254"><ele>102.0</ele><time>2026-04-23T16:36:47.999Z</time></trkpt><trkpt lat="45.028360064170826" lon="9.408113311146174"><ele>102.0</ele><time>2026-04-23T16:36:48.999Z</time></trkpt><trkpt lat="45.028526116895506" lon="9.408137014618024"><ele>102.0</ele><time>2026-04-23T16:36:49.999Z</time></trkpt><trkpt lat="45.02867672239945" lon="9.408162737883636"><ele>102.0</ele><time>2026-04-23T16:36:50.999Z</time></trkpt><trkpt lat="45.028820256207446" lon="9.408189087408177"><ele>102.0</ele><time>2026-04-23T16:36:51.999Z</time></trkpt><trkpt lat="45.028951041430645" lon="9.408210961138588"><ele>102.0</ele><time>2026-04-23T16:36:52.999Z</time></trkpt><trkpt lat="45.0290647713422" lon="9.408231163260464"><ele>101.6</ele><time>2026-04-23T16:36:53.999Z</time></trkpt><trkpt lat="45.029159154503056" lon="9.408249032073979"><ele>101.19999999999999</ele><time>2026-04-23T16:36:54.999Z</time></trkpt><trkpt lat="45.02923524754382" lon="9.408269020767142"><ele>100.8</ele><time>2026-04-23T16:36:55.999Z</time></trkpt><trkpt lat="45.029339319657566" lon="9.408219206232364"><ele>100.4</ele><time>2026-04-23T16:36:57.999Z</time></trkpt><trkpt lat="45.029383221738385" lon="9.408041982076632"><ele>100.0</ele><time>2026-04-23T16:36:59.999Z</time></trkpt><trkpt lat="45.029386468278986" lon="9.40790842741186"><ele>99.6</ele><time>2026-04-23T16:37:00.999Z</time></trkpt><trkpt lat="45.029386120543855" lon="9.407736789757164"><ele>99.2</ele><time>2026-04-23T16:37:01.999Z</time></trkpt><trkpt lat="45.02938252871614" lon="9.407575453281083"><ele>98.80000000000001</ele><time>2026-04-23T16:37:02.999Z</time></trkpt><trkpt lat="45.029387819112905" lon="9.40743260789965"><ele>98.4</ele><time>2026-04-23T16:37:03.999Z</time></trkpt><trkpt lat="45.029392882530665" lon="9.407300802495875"><ele>98.0</ele><time>2026-04-23T16:37:04.999Z</time></trkpt><trkpt lat="45.02941041457195" lon="9.407166503350586"><ele>98.25</ele><time>2026-04-23T16:37:05.999Z</time></trkpt><trkpt lat="45.029415508886395" lon="9.407012175581754"><ele>98.5</ele><time>2026-04-23T16:37:06.999Z</time></trkpt><trkpt lat="45.02940603588878" lon="9.40685356067423"><ele>98.75</ele><time>2026-04-23T16:37:07.999Z</time></trkpt><trkpt lat="45.02940759717796" lon="9.406673812160218"><ele>99.0</ele><time>2026-04-23T16:37:08.999Z</time></trkpt><trkpt lat="45.02940554347851" lon="9.406474905500072"><ele>99.25</ele><time>2026-04-23T16:37:09.999Z</time></trkpt><trkpt lat="45.02940253865309" lon="9.406277470820983"><ele>99.5</ele><time>2026-04-23T16:37:10.999Z</time></trkpt><trkpt lat="45.02939583881828" lon="9.406075321037758"><ele>99.75</ele><time>2026-04-23T16:37:11.999Z</time></trkpt><trkpt lat="45.029363932489666" lon="9.405875842801303"><ele>100.0</ele><time>2026-04-23T16:37:12.999Z</time></trkpt><trkpt lat="45.0293418319451" lon="9.405723540828896"><ele>100.0</ele><time>2026-04-23T16:37:13.999Z</time></trkpt><trkpt lat="45.029340702141525" lon="9.405619862182654"><ele>100.0</ele><time>2026-04-23T16:37:14.999Z</time></trkpt><trkpt lat="45.02930618747838" lon="9.405489600073379"><ele>100.0</ele><time>2026-04-23T16:37:16.999Z</time></trkpt><trkpt lat="45.02948309760518" lon="9.405409809584858"><ele>100.0</ele><time>2026-04-23T16:37:19.999Z</time></trkpt><trkpt lat="45.02960567013537" lon="9.405423888486641"><ele>100.66666666666667</ele><time>2026-04-23T16:37:20.998Z</time></trkpt><trkpt lat="45.029733711647815" lon="9.405433466428626"><ele>101.33333333333334</ele><time>2026-04-23T16:37:21.998Z</time></trkpt><trkpt lat="45.02988784106207" lon="9.405457363047656"><ele>102.0</ele><time>2026-04-23T16:37:22.998Z</time></trkpt><trkpt lat="45.0300549912947" lon="9.405476318638776"><ele>102.33333333333334</ele><time>2026-04-23T16:37:23.998Z</time></trkpt><trkpt lat="45.03024977947963" lon="9.405485175707318"><ele>102.66666666666667</ele><time>2026-04-23T16:37:25Z</time></trkpt><trkpt lat="45.0304455769053" lon="9.405497238914089"><ele>103.0</ele><time>2026-04-23T16:37:26Z</time></trkpt><trkpt lat="45.03065183363479" lon="9.405511400515792"><ele>101.33333333333334</ele><time>2026-04-23T16:37:27Z</time></trkpt><trkpt lat="45.03086066823614" lon="9.40552587804049"><ele>99.66666666666666</ele><time>2026-04-23T16:37:28Z</time></trkpt><trkpt lat="45.031046468727475" lon="9.40554004803673"><ele>98.0</ele><time>2026-04-23T16:37:29Z</time></trkpt><trkpt lat="45.03122218336178" lon="9.40555104810276"><ele>98.0</ele><time>2026-04-23T16:37:30Z</time></trkpt><trkpt lat="45.0313864372224" lon="9.40556266801316"><ele>98.0</ele><time>2026-04-23T16:37:31Z</time></trkpt><trkpt lat="45.03153792056022" lon="9.40559111507111"><ele>98.0</ele><time>2026-04-23T16:37:32Z</time></trkpt><trkpt lat="45.03169761035547" lon="9.405646060622578"><ele>98.0</ele><time>2026-04-23T16:37:33Z</time></trkpt><trkpt lat="45.03187143892205" lon="9.405730042729852"><ele>98.0</ele><time>2026-04-23T16:37:34Z</time></trkpt><trkpt lat="45.03205364509221" lon="9.405829358576323"><ele>98.0</ele><time>2026-04-23T16:37:35Z</time></trkpt><trkpt lat="45.032236560939324" lon="9.405920646367674"><ele>98.0</ele><time>2026-04-23T16:37:36Z</time></trkpt><trkpt lat="45.032402886413536" lon="9.406001286090387"><ele>98.0</ele><time>2026-04-23T16:37:37Z</time></trkpt><trkpt lat="45.03256524571339" lon="9.406077637034976"><ele>98.0</ele><time>2026-04-23T16:37:38Z</time></trkpt><trkpt lat="45.032722337201925" lon="9.406152950282474"><ele>98.0</ele><time>2026-04-23T16:37:39Z</time></trkpt><trkpt lat="45.0328804750062" lon="9.406228341934039"><ele>98.0</ele><time>2026-04-23T16:37:40Z</time></trkpt><trkpt lat="45.033031371407574" lon="9.406302185187482"><ele>98.0</ele><time>2026-04-23T16:37:41Z</time></trkpt><trkpt lat="45.033193070017276" lon="9.406380908664573"><ele>98.0</ele><time>2026-04-23T16:37:42Z</time></trkpt><trkpt lat="45.033360440458445" lon="9.406453836826048"><ele>98.0</ele><time>2026-04-23T16:37:43Z</time></trkpt><trkpt lat="45.03351980232776" lon="9.406525176053162"><ele>98.0</ele><time>2026-04-23T16:37:44Z</time></trkpt><trkpt lat="45.03367542452014" lon="9.406598701929294"><ele>98.0</ele><time>2026-04-23T16:37:45Z</time></trkpt><trkpt lat="45.03382362319043" lon="9.406670931932373"><ele>98.0</ele><time>2026-04-23T16:37:46Z</time></trkpt><trkpt lat="45.033960771642626" lon="9.406738022219342"><ele>98.0</ele><time>2026-04-23T16:37:47Z</time></trkpt><trkpt lat="45.03408080366525" lon="9.406798282648994"><ele>98.0</ele><time>2026-04-23T16:37:48Z</time></trkpt><trkpt lat="45.0341956395308" lon="9.406851854907883"><ele>98.60000000000001</ele><time>2026-04-23T16:37:49Z</time></trkpt><trkpt lat="45.03430198681601" lon="9.406894863957735"><ele>99.2</ele><time>2026-04-23T16:37:50Z</time></trkpt><trkpt lat="45.034414739155764" lon="9.406944178799295"><ele>99.8</ele><time>2026-04-23T16:37:51Z</time></trkpt><trkpt lat="45.03451507702719" lon="9.406994068768867"><ele>100.4</ele><time>2026-04-23T16:37:52Z</time></trkpt><trkpt lat="45.03461185081647" lon="9.407045019106118"><ele>101.0</ele><time>2026-04-23T16:37:53Z</time></trkpt><trkpt lat="45.03469671454749" lon="9.407102979676603"><ele>101.0</ele><time>2026-04-23T16:37:54Z</time></trkpt><trkpt lat="45.03477865224723" lon="9.407160291315982"><ele>101.0</ele><time>2026-04-23T16:37:55Z</time></trkpt><trkpt lat="45.03485111290857" lon="9.407195695600622"><ele>101.0</ele><time>2026-04-23T16:37:56Z</time></trkpt><trkpt lat="45.034917202966334" lon="9.407212112787482"><ele>101.0</ele><time>2026-04-23T16:37:57Z</time></trkpt><trkpt lat="45.03502038452033" lon="9.407210797906767"><ele>101.0</ele><time>2026-04-23T16:37:59Z</time></trkpt><trkpt lat="45.035155610753534" lon="9.407144546919463"><ele>100.6</ele><time>2026-04-23T16:38:01Z</time></trkpt><trkpt lat="45.035246596301555" lon="9.407124693736833"><ele>100.19999999999999</ele><time>2026-04-23T16:38:03Z</time></trkpt><trkpt lat="45.03537741746399" lon="9.407147429074527"><ele>99.80000000000001</ele><time>2026-04-23T16:38:05Z</time></trkpt><trkpt lat="45.035452757318716" lon="9.407156179548567"><ele>99.4</ele><time>2026-04-23T16:38:06Z</time></trkpt><trkpt lat="45.0355320101654" lon="9.407148880328625"><ele>99.0</ele><time>2026-04-23T16:38:07Z</time></trkpt><trkpt lat="45.035619510147555" lon="9.407142563784534"><ele>99.0</ele><time>2026-04-23T16:38:08Z</time></trkpt><trkpt lat="45.03571728483128" lon="9.40713117303673"><ele>99.0</ele><time>2026-04-23T16:38:09Z</time></trkpt><trkpt lat="45.03581606512975" lon="9.40712463604104"><ele>99.0</ele><time>2026-04-23T16:38:09.999Z</time></trkpt><trkpt lat="45.03591267622433" lon="9.407114236650271"><ele>99.0</ele><time>2026-04-23T16:38:10.999Z</time></trkpt><trkpt lat="45.03600685177213" lon="9.407107320776491"><ele>99.0</ele><time>2026-04-23T16:38:11.999Z</time></trkpt><trkpt lat="45.0360988201769" lon="9.407100613642504"><ele>98.80000000000001</ele><time>2026-04-23T16:38:12.999Z</time></trkpt><trkpt lat="45.03618311593324" lon="9.407096158328542"><ele>98.60000000000001</ele><time>2026-04-23T16:38:13.999Z</time></trkpt><trkpt lat="45.03625515368789" lon="9.407089018626268"><ele>98.4</ele><time>2026-04-23T16:38:14.999Z</time></trkpt><trkpt lat="45.0363221787296" lon="9.407084293800393"><ele>98.2</ele><time>2026-04-23T16:38:15.999Z</time></trkpt><trkpt lat="45.036442500130214" lon="9.40708761395523"><ele>98.0</ele><time>2026-04-23T16:38:17.999Z</time></trkpt><trkpt lat="45.03655369386894" lon="9.407078913189947"><ele>98.0</ele><time>2026-04-23T16:38:19.999Z</time></trkpt><trkpt lat="45.03662498128906" lon="9.407074751355061"><ele>98.0</ele><time>2026-04-23T16:38:20.999Z</time></trkpt><trkpt lat="45.036703235904916" lon="9.407068811671245"><ele>98.0</ele><time>2026-04-23T16:38:21.999Z</time></trkpt><trkpt lat="45.036818151059066" lon="9.407050542350852"><ele>98.0</ele><time>2026-04-23T16:38:23.999Z</time></trkpt><trkpt lat="45.036939105046855" lon="9.40701990470727"><ele>98.0</ele><time>2026-04-23T16:38:25.999Z</time></trkpt><trkpt lat="45.037052306892164" lon="9.40697545474367"><ele>97.80000000000001</ele><time>2026-04-23T16:38:27.999Z</time></trkpt><trkpt lat="45.0371408992205" lon="9.406971387905488"><ele>97.6</ele><time>2026-04-23T16:38:28.999Z</time></trkpt><trkpt lat="45.037246063003984" lon="9.406988147274843"><ele>97.4</ele><time>2026-04-23T16:38:29.999Z</time></trkpt><trkpt lat="45.03735783575095" lon="9.407015434107194"><ele>97.19999999999999</ele><time>2026-04-23T16:38:30.999Z</time></trkpt><trkpt lat="45.037458334712504" lon="9.407062794003105"><ele>97.0</ele><time>2026-04-23T16:38:31.999Z</time></trkpt><trkpt lat="45.03755493057337" lon="9.407145846281681"><ele>96.66666666666667</ele><time>2026-04-23T16:38:32.999Z</time></trkpt><trkpt lat="45.0376761622867" lon="9.407254451823738"><ele>96.33333333333334</ele><time>2026-04-23T16:38:33.999Z</time></trkpt><trkpt lat="45.03782720576491" lon="9.407387856644974"><ele>96.0</ele><time>2026-04-23T16:38:34.999Z</time></trkpt><trkpt lat="45.0379548817085" lon="9.407489878386984"><ele>96.0</ele><time>2026-04-23T16:38:35.999Z</time></trkpt><trkpt lat="45.038069519288456" lon="9.407578645368675"><ele>96.0</ele><time>2026-04-23T16:38:36.999Z</time></trkpt><trkpt lat="45.03816921651419" lon="9.407656901909027"><ele>96.0</ele><time>2026-04-23T16:38:37.999Z</time></trkpt><trkpt lat="45.03826107401114" lon="9.407721928927943"><ele>96.0</ele><time>2026-04-23T16:38:38.999Z</time></trkpt><trkpt lat="45.03834945232183" lon="9.40778124231393"><ele>96.0</ele><time>2026-04-23T16:38:39.999Z</time></trkpt><trkpt lat="45.0384403664809" lon="9.40786280900047"><ele>95.8</ele><time>2026-04-23T16:38:40.999Z</time></trkpt><trkpt lat="45.03853449761715" lon="9.407944222746139"><ele>95.6</ele><time>2026-04-23T16:38:41.999Z</time></trkpt><trkpt lat="45.038631660123045" lon="9.408020298105905"><ele>95.4</ele><time>2026-04-23T16:38:42.999Z</time></trkpt><trkpt lat="45.03871973622381" lon="9.408082674765739"><ele>95.2</ele><time>2026-04-23T16:38:43.999Z</time></trkpt><trkpt lat="45.038788939658495" lon="9.408142172559229"><ele>95.0</ele><time>2026-04-23T16:38:44.999Z</time></trkpt><trkpt lat="45.03886478076001" lon="9.40820870726301"><ele>95.0</ele><time>2026-04-23T16:38:45.999Z</time></trkpt><trkpt lat="45.03896196291626" lon="9.408282456268681"><ele>95.0</ele><time>2026-04-23T16:38:46.999Z</time></trkpt><trkpt lat="45.03908395717099" lon="9.408368657785587"><ele>95.0</ele><time>2026-04-23T16:38:47.999Z</time></trkpt><trkpt lat="45.039201779960926" lon="9.4084633481593"><ele>95.0</ele><time>2026-04-23T16:38:48.999Z</time></trkpt><trkpt lat="45.039305608911" lon="9.408550056733713"><ele>95.2</ele><time>2026-04-23T16:38:49.999Z</time></trkpt><trkpt lat="45.03939993503104" lon="9.408631933099596"><ele>95.4</ele><time>2026-04-23T16:38:50.999Z</time></trkpt><trkpt lat="45.039491251065506" lon="9.408702177022686"><ele>95.6</ele><time>2026-04-23T16:38:51.999Z</time></trkpt><trkpt lat="45.03958363175141" lon="9.408770692985623"><ele>95.8</ele><time>2026-04-23T16:38:52.999Z</time></trkpt><trkpt lat="45.03968087379088" lon="9.408845046006054"><ele>96.0</ele><time>2026-04-23T16:38:53.999Z</time></trkpt><trkpt lat="45.039769418234656" lon="9.408901748112033"><ele>95.5</ele><time>2026-04-23T16:38:54.999Z</time></trkpt><trkpt lat="45.039847332576464" lon="9.40895084540584"><ele>95.0</ele><time>2026-04-23T16:38:55.999Z</time></trkpt><trkpt lat="45.039914340009894" lon="9.408987373789804"><ele>94.5</ele><time>2026-04-23T16:38:56.999Z</time></trkpt><trkpt lat="45.03998843839358" lon="9.409015689116874"><ele>94.0</ele><time>2026-04-23T16:38:58.999Z</time></trkpt><trkpt lat="45.0400251044831" lon="9.409111233301033"><ele>93.5</ele><time>2026-04-23T16:39:08.999Z</time></trkpt><trkpt lat="45.039995942115794" lon="9.409266172514295"><ele>93.0</ele><time>2026-04-23T16:39:10.999Z</time></trkpt><trkpt lat="45.03996811364437" lon="9.409392148938887"><ele>93.0</ele><time>2026-04-23T16:39:11.999Z</time></trkpt><trkpt lat="45.03993769865037" lon="9.409570883561143"><ele>93.0</ele><time>2026-04-23T16:39:12.999Z</time></trkpt><trkpt lat="45.03990675614868" lon="9.40978075015028"><ele>93.0</ele><time>2026-04-23T16:39:13.999Z</time></trkpt><trkpt lat="45.039864113764494" lon="9.410006579841927"><ele>93.0</ele><time>2026-04-23T16:39:14.999Z</time></trkpt><trkpt lat="45.03982009896453" lon="9.410211645734838"><ele>92.25</ele><time>2026-04-23T16:39:15.999Z</time></trkpt><trkpt lat="45.03978072030552" lon="9.410380829594459"><ele>91.5</ele><time>2026-04-23T16:39:16.999Z</time></trkpt><trkpt lat="45.03974144043758" lon="9.410538436186531"><ele>90.75</ele><time>2026-04-23T16:39:17.999Z</time></trkpt><trkpt lat="45.03970069821408" lon="9.410687475061737"><ele>90.0</ele><time>2026-04-23T16:39:18.999Z</time></trkpt><trkpt lat="45.039662257600305" lon="9.410817324665766"><ele>89.8</ele><time>2026-04-23T16:39:19.999Z</time></trkpt><trkpt lat="45.03962941357639" lon="9.410941255643285"><ele>89.6</ele><time>2026-04-23T16:39:20.998Z</time></trkpt><trkpt lat="45.03958791388389" lon="9.411069226036728"><ele>89.4</ele><time>2026-04-23T16:39:21.998Z</time></trkpt><trkpt lat="45.039541029359654" lon="9.411209751733427"><ele>89.2</ele><time>2026-04-23T16:39:22.998Z</time></trkpt><trkpt lat="45.03949609540783" lon="9.411342810843086"><ele>89.0</ele><time>2026-04-23T16:39:23.998Z</time></trkpt><trkpt lat="45.03946135116737" lon="9.411446130197605"><ele>89.0</ele><time>2026-04-23T16:39:24.998Z</time></trkpt><trkpt lat="45.0394193299294" lon="9.41153664251433"><ele>89.0</ele><time>2026-04-23T16:39:25.998Z</time></trkpt><trkpt lat="45.03939111022402" lon="9.41162654432625"><ele>89.0</ele><time>2026-04-23T16:39:26.998Z</time></trkpt><trkpt lat="45.0393527799935" lon="9.411731493009283"><ele>89.0</ele><time>2026-04-23T16:39:27.998Z</time></trkpt><trkpt lat="45.03931299430006" lon="9.411855887882771"><ele>89.0</ele><time>2026-04-23T16:39:28.998Z</time></trkpt><trkpt lat="45.03925808186155" lon="9.412008155667925"><ele>89.0</ele><time>2026-04-23T16:39:29.998Z</time></trkpt><trkpt lat="45.039204376336635" lon="9.412156674630497"><ele>88.83333333333334</ele><time>2026-04-23T16:39:31Z</time></trkpt><trkpt lat="45.03915722778409" lon="9.412273219875537"><ele>88.66666666666667</ele><time>2026-04-23T16:39:32Z</time></trkpt><trkpt lat="45.03910978544146" lon="9.412361778549448"><ele>88.5</ele><time>2026-04-23T16:39:33Z</time></trkpt><trkpt lat="45.03907073328603" lon="9.412449672274969"><ele>88.33333333333333</ele><time>2026-04-23T16:39:34Z</time></trkpt><trkpt lat="45.039039395641694" lon="9.41252714516838"><ele>88.16666666666666</ele><time>2026-04-23T16:39:35Z</time></trkpt><trkpt lat="45.03902912831797" lon="9.412633080522692"><ele>88.0</ele><time>2026-04-23T16:39:38Z</time></trkpt><trkpt lat="45.03913318804912" lon="9.412643510260116"><ele>88.0</ele><time>2026-04-23T16:39:43Z</time></trkpt><trkpt lat="45.039205750686875" lon="9.412589014983586"><ele>88.0</ele><time>2026-04-23T16:39:44Z</time></trkpt><trkpt lat="45.03929382664071" lon="9.412546038768598"><ele>88.0</ele><time>2026-04-23T16:39:45Z</time></trkpt><trkpt lat="45.0393967272536" lon="9.412515512327682"><ele>88.0</ele><time>2026-04-23T16:39:46Z</time></trkpt><trkpt lat="45.03949665396209" lon="9.412472472523126"><ele>88.0</ele><time>2026-04-23T16:39:47Z</time></trkpt><trkpt lat="45.03958152893088" lon="9.412448156738416"><ele>88.0</ele><time>2026-04-23T16:39:48Z</time></trkpt><trkpt lat="45.03966013361438" lon="9.412425113225202"><ele>88.0</ele><time>2026-04-23T16:39:49Z</time></trkpt><trkpt lat="45.03973886665288" lon="9.412423631873539"><ele>88.0</ele><time>2026-04-23T16:39:50Z</time></trkpt><trkpt lat="45.03980998800013" lon="9.412461553024247"><ele>88.0</ele><time>2026-04-23T16:39:51Z</time></trkpt><trkpt lat="45.03986904927206" lon="9.412529851930472"><ele>88.0</ele><time>2026-04-23T16:39:52Z</time></trkpt><trkpt lat="45.03992741683718" lon="9.412599530276243"><ele>88.0</ele><time>2026-04-23T16:39:53Z</time></trkpt><trkpt lat="45.04000780235957" lon="9.412681885374703"><ele>88.0</ele><time>2026-04-23T16:39:54Z</time></trkpt><trkpt lat="45.04009803147393" lon="9.412776572380023"><ele>88.0</ele><time>2026-04-23T16:39:55Z</time></trkpt><trkpt lat="45.04018504421756" lon="9.412882580875884"><ele>88.0</ele><time>2026-04-23T16:39:56Z</time></trkpt><trkpt lat="45.04026271840212" lon="9.412945198433013"><ele>88.0</ele><time>2026-04-23T16:39:57Z</time></trkpt><trkpt lat="45.04034552577309" lon="9.413025704625966"><ele>88.0</ele><time>2026-04-23T16:39:58Z</time></trkpt><trkpt lat="45.04043507664713" lon="9.413100403193358"><ele>88.0</ele><time>2026-04-23T16:39:59Z</time></trkpt><trkpt lat="45.040516004085205" lon="9.413184152946089"><ele>88.0</ele><time>2026-04-23T16:40:00Z</time></trkpt><trkpt lat="45.040596379639204" lon="9.413265852134435"><ele>88.0</ele><time>2026-04-23T16:40:01Z</time></trkpt><trkpt lat="45.0406767695726" lon="9.413343777019936"><ele>88.0</ele><time>2026-04-23T16:40:02Z</time></trkpt><trkpt lat="45.04076072690039" lon="9.413425001488529"><ele>88.0</ele><time>2026-04-23T16:40:03Z</time></trkpt><trkpt lat="45.04084803059169" lon="9.413510716647608"><ele>88.0</ele><time>2026-04-23T16:40:04Z</time></trkpt><trkpt lat="45.04094540544022" lon="9.413602942078002"><ele>88.0</ele><time>2026-04-23T16:40:05Z</time></trkpt><trkpt lat="45.04103280790066" lon="9.413696571744909"><ele>88.0</ele><time>2026-04-23T16:40:06Z</time></trkpt><trkpt lat="45.04111494760391" lon="9.413787385166726"><ele>88.0</ele><time>2026-04-23T16:40:07Z</time></trkpt><trkpt lat="45.04119600260672" lon="9.413871629299942"><ele>88.0</ele><time>2026-04-23T16:40:08Z</time></trkpt><trkpt lat="45.04127489975831" lon="9.413944967670576"><ele>88.0</ele><time>2026-04-23T16:40:09Z</time></trkpt><trkpt lat="45.04133641889354" lon="9.414019748183152"><ele>88.0</ele><time>2026-04-23T16:40:10Z</time></trkpt><trkpt lat="45.041393478714795" lon="9.4140975151612"><ele>88.0</ele><time>2026-04-23T16:40:11Z</time></trkpt><trkpt lat="45.04144059587846" lon="9.414171279941828"><ele>88.0</ele><time>2026-04-23T16:40:12Z</time></trkpt><trkpt lat="45.04148973777611" lon="9.414228073974057"><ele>88.0</ele><time>2026-04-23T16:40:13Z</time></trkpt><trkpt lat="45.04154156665078" lon="9.414281885423126"><ele>88.0</ele><time>2026-04-23T16:40:14Z</time></trkpt><trkpt lat="45.04160204131051" lon="9.414350231456984"><ele>88.0</ele><time>2026-04-23T16:40:15Z</time></trkpt><trkpt lat="45.041666747095235" lon="9.414406699230131"><ele>88.0</ele><time>2026-04-23T16:40:16Z</time></trkpt><trkpt lat="45.04174371092261" lon="9.414443145664444"><ele>88.0</ele><time>2026-04-23T16:40:17Z</time></trkpt><trkpt lat="45.041829806999665" lon="9.414490360481226"><ele>88.0</ele><time>2026-04-23T16:40:18Z</time></trkpt><trkpt lat="45.04192654364095" lon="9.414542555985077"><ele>88.0</ele><time>2026-04-23T16:40:18.999Z</time></trkpt><trkpt lat="45.04200295709169" lon="9.414600634941841"><ele>88.0</ele><time>2026-04-23T16:40:19.999Z</time></trkpt><trkpt lat="45.042064848188495" lon="9.414647610294853"><ele>88.0</ele><time>2026-04-23T16:40:20.999Z</time></trkpt><trkpt lat="45.04212781177241" lon="9.41467612362384"><ele>88.0</ele><time>2026-04-23T16:40:21.999Z</time></trkpt><trkpt lat="45.042251013532486" lon="9.414740317508056"><ele>88.0</ele><time>2026-04-23T16:40:23.999Z</time></trkpt><trkpt lat="45.04231786734679" lon="9.414769537968649"><ele>88.0</ele><time>2026-04-23T16:40:24.999Z</time></trkpt><trkpt lat="45.042389800328344" lon="9.414803096219483"><ele>88.0</ele><time>2026-04-23T16:40:25.999Z</time></trkpt><trkpt lat="45.042468139305605" lon="9.414839145453712"><ele>88.0</ele><time>2026-04-23T16:40:26.999Z</time></trkpt><trkpt lat="45.04253857889073" lon="9.414873489022932"><ele>88.0</ele><time>2026-04-23T16:40:27.999Z</time></trkpt><trkpt lat="45.04261025895101" lon="9.414903329238667"><ele>88.16666666666666</ele><time>2026-04-23T16:40:28.999Z</time></trkpt><trkpt lat="45.0426793362828" lon="9.41494013147965"><ele>88.33333333333333</ele><time>2026-04-23T16:40:29.999Z</time></trkpt><trkpt lat="45.042744203939" lon="9.414972976616104"><ele>88.5</ele><time>2026-04-23T16:40:30.999Z</time></trkpt><trkpt lat="45.0428073447865" lon="9.415001806460031"><ele>88.66666666666667</ele><time>2026-04-23T16:40:31.999Z</time></trkpt><trkpt lat="45.042878965875005" lon="9.414999658834995"><ele>88.83333333333334</ele><time>2026-04-23T16:40:32.999Z</time></trkpt><trkpt lat="45.042951097556966" lon="9.414984198135555"><ele>89.0</ele><time>2026-04-23T16:40:33.999Z</time></trkpt><trkpt lat="45.043070900096815" lon="9.415043611684606"><ele>89.0</ele><time>2026-04-23T16:40:35.999Z</time></trkpt><trkpt lat="45.04313313455033" lon="9.415100706196693"><ele>89.0</ele><time>2026-04-23T16:40:36.999Z</time></trkpt><trkpt lat="45.04321182563274" lon="9.41515518436514"><ele>89.0</ele><time>2026-04-23T16:40:37.999Z</time></trkpt><trkpt lat="45.043309805335696" lon="9.41519693642911"><ele>89.0</ele><time>2026-04-23T16:40:38.999Z</time></trkpt><trkpt lat="45.04341191342389" lon="9.415253265330852"><ele>89.0</ele><time>2026-04-23T16:40:39.999Z</time></trkpt><trkpt lat="45.04351591473716" lon="9.415315802431603"><ele>88.5</ele><time>2026-04-23T16:40:40.999Z</time></trkpt><trkpt lat="45.04363545203909" lon="9.41537315185033"><ele>88.0</ele><time>2026-04-23T16:40:41.999Z</time></trkpt><trkpt lat="45.04374893982855" lon="9.415422901283842"><ele>87.5</ele><time>2026-04-23T16:40:42.999Z</time></trkpt><trkpt lat="45.043855192939" lon="9.415477765733428"><ele>87.0</ele><time>2026-04-23T16:40:43.999Z</time></trkpt><trkpt lat="45.043965089355794" lon="9.415531517649056"><ele>87.0</ele><time>2026-04-23T16:40:44.999Z</time></trkpt><trkpt lat="45.04407419372483" lon="9.41558502950478"><ele>87.0</ele><time>2026-04-23T16:40:45.999Z</time></trkpt><trkpt lat="45.04417427086244" lon="9.41563218851937"><ele>87.0</ele><time>2026-04-23T16:40:46.999Z</time></trkpt><trkpt lat="45.04426949823369" lon="9.415677750982853"><ele>87.0</ele><time>2026-04-23T16:40:47.999Z</time></trkpt><trkpt lat="45.04435688358369" lon="9.415721617230023"><ele>87.0</ele><time>2026-04-23T16:40:48.999Z</time></trkpt><trkpt lat="45.04444117207038" lon="9.415767258230243"><ele>87.0</ele><time>2026-04-23T16:40:49.999Z</time></trkpt><trkpt lat="45.044523202380525" lon="9.41581412371429"><ele>87.0</ele><time>2026-04-23T16:40:50.999Z</time></trkpt><trkpt lat="45.04460684467349" lon="9.415857796691865"><ele>87.0</ele><time>2026-04-23T16:40:51.999Z</time></trkpt><trkpt lat="45.044691783401404" lon="9.415897948384083"><ele>87.0</ele><time>2026-04-23T16:40:52.999Z</time></trkpt><trkpt lat="45.04477339219735" lon="9.415934410392302"><ele>87.0</ele><time>2026-04-23T16:40:53.999Z</time></trkpt><trkpt lat="45.044869272719254" lon="9.41595670232267"><ele>86.75</ele><time>2026-04-23T16:40:54.999Z</time></trkpt><trkpt lat="45.04496891076704" lon="9.415956799370218"><ele>86.5</ele><time>2026-04-23T16:40:55.999Z</time></trkpt><trkpt lat="45.04509028330294" lon="9.415925221321181"><ele>86.25</ele><time>2026-04-23T16:40:56.999Z</time></trkpt><trkpt lat="45.045216145816795" lon="9.4158684987557"><ele>86.0</ele><time>2026-04-23T16:40:57.999Z</time></trkpt><trkpt lat="45.045343966920875" lon="9.415814761446793"><ele>86.0</ele><time>2026-04-23T16:40:58.999Z</time></trkpt><trkpt lat="45.04546689426898" lon="9.415770569731233"><ele>86.0</ele><time>2026-04-23T16:40:59.999Z</time></trkpt><trkpt lat="45.045589269453465" lon="9.415715357840073"><ele>86.0</ele><time>2026-04-23T16:41:00.999Z</time></trkpt><trkpt lat="45.04571373923814" lon="9.415661647039471"><ele>86.0</ele><time>2026-04-23T16:41:01.999Z</time></trkpt><trkpt lat="45.04584265833017" lon="9.415605941680496"><ele>85.75</ele><time>2026-04-23T16:41:02.999Z</time></trkpt><trkpt lat="45.04595864829855" lon="9.41556127509476"><ele>85.5</ele><time>2026-04-23T16:41:03.999Z</time></trkpt><trkpt lat="45.04606670212552" lon="9.415546648520614"><ele>85.25</ele><time>2026-04-23T16:41:04.999Z</time></trkpt><trkpt lat="45.04618625490762" lon="9.415575114160015"><ele>85.0</ele><time>2026-04-23T16:41:05.999Z</time></trkpt><trkpt lat="45.04630859696743" lon="9.415631198829267"><ele>85.0</ele><time>2026-04-23T16:41:06.999Z</time></trkpt><trkpt lat="45.04642939743077" lon="9.415679666133661"><ele>85.0</ele><time>2026-04-23T16:41:07.999Z</time></trkpt><trkpt lat="45.04655436707922" lon="9.415715809937938"><ele>85.0</ele><time>2026-04-23T16:41:08.999Z</time></trkpt><trkpt lat="45.04666462254454" lon="9.41575200526988"><ele>85.0</ele><time>2026-04-23T16:41:09.999Z</time></trkpt><trkpt lat="45.046769111222915" lon="9.415794828297756"><ele>85.0</ele><time>2026-04-23T16:41:10.999Z</time></trkpt><trkpt lat="45.04686539409073" lon="9.41582684997617"><ele>85.0</ele><time>2026-04-23T16:41:11.999Z</time></trkpt><trkpt lat="45.046952905530695" lon="9.415853901238245"><ele>85.0</ele><time>2026-04-23T16:41:12.999Z</time></trkpt><trkpt lat="45.047029516230744" lon="9.415864512427486"><ele>85.0</ele><time>2026-04-23T16:41:13.999Z</time></trkpt><trkpt lat="45.04709927633494" lon="9.415878770020097"><ele>85.0</ele><time>2026-04-23T16:41:14.999Z</time></trkpt><trkpt lat="45.04716365330447" lon="9.415855882799775"><ele>85.0</ele><time>2026-04-23T16:41:15.999Z</time></trkpt><trkpt lat="45.047217480024926" lon="9.415793410435665"><ele>85.0</ele><time>2026-04-23T16:41:16.999Z</time></trkpt><trkpt lat="45.04722019659198" lon="9.41565359743586"><ele>85.0</ele><time>2026-04-23T16:41:17.999Z</time></trkpt><trkpt lat="45.04725220895907" lon="9.41551470254721"><ele>85.0</ele><time>2026-04-23T16:41:18.999Z</time></trkpt><trkpt lat="45.04725472022295" lon="9.415363621484362"><ele>85.0</ele><time>2026-04-23T16:41:19.999Z</time></trkpt><trkpt lat="45.047284172479294" lon="9.41522965174474"><ele>85.0</ele><time>2026-04-23T16:41:20.999Z</time></trkpt><trkpt lat="45.04730588589312" lon="9.415110958602016"><ele>84.8</ele><time>2026-04-23T16:41:21.999Z</time></trkpt><trkpt lat="45.04733710919675" lon="9.415004672810005"><ele>84.6</ele><time>2026-04-23T16:41:22.999Z</time></trkpt><trkpt lat="45.04742594183236" lon="9.41498201642615"><ele>84.4</ele><time>2026-04-23T16:41:23.999Z</time></trkpt><trkpt lat="45.0475286167234" lon="9.41496619148612"><ele>84.2</ele><time>2026-04-23T16:41:24.999Z</time></trkpt><trkpt lat="45.04764271372179" lon="9.414937649044688"><ele>84.0</ele><time>2026-04-23T16:41:25.999Z</time></trkpt><trkpt lat="45.04777467288403" lon="9.414931921774516"><ele>83.5</ele><time>2026-04-23T16:41:26.999Z</time></trkpt><trkpt lat="45.04792874418347" lon="9.414926177244917"><ele>83.0</ele><time>2026-04-23T16:41:27.999Z</time></trkpt><trkpt lat="45.048063315012975" lon="9.414904510887347"><ele>82.5</ele><time>2026-04-23T16:41:28.999Z</time></trkpt><trkpt lat="45.048164269098635" lon="9.414854486081893"><ele>82.0</ele><time>2026-04-23T16:41:29.999Z</time></trkpt><trkpt lat="45.04826801609744" lon="9.414832819441092"><ele>81.6</ele><time>2026-04-23T16:41:30.998Z</time></trkpt><trkpt lat="45.048341369638834" lon="9.414820099267864"><ele>81.19999999999999</ele><time>2026-04-23T16:41:31.998Z</time></trkpt><trkpt lat="45.048422970541985" lon="9.414772236737084"><ele>80.8</ele><time>2026-04-23T16:41:33.998Z</time></trkpt><trkpt lat="45.04855989683125" lon="9.414807860800789"><ele>80.4</ele><time>2026-04-23T16:41:38Z</time></trkpt><trkpt lat="45.04864806063938" lon="9.414894590672043"><ele>80.0</ele><time>2026-04-23T16:41:39Z</time></trkpt><trkpt lat="45.04874574521789" lon="9.4149845103522"><ele>80.0</ele><time>2026-04-23T16:41:40Z</time></trkpt><trkpt lat="45.0488626259093" lon="9.415081231514177"><ele>80.0</ele><time>2026-04-23T16:41:41Z</time></trkpt><trkpt lat="45.04898449558207" lon="9.415176589705538"><ele>80.0</ele><time>2026-04-23T16:41:42Z</time></trkpt><trkpt lat="45.04911442738284" lon="9.41528404907081"><ele>80.0</ele><time>2026-04-23T16:41:43Z</time></trkpt><trkpt lat="45.049245052046" lon="9.41538652716062"><ele>80.0</ele><time>2026-04-23T16:41:44Z</time></trkpt><trkpt lat="45.04937764302938" lon="9.41549535087102"><ele>80.0</ele><time>2026-04-23T16:41:45Z</time></trkpt><trkpt lat="45.04950479435908" lon="9.415627313894129"><ele>80.0</ele><time>2026-04-23T16:41:46Z</time></trkpt><trkpt lat="45.049620730520715" lon="9.415788995383203"><ele>80.0</ele><time>2026-04-23T16:41:47Z</time></trkpt><trkpt lat="45.049745238446675" lon="9.415957285584875"><ele>80.0</ele><time>2026-04-23T16:41:48Z</time></trkpt><trkpt lat="45.04986413961749" lon="9.416121915256735"><ele>80.0</ele><time>2026-04-23T16:41:49Z</time></trkpt><trkpt lat="45.04997811978993" lon="9.416289606950023"><ele>80.66666666666667</ele><time>2026-04-23T16:41:50Z</time></trkpt><trkpt lat="45.050093578861635" lon="9.416447868689147"><ele>81.33333333333333</ele><time>2026-04-23T16:41:51Z</time></trkpt><trkpt lat="45.05020799530584" lon="9.416612385823434"><ele>82.0</ele><time>2026-04-23T16:41:52Z</time></trkpt><trkpt lat="45.05033005476323" lon="9.416777223006646"><ele>82.0</ele><time>2026-04-23T16:41:53Z</time></trkpt><trkpt lat="45.05044994688798" lon="9.416934609064747"><ele>82.0</ele><time>2026-04-23T16:41:54Z</time></trkpt><trkpt lat="45.05057284059988" lon="9.41708711261981"><ele>82.0</ele><time>2026-04-23T16:41:55Z</time></trkpt><trkpt lat="45.05069993379329" lon="9.417242421482644"><ele>82.33333333333333</ele><time>2026-04-23T16:41:56Z</time></trkpt><trkpt lat="45.0508218929934" lon="9.417397133996063"><ele>82.66666666666667</ele><time>2026-04-23T16:41:57Z</time></trkpt><trkpt lat="45.050948156526644" lon="9.417549721187832"><ele>83.0</ele><time>2026-04-23T16:41:58Z</time></trkpt><trkpt lat="45.051070423447435" lon="9.417698825419297"><ele>83.0</ele><time>2026-04-23T16:41:59Z</time></trkpt><trkpt lat="45.05119085988682" lon="9.417843689035502"><ele>83.0</ele><time>2026-04-23T16:42:00Z</time></trkpt><trkpt lat="45.051310455057866" lon="9.417989677455067"><ele>83.0</ele><time>2026-04-23T16:42:01Z</time></trkpt><trkpt lat="45.05142776477453" lon="9.418133605535472"><ele>83.0</ele><time>2026-04-23T16:42:02Z</time></trkpt><trkpt lat="45.05154631113399" lon="9.418272674448819"><ele>83.0</ele><time>2026-04-23T16:42:03Z</time></trkpt><trkpt lat="45.05166280398921" lon="9.418394586177392"><ele>83.0</ele><time>2026-04-23T16:42:04Z</time></trkpt><trkpt lat="45.05177756926624" lon="9.418527567795707"><ele>83.0</ele><time>2026-04-23T16:42:05Z</time></trkpt><trkpt lat="45.051891757256435" lon="9.418662642057622"><ele>83.0</ele><time>2026-04-23T16:42:06Z</time></trkpt><trkpt lat="45.05200230696684" lon="9.418798514443653"><ele>83.0</ele><time>2026-04-23T16:42:07Z</time></trkpt><trkpt lat="45.05211500297796" lon="9.418936428429"><ele>83.0</ele><time>2026-04-23T16:42:08Z</time></trkpt><trkpt lat="45.052236103431284" lon="9.419070972775284"><ele>83.0</ele><time>2026-04-23T16:42:09Z</time></trkpt><trkpt lat="45.05233500010672" lon="9.41920555829683"><ele>83.0</ele><time>2026-04-23T16:42:10Z</time></trkpt><trkpt lat="45.05243817198104" lon="9.419342664208262"><ele>83.0</ele><time>2026-04-23T16:42:11Z</time></trkpt><trkpt lat="45.052542338462494" lon="9.419476183936636"><ele>83.0</ele><time>2026-04-23T16:42:11.999Z</time></trkpt><trkpt lat="45.05264461107496" lon="9.419606402606945"><ele>83.0</ele><time>2026-04-23T16:42:12.999Z</time></trkpt><trkpt lat="45.05275474889954" lon="9.419725780373891"><ele>82.25</ele><time>2026-04-23T16:42:13.999Z</time></trkpt><trkpt lat="45.05285378355333" lon="9.419843280846605"><ele>81.5</ele><time>2026-04-23T16:42:14.999Z</time></trkpt><trkpt lat="45.05294808056498" lon="9.419954366186207"><ele>80.75</ele><time>2026-04-23T16:42:15.999Z</time></trkpt><trkpt lat="45.05303176046425" lon="9.420069117251307"><ele>80.0</ele><time>2026-04-23T16:42:16.999Z</time></trkpt><trkpt lat="45.05311205503945" lon="9.420176143344966"><ele>80.0</ele><time>2026-04-23T16:42:17.999Z</time></trkpt><trkpt lat="45.05318719628555" lon="9.420296322645607"><ele>80.0</ele><time>2026-04-23T16:42:18.999Z</time></trkpt><trkpt lat="45.0532527623438" lon="9.420430996411747"><ele>80.0</ele><time>2026-04-23T16:42:19.999Z</time></trkpt><trkpt lat="45.05331383977634" lon="9.420558561162235"><ele>80.0</ele><time>2026-04-23T16:42:20.999Z</time></trkpt><trkpt lat="45.05336886052904" lon="9.420673347653498"><ele>80.0</ele><time>2026-04-23T16:42:21.999Z</time></trkpt><trkpt lat="45.05341812724304" lon="9.420784597656446"><ele>80.0</ele><time>2026-04-23T16:42:22.999Z</time></trkpt><trkpt lat="45.05346716390552" lon="9.420904449023897"><ele>80.0</ele><time>2026-04-23T16:42:23.999Z</time></trkpt><trkpt lat="45.053520375818955" lon="9.421028651931277"><ele>80.0</ele><time>2026-04-23T16:42:24.999Z</time></trkpt><trkpt lat="45.0535746692842" lon="9.421154017326746"><ele>80.0</ele><time>2026-04-23T16:42:25.999Z</time></trkpt><trkpt lat="45.05363159494272" lon="9.4212942068565"><ele>80.0</ele><time>2026-04-23T16:42:26.999Z</time></trkpt><trkpt lat="45.053687072054316" lon="9.42143223709058"><ele>79.8</ele><time>2026-04-23T16:42:27.999Z</time></trkpt><trkpt lat="45.05373797711317" lon="9.421557364359076"><ele>79.6</ele><time>2026-04-23T16:42:28.999Z</time></trkpt><trkpt lat="45.05379053038452" lon="9.421665804384546"><ele>79.4</ele><time>2026-04-23T16:42:29.999Z</time></trkpt><trkpt lat="45.053828349056346" lon="9.421749572421756"><ele>79.2</ele><time>2026-04-23T16:42:30.999Z</time></trkpt><trkpt lat="45.05389556086098" lon="9.421911321025958"><ele>79.0</ele><time>2026-04-23T16:42:32.999Z</time></trkpt><trkpt lat="45.05395304970096" lon="9.422062135514182"><ele>79.33333333333333</ele><time>2026-04-23T16:42:33.999Z</time></trkpt><trkpt lat="45.05402546830164" lon="9.422263934232358"><ele>79.66666666666667</ele><time>2026-04-23T16:42:34.999Z</time></trkpt><trkpt lat="45.054098553669476" lon="9.422467209816231"><ele>80.0</ele><time>2026-04-23T16:42:35.999Z</time></trkpt><trkpt lat="45.054171466155886" lon="9.422689858043398"><ele>80.0</ele><time>2026-04-23T16:42:36.999Z</time></trkpt><trkpt lat="45.05426845093662" lon="9.422922719218516"><ele>80.0</ele><time>2026-04-23T16:42:37.999Z</time></trkpt><trkpt lat="45.054360275700425" lon="9.42312949118213"><ele>80.0</ele><time>2026-04-23T16:42:38.999Z</time></trkpt><trkpt lat="45.054448921117256" lon="9.423314022863703"><ele>80.0</ele><time>2026-04-23T16:42:39.999Z</time></trkpt><trkpt lat="45.05454315716795" lon="9.423489315114422"><ele>80.0</ele><time>2026-04-23T16:42:40.999Z</time></trkpt><trkpt lat="45.054638292310194" lon="9.423662136332828"><ele>80.0</ele><time>2026-04-23T16:42:41.999Z</time></trkpt><trkpt lat="45.05473583344253" lon="9.423819613954358"><ele>79.75</ele><time>2026-04-23T16:42:42.999Z</time></trkpt><trkpt lat="45.05482796371274" lon="9.423958349714193"><ele>79.5</ele><time>2026-04-23T16:42:43.999Z</time></trkpt><trkpt lat="45.054916342163565" lon="9.424089752396629"><ele>79.25</ele><time>2026-04-23T16:42:44.999Z</time></trkpt><trkpt lat="45.05500552685715" lon="9.42424571978801"><ele>79.0</ele><time>2026-04-23T16:42:45.999Z</time></trkpt><trkpt lat="45.0551175986344" lon="9.424407697496068"><ele>79.0</ele><time>2026-04-23T16:42:46.999Z</time></trkpt><trkpt lat="45.055240593799624" lon="9.42457041556258"><ele>79.0</ele><time>2026-04-23T16:42:47.999Z</time></trkpt><trkpt lat="45.05536473377556" lon="9.424733855728682"><ele>79.0</ele><time>2026-04-23T16:42:48.999Z</time></trkpt><trkpt lat="45.05549292301854" lon="9.42487763736501"><ele>79.0</ele><time>2026-04-23T16:42:49.999Z</time></trkpt><trkpt lat="45.05560295537517" lon="9.425014148647"><ele>79.0</ele><time>2026-04-23T16:42:50.999Z</time></trkpt><trkpt lat="45.05571178672621" lon="9.425144489498079"><ele>79.0</ele><time>2026-04-23T16:42:51.999Z</time></trkpt><trkpt lat="45.05581436640133" lon="9.425271726451312"><ele>79.0</ele><time>2026-04-23T16:42:52.999Z</time></trkpt><trkpt lat="45.05590903220346" lon="9.425396824166302"><ele>79.0</ele><time>2026-04-23T16:42:53.999Z</time></trkpt><trkpt lat="45.0560016605873" lon="9.425516715127054"><ele>79.0</ele><time>2026-04-23T16:42:54.999Z</time></trkpt><trkpt lat="45.05608892285717" lon="9.425636894945583"><ele>79.0</ele><time>2026-04-23T16:42:55.999Z</time></trkpt><trkpt lat="45.056177300667215" lon="9.42574889562575"><ele>79.0</ele><time>2026-04-23T16:42:56.999Z</time></trkpt><trkpt lat="45.05625249696712" lon="9.42587125474943"><ele>79.0</ele><time>2026-04-23T16:42:57.999Z</time></trkpt><trkpt lat="45.05630855377999" lon="9.426004225531633"><ele>79.0</ele><time>2026-04-23T16:42:58.999Z</time></trkpt><trkpt lat="45.05637378012359" lon="9.426127579578958"><ele>79.0</ele><time>2026-04-23T16:42:59.999Z</time></trkpt><trkpt lat="45.05644991474926" lon="9.4262510282048"><ele>79.0</ele><time>2026-04-23T16:43:00.999Z</time></trkpt><trkpt lat="45.0565187888838" lon="9.426398116272757"><ele>78.5</ele><time>2026-04-23T16:43:01.999Z</time></trkpt><trkpt lat="45.05658854019942" lon="9.426567561463385"><ele>78.0</ele><time>2026-04-23T16:43:02.999Z</time></trkpt><trkpt lat="45.0566577555445" lon="9.426734902381028"><ele>77.5</ele><time>2026-04-23T16:43:03.999Z</time></trkpt><trkpt lat="45.0567206061475" lon="9.42690869191621"><ele>77.0</ele><time>2026-04-23T16:43:04.999Z</time></trkpt><trkpt lat="45.05677798324045" lon="9.427080235600577"><ele>76.5</ele><time>2026-04-23T16:43:05.999Z</time></trkpt><trkpt lat="45.05684359979667" lon="9.427243445601361"><ele>76.0</ele><time>2026-04-23T16:43:06.999Z</time></trkpt><trkpt lat="45.05689087039213" lon="9.427406010765596"><ele>75.5</ele><time>2026-04-23T16:43:07.999Z</time></trkpt><trkpt lat="45.05693358426804" lon="9.427561921028891"><ele>75.0</ele><time>2026-04-23T16:43:08.999Z</time></trkpt><trkpt lat="45.0569802761005" lon="9.427707709218913"><ele>75.0</ele><time>2026-04-23T16:43:09.999Z</time></trkpt><trkpt lat="45.05702341120017" lon="9.427844913133882"><ele>75.0</ele><time>2026-04-23T16:43:10.999Z</time></trkpt><trkpt lat="45.05706080567535" lon="9.427970879935504"><ele>75.0</ele><time>2026-04-23T16:43:11.999Z</time></trkpt><trkpt lat="45.05709353036015" lon="9.428071799894914"><ele>75.0</ele><time>2026-04-23T16:43:12.999Z</time></trkpt><trkpt lat="45.0570904373973" lon="9.428201218921677"><ele>75.0</ele><time>2026-04-23T16:43:14.999Z</time></trkpt><trkpt lat="45.05699283770286" lon="9.428284961067462"><ele>75.0</ele><time>2026-04-23T16:43:16.999Z</time></trkpt><trkpt lat="45.05693525221047" lon="9.428331929618368"><ele>75.0</ele><time>2026-04-23T16:43:17.999Z</time></trkpt><trkpt lat="45.056877978876436" lon="9.428409746297492"><ele>75.0</ele><time>2026-04-23T16:43:18.998Z</time></trkpt><trkpt lat="45.05680613820268" lon="9.428500561327088"><ele>75.0</ele><time>2026-04-23T16:43:19.998Z</time></trkpt><trkpt lat="45.05673274557714" lon="9.428603086334075"><ele>75.0</ele><time>2026-04-23T16:43:20.998Z</time></trkpt><trkpt lat="45.05665991524906" lon="9.428696714145952"><ele>75.0</ele><time>2026-04-23T16:43:21.998Z</time></trkpt><trkpt lat="45.05657903286511" lon="9.428785891570373"><ele>75.0</ele><time>2026-04-23T16:43:22.998Z</time></trkpt><trkpt lat="45.05650536974617" lon="9.428876573390731"><ele>75.0</ele><time>2026-04-23T16:43:23.998Z</time></trkpt><trkpt lat="45.05643653853074" lon="9.428969344240155"><ele>75.0</ele><time>2026-04-23T16:43:24.998Z</time></trkpt><trkpt lat="45.05636762823374" lon="9.429062359594681"><ele>75.0</ele><time>2026-04-23T16:43:25.998Z</time></trkpt><trkpt lat="45.0562988748625" lon="9.42915237110776"><ele>75.0</ele><time>2026-04-23T16:43:26.998Z</time></trkpt><trkpt lat="45.05623091484804" lon="9.429236527437501"><ele>75.0</ele><time>2026-04-23T16:43:27.998Z</time></trkpt><trkpt lat="45.05616257509161" lon="9.429325108113646"><ele>75.0</ele><time>2026-04-23T16:43:28.998Z</time></trkpt><trkpt lat="45.05609706555563" lon="9.429402027418245"><ele>75.0</ele><time>2026-04-23T16:43:29.998Z</time></trkpt><trkpt lat="45.056033224975664" lon="9.429471581245432"><ele>75.0</ele><time>2026-04-23T16:43:30.998Z</time></trkpt><trkpt lat="45.05596953904142" lon="9.42954631002361"><ele>75.0</ele><time>2026-04-23T16:43:31.998Z</time></trkpt><trkpt lat="45.055914362079726" lon="9.429614672601787"><ele>75.0</ele><time>2026-04-23T16:43:32.998Z</time></trkpt><trkpt lat="45.055858142159494" lon="9.429685870621585"><ele>74.8</ele><time>2026-04-23T16:43:33.998Z</time></trkpt><trkpt lat="45.05580745286003" lon="9.429754056226598"><ele>74.6</ele><time>2026-04-23T16:43:34.998Z</time></trkpt><trkpt lat="45.055841190484195" lon="9.429939770876112"><ele>74.4</ele><time>2026-04-23T16:43:36.998Z</time></trkpt><trkpt lat="45.055905190237766" lon="9.429998095361416"><ele>74.2</ele><time>2026-04-23T16:43:37.998Z</time></trkpt><trkpt lat="45.0560072399624" lon="9.429990734893575"><ele>74.0</ele><time>2026-04-23T16:43:38.998Z</time></trkpt><trkpt lat="45.05611052001119" lon="9.429944773668096"><ele>74.0</ele><time>2026-04-23T16:43:39.998Z</time></trkpt><trkpt lat="45.056224419647464" lon="9.429992149179244"><ele>74.0</ele><time>2026-04-23T16:43:40.998Z</time></trkpt><trkpt lat="45.05631369182369" lon="9.430072572792199"><ele>74.0</ele><time>2026-04-23T16:43:41.998Z</time></trkpt><trkpt lat="45.056374479125346" lon="9.430178618878243"><ele>74.0</ele><time>2026-04-23T16:43:43Z</time></trkpt><trkpt lat="45.05640853501206" lon="9.43029648723953"><ele>74.0</ele><time>2026-04-23T16:43:44Z</time></trkpt><trkpt lat="45.056409971345424" lon="9.430436517467085"><ele>73.75</ele><time>2026-04-23T16:43:45Z</time></trkpt><trkpt lat="45.0563964540154" lon="9.430610114890184"><ele>73.5</ele><time>2026-04-23T16:43:46Z</time></trkpt><trkpt lat="45.05638284578736" lon="9.430803037987049"><ele>73.25</ele><time>2026-04-23T16:43:47Z</time></trkpt><trkpt lat="45.056362971540196" lon="9.430997063483542"><ele>73.0</ele><time>2026-04-23T16:43:48Z</time></trkpt><trkpt lat="45.05634645693184" lon="9.4312144488306"><ele>72.75</ele><time>2026-04-23T16:43:49Z</time></trkpt><trkpt lat="45.056324361136554" lon="9.43142207014731"><ele>72.5</ele><time>2026-04-23T16:43:50Z</time></trkpt><trkpt lat="45.056303070132785" lon="9.431609489805401"><ele>72.25</ele><time>2026-04-23T16:43:51Z</time></trkpt><trkpt lat="45.056293100928855" lon="9.43178086290591"><ele>72.0</ele><time>2026-04-23T16:43:52Z</time></trkpt><trkpt lat="45.05628100685604" lon="9.431936906912476"><ele>72.0</ele><time>2026-04-23T16:43:53Z</time></trkpt><trkpt lat="45.056268075445246" lon="9.432081833447844"><ele>72.0</ele><time>2026-04-23T16:43:54Z</time></trkpt><trkpt lat="45.056255040576595" lon="9.432231046088575"><ele>72.0</ele><time>2026-04-23T16:43:55Z</time></trkpt><trkpt lat="45.056239143389" lon="9.432378940230045"><ele>72.0</ele><time>2026-04-23T16:43:56Z</time></trkpt><trkpt lat="45.05622971531901" lon="9.432525590909783"><ele>72.0</ele><time>2026-04-23T16:43:57Z</time></trkpt><trkpt lat="45.05622472898488" lon="9.432666169508565"><ele>71.83333333333333</ele><time>2026-04-23T16:43:58Z</time></trkpt><trkpt lat="45.05621434653703" lon="9.432803672758897"><ele>71.66666666666667</ele><time>2026-04-23T16:43:59Z</time></trkpt><trkpt lat="45.056212531556085" lon="9.432927991844974"><ele>71.5</ele><time>2026-04-23T16:44:00Z</time></trkpt><trkpt lat="45.05620694695073" lon="9.433053561345961"><ele>71.33333333333334</ele><time>2026-04-23T16:44:01Z</time></trkpt><trkpt lat="45.05619549067266" lon="9.433143516649134"><ele>71.16666666666667</ele><time>2026-04-23T16:44:02Z</time></trkpt><trkpt lat="45.056180261424444" lon="9.433264296168483"><ele>71.0</ele><time>2026-04-23T16:44:04Z</time></trkpt><trkpt lat="45.056172393467314" lon="9.43335891112494"><ele>71.0</ele><time>2026-04-23T16:44:07Z</time></trkpt><trkpt lat="45.05616518875383" lon="9.433486464512622"><ele>71.0</ele><time>2026-04-23T16:44:10Z</time></trkpt><trkpt lat="45.05617045717679" lon="9.43369399536634"><ele>71.0</ele><time>2026-04-23T16:44:12Z</time></trkpt><trkpt lat="45.05616213555984" lon="9.4338470432792"><ele>71.0</ele><time>2026-04-23T16:44:13Z</time></trkpt><trkpt lat="45.05615220600381" lon="9.433987563882717"><ele>71.0</ele><time>2026-04-23T16:44:14Z</time></trkpt><trkpt lat="45.0561366127627" lon="9.434120217549895"><ele>71.2</ele><time>2026-04-23T16:44:15Z</time></trkpt><trkpt lat="45.056114673488" lon="9.434218168643632"><ele>71.39999999999999</ele><time>2026-04-23T16:44:16Z</time></trkpt><trkpt lat="45.056103563901004" lon="9.43431306383625"><ele>71.6</ele><time>2026-04-23T16:44:17Z</time></trkpt><trkpt lat="45.05609422938862" lon="9.434414914066553"><ele>71.8</ele><time>2026-04-23T16:44:20Z</time></trkpt><trkpt lat="45.05608681856292" lon="9.434573784061104"><ele>72.0</ele><time>2026-04-23T16:44:28.999Z</time></trkpt><trkpt lat="45.05609570880627" lon="9.434750191660546"><ele>72.0</ele><time>2026-04-23T16:44:30.999Z</time></trkpt><trkpt lat="45.0560808037846" lon="9.434877343384649"><ele>72.0</ele><time>2026-04-23T16:44:31.999Z</time></trkpt><trkpt lat="45.05606727274218" lon="9.435006348024745"><ele>72.0</ele><time>2026-04-23T16:44:32.999Z</time></trkpt><trkpt lat="45.05606427123474" lon="9.435117299256246"><ele>72.0</ele><time>2026-04-23T16:44:33.999Z</time></trkpt><trkpt lat="45.05605649136443" lon="9.43525759005423"><ele>72.0</ele><time>2026-04-23T16:44:34.999Z</time></trkpt><trkpt lat="45.05604353401367" lon="9.435411779392641"><ele>72.0</ele><time>2026-04-23T16:44:35.999Z</time></trkpt><trkpt lat="45.05603570504649" lon="9.435557864022266"><ele>72.0</ele><time>2026-04-23T16:44:36.999Z</time></trkpt><trkpt lat="45.05602396582641" lon="9.435709040603792"><ele>72.0</ele><time>2026-04-23T16:44:37.999Z</time></trkpt><trkpt lat="45.05601219099128" lon="9.435834715137577"><ele>72.0</ele><time>2026-04-23T16:44:38.999Z</time></trkpt><trkpt lat="45.056003515138926" lon="9.435960638667419"><ele>72.0</ele><time>2026-04-23T16:44:39.999Z</time></trkpt><trkpt lat="45.05599416106239" lon="9.436075110705548"><ele>72.0</ele><time>2026-04-23T16:44:40.999Z</time></trkpt><trkpt lat="45.05598308977779" lon="9.436181746341878"><ele>72.0</ele><time>2026-04-23T16:44:41.999Z</time></trkpt><trkpt lat="45.05598271110925" lon="9.436280936319067"><ele>72.0</ele><time>2026-04-23T16:44:42.999Z</time></trkpt><trkpt lat="45.05596509043334" lon="9.436397912856878"><ele>72.0</ele><time>2026-04-23T16:44:44.999Z</time></trkpt><trkpt lat="45.055908567390496" lon="9.436458443016631"><ele>72.0</ele><time>2026-04-23T16:44:51.999Z</time></trkpt><trkpt lat="45.05579017662363" lon="9.436366446936459"><ele>72.0</ele><time>2026-04-23T16:44:52.999Z</time></trkpt><trkpt lat="45.05571683772057" lon="9.436290243175838"><ele>72.5</ele><time>2026-04-23T16:44:53.999Z</time></trkpt><trkpt lat="45.055620053423795" lon="9.436224735244215"><ele>73.0</ele><time>2026-04-23T16:44:54.999Z</time></trkpt><trkpt lat="45.055524019537714" lon="9.436155663126387"><ele>73.5</ele><time>2026-04-23T16:44:55.999Z</time></trkpt><trkpt lat="45.055417473873476" lon="9.436084134310727"><ele>74.0</ele><time>2026-04-23T16:44:56.999Z</time></trkpt><trkpt lat="45.05529208405103" lon="9.43599635516388"><ele>74.0</ele><time>2026-04-23T16:44:57.999Z</time></trkpt><trkpt lat="45.05515293825431" lon="9.43591450407617"><ele>74.0</ele><time>2026-04-23T16:44:58.999Z</time></trkpt><trkpt lat="45.05500670074417" lon="9.435854176999309"><ele>74.0</ele><time>2026-04-23T16:44:59.999Z</time></trkpt><trkpt lat="45.05484222568113" lon="9.43581243966945"><ele>74.0</ele><time>2026-04-23T16:45:00.999Z</time></trkpt><trkpt lat="45.05464753134161" lon="9.435809201676443"><ele>74.0</ele><time>2026-04-23T16:45:01.999Z</time></trkpt><trkpt lat="45.05446620725616" lon="9.435794849248166"><ele>74.0</ele><time>2026-04-23T16:45:02.999Z</time></trkpt><trkpt lat="45.05428614905028" lon="9.435786688937977"><ele>73.66666666666667</ele><time>2026-04-23T16:45:03.999Z</time></trkpt><trkpt lat="45.05411117766243" lon="9.435804786608015"><ele>73.33333333333333</ele><time>2026-04-23T16:45:04.999Z</time></trkpt><trkpt lat="45.05394637372389" lon="9.435820124861515"><ele>73.0</ele><time>2026-04-23T16:45:05.999Z</time></trkpt><trkpt lat="45.05379794233035" lon="9.43586018447228"><ele>73.0</ele><time>2026-04-23T16:45:06.999Z</time></trkpt><trkpt lat="45.05366596699562" lon="9.435890214114819"><ele>73.0</ele><time>2026-04-23T16:45:07.999Z</time></trkpt><trkpt lat="45.05353562520257" lon="9.435915848199723"><ele>73.0</ele><time>2026-04-23T16:45:08.999Z</time></trkpt><trkpt lat="45.05340736490917" lon="9.435939963140072"><ele>73.0</ele><time>2026-04-23T16:45:09.999Z</time></trkpt><trkpt lat="45.0532839368557" lon="9.435964212078884"><ele>74.6</ele><time>2026-04-23T16:45:10.999Z</time></trkpt><trkpt lat="45.053167369234345" lon="9.43598438252525"><ele>76.19999999999999</ele><time>2026-04-23T16:45:11.999Z</time></trkpt><trkpt lat="45.05306787449538" lon="9.435989647256031"><ele>77.8</ele><time>2026-04-23T16:45:12.999Z</time></trkpt><trkpt lat="45.05297117150005" lon="9.435996710925426"><ele>79.39999999999999</ele><time>2026-04-23T16:45:13.999Z</time></trkpt><trkpt lat="45.05288707059317" lon="9.435992026388755"><ele>81.0</ele><time>2026-04-23T16:45:14.999Z</time></trkpt><trkpt lat="45.05281008851088" lon="9.435957872720069"><ele>81.0</ele><time>2026-04-23T16:45:15.999Z</time></trkpt><trkpt lat="45.05273889955252" lon="9.43592667188239"><ele>81.0</ele><time>2026-04-23T16:45:16.999Z</time></trkpt><trkpt lat="45.05267765678863" lon="9.436023905392142"><ele>81.0</ele><time>2026-04-23T16:45:17.999Z</time></trkpt><trkpt lat="45.05262456129666" lon="9.436120233690538"><ele>81.0</ele><time>2026-04-23T16:45:18.999Z</time></trkpt><trkpt lat="45.05255999796362" lon="9.436190025117424"><ele>81.0</ele><time>2026-04-23T16:45:19.999Z</time></trkpt><trkpt lat="45.05245278755824" lon="9.436203349646524"><ele>81.0</ele><time>2026-04-23T16:45:20.999Z</time></trkpt><trkpt lat="45.05234729636558" lon="9.436244780248417"><ele>80.8</ele><time>2026-04-23T16:45:21.999Z</time></trkpt><trkpt lat="45.05225388640632" lon="9.436249312447584"><ele>80.6</ele><time>2026-04-23T16:45:22.999Z</time></trkpt><trkpt lat="45.05218154917969" lon="9.436291055612617"><ele>80.4</ele><time>2026-04-23T16:45:23.999Z</time></trkpt><trkpt lat="45.05213440970377" lon="9.43649631281035"><ele>80.2</ele><time>2026-04-23T16:45:25.999Z</time></trkpt><trkpt lat="45.052149069737084" lon="9.436646196929365"><ele>80.0</ele><time>2026-04-23T16:45:26.999Z</time></trkpt><trkpt lat="45.052130653486664" lon="9.436819902136445"><ele>80.0</ele><time>2026-04-23T16:45:27.999Z</time></trkpt><trkpt lat="45.05213685568303" lon="9.437009207966295"><ele>80.0</ele><time>2026-04-23T16:45:28.999Z</time></trkpt><trkpt lat="45.05210929154491" lon="9.437194829862745"><ele>80.0</ele><time>2026-04-23T16:45:29.999Z</time></trkpt><trkpt lat="45.05209957912944" lon="9.437378686378983"><ele>80.0</ele><time>2026-04-23T16:45:30.999Z</time></trkpt><trkpt lat="45.052099066732765" lon="9.437571743499667"><ele>79.25</ele><time>2026-04-23T16:45:31.999Z</time></trkpt><trkpt lat="45.05209297695507" lon="9.43775861577194"><ele>78.5</ele><time>2026-04-23T16:45:32.999Z</time></trkpt><trkpt lat="45.05207064092167" lon="9.437937117365143"><ele>77.75</ele><time>2026-04-23T16:45:33.999Z</time></trkpt><trkpt lat="45.05206187774912" lon="9.438106692461433"><ele>77.0</ele><time>2026-04-23T16:45:34.999Z</time></trkpt><trkpt lat="45.05206313782457" lon="9.438269498599016"><ele>76.6</ele><time>2026-04-23T16:45:35.999Z</time></trkpt><trkpt lat="45.05205138585227" lon="9.438418398068906"><ele>76.2</ele><time>2026-04-23T16:45:36.999Z</time></trkpt><trkpt lat="45.05204821595952" lon="9.43854839982069"><ele>75.8</ele><time>2026-04-23T16:45:37.999Z</time></trkpt><trkpt lat="45.05203540725094" lon="9.438668956268053"><ele>75.4</ele><time>2026-04-23T16:45:38.999Z</time></trkpt><trkpt lat="45.051979779455515" lon="9.438770766797846"><ele>75.0</ele><time>2026-04-23T16:45:39.999Z</time></trkpt><trkpt lat="45.05188710653268" lon="9.438840627710828"><ele>75.0</ele><time>2026-04-23T16:45:40.999Z</time></trkpt><trkpt lat="45.051821919631884" lon="9.438956097963729"><ele>75.0</ele><time>2026-04-23T16:45:41.999Z</time></trkpt><trkpt lat="45.05173749528261" lon="9.439039225144256"><ele>75.0</ele><time>2026-04-23T16:45:42.998Z</time></trkpt><trkpt lat="45.05167225292165" lon="9.439144567196104"><ele>75.0</ele><time>2026-04-23T16:45:43.998Z</time></trkpt><trkpt lat="45.05162393730491" lon="9.439251524667585"><ele>75.0</ele><time>2026-04-23T16:45:44.998Z</time></trkpt><trkpt lat="45.051572136093085" lon="9.439334372475193"><ele>75.6</ele><time>2026-04-23T16:45:45.998Z</time></trkpt><trkpt lat="45.05153744372819" lon="9.439423799216966"><ele>76.2</ele><time>2026-04-23T16:45:46.998Z</time></trkpt><trkpt lat="45.051496269540316" lon="9.43956255984649"><ele>76.8</ele><time>2026-04-23T16:45:49Z</time></trkpt><trkpt lat="45.05136302070485" lon="9.43955401557568"><ele>77.4</ele><time>2026-04-23T16:45:51Z</time></trkpt><trkpt lat="45.05126752464213" lon="9.439504272597173"><ele>78.0</ele><time>2026-04-23T16:45:52Z</time></trkpt><trkpt lat="45.05117246556836" lon="9.439461429308253"><ele>78.0</ele><time>2026-04-23T16:45:53Z</time></trkpt><trkpt lat="45.051083672370524" lon="9.439427787279229"><ele>78.0</ele><time>2026-04-23T16:45:54Z</time></trkpt><trkpt lat="45.05100224404134" lon="9.439405243661028"><ele>78.0</ele><time>2026-04-23T16:45:55Z</time></trkpt><trkpt lat="45.05092137441091" lon="9.439387166411157"><ele>78.0</ele><time>2026-04-23T16:45:56Z</time></trkpt><trkpt lat="45.05084902649487" lon="9.439369331581881"><ele>78.0</ele><time>2026-04-23T16:45:57Z</time></trkpt><trkpt lat="45.0507863685877" lon="9.439342482264092"><ele>78.0</ele><time>2026-04-23T16:45:58Z</time></trkpt><trkpt lat="45.05069576278756" lon="9.439262834611915"><ele>80.0</ele><time>2026-04-23T16:46:00Z</time></trkpt><trkpt lat="45.05062450168571" lon="9.439224213630473"><ele>80.0</ele><time>2026-04-23T16:46:39.999Z</time></trkpt><trkpt lat="45.05065818681829" lon="9.439000918528146"><ele>80.0</ele><time>2026-04-23T16:46:52.999Z</time></trkpt><trkpt lat="45.050671717267505" lon="9.438912795468958"><ele>80.0</ele><time>2026-04-23T16:46:55.999Z</time></trkpt></trkseg></trk></gpx>